<?xml version="1.0" encoding="UTF-8" standalone="no" ?>
<gpx xmlns="http://www.topografix.com/GPX/1/1" xmlns:xsi="http://www.w3.org/2001/XMLSchema-instance" xsi:schemaLocation="http://www.topografix.com/GPX/1/1 http://www.topografix.com/GPX/1/1/gpx.xsd" version="1.1" creator="VisuGPX - https://www.visugpx.com">
  <metadata>
    <name>10 mai 2024</name>
    <desc><![CDATA[Promenade du 2ème jour du rasso 2024]]></desc>
  </metadata>
  <trk>
    <name><![CDATA[10 mai 2024]]></name>
    <extensions>
      <line xmlns="http://www.topografix.com/GPX/gpx_style/0/2">
        <color>0000FF</color>
        <width>4</width>
      </line>
    </extensions>
    <trkseg>
      <trkpt lat="43.20838" lon="2.31286">
        <ele>118</ele>
        <time>2024-05-10T06:09:00Z</time>
      </trkpt>
      <trkpt lat="43.20838" lon="2.31286">
        <ele>118</ele>
        <time>2024-05-10T06:09:01Z</time>
      </trkpt>
      <trkpt lat="43.20838" lon="2.31287">
        <ele>118</ele>
        <time>2024-05-10T06:09:03Z</time>
      </trkpt>
      <trkpt lat="43.20838" lon="2.31287">
        <ele>118</ele>
        <time>2024-05-10T06:09:04Z</time>
      </trkpt>
      <trkpt lat="43.20839" lon="2.31287">
        <ele>118</ele>
        <time>2024-05-10T06:09:05Z</time>
      </trkpt>
      <trkpt lat="43.20839" lon="2.31287">
        <ele>118</ele>
        <time>2024-05-10T06:09:06Z</time>
      </trkpt>
      <trkpt lat="43.20839" lon="2.31287">
        <ele>118</ele>
        <time>2024-05-10T06:09:07Z</time>
      </trkpt>
      <trkpt lat="43.20839" lon="2.31287">
        <ele>118</ele>
        <time>2024-05-10T06:09:08Z</time>
      </trkpt>
      <trkpt lat="43.20839" lon="2.31288">
        <ele>118</ele>
        <time>2024-05-10T06:09:09Z</time>
      </trkpt>
      <trkpt lat="43.2084" lon="2.31288">
        <ele>118</ele>
        <time>2024-05-10T06:09:10Z</time>
      </trkpt>
      <trkpt lat="43.2084" lon="2.31288">
        <ele>118</ele>
        <time>2024-05-10T06:09:11Z</time>
      </trkpt>
      <trkpt lat="43.2084" lon="2.31288">
        <ele>118</ele>
        <time>2024-05-10T06:09:12Z</time>
      </trkpt>
      <trkpt lat="43.2084" lon="2.31288">
        <ele>118</ele>
        <time>2024-05-10T06:09:13Z</time>
      </trkpt>
      <trkpt lat="43.2084" lon="2.31288">
        <ele>118</ele>
        <time>2024-05-10T06:09:14Z</time>
      </trkpt>
      <trkpt lat="43.2084" lon="2.31288">
        <ele>118</ele>
        <time>2024-05-10T06:09:15Z</time>
      </trkpt>
      <trkpt lat="43.2084" lon="2.31288">
        <ele>118</ele>
        <time>2024-05-10T06:09:16Z</time>
      </trkpt>
      <trkpt lat="43.2084" lon="2.31288">
        <ele>118</ele>
        <time>2024-05-10T06:09:17Z</time>
      </trkpt>
      <trkpt lat="43.2084" lon="2.31288">
        <ele>118</ele>
        <time>2024-05-10T06:09:18Z</time>
      </trkpt>
      <trkpt lat="43.2084" lon="2.31288">
        <ele>118</ele>
        <time>2024-05-10T06:09:19Z</time>
      </trkpt>
      <trkpt lat="43.2084" lon="2.31288">
        <ele>118</ele>
        <time>2024-05-10T06:09:20Z</time>
      </trkpt>
      <trkpt lat="43.2084" lon="2.31288">
        <ele>118</ele>
        <time>2024-05-10T06:09:21Z</time>
      </trkpt>
      <trkpt lat="43.2084" lon="2.31288">
        <ele>118</ele>
        <time>2024-05-10T06:09:22Z</time>
      </trkpt>
      <trkpt lat="43.2084" lon="2.31288">
        <ele>118</ele>
        <time>2024-05-10T06:09:23Z</time>
      </trkpt>
      <trkpt lat="43.2084" lon="2.31288">
        <ele>118</ele>
        <time>2024-05-10T06:09:24Z</time>
      </trkpt>
      <trkpt lat="43.2084" lon="2.31288">
        <ele>118</ele>
        <time>2024-05-10T06:09:25Z</time>
      </trkpt>
      <trkpt lat="43.2084" lon="2.31288">
        <ele>118</ele>
        <time>2024-05-10T06:09:26Z</time>
      </trkpt>
      <trkpt lat="43.2084" lon="2.31288">
        <ele>118</ele>
        <time>2024-05-10T06:09:27Z</time>
      </trkpt>
      <trkpt lat="43.2084" lon="2.31288">
        <ele>118</ele>
        <time>2024-05-10T06:09:28Z</time>
      </trkpt>
      <trkpt lat="43.2084" lon="2.31288">
        <ele>118</ele>
        <time>2024-05-10T06:09:29Z</time>
      </trkpt>
      <trkpt lat="43.2084" lon="2.31288">
        <ele>118</ele>
        <time>2024-05-10T06:09:30Z</time>
      </trkpt>
      <trkpt lat="43.2084" lon="2.31288">
        <ele>118</ele>
        <time>2024-05-10T06:09:31Z</time>
      </trkpt>
      <trkpt lat="43.2084" lon="2.31288">
        <ele>118</ele>
        <time>2024-05-10T06:09:32Z</time>
      </trkpt>
      <trkpt lat="43.2084" lon="2.31288">
        <ele>118</ele>
        <time>2024-05-10T06:09:33Z</time>
      </trkpt>
      <trkpt lat="43.2084" lon="2.31288">
        <ele>118</ele>
        <time>2024-05-10T06:09:34Z</time>
      </trkpt>
      <trkpt lat="43.2084" lon="2.31288">
        <ele>118</ele>
        <time>2024-05-10T06:09:35Z</time>
      </trkpt>
      <trkpt lat="43.2084" lon="2.31288">
        <ele>118</ele>
        <time>2024-05-10T06:09:36Z</time>
      </trkpt>
      <trkpt lat="43.2084" lon="2.31288">
        <ele>118</ele>
        <time>2024-05-10T06:09:37Z</time>
      </trkpt>
      <trkpt lat="43.2084" lon="2.31288">
        <ele>118</ele>
        <time>2024-05-10T06:09:38Z</time>
      </trkpt>
      <trkpt lat="43.2084" lon="2.31288">
        <ele>118</ele>
        <time>2024-05-10T06:09:39Z</time>
      </trkpt>
      <trkpt lat="43.2084" lon="2.31288">
        <ele>118</ele>
        <time>2024-05-10T06:09:40Z</time>
      </trkpt>
      <trkpt lat="43.2084" lon="2.31288">
        <ele>118</ele>
        <time>2024-05-10T06:09:41Z</time>
      </trkpt>
      <trkpt lat="43.2084" lon="2.31288">
        <ele>118</ele>
        <time>2024-05-10T06:09:42Z</time>
      </trkpt>
      <trkpt lat="43.2084" lon="2.31288">
        <ele>118</ele>
        <time>2024-05-10T06:09:43Z</time>
      </trkpt>
      <trkpt lat="43.2084" lon="2.31288">
        <ele>118</ele>
        <time>2024-05-10T06:09:44Z</time>
      </trkpt>
      <trkpt lat="43.2084" lon="2.31288">
        <ele>118</ele>
        <time>2024-05-10T06:09:45Z</time>
      </trkpt>
      <trkpt lat="43.2084" lon="2.31288">
        <ele>118</ele>
        <time>2024-05-10T06:09:46Z</time>
      </trkpt>
      <trkpt lat="43.2084" lon="2.31288">
        <ele>118</ele>
        <time>2024-05-10T06:09:47Z</time>
      </trkpt>
      <trkpt lat="43.2084" lon="2.31288">
        <ele>118</ele>
        <time>2024-05-10T06:09:48Z</time>
      </trkpt>
      <trkpt lat="43.2084" lon="2.31288">
        <ele>118</ele>
        <time>2024-05-10T06:09:49Z</time>
      </trkpt>
      <trkpt lat="43.2084" lon="2.31288">
        <ele>118</ele>
        <time>2024-05-10T06:09:50Z</time>
      </trkpt>
      <trkpt lat="43.2084" lon="2.31288">
        <ele>118</ele>
        <time>2024-05-10T06:09:51Z</time>
      </trkpt>
      <trkpt lat="43.2084" lon="2.31288">
        <ele>118</ele>
        <time>2024-05-10T06:09:52Z</time>
      </trkpt>
      <trkpt lat="43.2084" lon="2.31288">
        <ele>118</ele>
        <time>2024-05-10T06:09:53Z</time>
      </trkpt>
      <trkpt lat="43.2084" lon="2.31288">
        <ele>118</ele>
        <time>2024-05-10T06:09:54Z</time>
      </trkpt>
      <trkpt lat="43.2084" lon="2.31288">
        <ele>118</ele>
        <time>2024-05-10T06:09:55Z</time>
      </trkpt>
      <trkpt lat="43.2084" lon="2.31288">
        <ele>118</ele>
        <time>2024-05-10T06:09:56Z</time>
      </trkpt>
      <trkpt lat="43.2084" lon="2.31288">
        <ele>118</ele>
        <time>2024-05-10T06:09:57Z</time>
      </trkpt>
      <trkpt lat="43.2084" lon="2.31288">
        <ele>118</ele>
        <time>2024-05-10T06:09:58Z</time>
      </trkpt>
      <trkpt lat="43.2084" lon="2.31288">
        <ele>118</ele>
        <time>2024-05-10T06:09:59Z</time>
      </trkpt>
      <trkpt lat="43.2084" lon="2.31288">
        <ele>118</ele>
        <time>2024-05-10T06:10:00Z</time>
      </trkpt>
      <trkpt lat="43.2084" lon="2.31288">
        <ele>118</ele>
        <time>2024-05-10T06:10:01Z</time>
      </trkpt>
      <trkpt lat="43.2084" lon="2.31288">
        <ele>118</ele>
        <time>2024-05-10T06:10:02Z</time>
      </trkpt>
      <trkpt lat="43.2084" lon="2.31288">
        <ele>118</ele>
        <time>2024-05-10T06:10:03Z</time>
      </trkpt>
      <trkpt lat="43.2084" lon="2.31288">
        <ele>118</ele>
        <time>2024-05-10T06:10:04Z</time>
      </trkpt>
      <trkpt lat="43.2084" lon="2.31288">
        <ele>118</ele>
        <time>2024-05-10T06:10:05Z</time>
      </trkpt>
      <trkpt lat="43.2084" lon="2.31288">
        <ele>118</ele>
        <time>2024-05-10T06:10:06Z</time>
      </trkpt>
      <trkpt lat="43.2084" lon="2.31288">
        <ele>118</ele>
        <time>2024-05-10T06:10:07Z</time>
      </trkpt>
      <trkpt lat="43.2084" lon="2.31288">
        <ele>118</ele>
        <time>2024-05-10T06:10:08Z</time>
      </trkpt>
      <trkpt lat="43.2084" lon="2.31288">
        <ele>118</ele>
        <time>2024-05-10T06:10:09Z</time>
      </trkpt>
      <trkpt lat="43.2084" lon="2.31288">
        <ele>118</ele>
        <time>2024-05-10T06:10:10Z</time>
      </trkpt>
      <trkpt lat="43.2084" lon="2.31288">
        <ele>118</ele>
        <time>2024-05-10T06:10:11Z</time>
      </trkpt>
      <trkpt lat="43.2084" lon="2.31288">
        <ele>118</ele>
        <time>2024-05-10T06:10:12Z</time>
      </trkpt>
      <trkpt lat="43.2084" lon="2.31288">
        <ele>118</ele>
        <time>2024-05-10T06:10:13Z</time>
      </trkpt>
      <trkpt lat="43.2084" lon="2.31288">
        <ele>118</ele>
        <time>2024-05-10T06:10:14Z</time>
      </trkpt>
      <trkpt lat="43.2084" lon="2.31288">
        <ele>118</ele>
        <time>2024-05-10T06:10:15Z</time>
      </trkpt>
      <trkpt lat="43.2084" lon="2.31288">
        <ele>118</ele>
        <time>2024-05-10T06:10:16Z</time>
      </trkpt>
      <trkpt lat="43.2084" lon="2.31288">
        <ele>118</ele>
        <time>2024-05-10T06:10:17Z</time>
      </trkpt>
      <trkpt lat="43.2084" lon="2.31288">
        <ele>118</ele>
        <time>2024-05-10T06:10:18Z</time>
      </trkpt>
      <trkpt lat="43.2084" lon="2.31288">
        <ele>118</ele>
        <time>2024-05-10T06:10:19Z</time>
      </trkpt>
      <trkpt lat="43.2084" lon="2.31288">
        <ele>118</ele>
        <time>2024-05-10T06:10:20Z</time>
      </trkpt>
      <trkpt lat="43.2084" lon="2.31288">
        <ele>118</ele>
        <time>2024-05-10T06:10:21Z</time>
      </trkpt>
      <trkpt lat="43.2084" lon="2.31288">
        <ele>118</ele>
        <time>2024-05-10T06:10:22Z</time>
      </trkpt>
      <trkpt lat="43.2084" lon="2.31288">
        <ele>118</ele>
        <time>2024-05-10T06:10:23Z</time>
      </trkpt>
      <trkpt lat="43.2084" lon="2.31288">
        <ele>118</ele>
        <time>2024-05-10T06:10:24Z</time>
      </trkpt>
      <trkpt lat="43.2084" lon="2.31288">
        <ele>118</ele>
        <time>2024-05-10T06:10:25Z</time>
      </trkpt>
      <trkpt lat="43.2084" lon="2.31288">
        <ele>118</ele>
        <time>2024-05-10T06:10:26Z</time>
      </trkpt>
      <trkpt lat="43.2084" lon="2.31288">
        <ele>118</ele>
        <time>2024-05-10T06:10:27Z</time>
      </trkpt>
      <trkpt lat="43.2084" lon="2.31288">
        <ele>118</ele>
        <time>2024-05-10T06:10:28Z</time>
      </trkpt>
      <trkpt lat="43.2084" lon="2.31288">
        <ele>118</ele>
        <time>2024-05-10T06:10:29Z</time>
      </trkpt>
      <trkpt lat="43.2084" lon="2.31288">
        <ele>118</ele>
        <time>2024-05-10T06:10:30Z</time>
      </trkpt>
      <trkpt lat="43.2084" lon="2.31288">
        <ele>118</ele>
        <time>2024-05-10T06:10:31Z</time>
      </trkpt>
      <trkpt lat="43.2084" lon="2.31288">
        <ele>118</ele>
        <time>2024-05-10T06:10:32Z</time>
      </trkpt>
      <trkpt lat="43.2084" lon="2.31288">
        <ele>118</ele>
        <time>2024-05-10T06:10:33Z</time>
      </trkpt>
      <trkpt lat="43.2084" lon="2.31288">
        <ele>118</ele>
        <time>2024-05-10T06:10:34Z</time>
      </trkpt>
      <trkpt lat="43.2084" lon="2.31288">
        <ele>118</ele>
        <time>2024-05-10T06:10:35Z</time>
      </trkpt>
      <trkpt lat="43.2084" lon="2.31288">
        <ele>118</ele>
        <time>2024-05-10T06:10:36Z</time>
      </trkpt>
      <trkpt lat="43.2084" lon="2.31288">
        <ele>118</ele>
        <time>2024-05-10T06:10:37Z</time>
      </trkpt>
      <trkpt lat="43.2084" lon="2.31288">
        <ele>118</ele>
        <time>2024-05-10T06:10:38Z</time>
      </trkpt>
      <trkpt lat="43.2084" lon="2.31288">
        <ele>118</ele>
        <time>2024-05-10T06:10:39Z</time>
      </trkpt>
      <trkpt lat="43.2084" lon="2.31288">
        <ele>118</ele>
        <time>2024-05-10T06:10:40Z</time>
      </trkpt>
      <trkpt lat="43.2084" lon="2.31288">
        <ele>118</ele>
        <time>2024-05-10T06:10:41Z</time>
      </trkpt>
      <trkpt lat="43.2084" lon="2.31288">
        <ele>118</ele>
        <time>2024-05-10T06:10:42Z</time>
      </trkpt>
      <trkpt lat="43.2084" lon="2.31288">
        <ele>118</ele>
        <time>2024-05-10T06:10:43Z</time>
      </trkpt>
      <trkpt lat="43.2084" lon="2.31288">
        <ele>118</ele>
        <time>2024-05-10T06:10:44Z</time>
      </trkpt>
      <trkpt lat="43.2084" lon="2.31288">
        <ele>118</ele>
        <time>2024-05-10T06:10:45Z</time>
      </trkpt>
      <trkpt lat="43.2084" lon="2.31288">
        <ele>118</ele>
        <time>2024-05-10T06:10:46Z</time>
      </trkpt>
      <trkpt lat="43.2084" lon="2.31288">
        <ele>118</ele>
        <time>2024-05-10T06:10:47Z</time>
      </trkpt>
      <trkpt lat="43.2084" lon="2.31288">
        <ele>118</ele>
        <time>2024-05-10T06:10:48Z</time>
      </trkpt>
      <trkpt lat="43.2084" lon="2.31288">
        <ele>118</ele>
        <time>2024-05-10T06:10:49Z</time>
      </trkpt>
      <trkpt lat="43.2084" lon="2.31288">
        <ele>118</ele>
        <time>2024-05-10T06:10:50Z</time>
      </trkpt>
      <trkpt lat="43.2084" lon="2.31288">
        <ele>118</ele>
        <time>2024-05-10T06:10:51Z</time>
      </trkpt>
      <trkpt lat="43.2084" lon="2.31288">
        <ele>118</ele>
        <time>2024-05-10T06:10:52Z</time>
      </trkpt>
      <trkpt lat="43.2084" lon="2.31288">
        <ele>118</ele>
        <time>2024-05-10T06:10:53Z</time>
      </trkpt>
      <trkpt lat="43.2084" lon="2.31288">
        <ele>118</ele>
        <time>2024-05-10T06:10:54Z</time>
      </trkpt>
      <trkpt lat="43.2084" lon="2.31288">
        <ele>118</ele>
        <time>2024-05-10T06:10:55Z</time>
      </trkpt>
      <trkpt lat="43.2084" lon="2.31288">
        <ele>118</ele>
        <time>2024-05-10T06:10:56Z</time>
      </trkpt>
      <trkpt lat="43.2084" lon="2.31288">
        <ele>118</ele>
        <time>2024-05-10T06:10:57Z</time>
      </trkpt>
      <trkpt lat="43.2084" lon="2.31288">
        <ele>118</ele>
        <time>2024-05-10T06:10:58Z</time>
      </trkpt>
      <trkpt lat="43.2084" lon="2.31288">
        <ele>118</ele>
        <time>2024-05-10T06:10:59Z</time>
      </trkpt>
      <trkpt lat="43.2084" lon="2.31288">
        <ele>118</ele>
        <time>2024-05-10T06:11:00Z</time>
      </trkpt>
      <trkpt lat="43.2084" lon="2.31288">
        <ele>118</ele>
        <time>2024-05-10T06:11:01Z</time>
      </trkpt>
      <trkpt lat="43.2084" lon="2.31288">
        <ele>118</ele>
        <time>2024-05-10T06:11:02Z</time>
      </trkpt>
      <trkpt lat="43.2084" lon="2.31288">
        <ele>118</ele>
        <time>2024-05-10T06:11:03Z</time>
      </trkpt>
      <trkpt lat="43.2084" lon="2.31288">
        <ele>118</ele>
        <time>2024-05-10T06:11:04Z</time>
      </trkpt>
      <trkpt lat="43.2084" lon="2.31288">
        <ele>118</ele>
        <time>2024-05-10T06:11:05Z</time>
      </trkpt>
      <trkpt lat="43.2084" lon="2.31288">
        <ele>118</ele>
        <time>2024-05-10T06:11:06Z</time>
      </trkpt>
      <trkpt lat="43.2084" lon="2.31288">
        <ele>118</ele>
        <time>2024-05-10T06:11:07Z</time>
      </trkpt>
      <trkpt lat="43.2084" lon="2.31288">
        <ele>118</ele>
        <time>2024-05-10T06:11:08Z</time>
      </trkpt>
      <trkpt lat="43.2084" lon="2.31288">
        <ele>118</ele>
        <time>2024-05-10T06:11:09Z</time>
      </trkpt>
      <trkpt lat="43.2084" lon="2.31288">
        <ele>118</ele>
        <time>2024-05-10T06:11:10Z</time>
      </trkpt>
      <trkpt lat="43.2084" lon="2.31288">
        <ele>118</ele>
        <time>2024-05-10T06:11:11Z</time>
      </trkpt>
      <trkpt lat="43.2084" lon="2.31288">
        <ele>118</ele>
        <time>2024-05-10T06:11:12Z</time>
      </trkpt>
      <trkpt lat="43.2084" lon="2.31288">
        <ele>118</ele>
        <time>2024-05-10T06:11:13Z</time>
      </trkpt>
      <trkpt lat="43.2084" lon="2.31288">
        <ele>118</ele>
        <time>2024-05-10T06:11:14Z</time>
      </trkpt>
      <trkpt lat="43.2084" lon="2.31288">
        <ele>118</ele>
        <time>2024-05-10T06:11:15Z</time>
      </trkpt>
      <trkpt lat="43.2084" lon="2.31288">
        <ele>118</ele>
        <time>2024-05-10T06:11:16Z</time>
      </trkpt>
      <trkpt lat="43.2084" lon="2.31288">
        <ele>118</ele>
        <time>2024-05-10T06:11:17Z</time>
      </trkpt>
      <trkpt lat="43.2084" lon="2.31288">
        <ele>118</ele>
        <time>2024-05-10T06:11:18Z</time>
      </trkpt>
      <trkpt lat="43.2084" lon="2.31288">
        <ele>118</ele>
        <time>2024-05-10T06:11:19Z</time>
      </trkpt>
      <trkpt lat="43.2084" lon="2.31288">
        <ele>118</ele>
        <time>2024-05-10T06:11:20Z</time>
      </trkpt>
      <trkpt lat="43.2084" lon="2.31288">
        <ele>118</ele>
        <time>2024-05-10T06:11:21Z</time>
      </trkpt>
      <trkpt lat="43.2084" lon="2.31288">
        <ele>118</ele>
        <time>2024-05-10T06:11:22Z</time>
      </trkpt>
      <trkpt lat="43.2084" lon="2.31288">
        <ele>118</ele>
        <time>2024-05-10T06:11:23Z</time>
      </trkpt>
      <trkpt lat="43.2084" lon="2.31288">
        <ele>118</ele>
        <time>2024-05-10T06:11:24Z</time>
      </trkpt>
      <trkpt lat="43.2084" lon="2.31288">
        <ele>118</ele>
        <time>2024-05-10T06:11:25Z</time>
      </trkpt>
      <trkpt lat="43.2084" lon="2.31288">
        <ele>118</ele>
        <time>2024-05-10T06:11:26Z</time>
      </trkpt>
      <trkpt lat="43.2084" lon="2.31288">
        <ele>118</ele>
        <time>2024-05-10T06:11:27Z</time>
      </trkpt>
      <trkpt lat="43.2084" lon="2.31288">
        <ele>118</ele>
        <time>2024-05-10T06:11:28Z</time>
      </trkpt>
      <trkpt lat="43.2084" lon="2.31288">
        <ele>118</ele>
        <time>2024-05-10T06:11:29Z</time>
      </trkpt>
      <trkpt lat="43.2084" lon="2.31288">
        <ele>118</ele>
        <time>2024-05-10T06:11:30Z</time>
      </trkpt>
      <trkpt lat="43.2084" lon="2.31288">
        <ele>118</ele>
        <time>2024-05-10T06:11:31Z</time>
      </trkpt>
      <trkpt lat="43.2084" lon="2.31288">
        <ele>118</ele>
        <time>2024-05-10T06:11:32Z</time>
      </trkpt>
      <trkpt lat="43.2084" lon="2.31288">
        <ele>118</ele>
        <time>2024-05-10T06:11:33Z</time>
      </trkpt>
      <trkpt lat="43.2084" lon="2.31288">
        <ele>118</ele>
        <time>2024-05-10T06:11:34Z</time>
      </trkpt>
      <trkpt lat="43.2084" lon="2.31288">
        <ele>118</ele>
        <time>2024-05-10T06:11:35Z</time>
      </trkpt>
      <trkpt lat="43.2084" lon="2.31288">
        <ele>118</ele>
        <time>2024-05-10T06:11:36Z</time>
      </trkpt>
      <trkpt lat="43.2084" lon="2.31288">
        <ele>118</ele>
        <time>2024-05-10T06:11:37Z</time>
      </trkpt>
      <trkpt lat="43.2084" lon="2.31288">
        <ele>118</ele>
        <time>2024-05-10T06:11:38Z</time>
      </trkpt>
      <trkpt lat="43.2084" lon="2.31288">
        <ele>118</ele>
        <time>2024-05-10T06:11:39Z</time>
      </trkpt>
      <trkpt lat="43.2084" lon="2.31288">
        <ele>118</ele>
        <time>2024-05-10T06:11:40Z</time>
      </trkpt>
      <trkpt lat="43.2084" lon="2.31288">
        <ele>118</ele>
        <time>2024-05-10T06:11:41Z</time>
      </trkpt>
      <trkpt lat="43.2084" lon="2.31288">
        <ele>118</ele>
        <time>2024-05-10T06:11:42Z</time>
      </trkpt>
      <trkpt lat="43.2084" lon="2.31288">
        <ele>118</ele>
        <time>2024-05-10T06:11:43Z</time>
      </trkpt>
      <trkpt lat="43.2084" lon="2.31288">
        <ele>118</ele>
        <time>2024-05-10T06:11:44Z</time>
      </trkpt>
      <trkpt lat="43.2084" lon="2.31288">
        <ele>118</ele>
        <time>2024-05-10T06:11:45Z</time>
      </trkpt>
      <trkpt lat="43.2084" lon="2.31288">
        <ele>118</ele>
        <time>2024-05-10T06:11:46Z</time>
      </trkpt>
      <trkpt lat="43.2084" lon="2.31288">
        <ele>118</ele>
        <time>2024-05-10T06:11:47Z</time>
      </trkpt>
      <trkpt lat="43.2084" lon="2.31288">
        <ele>118</ele>
        <time>2024-05-10T06:11:48Z</time>
      </trkpt>
      <trkpt lat="43.2084" lon="2.31288">
        <ele>118</ele>
        <time>2024-05-10T06:11:49Z</time>
      </trkpt>
      <trkpt lat="43.2084" lon="2.31288">
        <ele>118</ele>
        <time>2024-05-10T06:11:50Z</time>
      </trkpt>
      <trkpt lat="43.2084" lon="2.31288">
        <ele>118</ele>
        <time>2024-05-10T06:11:51Z</time>
      </trkpt>
      <trkpt lat="43.2084" lon="2.31288">
        <ele>118</ele>
        <time>2024-05-10T06:11:52Z</time>
      </trkpt>
      <trkpt lat="43.2084" lon="2.31288">
        <ele>118</ele>
        <time>2024-05-10T06:11:53Z</time>
      </trkpt>
      <trkpt lat="43.2084" lon="2.31288">
        <ele>118</ele>
        <time>2024-05-10T06:11:54Z</time>
      </trkpt>
      <trkpt lat="43.2084" lon="2.31288">
        <ele>118</ele>
        <time>2024-05-10T06:11:55Z</time>
      </trkpt>
      <trkpt lat="43.2084" lon="2.31288">
        <ele>118</ele>
        <time>2024-05-10T06:11:56Z</time>
      </trkpt>
      <trkpt lat="43.2084" lon="2.31288">
        <ele>118</ele>
        <time>2024-05-10T06:11:57Z</time>
      </trkpt>
      <trkpt lat="43.2084" lon="2.31288">
        <ele>118</ele>
        <time>2024-05-10T06:11:58Z</time>
      </trkpt>
      <trkpt lat="43.2084" lon="2.31288">
        <ele>118</ele>
        <time>2024-05-10T06:11:59Z</time>
      </trkpt>
      <trkpt lat="43.2084" lon="2.31288">
        <ele>118</ele>
        <time>2024-05-10T06:12:00Z</time>
      </trkpt>
      <trkpt lat="43.2084" lon="2.31288">
        <ele>118</ele>
        <time>2024-05-10T06:12:01Z</time>
      </trkpt>
      <trkpt lat="43.2084" lon="2.31288">
        <ele>118</ele>
        <time>2024-05-10T06:12:02Z</time>
      </trkpt>
      <trkpt lat="43.2084" lon="2.31288">
        <ele>118</ele>
        <time>2024-05-10T06:12:03Z</time>
      </trkpt>
      <trkpt lat="43.2084" lon="2.31288">
        <ele>118</ele>
        <time>2024-05-10T06:12:04Z</time>
      </trkpt>
      <trkpt lat="43.2084" lon="2.31288">
        <ele>118</ele>
        <time>2024-05-10T06:12:05Z</time>
      </trkpt>
      <trkpt lat="43.2084" lon="2.31288">
        <ele>118</ele>
        <time>2024-05-10T06:12:06Z</time>
      </trkpt>
      <trkpt lat="43.2084" lon="2.31288">
        <ele>118</ele>
        <time>2024-05-10T06:12:07Z</time>
      </trkpt>
      <trkpt lat="43.2084" lon="2.31288">
        <ele>118</ele>
        <time>2024-05-10T06:12:08Z</time>
      </trkpt>
      <trkpt lat="43.2084" lon="2.31288">
        <ele>118</ele>
        <time>2024-05-10T06:12:09Z</time>
      </trkpt>
      <trkpt lat="43.2084" lon="2.31288">
        <ele>118</ele>
        <time>2024-05-10T06:12:10Z</time>
      </trkpt>
      <trkpt lat="43.2084" lon="2.31288">
        <ele>118</ele>
        <time>2024-05-10T06:12:11Z</time>
      </trkpt>
      <trkpt lat="43.2084" lon="2.31288">
        <ele>118</ele>
        <time>2024-05-10T06:12:12Z</time>
      </trkpt>
      <trkpt lat="43.2084" lon="2.31288">
        <ele>118</ele>
        <time>2024-05-10T06:12:13Z</time>
      </trkpt>
      <trkpt lat="43.2084" lon="2.31288">
        <ele>118</ele>
        <time>2024-05-10T06:12:14Z</time>
      </trkpt>
      <trkpt lat="43.2084" lon="2.31288">
        <ele>118</ele>
        <time>2024-05-10T06:12:15Z</time>
      </trkpt>
      <trkpt lat="43.2084" lon="2.31288">
        <ele>118</ele>
        <time>2024-05-10T06:12:16Z</time>
      </trkpt>
      <trkpt lat="43.2084" lon="2.31288">
        <ele>118</ele>
        <time>2024-05-10T06:12:17Z</time>
      </trkpt>
      <trkpt lat="43.2084" lon="2.31288">
        <ele>118</ele>
        <time>2024-05-10T06:12:18Z</time>
      </trkpt>
      <trkpt lat="43.2084" lon="2.31288">
        <ele>118</ele>
        <time>2024-05-10T06:12:19Z</time>
      </trkpt>
      <trkpt lat="43.2084" lon="2.31288">
        <ele>118</ele>
        <time>2024-05-10T06:12:20Z</time>
      </trkpt>
      <trkpt lat="43.2084" lon="2.31288">
        <ele>118</ele>
        <time>2024-05-10T06:12:21Z</time>
      </trkpt>
      <trkpt lat="43.2084" lon="2.31288">
        <ele>118</ele>
        <time>2024-05-10T06:12:22Z</time>
      </trkpt>
      <trkpt lat="43.2084" lon="2.31288">
        <ele>118</ele>
        <time>2024-05-10T06:12:23Z</time>
      </trkpt>
      <trkpt lat="43.2084" lon="2.31288">
        <ele>118</ele>
        <time>2024-05-10T06:12:24Z</time>
      </trkpt>
      <trkpt lat="43.2084" lon="2.31288">
        <ele>118</ele>
        <time>2024-05-10T06:12:25Z</time>
      </trkpt>
      <trkpt lat="43.2084" lon="2.31288">
        <ele>118</ele>
        <time>2024-05-10T06:12:26Z</time>
      </trkpt>
      <trkpt lat="43.2084" lon="2.31288">
        <ele>118</ele>
        <time>2024-05-10T06:12:27Z</time>
      </trkpt>
      <trkpt lat="43.2084" lon="2.31288">
        <ele>118</ele>
        <time>2024-05-10T06:12:28Z</time>
      </trkpt>
      <trkpt lat="43.2084" lon="2.31288">
        <ele>118</ele>
        <time>2024-05-10T06:12:29Z</time>
      </trkpt>
      <trkpt lat="43.2084" lon="2.31288">
        <ele>118</ele>
        <time>2024-05-10T06:12:30Z</time>
      </trkpt>
      <trkpt lat="43.2084" lon="2.31288">
        <ele>118</ele>
        <time>2024-05-10T06:12:31Z</time>
      </trkpt>
      <trkpt lat="43.2084" lon="2.31288">
        <ele>118</ele>
        <time>2024-05-10T06:12:32Z</time>
      </trkpt>
      <trkpt lat="43.2084" lon="2.31288">
        <ele>118</ele>
        <time>2024-05-10T06:12:33Z</time>
      </trkpt>
      <trkpt lat="43.2084" lon="2.31288">
        <ele>118</ele>
        <time>2024-05-10T06:12:34Z</time>
      </trkpt>
      <trkpt lat="43.2084" lon="2.31288">
        <ele>118</ele>
        <time>2024-05-10T06:12:35Z</time>
      </trkpt>
      <trkpt lat="43.2084" lon="2.31288">
        <ele>118</ele>
        <time>2024-05-10T06:12:36Z</time>
      </trkpt>
      <trkpt lat="43.2084" lon="2.31288">
        <ele>118</ele>
        <time>2024-05-10T06:12:37Z</time>
      </trkpt>
      <trkpt lat="43.2084" lon="2.31288">
        <ele>118</ele>
        <time>2024-05-10T06:12:38Z</time>
      </trkpt>
      <trkpt lat="43.2084" lon="2.31288">
        <ele>118</ele>
        <time>2024-05-10T06:12:39Z</time>
      </trkpt>
      <trkpt lat="43.2084" lon="2.31288">
        <ele>118</ele>
        <time>2024-05-10T06:12:40Z</time>
      </trkpt>
      <trkpt lat="43.2084" lon="2.31288">
        <ele>118</ele>
        <time>2024-05-10T06:12:41Z</time>
      </trkpt>
      <trkpt lat="43.2084" lon="2.31288">
        <ele>118</ele>
        <time>2024-05-10T06:12:42Z</time>
      </trkpt>
      <trkpt lat="43.2084" lon="2.31288">
        <ele>118</ele>
        <time>2024-05-10T06:12:43Z</time>
      </trkpt>
      <trkpt lat="43.2084" lon="2.31288">
        <ele>118</ele>
        <time>2024-05-10T06:12:44Z</time>
      </trkpt>
      <trkpt lat="43.2084" lon="2.31288">
        <ele>118</ele>
        <time>2024-05-10T06:12:45Z</time>
      </trkpt>
      <trkpt lat="43.2084" lon="2.31288">
        <ele>118</ele>
        <time>2024-05-10T06:12:46Z</time>
      </trkpt>
      <trkpt lat="43.2084" lon="2.31288">
        <ele>118</ele>
        <time>2024-05-10T06:12:47Z</time>
      </trkpt>
      <trkpt lat="43.2084" lon="2.31288">
        <ele>118</ele>
        <time>2024-05-10T06:12:48Z</time>
      </trkpt>
      <trkpt lat="43.2084" lon="2.31288">
        <ele>118</ele>
        <time>2024-05-10T06:12:49Z</time>
      </trkpt>
      <trkpt lat="43.2084" lon="2.31288">
        <ele>118</ele>
        <time>2024-05-10T06:12:50Z</time>
      </trkpt>
      <trkpt lat="43.2084" lon="2.31288">
        <ele>118</ele>
        <time>2024-05-10T06:12:51Z</time>
      </trkpt>
      <trkpt lat="43.2084" lon="2.31288">
        <ele>118</ele>
        <time>2024-05-10T06:12:52Z</time>
      </trkpt>
      <trkpt lat="43.2084" lon="2.31288">
        <ele>118</ele>
        <time>2024-05-10T06:12:53Z</time>
      </trkpt>
      <trkpt lat="43.2084" lon="2.31288">
        <ele>118</ele>
        <time>2024-05-10T06:12:54Z</time>
      </trkpt>
      <trkpt lat="43.2084" lon="2.31288">
        <ele>118</ele>
        <time>2024-05-10T06:12:55Z</time>
      </trkpt>
      <trkpt lat="43.2084" lon="2.31288">
        <ele>118</ele>
        <time>2024-05-10T06:12:56Z</time>
      </trkpt>
      <trkpt lat="43.2084" lon="2.31288">
        <ele>118</ele>
        <time>2024-05-10T06:12:57Z</time>
      </trkpt>
      <trkpt lat="43.2084" lon="2.31288">
        <ele>118</ele>
        <time>2024-05-10T06:12:58Z</time>
      </trkpt>
      <trkpt lat="43.2084" lon="2.31288">
        <ele>118</ele>
        <time>2024-05-10T06:12:59Z</time>
      </trkpt>
      <trkpt lat="43.2084" lon="2.31288">
        <ele>118</ele>
        <time>2024-05-10T06:13:00Z</time>
      </trkpt>
      <trkpt lat="43.2084" lon="2.31288">
        <ele>118</ele>
        <time>2024-05-10T06:13:01Z</time>
      </trkpt>
      <trkpt lat="43.2084" lon="2.31288">
        <ele>118</ele>
        <time>2024-05-10T06:13:02Z</time>
      </trkpt>
      <trkpt lat="43.2084" lon="2.31288">
        <ele>118</ele>
        <time>2024-05-10T06:13:03Z</time>
      </trkpt>
      <trkpt lat="43.2084" lon="2.31288">
        <ele>118</ele>
        <time>2024-05-10T06:13:04Z</time>
      </trkpt>
      <trkpt lat="43.2084" lon="2.31288">
        <ele>118</ele>
        <time>2024-05-10T06:13:05Z</time>
      </trkpt>
      <trkpt lat="43.2084" lon="2.31288">
        <ele>118</ele>
        <time>2024-05-10T06:13:06Z</time>
      </trkpt>
      <trkpt lat="43.2084" lon="2.31288">
        <ele>118</ele>
        <time>2024-05-10T06:13:07Z</time>
      </trkpt>
      <trkpt lat="43.2084" lon="2.31288">
        <ele>118</ele>
        <time>2024-05-10T06:13:08Z</time>
      </trkpt>
      <trkpt lat="43.2084" lon="2.31288">
        <ele>118</ele>
        <time>2024-05-10T06:13:09Z</time>
      </trkpt>
      <trkpt lat="43.2084" lon="2.31288">
        <ele>118</ele>
        <time>2024-05-10T06:13:10Z</time>
      </trkpt>
      <trkpt lat="43.2084" lon="2.31288">
        <ele>118</ele>
        <time>2024-05-10T06:13:11Z</time>
      </trkpt>
      <trkpt lat="43.2084" lon="2.31288">
        <ele>118</ele>
        <time>2024-05-10T06:13:12Z</time>
      </trkpt>
      <trkpt lat="43.2084" lon="2.31288">
        <ele>118</ele>
        <time>2024-05-10T06:13:13Z</time>
      </trkpt>
      <trkpt lat="43.2084" lon="2.31288">
        <ele>118</ele>
        <time>2024-05-10T06:13:14Z</time>
      </trkpt>
      <trkpt lat="43.2084" lon="2.31288">
        <ele>118</ele>
        <time>2024-05-10T06:13:15Z</time>
      </trkpt>
      <trkpt lat="43.2084" lon="2.31288">
        <ele>118</ele>
        <time>2024-05-10T06:13:16Z</time>
      </trkpt>
      <trkpt lat="43.2084" lon="2.31288">
        <ele>118</ele>
        <time>2024-05-10T06:13:17Z</time>
      </trkpt>
      <trkpt lat="43.2084" lon="2.31288">
        <ele>118</ele>
        <time>2024-05-10T06:13:18Z</time>
      </trkpt>
      <trkpt lat="43.2084" lon="2.31288">
        <ele>118</ele>
        <time>2024-05-10T06:13:19Z</time>
      </trkpt>
      <trkpt lat="43.2084" lon="2.31288">
        <ele>118</ele>
        <time>2024-05-10T06:13:20Z</time>
      </trkpt>
      <trkpt lat="43.2084" lon="2.31288">
        <ele>118</ele>
        <time>2024-05-10T06:13:21Z</time>
      </trkpt>
      <trkpt lat="43.2084" lon="2.31288">
        <ele>118</ele>
        <time>2024-05-10T06:13:22Z</time>
      </trkpt>
      <trkpt lat="43.2084" lon="2.31288">
        <ele>118</ele>
        <time>2024-05-10T06:13:23Z</time>
      </trkpt>
      <trkpt lat="43.2084" lon="2.31288">
        <ele>118</ele>
        <time>2024-05-10T06:13:24Z</time>
      </trkpt>
      <trkpt lat="43.2084" lon="2.31288">
        <ele>118</ele>
        <time>2024-05-10T06:13:25Z</time>
      </trkpt>
      <trkpt lat="43.2084" lon="2.31288">
        <ele>118</ele>
        <time>2024-05-10T06:13:26Z</time>
      </trkpt>
      <trkpt lat="43.2084" lon="2.31288">
        <ele>118</ele>
        <time>2024-05-10T06:13:27Z</time>
      </trkpt>
      <trkpt lat="43.2084" lon="2.31288">
        <ele>118</ele>
        <time>2024-05-10T06:13:28Z</time>
      </trkpt>
      <trkpt lat="43.2084" lon="2.31288">
        <ele>118</ele>
        <time>2024-05-10T06:13:29Z</time>
      </trkpt>
      <trkpt lat="43.2084" lon="2.31288">
        <ele>118</ele>
        <time>2024-05-10T06:13:30Z</time>
      </trkpt>
      <trkpt lat="43.2084" lon="2.31288">
        <ele>118</ele>
        <time>2024-05-10T06:13:31Z</time>
      </trkpt>
      <trkpt lat="43.2084" lon="2.31288">
        <ele>118</ele>
        <time>2024-05-10T06:13:32Z</time>
      </trkpt>
      <trkpt lat="43.2084" lon="2.31288">
        <ele>118</ele>
        <time>2024-05-10T06:13:33Z</time>
      </trkpt>
      <trkpt lat="43.2084" lon="2.31288">
        <ele>118</ele>
        <time>2024-05-10T06:13:34Z</time>
      </trkpt>
      <trkpt lat="43.2084" lon="2.31288">
        <ele>118</ele>
        <time>2024-05-10T06:13:35Z</time>
      </trkpt>
      <trkpt lat="43.2084" lon="2.31288">
        <ele>118</ele>
        <time>2024-05-10T06:13:36Z</time>
      </trkpt>
      <trkpt lat="43.2084" lon="2.31288">
        <ele>118</ele>
        <time>2024-05-10T06:13:37Z</time>
      </trkpt>
      <trkpt lat="43.2084" lon="2.31288">
        <ele>118</ele>
        <time>2024-05-10T06:13:38Z</time>
      </trkpt>
      <trkpt lat="43.2084" lon="2.31288">
        <ele>118</ele>
        <time>2024-05-10T06:13:39Z</time>
      </trkpt>
      <trkpt lat="43.2084" lon="2.31288">
        <ele>118</ele>
        <time>2024-05-10T06:13:40Z</time>
      </trkpt>
      <trkpt lat="43.2084" lon="2.31288">
        <ele>118</ele>
        <time>2024-05-10T06:13:41Z</time>
      </trkpt>
      <trkpt lat="43.2084" lon="2.31288">
        <ele>118</ele>
        <time>2024-05-10T06:13:42Z</time>
      </trkpt>
      <trkpt lat="43.2084" lon="2.31288">
        <ele>118</ele>
        <time>2024-05-10T06:13:43Z</time>
      </trkpt>
      <trkpt lat="43.2084" lon="2.31288">
        <ele>118</ele>
        <time>2024-05-10T06:13:44Z</time>
      </trkpt>
      <trkpt lat="43.2084" lon="2.31288">
        <ele>118</ele>
        <time>2024-05-10T06:13:45Z</time>
      </trkpt>
      <trkpt lat="43.2084" lon="2.31288">
        <ele>118</ele>
        <time>2024-05-10T06:13:46Z</time>
      </trkpt>
      <trkpt lat="43.2084" lon="2.31288">
        <ele>118</ele>
        <time>2024-05-10T06:13:47Z</time>
      </trkpt>
      <trkpt lat="43.2084" lon="2.31288">
        <ele>118</ele>
        <time>2024-05-10T06:13:48Z</time>
      </trkpt>
      <trkpt lat="43.2084" lon="2.31288">
        <ele>118</ele>
        <time>2024-05-10T06:13:49Z</time>
      </trkpt>
      <trkpt lat="43.2084" lon="2.31288">
        <ele>118</ele>
        <time>2024-05-10T06:13:50Z</time>
      </trkpt>
      <trkpt lat="43.2084" lon="2.31288">
        <ele>118</ele>
        <time>2024-05-10T06:13:51Z</time>
      </trkpt>
      <trkpt lat="43.2084" lon="2.31288">
        <ele>118</ele>
        <time>2024-05-10T06:13:52Z</time>
      </trkpt>
      <trkpt lat="43.2084" lon="2.31288">
        <ele>118</ele>
        <time>2024-05-10T06:13:53Z</time>
      </trkpt>
      <trkpt lat="43.2084" lon="2.31288">
        <ele>118</ele>
        <time>2024-05-10T06:13:54Z</time>
      </trkpt>
      <trkpt lat="43.2084" lon="2.31288">
        <ele>118</ele>
        <time>2024-05-10T06:13:55Z</time>
      </trkpt>
      <trkpt lat="43.2084" lon="2.31288">
        <ele>118</ele>
        <time>2024-05-10T06:13:56Z</time>
      </trkpt>
      <trkpt lat="43.2084" lon="2.31288">
        <ele>118</ele>
        <time>2024-05-10T06:13:57Z</time>
      </trkpt>
      <trkpt lat="43.2084" lon="2.31288">
        <ele>118</ele>
        <time>2024-05-10T06:13:58Z</time>
      </trkpt>
      <trkpt lat="43.2084" lon="2.31288">
        <ele>118</ele>
        <time>2024-05-10T06:13:59Z</time>
      </trkpt>
      <trkpt lat="43.2084" lon="2.31288">
        <ele>118</ele>
        <time>2024-05-10T06:14:00Z</time>
      </trkpt>
      <trkpt lat="43.2084" lon="2.31288">
        <ele>118</ele>
        <time>2024-05-10T06:14:01Z</time>
      </trkpt>
      <trkpt lat="43.2084" lon="2.31288">
        <ele>118</ele>
        <time>2024-05-10T06:14:02Z</time>
      </trkpt>
      <trkpt lat="43.2084" lon="2.31288">
        <ele>118</ele>
        <time>2024-05-10T06:14:03Z</time>
      </trkpt>
      <trkpt lat="43.2084" lon="2.31288">
        <ele>118</ele>
        <time>2024-05-10T06:14:04Z</time>
      </trkpt>
      <trkpt lat="43.2084" lon="2.31288">
        <ele>118</ele>
        <time>2024-05-10T06:14:05Z</time>
      </trkpt>
      <trkpt lat="43.2084" lon="2.31288">
        <ele>118</ele>
        <time>2024-05-10T06:14:06Z</time>
      </trkpt>
      <trkpt lat="43.2084" lon="2.31288">
        <ele>118</ele>
        <time>2024-05-10T06:14:07Z</time>
      </trkpt>
      <trkpt lat="43.2084" lon="2.31288">
        <ele>118</ele>
        <time>2024-05-10T06:14:08Z</time>
      </trkpt>
      <trkpt lat="43.2084" lon="2.31288">
        <ele>118</ele>
        <time>2024-05-10T06:14:09Z</time>
      </trkpt>
      <trkpt lat="43.2084" lon="2.31288">
        <ele>118</ele>
        <time>2024-05-10T06:14:10Z</time>
      </trkpt>
      <trkpt lat="43.2084" lon="2.31288">
        <ele>118</ele>
        <time>2024-05-10T06:14:11Z</time>
      </trkpt>
      <trkpt lat="43.2084" lon="2.31288">
        <ele>118</ele>
        <time>2024-05-10T06:14:12Z</time>
      </trkpt>
      <trkpt lat="43.2084" lon="2.31288">
        <ele>118</ele>
        <time>2024-05-10T06:14:13Z</time>
      </trkpt>
      <trkpt lat="43.2084" lon="2.31288">
        <ele>118</ele>
        <time>2024-05-10T06:14:14Z</time>
      </trkpt>
      <trkpt lat="43.2084" lon="2.31288">
        <ele>118</ele>
        <time>2024-05-10T06:14:15Z</time>
      </trkpt>
      <trkpt lat="43.2084" lon="2.31288">
        <ele>118</ele>
        <time>2024-05-10T06:14:16Z</time>
      </trkpt>
      <trkpt lat="43.2084" lon="2.31288">
        <ele>118</ele>
        <time>2024-05-10T06:14:17Z</time>
      </trkpt>
      <trkpt lat="43.2084" lon="2.31288">
        <ele>118</ele>
        <time>2024-05-10T06:14:18Z</time>
      </trkpt>
      <trkpt lat="43.2084" lon="2.31288">
        <ele>118</ele>
        <time>2024-05-10T06:14:19Z</time>
      </trkpt>
      <trkpt lat="43.2084" lon="2.31288">
        <ele>118</ele>
        <time>2024-05-10T06:14:20Z</time>
      </trkpt>
      <trkpt lat="43.2084" lon="2.31288">
        <ele>118</ele>
        <time>2024-05-10T06:14:21Z</time>
      </trkpt>
      <trkpt lat="43.2084" lon="2.31288">
        <ele>118</ele>
        <time>2024-05-10T06:14:22Z</time>
      </trkpt>
      <trkpt lat="43.2084" lon="2.31288">
        <ele>118</ele>
        <time>2024-05-10T06:14:23Z</time>
      </trkpt>
      <trkpt lat="43.2084" lon="2.31288">
        <ele>118</ele>
        <time>2024-05-10T06:14:24Z</time>
      </trkpt>
      <trkpt lat="43.2084" lon="2.31288">
        <ele>118</ele>
        <time>2024-05-10T06:14:25Z</time>
      </trkpt>
      <trkpt lat="43.2084" lon="2.31288">
        <ele>118</ele>
        <time>2024-05-10T06:14:26Z</time>
      </trkpt>
      <trkpt lat="43.2084" lon="2.31288">
        <ele>118</ele>
        <time>2024-05-10T06:14:27Z</time>
      </trkpt>
      <trkpt lat="43.2084" lon="2.31288">
        <ele>118</ele>
        <time>2024-05-10T06:14:28Z</time>
      </trkpt>
      <trkpt lat="43.2084" lon="2.31288">
        <ele>118</ele>
        <time>2024-05-10T06:14:29Z</time>
      </trkpt>
      <trkpt lat="43.2084" lon="2.31288">
        <ele>118</ele>
        <time>2024-05-10T06:14:30Z</time>
      </trkpt>
      <trkpt lat="43.2084" lon="2.31288">
        <ele>118</ele>
        <time>2024-05-10T06:14:31Z</time>
      </trkpt>
      <trkpt lat="43.2084" lon="2.31288">
        <ele>118</ele>
        <time>2024-05-10T06:14:32Z</time>
      </trkpt>
      <trkpt lat="43.2084" lon="2.31288">
        <ele>118</ele>
        <time>2024-05-10T06:14:33Z</time>
      </trkpt>
      <trkpt lat="43.2084" lon="2.31288">
        <ele>118</ele>
        <time>2024-05-10T06:14:34Z</time>
      </trkpt>
      <trkpt lat="43.2084" lon="2.31288">
        <ele>118</ele>
        <time>2024-05-10T06:14:35Z</time>
      </trkpt>
      <trkpt lat="43.2084" lon="2.31288">
        <ele>118</ele>
        <time>2024-05-10T06:14:36Z</time>
      </trkpt>
      <trkpt lat="43.2084" lon="2.31288">
        <ele>118</ele>
        <time>2024-05-10T06:14:37Z</time>
      </trkpt>
      <trkpt lat="43.2084" lon="2.31288">
        <ele>118</ele>
        <time>2024-05-10T06:14:38Z</time>
      </trkpt>
      <trkpt lat="43.2084" lon="2.31288">
        <ele>118</ele>
        <time>2024-05-10T06:14:39Z</time>
      </trkpt>
      <trkpt lat="43.2084" lon="2.31288">
        <ele>118</ele>
        <time>2024-05-10T06:14:40Z</time>
      </trkpt>
      <trkpt lat="43.2084" lon="2.31288">
        <ele>118</ele>
        <time>2024-05-10T06:14:41Z</time>
      </trkpt>
      <trkpt lat="43.2084" lon="2.31288">
        <ele>118</ele>
        <time>2024-05-10T06:14:42Z</time>
      </trkpt>
      <trkpt lat="43.2084" lon="2.31288">
        <ele>118</ele>
        <time>2024-05-10T06:14:43Z</time>
      </trkpt>
      <trkpt lat="43.2084" lon="2.31288">
        <ele>118</ele>
        <time>2024-05-10T06:14:44Z</time>
      </trkpt>
      <trkpt lat="43.2084" lon="2.31288">
        <ele>118</ele>
        <time>2024-05-10T06:14:45Z</time>
      </trkpt>
      <trkpt lat="43.2084" lon="2.31288">
        <ele>118</ele>
        <time>2024-05-10T06:14:46Z</time>
      </trkpt>
      <trkpt lat="43.2084" lon="2.31288">
        <ele>118</ele>
        <time>2024-05-10T06:14:47Z</time>
      </trkpt>
      <trkpt lat="43.2084" lon="2.31288">
        <ele>118</ele>
        <time>2024-05-10T06:14:48Z</time>
      </trkpt>
      <trkpt lat="43.2084" lon="2.31288">
        <ele>118</ele>
        <time>2024-05-10T06:14:49Z</time>
      </trkpt>
      <trkpt lat="43.2084" lon="2.31288">
        <ele>118</ele>
        <time>2024-05-10T06:14:50Z</time>
      </trkpt>
      <trkpt lat="43.2084" lon="2.31288">
        <ele>118</ele>
        <time>2024-05-10T06:14:51Z</time>
      </trkpt>
      <trkpt lat="43.2084" lon="2.31288">
        <ele>118</ele>
        <time>2024-05-10T06:14:52Z</time>
      </trkpt>
      <trkpt lat="43.2084" lon="2.31288">
        <ele>118</ele>
        <time>2024-05-10T06:14:53Z</time>
      </trkpt>
      <trkpt lat="43.2084" lon="2.31288">
        <ele>118</ele>
        <time>2024-05-10T06:14:54Z</time>
      </trkpt>
      <trkpt lat="43.2084" lon="2.31288">
        <ele>118</ele>
        <time>2024-05-10T06:14:55Z</time>
      </trkpt>
      <trkpt lat="43.2084" lon="2.31288">
        <ele>118</ele>
        <time>2024-05-10T06:14:56Z</time>
      </trkpt>
      <trkpt lat="43.2084" lon="2.31288">
        <ele>118</ele>
        <time>2024-05-10T06:14:57Z</time>
      </trkpt>
      <trkpt lat="43.2084" lon="2.31288">
        <ele>118</ele>
        <time>2024-05-10T06:14:58Z</time>
      </trkpt>
      <trkpt lat="43.2084" lon="2.31288">
        <ele>118</ele>
        <time>2024-05-10T06:14:59Z</time>
      </trkpt>
      <trkpt lat="43.2084" lon="2.31288">
        <ele>118</ele>
        <time>2024-05-10T06:15:00Z</time>
      </trkpt>
      <trkpt lat="43.2084" lon="2.31288">
        <ele>118</ele>
        <time>2024-05-10T06:15:01Z</time>
      </trkpt>
      <trkpt lat="43.2084" lon="2.31288">
        <ele>118</ele>
        <time>2024-05-10T06:15:02Z</time>
      </trkpt>
      <trkpt lat="43.2084" lon="2.31288">
        <ele>118</ele>
        <time>2024-05-10T06:15:03Z</time>
      </trkpt>
      <trkpt lat="43.2084" lon="2.31288">
        <ele>118</ele>
        <time>2024-05-10T06:15:04Z</time>
      </trkpt>
      <trkpt lat="43.2084" lon="2.31288">
        <ele>118</ele>
        <time>2024-05-10T06:15:05Z</time>
      </trkpt>
      <trkpt lat="43.2084" lon="2.31288">
        <ele>118</ele>
        <time>2024-05-10T06:15:06Z</time>
      </trkpt>
      <trkpt lat="43.2084" lon="2.31288">
        <ele>118</ele>
        <time>2024-05-10T06:15:07Z</time>
      </trkpt>
      <trkpt lat="43.2084" lon="2.31288">
        <ele>118</ele>
        <time>2024-05-10T06:15:08Z</time>
      </trkpt>
      <trkpt lat="43.2084" lon="2.31288">
        <ele>118</ele>
        <time>2024-05-10T06:15:09Z</time>
      </trkpt>
      <trkpt lat="43.2084" lon="2.31288">
        <ele>118</ele>
        <time>2024-05-10T06:15:10Z</time>
      </trkpt>
      <trkpt lat="43.2084" lon="2.31288">
        <ele>118</ele>
        <time>2024-05-10T06:15:11Z</time>
      </trkpt>
      <trkpt lat="43.2084" lon="2.31288">
        <ele>118</ele>
        <time>2024-05-10T06:15:12Z</time>
      </trkpt>
      <trkpt lat="43.2084" lon="2.31288">
        <ele>118</ele>
        <time>2024-05-10T06:15:13Z</time>
      </trkpt>
      <trkpt lat="43.2084" lon="2.31288">
        <ele>118</ele>
        <time>2024-05-10T06:15:14Z</time>
      </trkpt>
      <trkpt lat="43.2084" lon="2.31288">
        <ele>118</ele>
        <time>2024-05-10T06:15:15Z</time>
      </trkpt>
      <trkpt lat="43.2084" lon="2.31288">
        <ele>118</ele>
        <time>2024-05-10T06:15:16Z</time>
      </trkpt>
      <trkpt lat="43.2084" lon="2.31288">
        <ele>118</ele>
        <time>2024-05-10T06:15:17Z</time>
      </trkpt>
      <trkpt lat="43.2084" lon="2.31288">
        <ele>118</ele>
        <time>2024-05-10T06:15:18Z</time>
      </trkpt>
      <trkpt lat="43.2084" lon="2.31288">
        <ele>118</ele>
        <time>2024-05-10T06:15:19Z</time>
      </trkpt>
      <trkpt lat="43.2084" lon="2.31288">
        <ele>118</ele>
        <time>2024-05-10T06:15:20Z</time>
      </trkpt>
      <trkpt lat="43.2084" lon="2.31288">
        <ele>118</ele>
        <time>2024-05-10T06:15:21Z</time>
      </trkpt>
      <trkpt lat="43.2084" lon="2.31288">
        <ele>118</ele>
        <time>2024-05-10T06:15:22Z</time>
      </trkpt>
      <trkpt lat="43.2084" lon="2.31288">
        <ele>118</ele>
        <time>2024-05-10T06:15:23Z</time>
      </trkpt>
      <trkpt lat="43.2084" lon="2.31288">
        <ele>118</ele>
        <time>2024-05-10T06:15:24Z</time>
      </trkpt>
      <trkpt lat="43.2084" lon="2.31288">
        <ele>118</ele>
        <time>2024-05-10T06:15:25Z</time>
      </trkpt>
      <trkpt lat="43.2084" lon="2.31288">
        <ele>118</ele>
        <time>2024-05-10T06:15:26Z</time>
      </trkpt>
      <trkpt lat="43.2084" lon="2.31288">
        <ele>118</ele>
        <time>2024-05-10T06:15:27Z</time>
      </trkpt>
      <trkpt lat="43.2084" lon="2.31288">
        <ele>118</ele>
        <time>2024-05-10T06:15:28Z</time>
      </trkpt>
      <trkpt lat="43.2084" lon="2.31288">
        <ele>118</ele>
        <time>2024-05-10T06:15:29Z</time>
      </trkpt>
      <trkpt lat="43.2084" lon="2.31288">
        <ele>118</ele>
        <time>2024-05-10T06:15:30Z</time>
      </trkpt>
      <trkpt lat="43.2084" lon="2.31288">
        <ele>118</ele>
        <time>2024-05-10T06:15:31Z</time>
      </trkpt>
      <trkpt lat="43.2084" lon="2.31288">
        <ele>118</ele>
        <time>2024-05-10T06:15:32Z</time>
      </trkpt>
      <trkpt lat="43.2084" lon="2.31288">
        <ele>118</ele>
        <time>2024-05-10T06:15:33Z</time>
      </trkpt>
      <trkpt lat="43.2084" lon="2.31288">
        <ele>118</ele>
        <time>2024-05-10T06:15:34Z</time>
      </trkpt>
      <trkpt lat="43.2084" lon="2.31288">
        <ele>118</ele>
        <time>2024-05-10T06:15:35Z</time>
      </trkpt>
      <trkpt lat="43.2084" lon="2.31288">
        <ele>118</ele>
        <time>2024-05-10T06:15:36Z</time>
      </trkpt>
      <trkpt lat="43.2084" lon="2.31288">
        <ele>118</ele>
        <time>2024-05-10T06:15:37Z</time>
      </trkpt>
      <trkpt lat="43.2084" lon="2.31288">
        <ele>118</ele>
        <time>2024-05-10T06:15:38Z</time>
      </trkpt>
      <trkpt lat="43.2084" lon="2.31288">
        <ele>118</ele>
        <time>2024-05-10T06:15:39Z</time>
      </trkpt>
      <trkpt lat="43.2084" lon="2.31288">
        <ele>118</ele>
        <time>2024-05-10T06:15:40Z</time>
      </trkpt>
      <trkpt lat="43.2084" lon="2.31288">
        <ele>118</ele>
        <time>2024-05-10T06:15:41Z</time>
      </trkpt>
      <trkpt lat="43.2084" lon="2.31288">
        <ele>118</ele>
        <time>2024-05-10T06:15:42Z</time>
      </trkpt>
      <trkpt lat="43.2084" lon="2.31288">
        <ele>118</ele>
        <time>2024-05-10T06:15:43Z</time>
      </trkpt>
      <trkpt lat="43.2084" lon="2.31288">
        <ele>118</ele>
        <time>2024-05-10T06:15:44Z</time>
      </trkpt>
      <trkpt lat="43.2084" lon="2.31288">
        <ele>118</ele>
        <time>2024-05-10T06:15:45Z</time>
      </trkpt>
      <trkpt lat="43.2084" lon="2.31288">
        <ele>118</ele>
        <time>2024-05-10T06:15:46Z</time>
      </trkpt>
      <trkpt lat="43.2084" lon="2.31288">
        <ele>118</ele>
        <time>2024-05-10T06:15:47Z</time>
      </trkpt>
      <trkpt lat="43.2084" lon="2.31288">
        <ele>118</ele>
        <time>2024-05-10T06:15:48Z</time>
      </trkpt>
      <trkpt lat="43.2084" lon="2.31288">
        <ele>118</ele>
        <time>2024-05-10T06:15:49Z</time>
      </trkpt>
      <trkpt lat="43.2084" lon="2.31288">
        <ele>118</ele>
        <time>2024-05-10T06:15:50Z</time>
      </trkpt>
      <trkpt lat="43.2084" lon="2.31288">
        <ele>118</ele>
        <time>2024-05-10T06:15:51Z</time>
      </trkpt>
      <trkpt lat="43.2084" lon="2.31288">
        <ele>118</ele>
        <time>2024-05-10T06:15:52Z</time>
      </trkpt>
      <trkpt lat="43.2084" lon="2.31288">
        <ele>118</ele>
        <time>2024-05-10T06:15:53Z</time>
      </trkpt>
      <trkpt lat="43.2084" lon="2.31288">
        <ele>118</ele>
        <time>2024-05-10T06:15:54Z</time>
      </trkpt>
      <trkpt lat="43.2084" lon="2.31288">
        <ele>118</ele>
        <time>2024-05-10T06:15:55Z</time>
      </trkpt>
      <trkpt lat="43.2084" lon="2.31288">
        <ele>118</ele>
        <time>2024-05-10T06:15:56Z</time>
      </trkpt>
      <trkpt lat="43.2084" lon="2.31288">
        <ele>118</ele>
        <time>2024-05-10T06:15:57Z</time>
      </trkpt>
      <trkpt lat="43.2084" lon="2.31288">
        <ele>118</ele>
        <time>2024-05-10T06:15:58Z</time>
      </trkpt>
      <trkpt lat="43.2084" lon="2.31288">
        <ele>118</ele>
        <time>2024-05-10T06:15:59Z</time>
      </trkpt>
      <trkpt lat="43.2084" lon="2.31288">
        <ele>118</ele>
        <time>2024-05-10T06:16:00Z</time>
      </trkpt>
      <trkpt lat="43.2084" lon="2.31288">
        <ele>118</ele>
        <time>2024-05-10T06:16:01Z</time>
      </trkpt>
      <trkpt lat="43.2084" lon="2.31288">
        <ele>118</ele>
        <time>2024-05-10T06:16:02Z</time>
      </trkpt>
      <trkpt lat="43.2084" lon="2.31288">
        <ele>118</ele>
        <time>2024-05-10T06:16:03Z</time>
      </trkpt>
      <trkpt lat="43.2084" lon="2.31288">
        <ele>118</ele>
        <time>2024-05-10T06:16:04Z</time>
      </trkpt>
      <trkpt lat="43.2084" lon="2.31288">
        <ele>118</ele>
        <time>2024-05-10T06:16:05Z</time>
      </trkpt>
      <trkpt lat="43.2084" lon="2.31288">
        <ele>118</ele>
        <time>2024-05-10T06:16:06Z</time>
      </trkpt>
      <trkpt lat="43.2084" lon="2.31288">
        <ele>118</ele>
        <time>2024-05-10T06:16:07Z</time>
      </trkpt>
      <trkpt lat="43.2084" lon="2.31288">
        <ele>118</ele>
        <time>2024-05-10T06:16:08Z</time>
      </trkpt>
      <trkpt lat="43.2084" lon="2.31288">
        <ele>118</ele>
        <time>2024-05-10T06:16:09Z</time>
      </trkpt>
      <trkpt lat="43.2084" lon="2.31288">
        <ele>118</ele>
        <time>2024-05-10T06:16:10Z</time>
      </trkpt>
      <trkpt lat="43.2084" lon="2.31288">
        <ele>118</ele>
        <time>2024-05-10T06:16:11Z</time>
      </trkpt>
      <trkpt lat="43.2084" lon="2.31288">
        <ele>118</ele>
        <time>2024-05-10T06:16:12Z</time>
      </trkpt>
      <trkpt lat="43.2084" lon="2.31288">
        <ele>118</ele>
        <time>2024-05-10T06:16:13Z</time>
      </trkpt>
      <trkpt lat="43.2084" lon="2.31288">
        <ele>118</ele>
        <time>2024-05-10T06:16:14Z</time>
      </trkpt>
      <trkpt lat="43.2084" lon="2.31288">
        <ele>118</ele>
        <time>2024-05-10T06:16:15Z</time>
      </trkpt>
      <trkpt lat="43.2084" lon="2.31288">
        <ele>118</ele>
        <time>2024-05-10T06:16:16Z</time>
      </trkpt>
      <trkpt lat="43.2084" lon="2.31288">
        <ele>118</ele>
        <time>2024-05-10T06:16:17Z</time>
      </trkpt>
      <trkpt lat="43.2084" lon="2.31288">
        <ele>118</ele>
        <time>2024-05-10T06:16:18Z</time>
      </trkpt>
      <trkpt lat="43.2084" lon="2.31288">
        <ele>118</ele>
        <time>2024-05-10T06:16:19Z</time>
      </trkpt>
      <trkpt lat="43.2084" lon="2.31288">
        <ele>118</ele>
        <time>2024-05-10T06:16:20Z</time>
      </trkpt>
      <trkpt lat="43.2084" lon="2.31288">
        <ele>118</ele>
        <time>2024-05-10T06:16:21Z</time>
      </trkpt>
      <trkpt lat="43.2084" lon="2.31288">
        <ele>118</ele>
        <time>2024-05-10T06:16:22Z</time>
      </trkpt>
      <trkpt lat="43.2084" lon="2.31288">
        <ele>118</ele>
        <time>2024-05-10T06:16:23Z</time>
      </trkpt>
      <trkpt lat="43.2084" lon="2.31288">
        <ele>118</ele>
        <time>2024-05-10T06:16:24Z</time>
      </trkpt>
      <trkpt lat="43.2084" lon="2.31288">
        <ele>118</ele>
        <time>2024-05-10T06:16:25Z</time>
      </trkpt>
      <trkpt lat="43.2084" lon="2.31288">
        <ele>118</ele>
        <time>2024-05-10T06:16:26Z</time>
      </trkpt>
      <trkpt lat="43.2084" lon="2.31288">
        <ele>118</ele>
        <time>2024-05-10T06:16:27Z</time>
      </trkpt>
      <trkpt lat="43.2084" lon="2.31288">
        <ele>118</ele>
        <time>2024-05-10T06:16:28Z</time>
      </trkpt>
      <trkpt lat="43.2084" lon="2.31288">
        <ele>118</ele>
        <time>2024-05-10T06:16:29Z</time>
      </trkpt>
      <trkpt lat="43.2084" lon="2.31288">
        <ele>118</ele>
        <time>2024-05-10T06:16:30Z</time>
      </trkpt>
      <trkpt lat="43.2084" lon="2.31288">
        <ele>118</ele>
        <time>2024-05-10T06:16:31Z</time>
      </trkpt>
      <trkpt lat="43.2084" lon="2.31288">
        <ele>118</ele>
        <time>2024-05-10T06:16:32Z</time>
      </trkpt>
      <trkpt lat="43.2084" lon="2.31288">
        <ele>118</ele>
        <time>2024-05-10T06:16:33Z</time>
      </trkpt>
      <trkpt lat="43.2084" lon="2.31288">
        <ele>118</ele>
        <time>2024-05-10T06:16:34Z</time>
      </trkpt>
      <trkpt lat="43.2084" lon="2.31288">
        <ele>118</ele>
        <time>2024-05-10T06:16:35Z</time>
      </trkpt>
      <trkpt lat="43.2084" lon="2.31288">
        <ele>118</ele>
        <time>2024-05-10T06:16:36Z</time>
      </trkpt>
      <trkpt lat="43.2084" lon="2.31288">
        <ele>118</ele>
        <time>2024-05-10T06:16:37Z</time>
      </trkpt>
      <trkpt lat="43.2084" lon="2.31288">
        <ele>118</ele>
        <time>2024-05-10T06:16:38Z</time>
      </trkpt>
      <trkpt lat="43.2084" lon="2.31288">
        <ele>118</ele>
        <time>2024-05-10T06:16:39Z</time>
      </trkpt>
      <trkpt lat="43.2084" lon="2.31288">
        <ele>118</ele>
        <time>2024-05-10T06:16:40Z</time>
      </trkpt>
      <trkpt lat="43.2084" lon="2.31288">
        <ele>118</ele>
        <time>2024-05-10T06:16:41Z</time>
      </trkpt>
      <trkpt lat="43.2084" lon="2.31288">
        <ele>118</ele>
        <time>2024-05-10T06:16:42Z</time>
      </trkpt>
      <trkpt lat="43.2084" lon="2.31288">
        <ele>118</ele>
        <time>2024-05-10T06:16:43Z</time>
      </trkpt>
      <trkpt lat="43.2084" lon="2.31288">
        <ele>118</ele>
        <time>2024-05-10T06:16:44Z</time>
      </trkpt>
      <trkpt lat="43.2084" lon="2.31288">
        <ele>118</ele>
        <time>2024-05-10T06:16:45Z</time>
      </trkpt>
      <trkpt lat="43.2084" lon="2.31288">
        <ele>118</ele>
        <time>2024-05-10T06:16:46Z</time>
      </trkpt>
      <trkpt lat="43.2084" lon="2.31288">
        <ele>118</ele>
        <time>2024-05-10T06:16:47Z</time>
      </trkpt>
      <trkpt lat="43.2084" lon="2.31288">
        <ele>118</ele>
        <time>2024-05-10T06:16:48Z</time>
      </trkpt>
      <trkpt lat="43.2084" lon="2.31288">
        <ele>118</ele>
        <time>2024-05-10T06:16:49Z</time>
      </trkpt>
      <trkpt lat="43.2084" lon="2.31288">
        <ele>118</ele>
        <time>2024-05-10T06:16:50Z</time>
      </trkpt>
      <trkpt lat="43.2084" lon="2.31288">
        <ele>118</ele>
        <time>2024-05-10T06:16:51Z</time>
      </trkpt>
      <trkpt lat="43.2084" lon="2.31288">
        <ele>118</ele>
        <time>2024-05-10T06:16:52Z</time>
      </trkpt>
      <trkpt lat="43.2084" lon="2.31288">
        <ele>118</ele>
        <time>2024-05-10T06:16:53Z</time>
      </trkpt>
      <trkpt lat="43.2084" lon="2.31288">
        <ele>118</ele>
        <time>2024-05-10T06:16:54Z</time>
      </trkpt>
      <trkpt lat="43.2084" lon="2.31288">
        <ele>118</ele>
        <time>2024-05-10T06:16:55Z</time>
      </trkpt>
      <trkpt lat="43.2084" lon="2.31288">
        <ele>118</ele>
        <time>2024-05-10T06:16:56Z</time>
      </trkpt>
      <trkpt lat="43.2084" lon="2.31288">
        <ele>118</ele>
        <time>2024-05-10T06:16:57Z</time>
      </trkpt>
      <trkpt lat="43.2084" lon="2.31288">
        <ele>118</ele>
        <time>2024-05-10T06:16:58Z</time>
      </trkpt>
      <trkpt lat="43.2084" lon="2.31288">
        <ele>118</ele>
        <time>2024-05-10T06:16:59Z</time>
      </trkpt>
      <trkpt lat="43.2084" lon="2.31288">
        <ele>118</ele>
        <time>2024-05-10T06:17:00Z</time>
      </trkpt>
      <trkpt lat="43.2084" lon="2.31288">
        <ele>118</ele>
        <time>2024-05-10T06:17:01Z</time>
      </trkpt>
      <trkpt lat="43.2084" lon="2.31288">
        <ele>118</ele>
        <time>2024-05-10T06:17:02Z</time>
      </trkpt>
      <trkpt lat="43.2084" lon="2.31288">
        <ele>118</ele>
        <time>2024-05-10T06:17:03Z</time>
      </trkpt>
      <trkpt lat="43.2084" lon="2.31288">
        <ele>118</ele>
        <time>2024-05-10T06:17:04Z</time>
      </trkpt>
      <trkpt lat="43.2084" lon="2.31288">
        <ele>118</ele>
        <time>2024-05-10T06:17:05Z</time>
      </trkpt>
      <trkpt lat="43.2084" lon="2.31288">
        <ele>118</ele>
        <time>2024-05-10T06:17:06Z</time>
      </trkpt>
      <trkpt lat="43.2084" lon="2.31288">
        <ele>118</ele>
        <time>2024-05-10T06:17:07Z</time>
      </trkpt>
      <trkpt lat="43.2084" lon="2.31288">
        <ele>118</ele>
        <time>2024-05-10T06:17:08Z</time>
      </trkpt>
      <trkpt lat="43.2084" lon="2.31288">
        <ele>118</ele>
        <time>2024-05-10T06:17:09Z</time>
      </trkpt>
      <trkpt lat="43.2084" lon="2.31288">
        <ele>118</ele>
        <time>2024-05-10T06:17:10Z</time>
      </trkpt>
      <trkpt lat="43.2084" lon="2.31288">
        <ele>118</ele>
        <time>2024-05-10T06:17:11Z</time>
      </trkpt>
      <trkpt lat="43.2084" lon="2.31288">
        <ele>118</ele>
        <time>2024-05-10T06:17:12Z</time>
      </trkpt>
      <trkpt lat="43.2084" lon="2.31288">
        <ele>118</ele>
        <time>2024-05-10T06:17:13Z</time>
      </trkpt>
      <trkpt lat="43.2084" lon="2.31288">
        <ele>118</ele>
        <time>2024-05-10T06:17:14Z</time>
      </trkpt>
      <trkpt lat="43.2084" lon="2.31288">
        <ele>118</ele>
        <time>2024-05-10T06:17:15Z</time>
      </trkpt>
      <trkpt lat="43.2084" lon="2.31288">
        <ele>118</ele>
        <time>2024-05-10T06:17:16Z</time>
      </trkpt>
      <trkpt lat="43.2084" lon="2.31288">
        <ele>118</ele>
        <time>2024-05-10T06:17:17Z</time>
      </trkpt>
      <trkpt lat="43.2084" lon="2.31288">
        <ele>118</ele>
        <time>2024-05-10T06:17:18Z</time>
      </trkpt>
      <trkpt lat="43.2084" lon="2.31288">
        <ele>118</ele>
        <time>2024-05-10T06:17:19Z</time>
      </trkpt>
      <trkpt lat="43.2084" lon="2.31288">
        <ele>118</ele>
        <time>2024-05-10T06:17:20Z</time>
      </trkpt>
      <trkpt lat="43.2084" lon="2.31288">
        <ele>118</ele>
        <time>2024-05-10T06:17:21Z</time>
      </trkpt>
      <trkpt lat="43.2084" lon="2.31288">
        <ele>118</ele>
        <time>2024-05-10T06:17:22Z</time>
      </trkpt>
      <trkpt lat="43.2084" lon="2.31288">
        <ele>118</ele>
        <time>2024-05-10T06:17:23Z</time>
      </trkpt>
      <trkpt lat="43.2084" lon="2.31288">
        <ele>118</ele>
        <time>2024-05-10T06:17:24Z</time>
      </trkpt>
      <trkpt lat="43.2084" lon="2.31288">
        <ele>118</ele>
        <time>2024-05-10T06:17:25Z</time>
      </trkpt>
      <trkpt lat="43.2084" lon="2.31288">
        <ele>118</ele>
        <time>2024-05-10T06:17:26Z</time>
      </trkpt>
      <trkpt lat="43.2084" lon="2.31288">
        <ele>118</ele>
        <time>2024-05-10T06:17:27Z</time>
      </trkpt>
      <trkpt lat="43.2084" lon="2.31288">
        <ele>118</ele>
        <time>2024-05-10T06:17:28Z</time>
      </trkpt>
      <trkpt lat="43.2084" lon="2.31288">
        <ele>118</ele>
        <time>2024-05-10T06:17:29Z</time>
      </trkpt>
      <trkpt lat="43.2084" lon="2.31288">
        <ele>118</ele>
        <time>2024-05-10T06:17:30Z</time>
      </trkpt>
      <trkpt lat="43.2084" lon="2.31288">
        <ele>118</ele>
        <time>2024-05-10T06:17:31Z</time>
      </trkpt>
      <trkpt lat="43.2084" lon="2.31288">
        <ele>118</ele>
        <time>2024-05-10T06:17:32Z</time>
      </trkpt>
      <trkpt lat="43.2084" lon="2.31288">
        <ele>118</ele>
        <time>2024-05-10T06:17:33Z</time>
      </trkpt>
      <trkpt lat="43.2084" lon="2.31288">
        <ele>118</ele>
        <time>2024-05-10T06:17:34Z</time>
      </trkpt>
      <trkpt lat="43.2084" lon="2.31288">
        <ele>118</ele>
        <time>2024-05-10T06:17:35Z</time>
      </trkpt>
      <trkpt lat="43.2084" lon="2.31288">
        <ele>118</ele>
        <time>2024-05-10T06:17:36Z</time>
      </trkpt>
      <trkpt lat="43.2084" lon="2.31288">
        <ele>118</ele>
        <time>2024-05-10T06:17:37Z</time>
      </trkpt>
      <trkpt lat="43.2084" lon="2.31288">
        <ele>118</ele>
        <time>2024-05-10T06:17:38Z</time>
      </trkpt>
      <trkpt lat="43.2084" lon="2.31288">
        <ele>118</ele>
        <time>2024-05-10T06:17:39Z</time>
      </trkpt>
      <trkpt lat="43.2084" lon="2.31288">
        <ele>118</ele>
        <time>2024-05-10T06:17:40Z</time>
      </trkpt>
      <trkpt lat="43.2084" lon="2.31288">
        <ele>118</ele>
        <time>2024-05-10T06:17:41Z</time>
      </trkpt>
      <trkpt lat="43.2084" lon="2.31288">
        <ele>118</ele>
        <time>2024-05-10T06:17:42Z</time>
      </trkpt>
      <trkpt lat="43.2084" lon="2.31288">
        <ele>118</ele>
        <time>2024-05-10T06:17:43Z</time>
      </trkpt>
      <trkpt lat="43.2084" lon="2.31288">
        <ele>118</ele>
        <time>2024-05-10T06:17:44Z</time>
      </trkpt>
      <trkpt lat="43.2084" lon="2.31288">
        <ele>118</ele>
        <time>2024-05-10T06:17:45Z</time>
      </trkpt>
      <trkpt lat="43.2084" lon="2.31288">
        <ele>118</ele>
        <time>2024-05-10T06:17:46Z</time>
      </trkpt>
      <trkpt lat="43.2084" lon="2.31288">
        <ele>118</ele>
        <time>2024-05-10T06:17:47Z</time>
      </trkpt>
      <trkpt lat="43.2084" lon="2.31288">
        <ele>118</ele>
        <time>2024-05-10T06:17:48Z</time>
      </trkpt>
      <trkpt lat="43.2084" lon="2.31288">
        <ele>118</ele>
        <time>2024-05-10T06:17:49Z</time>
      </trkpt>
      <trkpt lat="43.2084" lon="2.31288">
        <ele>118</ele>
        <time>2024-05-10T06:17:50Z</time>
      </trkpt>
      <trkpt lat="43.2084" lon="2.31288">
        <ele>118</ele>
        <time>2024-05-10T06:17:51Z</time>
      </trkpt>
      <trkpt lat="43.2084" lon="2.31288">
        <ele>118</ele>
        <time>2024-05-10T06:17:52Z</time>
      </trkpt>
      <trkpt lat="43.2084" lon="2.31288">
        <ele>118</ele>
        <time>2024-05-10T06:17:53Z</time>
      </trkpt>
      <trkpt lat="43.2084" lon="2.31288">
        <ele>118</ele>
        <time>2024-05-10T06:17:54Z</time>
      </trkpt>
      <trkpt lat="43.2084" lon="2.31288">
        <ele>118</ele>
        <time>2024-05-10T06:17:55Z</time>
      </trkpt>
      <trkpt lat="43.2084" lon="2.31288">
        <ele>118</ele>
        <time>2024-05-10T06:17:56Z</time>
      </trkpt>
      <trkpt lat="43.2084" lon="2.31288">
        <ele>118</ele>
        <time>2024-05-10T06:17:57Z</time>
      </trkpt>
      <trkpt lat="43.2084" lon="2.31288">
        <ele>118</ele>
        <time>2024-05-10T06:17:58Z</time>
      </trkpt>
      <trkpt lat="43.2084" lon="2.31288">
        <ele>118</ele>
        <time>2024-05-10T06:17:59Z</time>
      </trkpt>
      <trkpt lat="43.2084" lon="2.31288">
        <ele>118</ele>
        <time>2024-05-10T06:18:00Z</time>
      </trkpt>
      <trkpt lat="43.2084" lon="2.31288">
        <ele>118</ele>
        <time>2024-05-10T06:18:01Z</time>
      </trkpt>
      <trkpt lat="43.2084" lon="2.31288">
        <ele>118</ele>
        <time>2024-05-10T06:18:02Z</time>
      </trkpt>
      <trkpt lat="43.2084" lon="2.31288">
        <ele>118</ele>
        <time>2024-05-10T06:18:03Z</time>
      </trkpt>
      <trkpt lat="43.2084" lon="2.31288">
        <ele>118</ele>
        <time>2024-05-10T06:18:04Z</time>
      </trkpt>
      <trkpt lat="43.2084" lon="2.31288">
        <ele>118</ele>
        <time>2024-05-10T06:18:05Z</time>
      </trkpt>
      <trkpt lat="43.2084" lon="2.31288">
        <ele>118</ele>
        <time>2024-05-10T06:18:06Z</time>
      </trkpt>
      <trkpt lat="43.2084" lon="2.31288">
        <ele>118</ele>
        <time>2024-05-10T06:18:07Z</time>
      </trkpt>
      <trkpt lat="43.2084" lon="2.31288">
        <ele>118</ele>
        <time>2024-05-10T06:18:08Z</time>
      </trkpt>
      <trkpt lat="43.2084" lon="2.31288">
        <ele>118</ele>
        <time>2024-05-10T06:18:09Z</time>
      </trkpt>
      <trkpt lat="43.2084" lon="2.31288">
        <ele>118</ele>
        <time>2024-05-10T06:18:10Z</time>
      </trkpt>
      <trkpt lat="43.2084" lon="2.31288">
        <ele>118</ele>
        <time>2024-05-10T06:18:11Z</time>
      </trkpt>
      <trkpt lat="43.2084" lon="2.31288">
        <ele>118</ele>
        <time>2024-05-10T06:18:12Z</time>
      </trkpt>
      <trkpt lat="43.2084" lon="2.31288">
        <ele>118</ele>
        <time>2024-05-10T06:18:13Z</time>
      </trkpt>
      <trkpt lat="43.2084" lon="2.31288">
        <ele>118</ele>
        <time>2024-05-10T06:18:14Z</time>
      </trkpt>
      <trkpt lat="43.2084" lon="2.31288">
        <ele>118</ele>
        <time>2024-05-10T06:18:15Z</time>
      </trkpt>
      <trkpt lat="43.2084" lon="2.31288">
        <ele>118</ele>
        <time>2024-05-10T06:18:16Z</time>
      </trkpt>
      <trkpt lat="43.2084" lon="2.31288">
        <ele>118</ele>
        <time>2024-05-10T06:18:17Z</time>
      </trkpt>
      <trkpt lat="43.2084" lon="2.31288">
        <ele>118</ele>
        <time>2024-05-10T06:18:18Z</time>
      </trkpt>
      <trkpt lat="43.2084" lon="2.31288">
        <ele>118</ele>
        <time>2024-05-10T06:18:19Z</time>
      </trkpt>
      <trkpt lat="43.2084" lon="2.31288">
        <ele>118</ele>
        <time>2024-05-10T06:18:20Z</time>
      </trkpt>
      <trkpt lat="43.2084" lon="2.31288">
        <ele>118</ele>
        <time>2024-05-10T06:18:21Z</time>
      </trkpt>
      <trkpt lat="43.2084" lon="2.31288">
        <ele>118</ele>
        <time>2024-05-10T06:18:22Z</time>
      </trkpt>
      <trkpt lat="43.2084" lon="2.31288">
        <ele>118</ele>
        <time>2024-05-10T06:18:23Z</time>
      </trkpt>
      <trkpt lat="43.2084" lon="2.31288">
        <ele>118</ele>
        <time>2024-05-10T06:18:24Z</time>
      </trkpt>
      <trkpt lat="43.2084" lon="2.31288">
        <ele>118</ele>
        <time>2024-05-10T06:18:25Z</time>
      </trkpt>
      <trkpt lat="43.2084" lon="2.31288">
        <ele>118</ele>
        <time>2024-05-10T06:18:26Z</time>
      </trkpt>
      <trkpt lat="43.2084" lon="2.31288">
        <ele>118</ele>
        <time>2024-05-10T06:18:27Z</time>
      </trkpt>
      <trkpt lat="43.2084" lon="2.31288">
        <ele>118</ele>
        <time>2024-05-10T06:18:28Z</time>
      </trkpt>
      <trkpt lat="43.2084" lon="2.31288">
        <ele>118</ele>
        <time>2024-05-10T06:18:29Z</time>
      </trkpt>
      <trkpt lat="43.2084" lon="2.31288">
        <ele>118</ele>
        <time>2024-05-10T06:18:30Z</time>
      </trkpt>
      <trkpt lat="43.2084" lon="2.31288">
        <ele>118</ele>
        <time>2024-05-10T06:18:31Z</time>
      </trkpt>
      <trkpt lat="43.2084" lon="2.31288">
        <ele>118</ele>
        <time>2024-05-10T06:18:32Z</time>
      </trkpt>
      <trkpt lat="43.2084" lon="2.31288">
        <ele>118</ele>
        <time>2024-05-10T06:18:33Z</time>
      </trkpt>
      <trkpt lat="43.2084" lon="2.31288">
        <ele>118</ele>
        <time>2024-05-10T06:18:34Z</time>
      </trkpt>
      <trkpt lat="43.2084" lon="2.31288">
        <ele>118</ele>
        <time>2024-05-10T06:18:35Z</time>
      </trkpt>
      <trkpt lat="43.2084" lon="2.31288">
        <ele>118</ele>
        <time>2024-05-10T06:18:36Z</time>
      </trkpt>
      <trkpt lat="43.2084" lon="2.31288">
        <ele>118</ele>
        <time>2024-05-10T06:18:37Z</time>
      </trkpt>
      <trkpt lat="43.2084" lon="2.31288">
        <ele>118</ele>
        <time>2024-05-10T06:18:38Z</time>
      </trkpt>
      <trkpt lat="43.2084" lon="2.31288">
        <ele>118</ele>
        <time>2024-05-10T06:18:39Z</time>
      </trkpt>
      <trkpt lat="43.2084" lon="2.31288">
        <ele>118</ele>
        <time>2024-05-10T06:18:40Z</time>
      </trkpt>
      <trkpt lat="43.2084" lon="2.31288">
        <ele>118</ele>
        <time>2024-05-10T06:18:41Z</time>
      </trkpt>
      <trkpt lat="43.2084" lon="2.31288">
        <ele>118</ele>
        <time>2024-05-10T06:18:42Z</time>
      </trkpt>
      <trkpt lat="43.2084" lon="2.31288">
        <ele>118</ele>
        <time>2024-05-10T06:18:43Z</time>
      </trkpt>
      <trkpt lat="43.2084" lon="2.31288">
        <ele>118</ele>
        <time>2024-05-10T06:18:44Z</time>
      </trkpt>
      <trkpt lat="43.2084" lon="2.31288">
        <ele>118</ele>
        <time>2024-05-10T06:18:45Z</time>
      </trkpt>
      <trkpt lat="43.2084" lon="2.31288">
        <ele>118</ele>
        <time>2024-05-10T06:18:46Z</time>
      </trkpt>
      <trkpt lat="43.2084" lon="2.31288">
        <ele>118</ele>
        <time>2024-05-10T06:18:47Z</time>
      </trkpt>
      <trkpt lat="43.2084" lon="2.31288">
        <ele>118</ele>
        <time>2024-05-10T06:18:48Z</time>
      </trkpt>
      <trkpt lat="43.2084" lon="2.31288">
        <ele>118</ele>
        <time>2024-05-10T06:18:49Z</time>
      </trkpt>
      <trkpt lat="43.2084" lon="2.31288">
        <ele>118</ele>
        <time>2024-05-10T06:18:50Z</time>
      </trkpt>
      <trkpt lat="43.2084" lon="2.31288">
        <ele>118</ele>
        <time>2024-05-10T06:18:51Z</time>
      </trkpt>
      <trkpt lat="43.2084" lon="2.31288">
        <ele>118</ele>
        <time>2024-05-10T06:18:52Z</time>
      </trkpt>
      <trkpt lat="43.2084" lon="2.31288">
        <ele>118</ele>
        <time>2024-05-10T06:18:53Z</time>
      </trkpt>
      <trkpt lat="43.2084" lon="2.31288">
        <ele>118</ele>
        <time>2024-05-10T06:18:54Z</time>
      </trkpt>
      <trkpt lat="43.2084" lon="2.31288">
        <ele>118</ele>
        <time>2024-05-10T06:18:55Z</time>
      </trkpt>
      <trkpt lat="43.2084" lon="2.31288">
        <ele>118</ele>
        <time>2024-05-10T06:18:56Z</time>
      </trkpt>
      <trkpt lat="43.2084" lon="2.31288">
        <ele>118</ele>
        <time>2024-05-10T06:18:57Z</time>
      </trkpt>
      <trkpt lat="43.2084" lon="2.31288">
        <ele>118</ele>
        <time>2024-05-10T06:18:58Z</time>
      </trkpt>
      <trkpt lat="43.2084" lon="2.31288">
        <ele>118</ele>
        <time>2024-05-10T06:18:59Z</time>
      </trkpt>
      <trkpt lat="43.2084" lon="2.31288">
        <ele>118</ele>
        <time>2024-05-10T06:19:00Z</time>
      </trkpt>
      <trkpt lat="43.2084" lon="2.31288">
        <ele>118</ele>
        <time>2024-05-10T06:19:01Z</time>
      </trkpt>
      <trkpt lat="43.2084" lon="2.31288">
        <ele>118</ele>
        <time>2024-05-10T06:19:02Z</time>
      </trkpt>
      <trkpt lat="43.2084" lon="2.31288">
        <ele>118</ele>
        <time>2024-05-10T06:19:03Z</time>
      </trkpt>
      <trkpt lat="43.2084" lon="2.31289">
        <ele>118</ele>
        <time>2024-05-10T06:19:04Z</time>
      </trkpt>
      <trkpt lat="43.2084" lon="2.31291">
        <ele>118</ele>
        <time>2024-05-10T06:19:05Z</time>
      </trkpt>
      <trkpt lat="43.20839" lon="2.31294">
        <ele>118</ele>
        <time>2024-05-10T06:19:06Z</time>
      </trkpt>
      <trkpt lat="43.20838" lon="2.31296">
        <ele>118</ele>
        <time>2024-05-10T06:19:07Z</time>
      </trkpt>
      <trkpt lat="43.20836" lon="2.31298">
        <ele>118</ele>
        <time>2024-05-10T06:19:08Z</time>
      </trkpt>
      <trkpt lat="43.20833" lon="2.313">
        <ele>118</ele>
        <time>2024-05-10T06:19:09Z</time>
      </trkpt>
      <trkpt lat="43.20831" lon="2.31302">
        <ele>117.9</ele>
        <time>2024-05-10T06:19:10Z</time>
      </trkpt>
      <trkpt lat="43.20829" lon="2.31304">
        <ele>117.8</ele>
        <time>2024-05-10T06:19:11Z</time>
      </trkpt>
      <trkpt lat="43.20827" lon="2.31305">
        <ele>117.8</ele>
        <time>2024-05-10T06:19:12Z</time>
      </trkpt>
      <trkpt lat="43.20825" lon="2.31306">
        <ele>117.7</ele>
        <time>2024-05-10T06:19:13Z</time>
      </trkpt>
      <trkpt lat="43.20824" lon="2.31305">
        <ele>117.7</ele>
        <time>2024-05-10T06:19:14Z</time>
      </trkpt>
      <trkpt lat="43.20822" lon="2.31305">
        <ele>117.6</ele>
        <time>2024-05-10T06:19:15Z</time>
      </trkpt>
      <trkpt lat="43.20821" lon="2.31304">
        <ele>117.6</ele>
        <time>2024-05-10T06:19:16Z</time>
      </trkpt>
      <trkpt lat="43.20821" lon="2.31303">
        <ele>117.6</ele>
        <time>2024-05-10T06:19:17Z</time>
      </trkpt>
      <trkpt lat="43.20821" lon="2.31302">
        <ele>117.6</ele>
        <time>2024-05-10T06:19:18Z</time>
      </trkpt>
      <trkpt lat="43.20822" lon="2.31302">
        <ele>117.6</ele>
        <time>2024-05-10T06:19:19Z</time>
      </trkpt>
      <trkpt lat="43.20822" lon="2.31302">
        <ele>117.6</ele>
        <time>2024-05-10T06:19:20Z</time>
      </trkpt>
      <trkpt lat="43.20822" lon="2.31302">
        <ele>117.6</ele>
        <time>2024-05-10T06:19:21Z</time>
      </trkpt>
      <trkpt lat="43.20822" lon="2.31301">
        <ele>117.6</ele>
        <time>2024-05-10T06:19:22Z</time>
      </trkpt>
      <trkpt lat="43.20822" lon="2.31301">
        <ele>117.6</ele>
        <time>2024-05-10T06:19:23Z</time>
      </trkpt>
      <trkpt lat="43.20822" lon="2.31301">
        <ele>117.6</ele>
        <time>2024-05-10T06:19:24Z</time>
      </trkpt>
      <trkpt lat="43.20822" lon="2.313">
        <ele>117.6</ele>
        <time>2024-05-10T06:19:25Z</time>
      </trkpt>
      <trkpt lat="43.20822" lon="2.31299">
        <ele>117.6</ele>
        <time>2024-05-10T06:19:26Z</time>
      </trkpt>
      <trkpt lat="43.20821" lon="2.31298">
        <ele>117.6</ele>
        <time>2024-05-10T06:19:27Z</time>
      </trkpt>
      <trkpt lat="43.20821" lon="2.31297">
        <ele>117.6</ele>
        <time>2024-05-10T06:19:28Z</time>
      </trkpt>
      <trkpt lat="43.20822" lon="2.31297">
        <ele>117.6</ele>
        <time>2024-05-10T06:19:29Z</time>
      </trkpt>
      <trkpt lat="43.20822" lon="2.31297">
        <ele>117.6</ele>
        <time>2024-05-10T06:19:30Z</time>
      </trkpt>
      <trkpt lat="43.20822" lon="2.31297">
        <ele>117.6</ele>
        <time>2024-05-10T06:19:31Z</time>
      </trkpt>
      <trkpt lat="43.20822" lon="2.31295">
        <ele>117.6</ele>
        <time>2024-05-10T06:19:32Z</time>
      </trkpt>
      <trkpt lat="43.20822" lon="2.31293">
        <ele>117.6</ele>
        <time>2024-05-10T06:19:33Z</time>
      </trkpt>
      <trkpt lat="43.20824" lon="2.31289">
        <ele>117.7</ele>
        <time>2024-05-10T06:19:34Z</time>
      </trkpt>
      <trkpt lat="43.20826" lon="2.31287">
        <ele>117.7</ele>
        <time>2024-05-10T06:19:35Z</time>
      </trkpt>
      <trkpt lat="43.20829" lon="2.31284">
        <ele>117.8</ele>
        <time>2024-05-10T06:19:36Z</time>
      </trkpt>
      <trkpt lat="43.20832" lon="2.31283">
        <ele>118</ele>
        <time>2024-05-10T06:19:37Z</time>
      </trkpt>
      <trkpt lat="43.20836" lon="2.31281">
        <ele>118</ele>
        <time>2024-05-10T06:19:38Z</time>
      </trkpt>
      <trkpt lat="43.20839" lon="2.3128">
        <ele>118</ele>
        <time>2024-05-10T06:19:39Z</time>
      </trkpt>
      <trkpt lat="43.20843" lon="2.31278">
        <ele>118</ele>
        <time>2024-05-10T06:19:40Z</time>
      </trkpt>
      <trkpt lat="43.20846" lon="2.31277">
        <ele>118</ele>
        <time>2024-05-10T06:19:41Z</time>
      </trkpt>
      <trkpt lat="43.20849" lon="2.31277">
        <ele>118</ele>
        <time>2024-05-10T06:19:42Z</time>
      </trkpt>
      <trkpt lat="43.20852" lon="2.31279">
        <ele>118</ele>
        <time>2024-05-10T06:19:43Z</time>
      </trkpt>
      <trkpt lat="43.20855" lon="2.31282">
        <ele>118</ele>
        <time>2024-05-10T06:19:44Z</time>
      </trkpt>
      <trkpt lat="43.20858" lon="2.31286">
        <ele>118</ele>
        <time>2024-05-10T06:19:45Z</time>
      </trkpt>
      <trkpt lat="43.2086" lon="2.31289">
        <ele>118</ele>
        <time>2024-05-10T06:19:46Z</time>
      </trkpt>
      <trkpt lat="43.20863" lon="2.31291">
        <ele>118.1</ele>
        <time>2024-05-10T06:19:47Z</time>
      </trkpt>
      <trkpt lat="43.20866" lon="2.31292">
        <ele>118.4</ele>
        <time>2024-05-10T06:19:48Z</time>
      </trkpt>
      <trkpt lat="43.20868" lon="2.3129">
        <ele>118.5</ele>
        <time>2024-05-10T06:19:49Z</time>
      </trkpt>
      <trkpt lat="43.2087" lon="2.31286">
        <ele>118.6</ele>
        <time>2024-05-10T06:19:50Z</time>
      </trkpt>
      <trkpt lat="43.20871" lon="2.31282">
        <ele>118.7</ele>
        <time>2024-05-10T06:19:51Z</time>
      </trkpt>
      <trkpt lat="43.2087" lon="2.31278">
        <ele>118.6</ele>
        <time>2024-05-10T06:19:52Z</time>
      </trkpt>
      <trkpt lat="43.20869" lon="2.31274">
        <ele>118.7</ele>
        <time>2024-05-10T06:19:53Z</time>
      </trkpt>
      <trkpt lat="43.20867" lon="2.31271">
        <ele>118.6</ele>
        <time>2024-05-10T06:19:54Z</time>
      </trkpt>
      <trkpt lat="43.20864" lon="2.31269">
        <ele>118.5</ele>
        <time>2024-05-10T06:19:55Z</time>
      </trkpt>
      <trkpt lat="43.20862" lon="2.31268">
        <ele>118.4</ele>
        <time>2024-05-10T06:19:56Z</time>
      </trkpt>
      <trkpt lat="43.2086" lon="2.31267">
        <ele>118.4</ele>
        <time>2024-05-10T06:19:57Z</time>
      </trkpt>
      <trkpt lat="43.20859" lon="2.31267">
        <ele>118.4</ele>
        <time>2024-05-10T06:19:58Z</time>
      </trkpt>
      <trkpt lat="43.20857" lon="2.31267">
        <ele>118.3</ele>
        <time>2024-05-10T06:19:59Z</time>
      </trkpt>
      <trkpt lat="43.20856" lon="2.31267">
        <ele>118.3</ele>
        <time>2024-05-10T06:20:00Z</time>
      </trkpt>
      <trkpt lat="43.20855" lon="2.31268">
        <ele>118.3</ele>
        <time>2024-05-10T06:20:01Z</time>
      </trkpt>
      <trkpt lat="43.20855" lon="2.31268">
        <ele>118.3</ele>
        <time>2024-05-10T06:20:02Z</time>
      </trkpt>
      <trkpt lat="43.20855" lon="2.31268">
        <ele>118.3</ele>
        <time>2024-05-10T06:20:03Z</time>
      </trkpt>
      <trkpt lat="43.20855" lon="2.31269">
        <ele>118.2</ele>
        <time>2024-05-10T06:20:04Z</time>
      </trkpt>
      <trkpt lat="43.20854" lon="2.31269">
        <ele>118.2</ele>
        <time>2024-05-10T06:20:05Z</time>
      </trkpt>
      <trkpt lat="43.20853" lon="2.31269">
        <ele>118.2</ele>
        <time>2024-05-10T06:20:06Z</time>
      </trkpt>
      <trkpt lat="43.20852" lon="2.3127">
        <ele>118.2</ele>
        <time>2024-05-10T06:20:07Z</time>
      </trkpt>
      <trkpt lat="43.20852" lon="2.3127">
        <ele>118.2</ele>
        <time>2024-05-10T06:20:08Z</time>
      </trkpt>
      <trkpt lat="43.20851" lon="2.3127">
        <ele>118.2</ele>
        <time>2024-05-10T06:20:09Z</time>
      </trkpt>
      <trkpt lat="43.2085" lon="2.3127">
        <ele>118.2</ele>
        <time>2024-05-10T06:20:10Z</time>
      </trkpt>
      <trkpt lat="43.20851" lon="2.31269">
        <ele>118.2</ele>
        <time>2024-05-10T06:20:11Z</time>
      </trkpt>
      <trkpt lat="43.20852" lon="2.31269">
        <ele>118.2</ele>
        <time>2024-05-10T06:20:12Z</time>
      </trkpt>
      <trkpt lat="43.20852" lon="2.31269">
        <ele>118.2</ele>
        <time>2024-05-10T06:20:13Z</time>
      </trkpt>
      <trkpt lat="43.20852" lon="2.31269">
        <ele>118.2</ele>
        <time>2024-05-10T06:20:14Z</time>
      </trkpt>
      <trkpt lat="43.20852" lon="2.31269">
        <ele>118.2</ele>
        <time>2024-05-10T06:20:15Z</time>
      </trkpt>
      <trkpt lat="43.20852" lon="2.31269">
        <ele>118.2</ele>
        <time>2024-05-10T06:20:16Z</time>
      </trkpt>
      <trkpt lat="43.20852" lon="2.31269">
        <ele>118.2</ele>
        <time>2024-05-10T06:20:17Z</time>
      </trkpt>
      <trkpt lat="43.20852" lon="2.31269">
        <ele>118.2</ele>
        <time>2024-05-10T06:20:18Z</time>
      </trkpt>
      <trkpt lat="43.20852" lon="2.31269">
        <ele>118.2</ele>
        <time>2024-05-10T06:20:19Z</time>
      </trkpt>
      <trkpt lat="43.20852" lon="2.31269">
        <ele>118.2</ele>
        <time>2024-05-10T06:20:20Z</time>
      </trkpt>
      <trkpt lat="43.20852" lon="2.31269">
        <ele>118.2</ele>
        <time>2024-05-10T06:20:21Z</time>
      </trkpt>
      <trkpt lat="43.20853" lon="2.31269">
        <ele>118.2</ele>
        <time>2024-05-10T06:20:22Z</time>
      </trkpt>
      <trkpt lat="43.20853" lon="2.31269">
        <ele>118.2</ele>
        <time>2024-05-10T06:20:23Z</time>
      </trkpt>
      <trkpt lat="43.20853" lon="2.31269">
        <ele>118.2</ele>
        <time>2024-05-10T06:20:24Z</time>
      </trkpt>
      <trkpt lat="43.20853" lon="2.31269">
        <ele>118.2</ele>
        <time>2024-05-10T06:20:25Z</time>
      </trkpt>
      <trkpt lat="43.20853" lon="2.31269">
        <ele>118.2</ele>
        <time>2024-05-10T06:20:26Z</time>
      </trkpt>
      <trkpt lat="43.20853" lon="2.31269">
        <ele>118.2</ele>
        <time>2024-05-10T06:20:27Z</time>
      </trkpt>
      <trkpt lat="43.20853" lon="2.31269">
        <ele>118.2</ele>
        <time>2024-05-10T06:20:28Z</time>
      </trkpt>
      <trkpt lat="43.20853" lon="2.31269">
        <ele>118.2</ele>
        <time>2024-05-10T06:20:29Z</time>
      </trkpt>
      <trkpt lat="43.20853" lon="2.31269">
        <ele>118.2</ele>
        <time>2024-05-10T06:20:30Z</time>
      </trkpt>
      <trkpt lat="43.20853" lon="2.31269">
        <ele>118.2</ele>
        <time>2024-05-10T06:20:31Z</time>
      </trkpt>
      <trkpt lat="43.20853" lon="2.31269">
        <ele>118.2</ele>
        <time>2024-05-10T06:20:32Z</time>
      </trkpt>
      <trkpt lat="43.20853" lon="2.31269">
        <ele>118.2</ele>
        <time>2024-05-10T06:20:33Z</time>
      </trkpt>
      <trkpt lat="43.20853" lon="2.31269">
        <ele>118.2</ele>
        <time>2024-05-10T06:20:34Z</time>
      </trkpt>
      <trkpt lat="43.20853" lon="2.31269">
        <ele>118.2</ele>
        <time>2024-05-10T06:20:35Z</time>
      </trkpt>
      <trkpt lat="43.20853" lon="2.31269">
        <ele>118.2</ele>
        <time>2024-05-10T06:20:36Z</time>
      </trkpt>
      <trkpt lat="43.20853" lon="2.31269">
        <ele>118.2</ele>
        <time>2024-05-10T06:20:37Z</time>
      </trkpt>
      <trkpt lat="43.20853" lon="2.31269">
        <ele>118.2</ele>
        <time>2024-05-10T06:20:38Z</time>
      </trkpt>
      <trkpt lat="43.20853" lon="2.31269">
        <ele>118.2</ele>
        <time>2024-05-10T06:20:39Z</time>
      </trkpt>
      <trkpt lat="43.20853" lon="2.31269">
        <ele>118.2</ele>
        <time>2024-05-10T06:20:40Z</time>
      </trkpt>
      <trkpt lat="43.20853" lon="2.31269">
        <ele>118.2</ele>
        <time>2024-05-10T06:20:41Z</time>
      </trkpt>
      <trkpt lat="43.20853" lon="2.31269">
        <ele>118.2</ele>
        <time>2024-05-10T06:20:42Z</time>
      </trkpt>
      <trkpt lat="43.20853" lon="2.31269">
        <ele>118.2</ele>
        <time>2024-05-10T06:20:43Z</time>
      </trkpt>
      <trkpt lat="43.20852" lon="2.31269">
        <ele>118.2</ele>
        <time>2024-05-10T06:20:44Z</time>
      </trkpt>
      <trkpt lat="43.20852" lon="2.31269">
        <ele>118.2</ele>
        <time>2024-05-10T06:20:45Z</time>
      </trkpt>
      <trkpt lat="43.20852" lon="2.31269">
        <ele>118.2</ele>
        <time>2024-05-10T06:20:46Z</time>
      </trkpt>
      <trkpt lat="43.20852" lon="2.31269">
        <ele>118.2</ele>
        <time>2024-05-10T06:20:47Z</time>
      </trkpt>
      <trkpt lat="43.20852" lon="2.31269">
        <ele>118.2</ele>
        <time>2024-05-10T06:20:48Z</time>
      </trkpt>
      <trkpt lat="43.20852" lon="2.31269">
        <ele>118.2</ele>
        <time>2024-05-10T06:20:49Z</time>
      </trkpt>
      <trkpt lat="43.20852" lon="2.31269">
        <ele>118.2</ele>
        <time>2024-05-10T06:20:50Z</time>
      </trkpt>
      <trkpt lat="43.20852" lon="2.31269">
        <ele>118.2</ele>
        <time>2024-05-10T06:20:51Z</time>
      </trkpt>
      <trkpt lat="43.20852" lon="2.31269">
        <ele>118.2</ele>
        <time>2024-05-10T06:20:52Z</time>
      </trkpt>
      <trkpt lat="43.20852" lon="2.31269">
        <ele>118.2</ele>
        <time>2024-05-10T06:20:53Z</time>
      </trkpt>
      <trkpt lat="43.20852" lon="2.31269">
        <ele>118.2</ele>
        <time>2024-05-10T06:20:54Z</time>
      </trkpt>
      <trkpt lat="43.20852" lon="2.31269">
        <ele>118.2</ele>
        <time>2024-05-10T06:20:55Z</time>
      </trkpt>
      <trkpt lat="43.20852" lon="2.31269">
        <ele>118.2</ele>
        <time>2024-05-10T06:20:56Z</time>
      </trkpt>
      <trkpt lat="43.20852" lon="2.31269">
        <ele>118.2</ele>
        <time>2024-05-10T06:20:57Z</time>
      </trkpt>
      <trkpt lat="43.20852" lon="2.31269">
        <ele>118.2</ele>
        <time>2024-05-10T06:20:58Z</time>
      </trkpt>
      <trkpt lat="43.20852" lon="2.31269">
        <ele>118.2</ele>
        <time>2024-05-10T06:20:59Z</time>
      </trkpt>
      <trkpt lat="43.20852" lon="2.31269">
        <ele>118.2</ele>
        <time>2024-05-10T06:21:00Z</time>
      </trkpt>
      <trkpt lat="43.20852" lon="2.31269">
        <ele>118.2</ele>
        <time>2024-05-10T06:21:01Z</time>
      </trkpt>
      <trkpt lat="43.20852" lon="2.31269">
        <ele>118.2</ele>
        <time>2024-05-10T06:21:02Z</time>
      </trkpt>
      <trkpt lat="43.20852" lon="2.31269">
        <ele>118.2</ele>
        <time>2024-05-10T06:21:03Z</time>
      </trkpt>
      <trkpt lat="43.20852" lon="2.31269">
        <ele>118.2</ele>
        <time>2024-05-10T06:21:04Z</time>
      </trkpt>
      <trkpt lat="43.20852" lon="2.31269">
        <ele>118.2</ele>
        <time>2024-05-10T06:21:05Z</time>
      </trkpt>
      <trkpt lat="43.20851" lon="2.3127">
        <ele>118.2</ele>
        <time>2024-05-10T06:21:06Z</time>
      </trkpt>
      <trkpt lat="43.2085" lon="2.31272">
        <ele>118.1</ele>
        <time>2024-05-10T06:21:07Z</time>
      </trkpt>
      <trkpt lat="43.20849" lon="2.31274">
        <ele>118.1</ele>
        <time>2024-05-10T06:21:08Z</time>
      </trkpt>
      <trkpt lat="43.20849" lon="2.31278">
        <ele>118</ele>
        <time>2024-05-10T06:21:09Z</time>
      </trkpt>
      <trkpt lat="43.2085" lon="2.31282">
        <ele>118</ele>
        <time>2024-05-10T06:21:10Z</time>
      </trkpt>
      <trkpt lat="43.20851" lon="2.31285">
        <ele>118</ele>
        <time>2024-05-10T06:21:11Z</time>
      </trkpt>
      <trkpt lat="43.20853" lon="2.31289">
        <ele>118</ele>
        <time>2024-05-10T06:21:12Z</time>
      </trkpt>
      <trkpt lat="43.20855" lon="2.31293">
        <ele>118</ele>
        <time>2024-05-10T06:21:13Z</time>
      </trkpt>
      <trkpt lat="43.20857" lon="2.31296">
        <ele>118</ele>
        <time>2024-05-10T06:21:14Z</time>
      </trkpt>
      <trkpt lat="43.2086" lon="2.31297">
        <ele>118</ele>
        <time>2024-05-10T06:21:15Z</time>
      </trkpt>
      <trkpt lat="43.20863" lon="2.31297">
        <ele>118.1</ele>
        <time>2024-05-10T06:21:16Z</time>
      </trkpt>
      <trkpt lat="43.20866" lon="2.31296">
        <ele>118.4</ele>
        <time>2024-05-10T06:21:17Z</time>
      </trkpt>
      <trkpt lat="43.20868" lon="2.31293">
        <ele>118.5</ele>
        <time>2024-05-10T06:21:18Z</time>
      </trkpt>
      <trkpt lat="43.20869" lon="2.3129">
        <ele>118.6</ele>
        <time>2024-05-10T06:21:19Z</time>
      </trkpt>
      <trkpt lat="43.20869" lon="2.31287">
        <ele>118.6</ele>
        <time>2024-05-10T06:21:20Z</time>
      </trkpt>
      <trkpt lat="43.2087" lon="2.31285">
        <ele>118.6</ele>
        <time>2024-05-10T06:21:21Z</time>
      </trkpt>
      <trkpt lat="43.2087" lon="2.31282">
        <ele>118.6</ele>
        <time>2024-05-10T06:21:22Z</time>
      </trkpt>
      <trkpt lat="43.2087" lon="2.31279">
        <ele>118.6</ele>
        <time>2024-05-10T06:21:23Z</time>
      </trkpt>
      <trkpt lat="43.20869" lon="2.31277">
        <ele>118.6</ele>
        <time>2024-05-10T06:21:24Z</time>
      </trkpt>
      <trkpt lat="43.20869" lon="2.31274">
        <ele>118.7</ele>
        <time>2024-05-10T06:21:25Z</time>
      </trkpt>
      <trkpt lat="43.20868" lon="2.31272">
        <ele>118.7</ele>
        <time>2024-05-10T06:21:26Z</time>
      </trkpt>
      <trkpt lat="43.20867" lon="2.3127">
        <ele>118.6</ele>
        <time>2024-05-10T06:21:27Z</time>
      </trkpt>
      <trkpt lat="43.20865" lon="2.31268">
        <ele>118.6</ele>
        <time>2024-05-10T06:21:28Z</time>
      </trkpt>
      <trkpt lat="43.20863" lon="2.31267">
        <ele>118.5</ele>
        <time>2024-05-10T06:21:29Z</time>
      </trkpt>
      <trkpt lat="43.20862" lon="2.31267">
        <ele>118.4</ele>
        <time>2024-05-10T06:21:30Z</time>
      </trkpt>
      <trkpt lat="43.20861" lon="2.31267">
        <ele>118.4</ele>
        <time>2024-05-10T06:21:31Z</time>
      </trkpt>
      <trkpt lat="43.20861" lon="2.31268">
        <ele>118.4</ele>
        <time>2024-05-10T06:21:32Z</time>
      </trkpt>
      <trkpt lat="43.20861" lon="2.31268">
        <ele>118.4</ele>
        <time>2024-05-10T06:21:33Z</time>
      </trkpt>
      <trkpt lat="43.2086" lon="2.31268">
        <ele>118.3</ele>
        <time>2024-05-10T06:21:34Z</time>
      </trkpt>
      <trkpt lat="43.2086" lon="2.31268">
        <ele>118.3</ele>
        <time>2024-05-10T06:21:35Z</time>
      </trkpt>
      <trkpt lat="43.20859" lon="2.31268">
        <ele>118.3</ele>
        <time>2024-05-10T06:21:36Z</time>
      </trkpt>
      <trkpt lat="43.20857" lon="2.31269">
        <ele>118.3</ele>
        <time>2024-05-10T06:21:37Z</time>
      </trkpt>
      <trkpt lat="43.20854" lon="2.3127">
        <ele>118.2</ele>
        <time>2024-05-10T06:21:38Z</time>
      </trkpt>
      <trkpt lat="43.20852" lon="2.31271">
        <ele>118.2</ele>
        <time>2024-05-10T06:21:39Z</time>
      </trkpt>
      <trkpt lat="43.20849" lon="2.31272">
        <ele>118.1</ele>
        <time>2024-05-10T06:21:40Z</time>
      </trkpt>
      <trkpt lat="43.20846" lon="2.31274">
        <ele>118.1</ele>
        <time>2024-05-10T06:21:41Z</time>
      </trkpt>
      <trkpt lat="43.20843" lon="2.31276">
        <ele>118</ele>
        <time>2024-05-10T06:21:42Z</time>
      </trkpt>
      <trkpt lat="43.20839" lon="2.3128">
        <ele>118</ele>
        <time>2024-05-10T06:21:43Z</time>
      </trkpt>
      <trkpt lat="43.20833" lon="2.31283">
        <ele>118</ele>
        <time>2024-05-10T06:21:44Z</time>
      </trkpt>
      <trkpt lat="43.20827" lon="2.31286">
        <ele>117.8</ele>
        <time>2024-05-10T06:21:45Z</time>
      </trkpt>
      <trkpt lat="43.20821" lon="2.31289">
        <ele>117.6</ele>
        <time>2024-05-10T06:21:46Z</time>
      </trkpt>
      <trkpt lat="43.20814" lon="2.31291">
        <ele>117.3</ele>
        <time>2024-05-10T06:21:47Z</time>
      </trkpt>
      <trkpt lat="43.20807" lon="2.31293">
        <ele>117.1</ele>
        <time>2024-05-10T06:21:48Z</time>
      </trkpt>
      <trkpt lat="43.20801" lon="2.31292">
        <ele>117.1</ele>
        <time>2024-05-10T06:21:49Z</time>
      </trkpt>
      <trkpt lat="43.20796" lon="2.31291">
        <ele>117.2</ele>
        <time>2024-05-10T06:21:50Z</time>
      </trkpt>
      <trkpt lat="43.20793" lon="2.31288">
        <ele>117.2</ele>
        <time>2024-05-10T06:21:51Z</time>
      </trkpt>
      <trkpt lat="43.2079" lon="2.31285">
        <ele>117.1</ele>
        <time>2024-05-10T06:21:52Z</time>
      </trkpt>
      <trkpt lat="43.20788" lon="2.31282">
        <ele>117.1</ele>
        <time>2024-05-10T06:21:53Z</time>
      </trkpt>
      <trkpt lat="43.20788" lon="2.3128">
        <ele>117.1</ele>
        <time>2024-05-10T06:21:54Z</time>
      </trkpt>
      <trkpt lat="43.20788" lon="2.3128">
        <ele>117.1</ele>
        <time>2024-05-10T06:21:55Z</time>
      </trkpt>
      <trkpt lat="43.20788" lon="2.31281">
        <ele>117.1</ele>
        <time>2024-05-10T06:21:56Z</time>
      </trkpt>
      <trkpt lat="43.20788" lon="2.31281">
        <ele>117.1</ele>
        <time>2024-05-10T06:21:57Z</time>
      </trkpt>
      <trkpt lat="43.20787" lon="2.31281">
        <ele>117.1</ele>
        <time>2024-05-10T06:21:58Z</time>
      </trkpt>
      <trkpt lat="43.20787" lon="2.31281">
        <ele>117.1</ele>
        <time>2024-05-10T06:21:59Z</time>
      </trkpt>
      <trkpt lat="43.20787" lon="2.31281">
        <ele>117.1</ele>
        <time>2024-05-10T06:22:00Z</time>
      </trkpt>
      <trkpt lat="43.20787" lon="2.3128">
        <ele>117.1</ele>
        <time>2024-05-10T06:22:01Z</time>
      </trkpt>
      <trkpt lat="43.20787" lon="2.3128">
        <ele>117.1</ele>
        <time>2024-05-10T06:22:02Z</time>
      </trkpt>
      <trkpt lat="43.20787" lon="2.3128">
        <ele>117.1</ele>
        <time>2024-05-10T06:22:03Z</time>
      </trkpt>
      <trkpt lat="43.20786" lon="2.3128">
        <ele>117.1</ele>
        <time>2024-05-10T06:22:04Z</time>
      </trkpt>
      <trkpt lat="43.20787" lon="2.3128">
        <ele>117.1</ele>
        <time>2024-05-10T06:22:05Z</time>
      </trkpt>
      <trkpt lat="43.20787" lon="2.3128">
        <ele>117.1</ele>
        <time>2024-05-10T06:22:06Z</time>
      </trkpt>
      <trkpt lat="43.20787" lon="2.3128">
        <ele>117.1</ele>
        <time>2024-05-10T06:22:07Z</time>
      </trkpt>
      <trkpt lat="43.20787" lon="2.31281">
        <ele>117.1</ele>
        <time>2024-05-10T06:22:08Z</time>
      </trkpt>
      <trkpt lat="43.20787" lon="2.31281">
        <ele>117.1</ele>
        <time>2024-05-10T06:22:09Z</time>
      </trkpt>
      <trkpt lat="43.20787" lon="2.31281">
        <ele>117.1</ele>
        <time>2024-05-10T06:22:10Z</time>
      </trkpt>
      <trkpt lat="43.20787" lon="2.31281">
        <ele>117.1</ele>
        <time>2024-05-10T06:22:11Z</time>
      </trkpt>
      <trkpt lat="43.20787" lon="2.31281">
        <ele>117.1</ele>
        <time>2024-05-10T06:22:12Z</time>
      </trkpt>
      <trkpt lat="43.20787" lon="2.31281">
        <ele>117.1</ele>
        <time>2024-05-10T06:22:13Z</time>
      </trkpt>
      <trkpt lat="43.20787" lon="2.31281">
        <ele>117.1</ele>
        <time>2024-05-10T06:22:14Z</time>
      </trkpt>
      <trkpt lat="43.20787" lon="2.31281">
        <ele>117.1</ele>
        <time>2024-05-10T06:22:15Z</time>
      </trkpt>
      <trkpt lat="43.20787" lon="2.31281">
        <ele>117.1</ele>
        <time>2024-05-10T06:22:16Z</time>
      </trkpt>
      <trkpt lat="43.20787" lon="2.31281">
        <ele>117.1</ele>
        <time>2024-05-10T06:22:17Z</time>
      </trkpt>
      <trkpt lat="43.20787" lon="2.31281">
        <ele>117.1</ele>
        <time>2024-05-10T06:22:18Z</time>
      </trkpt>
      <trkpt lat="43.20787" lon="2.31281">
        <ele>117.1</ele>
        <time>2024-05-10T06:22:19Z</time>
      </trkpt>
      <trkpt lat="43.20787" lon="2.31281">
        <ele>117.1</ele>
        <time>2024-05-10T06:22:20Z</time>
      </trkpt>
      <trkpt lat="43.20787" lon="2.31281">
        <ele>117.1</ele>
        <time>2024-05-10T06:22:21Z</time>
      </trkpt>
      <trkpt lat="43.20787" lon="2.31281">
        <ele>117.1</ele>
        <time>2024-05-10T06:22:22Z</time>
      </trkpt>
      <trkpt lat="43.20787" lon="2.31281">
        <ele>117.1</ele>
        <time>2024-05-10T06:22:23Z</time>
      </trkpt>
      <trkpt lat="43.20787" lon="2.31281">
        <ele>117.1</ele>
        <time>2024-05-10T06:22:24Z</time>
      </trkpt>
      <trkpt lat="43.20786" lon="2.31279">
        <ele>117</ele>
        <time>2024-05-10T06:22:25Z</time>
      </trkpt>
      <trkpt lat="43.20786" lon="2.31275">
        <ele>117.1</ele>
        <time>2024-05-10T06:22:26Z</time>
      </trkpt>
      <trkpt lat="43.20787" lon="2.31268">
        <ele>117.4</ele>
        <time>2024-05-10T06:22:27Z</time>
      </trkpt>
      <trkpt lat="43.20788" lon="2.31258">
        <ele>117.7</ele>
        <time>2024-05-10T06:22:28Z</time>
      </trkpt>
      <trkpt lat="43.2079" lon="2.31247">
        <ele>117.9</ele>
        <time>2024-05-10T06:22:29Z</time>
      </trkpt>
      <trkpt lat="43.20791" lon="2.31237">
        <ele>117.8</ele>
        <time>2024-05-10T06:22:30Z</time>
      </trkpt>
      <trkpt lat="43.20793" lon="2.31226">
        <ele>117.6</ele>
        <time>2024-05-10T06:22:31Z</time>
      </trkpt>
      <trkpt lat="43.20795" lon="2.31214">
        <ele>117.7</ele>
        <time>2024-05-10T06:22:32Z</time>
      </trkpt>
      <trkpt lat="43.20797" lon="2.31199">
        <ele>117.9</ele>
        <time>2024-05-10T06:22:33Z</time>
      </trkpt>
      <trkpt lat="43.208" lon="2.31185">
        <ele>117.9</ele>
        <time>2024-05-10T06:22:34Z</time>
      </trkpt>
      <trkpt lat="43.20803" lon="2.31171">
        <ele>117.4</ele>
        <time>2024-05-10T06:22:35Z</time>
      </trkpt>
      <trkpt lat="43.20806" lon="2.31156">
        <ele>117</ele>
        <time>2024-05-10T06:22:36Z</time>
      </trkpt>
      <trkpt lat="43.20809" lon="2.3114">
        <ele>117.5</ele>
        <time>2024-05-10T06:22:37Z</time>
      </trkpt>
      <trkpt lat="43.20814" lon="2.31123">
        <ele>118.7</ele>
        <time>2024-05-10T06:22:38Z</time>
      </trkpt>
      <trkpt lat="43.20819" lon="2.31107">
        <ele>119.1</ele>
        <time>2024-05-10T06:22:39Z</time>
      </trkpt>
      <trkpt lat="43.20823" lon="2.31091">
        <ele>119.3</ele>
        <time>2024-05-10T06:22:40Z</time>
      </trkpt>
      <trkpt lat="43.20827" lon="2.31078">
        <ele>119.3</ele>
        <time>2024-05-10T06:22:41Z</time>
      </trkpt>
      <trkpt lat="43.20831" lon="2.31067">
        <ele>119.1</ele>
        <time>2024-05-10T06:22:42Z</time>
      </trkpt>
      <trkpt lat="43.20836" lon="2.31057">
        <ele>119.1</ele>
        <time>2024-05-10T06:22:43Z</time>
      </trkpt>
      <trkpt lat="43.20843" lon="2.31048">
        <ele>119.5</ele>
        <time>2024-05-10T06:22:44Z</time>
      </trkpt>
      <trkpt lat="43.20851" lon="2.31045">
        <ele>119.8</ele>
        <time>2024-05-10T06:22:45Z</time>
      </trkpt>
      <trkpt lat="43.2086" lon="2.31043">
        <ele>120</ele>
        <time>2024-05-10T06:22:46Z</time>
      </trkpt>
      <trkpt lat="43.20868" lon="2.3104">
        <ele>120.1</ele>
        <time>2024-05-10T06:22:47Z</time>
      </trkpt>
      <trkpt lat="43.20876" lon="2.31033">
        <ele>120.1</ele>
        <time>2024-05-10T06:22:48Z</time>
      </trkpt>
      <trkpt lat="43.2088" lon="2.31024">
        <ele>120.1</ele>
        <time>2024-05-10T06:22:49Z</time>
      </trkpt>
      <trkpt lat="43.20881" lon="2.31014">
        <ele>120.4</ele>
        <time>2024-05-10T06:22:50Z</time>
      </trkpt>
      <trkpt lat="43.20879" lon="2.31003">
        <ele>120.6</ele>
        <time>2024-05-10T06:22:51Z</time>
      </trkpt>
      <trkpt lat="43.20874" lon="2.30996">
        <ele>120.5</ele>
        <time>2024-05-10T06:22:52Z</time>
      </trkpt>
      <trkpt lat="43.20868" lon="2.30991">
        <ele>120.2</ele>
        <time>2024-05-10T06:22:53Z</time>
      </trkpt>
      <trkpt lat="43.20861" lon="2.3099">
        <ele>120</ele>
        <time>2024-05-10T06:22:54Z</time>
      </trkpt>
      <trkpt lat="43.20855" lon="2.30995">
        <ele>120.2</ele>
        <time>2024-05-10T06:22:55Z</time>
      </trkpt>
      <trkpt lat="43.2085" lon="2.31004">
        <ele>120.3</ele>
        <time>2024-05-10T06:22:56Z</time>
      </trkpt>
      <trkpt lat="43.20846" lon="2.31017">
        <ele>120.2</ele>
        <time>2024-05-10T06:22:57Z</time>
      </trkpt>
      <trkpt lat="43.20841" lon="2.3103">
        <ele>119.9</ele>
        <time>2024-05-10T06:22:58Z</time>
      </trkpt>
      <trkpt lat="43.20837" lon="2.31045">
        <ele>119.5</ele>
        <time>2024-05-10T06:22:59Z</time>
      </trkpt>
      <trkpt lat="43.20831" lon="2.31059">
        <ele>119.2</ele>
        <time>2024-05-10T06:23:00Z</time>
      </trkpt>
      <trkpt lat="43.20824" lon="2.31073">
        <ele>119.5</ele>
        <time>2024-05-10T06:23:01Z</time>
      </trkpt>
      <trkpt lat="43.20816" lon="2.31087">
        <ele>119.5</ele>
        <time>2024-05-10T06:23:02Z</time>
      </trkpt>
      <trkpt lat="43.20808" lon="2.31099">
        <ele>119.4</ele>
        <time>2024-05-10T06:23:03Z</time>
      </trkpt>
      <trkpt lat="43.208" lon="2.31112">
        <ele>119.2</ele>
        <time>2024-05-10T06:23:04Z</time>
      </trkpt>
      <trkpt lat="43.2079" lon="2.31123">
        <ele>119.4</ele>
        <time>2024-05-10T06:23:05Z</time>
      </trkpt>
      <trkpt lat="43.20779" lon="2.31133">
        <ele>120.6</ele>
        <time>2024-05-10T06:23:06Z</time>
      </trkpt>
      <trkpt lat="43.20767" lon="2.31142">
        <ele>120.9</ele>
        <time>2024-05-10T06:23:07Z</time>
      </trkpt>
      <trkpt lat="43.20753" lon="2.3115">
        <ele>121</ele>
        <time>2024-05-10T06:23:08Z</time>
      </trkpt>
      <trkpt lat="43.20738" lon="2.31156">
        <ele>121</ele>
        <time>2024-05-10T06:23:09Z</time>
      </trkpt>
      <trkpt lat="43.20721" lon="2.31163">
        <ele>121</ele>
        <time>2024-05-10T06:23:10Z</time>
      </trkpt>
      <trkpt lat="43.20703" lon="2.31169">
        <ele>121</ele>
        <time>2024-05-10T06:23:11Z</time>
      </trkpt>
      <trkpt lat="43.20684" lon="2.31175">
        <ele>121</ele>
        <time>2024-05-10T06:23:12Z</time>
      </trkpt>
      <trkpt lat="43.20666" lon="2.31182">
        <ele>121</ele>
        <time>2024-05-10T06:23:13Z</time>
      </trkpt>
      <trkpt lat="43.20646" lon="2.3119">
        <ele>121</ele>
        <time>2024-05-10T06:23:14Z</time>
      </trkpt>
      <trkpt lat="43.20625" lon="2.31197">
        <ele>121</ele>
        <time>2024-05-10T06:23:15Z</time>
      </trkpt>
      <trkpt lat="43.20602" lon="2.31204">
        <ele>120.4</ele>
        <time>2024-05-10T06:23:16Z</time>
      </trkpt>
      <trkpt lat="43.20578" lon="2.31211">
        <ele>119.9</ele>
        <time>2024-05-10T06:23:17Z</time>
      </trkpt>
      <trkpt lat="43.20553" lon="2.31219">
        <ele>119.9</ele>
        <time>2024-05-10T06:23:18Z</time>
      </trkpt>
      <trkpt lat="43.20528" lon="2.31227">
        <ele>119.7</ele>
        <time>2024-05-10T06:23:19Z</time>
      </trkpt>
      <trkpt lat="43.20504" lon="2.31235">
        <ele>119</ele>
        <time>2024-05-10T06:23:20Z</time>
      </trkpt>
      <trkpt lat="43.20479" lon="2.31244">
        <ele>119.6</ele>
        <time>2024-05-10T06:23:21Z</time>
      </trkpt>
      <trkpt lat="43.20456" lon="2.31254">
        <ele>119.9</ele>
        <time>2024-05-10T06:23:22Z</time>
      </trkpt>
      <trkpt lat="43.20433" lon="2.31265">
        <ele>119.7</ele>
        <time>2024-05-10T06:23:23Z</time>
      </trkpt>
      <trkpt lat="43.20413" lon="2.31278">
        <ele>119.9</ele>
        <time>2024-05-10T06:23:24Z</time>
      </trkpt>
      <trkpt lat="43.20393" lon="2.31292">
        <ele>119.1</ele>
        <time>2024-05-10T06:23:25Z</time>
      </trkpt>
      <trkpt lat="43.20375" lon="2.31306">
        <ele>119</ele>
        <time>2024-05-10T06:23:26Z</time>
      </trkpt>
      <trkpt lat="43.2036" lon="2.3132">
        <ele>119</ele>
        <time>2024-05-10T06:23:27Z</time>
      </trkpt>
      <trkpt lat="43.20347" lon="2.31331">
        <ele>118.5</ele>
        <time>2024-05-10T06:23:28Z</time>
      </trkpt>
      <trkpt lat="43.20337" lon="2.31342">
        <ele>117.9</ele>
        <time>2024-05-10T06:23:29Z</time>
      </trkpt>
      <trkpt lat="43.20329" lon="2.31351">
        <ele>117.7</ele>
        <time>2024-05-10T06:23:30Z</time>
      </trkpt>
      <trkpt lat="43.20322" lon="2.31357">
        <ele>118</ele>
        <time>2024-05-10T06:23:31Z</time>
      </trkpt>
      <trkpt lat="43.20315" lon="2.31363">
        <ele>118.3</ele>
        <time>2024-05-10T06:23:32Z</time>
      </trkpt>
      <trkpt lat="43.20308" lon="2.31367">
        <ele>118.8</ele>
        <time>2024-05-10T06:23:33Z</time>
      </trkpt>
      <trkpt lat="43.20301" lon="2.31371">
        <ele>118.9</ele>
        <time>2024-05-10T06:23:34Z</time>
      </trkpt>
      <trkpt lat="43.20297" lon="2.31372">
        <ele>118.9</ele>
        <time>2024-05-10T06:23:35Z</time>
      </trkpt>
      <trkpt lat="43.20294" lon="2.31372">
        <ele>118.8</ele>
        <time>2024-05-10T06:23:36Z</time>
      </trkpt>
      <trkpt lat="43.20292" lon="2.31372">
        <ele>118.8</ele>
        <time>2024-05-10T06:23:37Z</time>
      </trkpt>
      <trkpt lat="43.20289" lon="2.31373">
        <ele>118.7</ele>
        <time>2024-05-10T06:23:38Z</time>
      </trkpt>
      <trkpt lat="43.20287" lon="2.31373">
        <ele>118.7</ele>
        <time>2024-05-10T06:23:39Z</time>
      </trkpt>
      <trkpt lat="43.20287" lon="2.31373">
        <ele>118.7</ele>
        <time>2024-05-10T06:23:40Z</time>
      </trkpt>
      <trkpt lat="43.20287" lon="2.31372">
        <ele>118.7</ele>
        <time>2024-05-10T06:23:41Z</time>
      </trkpt>
      <trkpt lat="43.20287" lon="2.31372">
        <ele>118.7</ele>
        <time>2024-05-10T06:23:42Z</time>
      </trkpt>
      <trkpt lat="43.20286" lon="2.31372">
        <ele>118.7</ele>
        <time>2024-05-10T06:23:43Z</time>
      </trkpt>
      <trkpt lat="43.20285" lon="2.31372">
        <ele>118.7</ele>
        <time>2024-05-10T06:23:44Z</time>
      </trkpt>
      <trkpt lat="43.20283" lon="2.31371">
        <ele>118.7</ele>
        <time>2024-05-10T06:23:45Z</time>
      </trkpt>
      <trkpt lat="43.2028" lon="2.31369">
        <ele>118.7</ele>
        <time>2024-05-10T06:23:46Z</time>
      </trkpt>
      <trkpt lat="43.20273" lon="2.31367">
        <ele>118.8</ele>
        <time>2024-05-10T06:23:47Z</time>
      </trkpt>
      <trkpt lat="43.20263" lon="2.31364">
        <ele>119</ele>
        <time>2024-05-10T06:23:48Z</time>
      </trkpt>
      <trkpt lat="43.20253" lon="2.31364">
        <ele>119</ele>
        <time>2024-05-10T06:23:49Z</time>
      </trkpt>
      <trkpt lat="43.20241" lon="2.31368">
        <ele>119</ele>
        <time>2024-05-10T06:23:50Z</time>
      </trkpt>
      <trkpt lat="43.2023" lon="2.31376">
        <ele>119</ele>
        <time>2024-05-10T06:23:51Z</time>
      </trkpt>
      <trkpt lat="43.20219" lon="2.31389">
        <ele>119</ele>
        <time>2024-05-10T06:23:52Z</time>
      </trkpt>
      <trkpt lat="43.20212" lon="2.31405">
        <ele>119</ele>
        <time>2024-05-10T06:23:53Z</time>
      </trkpt>
      <trkpt lat="43.20209" lon="2.31424">
        <ele>119</ele>
        <time>2024-05-10T06:23:54Z</time>
      </trkpt>
      <trkpt lat="43.20209" lon="2.31444">
        <ele>119</ele>
        <time>2024-05-10T06:23:55Z</time>
      </trkpt>
      <trkpt lat="43.20212" lon="2.31464">
        <ele>118.6</ele>
        <time>2024-05-10T06:23:56Z</time>
      </trkpt>
      <trkpt lat="43.20218" lon="2.31485">
        <ele>118.5</ele>
        <time>2024-05-10T06:23:57Z</time>
      </trkpt>
      <trkpt lat="43.20223" lon="2.31505">
        <ele>119</ele>
        <time>2024-05-10T06:23:58Z</time>
      </trkpt>
      <trkpt lat="43.20225" lon="2.31526">
        <ele>118.9</ele>
        <time>2024-05-10T06:23:59Z</time>
      </trkpt>
      <trkpt lat="43.20224" lon="2.31548">
        <ele>118.9</ele>
        <time>2024-05-10T06:24:00Z</time>
      </trkpt>
      <trkpt lat="43.20219" lon="2.31572">
        <ele>119</ele>
        <time>2024-05-10T06:24:01Z</time>
      </trkpt>
      <trkpt lat="43.20213" lon="2.31596">
        <ele>119.3</ele>
        <time>2024-05-10T06:24:02Z</time>
      </trkpt>
      <trkpt lat="43.20208" lon="2.31621">
        <ele>119.9</ele>
        <time>2024-05-10T06:24:03Z</time>
      </trkpt>
      <trkpt lat="43.20202" lon="2.31647">
        <ele>121</ele>
        <time>2024-05-10T06:24:04Z</time>
      </trkpt>
      <trkpt lat="43.20199" lon="2.31673">
        <ele>122</ele>
        <time>2024-05-10T06:24:05Z</time>
      </trkpt>
      <trkpt lat="43.20197" lon="2.31698">
        <ele>122.9</ele>
        <time>2024-05-10T06:24:06Z</time>
      </trkpt>
      <trkpt lat="43.20196" lon="2.31723">
        <ele>123.9</ele>
        <time>2024-05-10T06:24:07Z</time>
      </trkpt>
      <trkpt lat="43.20195" lon="2.31749">
        <ele>124.9</ele>
        <time>2024-05-10T06:24:08Z</time>
      </trkpt>
      <trkpt lat="43.20194" lon="2.31775">
        <ele>125.8</ele>
        <time>2024-05-10T06:24:09Z</time>
      </trkpt>
      <trkpt lat="43.20193" lon="2.31801">
        <ele>126.6</ele>
        <time>2024-05-10T06:24:10Z</time>
      </trkpt>
      <trkpt lat="43.20192" lon="2.31826">
        <ele>126.6</ele>
        <time>2024-05-10T06:24:11Z</time>
      </trkpt>
      <trkpt lat="43.20191" lon="2.31852">
        <ele>126.7</ele>
        <time>2024-05-10T06:24:12Z</time>
      </trkpt>
      <trkpt lat="43.2019" lon="2.31876">
        <ele>125.7</ele>
        <time>2024-05-10T06:24:13Z</time>
      </trkpt>
      <trkpt lat="43.2019" lon="2.31898">
        <ele>124.3</ele>
        <time>2024-05-10T06:24:14Z</time>
      </trkpt>
      <trkpt lat="43.2019" lon="2.31916">
        <ele>123.2</ele>
        <time>2024-05-10T06:24:15Z</time>
      </trkpt>
      <trkpt lat="43.20189" lon="2.31933">
        <ele>124.7</ele>
        <time>2024-05-10T06:24:16Z</time>
      </trkpt>
      <trkpt lat="43.20189" lon="2.31952">
        <ele>126.7</ele>
        <time>2024-05-10T06:24:17Z</time>
      </trkpt>
      <trkpt lat="43.20188" lon="2.31972">
        <ele>129</ele>
        <time>2024-05-10T06:24:18Z</time>
      </trkpt>
      <trkpt lat="43.20187" lon="2.31995">
        <ele>129.1</ele>
        <time>2024-05-10T06:24:19Z</time>
      </trkpt>
      <trkpt lat="43.20186" lon="2.32019">
        <ele>129.5</ele>
        <time>2024-05-10T06:24:20Z</time>
      </trkpt>
      <trkpt lat="43.20186" lon="2.32044">
        <ele>130.5</ele>
        <time>2024-05-10T06:24:21Z</time>
      </trkpt>
      <trkpt lat="43.20184" lon="2.32072">
        <ele>131.4</ele>
        <time>2024-05-10T06:24:22Z</time>
      </trkpt>
      <trkpt lat="43.20183" lon="2.321">
        <ele>132.3</ele>
        <time>2024-05-10T06:24:23Z</time>
      </trkpt>
      <trkpt lat="43.20181" lon="2.32127">
        <ele>134.1</ele>
        <time>2024-05-10T06:24:24Z</time>
      </trkpt>
      <trkpt lat="43.20178" lon="2.32154">
        <ele>135.8</ele>
        <time>2024-05-10T06:24:25Z</time>
      </trkpt>
      <trkpt lat="43.20173" lon="2.32183">
        <ele>136.4</ele>
        <time>2024-05-10T06:24:26Z</time>
      </trkpt>
      <trkpt lat="43.20168" lon="2.32211">
        <ele>136.1</ele>
        <time>2024-05-10T06:24:27Z</time>
      </trkpt>
      <trkpt lat="43.20162" lon="2.32239">
        <ele>136.9</ele>
        <time>2024-05-10T06:24:28Z</time>
      </trkpt>
      <trkpt lat="43.20155" lon="2.32266">
        <ele>138.5</ele>
        <time>2024-05-10T06:24:29Z</time>
      </trkpt>
      <trkpt lat="43.20147" lon="2.32293">
        <ele>137.4</ele>
        <time>2024-05-10T06:24:30Z</time>
      </trkpt>
      <trkpt lat="43.20137" lon="2.32319">
        <ele>135.9</ele>
        <time>2024-05-10T06:24:31Z</time>
      </trkpt>
      <trkpt lat="43.20127" lon="2.32343">
        <ele>137.6</ele>
        <time>2024-05-10T06:24:32Z</time>
      </trkpt>
      <trkpt lat="43.20117" lon="2.32368">
        <ele>135.1</ele>
        <time>2024-05-10T06:24:33Z</time>
      </trkpt>
      <trkpt lat="43.20107" lon="2.32391">
        <ele>134.2</ele>
        <time>2024-05-10T06:24:34Z</time>
      </trkpt>
      <trkpt lat="43.20097" lon="2.32414">
        <ele>135.1</ele>
        <time>2024-05-10T06:24:35Z</time>
      </trkpt>
      <trkpt lat="43.20088" lon="2.32436">
        <ele>132.6</ele>
        <time>2024-05-10T06:24:36Z</time>
      </trkpt>
      <trkpt lat="43.20078" lon="2.32458">
        <ele>132.4</ele>
        <time>2024-05-10T06:24:37Z</time>
      </trkpt>
      <trkpt lat="43.20069" lon="2.3248">
        <ele>131.9</ele>
        <time>2024-05-10T06:24:38Z</time>
      </trkpt>
      <trkpt lat="43.2006" lon="2.32499">
        <ele>129.6</ele>
        <time>2024-05-10T06:24:39Z</time>
      </trkpt>
      <trkpt lat="43.20052" lon="2.32517">
        <ele>129</ele>
        <time>2024-05-10T06:24:40Z</time>
      </trkpt>
      <trkpt lat="43.20044" lon="2.32533">
        <ele>128.9</ele>
        <time>2024-05-10T06:24:41Z</time>
      </trkpt>
      <trkpt lat="43.20037" lon="2.32547">
        <ele>127.7</ele>
        <time>2024-05-10T06:24:42Z</time>
      </trkpt>
      <trkpt lat="43.2003" lon="2.32559">
        <ele>125.9</ele>
        <time>2024-05-10T06:24:43Z</time>
      </trkpt>
      <trkpt lat="43.20024" lon="2.3257">
        <ele>125.5</ele>
        <time>2024-05-10T06:24:44Z</time>
      </trkpt>
      <trkpt lat="43.20017" lon="2.32581">
        <ele>124.8</ele>
        <time>2024-05-10T06:24:45Z</time>
      </trkpt>
      <trkpt lat="43.2001" lon="2.32592">
        <ele>124</ele>
        <time>2024-05-10T06:24:46Z</time>
      </trkpt>
      <trkpt lat="43.20004" lon="2.32602">
        <ele>123.1</ele>
        <time>2024-05-10T06:24:47Z</time>
      </trkpt>
      <trkpt lat="43.19998" lon="2.3261">
        <ele>122.3</ele>
        <time>2024-05-10T06:24:48Z</time>
      </trkpt>
      <trkpt lat="43.19993" lon="2.32618">
        <ele>122.3</ele>
        <time>2024-05-10T06:24:49Z</time>
      </trkpt>
      <trkpt lat="43.19987" lon="2.32625">
        <ele>122</ele>
        <time>2024-05-10T06:24:50Z</time>
      </trkpt>
      <trkpt lat="43.19982" lon="2.32632">
        <ele>121.2</ele>
        <time>2024-05-10T06:24:51Z</time>
      </trkpt>
      <trkpt lat="43.19978" lon="2.32638">
        <ele>120.3</ele>
        <time>2024-05-10T06:24:52Z</time>
      </trkpt>
      <trkpt lat="43.19974" lon="2.32643">
        <ele>120.1</ele>
        <time>2024-05-10T06:24:53Z</time>
      </trkpt>
      <trkpt lat="43.1997" lon="2.32647">
        <ele>120.3</ele>
        <time>2024-05-10T06:24:54Z</time>
      </trkpt>
      <trkpt lat="43.19967" lon="2.32651">
        <ele>120.4</ele>
        <time>2024-05-10T06:24:55Z</time>
      </trkpt>
      <trkpt lat="43.19965" lon="2.32654">
        <ele>120.5</ele>
        <time>2024-05-10T06:24:56Z</time>
      </trkpt>
      <trkpt lat="43.19962" lon="2.32656">
        <ele>120.5</ele>
        <time>2024-05-10T06:24:57Z</time>
      </trkpt>
      <trkpt lat="43.1996" lon="2.32658">
        <ele>120.4</ele>
        <time>2024-05-10T06:24:58Z</time>
      </trkpt>
      <trkpt lat="43.19958" lon="2.3266">
        <ele>120.2</ele>
        <time>2024-05-10T06:24:59Z</time>
      </trkpt>
      <trkpt lat="43.19956" lon="2.32663">
        <ele>119.9</ele>
        <time>2024-05-10T06:25:00Z</time>
      </trkpt>
      <trkpt lat="43.19954" lon="2.32665">
        <ele>119.6</ele>
        <time>2024-05-10T06:25:01Z</time>
      </trkpt>
      <trkpt lat="43.19952" lon="2.32667">
        <ele>119.3</ele>
        <time>2024-05-10T06:25:02Z</time>
      </trkpt>
      <trkpt lat="43.19951" lon="2.32669">
        <ele>119.2</ele>
        <time>2024-05-10T06:25:03Z</time>
      </trkpt>
      <trkpt lat="43.19951" lon="2.32669">
        <ele>119.2</ele>
        <time>2024-05-10T06:25:04Z</time>
      </trkpt>
      <trkpt lat="43.19951" lon="2.32669">
        <ele>119.2</ele>
        <time>2024-05-10T06:25:05Z</time>
      </trkpt>
      <trkpt lat="43.19951" lon="2.32669">
        <ele>119.2</ele>
        <time>2024-05-10T06:25:06Z</time>
      </trkpt>
      <trkpt lat="43.19951" lon="2.32669">
        <ele>119.2</ele>
        <time>2024-05-10T06:25:07Z</time>
      </trkpt>
      <trkpt lat="43.19951" lon="2.32669">
        <ele>119.2</ele>
        <time>2024-05-10T06:25:08Z</time>
      </trkpt>
      <trkpt lat="43.19951" lon="2.32669">
        <ele>119.2</ele>
        <time>2024-05-10T06:25:09Z</time>
      </trkpt>
      <trkpt lat="43.19951" lon="2.32669">
        <ele>119.2</ele>
        <time>2024-05-10T06:25:10Z</time>
      </trkpt>
      <trkpt lat="43.19951" lon="2.32669">
        <ele>119.2</ele>
        <time>2024-05-10T06:25:11Z</time>
      </trkpt>
      <trkpt lat="43.19951" lon="2.32668">
        <ele>119.2</ele>
        <time>2024-05-10T06:25:12Z</time>
      </trkpt>
      <trkpt lat="43.19951" lon="2.32668">
        <ele>119.2</ele>
        <time>2024-05-10T06:25:13Z</time>
      </trkpt>
      <trkpt lat="43.19951" lon="2.32668">
        <ele>119.2</ele>
        <time>2024-05-10T06:25:14Z</time>
      </trkpt>
      <trkpt lat="43.19951" lon="2.32668">
        <ele>119.2</ele>
        <time>2024-05-10T06:25:15Z</time>
      </trkpt>
      <trkpt lat="43.19951" lon="2.32668">
        <ele>119.2</ele>
        <time>2024-05-10T06:25:16Z</time>
      </trkpt>
      <trkpt lat="43.19951" lon="2.32668">
        <ele>119.2</ele>
        <time>2024-05-10T06:25:17Z</time>
      </trkpt>
      <trkpt lat="43.19951" lon="2.32668">
        <ele>119.2</ele>
        <time>2024-05-10T06:25:18Z</time>
      </trkpt>
      <trkpt lat="43.19951" lon="2.32668">
        <ele>119.2</ele>
        <time>2024-05-10T06:25:19Z</time>
      </trkpt>
      <trkpt lat="43.19951" lon="2.32668">
        <ele>119.2</ele>
        <time>2024-05-10T06:25:20Z</time>
      </trkpt>
      <trkpt lat="43.19951" lon="2.32668">
        <ele>119.2</ele>
        <time>2024-05-10T06:25:21Z</time>
      </trkpt>
      <trkpt lat="43.19951" lon="2.32668">
        <ele>119.2</ele>
        <time>2024-05-10T06:25:22Z</time>
      </trkpt>
      <trkpt lat="43.19951" lon="2.32668">
        <ele>119.2</ele>
        <time>2024-05-10T06:25:23Z</time>
      </trkpt>
      <trkpt lat="43.19951" lon="2.32668">
        <ele>119.2</ele>
        <time>2024-05-10T06:25:24Z</time>
      </trkpt>
      <trkpt lat="43.19951" lon="2.32668">
        <ele>119.2</ele>
        <time>2024-05-10T06:25:25Z</time>
      </trkpt>
      <trkpt lat="43.19951" lon="2.32668">
        <ele>119.2</ele>
        <time>2024-05-10T06:25:26Z</time>
      </trkpt>
      <trkpt lat="43.19951" lon="2.32668">
        <ele>119.2</ele>
        <time>2024-05-10T06:25:27Z</time>
      </trkpt>
      <trkpt lat="43.19951" lon="2.32668">
        <ele>119.2</ele>
        <time>2024-05-10T06:25:28Z</time>
      </trkpt>
      <trkpt lat="43.19951" lon="2.32668">
        <ele>119.2</ele>
        <time>2024-05-10T06:25:29Z</time>
      </trkpt>
      <trkpt lat="43.19951" lon="2.32668">
        <ele>119.2</ele>
        <time>2024-05-10T06:25:30Z</time>
      </trkpt>
      <trkpt lat="43.19951" lon="2.32668">
        <ele>119.2</ele>
        <time>2024-05-10T06:25:31Z</time>
      </trkpt>
      <trkpt lat="43.19951" lon="2.32668">
        <ele>119.2</ele>
        <time>2024-05-10T06:25:32Z</time>
      </trkpt>
      <trkpt lat="43.19951" lon="2.32668">
        <ele>119.2</ele>
        <time>2024-05-10T06:25:33Z</time>
      </trkpt>
      <trkpt lat="43.19951" lon="2.32668">
        <ele>119.2</ele>
        <time>2024-05-10T06:25:34Z</time>
      </trkpt>
      <trkpt lat="43.19951" lon="2.32668">
        <ele>119.2</ele>
        <time>2024-05-10T06:25:35Z</time>
      </trkpt>
      <trkpt lat="43.19951" lon="2.32668">
        <ele>119.2</ele>
        <time>2024-05-10T06:25:36Z</time>
      </trkpt>
      <trkpt lat="43.19951" lon="2.32668">
        <ele>119.2</ele>
        <time>2024-05-10T06:25:37Z</time>
      </trkpt>
      <trkpt lat="43.19951" lon="2.32669">
        <ele>119.2</ele>
        <time>2024-05-10T06:25:38Z</time>
      </trkpt>
      <trkpt lat="43.1995" lon="2.3267">
        <ele>119.2</ele>
        <time>2024-05-10T06:25:39Z</time>
      </trkpt>
      <trkpt lat="43.19948" lon="2.32672">
        <ele>119.1</ele>
        <time>2024-05-10T06:25:40Z</time>
      </trkpt>
      <trkpt lat="43.19942" lon="2.32679">
        <ele>119.1</ele>
        <time>2024-05-10T06:25:41Z</time>
      </trkpt>
      <trkpt lat="43.19939" lon="2.32686">
        <ele>119.1</ele>
        <time>2024-05-10T06:25:42Z</time>
      </trkpt>
      <trkpt lat="43.19936" lon="2.32693">
        <ele>119</ele>
        <time>2024-05-10T06:25:43Z</time>
      </trkpt>
      <trkpt lat="43.19933" lon="2.327">
        <ele>118.8</ele>
        <time>2024-05-10T06:25:44Z</time>
      </trkpt>
      <trkpt lat="43.19931" lon="2.32709">
        <ele>118.5</ele>
        <time>2024-05-10T06:25:45Z</time>
      </trkpt>
      <trkpt lat="43.1993" lon="2.32717">
        <ele>118.2</ele>
        <time>2024-05-10T06:25:46Z</time>
      </trkpt>
      <trkpt lat="43.19932" lon="2.32726">
        <ele>117.9</ele>
        <time>2024-05-10T06:25:47Z</time>
      </trkpt>
      <trkpt lat="43.19936" lon="2.32734">
        <ele>117.6</ele>
        <time>2024-05-10T06:25:48Z</time>
      </trkpt>
      <trkpt lat="43.19943" lon="2.32743">
        <ele>117.3</ele>
        <time>2024-05-10T06:25:49Z</time>
      </trkpt>
      <trkpt lat="43.19949" lon="2.32752">
        <ele>116.8</ele>
        <time>2024-05-10T06:25:50Z</time>
      </trkpt>
      <trkpt lat="43.19955" lon="2.3276">
        <ele>116.6</ele>
        <time>2024-05-10T06:25:51Z</time>
      </trkpt>
      <trkpt lat="43.19961" lon="2.32767">
        <ele>116.4</ele>
        <time>2024-05-10T06:25:52Z</time>
      </trkpt>
      <trkpt lat="43.19966" lon="2.32775">
        <ele>116.2</ele>
        <time>2024-05-10T06:25:53Z</time>
      </trkpt>
      <trkpt lat="43.19971" lon="2.32782">
        <ele>116</ele>
        <time>2024-05-10T06:25:54Z</time>
      </trkpt>
      <trkpt lat="43.19977" lon="2.32789">
        <ele>116.1</ele>
        <time>2024-05-10T06:25:55Z</time>
      </trkpt>
      <trkpt lat="43.19983" lon="2.32798">
        <ele>116.1</ele>
        <time>2024-05-10T06:25:56Z</time>
      </trkpt>
      <trkpt lat="43.1999" lon="2.32807">
        <ele>116</ele>
        <time>2024-05-10T06:25:57Z</time>
      </trkpt>
      <trkpt lat="43.19998" lon="2.32816">
        <ele>115.7</ele>
        <time>2024-05-10T06:25:58Z</time>
      </trkpt>
      <trkpt lat="43.20005" lon="2.32826">
        <ele>115.3</ele>
        <time>2024-05-10T06:25:59Z</time>
      </trkpt>
      <trkpt lat="43.20012" lon="2.32835">
        <ele>115</ele>
        <time>2024-05-10T06:26:00Z</time>
      </trkpt>
      <trkpt lat="43.20019" lon="2.32844">
        <ele>114.7</ele>
        <time>2024-05-10T06:26:01Z</time>
      </trkpt>
      <trkpt lat="43.20026" lon="2.32852">
        <ele>114.4</ele>
        <time>2024-05-10T06:26:02Z</time>
      </trkpt>
      <trkpt lat="43.20032" lon="2.3286">
        <ele>114.2</ele>
        <time>2024-05-10T06:26:03Z</time>
      </trkpt>
      <trkpt lat="43.20038" lon="2.32868">
        <ele>114.4</ele>
        <time>2024-05-10T06:26:04Z</time>
      </trkpt>
      <trkpt lat="43.20045" lon="2.32877">
        <ele>114.5</ele>
        <time>2024-05-10T06:26:05Z</time>
      </trkpt>
      <trkpt lat="43.20052" lon="2.32885">
        <ele>114.2</ele>
        <time>2024-05-10T06:26:06Z</time>
      </trkpt>
      <trkpt lat="43.20061" lon="2.32893">
        <ele>113.7</ele>
        <time>2024-05-10T06:26:07Z</time>
      </trkpt>
      <trkpt lat="43.20069" lon="2.329">
        <ele>113.4</ele>
        <time>2024-05-10T06:26:08Z</time>
      </trkpt>
      <trkpt lat="43.20078" lon="2.32907">
        <ele>113.2</ele>
        <time>2024-05-10T06:26:09Z</time>
      </trkpt>
      <trkpt lat="43.20086" lon="2.32912">
        <ele>113.3</ele>
        <time>2024-05-10T06:26:10Z</time>
      </trkpt>
      <trkpt lat="43.20093" lon="2.32917">
        <ele>113.3</ele>
        <time>2024-05-10T06:26:11Z</time>
      </trkpt>
      <trkpt lat="43.20101" lon="2.32923">
        <ele>113</ele>
        <time>2024-05-10T06:26:12Z</time>
      </trkpt>
      <trkpt lat="43.2011" lon="2.32929">
        <ele>113</ele>
        <time>2024-05-10T06:26:13Z</time>
      </trkpt>
      <trkpt lat="43.20118" lon="2.32935">
        <ele>112.8</ele>
        <time>2024-05-10T06:26:14Z</time>
      </trkpt>
      <trkpt lat="43.20126" lon="2.3294">
        <ele>112.8</ele>
        <time>2024-05-10T06:26:15Z</time>
      </trkpt>
      <trkpt lat="43.20134" lon="2.32946">
        <ele>112.7</ele>
        <time>2024-05-10T06:26:16Z</time>
      </trkpt>
      <trkpt lat="43.20141" lon="2.32951">
        <ele>112.8</ele>
        <time>2024-05-10T06:26:17Z</time>
      </trkpt>
      <trkpt lat="43.20146" lon="2.32954">
        <ele>112.9</ele>
        <time>2024-05-10T06:26:18Z</time>
      </trkpt>
      <trkpt lat="43.2015" lon="2.32958">
        <ele>112.9</ele>
        <time>2024-05-10T06:26:19Z</time>
      </trkpt>
      <trkpt lat="43.20155" lon="2.32962">
        <ele>112.9</ele>
        <time>2024-05-10T06:26:20Z</time>
      </trkpt>
      <trkpt lat="43.2016" lon="2.32965">
        <ele>113</ele>
        <time>2024-05-10T06:26:21Z</time>
      </trkpt>
      <trkpt lat="43.20165" lon="2.32969">
        <ele>113.1</ele>
        <time>2024-05-10T06:26:22Z</time>
      </trkpt>
      <trkpt lat="43.20172" lon="2.32974">
        <ele>113.1</ele>
        <time>2024-05-10T06:26:23Z</time>
      </trkpt>
      <trkpt lat="43.20179" lon="2.32981">
        <ele>113.1</ele>
        <time>2024-05-10T06:26:24Z</time>
      </trkpt>
      <trkpt lat="43.20187" lon="2.32989">
        <ele>113.1</ele>
        <time>2024-05-10T06:26:25Z</time>
      </trkpt>
      <trkpt lat="43.20196" lon="2.32998">
        <ele>113.1</ele>
        <time>2024-05-10T06:26:26Z</time>
      </trkpt>
      <trkpt lat="43.20205" lon="2.33008">
        <ele>113.1</ele>
        <time>2024-05-10T06:26:27Z</time>
      </trkpt>
      <trkpt lat="43.20214" lon="2.33017">
        <ele>113.1</ele>
        <time>2024-05-10T06:26:28Z</time>
      </trkpt>
      <trkpt lat="43.20223" lon="2.33026">
        <ele>113.1</ele>
        <time>2024-05-10T06:26:29Z</time>
      </trkpt>
      <trkpt lat="43.20232" lon="2.33036">
        <ele>112.9</ele>
        <time>2024-05-10T06:26:30Z</time>
      </trkpt>
      <trkpt lat="43.20242" lon="2.33047">
        <ele>112.8</ele>
        <time>2024-05-10T06:26:31Z</time>
      </trkpt>
      <trkpt lat="43.20252" lon="2.33058">
        <ele>112.9</ele>
        <time>2024-05-10T06:26:32Z</time>
      </trkpt>
      <trkpt lat="43.20263" lon="2.3307">
        <ele>112.7</ele>
        <time>2024-05-10T06:26:33Z</time>
      </trkpt>
      <trkpt lat="43.20273" lon="2.33081">
        <ele>112.8</ele>
        <time>2024-05-10T06:26:34Z</time>
      </trkpt>
      <trkpt lat="43.20284" lon="2.33093">
        <ele>112.5</ele>
        <time>2024-05-10T06:26:35Z</time>
      </trkpt>
      <trkpt lat="43.20294" lon="2.33105">
        <ele>112.4</ele>
        <time>2024-05-10T06:26:36Z</time>
      </trkpt>
      <trkpt lat="43.20305" lon="2.33117">
        <ele>112.8</ele>
        <time>2024-05-10T06:26:37Z</time>
      </trkpt>
      <trkpt lat="43.20315" lon="2.33128">
        <ele>112.6</ele>
        <time>2024-05-10T06:26:38Z</time>
      </trkpt>
      <trkpt lat="43.20325" lon="2.33138">
        <ele>112.7</ele>
        <time>2024-05-10T06:26:39Z</time>
      </trkpt>
      <trkpt lat="43.20334" lon="2.33148">
        <ele>112.7</ele>
        <time>2024-05-10T06:26:40Z</time>
      </trkpt>
      <trkpt lat="43.20343" lon="2.33158">
        <ele>112.6</ele>
        <time>2024-05-10T06:26:41Z</time>
      </trkpt>
      <trkpt lat="43.20353" lon="2.33169">
        <ele>112.6</ele>
        <time>2024-05-10T06:26:42Z</time>
      </trkpt>
      <trkpt lat="43.20362" lon="2.3318">
        <ele>112.5</ele>
        <time>2024-05-10T06:26:43Z</time>
      </trkpt>
      <trkpt lat="43.20371" lon="2.33191">
        <ele>112.4</ele>
        <time>2024-05-10T06:26:44Z</time>
      </trkpt>
      <trkpt lat="43.2038" lon="2.33201">
        <ele>112.4</ele>
        <time>2024-05-10T06:26:45Z</time>
      </trkpt>
      <trkpt lat="43.20388" lon="2.3321">
        <ele>112.4</ele>
        <time>2024-05-10T06:26:46Z</time>
      </trkpt>
      <trkpt lat="43.20395" lon="2.33219">
        <ele>112.3</ele>
        <time>2024-05-10T06:26:47Z</time>
      </trkpt>
      <trkpt lat="43.20403" lon="2.33226">
        <ele>112.4</ele>
        <time>2024-05-10T06:26:48Z</time>
      </trkpt>
      <trkpt lat="43.2041" lon="2.33233">
        <ele>112.4</ele>
        <time>2024-05-10T06:26:49Z</time>
      </trkpt>
      <trkpt lat="43.20417" lon="2.3324">
        <ele>112.4</ele>
        <time>2024-05-10T06:26:50Z</time>
      </trkpt>
      <trkpt lat="43.20424" lon="2.33249">
        <ele>112.3</ele>
        <time>2024-05-10T06:26:51Z</time>
      </trkpt>
      <trkpt lat="43.2043" lon="2.33257">
        <ele>112.3</ele>
        <time>2024-05-10T06:26:52Z</time>
      </trkpt>
      <trkpt lat="43.20434" lon="2.33263">
        <ele>112.4</ele>
        <time>2024-05-10T06:26:53Z</time>
      </trkpt>
      <trkpt lat="43.20436" lon="2.33268">
        <ele>112.5</ele>
        <time>2024-05-10T06:26:54Z</time>
      </trkpt>
      <trkpt lat="43.20437" lon="2.33269">
        <ele>112.5</ele>
        <time>2024-05-10T06:26:55Z</time>
      </trkpt>
      <trkpt lat="43.20437" lon="2.3327">
        <ele>112.5</ele>
        <time>2024-05-10T06:26:56Z</time>
      </trkpt>
      <trkpt lat="43.20438" lon="2.33271">
        <ele>112.6</ele>
        <time>2024-05-10T06:26:57Z</time>
      </trkpt>
      <trkpt lat="43.20438" lon="2.33272">
        <ele>112.6</ele>
        <time>2024-05-10T06:26:58Z</time>
      </trkpt>
      <trkpt lat="43.20438" lon="2.33273">
        <ele>112.6</ele>
        <time>2024-05-10T06:26:59Z</time>
      </trkpt>
      <trkpt lat="43.20438" lon="2.33273">
        <ele>112.6</ele>
        <time>2024-05-10T06:27:00Z</time>
      </trkpt>
      <trkpt lat="43.20439" lon="2.33273">
        <ele>112.6</ele>
        <time>2024-05-10T06:27:01Z</time>
      </trkpt>
      <trkpt lat="43.20439" lon="2.33273">
        <ele>112.6</ele>
        <time>2024-05-10T06:27:02Z</time>
      </trkpt>
      <trkpt lat="43.2044" lon="2.33276">
        <ele>112.7</ele>
        <time>2024-05-10T06:27:03Z</time>
      </trkpt>
      <trkpt lat="43.2044" lon="2.33283">
        <ele>112.6</ele>
        <time>2024-05-10T06:27:04Z</time>
      </trkpt>
      <trkpt lat="43.20441" lon="2.33293">
        <ele>112.7</ele>
        <time>2024-05-10T06:27:05Z</time>
      </trkpt>
      <trkpt lat="43.20439" lon="2.33304">
        <ele>112.4</ele>
        <time>2024-05-10T06:27:06Z</time>
      </trkpt>
      <trkpt lat="43.20436" lon="2.33316">
        <ele>111.9</ele>
        <time>2024-05-10T06:27:07Z</time>
      </trkpt>
      <trkpt lat="43.20431" lon="2.33329">
        <ele>111.5</ele>
        <time>2024-05-10T06:27:08Z</time>
      </trkpt>
      <trkpt lat="43.20423" lon="2.33343">
        <ele>111.3</ele>
        <time>2024-05-10T06:27:09Z</time>
      </trkpt>
      <trkpt lat="43.20413" lon="2.33355">
        <ele>111.3</ele>
        <time>2024-05-10T06:27:10Z</time>
      </trkpt>
      <trkpt lat="43.20402" lon="2.33367">
        <ele>109.5</ele>
        <time>2024-05-10T06:27:11Z</time>
      </trkpt>
      <trkpt lat="43.20391" lon="2.3338">
        <ele>108.1</ele>
        <time>2024-05-10T06:27:12Z</time>
      </trkpt>
      <trkpt lat="43.20378" lon="2.33394">
        <ele>106.5</ele>
        <time>2024-05-10T06:27:13Z</time>
      </trkpt>
      <trkpt lat="43.20366" lon="2.33409">
        <ele>104.7</ele>
        <time>2024-05-10T06:27:14Z</time>
      </trkpt>
      <trkpt lat="43.20353" lon="2.33423">
        <ele>105</ele>
        <time>2024-05-10T06:27:15Z</time>
      </trkpt>
      <trkpt lat="43.20342" lon="2.33437">
        <ele>106.3</ele>
        <time>2024-05-10T06:27:16Z</time>
      </trkpt>
      <trkpt lat="43.2033" lon="2.33451">
        <ele>107.2</ele>
        <time>2024-05-10T06:27:17Z</time>
      </trkpt>
      <trkpt lat="43.20317" lon="2.33465">
        <ele>109.3</ele>
        <time>2024-05-10T06:27:18Z</time>
      </trkpt>
      <trkpt lat="43.20304" lon="2.33479">
        <ele>111.2</ele>
        <time>2024-05-10T06:27:19Z</time>
      </trkpt>
      <trkpt lat="43.2029" lon="2.33495">
        <ele>110.6</ele>
        <time>2024-05-10T06:27:20Z</time>
      </trkpt>
      <trkpt lat="43.20275" lon="2.33512">
        <ele>111</ele>
        <time>2024-05-10T06:27:21Z</time>
      </trkpt>
      <trkpt lat="43.2026" lon="2.3353">
        <ele>110.6</ele>
        <time>2024-05-10T06:27:22Z</time>
      </trkpt>
      <trkpt lat="43.20245" lon="2.33547">
        <ele>110.6</ele>
        <time>2024-05-10T06:27:23Z</time>
      </trkpt>
      <trkpt lat="43.20231" lon="2.33564">
        <ele>109.8</ele>
        <time>2024-05-10T06:27:24Z</time>
      </trkpt>
      <trkpt lat="43.20216" lon="2.33581">
        <ele>110.6</ele>
        <time>2024-05-10T06:27:25Z</time>
      </trkpt>
      <trkpt lat="43.202" lon="2.33598">
        <ele>110.7</ele>
        <time>2024-05-10T06:27:26Z</time>
      </trkpt>
      <trkpt lat="43.20184" lon="2.33614">
        <ele>111.4</ele>
        <time>2024-05-10T06:27:27Z</time>
      </trkpt>
      <trkpt lat="43.20167" lon="2.3363">
        <ele>112.3</ele>
        <time>2024-05-10T06:27:28Z</time>
      </trkpt>
      <trkpt lat="43.2015" lon="2.33644">
        <ele>111.4</ele>
        <time>2024-05-10T06:27:29Z</time>
      </trkpt>
      <trkpt lat="43.20133" lon="2.33657">
        <ele>111.1</ele>
        <time>2024-05-10T06:27:30Z</time>
      </trkpt>
      <trkpt lat="43.20115" lon="2.3367">
        <ele>112.3</ele>
        <time>2024-05-10T06:27:31Z</time>
      </trkpt>
      <trkpt lat="43.20098" lon="2.3368">
        <ele>110.5</ele>
        <time>2024-05-10T06:27:32Z</time>
      </trkpt>
      <trkpt lat="43.20083" lon="2.33689">
        <ele>111.2</ele>
        <time>2024-05-10T06:27:33Z</time>
      </trkpt>
      <trkpt lat="43.2007" lon="2.33695">
        <ele>112.4</ele>
        <time>2024-05-10T06:27:34Z</time>
      </trkpt>
      <trkpt lat="43.20058" lon="2.337">
        <ele>112.3</ele>
        <time>2024-05-10T06:27:35Z</time>
      </trkpt>
      <trkpt lat="43.20046" lon="2.33705">
        <ele>111.5</ele>
        <time>2024-05-10T06:27:36Z</time>
      </trkpt>
      <trkpt lat="43.20037" lon="2.33708">
        <ele>111.2</ele>
        <time>2024-05-10T06:27:37Z</time>
      </trkpt>
      <trkpt lat="43.20028" lon="2.33711">
        <ele>111.2</ele>
        <time>2024-05-10T06:27:38Z</time>
      </trkpt>
      <trkpt lat="43.20022" lon="2.33712">
        <ele>111.7</ele>
        <time>2024-05-10T06:27:39Z</time>
      </trkpt>
      <trkpt lat="43.20017" lon="2.33713">
        <ele>112.2</ele>
        <time>2024-05-10T06:27:40Z</time>
      </trkpt>
      <trkpt lat="43.20013" lon="2.33715">
        <ele>112.8</ele>
        <time>2024-05-10T06:27:41Z</time>
      </trkpt>
      <trkpt lat="43.20009" lon="2.33715">
        <ele>113.2</ele>
        <time>2024-05-10T06:27:42Z</time>
      </trkpt>
      <trkpt lat="43.20005" lon="2.33715">
        <ele>113.5</ele>
        <time>2024-05-10T06:27:43Z</time>
      </trkpt>
      <trkpt lat="43.20003" lon="2.33715">
        <ele>113.7</ele>
        <time>2024-05-10T06:27:44Z</time>
      </trkpt>
      <trkpt lat="43.20003" lon="2.33715">
        <ele>113.7</ele>
        <time>2024-05-10T06:27:45Z</time>
      </trkpt>
      <trkpt lat="43.20002" lon="2.33715">
        <ele>113.8</ele>
        <time>2024-05-10T06:27:46Z</time>
      </trkpt>
      <trkpt lat="43.20003" lon="2.33716">
        <ele>113.8</ele>
        <time>2024-05-10T06:27:47Z</time>
      </trkpt>
      <trkpt lat="43.20002" lon="2.33716">
        <ele>113.9</ele>
        <time>2024-05-10T06:27:48Z</time>
      </trkpt>
      <trkpt lat="43.20002" lon="2.33716">
        <ele>113.9</ele>
        <time>2024-05-10T06:27:49Z</time>
      </trkpt>
      <trkpt lat="43.19997" lon="2.33715">
        <ele>114</ele>
        <time>2024-05-10T06:27:50Z</time>
      </trkpt>
      <trkpt lat="43.1999" lon="2.33715">
        <ele>114</ele>
        <time>2024-05-10T06:27:51Z</time>
      </trkpt>
      <trkpt lat="43.19981" lon="2.33718">
        <ele>114.4</ele>
        <time>2024-05-10T06:27:52Z</time>
      </trkpt>
      <trkpt lat="43.19971" lon="2.33722">
        <ele>114.9</ele>
        <time>2024-05-10T06:27:53Z</time>
      </trkpt>
      <trkpt lat="43.19958" lon="2.33725">
        <ele>115</ele>
        <time>2024-05-10T06:27:54Z</time>
      </trkpt>
      <trkpt lat="43.19944" lon="2.33726">
        <ele>114.8</ele>
        <time>2024-05-10T06:27:55Z</time>
      </trkpt>
      <trkpt lat="43.19929" lon="2.33728">
        <ele>114.7</ele>
        <time>2024-05-10T06:27:56Z</time>
      </trkpt>
      <trkpt lat="43.19912" lon="2.33729">
        <ele>114.4</ele>
        <time>2024-05-10T06:27:57Z</time>
      </trkpt>
      <trkpt lat="43.19895" lon="2.33731">
        <ele>114.6</ele>
        <time>2024-05-10T06:27:58Z</time>
      </trkpt>
      <trkpt lat="43.19875" lon="2.33732">
        <ele>114.9</ele>
        <time>2024-05-10T06:27:59Z</time>
      </trkpt>
      <trkpt lat="43.19855" lon="2.33733">
        <ele>115.5</ele>
        <time>2024-05-10T06:28:00Z</time>
      </trkpt>
      <trkpt lat="43.19834" lon="2.33733">
        <ele>115.9</ele>
        <time>2024-05-10T06:28:01Z</time>
      </trkpt>
      <trkpt lat="43.19812" lon="2.33731">
        <ele>117.2</ele>
        <time>2024-05-10T06:28:02Z</time>
      </trkpt>
      <trkpt lat="43.19791" lon="2.33729">
        <ele>117.3</ele>
        <time>2024-05-10T06:28:03Z</time>
      </trkpt>
      <trkpt lat="43.1977" lon="2.33725">
        <ele>117.1</ele>
        <time>2024-05-10T06:28:04Z</time>
      </trkpt>
      <trkpt lat="43.19749" lon="2.33719">
        <ele>117.5</ele>
        <time>2024-05-10T06:28:05Z</time>
      </trkpt>
      <trkpt lat="43.19729" lon="2.3371">
        <ele>117.6</ele>
        <time>2024-05-10T06:28:06Z</time>
      </trkpt>
      <trkpt lat="43.19708" lon="2.33699">
        <ele>118.4</ele>
        <time>2024-05-10T06:28:07Z</time>
      </trkpt>
      <trkpt lat="43.19688" lon="2.33687">
        <ele>119.1</ele>
        <time>2024-05-10T06:28:08Z</time>
      </trkpt>
      <trkpt lat="43.19666" lon="2.33676">
        <ele>121.1</ele>
        <time>2024-05-10T06:28:09Z</time>
      </trkpt>
      <trkpt lat="43.19645" lon="2.33665">
        <ele>119.9</ele>
        <time>2024-05-10T06:28:10Z</time>
      </trkpt>
      <trkpt lat="43.19622" lon="2.33657">
        <ele>120.8</ele>
        <time>2024-05-10T06:28:11Z</time>
      </trkpt>
      <trkpt lat="43.19599" lon="2.33652">
        <ele>121.5</ele>
        <time>2024-05-10T06:28:12Z</time>
      </trkpt>
      <trkpt lat="43.19574" lon="2.33648">
        <ele>121.6</ele>
        <time>2024-05-10T06:28:13Z</time>
      </trkpt>
      <trkpt lat="43.19549" lon="2.33645">
        <ele>121.5</ele>
        <time>2024-05-10T06:28:14Z</time>
      </trkpt>
      <trkpt lat="43.19525" lon="2.33642">
        <ele>122.6</ele>
        <time>2024-05-10T06:28:15Z</time>
      </trkpt>
      <trkpt lat="43.19502" lon="2.33638">
        <ele>123</ele>
        <time>2024-05-10T06:28:16Z</time>
      </trkpt>
      <trkpt lat="43.19479" lon="2.33634">
        <ele>125</ele>
        <time>2024-05-10T06:28:17Z</time>
      </trkpt>
      <trkpt lat="43.19457" lon="2.33631">
        <ele>124.8</ele>
        <time>2024-05-10T06:28:18Z</time>
      </trkpt>
      <trkpt lat="43.19436" lon="2.33628">
        <ele>123.6</ele>
        <time>2024-05-10T06:28:19Z</time>
      </trkpt>
      <trkpt lat="43.19416" lon="2.33627">
        <ele>122.7</ele>
        <time>2024-05-10T06:28:20Z</time>
      </trkpt>
      <trkpt lat="43.19397" lon="2.33626">
        <ele>122</ele>
        <time>2024-05-10T06:28:21Z</time>
      </trkpt>
      <trkpt lat="43.19377" lon="2.33625">
        <ele>121.3</ele>
        <time>2024-05-10T06:28:22Z</time>
      </trkpt>
      <trkpt lat="43.19359" lon="2.33624">
        <ele>121</ele>
        <time>2024-05-10T06:28:23Z</time>
      </trkpt>
      <trkpt lat="43.19341" lon="2.33623">
        <ele>121.3</ele>
        <time>2024-05-10T06:28:24Z</time>
      </trkpt>
      <trkpt lat="43.19323" lon="2.33622">
        <ele>121.7</ele>
        <time>2024-05-10T06:28:25Z</time>
      </trkpt>
      <trkpt lat="43.19306" lon="2.33622">
        <ele>122.2</ele>
        <time>2024-05-10T06:28:26Z</time>
      </trkpt>
      <trkpt lat="43.19291" lon="2.33621">
        <ele>122.7</ele>
        <time>2024-05-10T06:28:27Z</time>
      </trkpt>
      <trkpt lat="43.19277" lon="2.3362">
        <ele>123.3</ele>
        <time>2024-05-10T06:28:28Z</time>
      </trkpt>
      <trkpt lat="43.19264" lon="2.3362">
        <ele>123.7</ele>
        <time>2024-05-10T06:28:29Z</time>
      </trkpt>
      <trkpt lat="43.19254" lon="2.33622">
        <ele>123.9</ele>
        <time>2024-05-10T06:28:30Z</time>
      </trkpt>
      <trkpt lat="43.19244" lon="2.33627">
        <ele>124.3</ele>
        <time>2024-05-10T06:28:31Z</time>
      </trkpt>
      <trkpt lat="43.19235" lon="2.33635">
        <ele>125</ele>
        <time>2024-05-10T06:28:32Z</time>
      </trkpt>
      <trkpt lat="43.19228" lon="2.33646">
        <ele>125.9</ele>
        <time>2024-05-10T06:28:33Z</time>
      </trkpt>
      <trkpt lat="43.19224" lon="2.33661">
        <ele>126.7</ele>
        <time>2024-05-10T06:28:34Z</time>
      </trkpt>
      <trkpt lat="43.19223" lon="2.33677">
        <ele>127.7</ele>
        <time>2024-05-10T06:28:35Z</time>
      </trkpt>
      <trkpt lat="43.19222" lon="2.33695">
        <ele>129</ele>
        <time>2024-05-10T06:28:36Z</time>
      </trkpt>
      <trkpt lat="43.19223" lon="2.33712">
        <ele>130.3</ele>
        <time>2024-05-10T06:28:37Z</time>
      </trkpt>
      <trkpt lat="43.19224" lon="2.3373">
        <ele>131.6</ele>
        <time>2024-05-10T06:28:38Z</time>
      </trkpt>
      <trkpt lat="43.19225" lon="2.33749">
        <ele>133.1</ele>
        <time>2024-05-10T06:28:39Z</time>
      </trkpt>
      <trkpt lat="43.19227" lon="2.33768">
        <ele>134.9</ele>
        <time>2024-05-10T06:28:40Z</time>
      </trkpt>
      <trkpt lat="43.19229" lon="2.33786">
        <ele>136.3</ele>
        <time>2024-05-10T06:28:41Z</time>
      </trkpt>
      <trkpt lat="43.19231" lon="2.33804">
        <ele>137.2</ele>
        <time>2024-05-10T06:28:42Z</time>
      </trkpt>
      <trkpt lat="43.19233" lon="2.33823">
        <ele>137.9</ele>
        <time>2024-05-10T06:28:43Z</time>
      </trkpt>
      <trkpt lat="43.19237" lon="2.33843">
        <ele>138.8</ele>
        <time>2024-05-10T06:28:44Z</time>
      </trkpt>
      <trkpt lat="43.19241" lon="2.33862">
        <ele>139.4</ele>
        <time>2024-05-10T06:28:45Z</time>
      </trkpt>
      <trkpt lat="43.19245" lon="2.33879">
        <ele>140.3</ele>
        <time>2024-05-10T06:28:46Z</time>
      </trkpt>
      <trkpt lat="43.1925" lon="2.33896">
        <ele>141.3</ele>
        <time>2024-05-10T06:28:47Z</time>
      </trkpt>
      <trkpt lat="43.19256" lon="2.33912">
        <ele>142.1</ele>
        <time>2024-05-10T06:28:48Z</time>
      </trkpt>
      <trkpt lat="43.19264" lon="2.33929">
        <ele>143.2</ele>
        <time>2024-05-10T06:28:49Z</time>
      </trkpt>
      <trkpt lat="43.19273" lon="2.33946">
        <ele>144.7</ele>
        <time>2024-05-10T06:28:50Z</time>
      </trkpt>
      <trkpt lat="43.19284" lon="2.33964">
        <ele>145.7</ele>
        <time>2024-05-10T06:28:51Z</time>
      </trkpt>
      <trkpt lat="43.19295" lon="2.33983">
        <ele>147</ele>
        <time>2024-05-10T06:28:52Z</time>
      </trkpt>
      <trkpt lat="43.19307" lon="2.34002">
        <ele>148.3</ele>
        <time>2024-05-10T06:28:53Z</time>
      </trkpt>
      <trkpt lat="43.19319" lon="2.34021">
        <ele>150.4</ele>
        <time>2024-05-10T06:28:54Z</time>
      </trkpt>
      <trkpt lat="43.1933" lon="2.34041">
        <ele>150.9</ele>
        <time>2024-05-10T06:28:55Z</time>
      </trkpt>
      <trkpt lat="43.19341" lon="2.3406">
        <ele>150.3</ele>
        <time>2024-05-10T06:28:56Z</time>
      </trkpt>
      <trkpt lat="43.19351" lon="2.34078">
        <ele>150.9</ele>
        <time>2024-05-10T06:28:57Z</time>
      </trkpt>
      <trkpt lat="43.19363" lon="2.34096">
        <ele>148.3</ele>
        <time>2024-05-10T06:28:58Z</time>
      </trkpt>
      <trkpt lat="43.19374" lon="2.34115">
        <ele>145.5</ele>
        <time>2024-05-10T06:28:59Z</time>
      </trkpt>
      <trkpt lat="43.19385" lon="2.34133">
        <ele>144.2</ele>
        <time>2024-05-10T06:29:00Z</time>
      </trkpt>
      <trkpt lat="43.19396" lon="2.34151">
        <ele>146.1</ele>
        <time>2024-05-10T06:29:01Z</time>
      </trkpt>
      <trkpt lat="43.19406" lon="2.34169">
        <ele>147.9</ele>
        <time>2024-05-10T06:29:02Z</time>
      </trkpt>
      <trkpt lat="43.19414" lon="2.34187">
        <ele>148.9</ele>
        <time>2024-05-10T06:29:03Z</time>
      </trkpt>
      <trkpt lat="43.19422" lon="2.34205">
        <ele>148.4</ele>
        <time>2024-05-10T06:29:04Z</time>
      </trkpt>
      <trkpt lat="43.19429" lon="2.34224">
        <ele>147.5</ele>
        <time>2024-05-10T06:29:05Z</time>
      </trkpt>
      <trkpt lat="43.19433" lon="2.34245">
        <ele>146.6</ele>
        <time>2024-05-10T06:29:06Z</time>
      </trkpt>
      <trkpt lat="43.19437" lon="2.34267">
        <ele>145.7</ele>
        <time>2024-05-10T06:29:07Z</time>
      </trkpt>
      <trkpt lat="43.19438" lon="2.34291">
        <ele>144.4</ele>
        <time>2024-05-10T06:29:08Z</time>
      </trkpt>
      <trkpt lat="43.19437" lon="2.34316">
        <ele>143.2</ele>
        <time>2024-05-10T06:29:09Z</time>
      </trkpt>
      <trkpt lat="43.19434" lon="2.34342">
        <ele>142.3</ele>
        <time>2024-05-10T06:29:10Z</time>
      </trkpt>
      <trkpt lat="43.19429" lon="2.34371">
        <ele>140.8</ele>
        <time>2024-05-10T06:29:11Z</time>
      </trkpt>
      <trkpt lat="43.19423" lon="2.344">
        <ele>139.1</ele>
        <time>2024-05-10T06:29:12Z</time>
      </trkpt>
      <trkpt lat="43.19417" lon="2.3443">
        <ele>138</ele>
        <time>2024-05-10T06:29:13Z</time>
      </trkpt>
      <trkpt lat="43.19411" lon="2.3446">
        <ele>138.9</ele>
        <time>2024-05-10T06:29:14Z</time>
      </trkpt>
      <trkpt lat="43.19405" lon="2.34488">
        <ele>139.2</ele>
        <time>2024-05-10T06:29:15Z</time>
      </trkpt>
      <trkpt lat="43.19399" lon="2.34516">
        <ele>138.3</ele>
        <time>2024-05-10T06:29:16Z</time>
      </trkpt>
      <trkpt lat="43.19394" lon="2.34546">
        <ele>137.2</ele>
        <time>2024-05-10T06:29:17Z</time>
      </trkpt>
      <trkpt lat="43.19389" lon="2.34575">
        <ele>137</ele>
        <time>2024-05-10T06:29:18Z</time>
      </trkpt>
      <trkpt lat="43.19385" lon="2.34603">
        <ele>137.5</ele>
        <time>2024-05-10T06:29:19Z</time>
      </trkpt>
      <trkpt lat="43.19384" lon="2.34631">
        <ele>137.4</ele>
        <time>2024-05-10T06:29:20Z</time>
      </trkpt>
      <trkpt lat="43.19384" lon="2.34657">
        <ele>137.2</ele>
        <time>2024-05-10T06:29:21Z</time>
      </trkpt>
      <trkpt lat="43.19386" lon="2.34682">
        <ele>137.5</ele>
        <time>2024-05-10T06:29:22Z</time>
      </trkpt>
      <trkpt lat="43.1939" lon="2.34707">
        <ele>137.9</ele>
        <time>2024-05-10T06:29:23Z</time>
      </trkpt>
      <trkpt lat="43.19397" lon="2.34731">
        <ele>137.3</ele>
        <time>2024-05-10T06:29:24Z</time>
      </trkpt>
      <trkpt lat="43.19405" lon="2.34754">
        <ele>137.1</ele>
        <time>2024-05-10T06:29:25Z</time>
      </trkpt>
      <trkpt lat="43.19413" lon="2.34778">
        <ele>137.9</ele>
        <time>2024-05-10T06:29:26Z</time>
      </trkpt>
      <trkpt lat="43.19421" lon="2.34803">
        <ele>138</ele>
        <time>2024-05-10T06:29:27Z</time>
      </trkpt>
      <trkpt lat="43.1943" lon="2.34828">
        <ele>138</ele>
        <time>2024-05-10T06:29:28Z</time>
      </trkpt>
      <trkpt lat="43.19439" lon="2.34854">
        <ele>137.3</ele>
        <time>2024-05-10T06:29:29Z</time>
      </trkpt>
      <trkpt lat="43.19448" lon="2.34881">
        <ele>136.2</ele>
        <time>2024-05-10T06:29:30Z</time>
      </trkpt>
      <trkpt lat="43.19457" lon="2.34908">
        <ele>135.2</ele>
        <time>2024-05-10T06:29:31Z</time>
      </trkpt>
      <trkpt lat="43.19466" lon="2.34935">
        <ele>134.3</ele>
        <time>2024-05-10T06:29:32Z</time>
      </trkpt>
      <trkpt lat="43.19476" lon="2.34961">
        <ele>132.6</ele>
        <time>2024-05-10T06:29:33Z</time>
      </trkpt>
      <trkpt lat="43.19485" lon="2.34988">
        <ele>131.3</ele>
        <time>2024-05-10T06:29:34Z</time>
      </trkpt>
      <trkpt lat="43.19494" lon="2.35015">
        <ele>130.3</ele>
        <time>2024-05-10T06:29:35Z</time>
      </trkpt>
      <trkpt lat="43.19503" lon="2.35042">
        <ele>129.9</ele>
        <time>2024-05-10T06:29:36Z</time>
      </trkpt>
      <trkpt lat="43.19512" lon="2.35068">
        <ele>129.3</ele>
        <time>2024-05-10T06:29:37Z</time>
      </trkpt>
      <trkpt lat="43.19521" lon="2.35095">
        <ele>128.9</ele>
        <time>2024-05-10T06:29:38Z</time>
      </trkpt>
      <trkpt lat="43.19529" lon="2.3512">
        <ele>128.6</ele>
        <time>2024-05-10T06:29:39Z</time>
      </trkpt>
      <trkpt lat="43.19536" lon="2.35146">
        <ele>127.2</ele>
        <time>2024-05-10T06:29:40Z</time>
      </trkpt>
      <trkpt lat="43.19542" lon="2.35171">
        <ele>126.1</ele>
        <time>2024-05-10T06:29:41Z</time>
      </trkpt>
      <trkpt lat="43.19545" lon="2.35196">
        <ele>126.7</ele>
        <time>2024-05-10T06:29:42Z</time>
      </trkpt>
      <trkpt lat="43.19548" lon="2.35222">
        <ele>127.5</ele>
        <time>2024-05-10T06:29:43Z</time>
      </trkpt>
      <trkpt lat="43.19551" lon="2.35248">
        <ele>127</ele>
        <time>2024-05-10T06:29:44Z</time>
      </trkpt>
      <trkpt lat="43.19553" lon="2.35277">
        <ele>126.1</ele>
        <time>2024-05-10T06:29:45Z</time>
      </trkpt>
      <trkpt lat="43.19556" lon="2.35307">
        <ele>126</ele>
        <time>2024-05-10T06:29:46Z</time>
      </trkpt>
      <trkpt lat="43.19559" lon="2.35335">
        <ele>126</ele>
        <time>2024-05-10T06:29:47Z</time>
      </trkpt>
      <trkpt lat="43.19561" lon="2.35363">
        <ele>126</ele>
        <time>2024-05-10T06:29:48Z</time>
      </trkpt>
      <trkpt lat="43.19563" lon="2.3539">
        <ele>126</ele>
        <time>2024-05-10T06:29:49Z</time>
      </trkpt>
      <trkpt lat="43.19565" lon="2.35415">
        <ele>126</ele>
        <time>2024-05-10T06:29:50Z</time>
      </trkpt>
      <trkpt lat="43.19568" lon="2.35439">
        <ele>126</ele>
        <time>2024-05-10T06:29:51Z</time>
      </trkpt>
      <trkpt lat="43.1957" lon="2.35463">
        <ele>126</ele>
        <time>2024-05-10T06:29:52Z</time>
      </trkpt>
      <trkpt lat="43.19572" lon="2.35483">
        <ele>126</ele>
        <time>2024-05-10T06:29:53Z</time>
      </trkpt>
      <trkpt lat="43.19573" lon="2.35501">
        <ele>126</ele>
        <time>2024-05-10T06:29:54Z</time>
      </trkpt>
      <trkpt lat="43.19575" lon="2.35518">
        <ele>125.8</ele>
        <time>2024-05-10T06:29:55Z</time>
      </trkpt>
      <trkpt lat="43.19577" lon="2.35534">
        <ele>125.8</ele>
        <time>2024-05-10T06:29:56Z</time>
      </trkpt>
      <trkpt lat="43.19579" lon="2.3555">
        <ele>125.8</ele>
        <time>2024-05-10T06:29:57Z</time>
      </trkpt>
      <trkpt lat="43.19582" lon="2.35565">
        <ele>126</ele>
        <time>2024-05-10T06:29:58Z</time>
      </trkpt>
      <trkpt lat="43.19586" lon="2.35581">
        <ele>125.9</ele>
        <time>2024-05-10T06:29:59Z</time>
      </trkpt>
      <trkpt lat="43.19592" lon="2.35597">
        <ele>125.8</ele>
        <time>2024-05-10T06:30:00Z</time>
      </trkpt>
      <trkpt lat="43.19599" lon="2.35614">
        <ele>126</ele>
        <time>2024-05-10T06:30:01Z</time>
      </trkpt>
      <trkpt lat="43.19608" lon="2.35629">
        <ele>126</ele>
        <time>2024-05-10T06:30:02Z</time>
      </trkpt>
      <trkpt lat="43.19618" lon="2.35645">
        <ele>126</ele>
        <time>2024-05-10T06:30:03Z</time>
      </trkpt>
      <trkpt lat="43.19629" lon="2.3566">
        <ele>126</ele>
        <time>2024-05-10T06:30:04Z</time>
      </trkpt>
      <trkpt lat="43.1964" lon="2.35675">
        <ele>126</ele>
        <time>2024-05-10T06:30:05Z</time>
      </trkpt>
      <trkpt lat="43.1965" lon="2.35688">
        <ele>125.9</ele>
        <time>2024-05-10T06:30:06Z</time>
      </trkpt>
      <trkpt lat="43.19659" lon="2.35699">
        <ele>125.9</ele>
        <time>2024-05-10T06:30:07Z</time>
      </trkpt>
      <trkpt lat="43.19666" lon="2.35709">
        <ele>125.5</ele>
        <time>2024-05-10T06:30:08Z</time>
      </trkpt>
      <trkpt lat="43.19673" lon="2.35718">
        <ele>125.1</ele>
        <time>2024-05-10T06:30:09Z</time>
      </trkpt>
      <trkpt lat="43.19679" lon="2.35726">
        <ele>125.1</ele>
        <time>2024-05-10T06:30:10Z</time>
      </trkpt>
      <trkpt lat="43.19685" lon="2.35733">
        <ele>125.4</ele>
        <time>2024-05-10T06:30:11Z</time>
      </trkpt>
      <trkpt lat="43.1969" lon="2.3574">
        <ele>125.6</ele>
        <time>2024-05-10T06:30:12Z</time>
      </trkpt>
      <trkpt lat="43.19695" lon="2.35748">
        <ele>125.9</ele>
        <time>2024-05-10T06:30:13Z</time>
      </trkpt>
      <trkpt lat="43.197" lon="2.35756">
        <ele>125.7</ele>
        <time>2024-05-10T06:30:14Z</time>
      </trkpt>
      <trkpt lat="43.19704" lon="2.35763">
        <ele>125.5</ele>
        <time>2024-05-10T06:30:15Z</time>
      </trkpt>
      <trkpt lat="43.19707" lon="2.3577">
        <ele>125.5</ele>
        <time>2024-05-10T06:30:16Z</time>
      </trkpt>
      <trkpt lat="43.19709" lon="2.35774">
        <ele>125.5</ele>
        <time>2024-05-10T06:30:17Z</time>
      </trkpt>
      <trkpt lat="43.1971" lon="2.35779">
        <ele>125.6</ele>
        <time>2024-05-10T06:30:18Z</time>
      </trkpt>
      <trkpt lat="43.19711" lon="2.35781">
        <ele>125.7</ele>
        <time>2024-05-10T06:30:19Z</time>
      </trkpt>
      <trkpt lat="43.19711" lon="2.35782">
        <ele>125.7</ele>
        <time>2024-05-10T06:30:20Z</time>
      </trkpt>
      <trkpt lat="43.1971" lon="2.35782">
        <ele>125.7</ele>
        <time>2024-05-10T06:30:21Z</time>
      </trkpt>
      <trkpt lat="43.19711" lon="2.35781">
        <ele>125.7</ele>
        <time>2024-05-10T06:30:22Z</time>
      </trkpt>
      <trkpt lat="43.19711" lon="2.35781">
        <ele>125.7</ele>
        <time>2024-05-10T06:30:23Z</time>
      </trkpt>
      <trkpt lat="43.19711" lon="2.35781">
        <ele>125.7</ele>
        <time>2024-05-10T06:30:24Z</time>
      </trkpt>
      <trkpt lat="43.19711" lon="2.3578">
        <ele>125.7</ele>
        <time>2024-05-10T06:30:25Z</time>
      </trkpt>
      <trkpt lat="43.19711" lon="2.35781">
        <ele>125.7</ele>
        <time>2024-05-10T06:30:26Z</time>
      </trkpt>
      <trkpt lat="43.19711" lon="2.35783">
        <ele>125.8</ele>
        <time>2024-05-10T06:30:27Z</time>
      </trkpt>
      <trkpt lat="43.19711" lon="2.35789">
        <ele>126</ele>
        <time>2024-05-10T06:30:28Z</time>
      </trkpt>
      <trkpt lat="43.19711" lon="2.35798">
        <ele>126.3</ele>
        <time>2024-05-10T06:30:29Z</time>
      </trkpt>
      <trkpt lat="43.19713" lon="2.3581">
        <ele>126.6</ele>
        <time>2024-05-10T06:30:30Z</time>
      </trkpt>
      <trkpt lat="43.19717" lon="2.3582">
        <ele>126.4</ele>
        <time>2024-05-10T06:30:31Z</time>
      </trkpt>
      <trkpt lat="43.19723" lon="2.3583">
        <ele>126.1</ele>
        <time>2024-05-10T06:30:32Z</time>
      </trkpt>
      <trkpt lat="43.19732" lon="2.3584">
        <ele>125.5</ele>
        <time>2024-05-10T06:30:33Z</time>
      </trkpt>
      <trkpt lat="43.1974" lon="2.3585">
        <ele>125.4</ele>
        <time>2024-05-10T06:30:34Z</time>
      </trkpt>
      <trkpt lat="43.19746" lon="2.35863">
        <ele>125.6</ele>
        <time>2024-05-10T06:30:35Z</time>
      </trkpt>
      <trkpt lat="43.1975" lon="2.35878">
        <ele>126</ele>
        <time>2024-05-10T06:30:36Z</time>
      </trkpt>
      <trkpt lat="43.19753" lon="2.35896">
        <ele>126.1</ele>
        <time>2024-05-10T06:30:37Z</time>
      </trkpt>
      <trkpt lat="43.19756" lon="2.35916">
        <ele>125.8</ele>
        <time>2024-05-10T06:30:38Z</time>
      </trkpt>
      <trkpt lat="43.19761" lon="2.35938">
        <ele>126.2</ele>
        <time>2024-05-10T06:30:39Z</time>
      </trkpt>
      <trkpt lat="43.19767" lon="2.35958">
        <ele>126.8</ele>
        <time>2024-05-10T06:30:40Z</time>
      </trkpt>
      <trkpt lat="43.19774" lon="2.35977">
        <ele>127.2</ele>
        <time>2024-05-10T06:30:41Z</time>
      </trkpt>
      <trkpt lat="43.19781" lon="2.35995">
        <ele>127.8</ele>
        <time>2024-05-10T06:30:42Z</time>
      </trkpt>
      <trkpt lat="43.1979" lon="2.36012">
        <ele>128.4</ele>
        <time>2024-05-10T06:30:43Z</time>
      </trkpt>
      <trkpt lat="43.198" lon="2.36029">
        <ele>129</ele>
        <time>2024-05-10T06:30:44Z</time>
      </trkpt>
      <trkpt lat="43.1981" lon="2.36046">
        <ele>129.7</ele>
        <time>2024-05-10T06:30:45Z</time>
      </trkpt>
      <trkpt lat="43.1982" lon="2.36063">
        <ele>130.8</ele>
        <time>2024-05-10T06:30:46Z</time>
      </trkpt>
      <trkpt lat="43.19831" lon="2.36081">
        <ele>131.8</ele>
        <time>2024-05-10T06:30:47Z</time>
      </trkpt>
      <trkpt lat="43.19842" lon="2.361">
        <ele>133</ele>
        <time>2024-05-10T06:30:48Z</time>
      </trkpt>
      <trkpt lat="43.19854" lon="2.3612">
        <ele>133.8</ele>
        <time>2024-05-10T06:30:49Z</time>
      </trkpt>
      <trkpt lat="43.19866" lon="2.36142">
        <ele>134.6</ele>
        <time>2024-05-10T06:30:50Z</time>
      </trkpt>
      <trkpt lat="43.19878" lon="2.36163">
        <ele>135.6</ele>
        <time>2024-05-10T06:30:51Z</time>
      </trkpt>
      <trkpt lat="43.19889" lon="2.36184">
        <ele>134.8</ele>
        <time>2024-05-10T06:30:52Z</time>
      </trkpt>
      <trkpt lat="43.19899" lon="2.36206">
        <ele>135.4</ele>
        <time>2024-05-10T06:30:53Z</time>
      </trkpt>
      <trkpt lat="43.19908" lon="2.3623">
        <ele>137.6</ele>
        <time>2024-05-10T06:30:54Z</time>
      </trkpt>
      <trkpt lat="43.19915" lon="2.36255">
        <ele>136.3</ele>
        <time>2024-05-10T06:30:55Z</time>
      </trkpt>
      <trkpt lat="43.19921" lon="2.36283">
        <ele>136</ele>
        <time>2024-05-10T06:30:56Z</time>
      </trkpt>
      <trkpt lat="43.19925" lon="2.36311">
        <ele>136.2</ele>
        <time>2024-05-10T06:30:57Z</time>
      </trkpt>
      <trkpt lat="43.19929" lon="2.3634">
        <ele>135.1</ele>
        <time>2024-05-10T06:30:58Z</time>
      </trkpt>
      <trkpt lat="43.19933" lon="2.36371">
        <ele>134.4</ele>
        <time>2024-05-10T06:30:59Z</time>
      </trkpt>
      <trkpt lat="43.19936" lon="2.36402">
        <ele>132.4</ele>
        <time>2024-05-10T06:31:00Z</time>
      </trkpt>
      <trkpt lat="43.1994" lon="2.36434">
        <ele>131</ele>
        <time>2024-05-10T06:31:01Z</time>
      </trkpt>
      <trkpt lat="43.19945" lon="2.36466">
        <ele>130.9</ele>
        <time>2024-05-10T06:31:02Z</time>
      </trkpt>
      <trkpt lat="43.19951" lon="2.36498">
        <ele>128.9</ele>
        <time>2024-05-10T06:31:03Z</time>
      </trkpt>
      <trkpt lat="43.19957" lon="2.3653">
        <ele>128.6</ele>
        <time>2024-05-10T06:31:04Z</time>
      </trkpt>
      <trkpt lat="43.19963" lon="2.36563">
        <ele>128.9</ele>
        <time>2024-05-10T06:31:05Z</time>
      </trkpt>
      <trkpt lat="43.19969" lon="2.36595">
        <ele>131.4</ele>
        <time>2024-05-10T06:31:06Z</time>
      </trkpt>
      <trkpt lat="43.19975" lon="2.36628">
        <ele>133.5</ele>
        <time>2024-05-10T06:31:07Z</time>
      </trkpt>
      <trkpt lat="43.19981" lon="2.36661">
        <ele>135.3</ele>
        <time>2024-05-10T06:31:08Z</time>
      </trkpt>
      <trkpt lat="43.19987" lon="2.36692">
        <ele>136.3</ele>
        <time>2024-05-10T06:31:09Z</time>
      </trkpt>
      <trkpt lat="43.19992" lon="2.36722">
        <ele>137.8</ele>
        <time>2024-05-10T06:31:10Z</time>
      </trkpt>
      <trkpt lat="43.19997" lon="2.36751">
        <ele>139.5</ele>
        <time>2024-05-10T06:31:11Z</time>
      </trkpt>
      <trkpt lat="43.20002" lon="2.36778">
        <ele>140.9</ele>
        <time>2024-05-10T06:31:12Z</time>
      </trkpt>
      <trkpt lat="43.20007" lon="2.36805">
        <ele>141.7</ele>
        <time>2024-05-10T06:31:13Z</time>
      </trkpt>
      <trkpt lat="43.20011" lon="2.36832">
        <ele>143.1</ele>
        <time>2024-05-10T06:31:14Z</time>
      </trkpt>
      <trkpt lat="43.20016" lon="2.36858">
        <ele>145</ele>
        <time>2024-05-10T06:31:15Z</time>
      </trkpt>
      <trkpt lat="43.20021" lon="2.36884">
        <ele>145.6</ele>
        <time>2024-05-10T06:31:16Z</time>
      </trkpt>
      <trkpt lat="43.20026" lon="2.3691">
        <ele>147.3</ele>
        <time>2024-05-10T06:31:17Z</time>
      </trkpt>
      <trkpt lat="43.20032" lon="2.36937">
        <ele>147.7</ele>
        <time>2024-05-10T06:31:18Z</time>
      </trkpt>
      <trkpt lat="43.20039" lon="2.36963">
        <ele>147.7</ele>
        <time>2024-05-10T06:31:19Z</time>
      </trkpt>
      <trkpt lat="43.20048" lon="2.36987">
        <ele>149.5</ele>
        <time>2024-05-10T06:31:20Z</time>
      </trkpt>
      <trkpt lat="43.20058" lon="2.3701">
        <ele>151.5</ele>
        <time>2024-05-10T06:31:21Z</time>
      </trkpt>
      <trkpt lat="43.2007" lon="2.37032">
        <ele>151.2</ele>
        <time>2024-05-10T06:31:22Z</time>
      </trkpt>
      <trkpt lat="43.20083" lon="2.37052">
        <ele>154.4</ele>
        <time>2024-05-10T06:31:23Z</time>
      </trkpt>
      <trkpt lat="43.20098" lon="2.3707">
        <ele>154.8</ele>
        <time>2024-05-10T06:31:24Z</time>
      </trkpt>
      <trkpt lat="43.20113" lon="2.37087">
        <ele>158.3</ele>
        <time>2024-05-10T06:31:25Z</time>
      </trkpt>
      <trkpt lat="43.20128" lon="2.37104">
        <ele>159.6</ele>
        <time>2024-05-10T06:31:26Z</time>
      </trkpt>
      <trkpt lat="43.20143" lon="2.3712">
        <ele>161.6</ele>
        <time>2024-05-10T06:31:27Z</time>
      </trkpt>
      <trkpt lat="43.20157" lon="2.37136">
        <ele>162.7</ele>
        <time>2024-05-10T06:31:28Z</time>
      </trkpt>
      <trkpt lat="43.20171" lon="2.37151">
        <ele>163.3</ele>
        <time>2024-05-10T06:31:29Z</time>
      </trkpt>
      <trkpt lat="43.20186" lon="2.37168">
        <ele>163.6</ele>
        <time>2024-05-10T06:31:30Z</time>
      </trkpt>
      <trkpt lat="43.20202" lon="2.37186">
        <ele>163.3</ele>
        <time>2024-05-10T06:31:31Z</time>
      </trkpt>
      <trkpt lat="43.2022" lon="2.37205">
        <ele>164</ele>
        <time>2024-05-10T06:31:32Z</time>
      </trkpt>
      <trkpt lat="43.20237" lon="2.37225">
        <ele>164</ele>
        <time>2024-05-10T06:31:33Z</time>
      </trkpt>
      <trkpt lat="43.20252" lon="2.37246">
        <ele>164</ele>
        <time>2024-05-10T06:31:34Z</time>
      </trkpt>
      <trkpt lat="43.20267" lon="2.37269">
        <ele>164.3</ele>
        <time>2024-05-10T06:31:35Z</time>
      </trkpt>
      <trkpt lat="43.2028" lon="2.37294">
        <ele>164.1</ele>
        <time>2024-05-10T06:31:36Z</time>
      </trkpt>
      <trkpt lat="43.20293" lon="2.3732">
        <ele>164.5</ele>
        <time>2024-05-10T06:31:37Z</time>
      </trkpt>
      <trkpt lat="43.20304" lon="2.37347">
        <ele>163.6</ele>
        <time>2024-05-10T06:31:38Z</time>
      </trkpt>
      <trkpt lat="43.20314" lon="2.37375">
        <ele>163.5</ele>
        <time>2024-05-10T06:31:39Z</time>
      </trkpt>
      <trkpt lat="43.20324" lon="2.37404">
        <ele>163</ele>
        <time>2024-05-10T06:31:40Z</time>
      </trkpt>
      <trkpt lat="43.20333" lon="2.37433">
        <ele>161.5</ele>
        <time>2024-05-10T06:31:41Z</time>
      </trkpt>
      <trkpt lat="43.20342" lon="2.37464">
        <ele>160.7</ele>
        <time>2024-05-10T06:31:42Z</time>
      </trkpt>
      <trkpt lat="43.20348" lon="2.37493">
        <ele>160.5</ele>
        <time>2024-05-10T06:31:43Z</time>
      </trkpt>
      <trkpt lat="43.20353" lon="2.37523">
        <ele>160.3</ele>
        <time>2024-05-10T06:31:44Z</time>
      </trkpt>
      <trkpt lat="43.20356" lon="2.37552">
        <ele>160.3</ele>
        <time>2024-05-10T06:31:45Z</time>
      </trkpt>
      <trkpt lat="43.20357" lon="2.37581">
        <ele>160.3</ele>
        <time>2024-05-10T06:31:46Z</time>
      </trkpt>
      <trkpt lat="43.20358" lon="2.37611">
        <ele>159.3</ele>
        <time>2024-05-10T06:31:47Z</time>
      </trkpt>
      <trkpt lat="43.20357" lon="2.37641">
        <ele>158.7</ele>
        <time>2024-05-10T06:31:48Z</time>
      </trkpt>
      <trkpt lat="43.20355" lon="2.37671">
        <ele>159.1</ele>
        <time>2024-05-10T06:31:49Z</time>
      </trkpt>
      <trkpt lat="43.20353" lon="2.37702">
        <ele>159</ele>
        <time>2024-05-10T06:31:50Z</time>
      </trkpt>
      <trkpt lat="43.2035" lon="2.37734">
        <ele>158.6</ele>
        <time>2024-05-10T06:31:51Z</time>
      </trkpt>
      <trkpt lat="43.20348" lon="2.37766">
        <ele>158.5</ele>
        <time>2024-05-10T06:31:52Z</time>
      </trkpt>
      <trkpt lat="43.20346" lon="2.37797">
        <ele>157.9</ele>
        <time>2024-05-10T06:31:53Z</time>
      </trkpt>
      <trkpt lat="43.20345" lon="2.37827">
        <ele>155.6</ele>
        <time>2024-05-10T06:31:54Z</time>
      </trkpt>
      <trkpt lat="43.20345" lon="2.37856">
        <ele>152.2</ele>
        <time>2024-05-10T06:31:55Z</time>
      </trkpt>
      <trkpt lat="43.20345" lon="2.37884">
        <ele>150.1</ele>
        <time>2024-05-10T06:31:56Z</time>
      </trkpt>
      <trkpt lat="43.20347" lon="2.37912">
        <ele>149.9</ele>
        <time>2024-05-10T06:31:57Z</time>
      </trkpt>
      <trkpt lat="43.20349" lon="2.37938">
        <ele>151.1</ele>
        <time>2024-05-10T06:31:58Z</time>
      </trkpt>
      <trkpt lat="43.20352" lon="2.37964">
        <ele>152.7</ele>
        <time>2024-05-10T06:31:59Z</time>
      </trkpt>
      <trkpt lat="43.20356" lon="2.37989">
        <ele>155.4</ele>
        <time>2024-05-10T06:32:00Z</time>
      </trkpt>
      <trkpt lat="43.20361" lon="2.38012">
        <ele>157.9</ele>
        <time>2024-05-10T06:32:01Z</time>
      </trkpt>
      <trkpt lat="43.20367" lon="2.38035">
        <ele>158.2</ele>
        <time>2024-05-10T06:32:02Z</time>
      </trkpt>
      <trkpt lat="43.20372" lon="2.38057">
        <ele>159.1</ele>
        <time>2024-05-10T06:32:03Z</time>
      </trkpt>
      <trkpt lat="43.20378" lon="2.38079">
        <ele>161</ele>
        <time>2024-05-10T06:32:04Z</time>
      </trkpt>
      <trkpt lat="43.20384" lon="2.381">
        <ele>162.9</ele>
        <time>2024-05-10T06:32:05Z</time>
      </trkpt>
      <trkpt lat="43.20389" lon="2.3812">
        <ele>163.3</ele>
        <time>2024-05-10T06:32:06Z</time>
      </trkpt>
      <trkpt lat="43.20394" lon="2.38139">
        <ele>163.3</ele>
        <time>2024-05-10T06:32:07Z</time>
      </trkpt>
      <trkpt lat="43.20399" lon="2.38158">
        <ele>164.9</ele>
        <time>2024-05-10T06:32:08Z</time>
      </trkpt>
      <trkpt lat="43.20404" lon="2.38178">
        <ele>166.9</ele>
        <time>2024-05-10T06:32:09Z</time>
      </trkpt>
      <trkpt lat="43.20409" lon="2.38198">
        <ele>167.3</ele>
        <time>2024-05-10T06:32:10Z</time>
      </trkpt>
      <trkpt lat="43.20414" lon="2.38218">
        <ele>165.8</ele>
        <time>2024-05-10T06:32:11Z</time>
      </trkpt>
      <trkpt lat="43.2042" lon="2.38239">
        <ele>165.8</ele>
        <time>2024-05-10T06:32:12Z</time>
      </trkpt>
      <trkpt lat="43.20425" lon="2.38261">
        <ele>165.9</ele>
        <time>2024-05-10T06:32:13Z</time>
      </trkpt>
      <trkpt lat="43.20429" lon="2.38283">
        <ele>165.8</ele>
        <time>2024-05-10T06:32:14Z</time>
      </trkpt>
      <trkpt lat="43.20433" lon="2.38304">
        <ele>166.2</ele>
        <time>2024-05-10T06:32:15Z</time>
      </trkpt>
      <trkpt lat="43.20435" lon="2.38326">
        <ele>165.5</ele>
        <time>2024-05-10T06:32:16Z</time>
      </trkpt>
      <trkpt lat="43.20435" lon="2.38348">
        <ele>165.3</ele>
        <time>2024-05-10T06:32:17Z</time>
      </trkpt>
      <trkpt lat="43.20435" lon="2.38371">
        <ele>165.2</ele>
        <time>2024-05-10T06:32:18Z</time>
      </trkpt>
      <trkpt lat="43.20434" lon="2.38395">
        <ele>164.9</ele>
        <time>2024-05-10T06:32:19Z</time>
      </trkpt>
      <trkpt lat="43.20433" lon="2.38419">
        <ele>164.2</ele>
        <time>2024-05-10T06:32:20Z</time>
      </trkpt>
      <trkpt lat="43.20431" lon="2.38442">
        <ele>164</ele>
        <time>2024-05-10T06:32:21Z</time>
      </trkpt>
      <trkpt lat="43.2043" lon="2.38465">
        <ele>162.2</ele>
        <time>2024-05-10T06:32:22Z</time>
      </trkpt>
      <trkpt lat="43.20427" lon="2.38488">
        <ele>160.7</ele>
        <time>2024-05-10T06:32:23Z</time>
      </trkpt>
      <trkpt lat="43.20425" lon="2.3851">
        <ele>159.8</ele>
        <time>2024-05-10T06:32:24Z</time>
      </trkpt>
      <trkpt lat="43.20423" lon="2.38532">
        <ele>159.5</ele>
        <time>2024-05-10T06:32:25Z</time>
      </trkpt>
      <trkpt lat="43.2042" lon="2.38554">
        <ele>159</ele>
        <time>2024-05-10T06:32:26Z</time>
      </trkpt>
      <trkpt lat="43.20418" lon="2.38574">
        <ele>158.3</ele>
        <time>2024-05-10T06:32:27Z</time>
      </trkpt>
      <trkpt lat="43.20417" lon="2.38594">
        <ele>158</ele>
        <time>2024-05-10T06:32:28Z</time>
      </trkpt>
      <trkpt lat="43.20416" lon="2.38612">
        <ele>158</ele>
        <time>2024-05-10T06:32:29Z</time>
      </trkpt>
      <trkpt lat="43.20415" lon="2.38631">
        <ele>157.5</ele>
        <time>2024-05-10T06:32:30Z</time>
      </trkpt>
      <trkpt lat="43.20416" lon="2.38649">
        <ele>157.1</ele>
        <time>2024-05-10T06:32:31Z</time>
      </trkpt>
      <trkpt lat="43.20419" lon="2.38667">
        <ele>156.9</ele>
        <time>2024-05-10T06:32:32Z</time>
      </trkpt>
      <trkpt lat="43.20425" lon="2.38684">
        <ele>155.7</ele>
        <time>2024-05-10T06:32:33Z</time>
      </trkpt>
      <trkpt lat="43.20433" lon="2.38702">
        <ele>154.2</ele>
        <time>2024-05-10T06:32:34Z</time>
      </trkpt>
      <trkpt lat="43.20441" lon="2.38721">
        <ele>153.4</ele>
        <time>2024-05-10T06:32:35Z</time>
      </trkpt>
      <trkpt lat="43.2045" lon="2.38741">
        <ele>151.3</ele>
        <time>2024-05-10T06:32:36Z</time>
      </trkpt>
      <trkpt lat="43.20459" lon="2.3876">
        <ele>150.1</ele>
        <time>2024-05-10T06:32:37Z</time>
      </trkpt>
      <trkpt lat="43.20469" lon="2.38779">
        <ele>150.4</ele>
        <time>2024-05-10T06:32:38Z</time>
      </trkpt>
      <trkpt lat="43.2048" lon="2.38795">
        <ele>149.2</ele>
        <time>2024-05-10T06:32:39Z</time>
      </trkpt>
      <trkpt lat="43.2049" lon="2.38811">
        <ele>148.9</ele>
        <time>2024-05-10T06:32:40Z</time>
      </trkpt>
      <trkpt lat="43.20501" lon="2.38825">
        <ele>147.2</ele>
        <time>2024-05-10T06:32:41Z</time>
      </trkpt>
      <trkpt lat="43.20513" lon="2.38837">
        <ele>146.3</ele>
        <time>2024-05-10T06:32:42Z</time>
      </trkpt>
      <trkpt lat="43.20525" lon="2.38849">
        <ele>145.4</ele>
        <time>2024-05-10T06:32:43Z</time>
      </trkpt>
      <trkpt lat="43.20534" lon="2.38857">
        <ele>144.2</ele>
        <time>2024-05-10T06:32:44Z</time>
      </trkpt>
      <trkpt lat="43.20543" lon="2.38865">
        <ele>143.6</ele>
        <time>2024-05-10T06:32:45Z</time>
      </trkpt>
      <trkpt lat="43.2055" lon="2.38872">
        <ele>143.1</ele>
        <time>2024-05-10T06:32:46Z</time>
      </trkpt>
      <trkpt lat="43.20557" lon="2.3888">
        <ele>142.6</ele>
        <time>2024-05-10T06:32:47Z</time>
      </trkpt>
      <trkpt lat="43.20561" lon="2.38889">
        <ele>142.8</ele>
        <time>2024-05-10T06:32:48Z</time>
      </trkpt>
      <trkpt lat="43.20566" lon="2.38899">
        <ele>141.7</ele>
        <time>2024-05-10T06:32:49Z</time>
      </trkpt>
      <trkpt lat="43.20568" lon="2.3891">
        <ele>140.9</ele>
        <time>2024-05-10T06:32:50Z</time>
      </trkpt>
      <trkpt lat="43.20569" lon="2.38921">
        <ele>140.1</ele>
        <time>2024-05-10T06:32:51Z</time>
      </trkpt>
      <trkpt lat="43.20569" lon="2.38934">
        <ele>139.2</ele>
        <time>2024-05-10T06:32:52Z</time>
      </trkpt>
      <trkpt lat="43.20568" lon="2.38947">
        <ele>138.2</ele>
        <time>2024-05-10T06:32:53Z</time>
      </trkpt>
      <trkpt lat="43.20566" lon="2.38961">
        <ele>137.5</ele>
        <time>2024-05-10T06:32:54Z</time>
      </trkpt>
      <trkpt lat="43.20563" lon="2.38977">
        <ele>137.7</ele>
        <time>2024-05-10T06:32:55Z</time>
      </trkpt>
      <trkpt lat="43.20561" lon="2.38992">
        <ele>138</ele>
        <time>2024-05-10T06:32:56Z</time>
      </trkpt>
      <trkpt lat="43.2056" lon="2.39006">
        <ele>138</ele>
        <time>2024-05-10T06:32:57Z</time>
      </trkpt>
      <trkpt lat="43.2056" lon="2.39018">
        <ele>137.7</ele>
        <time>2024-05-10T06:32:58Z</time>
      </trkpt>
      <trkpt lat="43.20562" lon="2.39026">
        <ele>137.1</ele>
        <time>2024-05-10T06:32:59Z</time>
      </trkpt>
      <trkpt lat="43.20562" lon="2.39032">
        <ele>137.1</ele>
        <time>2024-05-10T06:33:00Z</time>
      </trkpt>
      <trkpt lat="43.20562" lon="2.39035">
        <ele>137.2</ele>
        <time>2024-05-10T06:33:01Z</time>
      </trkpt>
      <trkpt lat="43.20562" lon="2.39038">
        <ele>137.2</ele>
        <time>2024-05-10T06:33:02Z</time>
      </trkpt>
      <trkpt lat="43.20562" lon="2.3904">
        <ele>137.3</ele>
        <time>2024-05-10T06:33:03Z</time>
      </trkpt>
      <trkpt lat="43.20562" lon="2.39042">
        <ele>137.3</ele>
        <time>2024-05-10T06:33:04Z</time>
      </trkpt>
      <trkpt lat="43.20562" lon="2.39043">
        <ele>137.3</ele>
        <time>2024-05-10T06:33:05Z</time>
      </trkpt>
      <trkpt lat="43.20563" lon="2.39043">
        <ele>137.2</ele>
        <time>2024-05-10T06:33:06Z</time>
      </trkpt>
      <trkpt lat="43.20563" lon="2.39043">
        <ele>137.2</ele>
        <time>2024-05-10T06:33:07Z</time>
      </trkpt>
      <trkpt lat="43.20563" lon="2.39042">
        <ele>137.2</ele>
        <time>2024-05-10T06:33:08Z</time>
      </trkpt>
      <trkpt lat="43.20563" lon="2.39043">
        <ele>137.2</ele>
        <time>2024-05-10T06:33:09Z</time>
      </trkpt>
      <trkpt lat="43.20563" lon="2.39043">
        <ele>137.2</ele>
        <time>2024-05-10T06:33:10Z</time>
      </trkpt>
      <trkpt lat="43.20563" lon="2.39043">
        <ele>137.2</ele>
        <time>2024-05-10T06:33:11Z</time>
      </trkpt>
      <trkpt lat="43.20563" lon="2.39043">
        <ele>137.2</ele>
        <time>2024-05-10T06:33:12Z</time>
      </trkpt>
      <trkpt lat="43.20563" lon="2.39043">
        <ele>137.2</ele>
        <time>2024-05-10T06:33:13Z</time>
      </trkpt>
      <trkpt lat="43.20562" lon="2.39045">
        <ele>137.4</ele>
        <time>2024-05-10T06:33:14Z</time>
      </trkpt>
      <trkpt lat="43.20559" lon="2.3905">
        <ele>137.7</ele>
        <time>2024-05-10T06:33:15Z</time>
      </trkpt>
      <trkpt lat="43.20557" lon="2.39057">
        <ele>137.9</ele>
        <time>2024-05-10T06:33:16Z</time>
      </trkpt>
      <trkpt lat="43.20559" lon="2.39064">
        <ele>137.7</ele>
        <time>2024-05-10T06:33:17Z</time>
      </trkpt>
      <trkpt lat="43.20563" lon="2.39068">
        <ele>137.3</ele>
        <time>2024-05-10T06:33:18Z</time>
      </trkpt>
      <trkpt lat="43.2057" lon="2.39067">
        <ele>136.7</ele>
        <time>2024-05-10T06:33:19Z</time>
      </trkpt>
      <trkpt lat="43.20578" lon="2.39066">
        <ele>136.1</ele>
        <time>2024-05-10T06:33:20Z</time>
      </trkpt>
      <trkpt lat="43.20587" lon="2.39067">
        <ele>135.4</ele>
        <time>2024-05-10T06:33:21Z</time>
      </trkpt>
      <trkpt lat="43.20597" lon="2.3907">
        <ele>134.8</ele>
        <time>2024-05-10T06:33:22Z</time>
      </trkpt>
      <trkpt lat="43.20606" lon="2.39076">
        <ele>134.2</ele>
        <time>2024-05-10T06:33:23Z</time>
      </trkpt>
      <trkpt lat="43.20614" lon="2.39086">
        <ele>134</ele>
        <time>2024-05-10T06:33:24Z</time>
      </trkpt>
      <trkpt lat="43.2062" lon="2.39099">
        <ele>134</ele>
        <time>2024-05-10T06:33:25Z</time>
      </trkpt>
      <trkpt lat="43.20624" lon="2.39116">
        <ele>134</ele>
        <time>2024-05-10T06:33:26Z</time>
      </trkpt>
      <trkpt lat="43.20625" lon="2.39135">
        <ele>134</ele>
        <time>2024-05-10T06:33:27Z</time>
      </trkpt>
      <trkpt lat="43.20624" lon="2.39153">
        <ele>134</ele>
        <time>2024-05-10T06:33:28Z</time>
      </trkpt>
      <trkpt lat="43.2062" lon="2.39172">
        <ele>133.9</ele>
        <time>2024-05-10T06:33:29Z</time>
      </trkpt>
      <trkpt lat="43.20616" lon="2.39192">
        <ele>133.8</ele>
        <time>2024-05-10T06:33:30Z</time>
      </trkpt>
      <trkpt lat="43.20612" lon="2.39215">
        <ele>134</ele>
        <time>2024-05-10T06:33:31Z</time>
      </trkpt>
      <trkpt lat="43.20608" lon="2.3924">
        <ele>134.3</ele>
        <time>2024-05-10T06:33:32Z</time>
      </trkpt>
      <trkpt lat="43.20603" lon="2.39267">
        <ele>134.4</ele>
        <time>2024-05-10T06:33:33Z</time>
      </trkpt>
      <trkpt lat="43.20599" lon="2.39295">
        <ele>134.5</ele>
        <time>2024-05-10T06:33:34Z</time>
      </trkpt>
      <trkpt lat="43.20594" lon="2.39322">
        <ele>133.2</ele>
        <time>2024-05-10T06:33:35Z</time>
      </trkpt>
      <trkpt lat="43.2059" lon="2.3935">
        <ele>131.9</ele>
        <time>2024-05-10T06:33:36Z</time>
      </trkpt>
      <trkpt lat="43.20585" lon="2.39378">
        <ele>131.4</ele>
        <time>2024-05-10T06:33:37Z</time>
      </trkpt>
      <trkpt lat="43.2058" lon="2.39407">
        <ele>131.1</ele>
        <time>2024-05-10T06:33:38Z</time>
      </trkpt>
      <trkpt lat="43.20574" lon="2.39436">
        <ele>130.3</ele>
        <time>2024-05-10T06:33:39Z</time>
      </trkpt>
      <trkpt lat="43.20568" lon="2.39467">
        <ele>129.6</ele>
        <time>2024-05-10T06:33:40Z</time>
      </trkpt>
      <trkpt lat="43.20562" lon="2.39499">
        <ele>129</ele>
        <time>2024-05-10T06:33:41Z</time>
      </trkpt>
      <trkpt lat="43.20555" lon="2.3953">
        <ele>128</ele>
        <time>2024-05-10T06:33:42Z</time>
      </trkpt>
      <trkpt lat="43.20549" lon="2.39561">
        <ele>127.6</ele>
        <time>2024-05-10T06:33:43Z</time>
      </trkpt>
      <trkpt lat="43.20543" lon="2.39594">
        <ele>127</ele>
        <time>2024-05-10T06:33:44Z</time>
      </trkpt>
      <trkpt lat="43.20538" lon="2.39627">
        <ele>126.2</ele>
        <time>2024-05-10T06:33:45Z</time>
      </trkpt>
      <trkpt lat="43.20531" lon="2.39661">
        <ele>125.8</ele>
        <time>2024-05-10T06:33:46Z</time>
      </trkpt>
      <trkpt lat="43.20526" lon="2.39696">
        <ele>125.9</ele>
        <time>2024-05-10T06:33:47Z</time>
      </trkpt>
      <trkpt lat="43.2052" lon="2.39732">
        <ele>124.3</ele>
        <time>2024-05-10T06:33:48Z</time>
      </trkpt>
      <trkpt lat="43.20513" lon="2.39767">
        <ele>123.6</ele>
        <time>2024-05-10T06:33:49Z</time>
      </trkpt>
      <trkpt lat="43.20506" lon="2.39803">
        <ele>123.6</ele>
        <time>2024-05-10T06:33:50Z</time>
      </trkpt>
      <trkpt lat="43.205" lon="2.39837">
        <ele>123</ele>
        <time>2024-05-10T06:33:51Z</time>
      </trkpt>
      <trkpt lat="43.20493" lon="2.39871">
        <ele>122.8</ele>
        <time>2024-05-10T06:33:52Z</time>
      </trkpt>
      <trkpt lat="43.20487" lon="2.39905">
        <ele>122.1</ele>
        <time>2024-05-10T06:33:53Z</time>
      </trkpt>
      <trkpt lat="43.2048" lon="2.3994">
        <ele>121.5</ele>
        <time>2024-05-10T06:33:54Z</time>
      </trkpt>
      <trkpt lat="43.20472" lon="2.39976">
        <ele>122</ele>
        <time>2024-05-10T06:33:55Z</time>
      </trkpt>
      <trkpt lat="43.20465" lon="2.40012">
        <ele>122.2</ele>
        <time>2024-05-10T06:33:56Z</time>
      </trkpt>
      <trkpt lat="43.20459" lon="2.40047">
        <ele>120.9</ele>
        <time>2024-05-10T06:33:57Z</time>
      </trkpt>
      <trkpt lat="43.20454" lon="2.40083">
        <ele>120.6</ele>
        <time>2024-05-10T06:33:58Z</time>
      </trkpt>
      <trkpt lat="43.20451" lon="2.40118">
        <ele>120.8</ele>
        <time>2024-05-10T06:33:59Z</time>
      </trkpt>
      <trkpt lat="43.20451" lon="2.40152">
        <ele>120.8</ele>
        <time>2024-05-10T06:34:00Z</time>
      </trkpt>
      <trkpt lat="43.20453" lon="2.40188">
        <ele>120.5</ele>
        <time>2024-05-10T06:34:01Z</time>
      </trkpt>
      <trkpt lat="43.20457" lon="2.40223">
        <ele>120.2</ele>
        <time>2024-05-10T06:34:02Z</time>
      </trkpt>
      <trkpt lat="43.20463" lon="2.40258">
        <ele>121.6</ele>
        <time>2024-05-10T06:34:03Z</time>
      </trkpt>
      <trkpt lat="43.20472" lon="2.40293">
        <ele>122</ele>
        <time>2024-05-10T06:34:04Z</time>
      </trkpt>
      <trkpt lat="43.20481" lon="2.40329">
        <ele>120.6</ele>
        <time>2024-05-10T06:34:05Z</time>
      </trkpt>
      <trkpt lat="43.2049" lon="2.40366">
        <ele>123.7</ele>
        <time>2024-05-10T06:34:06Z</time>
      </trkpt>
      <trkpt lat="43.20498" lon="2.40405">
        <ele>122.3</ele>
        <time>2024-05-10T06:34:07Z</time>
      </trkpt>
      <trkpt lat="43.20503" lon="2.40444">
        <ele>121.7</ele>
        <time>2024-05-10T06:34:08Z</time>
      </trkpt>
      <trkpt lat="43.20505" lon="2.40485">
        <ele>121.6</ele>
        <time>2024-05-10T06:34:09Z</time>
      </trkpt>
      <trkpt lat="43.20503" lon="2.40526">
        <ele>121.9</ele>
        <time>2024-05-10T06:34:10Z</time>
      </trkpt>
      <trkpt lat="43.205" lon="2.40568">
        <ele>121.6</ele>
        <time>2024-05-10T06:34:11Z</time>
      </trkpt>
      <trkpt lat="43.20495" lon="2.4061">
        <ele>121.7</ele>
        <time>2024-05-10T06:34:12Z</time>
      </trkpt>
      <trkpt lat="43.20489" lon="2.40653">
        <ele>121.3</ele>
        <time>2024-05-10T06:34:13Z</time>
      </trkpt>
      <trkpt lat="43.20484" lon="2.40697">
        <ele>120.6</ele>
        <time>2024-05-10T06:34:14Z</time>
      </trkpt>
      <trkpt lat="43.20478" lon="2.40742">
        <ele>120.2</ele>
        <time>2024-05-10T06:34:15Z</time>
      </trkpt>
      <trkpt lat="43.20473" lon="2.40786">
        <ele>120</ele>
        <time>2024-05-10T06:34:16Z</time>
      </trkpt>
      <trkpt lat="43.20467" lon="2.4083">
        <ele>119.1</ele>
        <time>2024-05-10T06:34:17Z</time>
      </trkpt>
      <trkpt lat="43.20462" lon="2.40872">
        <ele>118.4</ele>
        <time>2024-05-10T06:34:18Z</time>
      </trkpt>
      <trkpt lat="43.20456" lon="2.40911">
        <ele>117.5</ele>
        <time>2024-05-10T06:34:19Z</time>
      </trkpt>
      <trkpt lat="43.20451" lon="2.4095">
        <ele>118.6</ele>
        <time>2024-05-10T06:34:20Z</time>
      </trkpt>
      <trkpt lat="43.20446" lon="2.40987">
        <ele>118</ele>
        <time>2024-05-10T06:34:21Z</time>
      </trkpt>
      <trkpt lat="43.20441" lon="2.41023">
        <ele>118.1</ele>
        <time>2024-05-10T06:34:22Z</time>
      </trkpt>
      <trkpt lat="43.20436" lon="2.41058">
        <ele>117.3</ele>
        <time>2024-05-10T06:34:23Z</time>
      </trkpt>
      <trkpt lat="43.20432" lon="2.41092">
        <ele>117.3</ele>
        <time>2024-05-10T06:34:24Z</time>
      </trkpt>
      <trkpt lat="43.20427" lon="2.41127">
        <ele>116.9</ele>
        <time>2024-05-10T06:34:25Z</time>
      </trkpt>
      <trkpt lat="43.20423" lon="2.4116">
        <ele>116.6</ele>
        <time>2024-05-10T06:34:26Z</time>
      </trkpt>
      <trkpt lat="43.2042" lon="2.41195">
        <ele>116.6</ele>
        <time>2024-05-10T06:34:27Z</time>
      </trkpt>
      <trkpt lat="43.20418" lon="2.4123">
        <ele>116.6</ele>
        <time>2024-05-10T06:34:28Z</time>
      </trkpt>
      <trkpt lat="43.20418" lon="2.41263">
        <ele>115.9</ele>
        <time>2024-05-10T06:34:29Z</time>
      </trkpt>
      <trkpt lat="43.20419" lon="2.41296">
        <ele>115.7</ele>
        <time>2024-05-10T06:34:30Z</time>
      </trkpt>
      <trkpt lat="43.2042" lon="2.41327">
        <ele>115.4</ele>
        <time>2024-05-10T06:34:31Z</time>
      </trkpt>
      <trkpt lat="43.20423" lon="2.41356">
        <ele>115</ele>
        <time>2024-05-10T06:34:32Z</time>
      </trkpt>
      <trkpt lat="43.20427" lon="2.41384">
        <ele>115.6</ele>
        <time>2024-05-10T06:34:33Z</time>
      </trkpt>
      <trkpt lat="43.20431" lon="2.41411">
        <ele>116.7</ele>
        <time>2024-05-10T06:34:34Z</time>
      </trkpt>
      <trkpt lat="43.20437" lon="2.41438">
        <ele>116.7</ele>
        <time>2024-05-10T06:34:35Z</time>
      </trkpt>
      <trkpt lat="43.20444" lon="2.41465">
        <ele>116</ele>
        <time>2024-05-10T06:34:36Z</time>
      </trkpt>
      <trkpt lat="43.20452" lon="2.4149">
        <ele>116.4</ele>
        <time>2024-05-10T06:34:37Z</time>
      </trkpt>
      <trkpt lat="43.20459" lon="2.41515">
        <ele>117</ele>
        <time>2024-05-10T06:34:38Z</time>
      </trkpt>
      <trkpt lat="43.20466" lon="2.4154">
        <ele>116.9</ele>
        <time>2024-05-10T06:34:39Z</time>
      </trkpt>
      <trkpt lat="43.20474" lon="2.41564">
        <ele>116.3</ele>
        <time>2024-05-10T06:34:40Z</time>
      </trkpt>
      <trkpt lat="43.20482" lon="2.4159">
        <ele>116.8</ele>
        <time>2024-05-10T06:34:41Z</time>
      </trkpt>
      <trkpt lat="43.20489" lon="2.41616">
        <ele>116.2</ele>
        <time>2024-05-10T06:34:42Z</time>
      </trkpt>
      <trkpt lat="43.20496" lon="2.41642">
        <ele>115.7</ele>
        <time>2024-05-10T06:34:43Z</time>
      </trkpt>
      <trkpt lat="43.20504" lon="2.41667">
        <ele>114.8</ele>
        <time>2024-05-10T06:34:44Z</time>
      </trkpt>
      <trkpt lat="43.20511" lon="2.41692">
        <ele>114.1</ele>
        <time>2024-05-10T06:34:45Z</time>
      </trkpt>
      <trkpt lat="43.20518" lon="2.41718">
        <ele>113.2</ele>
        <time>2024-05-10T06:34:46Z</time>
      </trkpt>
      <trkpt lat="43.20526" lon="2.41744">
        <ele>113</ele>
        <time>2024-05-10T06:34:47Z</time>
      </trkpt>
      <trkpt lat="43.20534" lon="2.41771">
        <ele>111.8</ele>
        <time>2024-05-10T06:34:48Z</time>
      </trkpt>
      <trkpt lat="43.20542" lon="2.41798">
        <ele>111</ele>
        <time>2024-05-10T06:34:49Z</time>
      </trkpt>
      <trkpt lat="43.2055" lon="2.41825">
        <ele>111.1</ele>
        <time>2024-05-10T06:34:50Z</time>
      </trkpt>
      <trkpt lat="43.20558" lon="2.41853">
        <ele>109.9</ele>
        <time>2024-05-10T06:34:51Z</time>
      </trkpt>
      <trkpt lat="43.20567" lon="2.41882">
        <ele>109</ele>
        <time>2024-05-10T06:34:52Z</time>
      </trkpt>
      <trkpt lat="43.20575" lon="2.41911">
        <ele>108.7</ele>
        <time>2024-05-10T06:34:53Z</time>
      </trkpt>
      <trkpt lat="43.20583" lon="2.4194">
        <ele>109</ele>
        <time>2024-05-10T06:34:54Z</time>
      </trkpt>
      <trkpt lat="43.20591" lon="2.41971">
        <ele>106.9</ele>
        <time>2024-05-10T06:34:55Z</time>
      </trkpt>
      <trkpt lat="43.20597" lon="2.42002">
        <ele>107</ele>
        <time>2024-05-10T06:34:56Z</time>
      </trkpt>
      <trkpt lat="43.20602" lon="2.42035">
        <ele>106.7</ele>
        <time>2024-05-10T06:34:57Z</time>
      </trkpt>
      <trkpt lat="43.20607" lon="2.42068">
        <ele>106.7</ele>
        <time>2024-05-10T06:34:58Z</time>
      </trkpt>
      <trkpt lat="43.20609" lon="2.42101">
        <ele>106.3</ele>
        <time>2024-05-10T06:34:59Z</time>
      </trkpt>
      <trkpt lat="43.2061" lon="2.42135">
        <ele>106.2</ele>
        <time>2024-05-10T06:35:00Z</time>
      </trkpt>
      <trkpt lat="43.2061" lon="2.42169">
        <ele>105.2</ele>
        <time>2024-05-10T06:35:01Z</time>
      </trkpt>
      <trkpt lat="43.20608" lon="2.42202">
        <ele>105.5</ele>
        <time>2024-05-10T06:35:02Z</time>
      </trkpt>
      <trkpt lat="43.20605" lon="2.42233">
        <ele>105.8</ele>
        <time>2024-05-10T06:35:03Z</time>
      </trkpt>
      <trkpt lat="43.20603" lon="2.42264">
        <ele>105.5</ele>
        <time>2024-05-10T06:35:04Z</time>
      </trkpt>
      <trkpt lat="43.206" lon="2.42293">
        <ele>105.4</ele>
        <time>2024-05-10T06:35:05Z</time>
      </trkpt>
      <trkpt lat="43.20597" lon="2.42322">
        <ele>104.9</ele>
        <time>2024-05-10T06:35:06Z</time>
      </trkpt>
      <trkpt lat="43.20595" lon="2.4235">
        <ele>104</ele>
        <time>2024-05-10T06:35:07Z</time>
      </trkpt>
      <trkpt lat="43.20593" lon="2.42378">
        <ele>103.3</ele>
        <time>2024-05-10T06:35:08Z</time>
      </trkpt>
      <trkpt lat="43.20591" lon="2.42403">
        <ele>103</ele>
        <time>2024-05-10T06:35:09Z</time>
      </trkpt>
      <trkpt lat="43.2059" lon="2.42428">
        <ele>102.9</ele>
        <time>2024-05-10T06:35:10Z</time>
      </trkpt>
      <trkpt lat="43.2059" lon="2.42447">
        <ele>102.8</ele>
        <time>2024-05-10T06:35:11Z</time>
      </trkpt>
      <trkpt lat="43.20589" lon="2.42462">
        <ele>102.8</ele>
        <time>2024-05-10T06:35:12Z</time>
      </trkpt>
      <trkpt lat="43.20587" lon="2.42472">
        <ele>102.9</ele>
        <time>2024-05-10T06:35:13Z</time>
      </trkpt>
      <trkpt lat="43.20585" lon="2.42478">
        <ele>103.1</ele>
        <time>2024-05-10T06:35:14Z</time>
      </trkpt>
      <trkpt lat="43.20584" lon="2.42482">
        <ele>103.3</ele>
        <time>2024-05-10T06:35:15Z</time>
      </trkpt>
      <trkpt lat="43.20582" lon="2.42483">
        <ele>103.5</ele>
        <time>2024-05-10T06:35:16Z</time>
      </trkpt>
      <trkpt lat="43.20582" lon="2.42484">
        <ele>103.5</ele>
        <time>2024-05-10T06:35:17Z</time>
      </trkpt>
      <trkpt lat="43.20582" lon="2.42484">
        <ele>103.5</ele>
        <time>2024-05-10T06:35:18Z</time>
      </trkpt>
      <trkpt lat="43.20582" lon="2.42484">
        <ele>103.5</ele>
        <time>2024-05-10T06:35:19Z</time>
      </trkpt>
      <trkpt lat="43.20582" lon="2.42484">
        <ele>103.5</ele>
        <time>2024-05-10T06:35:20Z</time>
      </trkpt>
      <trkpt lat="43.20582" lon="2.42484">
        <ele>103.5</ele>
        <time>2024-05-10T06:35:21Z</time>
      </trkpt>
      <trkpt lat="43.20582" lon="2.42484">
        <ele>103.5</ele>
        <time>2024-05-10T06:35:22Z</time>
      </trkpt>
      <trkpt lat="43.20582" lon="2.42484">
        <ele>103.5</ele>
        <time>2024-05-10T06:35:23Z</time>
      </trkpt>
      <trkpt lat="43.2058" lon="2.42488">
        <ele>103.7</ele>
        <time>2024-05-10T06:35:24Z</time>
      </trkpt>
      <trkpt lat="43.20577" lon="2.42493">
        <ele>103.8</ele>
        <time>2024-05-10T06:35:25Z</time>
      </trkpt>
      <trkpt lat="43.20574" lon="2.42502">
        <ele>103.5</ele>
        <time>2024-05-10T06:35:26Z</time>
      </trkpt>
      <trkpt lat="43.20574" lon="2.42512">
        <ele>102.9</ele>
        <time>2024-05-10T06:35:27Z</time>
      </trkpt>
      <trkpt lat="43.20577" lon="2.42521">
        <ele>102.4</ele>
        <time>2024-05-10T06:35:28Z</time>
      </trkpt>
      <trkpt lat="43.20583" lon="2.4253">
        <ele>101.9</ele>
        <time>2024-05-10T06:35:29Z</time>
      </trkpt>
      <trkpt lat="43.2059" lon="2.42539">
        <ele>101.4</ele>
        <time>2024-05-10T06:35:30Z</time>
      </trkpt>
      <trkpt lat="43.20596" lon="2.42553">
        <ele>100.6</ele>
        <time>2024-05-10T06:35:31Z</time>
      </trkpt>
      <trkpt lat="43.20601" lon="2.42571">
        <ele>101</ele>
        <time>2024-05-10T06:35:32Z</time>
      </trkpt>
      <trkpt lat="43.20606" lon="2.42592">
        <ele>100.8</ele>
        <time>2024-05-10T06:35:33Z</time>
      </trkpt>
      <trkpt lat="43.20611" lon="2.42617">
        <ele>99.8</ele>
        <time>2024-05-10T06:35:34Z</time>
      </trkpt>
      <trkpt lat="43.20616" lon="2.42643">
        <ele>99</ele>
        <time>2024-05-10T06:35:35Z</time>
      </trkpt>
      <trkpt lat="43.20621" lon="2.42669">
        <ele>99</ele>
        <time>2024-05-10T06:35:36Z</time>
      </trkpt>
      <trkpt lat="43.20626" lon="2.42697">
        <ele>99.1</ele>
        <time>2024-05-10T06:35:37Z</time>
      </trkpt>
      <trkpt lat="43.20631" lon="2.42726">
        <ele>99.8</ele>
        <time>2024-05-10T06:35:38Z</time>
      </trkpt>
      <trkpt lat="43.20635" lon="2.42756">
        <ele>99.1</ele>
        <time>2024-05-10T06:35:39Z</time>
      </trkpt>
      <trkpt lat="43.20637" lon="2.42786">
        <ele>97.6</ele>
        <time>2024-05-10T06:35:40Z</time>
      </trkpt>
      <trkpt lat="43.20637" lon="2.42818">
        <ele>97.1</ele>
        <time>2024-05-10T06:35:41Z</time>
      </trkpt>
      <trkpt lat="43.20636" lon="2.4285">
        <ele>96.7</ele>
        <time>2024-05-10T06:35:42Z</time>
      </trkpt>
      <trkpt lat="43.20634" lon="2.42882">
        <ele>98.3</ele>
        <time>2024-05-10T06:35:43Z</time>
      </trkpt>
      <trkpt lat="43.20632" lon="2.42915">
        <ele>98.8</ele>
        <time>2024-05-10T06:35:44Z</time>
      </trkpt>
      <trkpt lat="43.20631" lon="2.42946">
        <ele>97.7</ele>
        <time>2024-05-10T06:35:45Z</time>
      </trkpt>
      <trkpt lat="43.20629" lon="2.42977">
        <ele>96</ele>
        <time>2024-05-10T06:35:46Z</time>
      </trkpt>
      <trkpt lat="43.20627" lon="2.43007">
        <ele>95.5</ele>
        <time>2024-05-10T06:35:47Z</time>
      </trkpt>
      <trkpt lat="43.20626" lon="2.43036">
        <ele>94.2</ele>
        <time>2024-05-10T06:35:48Z</time>
      </trkpt>
      <trkpt lat="43.20624" lon="2.43062">
        <ele>93.3</ele>
        <time>2024-05-10T06:35:49Z</time>
      </trkpt>
      <trkpt lat="43.20622" lon="2.43084">
        <ele>92.8</ele>
        <time>2024-05-10T06:35:50Z</time>
      </trkpt>
      <trkpt lat="43.20619" lon="2.43102">
        <ele>91.9</ele>
        <time>2024-05-10T06:35:51Z</time>
      </trkpt>
      <trkpt lat="43.20615" lon="2.43119">
        <ele>90.9</ele>
        <time>2024-05-10T06:35:52Z</time>
      </trkpt>
      <trkpt lat="43.20612" lon="2.43135">
        <ele>90.1</ele>
        <time>2024-05-10T06:35:53Z</time>
      </trkpt>
      <trkpt lat="43.2061" lon="2.43147">
        <ele>89.7</ele>
        <time>2024-05-10T06:35:54Z</time>
      </trkpt>
      <trkpt lat="43.20612" lon="2.43159">
        <ele>89.2</ele>
        <time>2024-05-10T06:35:55Z</time>
      </trkpt>
      <trkpt lat="43.20615" lon="2.43169">
        <ele>88.9</ele>
        <time>2024-05-10T06:35:56Z</time>
      </trkpt>
      <trkpt lat="43.20619" lon="2.43179">
        <ele>89.1</ele>
        <time>2024-05-10T06:35:57Z</time>
      </trkpt>
      <trkpt lat="43.20623" lon="2.4319">
        <ele>89.1</ele>
        <time>2024-05-10T06:35:58Z</time>
      </trkpt>
      <trkpt lat="43.20627" lon="2.43201">
        <ele>89</ele>
        <time>2024-05-10T06:35:59Z</time>
      </trkpt>
      <trkpt lat="43.20629" lon="2.43214">
        <ele>89.2</ele>
        <time>2024-05-10T06:36:00Z</time>
      </trkpt>
      <trkpt lat="43.20628" lon="2.43228">
        <ele>89.3</ele>
        <time>2024-05-10T06:36:01Z</time>
      </trkpt>
      <trkpt lat="43.20626" lon="2.43243">
        <ele>88.8</ele>
        <time>2024-05-10T06:36:02Z</time>
      </trkpt>
      <trkpt lat="43.20621" lon="2.4326">
        <ele>89</ele>
        <time>2024-05-10T06:36:03Z</time>
      </trkpt>
      <trkpt lat="43.20618" lon="2.43277">
        <ele>89.1</ele>
        <time>2024-05-10T06:36:04Z</time>
      </trkpt>
      <trkpt lat="43.20615" lon="2.43292">
        <ele>89.9</ele>
        <time>2024-05-10T06:36:05Z</time>
      </trkpt>
      <trkpt lat="43.20614" lon="2.43306">
        <ele>89.9</ele>
        <time>2024-05-10T06:36:06Z</time>
      </trkpt>
      <trkpt lat="43.20614" lon="2.4332">
        <ele>90</ele>
        <time>2024-05-10T06:36:07Z</time>
      </trkpt>
      <trkpt lat="43.20613" lon="2.43334">
        <ele>90.1</ele>
        <time>2024-05-10T06:36:08Z</time>
      </trkpt>
      <trkpt lat="43.20612" lon="2.43349">
        <ele>90</ele>
        <time>2024-05-10T06:36:09Z</time>
      </trkpt>
      <trkpt lat="43.20612" lon="2.43364">
        <ele>89.9</ele>
        <time>2024-05-10T06:36:10Z</time>
      </trkpt>
      <trkpt lat="43.20611" lon="2.43377">
        <ele>89.4</ele>
        <time>2024-05-10T06:36:11Z</time>
      </trkpt>
      <trkpt lat="43.20611" lon="2.4339">
        <ele>89</ele>
        <time>2024-05-10T06:36:12Z</time>
      </trkpt>
      <trkpt lat="43.20611" lon="2.43404">
        <ele>89</ele>
        <time>2024-05-10T06:36:13Z</time>
      </trkpt>
      <trkpt lat="43.20612" lon="2.43416">
        <ele>89</ele>
        <time>2024-05-10T06:36:14Z</time>
      </trkpt>
      <trkpt lat="43.20612" lon="2.43428">
        <ele>89</ele>
        <time>2024-05-10T06:36:15Z</time>
      </trkpt>
      <trkpt lat="43.20612" lon="2.4344">
        <ele>89</ele>
        <time>2024-05-10T06:36:16Z</time>
      </trkpt>
      <trkpt lat="43.20612" lon="2.4345">
        <ele>88.8</ele>
        <time>2024-05-10T06:36:17Z</time>
      </trkpt>
      <trkpt lat="43.20612" lon="2.43458">
        <ele>88.5</ele>
        <time>2024-05-10T06:36:18Z</time>
      </trkpt>
      <trkpt lat="43.20612" lon="2.43466">
        <ele>88.2</ele>
        <time>2024-05-10T06:36:19Z</time>
      </trkpt>
      <trkpt lat="43.20612" lon="2.43472">
        <ele>87.9</ele>
        <time>2024-05-10T06:36:20Z</time>
      </trkpt>
      <trkpt lat="43.20612" lon="2.4348">
        <ele>87.9</ele>
        <time>2024-05-10T06:36:21Z</time>
      </trkpt>
      <trkpt lat="43.20612" lon="2.4349">
        <ele>87.9</ele>
        <time>2024-05-10T06:36:22Z</time>
      </trkpt>
      <trkpt lat="43.20611" lon="2.43501">
        <ele>88</ele>
        <time>2024-05-10T06:36:23Z</time>
      </trkpt>
      <trkpt lat="43.2061" lon="2.43512">
        <ele>88.1</ele>
        <time>2024-05-10T06:36:24Z</time>
      </trkpt>
      <trkpt lat="43.20609" lon="2.4352">
        <ele>88.2</ele>
        <time>2024-05-10T06:36:25Z</time>
      </trkpt>
      <trkpt lat="43.20609" lon="2.43526">
        <ele>88.2</ele>
        <time>2024-05-10T06:36:26Z</time>
      </trkpt>
      <trkpt lat="43.20609" lon="2.43529">
        <ele>88.2</ele>
        <time>2024-05-10T06:36:27Z</time>
      </trkpt>
      <trkpt lat="43.20611" lon="2.43531">
        <ele>87.9</ele>
        <time>2024-05-10T06:36:28Z</time>
      </trkpt>
      <trkpt lat="43.20612" lon="2.43533">
        <ele>87.8</ele>
        <time>2024-05-10T06:36:29Z</time>
      </trkpt>
      <trkpt lat="43.20612" lon="2.43533">
        <ele>87.8</ele>
        <time>2024-05-10T06:36:30Z</time>
      </trkpt>
      <trkpt lat="43.20612" lon="2.43533">
        <ele>87.8</ele>
        <time>2024-05-10T06:36:31Z</time>
      </trkpt>
      <trkpt lat="43.20612" lon="2.43532">
        <ele>87.8</ele>
        <time>2024-05-10T06:36:32Z</time>
      </trkpt>
      <trkpt lat="43.20612" lon="2.43532">
        <ele>87.8</ele>
        <time>2024-05-10T06:36:33Z</time>
      </trkpt>
      <trkpt lat="43.20612" lon="2.43532">
        <ele>87.8</ele>
        <time>2024-05-10T06:36:34Z</time>
      </trkpt>
      <trkpt lat="43.20612" lon="2.43532">
        <ele>87.8</ele>
        <time>2024-05-10T06:36:35Z</time>
      </trkpt>
      <trkpt lat="43.20613" lon="2.43532">
        <ele>87.7</ele>
        <time>2024-05-10T06:36:36Z</time>
      </trkpt>
      <trkpt lat="43.20613" lon="2.43532">
        <ele>87.7</ele>
        <time>2024-05-10T06:36:37Z</time>
      </trkpt>
      <trkpt lat="43.20616" lon="2.43535">
        <ele>87.4</ele>
        <time>2024-05-10T06:36:38Z</time>
      </trkpt>
      <trkpt lat="43.20619" lon="2.43538">
        <ele>87.2</ele>
        <time>2024-05-10T06:36:39Z</time>
      </trkpt>
      <trkpt lat="43.20627" lon="2.43549">
        <ele>86.5</ele>
        <time>2024-05-10T06:36:40Z</time>
      </trkpt>
      <trkpt lat="43.20632" lon="2.43559">
        <ele>86.2</ele>
        <time>2024-05-10T06:36:41Z</time>
      </trkpt>
      <trkpt lat="43.20638" lon="2.43571">
        <ele>86</ele>
        <time>2024-05-10T06:36:42Z</time>
      </trkpt>
      <trkpt lat="43.20644" lon="2.43582">
        <ele>85.8</ele>
        <time>2024-05-10T06:36:43Z</time>
      </trkpt>
      <trkpt lat="43.2065" lon="2.43594">
        <ele>85.4</ele>
        <time>2024-05-10T06:36:44Z</time>
      </trkpt>
      <trkpt lat="43.20656" lon="2.43607">
        <ele>85.1</ele>
        <time>2024-05-10T06:36:45Z</time>
      </trkpt>
      <trkpt lat="43.20663" lon="2.4362">
        <ele>85</ele>
        <time>2024-05-10T06:36:46Z</time>
      </trkpt>
      <trkpt lat="43.2067" lon="2.43635">
        <ele>84.9</ele>
        <time>2024-05-10T06:36:47Z</time>
      </trkpt>
      <trkpt lat="43.20677" lon="2.43649">
        <ele>84.4</ele>
        <time>2024-05-10T06:36:48Z</time>
      </trkpt>
      <trkpt lat="43.20685" lon="2.43664">
        <ele>84</ele>
        <time>2024-05-10T06:36:49Z</time>
      </trkpt>
      <trkpt lat="43.20692" lon="2.43679">
        <ele>84</ele>
        <time>2024-05-10T06:36:50Z</time>
      </trkpt>
      <trkpt lat="43.207" lon="2.43695">
        <ele>84</ele>
        <time>2024-05-10T06:36:51Z</time>
      </trkpt>
      <trkpt lat="43.20707" lon="2.43711">
        <ele>84</ele>
        <time>2024-05-10T06:36:52Z</time>
      </trkpt>
      <trkpt lat="43.20715" lon="2.43727">
        <ele>84</ele>
        <time>2024-05-10T06:36:53Z</time>
      </trkpt>
      <trkpt lat="43.20723" lon="2.43743">
        <ele>84</ele>
        <time>2024-05-10T06:36:54Z</time>
      </trkpt>
      <trkpt lat="43.20731" lon="2.4376">
        <ele>83.8</ele>
        <time>2024-05-10T06:36:55Z</time>
      </trkpt>
      <trkpt lat="43.20739" lon="2.43776">
        <ele>83.6</ele>
        <time>2024-05-10T06:36:56Z</time>
      </trkpt>
      <trkpt lat="43.20746" lon="2.43791">
        <ele>83.9</ele>
        <time>2024-05-10T06:36:57Z</time>
      </trkpt>
      <trkpt lat="43.20753" lon="2.43806">
        <ele>84</ele>
        <time>2024-05-10T06:36:58Z</time>
      </trkpt>
      <trkpt lat="43.20761" lon="2.4382">
        <ele>84</ele>
        <time>2024-05-10T06:36:59Z</time>
      </trkpt>
      <trkpt lat="43.20767" lon="2.43834">
        <ele>84</ele>
        <time>2024-05-10T06:37:00Z</time>
      </trkpt>
      <trkpt lat="43.20774" lon="2.43847">
        <ele>84</ele>
        <time>2024-05-10T06:37:01Z</time>
      </trkpt>
      <trkpt lat="43.2078" lon="2.43861">
        <ele>84</ele>
        <time>2024-05-10T06:37:02Z</time>
      </trkpt>
      <trkpt lat="43.20787" lon="2.43874">
        <ele>83.7</ele>
        <time>2024-05-10T06:37:03Z</time>
      </trkpt>
      <trkpt lat="43.20792" lon="2.43886">
        <ele>83.6</ele>
        <time>2024-05-10T06:37:04Z</time>
      </trkpt>
      <trkpt lat="43.20798" lon="2.43896">
        <ele>83.7</ele>
        <time>2024-05-10T06:37:05Z</time>
      </trkpt>
      <trkpt lat="43.20803" lon="2.43908">
        <ele>83.9</ele>
        <time>2024-05-10T06:37:06Z</time>
      </trkpt>
      <trkpt lat="43.20809" lon="2.43921">
        <ele>84</ele>
        <time>2024-05-10T06:37:07Z</time>
      </trkpt>
      <trkpt lat="43.20816" lon="2.43934">
        <ele>84</ele>
        <time>2024-05-10T06:37:08Z</time>
      </trkpt>
      <trkpt lat="43.20822" lon="2.43948">
        <ele>84</ele>
        <time>2024-05-10T06:37:09Z</time>
      </trkpt>
      <trkpt lat="43.20829" lon="2.43962">
        <ele>84</ele>
        <time>2024-05-10T06:37:10Z</time>
      </trkpt>
      <trkpt lat="43.20836" lon="2.43976">
        <ele>83.9</ele>
        <time>2024-05-10T06:37:11Z</time>
      </trkpt>
      <trkpt lat="43.20843" lon="2.43989">
        <ele>83.6</ele>
        <time>2024-05-10T06:37:12Z</time>
      </trkpt>
      <trkpt lat="43.2085" lon="2.44">
        <ele>83.6</ele>
        <time>2024-05-10T06:37:13Z</time>
      </trkpt>
      <trkpt lat="43.20857" lon="2.44008">
        <ele>82.6</ele>
        <time>2024-05-10T06:37:14Z</time>
      </trkpt>
      <trkpt lat="43.20863" lon="2.44015">
        <ele>81.2</ele>
        <time>2024-05-10T06:37:15Z</time>
      </trkpt>
      <trkpt lat="43.20869" lon="2.4402">
        <ele>80</ele>
        <time>2024-05-10T06:37:16Z</time>
      </trkpt>
      <trkpt lat="43.20874" lon="2.44024">
        <ele>79.1</ele>
        <time>2024-05-10T06:37:17Z</time>
      </trkpt>
      <trkpt lat="43.20879" lon="2.44028">
        <ele>78.4</ele>
        <time>2024-05-10T06:37:18Z</time>
      </trkpt>
      <trkpt lat="43.20882" lon="2.44031">
        <ele>78.2</ele>
        <time>2024-05-10T06:37:19Z</time>
      </trkpt>
      <trkpt lat="43.20886" lon="2.44034">
        <ele>78.1</ele>
        <time>2024-05-10T06:37:20Z</time>
      </trkpt>
      <trkpt lat="43.20889" lon="2.44036">
        <ele>78</ele>
        <time>2024-05-10T06:37:21Z</time>
      </trkpt>
      <trkpt lat="43.20893" lon="2.4404">
        <ele>78.1</ele>
        <time>2024-05-10T06:37:22Z</time>
      </trkpt>
      <trkpt lat="43.20897" lon="2.44043">
        <ele>78.1</ele>
        <time>2024-05-10T06:37:23Z</time>
      </trkpt>
      <trkpt lat="43.209" lon="2.44046">
        <ele>78.1</ele>
        <time>2024-05-10T06:37:24Z</time>
      </trkpt>
      <trkpt lat="43.20905" lon="2.4405">
        <ele>78.1</ele>
        <time>2024-05-10T06:37:25Z</time>
      </trkpt>
      <trkpt lat="43.2091" lon="2.44053">
        <ele>78.1</ele>
        <time>2024-05-10T06:37:26Z</time>
      </trkpt>
      <trkpt lat="43.20915" lon="2.44057">
        <ele>78</ele>
        <time>2024-05-10T06:37:27Z</time>
      </trkpt>
      <trkpt lat="43.2092" lon="2.44062">
        <ele>78</ele>
        <time>2024-05-10T06:37:28Z</time>
      </trkpt>
      <trkpt lat="43.20926" lon="2.44067">
        <ele>78.1</ele>
        <time>2024-05-10T06:37:29Z</time>
      </trkpt>
      <trkpt lat="43.20932" lon="2.44072">
        <ele>78.3</ele>
        <time>2024-05-10T06:37:30Z</time>
      </trkpt>
      <trkpt lat="43.20939" lon="2.44077">
        <ele>78.6</ele>
        <time>2024-05-10T06:37:31Z</time>
      </trkpt>
      <trkpt lat="43.20945" lon="2.44083">
        <ele>79.1</ele>
        <time>2024-05-10T06:37:32Z</time>
      </trkpt>
      <trkpt lat="43.20948" lon="2.44091">
        <ele>81</ele>
        <time>2024-05-10T06:37:33Z</time>
      </trkpt>
      <trkpt lat="43.20948" lon="2.44099">
        <ele>82.2</ele>
        <time>2024-05-10T06:37:34Z</time>
      </trkpt>
      <trkpt lat="43.20946" lon="2.44108">
        <ele>83.5</ele>
        <time>2024-05-10T06:37:35Z</time>
      </trkpt>
      <trkpt lat="43.20943" lon="2.44118">
        <ele>83.5</ele>
        <time>2024-05-10T06:37:36Z</time>
      </trkpt>
      <trkpt lat="43.2094" lon="2.44128">
        <ele>82.8</ele>
        <time>2024-05-10T06:37:37Z</time>
      </trkpt>
      <trkpt lat="43.20936" lon="2.44139">
        <ele>82.4</ele>
        <time>2024-05-10T06:37:38Z</time>
      </trkpt>
      <trkpt lat="43.20933" lon="2.4415">
        <ele>82.7</ele>
        <time>2024-05-10T06:37:39Z</time>
      </trkpt>
      <trkpt lat="43.2093" lon="2.44159">
        <ele>83.1</ele>
        <time>2024-05-10T06:37:40Z</time>
      </trkpt>
      <trkpt lat="43.20927" lon="2.44167">
        <ele>83.4</ele>
        <time>2024-05-10T06:37:41Z</time>
      </trkpt>
      <trkpt lat="43.20925" lon="2.44175">
        <ele>83.3</ele>
        <time>2024-05-10T06:37:42Z</time>
      </trkpt>
      <trkpt lat="43.20922" lon="2.44183">
        <ele>83.2</ele>
        <time>2024-05-10T06:37:43Z</time>
      </trkpt>
      <trkpt lat="43.2092" lon="2.4419">
        <ele>83.1</ele>
        <time>2024-05-10T06:37:44Z</time>
      </trkpt>
      <trkpt lat="43.20919" lon="2.44196">
        <ele>83.1</ele>
        <time>2024-05-10T06:37:45Z</time>
      </trkpt>
      <trkpt lat="43.20919" lon="2.44201">
        <ele>83.3</ele>
        <time>2024-05-10T06:37:46Z</time>
      </trkpt>
      <trkpt lat="43.2092" lon="2.44206">
        <ele>83.5</ele>
        <time>2024-05-10T06:37:47Z</time>
      </trkpt>
      <trkpt lat="43.20921" lon="2.44212">
        <ele>83.7</ele>
        <time>2024-05-10T06:37:48Z</time>
      </trkpt>
      <trkpt lat="43.20923" lon="2.44219">
        <ele>83.9</ele>
        <time>2024-05-10T06:37:49Z</time>
      </trkpt>
      <trkpt lat="43.20926" lon="2.44225">
        <ele>84</ele>
        <time>2024-05-10T06:37:50Z</time>
      </trkpt>
      <trkpt lat="43.2093" lon="2.44232">
        <ele>84</ele>
        <time>2024-05-10T06:37:51Z</time>
      </trkpt>
      <trkpt lat="43.20935" lon="2.44239">
        <ele>84</ele>
        <time>2024-05-10T06:37:52Z</time>
      </trkpt>
      <trkpt lat="43.20937" lon="2.44244">
        <ele>84</ele>
        <time>2024-05-10T06:37:53Z</time>
      </trkpt>
      <trkpt lat="43.2094" lon="2.44247">
        <ele>84</ele>
        <time>2024-05-10T06:37:54Z</time>
      </trkpt>
      <trkpt lat="43.20942" lon="2.44249">
        <ele>84</ele>
        <time>2024-05-10T06:37:55Z</time>
      </trkpt>
      <trkpt lat="43.20945" lon="2.44252">
        <ele>84.1</ele>
        <time>2024-05-10T06:37:56Z</time>
      </trkpt>
      <trkpt lat="43.20948" lon="2.44256">
        <ele>84.5</ele>
        <time>2024-05-10T06:37:57Z</time>
      </trkpt>
      <trkpt lat="43.20953" lon="2.44261">
        <ele>85.1</ele>
        <time>2024-05-10T06:37:58Z</time>
      </trkpt>
      <trkpt lat="43.20958" lon="2.44267">
        <ele>85.5</ele>
        <time>2024-05-10T06:37:59Z</time>
      </trkpt>
      <trkpt lat="43.20964" lon="2.44274">
        <ele>85.8</ele>
        <time>2024-05-10T06:38:00Z</time>
      </trkpt>
      <trkpt lat="43.2097" lon="2.44281">
        <ele>86</ele>
        <time>2024-05-10T06:38:01Z</time>
      </trkpt>
      <trkpt lat="43.20974" lon="2.44286">
        <ele>86.5</ele>
        <time>2024-05-10T06:38:02Z</time>
      </trkpt>
      <trkpt lat="43.20981" lon="2.44291">
        <ele>87.3</ele>
        <time>2024-05-10T06:38:03Z</time>
      </trkpt>
      <trkpt lat="43.20987" lon="2.44296">
        <ele>87.9</ele>
        <time>2024-05-10T06:38:04Z</time>
      </trkpt>
      <trkpt lat="43.20994" lon="2.44298">
        <ele>88.5</ele>
        <time>2024-05-10T06:38:05Z</time>
      </trkpt>
      <trkpt lat="43.21001" lon="2.443">
        <ele>89.1</ele>
        <time>2024-05-10T06:38:06Z</time>
      </trkpt>
      <trkpt lat="43.21007" lon="2.443">
        <ele>89.5</ele>
        <time>2024-05-10T06:38:07Z</time>
      </trkpt>
      <trkpt lat="43.21012" lon="2.443">
        <ele>89.9</ele>
        <time>2024-05-10T06:38:08Z</time>
      </trkpt>
      <trkpt lat="43.21017" lon="2.443">
        <ele>90.2</ele>
        <time>2024-05-10T06:38:09Z</time>
      </trkpt>
      <trkpt lat="43.21021" lon="2.44299">
        <ele>90.5</ele>
        <time>2024-05-10T06:38:10Z</time>
      </trkpt>
      <trkpt lat="43.21024" lon="2.44299">
        <ele>90.7</ele>
        <time>2024-05-10T06:38:11Z</time>
      </trkpt>
      <trkpt lat="43.21028" lon="2.443">
        <ele>91</ele>
        <time>2024-05-10T06:38:12Z</time>
      </trkpt>
      <trkpt lat="43.21031" lon="2.44303">
        <ele>90.6</ele>
        <time>2024-05-10T06:38:13Z</time>
      </trkpt>
      <trkpt lat="43.21034" lon="2.44308">
        <ele>90</ele>
        <time>2024-05-10T06:38:14Z</time>
      </trkpt>
      <trkpt lat="43.21035" lon="2.44315">
        <ele>89.6</ele>
        <time>2024-05-10T06:38:15Z</time>
      </trkpt>
      <trkpt lat="43.21034" lon="2.44323">
        <ele>89.4</ele>
        <time>2024-05-10T06:38:16Z</time>
      </trkpt>
      <trkpt lat="43.21034" lon="2.44333">
        <ele>89</ele>
        <time>2024-05-10T06:38:17Z</time>
      </trkpt>
      <trkpt lat="43.21034" lon="2.44344">
        <ele>89.9</ele>
        <time>2024-05-10T06:38:18Z</time>
      </trkpt>
      <trkpt lat="43.21033" lon="2.44355">
        <ele>90.9</ele>
        <time>2024-05-10T06:38:19Z</time>
      </trkpt>
      <trkpt lat="43.21032" lon="2.44368">
        <ele>91.3</ele>
        <time>2024-05-10T06:38:20Z</time>
      </trkpt>
      <trkpt lat="43.21032" lon="2.44382">
        <ele>91.3</ele>
        <time>2024-05-10T06:38:21Z</time>
      </trkpt>
      <trkpt lat="43.21031" lon="2.44398">
        <ele>91.2</ele>
        <time>2024-05-10T06:38:22Z</time>
      </trkpt>
      <trkpt lat="43.2103" lon="2.44413">
        <ele>91.2</ele>
        <time>2024-05-10T06:38:23Z</time>
      </trkpt>
      <trkpt lat="43.21029" lon="2.44429">
        <ele>91.5</ele>
        <time>2024-05-10T06:38:24Z</time>
      </trkpt>
      <trkpt lat="43.21028" lon="2.44443">
        <ele>92</ele>
        <time>2024-05-10T06:38:25Z</time>
      </trkpt>
      <trkpt lat="43.21026" lon="2.44457">
        <ele>91.7</ele>
        <time>2024-05-10T06:38:26Z</time>
      </trkpt>
      <trkpt lat="43.21023" lon="2.4447">
        <ele>91.3</ele>
        <time>2024-05-10T06:38:27Z</time>
      </trkpt>
      <trkpt lat="43.2102" lon="2.44484">
        <ele>91.1</ele>
        <time>2024-05-10T06:38:28Z</time>
      </trkpt>
      <trkpt lat="43.21017" lon="2.44497">
        <ele>90.6</ele>
        <time>2024-05-10T06:38:29Z</time>
      </trkpt>
      <trkpt lat="43.21014" lon="2.4451">
        <ele>90.6</ele>
        <time>2024-05-10T06:38:30Z</time>
      </trkpt>
      <trkpt lat="43.2101" lon="2.44523">
        <ele>90.5</ele>
        <time>2024-05-10T06:38:31Z</time>
      </trkpt>
      <trkpt lat="43.21007" lon="2.44536">
        <ele>90.7</ele>
        <time>2024-05-10T06:38:32Z</time>
      </trkpt>
      <trkpt lat="43.21001" lon="2.4455">
        <ele>90.7</ele>
        <time>2024-05-10T06:38:33Z</time>
      </trkpt>
      <trkpt lat="43.20996" lon="2.44564">
        <ele>91.3</ele>
        <time>2024-05-10T06:38:34Z</time>
      </trkpt>
      <trkpt lat="43.20989" lon="2.44578">
        <ele>91.5</ele>
        <time>2024-05-10T06:38:35Z</time>
      </trkpt>
      <trkpt lat="43.20983" lon="2.44592">
        <ele>91.3</ele>
        <time>2024-05-10T06:38:36Z</time>
      </trkpt>
      <trkpt lat="43.20976" lon="2.44607">
        <ele>91.2</ele>
        <time>2024-05-10T06:38:37Z</time>
      </trkpt>
      <trkpt lat="43.20969" lon="2.4462">
        <ele>91.7</ele>
        <time>2024-05-10T06:38:38Z</time>
      </trkpt>
      <trkpt lat="43.20962" lon="2.44633">
        <ele>91.8</ele>
        <time>2024-05-10T06:38:39Z</time>
      </trkpt>
      <trkpt lat="43.20955" lon="2.44647">
        <ele>91.3</ele>
        <time>2024-05-10T06:38:40Z</time>
      </trkpt>
      <trkpt lat="43.20948" lon="2.4466">
        <ele>91</ele>
        <time>2024-05-10T06:38:41Z</time>
      </trkpt>
      <trkpt lat="43.2094" lon="2.44674">
        <ele>90.7</ele>
        <time>2024-05-10T06:38:42Z</time>
      </trkpt>
      <trkpt lat="43.20933" lon="2.44688">
        <ele>90.4</ele>
        <time>2024-05-10T06:38:43Z</time>
      </trkpt>
      <trkpt lat="43.20924" lon="2.44702">
        <ele>90.6</ele>
        <time>2024-05-10T06:38:44Z</time>
      </trkpt>
      <trkpt lat="43.20915" lon="2.44716">
        <ele>90.4</ele>
        <time>2024-05-10T06:38:45Z</time>
      </trkpt>
      <trkpt lat="43.20905" lon="2.44732">
        <ele>90.8</ele>
        <time>2024-05-10T06:38:46Z</time>
      </trkpt>
      <trkpt lat="43.20895" lon="2.44748">
        <ele>91.1</ele>
        <time>2024-05-10T06:38:47Z</time>
      </trkpt>
      <trkpt lat="43.20884" lon="2.44765">
        <ele>91.8</ele>
        <time>2024-05-10T06:38:48Z</time>
      </trkpt>
      <trkpt lat="43.20873" lon="2.44781">
        <ele>91.3</ele>
        <time>2024-05-10T06:38:49Z</time>
      </trkpt>
      <trkpt lat="43.20862" lon="2.44798">
        <ele>91.1</ele>
        <time>2024-05-10T06:38:50Z</time>
      </trkpt>
      <trkpt lat="43.20852" lon="2.44814">
        <ele>91.3</ele>
        <time>2024-05-10T06:38:51Z</time>
      </trkpt>
      <trkpt lat="43.20845" lon="2.44832">
        <ele>92</ele>
        <time>2024-05-10T06:38:52Z</time>
      </trkpt>
      <trkpt lat="43.2084" lon="2.4485">
        <ele>91.2</ele>
        <time>2024-05-10T06:38:53Z</time>
      </trkpt>
      <trkpt lat="43.20837" lon="2.4487">
        <ele>90.9</ele>
        <time>2024-05-10T06:38:54Z</time>
      </trkpt>
      <trkpt lat="43.20835" lon="2.44892">
        <ele>91.2</ele>
        <time>2024-05-10T06:38:55Z</time>
      </trkpt>
      <trkpt lat="43.20834" lon="2.44914">
        <ele>91.1</ele>
        <time>2024-05-10T06:38:56Z</time>
      </trkpt>
      <trkpt lat="43.20834" lon="2.44938">
        <ele>91.1</ele>
        <time>2024-05-10T06:38:57Z</time>
      </trkpt>
      <trkpt lat="43.20833" lon="2.44962">
        <ele>91.7</ele>
        <time>2024-05-10T06:38:58Z</time>
      </trkpt>
      <trkpt lat="43.20832" lon="2.44987">
        <ele>92.7</ele>
        <time>2024-05-10T06:38:59Z</time>
      </trkpt>
      <trkpt lat="43.20831" lon="2.45013">
        <ele>94.2</ele>
        <time>2024-05-10T06:39:00Z</time>
      </trkpt>
      <trkpt lat="43.20829" lon="2.45038">
        <ele>96.8</ele>
        <time>2024-05-10T06:39:01Z</time>
      </trkpt>
      <trkpt lat="43.20825" lon="2.45062">
        <ele>99.4</ele>
        <time>2024-05-10T06:39:02Z</time>
      </trkpt>
      <trkpt lat="43.20822" lon="2.45085">
        <ele>100.6</ele>
        <time>2024-05-10T06:39:03Z</time>
      </trkpt>
      <trkpt lat="43.20818" lon="2.45109">
        <ele>99.9</ele>
        <time>2024-05-10T06:39:04Z</time>
      </trkpt>
      <trkpt lat="43.20812" lon="2.45133">
        <ele>99.5</ele>
        <time>2024-05-10T06:39:05Z</time>
      </trkpt>
      <trkpt lat="43.20807" lon="2.45157">
        <ele>99.7</ele>
        <time>2024-05-10T06:39:06Z</time>
      </trkpt>
      <trkpt lat="43.208" lon="2.45182">
        <ele>100.4</ele>
        <time>2024-05-10T06:39:07Z</time>
      </trkpt>
      <trkpt lat="43.20793" lon="2.45207">
        <ele>100.1</ele>
        <time>2024-05-10T06:39:08Z</time>
      </trkpt>
      <trkpt lat="43.20786" lon="2.45231">
        <ele>99.3</ele>
        <time>2024-05-10T06:39:09Z</time>
      </trkpt>
      <trkpt lat="43.20779" lon="2.45253">
        <ele>99.1</ele>
        <time>2024-05-10T06:39:10Z</time>
      </trkpt>
      <trkpt lat="43.20772" lon="2.45273">
        <ele>99.4</ele>
        <time>2024-05-10T06:39:11Z</time>
      </trkpt>
      <trkpt lat="43.20767" lon="2.45289">
        <ele>99.2</ele>
        <time>2024-05-10T06:39:12Z</time>
      </trkpt>
      <trkpt lat="43.20762" lon="2.45305">
        <ele>98.9</ele>
        <time>2024-05-10T06:39:13Z</time>
      </trkpt>
      <trkpt lat="43.20757" lon="2.45323">
        <ele>99</ele>
        <time>2024-05-10T06:39:14Z</time>
      </trkpt>
      <trkpt lat="43.20753" lon="2.45341">
        <ele>99.4</ele>
        <time>2024-05-10T06:39:15Z</time>
      </trkpt>
      <trkpt lat="43.20748" lon="2.45361">
        <ele>99.9</ele>
        <time>2024-05-10T06:39:16Z</time>
      </trkpt>
      <trkpt lat="43.20745" lon="2.45384">
        <ele>99.8</ele>
        <time>2024-05-10T06:39:17Z</time>
      </trkpt>
      <trkpt lat="43.20743" lon="2.45409">
        <ele>99.2</ele>
        <time>2024-05-10T06:39:18Z</time>
      </trkpt>
      <trkpt lat="43.2074" lon="2.45436">
        <ele>99</ele>
        <time>2024-05-10T06:39:19Z</time>
      </trkpt>
      <trkpt lat="43.20737" lon="2.45462">
        <ele>99</ele>
        <time>2024-05-10T06:39:20Z</time>
      </trkpt>
      <trkpt lat="43.20735" lon="2.45488">
        <ele>99</ele>
        <time>2024-05-10T06:39:21Z</time>
      </trkpt>
      <trkpt lat="43.20734" lon="2.45512">
        <ele>98.8</ele>
        <time>2024-05-10T06:39:22Z</time>
      </trkpt>
      <trkpt lat="43.20736" lon="2.45535">
        <ele>98.5</ele>
        <time>2024-05-10T06:39:23Z</time>
      </trkpt>
      <trkpt lat="43.20739" lon="2.45558">
        <ele>98.4</ele>
        <time>2024-05-10T06:39:24Z</time>
      </trkpt>
      <trkpt lat="43.20743" lon="2.45582">
        <ele>98</ele>
        <time>2024-05-10T06:39:25Z</time>
      </trkpt>
      <trkpt lat="43.20747" lon="2.45607">
        <ele>98</ele>
        <time>2024-05-10T06:39:26Z</time>
      </trkpt>
      <trkpt lat="43.20752" lon="2.45634">
        <ele>97.2</ele>
        <time>2024-05-10T06:39:27Z</time>
      </trkpt>
      <trkpt lat="43.20755" lon="2.45661">
        <ele>97</ele>
        <time>2024-05-10T06:39:28Z</time>
      </trkpt>
      <trkpt lat="43.20758" lon="2.45688">
        <ele>96.5</ele>
        <time>2024-05-10T06:39:29Z</time>
      </trkpt>
      <trkpt lat="43.20759" lon="2.45715">
        <ele>96.6</ele>
        <time>2024-05-10T06:39:30Z</time>
      </trkpt>
      <trkpt lat="43.20758" lon="2.45741">
        <ele>96.9</ele>
        <time>2024-05-10T06:39:31Z</time>
      </trkpt>
      <trkpt lat="43.20756" lon="2.45767">
        <ele>97</ele>
        <time>2024-05-10T06:39:32Z</time>
      </trkpt>
      <trkpt lat="43.20753" lon="2.45791">
        <ele>97</ele>
        <time>2024-05-10T06:39:33Z</time>
      </trkpt>
      <trkpt lat="43.20748" lon="2.45814">
        <ele>97</ele>
        <time>2024-05-10T06:39:34Z</time>
      </trkpt>
      <trkpt lat="43.20742" lon="2.45837">
        <ele>97.3</ele>
        <time>2024-05-10T06:39:35Z</time>
      </trkpt>
      <trkpt lat="43.20734" lon="2.45859">
        <ele>97.6</ele>
        <time>2024-05-10T06:39:36Z</time>
      </trkpt>
      <trkpt lat="43.20727" lon="2.45882">
        <ele>97.8</ele>
        <time>2024-05-10T06:39:37Z</time>
      </trkpt>
      <trkpt lat="43.20719" lon="2.45903">
        <ele>98.1</ele>
        <time>2024-05-10T06:39:38Z</time>
      </trkpt>
      <trkpt lat="43.20711" lon="2.45923">
        <ele>98.3</ele>
        <time>2024-05-10T06:39:39Z</time>
      </trkpt>
      <trkpt lat="43.20704" lon="2.45943">
        <ele>98</ele>
        <time>2024-05-10T06:39:40Z</time>
      </trkpt>
      <trkpt lat="43.20696" lon="2.45962">
        <ele>98</ele>
        <time>2024-05-10T06:39:41Z</time>
      </trkpt>
      <trkpt lat="43.20689" lon="2.45981">
        <ele>98.5</ele>
        <time>2024-05-10T06:39:42Z</time>
      </trkpt>
      <trkpt lat="43.2068" lon="2.45999">
        <ele>99</ele>
        <time>2024-05-10T06:39:43Z</time>
      </trkpt>
      <trkpt lat="43.20672" lon="2.46019">
        <ele>99</ele>
        <time>2024-05-10T06:39:44Z</time>
      </trkpt>
      <trkpt lat="43.20664" lon="2.46038">
        <ele>99</ele>
        <time>2024-05-10T06:39:45Z</time>
      </trkpt>
      <trkpt lat="43.20657" lon="2.46058">
        <ele>99.1</ele>
        <time>2024-05-10T06:39:46Z</time>
      </trkpt>
      <trkpt lat="43.20649" lon="2.46079">
        <ele>99.3</ele>
        <time>2024-05-10T06:39:47Z</time>
      </trkpt>
      <trkpt lat="43.20642" lon="2.461">
        <ele>99.7</ele>
        <time>2024-05-10T06:39:48Z</time>
      </trkpt>
      <trkpt lat="43.20636" lon="2.46122">
        <ele>99.9</ele>
        <time>2024-05-10T06:39:49Z</time>
      </trkpt>
      <trkpt lat="43.2063" lon="2.46146">
        <ele>100.1</ele>
        <time>2024-05-10T06:39:50Z</time>
      </trkpt>
      <trkpt lat="43.20625" lon="2.4617">
        <ele>101.1</ele>
        <time>2024-05-10T06:39:51Z</time>
      </trkpt>
      <trkpt lat="43.20619" lon="2.46195">
        <ele>101.3</ele>
        <time>2024-05-10T06:39:52Z</time>
      </trkpt>
      <trkpt lat="43.20612" lon="2.46222">
        <ele>101.1</ele>
        <time>2024-05-10T06:39:53Z</time>
      </trkpt>
      <trkpt lat="43.20605" lon="2.46249">
        <ele>101.7</ele>
        <time>2024-05-10T06:39:54Z</time>
      </trkpt>
      <trkpt lat="43.20598" lon="2.46276">
        <ele>102</ele>
        <time>2024-05-10T06:39:55Z</time>
      </trkpt>
      <trkpt lat="43.20588" lon="2.46302">
        <ele>102.1</ele>
        <time>2024-05-10T06:39:56Z</time>
      </trkpt>
      <trkpt lat="43.20577" lon="2.46329">
        <ele>103.1</ele>
        <time>2024-05-10T06:39:57Z</time>
      </trkpt>
      <trkpt lat="43.20567" lon="2.46355">
        <ele>103.2</ele>
        <time>2024-05-10T06:39:58Z</time>
      </trkpt>
      <trkpt lat="43.20556" lon="2.46381">
        <ele>103.7</ele>
        <time>2024-05-10T06:39:59Z</time>
      </trkpt>
      <trkpt lat="43.20545" lon="2.46408">
        <ele>103.8</ele>
        <time>2024-05-10T06:40:00Z</time>
      </trkpt>
      <trkpt lat="43.20534" lon="2.46436">
        <ele>104.7</ele>
        <time>2024-05-10T06:40:01Z</time>
      </trkpt>
      <trkpt lat="43.20524" lon="2.46465">
        <ele>105.2</ele>
        <time>2024-05-10T06:40:02Z</time>
      </trkpt>
      <trkpt lat="43.20514" lon="2.46494">
        <ele>105.2</ele>
        <time>2024-05-10T06:40:03Z</time>
      </trkpt>
      <trkpt lat="43.20505" lon="2.46523">
        <ele>105.4</ele>
        <time>2024-05-10T06:40:04Z</time>
      </trkpt>
      <trkpt lat="43.20496" lon="2.46551">
        <ele>106</ele>
        <time>2024-05-10T06:40:05Z</time>
      </trkpt>
      <trkpt lat="43.20487" lon="2.46578">
        <ele>105</ele>
        <time>2024-05-10T06:40:06Z</time>
      </trkpt>
      <trkpt lat="43.20479" lon="2.46605">
        <ele>105.2</ele>
        <time>2024-05-10T06:40:07Z</time>
      </trkpt>
      <trkpt lat="43.20471" lon="2.46632">
        <ele>104.9</ele>
        <time>2024-05-10T06:40:08Z</time>
      </trkpt>
      <trkpt lat="43.20464" lon="2.4666">
        <ele>104.3</ele>
        <time>2024-05-10T06:40:09Z</time>
      </trkpt>
      <trkpt lat="43.20457" lon="2.46688">
        <ele>103.9</ele>
        <time>2024-05-10T06:40:10Z</time>
      </trkpt>
      <trkpt lat="43.20449" lon="2.46716">
        <ele>104</ele>
        <time>2024-05-10T06:40:11Z</time>
      </trkpt>
      <trkpt lat="43.2044" lon="2.46745">
        <ele>104.5</ele>
        <time>2024-05-10T06:40:12Z</time>
      </trkpt>
      <trkpt lat="43.20432" lon="2.46773">
        <ele>104.5</ele>
        <time>2024-05-10T06:40:13Z</time>
      </trkpt>
      <trkpt lat="43.20423" lon="2.46801">
        <ele>104.9</ele>
        <time>2024-05-10T06:40:14Z</time>
      </trkpt>
      <trkpt lat="43.20415" lon="2.46827">
        <ele>104.9</ele>
        <time>2024-05-10T06:40:15Z</time>
      </trkpt>
      <trkpt lat="43.20407" lon="2.46853">
        <ele>104.7</ele>
        <time>2024-05-10T06:40:16Z</time>
      </trkpt>
      <trkpt lat="43.204" lon="2.46879">
        <ele>104.4</ele>
        <time>2024-05-10T06:40:17Z</time>
      </trkpt>
      <trkpt lat="43.20392" lon="2.46902">
        <ele>104.1</ele>
        <time>2024-05-10T06:40:18Z</time>
      </trkpt>
      <trkpt lat="43.20385" lon="2.46927">
        <ele>103.9</ele>
        <time>2024-05-10T06:40:19Z</time>
      </trkpt>
      <trkpt lat="43.20378" lon="2.46952">
        <ele>103.6</ele>
        <time>2024-05-10T06:40:20Z</time>
      </trkpt>
      <trkpt lat="43.20371" lon="2.46978">
        <ele>103.4</ele>
        <time>2024-05-10T06:40:21Z</time>
      </trkpt>
      <trkpt lat="43.20363" lon="2.47004">
        <ele>103.1</ele>
        <time>2024-05-10T06:40:22Z</time>
      </trkpt>
      <trkpt lat="43.20355" lon="2.4703">
        <ele>102.8</ele>
        <time>2024-05-10T06:40:23Z</time>
      </trkpt>
      <trkpt lat="43.20348" lon="2.47056">
        <ele>102.5</ele>
        <time>2024-05-10T06:40:24Z</time>
      </trkpt>
      <trkpt lat="43.2034" lon="2.47083">
        <ele>103</ele>
        <time>2024-05-10T06:40:25Z</time>
      </trkpt>
      <trkpt lat="43.20331" lon="2.4711">
        <ele>102.9</ele>
        <time>2024-05-10T06:40:26Z</time>
      </trkpt>
      <trkpt lat="43.20323" lon="2.47136">
        <ele>102.1</ele>
        <time>2024-05-10T06:40:27Z</time>
      </trkpt>
      <trkpt lat="43.20316" lon="2.47161">
        <ele>102</ele>
        <time>2024-05-10T06:40:28Z</time>
      </trkpt>
      <trkpt lat="43.20311" lon="2.47187">
        <ele>102</ele>
        <time>2024-05-10T06:40:29Z</time>
      </trkpt>
      <trkpt lat="43.20306" lon="2.47212">
        <ele>102</ele>
        <time>2024-05-10T06:40:30Z</time>
      </trkpt>
      <trkpt lat="43.20303" lon="2.47237">
        <ele>101.4</ele>
        <time>2024-05-10T06:40:31Z</time>
      </trkpt>
      <trkpt lat="43.20299" lon="2.47263">
        <ele>100.9</ele>
        <time>2024-05-10T06:40:32Z</time>
      </trkpt>
      <trkpt lat="43.20296" lon="2.47288">
        <ele>100.4</ele>
        <time>2024-05-10T06:40:33Z</time>
      </trkpt>
      <trkpt lat="43.20292" lon="2.47315">
        <ele>99.8</ele>
        <time>2024-05-10T06:40:34Z</time>
      </trkpt>
      <trkpt lat="43.20288" lon="2.47341">
        <ele>99.4</ele>
        <time>2024-05-10T06:40:35Z</time>
      </trkpt>
      <trkpt lat="43.20283" lon="2.47365">
        <ele>99.3</ele>
        <time>2024-05-10T06:40:36Z</time>
      </trkpt>
      <trkpt lat="43.20275" lon="2.47388">
        <ele>99.8</ele>
        <time>2024-05-10T06:40:37Z</time>
      </trkpt>
      <trkpt lat="43.20266" lon="2.4741">
        <ele>99.6</ele>
        <time>2024-05-10T06:40:38Z</time>
      </trkpt>
      <trkpt lat="43.20254" lon="2.47431">
        <ele>98.9</ele>
        <time>2024-05-10T06:40:39Z</time>
      </trkpt>
      <trkpt lat="43.20242" lon="2.47453">
        <ele>98.6</ele>
        <time>2024-05-10T06:40:40Z</time>
      </trkpt>
      <trkpt lat="43.20229" lon="2.47475">
        <ele>97.8</ele>
        <time>2024-05-10T06:40:41Z</time>
      </trkpt>
      <trkpt lat="43.20216" lon="2.47498">
        <ele>97.5</ele>
        <time>2024-05-10T06:40:42Z</time>
      </trkpt>
      <trkpt lat="43.20203" lon="2.4752">
        <ele>96.6</ele>
        <time>2024-05-10T06:40:43Z</time>
      </trkpt>
      <trkpt lat="43.2019" lon="2.47543">
        <ele>95.8</ele>
        <time>2024-05-10T06:40:44Z</time>
      </trkpt>
      <trkpt lat="43.20176" lon="2.47566">
        <ele>95.3</ele>
        <time>2024-05-10T06:40:45Z</time>
      </trkpt>
      <trkpt lat="43.20163" lon="2.47588">
        <ele>94.9</ele>
        <time>2024-05-10T06:40:46Z</time>
      </trkpt>
      <trkpt lat="43.2015" lon="2.47611">
        <ele>94.4</ele>
        <time>2024-05-10T06:40:47Z</time>
      </trkpt>
      <trkpt lat="43.20138" lon="2.47633">
        <ele>94</ele>
        <time>2024-05-10T06:40:48Z</time>
      </trkpt>
      <trkpt lat="43.20125" lon="2.47654">
        <ele>93.2</ele>
        <time>2024-05-10T06:40:49Z</time>
      </trkpt>
      <trkpt lat="43.20113" lon="2.47675">
        <ele>93</ele>
        <time>2024-05-10T06:40:50Z</time>
      </trkpt>
      <trkpt lat="43.20102" lon="2.47696">
        <ele>93</ele>
        <time>2024-05-10T06:40:51Z</time>
      </trkpt>
      <trkpt lat="43.20092" lon="2.47719">
        <ele>93</ele>
        <time>2024-05-10T06:40:52Z</time>
      </trkpt>
      <trkpt lat="43.20084" lon="2.47742">
        <ele>92.3</ele>
        <time>2024-05-10T06:40:53Z</time>
      </trkpt>
      <trkpt lat="43.20076" lon="2.47767">
        <ele>92</ele>
        <time>2024-05-10T06:40:54Z</time>
      </trkpt>
      <trkpt lat="43.20069" lon="2.47792">
        <ele>92</ele>
        <time>2024-05-10T06:40:55Z</time>
      </trkpt>
      <trkpt lat="43.20063" lon="2.47818">
        <ele>92</ele>
        <time>2024-05-10T06:40:56Z</time>
      </trkpt>
      <trkpt lat="43.20058" lon="2.47845">
        <ele>92</ele>
        <time>2024-05-10T06:40:57Z</time>
      </trkpt>
      <trkpt lat="43.20054" lon="2.47872">
        <ele>92</ele>
        <time>2024-05-10T06:40:58Z</time>
      </trkpt>
      <trkpt lat="43.20049" lon="2.47899">
        <ele>92</ele>
        <time>2024-05-10T06:40:59Z</time>
      </trkpt>
      <trkpt lat="43.20045" lon="2.47926">
        <ele>92</ele>
        <time>2024-05-10T06:41:00Z</time>
      </trkpt>
      <trkpt lat="43.20041" lon="2.47953">
        <ele>92</ele>
        <time>2024-05-10T06:41:01Z</time>
      </trkpt>
      <trkpt lat="43.20036" lon="2.4798">
        <ele>92</ele>
        <time>2024-05-10T06:41:02Z</time>
      </trkpt>
      <trkpt lat="43.20032" lon="2.48008">
        <ele>92</ele>
        <time>2024-05-10T06:41:03Z</time>
      </trkpt>
      <trkpt lat="43.20028" lon="2.48036">
        <ele>91.7</ele>
        <time>2024-05-10T06:41:04Z</time>
      </trkpt>
      <trkpt lat="43.20024" lon="2.48065">
        <ele>91.3</ele>
        <time>2024-05-10T06:41:05Z</time>
      </trkpt>
      <trkpt lat="43.2002" lon="2.48094">
        <ele>91.4</ele>
        <time>2024-05-10T06:41:06Z</time>
      </trkpt>
      <trkpt lat="43.20017" lon="2.48123">
        <ele>91</ele>
        <time>2024-05-10T06:41:07Z</time>
      </trkpt>
      <trkpt lat="43.20013" lon="2.48151">
        <ele>91</ele>
        <time>2024-05-10T06:41:08Z</time>
      </trkpt>
      <trkpt lat="43.2001" lon="2.4818">
        <ele>91</ele>
        <time>2024-05-10T06:41:09Z</time>
      </trkpt>
      <trkpt lat="43.20006" lon="2.48209">
        <ele>91</ele>
        <time>2024-05-10T06:41:10Z</time>
      </trkpt>
      <trkpt lat="43.20003" lon="2.48238">
        <ele>91</ele>
        <time>2024-05-10T06:41:11Z</time>
      </trkpt>
      <trkpt lat="43.19999" lon="2.48268">
        <ele>91</ele>
        <time>2024-05-10T06:41:12Z</time>
      </trkpt>
      <trkpt lat="43.19995" lon="2.48298">
        <ele>91</ele>
        <time>2024-05-10T06:41:13Z</time>
      </trkpt>
      <trkpt lat="43.19992" lon="2.48327">
        <ele>91</ele>
        <time>2024-05-10T06:41:14Z</time>
      </trkpt>
      <trkpt lat="43.19988" lon="2.48357">
        <ele>91</ele>
        <time>2024-05-10T06:41:15Z</time>
      </trkpt>
      <trkpt lat="43.19984" lon="2.48386">
        <ele>91</ele>
        <time>2024-05-10T06:41:16Z</time>
      </trkpt>
      <trkpt lat="43.19981" lon="2.48413">
        <ele>90.4</ele>
        <time>2024-05-10T06:41:17Z</time>
      </trkpt>
      <trkpt lat="43.19977" lon="2.4844">
        <ele>90.9</ele>
        <time>2024-05-10T06:41:18Z</time>
      </trkpt>
      <trkpt lat="43.19974" lon="2.48466">
        <ele>90.2</ele>
        <time>2024-05-10T06:41:19Z</time>
      </trkpt>
      <trkpt lat="43.19971" lon="2.48491">
        <ele>90</ele>
        <time>2024-05-10T06:41:20Z</time>
      </trkpt>
      <trkpt lat="43.19968" lon="2.48516">
        <ele>90</ele>
        <time>2024-05-10T06:41:21Z</time>
      </trkpt>
      <trkpt lat="43.19965" lon="2.48541">
        <ele>90</ele>
        <time>2024-05-10T06:41:22Z</time>
      </trkpt>
      <trkpt lat="43.19962" lon="2.48564">
        <ele>90</ele>
        <time>2024-05-10T06:41:23Z</time>
      </trkpt>
      <trkpt lat="43.1996" lon="2.48587">
        <ele>90</ele>
        <time>2024-05-10T06:41:24Z</time>
      </trkpt>
      <trkpt lat="43.19957" lon="2.4861">
        <ele>90</ele>
        <time>2024-05-10T06:41:25Z</time>
      </trkpt>
      <trkpt lat="43.19955" lon="2.48632">
        <ele>90</ele>
        <time>2024-05-10T06:41:26Z</time>
      </trkpt>
      <trkpt lat="43.19952" lon="2.48656">
        <ele>90</ele>
        <time>2024-05-10T06:41:27Z</time>
      </trkpt>
      <trkpt lat="43.1995" lon="2.4868">
        <ele>90</ele>
        <time>2024-05-10T06:41:28Z</time>
      </trkpt>
      <trkpt lat="43.19948" lon="2.48705">
        <ele>90</ele>
        <time>2024-05-10T06:41:29Z</time>
      </trkpt>
      <trkpt lat="43.19946" lon="2.4873">
        <ele>90</ele>
        <time>2024-05-10T06:41:30Z</time>
      </trkpt>
      <trkpt lat="43.19944" lon="2.48756">
        <ele>90</ele>
        <time>2024-05-10T06:41:31Z</time>
      </trkpt>
      <trkpt lat="43.19942" lon="2.48783">
        <ele>90</ele>
        <time>2024-05-10T06:41:32Z</time>
      </trkpt>
      <trkpt lat="43.1994" lon="2.4881">
        <ele>90</ele>
        <time>2024-05-10T06:41:33Z</time>
      </trkpt>
      <trkpt lat="43.19939" lon="2.48837">
        <ele>90</ele>
        <time>2024-05-10T06:41:34Z</time>
      </trkpt>
      <trkpt lat="43.19937" lon="2.48865">
        <ele>90</ele>
        <time>2024-05-10T06:41:35Z</time>
      </trkpt>
      <trkpt lat="43.19936" lon="2.48893">
        <ele>90</ele>
        <time>2024-05-10T06:41:36Z</time>
      </trkpt>
      <trkpt lat="43.19935" lon="2.48921">
        <ele>89.7</ele>
        <time>2024-05-10T06:41:37Z</time>
      </trkpt>
      <trkpt lat="43.19933" lon="2.4895">
        <ele>89.5</ele>
        <time>2024-05-10T06:41:38Z</time>
      </trkpt>
      <trkpt lat="43.19932" lon="2.48978">
        <ele>89</ele>
        <time>2024-05-10T06:41:39Z</time>
      </trkpt>
      <trkpt lat="43.1993" lon="2.49008">
        <ele>89</ele>
        <time>2024-05-10T06:41:40Z</time>
      </trkpt>
      <trkpt lat="43.19929" lon="2.49036">
        <ele>89</ele>
        <time>2024-05-10T06:41:41Z</time>
      </trkpt>
      <trkpt lat="43.19928" lon="2.49065">
        <ele>89</ele>
        <time>2024-05-10T06:41:42Z</time>
      </trkpt>
      <trkpt lat="43.19927" lon="2.49092">
        <ele>89</ele>
        <time>2024-05-10T06:41:43Z</time>
      </trkpt>
      <trkpt lat="43.19927" lon="2.49119">
        <ele>89</ele>
        <time>2024-05-10T06:41:44Z</time>
      </trkpt>
      <trkpt lat="43.19926" lon="2.49145">
        <ele>89</ele>
        <time>2024-05-10T06:41:45Z</time>
      </trkpt>
      <trkpt lat="43.19926" lon="2.49172">
        <ele>89</ele>
        <time>2024-05-10T06:41:46Z</time>
      </trkpt>
      <trkpt lat="43.19925" lon="2.49198">
        <ele>89</ele>
        <time>2024-05-10T06:41:47Z</time>
      </trkpt>
      <trkpt lat="43.19924" lon="2.49225">
        <ele>89</ele>
        <time>2024-05-10T06:41:48Z</time>
      </trkpt>
      <trkpt lat="43.19924" lon="2.49252">
        <ele>89</ele>
        <time>2024-05-10T06:41:49Z</time>
      </trkpt>
      <trkpt lat="43.19923" lon="2.49279">
        <ele>89</ele>
        <time>2024-05-10T06:41:50Z</time>
      </trkpt>
      <trkpt lat="43.19922" lon="2.49307">
        <ele>89</ele>
        <time>2024-05-10T06:41:51Z</time>
      </trkpt>
      <trkpt lat="43.19922" lon="2.49335">
        <ele>89</ele>
        <time>2024-05-10T06:41:52Z</time>
      </trkpt>
      <trkpt lat="43.19921" lon="2.49363">
        <ele>89</ele>
        <time>2024-05-10T06:41:53Z</time>
      </trkpt>
      <trkpt lat="43.1992" lon="2.49391">
        <ele>89</ele>
        <time>2024-05-10T06:41:54Z</time>
      </trkpt>
      <trkpt lat="43.19919" lon="2.49418">
        <ele>88.9</ele>
        <time>2024-05-10T06:41:55Z</time>
      </trkpt>
      <trkpt lat="43.19918" lon="2.49446">
        <ele>89</ele>
        <time>2024-05-10T06:41:56Z</time>
      </trkpt>
      <trkpt lat="43.19917" lon="2.49473">
        <ele>89</ele>
        <time>2024-05-10T06:41:57Z</time>
      </trkpt>
      <trkpt lat="43.19916" lon="2.495">
        <ele>89</ele>
        <time>2024-05-10T06:41:58Z</time>
      </trkpt>
      <trkpt lat="43.19915" lon="2.49526">
        <ele>88.1</ele>
        <time>2024-05-10T06:41:59Z</time>
      </trkpt>
      <trkpt lat="43.19914" lon="2.49551">
        <ele>88</ele>
        <time>2024-05-10T06:42:00Z</time>
      </trkpt>
      <trkpt lat="43.19913" lon="2.49576">
        <ele>88</ele>
        <time>2024-05-10T06:42:01Z</time>
      </trkpt>
      <trkpt lat="43.19913" lon="2.496">
        <ele>88</ele>
        <time>2024-05-10T06:42:02Z</time>
      </trkpt>
      <trkpt lat="43.19912" lon="2.49624">
        <ele>88</ele>
        <time>2024-05-10T06:42:03Z</time>
      </trkpt>
      <trkpt lat="43.19911" lon="2.49649">
        <ele>88</ele>
        <time>2024-05-10T06:42:04Z</time>
      </trkpt>
      <trkpt lat="43.1991" lon="2.49674">
        <ele>88</ele>
        <time>2024-05-10T06:42:05Z</time>
      </trkpt>
      <trkpt lat="43.1991" lon="2.497">
        <ele>88</ele>
        <time>2024-05-10T06:42:06Z</time>
      </trkpt>
      <trkpt lat="43.19909" lon="2.49726">
        <ele>87.6</ele>
        <time>2024-05-10T06:42:07Z</time>
      </trkpt>
      <trkpt lat="43.19908" lon="2.49753">
        <ele>86.7</ele>
        <time>2024-05-10T06:42:08Z</time>
      </trkpt>
      <trkpt lat="43.19907" lon="2.4978">
        <ele>86.7</ele>
        <time>2024-05-10T06:42:09Z</time>
      </trkpt>
      <trkpt lat="43.19907" lon="2.49808">
        <ele>87</ele>
        <time>2024-05-10T06:42:10Z</time>
      </trkpt>
      <trkpt lat="43.19906" lon="2.49836">
        <ele>87</ele>
        <time>2024-05-10T06:42:11Z</time>
      </trkpt>
      <trkpt lat="43.19905" lon="2.49865">
        <ele>87</ele>
        <time>2024-05-10T06:42:12Z</time>
      </trkpt>
      <trkpt lat="43.19905" lon="2.49893">
        <ele>87</ele>
        <time>2024-05-10T06:42:13Z</time>
      </trkpt>
      <trkpt lat="43.19904" lon="2.49922">
        <ele>87</ele>
        <time>2024-05-10T06:42:14Z</time>
      </trkpt>
      <trkpt lat="43.19903" lon="2.49951">
        <ele>87</ele>
        <time>2024-05-10T06:42:15Z</time>
      </trkpt>
      <trkpt lat="43.19903" lon="2.4998">
        <ele>87</ele>
        <time>2024-05-10T06:42:16Z</time>
      </trkpt>
      <trkpt lat="43.19902" lon="2.50009">
        <ele>87</ele>
        <time>2024-05-10T06:42:17Z</time>
      </trkpt>
      <trkpt lat="43.19901" lon="2.50038">
        <ele>87</ele>
        <time>2024-05-10T06:42:18Z</time>
      </trkpt>
      <trkpt lat="43.19901" lon="2.50067">
        <ele>87</ele>
        <time>2024-05-10T06:42:19Z</time>
      </trkpt>
      <trkpt lat="43.199" lon="2.50096">
        <ele>86.8</ele>
        <time>2024-05-10T06:42:20Z</time>
      </trkpt>
      <trkpt lat="43.19899" lon="2.50126">
        <ele>86.3</ele>
        <time>2024-05-10T06:42:21Z</time>
      </trkpt>
      <trkpt lat="43.19898" lon="2.50155">
        <ele>85.8</ele>
        <time>2024-05-10T06:42:22Z</time>
      </trkpt>
      <trkpt lat="43.19897" lon="2.50183">
        <ele>85.7</ele>
        <time>2024-05-10T06:42:23Z</time>
      </trkpt>
      <trkpt lat="43.19897" lon="2.50211">
        <ele>85.5</ele>
        <time>2024-05-10T06:42:24Z</time>
      </trkpt>
      <trkpt lat="43.19896" lon="2.50238">
        <ele>85.5</ele>
        <time>2024-05-10T06:42:25Z</time>
      </trkpt>
      <trkpt lat="43.19895" lon="2.50266">
        <ele>85.6</ele>
        <time>2024-05-10T06:42:26Z</time>
      </trkpt>
      <trkpt lat="43.19895" lon="2.50293">
        <ele>85</ele>
        <time>2024-05-10T06:42:27Z</time>
      </trkpt>
      <trkpt lat="43.19894" lon="2.50321">
        <ele>84.6</ele>
        <time>2024-05-10T06:42:28Z</time>
      </trkpt>
      <trkpt lat="43.19893" lon="2.5035">
        <ele>84.6</ele>
        <time>2024-05-10T06:42:29Z</time>
      </trkpt>
      <trkpt lat="43.19892" lon="2.50377">
        <ele>84.2</ele>
        <time>2024-05-10T06:42:30Z</time>
      </trkpt>
      <trkpt lat="43.19891" lon="2.50406">
        <ele>83.8</ele>
        <time>2024-05-10T06:42:31Z</time>
      </trkpt>
      <trkpt lat="43.1989" lon="2.50435">
        <ele>83.3</ele>
        <time>2024-05-10T06:42:32Z</time>
      </trkpt>
      <trkpt lat="43.1989" lon="2.50463">
        <ele>82.3</ele>
        <time>2024-05-10T06:42:33Z</time>
      </trkpt>
      <trkpt lat="43.1989" lon="2.50491">
        <ele>81.9</ele>
        <time>2024-05-10T06:42:34Z</time>
      </trkpt>
      <trkpt lat="43.1989" lon="2.5052">
        <ele>81.2</ele>
        <time>2024-05-10T06:42:35Z</time>
      </trkpt>
      <trkpt lat="43.1989" lon="2.50548">
        <ele>81</ele>
        <time>2024-05-10T06:42:36Z</time>
      </trkpt>
      <trkpt lat="43.19892" lon="2.50576">
        <ele>80.3</ele>
        <time>2024-05-10T06:42:37Z</time>
      </trkpt>
      <trkpt lat="43.19894" lon="2.50605">
        <ele>80.2</ele>
        <time>2024-05-10T06:42:38Z</time>
      </trkpt>
      <trkpt lat="43.19897" lon="2.50634">
        <ele>80.1</ele>
        <time>2024-05-10T06:42:39Z</time>
      </trkpt>
      <trkpt lat="43.19901" lon="2.50662">
        <ele>80</ele>
        <time>2024-05-10T06:42:40Z</time>
      </trkpt>
      <trkpt lat="43.19907" lon="2.50691">
        <ele>79.1</ele>
        <time>2024-05-10T06:42:41Z</time>
      </trkpt>
      <trkpt lat="43.19914" lon="2.50719">
        <ele>79.8</ele>
        <time>2024-05-10T06:42:42Z</time>
      </trkpt>
      <trkpt lat="43.19921" lon="2.50747">
        <ele>80.3</ele>
        <time>2024-05-10T06:42:43Z</time>
      </trkpt>
      <trkpt lat="43.1993" lon="2.50775">
        <ele>81</ele>
        <time>2024-05-10T06:42:44Z</time>
      </trkpt>
      <trkpt lat="43.1994" lon="2.50803">
        <ele>80.9</ele>
        <time>2024-05-10T06:42:45Z</time>
      </trkpt>
      <trkpt lat="43.19952" lon="2.5083">
        <ele>82.7</ele>
        <time>2024-05-10T06:42:46Z</time>
      </trkpt>
      <trkpt lat="43.19964" lon="2.50857">
        <ele>83.4</ele>
        <time>2024-05-10T06:42:47Z</time>
      </trkpt>
      <trkpt lat="43.19978" lon="2.50882">
        <ele>84.2</ele>
        <time>2024-05-10T06:42:48Z</time>
      </trkpt>
      <trkpt lat="43.19991" lon="2.50906">
        <ele>84.5</ele>
        <time>2024-05-10T06:42:49Z</time>
      </trkpt>
      <trkpt lat="43.20005" lon="2.5093">
        <ele>84.8</ele>
        <time>2024-05-10T06:42:50Z</time>
      </trkpt>
      <trkpt lat="43.20018" lon="2.50952">
        <ele>85.9</ele>
        <time>2024-05-10T06:42:51Z</time>
      </trkpt>
      <trkpt lat="43.20031" lon="2.50975">
        <ele>85.3</ele>
        <time>2024-05-10T06:42:52Z</time>
      </trkpt>
      <trkpt lat="43.20045" lon="2.50997">
        <ele>86</ele>
        <time>2024-05-10T06:42:53Z</time>
      </trkpt>
      <trkpt lat="43.20058" lon="2.5102">
        <ele>85.3</ele>
        <time>2024-05-10T06:42:54Z</time>
      </trkpt>
      <trkpt lat="43.20071" lon="2.51041">
        <ele>85.1</ele>
        <time>2024-05-10T06:42:55Z</time>
      </trkpt>
      <trkpt lat="43.20083" lon="2.51062">
        <ele>84.8</ele>
        <time>2024-05-10T06:42:56Z</time>
      </trkpt>
      <trkpt lat="43.20096" lon="2.51084">
        <ele>84.9</ele>
        <time>2024-05-10T06:42:57Z</time>
      </trkpt>
      <trkpt lat="43.20108" lon="2.51105">
        <ele>85</ele>
        <time>2024-05-10T06:42:58Z</time>
      </trkpt>
      <trkpt lat="43.20121" lon="2.51126">
        <ele>85.2</ele>
        <time>2024-05-10T06:42:59Z</time>
      </trkpt>
      <trkpt lat="43.20132" lon="2.51147">
        <ele>85</ele>
        <time>2024-05-10T06:43:00Z</time>
      </trkpt>
      <trkpt lat="43.20144" lon="2.51168">
        <ele>84.5</ele>
        <time>2024-05-10T06:43:01Z</time>
      </trkpt>
      <trkpt lat="43.20155" lon="2.5119">
        <ele>84.4</ele>
        <time>2024-05-10T06:43:02Z</time>
      </trkpt>
      <trkpt lat="43.20167" lon="2.51213">
        <ele>84.4</ele>
        <time>2024-05-10T06:43:03Z</time>
      </trkpt>
      <trkpt lat="43.20177" lon="2.51237">
        <ele>83.9</ele>
        <time>2024-05-10T06:43:04Z</time>
      </trkpt>
      <trkpt lat="43.20188" lon="2.51262">
        <ele>83.9</ele>
        <time>2024-05-10T06:43:05Z</time>
      </trkpt>
      <trkpt lat="43.20198" lon="2.51287">
        <ele>83.8</ele>
        <time>2024-05-10T06:43:06Z</time>
      </trkpt>
      <trkpt lat="43.20207" lon="2.51313">
        <ele>83.3</ele>
        <time>2024-05-10T06:43:07Z</time>
      </trkpt>
      <trkpt lat="43.20215" lon="2.5134">
        <ele>83.2</ele>
        <time>2024-05-10T06:43:08Z</time>
      </trkpt>
      <trkpt lat="43.20222" lon="2.51367">
        <ele>82.8</ele>
        <time>2024-05-10T06:43:09Z</time>
      </trkpt>
      <trkpt lat="43.2023" lon="2.51394">
        <ele>82.5</ele>
        <time>2024-05-10T06:43:10Z</time>
      </trkpt>
      <trkpt lat="43.20236" lon="2.51422">
        <ele>82.4</ele>
        <time>2024-05-10T06:43:11Z</time>
      </trkpt>
      <trkpt lat="43.20242" lon="2.51451">
        <ele>82.3</ele>
        <time>2024-05-10T06:43:12Z</time>
      </trkpt>
      <trkpt lat="43.20248" lon="2.51481">
        <ele>81.9</ele>
        <time>2024-05-10T06:43:13Z</time>
      </trkpt>
      <trkpt lat="43.20253" lon="2.51511">
        <ele>82.2</ele>
        <time>2024-05-10T06:43:14Z</time>
      </trkpt>
      <trkpt lat="43.20258" lon="2.51542">
        <ele>82.2</ele>
        <time>2024-05-10T06:43:15Z</time>
      </trkpt>
      <trkpt lat="43.20263" lon="2.51573">
        <ele>82.1</ele>
        <time>2024-05-10T06:43:16Z</time>
      </trkpt>
      <trkpt lat="43.20269" lon="2.51604">
        <ele>82.4</ele>
        <time>2024-05-10T06:43:17Z</time>
      </trkpt>
      <trkpt lat="43.20275" lon="2.51636">
        <ele>82.7</ele>
        <time>2024-05-10T06:43:18Z</time>
      </trkpt>
      <trkpt lat="43.2028" lon="2.51668">
        <ele>83.1</ele>
        <time>2024-05-10T06:43:19Z</time>
      </trkpt>
      <trkpt lat="43.20286" lon="2.51701">
        <ele>83.1</ele>
        <time>2024-05-10T06:43:20Z</time>
      </trkpt>
      <trkpt lat="43.20291" lon="2.51734">
        <ele>82.9</ele>
        <time>2024-05-10T06:43:21Z</time>
      </trkpt>
      <trkpt lat="43.20297" lon="2.51766">
        <ele>84.3</ele>
        <time>2024-05-10T06:43:22Z</time>
      </trkpt>
      <trkpt lat="43.20302" lon="2.51798">
        <ele>85.5</ele>
        <time>2024-05-10T06:43:23Z</time>
      </trkpt>
      <trkpt lat="43.20307" lon="2.51828">
        <ele>87.2</ele>
        <time>2024-05-10T06:43:24Z</time>
      </trkpt>
      <trkpt lat="43.20312" lon="2.51857">
        <ele>88.9</ele>
        <time>2024-05-10T06:43:25Z</time>
      </trkpt>
      <trkpt lat="43.20317" lon="2.51884">
        <ele>91.9</ele>
        <time>2024-05-10T06:43:26Z</time>
      </trkpt>
      <trkpt lat="43.20322" lon="2.5191">
        <ele>93.3</ele>
        <time>2024-05-10T06:43:27Z</time>
      </trkpt>
      <trkpt lat="43.20326" lon="2.51934">
        <ele>91.9</ele>
        <time>2024-05-10T06:43:28Z</time>
      </trkpt>
      <trkpt lat="43.20329" lon="2.51956">
        <ele>91</ele>
        <time>2024-05-10T06:43:29Z</time>
      </trkpt>
      <trkpt lat="43.20333" lon="2.5198">
        <ele>91.3</ele>
        <time>2024-05-10T06:43:30Z</time>
      </trkpt>
      <trkpt lat="43.20336" lon="2.52005">
        <ele>92.3</ele>
        <time>2024-05-10T06:43:31Z</time>
      </trkpt>
      <trkpt lat="43.20339" lon="2.52028">
        <ele>92.6</ele>
        <time>2024-05-10T06:43:32Z</time>
      </trkpt>
      <trkpt lat="43.20342" lon="2.52053">
        <ele>93.6</ele>
        <time>2024-05-10T06:43:33Z</time>
      </trkpt>
      <trkpt lat="43.20344" lon="2.52077">
        <ele>94.5</ele>
        <time>2024-05-10T06:43:34Z</time>
      </trkpt>
      <trkpt lat="43.20346" lon="2.52102">
        <ele>95.3</ele>
        <time>2024-05-10T06:43:35Z</time>
      </trkpt>
      <trkpt lat="43.20346" lon="2.52127">
        <ele>95.2</ele>
        <time>2024-05-10T06:43:36Z</time>
      </trkpt>
      <trkpt lat="43.20347" lon="2.52151">
        <ele>95.2</ele>
        <time>2024-05-10T06:43:37Z</time>
      </trkpt>
      <trkpt lat="43.20348" lon="2.52177">
        <ele>95.4</ele>
        <time>2024-05-10T06:43:38Z</time>
      </trkpt>
      <trkpt lat="43.20348" lon="2.52202">
        <ele>95.2</ele>
        <time>2024-05-10T06:43:39Z</time>
      </trkpt>
      <trkpt lat="43.20347" lon="2.52228">
        <ele>95.4</ele>
        <time>2024-05-10T06:43:40Z</time>
      </trkpt>
      <trkpt lat="43.20347" lon="2.52255">
        <ele>94.9</ele>
        <time>2024-05-10T06:43:41Z</time>
      </trkpt>
      <trkpt lat="43.20346" lon="2.52282">
        <ele>94.5</ele>
        <time>2024-05-10T06:43:42Z</time>
      </trkpt>
      <trkpt lat="43.20345" lon="2.52309">
        <ele>95</ele>
        <time>2024-05-10T06:43:43Z</time>
      </trkpt>
      <trkpt lat="43.20344" lon="2.52336">
        <ele>95</ele>
        <time>2024-05-10T06:43:44Z</time>
      </trkpt>
      <trkpt lat="43.20343" lon="2.52363">
        <ele>95</ele>
        <time>2024-05-10T06:43:45Z</time>
      </trkpt>
      <trkpt lat="43.20343" lon="2.5239">
        <ele>95</ele>
        <time>2024-05-10T06:43:46Z</time>
      </trkpt>
      <trkpt lat="43.20342" lon="2.52418">
        <ele>95</ele>
        <time>2024-05-10T06:43:47Z</time>
      </trkpt>
      <trkpt lat="43.20342" lon="2.52444">
        <ele>95</ele>
        <time>2024-05-10T06:43:48Z</time>
      </trkpt>
      <trkpt lat="43.20342" lon="2.52471">
        <ele>95</ele>
        <time>2024-05-10T06:43:49Z</time>
      </trkpt>
      <trkpt lat="43.20343" lon="2.52498">
        <ele>95</ele>
        <time>2024-05-10T06:43:50Z</time>
      </trkpt>
      <trkpt lat="43.20344" lon="2.52526">
        <ele>95</ele>
        <time>2024-05-10T06:43:51Z</time>
      </trkpt>
      <trkpt lat="43.20346" lon="2.52553">
        <ele>94.1</ele>
        <time>2024-05-10T06:43:52Z</time>
      </trkpt>
      <trkpt lat="43.20349" lon="2.5258">
        <ele>94</ele>
        <time>2024-05-10T06:43:53Z</time>
      </trkpt>
      <trkpt lat="43.20352" lon="2.52608">
        <ele>94</ele>
        <time>2024-05-10T06:43:54Z</time>
      </trkpt>
      <trkpt lat="43.20355" lon="2.52636">
        <ele>94</ele>
        <time>2024-05-10T06:43:55Z</time>
      </trkpt>
      <trkpt lat="43.20357" lon="2.52664">
        <ele>94</ele>
        <time>2024-05-10T06:43:56Z</time>
      </trkpt>
      <trkpt lat="43.2036" lon="2.52693">
        <ele>94</ele>
        <time>2024-05-10T06:43:57Z</time>
      </trkpt>
      <trkpt lat="43.20363" lon="2.52722">
        <ele>94</ele>
        <time>2024-05-10T06:43:58Z</time>
      </trkpt>
      <trkpt lat="43.20366" lon="2.52751">
        <ele>93.8</ele>
        <time>2024-05-10T06:43:59Z</time>
      </trkpt>
      <trkpt lat="43.20369" lon="2.5278">
        <ele>93.7</ele>
        <time>2024-05-10T06:44:00Z</time>
      </trkpt>
      <trkpt lat="43.20372" lon="2.5281">
        <ele>92.9</ele>
        <time>2024-05-10T06:44:01Z</time>
      </trkpt>
      <trkpt lat="43.20375" lon="2.5284">
        <ele>92.4</ele>
        <time>2024-05-10T06:44:02Z</time>
      </trkpt>
      <trkpt lat="43.20378" lon="2.5287">
        <ele>92.2</ele>
        <time>2024-05-10T06:44:03Z</time>
      </trkpt>
      <trkpt lat="43.20381" lon="2.52899">
        <ele>92.4</ele>
        <time>2024-05-10T06:44:04Z</time>
      </trkpt>
      <trkpt lat="43.20384" lon="2.52928">
        <ele>92.7</ele>
        <time>2024-05-10T06:44:05Z</time>
      </trkpt>
      <trkpt lat="43.20387" lon="2.52957">
        <ele>93</ele>
        <time>2024-05-10T06:44:06Z</time>
      </trkpt>
      <trkpt lat="43.2039" lon="2.52985">
        <ele>93</ele>
        <time>2024-05-10T06:44:07Z</time>
      </trkpt>
      <trkpt lat="43.20392" lon="2.53013">
        <ele>93.1</ele>
        <time>2024-05-10T06:44:08Z</time>
      </trkpt>
      <trkpt lat="43.20393" lon="2.53042">
        <ele>93</ele>
        <time>2024-05-10T06:44:09Z</time>
      </trkpt>
      <trkpt lat="43.20394" lon="2.53071">
        <ele>93</ele>
        <time>2024-05-10T06:44:10Z</time>
      </trkpt>
      <trkpt lat="43.20394" lon="2.531">
        <ele>93</ele>
        <time>2024-05-10T06:44:11Z</time>
      </trkpt>
      <trkpt lat="43.20392" lon="2.5313">
        <ele>92.4</ele>
        <time>2024-05-10T06:44:12Z</time>
      </trkpt>
      <trkpt lat="43.2039" lon="2.53159">
        <ele>92.7</ele>
        <time>2024-05-10T06:44:13Z</time>
      </trkpt>
      <trkpt lat="43.20388" lon="2.53187">
        <ele>92.3</ele>
        <time>2024-05-10T06:44:14Z</time>
      </trkpt>
      <trkpt lat="43.20385" lon="2.53214">
        <ele>92</ele>
        <time>2024-05-10T06:44:15Z</time>
      </trkpt>
      <trkpt lat="43.20382" lon="2.53241">
        <ele>91.5</ele>
        <time>2024-05-10T06:44:16Z</time>
      </trkpt>
      <trkpt lat="43.20379" lon="2.53265">
        <ele>91.4</ele>
        <time>2024-05-10T06:44:17Z</time>
      </trkpt>
      <trkpt lat="43.20377" lon="2.53286">
        <ele>91.4</ele>
        <time>2024-05-10T06:44:18Z</time>
      </trkpt>
      <trkpt lat="43.20375" lon="2.53305">
        <ele>91.5</ele>
        <time>2024-05-10T06:44:19Z</time>
      </trkpt>
      <trkpt lat="43.20373" lon="2.53322">
        <ele>91.6</ele>
        <time>2024-05-10T06:44:20Z</time>
      </trkpt>
      <trkpt lat="43.20371" lon="2.5334">
        <ele>91.6</ele>
        <time>2024-05-10T06:44:21Z</time>
      </trkpt>
      <trkpt lat="43.20369" lon="2.53357">
        <ele>91.5</ele>
        <time>2024-05-10T06:44:22Z</time>
      </trkpt>
      <trkpt lat="43.20368" lon="2.53374">
        <ele>91.4</ele>
        <time>2024-05-10T06:44:23Z</time>
      </trkpt>
      <trkpt lat="43.20366" lon="2.53391">
        <ele>91.4</ele>
        <time>2024-05-10T06:44:24Z</time>
      </trkpt>
      <trkpt lat="43.20364" lon="2.53406">
        <ele>91.1</ele>
        <time>2024-05-10T06:44:25Z</time>
      </trkpt>
      <trkpt lat="43.20362" lon="2.53421">
        <ele>90.9</ele>
        <time>2024-05-10T06:44:26Z</time>
      </trkpt>
      <trkpt lat="43.20361" lon="2.53436">
        <ele>91</ele>
        <time>2024-05-10T06:44:27Z</time>
      </trkpt>
      <trkpt lat="43.2036" lon="2.53451">
        <ele>90.8</ele>
        <time>2024-05-10T06:44:28Z</time>
      </trkpt>
      <trkpt lat="43.20358" lon="2.53467">
        <ele>90.2</ele>
        <time>2024-05-10T06:44:29Z</time>
      </trkpt>
      <trkpt lat="43.20357" lon="2.53484">
        <ele>89.6</ele>
        <time>2024-05-10T06:44:30Z</time>
      </trkpt>
      <trkpt lat="43.20357" lon="2.53501">
        <ele>89.1</ele>
        <time>2024-05-10T06:44:31Z</time>
      </trkpt>
      <trkpt lat="43.20357" lon="2.53519">
        <ele>88.4</ele>
        <time>2024-05-10T06:44:32Z</time>
      </trkpt>
      <trkpt lat="43.20357" lon="2.53537">
        <ele>87.7</ele>
        <time>2024-05-10T06:44:33Z</time>
      </trkpt>
      <trkpt lat="43.20356" lon="2.53556">
        <ele>87.2</ele>
        <time>2024-05-10T06:44:34Z</time>
      </trkpt>
      <trkpt lat="43.20356" lon="2.53575">
        <ele>86.4</ele>
        <time>2024-05-10T06:44:35Z</time>
      </trkpt>
      <trkpt lat="43.20356" lon="2.53594">
        <ele>85.6</ele>
        <time>2024-05-10T06:44:36Z</time>
      </trkpt>
      <trkpt lat="43.20357" lon="2.53612">
        <ele>85</ele>
        <time>2024-05-10T06:44:37Z</time>
      </trkpt>
      <trkpt lat="43.20358" lon="2.53631">
        <ele>84.3</ele>
        <time>2024-05-10T06:44:38Z</time>
      </trkpt>
      <trkpt lat="43.2036" lon="2.5365">
        <ele>83.6</ele>
        <time>2024-05-10T06:44:39Z</time>
      </trkpt>
      <trkpt lat="43.20361" lon="2.5367">
        <ele>82.9</ele>
        <time>2024-05-10T06:44:40Z</time>
      </trkpt>
      <trkpt lat="43.20363" lon="2.53689">
        <ele>82.2</ele>
        <time>2024-05-10T06:44:41Z</time>
      </trkpt>
      <trkpt lat="43.20364" lon="2.53708">
        <ele>82</ele>
        <time>2024-05-10T06:44:42Z</time>
      </trkpt>
      <trkpt lat="43.20365" lon="2.53729">
        <ele>82</ele>
        <time>2024-05-10T06:44:43Z</time>
      </trkpt>
      <trkpt lat="43.20366" lon="2.53748">
        <ele>81.8</ele>
        <time>2024-05-10T06:44:44Z</time>
      </trkpt>
      <trkpt lat="43.20367" lon="2.53767">
        <ele>82.3</ele>
        <time>2024-05-10T06:44:45Z</time>
      </trkpt>
      <trkpt lat="43.20368" lon="2.53786">
        <ele>82.5</ele>
        <time>2024-05-10T06:44:46Z</time>
      </trkpt>
      <trkpt lat="43.20367" lon="2.53803">
        <ele>82.6</ele>
        <time>2024-05-10T06:44:47Z</time>
      </trkpt>
      <trkpt lat="43.20366" lon="2.53819">
        <ele>82.8</ele>
        <time>2024-05-10T06:44:48Z</time>
      </trkpt>
      <trkpt lat="43.20364" lon="2.53834">
        <ele>83</ele>
        <time>2024-05-10T06:44:49Z</time>
      </trkpt>
      <trkpt lat="43.20361" lon="2.53849">
        <ele>83.5</ele>
        <time>2024-05-10T06:44:50Z</time>
      </trkpt>
      <trkpt lat="43.20358" lon="2.53861">
        <ele>83.5</ele>
        <time>2024-05-10T06:44:51Z</time>
      </trkpt>
      <trkpt lat="43.20356" lon="2.53873">
        <ele>81.8</ele>
        <time>2024-05-10T06:44:52Z</time>
      </trkpt>
      <trkpt lat="43.20353" lon="2.53884">
        <ele>80.3</ele>
        <time>2024-05-10T06:44:53Z</time>
      </trkpt>
      <trkpt lat="43.20351" lon="2.53895">
        <ele>80.1</ele>
        <time>2024-05-10T06:44:54Z</time>
      </trkpt>
      <trkpt lat="43.20349" lon="2.53905">
        <ele>80.7</ele>
        <time>2024-05-10T06:44:55Z</time>
      </trkpt>
      <trkpt lat="43.20346" lon="2.53915">
        <ele>81.3</ele>
        <time>2024-05-10T06:44:56Z</time>
      </trkpt>
      <trkpt lat="43.20344" lon="2.53924">
        <ele>81.6</ele>
        <time>2024-05-10T06:44:57Z</time>
      </trkpt>
      <trkpt lat="43.20341" lon="2.53934">
        <ele>82</ele>
        <time>2024-05-10T06:44:58Z</time>
      </trkpt>
      <trkpt lat="43.20339" lon="2.53942">
        <ele>82.5</ele>
        <time>2024-05-10T06:44:59Z</time>
      </trkpt>
      <trkpt lat="43.20337" lon="2.53951">
        <ele>82.7</ele>
        <time>2024-05-10T06:45:00Z</time>
      </trkpt>
      <trkpt lat="43.20335" lon="2.53958">
        <ele>82.9</ele>
        <time>2024-05-10T06:45:01Z</time>
      </trkpt>
      <trkpt lat="43.20334" lon="2.53964">
        <ele>83</ele>
        <time>2024-05-10T06:45:02Z</time>
      </trkpt>
      <trkpt lat="43.20333" lon="2.5397">
        <ele>83</ele>
        <time>2024-05-10T06:45:03Z</time>
      </trkpt>
      <trkpt lat="43.20331" lon="2.53976">
        <ele>82.6</ele>
        <time>2024-05-10T06:45:04Z</time>
      </trkpt>
      <trkpt lat="43.20329" lon="2.53981">
        <ele>82.3</ele>
        <time>2024-05-10T06:45:05Z</time>
      </trkpt>
      <trkpt lat="43.20324" lon="2.53986">
        <ele>81.8</ele>
        <time>2024-05-10T06:45:06Z</time>
      </trkpt>
      <trkpt lat="43.20318" lon="2.53989">
        <ele>81.4</ele>
        <time>2024-05-10T06:45:07Z</time>
      </trkpt>
      <trkpt lat="43.20311" lon="2.5399">
        <ele>81</ele>
        <time>2024-05-10T06:45:08Z</time>
      </trkpt>
      <trkpt lat="43.20303" lon="2.5399">
        <ele>80.5</ele>
        <time>2024-05-10T06:45:09Z</time>
      </trkpt>
      <trkpt lat="43.20294" lon="2.5399">
        <ele>80.2</ele>
        <time>2024-05-10T06:45:10Z</time>
      </trkpt>
      <trkpt lat="43.20286" lon="2.5399">
        <ele>79.9</ele>
        <time>2024-05-10T06:45:11Z</time>
      </trkpt>
      <trkpt lat="43.20277" lon="2.5399">
        <ele>79.6</ele>
        <time>2024-05-10T06:45:12Z</time>
      </trkpt>
      <trkpt lat="43.20268" lon="2.53991">
        <ele>79.3</ele>
        <time>2024-05-10T06:45:13Z</time>
      </trkpt>
      <trkpt lat="43.20259" lon="2.53991">
        <ele>79</ele>
        <time>2024-05-10T06:45:14Z</time>
      </trkpt>
      <trkpt lat="43.2025" lon="2.53991">
        <ele>78.7</ele>
        <time>2024-05-10T06:45:15Z</time>
      </trkpt>
      <trkpt lat="43.20242" lon="2.53991">
        <ele>78</ele>
        <time>2024-05-10T06:45:16Z</time>
      </trkpt>
      <trkpt lat="43.20234" lon="2.53991">
        <ele>77.3</ele>
        <time>2024-05-10T06:45:17Z</time>
      </trkpt>
      <trkpt lat="43.20226" lon="2.53992">
        <ele>76.7</ele>
        <time>2024-05-10T06:45:18Z</time>
      </trkpt>
      <trkpt lat="43.2022" lon="2.53992">
        <ele>76.3</ele>
        <time>2024-05-10T06:45:19Z</time>
      </trkpt>
      <trkpt lat="43.20215" lon="2.53993">
        <ele>76</ele>
        <time>2024-05-10T06:45:20Z</time>
      </trkpt>
      <trkpt lat="43.20211" lon="2.53993">
        <ele>75.7</ele>
        <time>2024-05-10T06:45:21Z</time>
      </trkpt>
      <trkpt lat="43.20207" lon="2.53992">
        <ele>75.3</ele>
        <time>2024-05-10T06:45:22Z</time>
      </trkpt>
      <trkpt lat="43.20205" lon="2.53992">
        <ele>75.2</ele>
        <time>2024-05-10T06:45:23Z</time>
      </trkpt>
      <trkpt lat="43.20204" lon="2.53993">
        <ele>75.2</ele>
        <time>2024-05-10T06:45:24Z</time>
      </trkpt>
      <trkpt lat="43.20202" lon="2.53994">
        <ele>75.1</ele>
        <time>2024-05-10T06:45:25Z</time>
      </trkpt>
      <trkpt lat="43.20202" lon="2.53994">
        <ele>75.1</ele>
        <time>2024-05-10T06:45:26Z</time>
      </trkpt>
      <trkpt lat="43.20202" lon="2.53994">
        <ele>75.1</ele>
        <time>2024-05-10T06:45:27Z</time>
      </trkpt>
      <trkpt lat="43.20201" lon="2.53995">
        <ele>75.1</ele>
        <time>2024-05-10T06:45:28Z</time>
      </trkpt>
      <trkpt lat="43.20201" lon="2.53995">
        <ele>75.1</ele>
        <time>2024-05-10T06:45:29Z</time>
      </trkpt>
      <trkpt lat="43.20201" lon="2.53994">
        <ele>75</ele>
        <time>2024-05-10T06:45:30Z</time>
      </trkpt>
      <trkpt lat="43.20201" lon="2.53995">
        <ele>75.1</ele>
        <time>2024-05-10T06:45:31Z</time>
      </trkpt>
      <trkpt lat="43.20202" lon="2.53995">
        <ele>75.2</ele>
        <time>2024-05-10T06:45:32Z</time>
      </trkpt>
      <trkpt lat="43.20202" lon="2.53995">
        <ele>75.2</ele>
        <time>2024-05-10T06:45:33Z</time>
      </trkpt>
      <trkpt lat="43.20202" lon="2.53995">
        <ele>75.2</ele>
        <time>2024-05-10T06:45:34Z</time>
      </trkpt>
      <trkpt lat="43.20201" lon="2.53996">
        <ele>75.2</ele>
        <time>2024-05-10T06:45:35Z</time>
      </trkpt>
      <trkpt lat="43.20198" lon="2.53999">
        <ele>75.2</ele>
        <time>2024-05-10T06:45:36Z</time>
      </trkpt>
      <trkpt lat="43.20194" lon="2.54008">
        <ele>75.5</ele>
        <time>2024-05-10T06:45:37Z</time>
      </trkpt>
      <trkpt lat="43.20192" lon="2.54016">
        <ele>75.8</ele>
        <time>2024-05-10T06:45:38Z</time>
      </trkpt>
      <trkpt lat="43.20189" lon="2.54026">
        <ele>76.1</ele>
        <time>2024-05-10T06:45:39Z</time>
      </trkpt>
      <trkpt lat="43.20187" lon="2.54038">
        <ele>76.5</ele>
        <time>2024-05-10T06:45:40Z</time>
      </trkpt>
      <trkpt lat="43.20184" lon="2.5405">
        <ele>76.5</ele>
        <time>2024-05-10T06:45:41Z</time>
      </trkpt>
      <trkpt lat="43.20182" lon="2.54063">
        <ele>75.3</ele>
        <time>2024-05-10T06:45:42Z</time>
      </trkpt>
      <trkpt lat="43.2018" lon="2.54075">
        <ele>73.5</ele>
        <time>2024-05-10T06:45:43Z</time>
      </trkpt>
      <trkpt lat="43.2018" lon="2.54087">
        <ele>72.2</ele>
        <time>2024-05-10T06:45:44Z</time>
      </trkpt>
      <trkpt lat="43.2018" lon="2.54096">
        <ele>71.7</ele>
        <time>2024-05-10T06:45:45Z</time>
      </trkpt>
      <trkpt lat="43.20182" lon="2.54106">
        <ele>71.5</ele>
        <time>2024-05-10T06:45:46Z</time>
      </trkpt>
      <trkpt lat="43.20184" lon="2.54115">
        <ele>71.5</ele>
        <time>2024-05-10T06:45:47Z</time>
      </trkpt>
      <trkpt lat="43.20186" lon="2.54124">
        <ele>71.8</ele>
        <time>2024-05-10T06:45:48Z</time>
      </trkpt>
      <trkpt lat="43.20188" lon="2.54133">
        <ele>72.1</ele>
        <time>2024-05-10T06:45:49Z</time>
      </trkpt>
      <trkpt lat="43.2019" lon="2.54141">
        <ele>72.3</ele>
        <time>2024-05-10T06:45:50Z</time>
      </trkpt>
      <trkpt lat="43.20191" lon="2.54147">
        <ele>72.2</ele>
        <time>2024-05-10T06:45:51Z</time>
      </trkpt>
      <trkpt lat="43.20192" lon="2.54151">
        <ele>72.3</ele>
        <time>2024-05-10T06:45:52Z</time>
      </trkpt>
      <trkpt lat="43.20192" lon="2.54154">
        <ele>72.2</ele>
        <time>2024-05-10T06:45:53Z</time>
      </trkpt>
      <trkpt lat="43.20193" lon="2.54157">
        <ele>72.2</ele>
        <time>2024-05-10T06:45:54Z</time>
      </trkpt>
      <trkpt lat="43.20194" lon="2.54159">
        <ele>72.2</ele>
        <time>2024-05-10T06:45:55Z</time>
      </trkpt>
      <trkpt lat="43.20194" lon="2.54162">
        <ele>72.1</ele>
        <time>2024-05-10T06:45:56Z</time>
      </trkpt>
      <trkpt lat="43.20194" lon="2.54164">
        <ele>72</ele>
        <time>2024-05-10T06:45:57Z</time>
      </trkpt>
      <trkpt lat="43.20194" lon="2.54164">
        <ele>72</ele>
        <time>2024-05-10T06:45:58Z</time>
      </trkpt>
      <trkpt lat="43.20195" lon="2.54164">
        <ele>72.2</ele>
        <time>2024-05-10T06:45:59Z</time>
      </trkpt>
      <trkpt lat="43.20194" lon="2.54164">
        <ele>72</ele>
        <time>2024-05-10T06:46:00Z</time>
      </trkpt>
      <trkpt lat="43.20194" lon="2.54164">
        <ele>72</ele>
        <time>2024-05-10T06:46:01Z</time>
      </trkpt>
      <trkpt lat="43.20194" lon="2.54164">
        <ele>72</ele>
        <time>2024-05-10T06:46:02Z</time>
      </trkpt>
      <trkpt lat="43.20194" lon="2.54164">
        <ele>72</ele>
        <time>2024-05-10T06:46:03Z</time>
      </trkpt>
      <trkpt lat="43.20194" lon="2.54164">
        <ele>72</ele>
        <time>2024-05-10T06:46:04Z</time>
      </trkpt>
      <trkpt lat="43.20194" lon="2.54164">
        <ele>72</ele>
        <time>2024-05-10T06:46:05Z</time>
      </trkpt>
      <trkpt lat="43.20194" lon="2.54165">
        <ele>72</ele>
        <time>2024-05-10T06:46:06Z</time>
      </trkpt>
      <trkpt lat="43.20194" lon="2.54165">
        <ele>72</ele>
        <time>2024-05-10T06:46:07Z</time>
      </trkpt>
      <trkpt lat="43.20194" lon="2.54165">
        <ele>72</ele>
        <time>2024-05-10T06:46:08Z</time>
      </trkpt>
      <trkpt lat="43.20194" lon="2.54165">
        <ele>72</ele>
        <time>2024-05-10T06:46:09Z</time>
      </trkpt>
      <trkpt lat="43.20194" lon="2.54165">
        <ele>72</ele>
        <time>2024-05-10T06:46:10Z</time>
      </trkpt>
      <trkpt lat="43.20194" lon="2.54165">
        <ele>72</ele>
        <time>2024-05-10T06:46:11Z</time>
      </trkpt>
      <trkpt lat="43.20194" lon="2.54165">
        <ele>72</ele>
        <time>2024-05-10T06:46:12Z</time>
      </trkpt>
      <trkpt lat="43.20194" lon="2.54165">
        <ele>72</ele>
        <time>2024-05-10T06:46:13Z</time>
      </trkpt>
      <trkpt lat="43.20194" lon="2.54165">
        <ele>72</ele>
        <time>2024-05-10T06:46:14Z</time>
      </trkpt>
      <trkpt lat="43.20194" lon="2.54165">
        <ele>72</ele>
        <time>2024-05-10T06:46:15Z</time>
      </trkpt>
      <trkpt lat="43.20194" lon="2.54165">
        <ele>72</ele>
        <time>2024-05-10T06:46:16Z</time>
      </trkpt>
      <trkpt lat="43.20194" lon="2.54165">
        <ele>72</ele>
        <time>2024-05-10T06:46:17Z</time>
      </trkpt>
      <trkpt lat="43.20194" lon="2.54165">
        <ele>72</ele>
        <time>2024-05-10T06:46:18Z</time>
      </trkpt>
      <trkpt lat="43.20194" lon="2.54165">
        <ele>72</ele>
        <time>2024-05-10T06:46:19Z</time>
      </trkpt>
      <trkpt lat="43.20194" lon="2.54165">
        <ele>72</ele>
        <time>2024-05-10T06:46:20Z</time>
      </trkpt>
      <trkpt lat="43.20194" lon="2.54165">
        <ele>72</ele>
        <time>2024-05-10T06:46:21Z</time>
      </trkpt>
      <trkpt lat="43.20194" lon="2.54165">
        <ele>72</ele>
        <time>2024-05-10T06:46:22Z</time>
      </trkpt>
      <trkpt lat="43.20194" lon="2.54165">
        <ele>72</ele>
        <time>2024-05-10T06:46:23Z</time>
      </trkpt>
      <trkpt lat="43.20194" lon="2.54165">
        <ele>72</ele>
        <time>2024-05-10T06:46:24Z</time>
      </trkpt>
      <trkpt lat="43.20194" lon="2.54165">
        <ele>72</ele>
        <time>2024-05-10T06:46:25Z</time>
      </trkpt>
      <trkpt lat="43.20194" lon="2.54165">
        <ele>72</ele>
        <time>2024-05-10T06:46:26Z</time>
      </trkpt>
      <trkpt lat="43.20194" lon="2.54165">
        <ele>72</ele>
        <time>2024-05-10T06:46:27Z</time>
      </trkpt>
      <trkpt lat="43.20194" lon="2.54165">
        <ele>72</ele>
        <time>2024-05-10T06:46:28Z</time>
      </trkpt>
      <trkpt lat="43.20194" lon="2.54165">
        <ele>72</ele>
        <time>2024-05-10T06:46:29Z</time>
      </trkpt>
      <trkpt lat="43.20194" lon="2.54165">
        <ele>72</ele>
        <time>2024-05-10T06:46:30Z</time>
      </trkpt>
      <trkpt lat="43.20194" lon="2.54165">
        <ele>72</ele>
        <time>2024-05-10T06:46:31Z</time>
      </trkpt>
      <trkpt lat="43.20194" lon="2.54165">
        <ele>72</ele>
        <time>2024-05-10T06:46:32Z</time>
      </trkpt>
      <trkpt lat="43.20194" lon="2.54165">
        <ele>72</ele>
        <time>2024-05-10T06:46:33Z</time>
      </trkpt>
      <trkpt lat="43.20194" lon="2.54165">
        <ele>72</ele>
        <time>2024-05-10T06:46:34Z</time>
      </trkpt>
      <trkpt lat="43.20194" lon="2.54165">
        <ele>72</ele>
        <time>2024-05-10T06:46:35Z</time>
      </trkpt>
      <trkpt lat="43.20194" lon="2.54165">
        <ele>72</ele>
        <time>2024-05-10T06:46:36Z</time>
      </trkpt>
      <trkpt lat="43.20194" lon="2.54165">
        <ele>72</ele>
        <time>2024-05-10T06:46:37Z</time>
      </trkpt>
      <trkpt lat="43.20194" lon="2.54165">
        <ele>72</ele>
        <time>2024-05-10T06:46:38Z</time>
      </trkpt>
      <trkpt lat="43.20194" lon="2.54165">
        <ele>72</ele>
        <time>2024-05-10T06:46:39Z</time>
      </trkpt>
      <trkpt lat="43.20194" lon="2.54165">
        <ele>72</ele>
        <time>2024-05-10T06:46:40Z</time>
      </trkpt>
      <trkpt lat="43.20194" lon="2.54165">
        <ele>72</ele>
        <time>2024-05-10T06:46:41Z</time>
      </trkpt>
      <trkpt lat="43.20194" lon="2.54165">
        <ele>72</ele>
        <time>2024-05-10T06:46:42Z</time>
      </trkpt>
      <trkpt lat="43.20194" lon="2.54165">
        <ele>72</ele>
        <time>2024-05-10T06:46:43Z</time>
      </trkpt>
      <trkpt lat="43.20194" lon="2.54165">
        <ele>72</ele>
        <time>2024-05-10T06:46:44Z</time>
      </trkpt>
      <trkpt lat="43.20194" lon="2.54165">
        <ele>72</ele>
        <time>2024-05-10T06:46:45Z</time>
      </trkpt>
      <trkpt lat="43.20194" lon="2.54165">
        <ele>72</ele>
        <time>2024-05-10T06:46:46Z</time>
      </trkpt>
      <trkpt lat="43.20194" lon="2.54165">
        <ele>72</ele>
        <time>2024-05-10T06:46:47Z</time>
      </trkpt>
      <trkpt lat="43.20194" lon="2.54165">
        <ele>72</ele>
        <time>2024-05-10T06:46:48Z</time>
      </trkpt>
      <trkpt lat="43.20194" lon="2.54165">
        <ele>72</ele>
        <time>2024-05-10T06:46:49Z</time>
      </trkpt>
      <trkpt lat="43.20194" lon="2.54165">
        <ele>72</ele>
        <time>2024-05-10T06:46:50Z</time>
      </trkpt>
      <trkpt lat="43.20194" lon="2.54165">
        <ele>72</ele>
        <time>2024-05-10T06:46:51Z</time>
      </trkpt>
      <trkpt lat="43.20194" lon="2.54165">
        <ele>72</ele>
        <time>2024-05-10T06:46:52Z</time>
      </trkpt>
      <trkpt lat="43.20194" lon="2.54165">
        <ele>72</ele>
        <time>2024-05-10T06:46:53Z</time>
      </trkpt>
      <trkpt lat="43.20194" lon="2.54165">
        <ele>72</ele>
        <time>2024-05-10T06:46:54Z</time>
      </trkpt>
      <trkpt lat="43.20194" lon="2.54165">
        <ele>72</ele>
        <time>2024-05-10T06:46:55Z</time>
      </trkpt>
      <trkpt lat="43.20194" lon="2.54165">
        <ele>72</ele>
        <time>2024-05-10T06:46:56Z</time>
      </trkpt>
      <trkpt lat="43.20194" lon="2.54165">
        <ele>72</ele>
        <time>2024-05-10T06:46:57Z</time>
      </trkpt>
      <trkpt lat="43.20194" lon="2.54165">
        <ele>72</ele>
        <time>2024-05-10T06:46:58Z</time>
      </trkpt>
      <trkpt lat="43.20194" lon="2.54165">
        <ele>72</ele>
        <time>2024-05-10T06:46:59Z</time>
      </trkpt>
      <trkpt lat="43.20194" lon="2.54165">
        <ele>72</ele>
        <time>2024-05-10T06:47:00Z</time>
      </trkpt>
      <trkpt lat="43.20194" lon="2.54165">
        <ele>72</ele>
        <time>2024-05-10T06:47:01Z</time>
      </trkpt>
      <trkpt lat="43.20194" lon="2.54165">
        <ele>72</ele>
        <time>2024-05-10T06:47:02Z</time>
      </trkpt>
      <trkpt lat="43.20194" lon="2.54165">
        <ele>72</ele>
        <time>2024-05-10T06:47:03Z</time>
      </trkpt>
      <trkpt lat="43.20194" lon="2.54165">
        <ele>72</ele>
        <time>2024-05-10T06:47:04Z</time>
      </trkpt>
      <trkpt lat="43.20194" lon="2.54165">
        <ele>72</ele>
        <time>2024-05-10T06:47:05Z</time>
      </trkpt>
      <trkpt lat="43.20194" lon="2.54166">
        <ele>72</ele>
        <time>2024-05-10T06:47:06Z</time>
      </trkpt>
      <trkpt lat="43.20194" lon="2.54166">
        <ele>72</ele>
        <time>2024-05-10T06:47:07Z</time>
      </trkpt>
      <trkpt lat="43.20194" lon="2.54166">
        <ele>72</ele>
        <time>2024-05-10T06:47:08Z</time>
      </trkpt>
      <trkpt lat="43.20194" lon="2.54166">
        <ele>72</ele>
        <time>2024-05-10T06:47:09Z</time>
      </trkpt>
      <trkpt lat="43.20194" lon="2.54167">
        <ele>71.9</ele>
        <time>2024-05-10T06:47:10Z</time>
      </trkpt>
      <trkpt lat="43.20194" lon="2.54167">
        <ele>71.9</ele>
        <time>2024-05-10T06:47:11Z</time>
      </trkpt>
      <trkpt lat="43.20194" lon="2.54167">
        <ele>71.9</ele>
        <time>2024-05-10T06:47:12Z</time>
      </trkpt>
      <trkpt lat="43.20194" lon="2.54167">
        <ele>71.9</ele>
        <time>2024-05-10T06:47:13Z</time>
      </trkpt>
      <trkpt lat="43.20194" lon="2.54167">
        <ele>71.9</ele>
        <time>2024-05-10T06:47:14Z</time>
      </trkpt>
      <trkpt lat="43.20194" lon="2.54167">
        <ele>71.9</ele>
        <time>2024-05-10T06:47:15Z</time>
      </trkpt>
      <trkpt lat="43.20194" lon="2.54167">
        <ele>71.9</ele>
        <time>2024-05-10T06:47:16Z</time>
      </trkpt>
      <trkpt lat="43.20195" lon="2.54167">
        <ele>72</ele>
        <time>2024-05-10T06:47:17Z</time>
      </trkpt>
      <trkpt lat="43.20195" lon="2.54167">
        <ele>72</ele>
        <time>2024-05-10T06:47:18Z</time>
      </trkpt>
      <trkpt lat="43.20195" lon="2.54167">
        <ele>72</ele>
        <time>2024-05-10T06:47:19Z</time>
      </trkpt>
      <trkpt lat="43.20195" lon="2.54167">
        <ele>72</ele>
        <time>2024-05-10T06:47:20Z</time>
      </trkpt>
      <trkpt lat="43.20195" lon="2.54167">
        <ele>72</ele>
        <time>2024-05-10T06:47:21Z</time>
      </trkpt>
      <trkpt lat="43.20195" lon="2.54166">
        <ele>72.1</ele>
        <time>2024-05-10T06:47:22Z</time>
      </trkpt>
      <trkpt lat="43.20195" lon="2.54166">
        <ele>72.1</ele>
        <time>2024-05-10T06:47:23Z</time>
      </trkpt>
      <trkpt lat="43.20195" lon="2.54166">
        <ele>72.1</ele>
        <time>2024-05-10T06:47:24Z</time>
      </trkpt>
      <trkpt lat="43.20195" lon="2.54166">
        <ele>72.1</ele>
        <time>2024-05-10T06:47:25Z</time>
      </trkpt>
      <trkpt lat="43.20195" lon="2.54166">
        <ele>72.1</ele>
        <time>2024-05-10T06:47:26Z</time>
      </trkpt>
      <trkpt lat="43.20195" lon="2.54166">
        <ele>72.1</ele>
        <time>2024-05-10T06:47:27Z</time>
      </trkpt>
      <trkpt lat="43.20195" lon="2.54166">
        <ele>72.1</ele>
        <time>2024-05-10T06:47:28Z</time>
      </trkpt>
      <trkpt lat="43.20195" lon="2.54166">
        <ele>72.1</ele>
        <time>2024-05-10T06:47:29Z</time>
      </trkpt>
      <trkpt lat="43.20195" lon="2.54166">
        <ele>72.1</ele>
        <time>2024-05-10T06:47:30Z</time>
      </trkpt>
      <trkpt lat="43.20195" lon="2.54166">
        <ele>72.1</ele>
        <time>2024-05-10T06:47:31Z</time>
      </trkpt>
      <trkpt lat="43.20195" lon="2.54166">
        <ele>72.1</ele>
        <time>2024-05-10T06:47:32Z</time>
      </trkpt>
      <trkpt lat="43.20195" lon="2.54166">
        <ele>72.1</ele>
        <time>2024-05-10T06:47:33Z</time>
      </trkpt>
      <trkpt lat="43.20195" lon="2.54166">
        <ele>72.1</ele>
        <time>2024-05-10T06:47:34Z</time>
      </trkpt>
      <trkpt lat="43.20195" lon="2.54166">
        <ele>72.1</ele>
        <time>2024-05-10T06:47:35Z</time>
      </trkpt>
      <trkpt lat="43.20195" lon="2.54166">
        <ele>72.1</ele>
        <time>2024-05-10T06:47:36Z</time>
      </trkpt>
      <trkpt lat="43.20195" lon="2.54166">
        <ele>72.1</ele>
        <time>2024-05-10T06:47:37Z</time>
      </trkpt>
      <trkpt lat="43.20195" lon="2.54166">
        <ele>72.1</ele>
        <time>2024-05-10T06:47:38Z</time>
      </trkpt>
      <trkpt lat="43.20195" lon="2.54166">
        <ele>72.1</ele>
        <time>2024-05-10T06:47:39Z</time>
      </trkpt>
      <trkpt lat="43.20195" lon="2.54166">
        <ele>72.1</ele>
        <time>2024-05-10T06:47:40Z</time>
      </trkpt>
      <trkpt lat="43.20195" lon="2.54166">
        <ele>72.1</ele>
        <time>2024-05-10T06:47:41Z</time>
      </trkpt>
      <trkpt lat="43.20195" lon="2.54166">
        <ele>72.1</ele>
        <time>2024-05-10T06:47:42Z</time>
      </trkpt>
      <trkpt lat="43.20195" lon="2.54166">
        <ele>72.1</ele>
        <time>2024-05-10T06:47:43Z</time>
      </trkpt>
      <trkpt lat="43.20195" lon="2.54166">
        <ele>72.1</ele>
        <time>2024-05-10T06:47:44Z</time>
      </trkpt>
      <trkpt lat="43.20195" lon="2.54166">
        <ele>72.1</ele>
        <time>2024-05-10T06:47:45Z</time>
      </trkpt>
      <trkpt lat="43.20195" lon="2.54166">
        <ele>72.1</ele>
        <time>2024-05-10T06:47:46Z</time>
      </trkpt>
      <trkpt lat="43.20195" lon="2.54166">
        <ele>72.1</ele>
        <time>2024-05-10T06:47:47Z</time>
      </trkpt>
      <trkpt lat="43.20195" lon="2.54166">
        <ele>72.1</ele>
        <time>2024-05-10T06:47:48Z</time>
      </trkpt>
      <trkpt lat="43.20195" lon="2.54166">
        <ele>72.1</ele>
        <time>2024-05-10T06:47:49Z</time>
      </trkpt>
      <trkpt lat="43.20196" lon="2.54167">
        <ele>72.2</ele>
        <time>2024-05-10T06:47:50Z</time>
      </trkpt>
      <trkpt lat="43.20196" lon="2.54171">
        <ele>72</ele>
        <time>2024-05-10T06:47:51Z</time>
      </trkpt>
      <trkpt lat="43.20199" lon="2.5418">
        <ele>71.9</ele>
        <time>2024-05-10T06:47:52Z</time>
      </trkpt>
      <trkpt lat="43.20202" lon="2.54191">
        <ele>71.7</ele>
        <time>2024-05-10T06:47:53Z</time>
      </trkpt>
      <trkpt lat="43.20204" lon="2.54201">
        <ele>71.7</ele>
        <time>2024-05-10T06:47:54Z</time>
      </trkpt>
      <trkpt lat="43.20207" lon="2.54212">
        <ele>71.9</ele>
        <time>2024-05-10T06:47:55Z</time>
      </trkpt>
      <trkpt lat="43.2021" lon="2.54223">
        <ele>72.1</ele>
        <time>2024-05-10T06:47:56Z</time>
      </trkpt>
      <trkpt lat="43.20213" lon="2.54235">
        <ele>72.2</ele>
        <time>2024-05-10T06:47:57Z</time>
      </trkpt>
      <trkpt lat="43.20214" lon="2.54247">
        <ele>72.1</ele>
        <time>2024-05-10T06:47:58Z</time>
      </trkpt>
      <trkpt lat="43.20215" lon="2.54259">
        <ele>72.1</ele>
        <time>2024-05-10T06:47:59Z</time>
      </trkpt>
      <trkpt lat="43.20216" lon="2.54271">
        <ele>71.9</ele>
        <time>2024-05-10T06:48:00Z</time>
      </trkpt>
      <trkpt lat="43.20218" lon="2.54283">
        <ele>71.5</ele>
        <time>2024-05-10T06:48:01Z</time>
      </trkpt>
      <trkpt lat="43.20221" lon="2.54294">
        <ele>70.8</ele>
        <time>2024-05-10T06:48:02Z</time>
      </trkpt>
      <trkpt lat="43.20224" lon="2.54304">
        <ele>70.4</ele>
        <time>2024-05-10T06:48:03Z</time>
      </trkpt>
      <trkpt lat="43.20227" lon="2.54314">
        <ele>71</ele>
        <time>2024-05-10T06:48:04Z</time>
      </trkpt>
      <trkpt lat="43.20228" lon="2.54324">
        <ele>71.5</ele>
        <time>2024-05-10T06:48:05Z</time>
      </trkpt>
      <trkpt lat="43.20229" lon="2.54335">
        <ele>72</ele>
        <time>2024-05-10T06:48:06Z</time>
      </trkpt>
      <trkpt lat="43.20229" lon="2.54346">
        <ele>71.9</ele>
        <time>2024-05-10T06:48:07Z</time>
      </trkpt>
      <trkpt lat="43.2023" lon="2.54358">
        <ele>71.9</ele>
        <time>2024-05-10T06:48:08Z</time>
      </trkpt>
      <trkpt lat="43.20232" lon="2.54367">
        <ele>71.9</ele>
        <time>2024-05-10T06:48:09Z</time>
      </trkpt>
      <trkpt lat="43.20236" lon="2.54376">
        <ele>72</ele>
        <time>2024-05-10T06:48:10Z</time>
      </trkpt>
      <trkpt lat="43.20241" lon="2.54384">
        <ele>71.9</ele>
        <time>2024-05-10T06:48:11Z</time>
      </trkpt>
      <trkpt lat="43.20246" lon="2.54391">
        <ele>71.9</ele>
        <time>2024-05-10T06:48:12Z</time>
      </trkpt>
      <trkpt lat="43.20252" lon="2.54398">
        <ele>72.4</ele>
        <time>2024-05-10T06:48:13Z</time>
      </trkpt>
      <trkpt lat="43.20256" lon="2.54407">
        <ele>73.2</ele>
        <time>2024-05-10T06:48:14Z</time>
      </trkpt>
      <trkpt lat="43.20259" lon="2.54417">
        <ele>73.6</ele>
        <time>2024-05-10T06:48:15Z</time>
      </trkpt>
      <trkpt lat="43.20263" lon="2.54427">
        <ele>74.5</ele>
        <time>2024-05-10T06:48:16Z</time>
      </trkpt>
      <trkpt lat="43.20267" lon="2.54438">
        <ele>75.4</ele>
        <time>2024-05-10T06:48:17Z</time>
      </trkpt>
      <trkpt lat="43.2027" lon="2.54449">
        <ele>75.6</ele>
        <time>2024-05-10T06:48:18Z</time>
      </trkpt>
      <trkpt lat="43.20274" lon="2.5446">
        <ele>75.5</ele>
        <time>2024-05-10T06:48:19Z</time>
      </trkpt>
      <trkpt lat="43.20278" lon="2.54471">
        <ele>75.1</ele>
        <time>2024-05-10T06:48:20Z</time>
      </trkpt>
      <trkpt lat="43.20281" lon="2.54482">
        <ele>75.1</ele>
        <time>2024-05-10T06:48:21Z</time>
      </trkpt>
      <trkpt lat="43.20284" lon="2.54493">
        <ele>75</ele>
        <time>2024-05-10T06:48:22Z</time>
      </trkpt>
      <trkpt lat="43.20288" lon="2.54504">
        <ele>75.1</ele>
        <time>2024-05-10T06:48:23Z</time>
      </trkpt>
      <trkpt lat="43.20292" lon="2.54515">
        <ele>75.5</ele>
        <time>2024-05-10T06:48:24Z</time>
      </trkpt>
      <trkpt lat="43.20297" lon="2.54527">
        <ele>76.1</ele>
        <time>2024-05-10T06:48:25Z</time>
      </trkpt>
      <trkpt lat="43.20302" lon="2.54538">
        <ele>75.9</ele>
        <time>2024-05-10T06:48:26Z</time>
      </trkpt>
      <trkpt lat="43.20307" lon="2.54549">
        <ele>75.7</ele>
        <time>2024-05-10T06:48:27Z</time>
      </trkpt>
      <trkpt lat="43.20312" lon="2.5456">
        <ele>75.9</ele>
        <time>2024-05-10T06:48:28Z</time>
      </trkpt>
      <trkpt lat="43.20318" lon="2.5457">
        <ele>76.6</ele>
        <time>2024-05-10T06:48:29Z</time>
      </trkpt>
      <trkpt lat="43.20324" lon="2.54581">
        <ele>77</ele>
        <time>2024-05-10T06:48:30Z</time>
      </trkpt>
      <trkpt lat="43.2033" lon="2.54592">
        <ele>77.1</ele>
        <time>2024-05-10T06:48:31Z</time>
      </trkpt>
      <trkpt lat="43.20335" lon="2.54603">
        <ele>76.9</ele>
        <time>2024-05-10T06:48:32Z</time>
      </trkpt>
      <trkpt lat="43.20341" lon="2.54614">
        <ele>77.4</ele>
        <time>2024-05-10T06:48:33Z</time>
      </trkpt>
      <trkpt lat="43.20347" lon="2.54623">
        <ele>78.3</ele>
        <time>2024-05-10T06:48:34Z</time>
      </trkpt>
      <trkpt lat="43.20353" lon="2.54634">
        <ele>78.6</ele>
        <time>2024-05-10T06:48:35Z</time>
      </trkpt>
      <trkpt lat="43.20359" lon="2.54643">
        <ele>78.9</ele>
        <time>2024-05-10T06:48:36Z</time>
      </trkpt>
      <trkpt lat="43.20366" lon="2.54652">
        <ele>79.4</ele>
        <time>2024-05-10T06:48:37Z</time>
      </trkpt>
      <trkpt lat="43.20373" lon="2.54659">
        <ele>79.7</ele>
        <time>2024-05-10T06:48:38Z</time>
      </trkpt>
      <trkpt lat="43.20381" lon="2.54666">
        <ele>79.8</ele>
        <time>2024-05-10T06:48:39Z</time>
      </trkpt>
      <trkpt lat="43.20388" lon="2.54672">
        <ele>81</ele>
        <time>2024-05-10T06:48:40Z</time>
      </trkpt>
      <trkpt lat="43.20395" lon="2.54675">
        <ele>81.7</ele>
        <time>2024-05-10T06:48:41Z</time>
      </trkpt>
      <trkpt lat="43.20401" lon="2.54679">
        <ele>82.3</ele>
        <time>2024-05-10T06:48:42Z</time>
      </trkpt>
      <trkpt lat="43.20406" lon="2.54683">
        <ele>82.7</ele>
        <time>2024-05-10T06:48:43Z</time>
      </trkpt>
      <trkpt lat="43.20409" lon="2.54687">
        <ele>83</ele>
        <time>2024-05-10T06:48:44Z</time>
      </trkpt>
      <trkpt lat="43.20412" lon="2.54694">
        <ele>83.3</ele>
        <time>2024-05-10T06:48:45Z</time>
      </trkpt>
      <trkpt lat="43.20414" lon="2.54703">
        <ele>83.6</ele>
        <time>2024-05-10T06:48:46Z</time>
      </trkpt>
      <trkpt lat="43.20416" lon="2.54714">
        <ele>83.8</ele>
        <time>2024-05-10T06:48:47Z</time>
      </trkpt>
      <trkpt lat="43.20418" lon="2.54726">
        <ele>84.1</ele>
        <time>2024-05-10T06:48:48Z</time>
      </trkpt>
      <trkpt lat="43.20419" lon="2.54738">
        <ele>84.6</ele>
        <time>2024-05-10T06:48:49Z</time>
      </trkpt>
      <trkpt lat="43.20421" lon="2.5475">
        <ele>85</ele>
        <time>2024-05-10T06:48:50Z</time>
      </trkpt>
      <trkpt lat="43.20422" lon="2.54761">
        <ele>85.3</ele>
        <time>2024-05-10T06:48:51Z</time>
      </trkpt>
      <trkpt lat="43.20423" lon="2.54771">
        <ele>85.6</ele>
        <time>2024-05-10T06:48:52Z</time>
      </trkpt>
      <trkpt lat="43.20424" lon="2.5478">
        <ele>85.9</ele>
        <time>2024-05-10T06:48:53Z</time>
      </trkpt>
      <trkpt lat="43.20425" lon="2.54786">
        <ele>86.4</ele>
        <time>2024-05-10T06:48:54Z</time>
      </trkpt>
      <trkpt lat="43.20425" lon="2.54791">
        <ele>86.8</ele>
        <time>2024-05-10T06:48:55Z</time>
      </trkpt>
      <trkpt lat="43.20426" lon="2.54794">
        <ele>87</ele>
        <time>2024-05-10T06:48:56Z</time>
      </trkpt>
      <trkpt lat="43.20426" lon="2.54796">
        <ele>87.2</ele>
        <time>2024-05-10T06:48:57Z</time>
      </trkpt>
      <trkpt lat="43.20426" lon="2.54798">
        <ele>87.4</ele>
        <time>2024-05-10T06:48:58Z</time>
      </trkpt>
      <trkpt lat="43.20426" lon="2.54799">
        <ele>87.4</ele>
        <time>2024-05-10T06:48:59Z</time>
      </trkpt>
      <trkpt lat="43.20426" lon="2.54799">
        <ele>87.4</ele>
        <time>2024-05-10T06:49:00Z</time>
      </trkpt>
      <trkpt lat="43.20426" lon="2.54799">
        <ele>87.4</ele>
        <time>2024-05-10T06:49:01Z</time>
      </trkpt>
      <trkpt lat="43.20427" lon="2.54799">
        <ele>87.4</ele>
        <time>2024-05-10T06:49:02Z</time>
      </trkpt>
      <trkpt lat="43.20426" lon="2.54799">
        <ele>87.4</ele>
        <time>2024-05-10T06:49:03Z</time>
      </trkpt>
      <trkpt lat="43.20426" lon="2.54798">
        <ele>87.4</ele>
        <time>2024-05-10T06:49:04Z</time>
      </trkpt>
      <trkpt lat="43.20426" lon="2.54798">
        <ele>87.4</ele>
        <time>2024-05-10T06:49:05Z</time>
      </trkpt>
      <trkpt lat="43.20426" lon="2.54798">
        <ele>87.4</ele>
        <time>2024-05-10T06:49:06Z</time>
      </trkpt>
      <trkpt lat="43.20426" lon="2.54798">
        <ele>87.4</ele>
        <time>2024-05-10T06:49:07Z</time>
      </trkpt>
      <trkpt lat="43.20426" lon="2.54798">
        <ele>87.4</ele>
        <time>2024-05-10T06:49:08Z</time>
      </trkpt>
      <trkpt lat="43.20426" lon="2.54798">
        <ele>87.4</ele>
        <time>2024-05-10T06:49:09Z</time>
      </trkpt>
      <trkpt lat="43.20426" lon="2.54798">
        <ele>87.4</ele>
        <time>2024-05-10T06:49:10Z</time>
      </trkpt>
      <trkpt lat="43.20426" lon="2.54798">
        <ele>87.4</ele>
        <time>2024-05-10T06:49:11Z</time>
      </trkpt>
      <trkpt lat="43.20426" lon="2.54798">
        <ele>87.4</ele>
        <time>2024-05-10T06:49:12Z</time>
      </trkpt>
      <trkpt lat="43.20426" lon="2.54798">
        <ele>87.4</ele>
        <time>2024-05-10T06:49:13Z</time>
      </trkpt>
      <trkpt lat="43.20426" lon="2.54798">
        <ele>87.4</ele>
        <time>2024-05-10T06:49:14Z</time>
      </trkpt>
      <trkpt lat="43.20426" lon="2.54798">
        <ele>87.4</ele>
        <time>2024-05-10T06:49:15Z</time>
      </trkpt>
      <trkpt lat="43.20426" lon="2.54798">
        <ele>87.4</ele>
        <time>2024-05-10T06:49:16Z</time>
      </trkpt>
      <trkpt lat="43.20426" lon="2.54798">
        <ele>87.4</ele>
        <time>2024-05-10T06:49:17Z</time>
      </trkpt>
      <trkpt lat="43.20426" lon="2.54798">
        <ele>87.4</ele>
        <time>2024-05-10T06:49:18Z</time>
      </trkpt>
      <trkpt lat="43.20426" lon="2.54798">
        <ele>87.4</ele>
        <time>2024-05-10T06:49:19Z</time>
      </trkpt>
      <trkpt lat="43.20426" lon="2.54798">
        <ele>87.4</ele>
        <time>2024-05-10T06:49:20Z</time>
      </trkpt>
      <trkpt lat="43.20426" lon="2.54798">
        <ele>87.4</ele>
        <time>2024-05-10T06:49:21Z</time>
      </trkpt>
      <trkpt lat="43.20426" lon="2.54798">
        <ele>87.4</ele>
        <time>2024-05-10T06:49:22Z</time>
      </trkpt>
      <trkpt lat="43.20426" lon="2.54798">
        <ele>87.4</ele>
        <time>2024-05-10T06:49:23Z</time>
      </trkpt>
      <trkpt lat="43.20426" lon="2.54798">
        <ele>87.4</ele>
        <time>2024-05-10T06:49:24Z</time>
      </trkpt>
      <trkpt lat="43.20426" lon="2.54798">
        <ele>87.4</ele>
        <time>2024-05-10T06:49:25Z</time>
      </trkpt>
      <trkpt lat="43.20426" lon="2.54798">
        <ele>87.4</ele>
        <time>2024-05-10T06:49:26Z</time>
      </trkpt>
      <trkpt lat="43.20426" lon="2.54798">
        <ele>87.4</ele>
        <time>2024-05-10T06:49:27Z</time>
      </trkpt>
      <trkpt lat="43.20426" lon="2.54798">
        <ele>87.4</ele>
        <time>2024-05-10T06:49:28Z</time>
      </trkpt>
      <trkpt lat="43.20426" lon="2.54798">
        <ele>87.4</ele>
        <time>2024-05-10T06:49:29Z</time>
      </trkpt>
      <trkpt lat="43.20426" lon="2.54798">
        <ele>87.4</ele>
        <time>2024-05-10T06:49:30Z</time>
      </trkpt>
      <trkpt lat="43.20426" lon="2.54798">
        <ele>87.4</ele>
        <time>2024-05-10T06:49:31Z</time>
      </trkpt>
      <trkpt lat="43.20426" lon="2.54798">
        <ele>87.4</ele>
        <time>2024-05-10T06:49:32Z</time>
      </trkpt>
      <trkpt lat="43.20426" lon="2.54798">
        <ele>87.4</ele>
        <time>2024-05-10T06:49:33Z</time>
      </trkpt>
      <trkpt lat="43.20426" lon="2.54798">
        <ele>87.4</ele>
        <time>2024-05-10T06:49:34Z</time>
      </trkpt>
      <trkpt lat="43.20426" lon="2.54798">
        <ele>87.4</ele>
        <time>2024-05-10T06:49:35Z</time>
      </trkpt>
      <trkpt lat="43.20426" lon="2.54798">
        <ele>87.4</ele>
        <time>2024-05-10T06:49:36Z</time>
      </trkpt>
      <trkpt lat="43.20426" lon="2.54798">
        <ele>87.4</ele>
        <time>2024-05-10T06:49:37Z</time>
      </trkpt>
      <trkpt lat="43.20426" lon="2.54798">
        <ele>87.4</ele>
        <time>2024-05-10T06:49:38Z</time>
      </trkpt>
      <trkpt lat="43.20426" lon="2.54798">
        <ele>87.4</ele>
        <time>2024-05-10T06:49:39Z</time>
      </trkpt>
      <trkpt lat="43.20426" lon="2.54798">
        <ele>87.4</ele>
        <time>2024-05-10T06:49:40Z</time>
      </trkpt>
      <trkpt lat="43.20426" lon="2.54798">
        <ele>87.4</ele>
        <time>2024-05-10T06:49:41Z</time>
      </trkpt>
      <trkpt lat="43.20426" lon="2.54799">
        <ele>87.4</ele>
        <time>2024-05-10T06:49:42Z</time>
      </trkpt>
      <trkpt lat="43.20426" lon="2.54799">
        <ele>87.4</ele>
        <time>2024-05-10T06:49:43Z</time>
      </trkpt>
      <trkpt lat="43.20426" lon="2.54798">
        <ele>87.4</ele>
        <time>2024-05-10T06:49:44Z</time>
      </trkpt>
      <trkpt lat="43.20426" lon="2.54798">
        <ele>87.4</ele>
        <time>2024-05-10T06:49:45Z</time>
      </trkpt>
      <trkpt lat="43.20426" lon="2.54798">
        <ele>87.4</ele>
        <time>2024-05-10T06:49:46Z</time>
      </trkpt>
      <trkpt lat="43.20426" lon="2.54798">
        <ele>87.4</ele>
        <time>2024-05-10T06:49:47Z</time>
      </trkpt>
      <trkpt lat="43.20426" lon="2.54798">
        <ele>87.4</ele>
        <time>2024-05-10T06:49:48Z</time>
      </trkpt>
      <trkpt lat="43.20427" lon="2.54799">
        <ele>87.4</ele>
        <time>2024-05-10T06:49:49Z</time>
      </trkpt>
      <trkpt lat="43.20427" lon="2.54801">
        <ele>87.5</ele>
        <time>2024-05-10T06:49:50Z</time>
      </trkpt>
      <trkpt lat="43.20427" lon="2.54803">
        <ele>87.7</ele>
        <time>2024-05-10T06:49:51Z</time>
      </trkpt>
      <trkpt lat="43.20428" lon="2.54805">
        <ele>87.7</ele>
        <time>2024-05-10T06:49:52Z</time>
      </trkpt>
      <trkpt lat="43.20428" lon="2.54808">
        <ele>87.9</ele>
        <time>2024-05-10T06:49:53Z</time>
      </trkpt>
      <trkpt lat="43.20428" lon="2.5481">
        <ele>88</ele>
        <time>2024-05-10T06:49:54Z</time>
      </trkpt>
      <trkpt lat="43.20428" lon="2.54811">
        <ele>88.1</ele>
        <time>2024-05-10T06:49:55Z</time>
      </trkpt>
      <trkpt lat="43.20428" lon="2.54811">
        <ele>88.1</ele>
        <time>2024-05-10T06:49:56Z</time>
      </trkpt>
      <trkpt lat="43.20428" lon="2.54811">
        <ele>88.1</ele>
        <time>2024-05-10T06:49:57Z</time>
      </trkpt>
      <trkpt lat="43.20428" lon="2.54811">
        <ele>88.1</ele>
        <time>2024-05-10T06:49:58Z</time>
      </trkpt>
      <trkpt lat="43.20428" lon="2.54811">
        <ele>88.1</ele>
        <time>2024-05-10T06:49:59Z</time>
      </trkpt>
      <trkpt lat="43.20428" lon="2.54811">
        <ele>88.1</ele>
        <time>2024-05-10T06:50:00Z</time>
      </trkpt>
      <trkpt lat="43.20428" lon="2.54811">
        <ele>88.1</ele>
        <time>2024-05-10T06:50:01Z</time>
      </trkpt>
      <trkpt lat="43.20428" lon="2.54811">
        <ele>88.1</ele>
        <time>2024-05-10T06:50:02Z</time>
      </trkpt>
      <trkpt lat="43.20428" lon="2.54811">
        <ele>88.1</ele>
        <time>2024-05-10T06:50:03Z</time>
      </trkpt>
      <trkpt lat="43.20428" lon="2.54811">
        <ele>88.1</ele>
        <time>2024-05-10T06:50:04Z</time>
      </trkpt>
      <trkpt lat="43.20428" lon="2.54811">
        <ele>88.1</ele>
        <time>2024-05-10T06:50:05Z</time>
      </trkpt>
      <trkpt lat="43.20428" lon="2.54811">
        <ele>88.1</ele>
        <time>2024-05-10T06:50:06Z</time>
      </trkpt>
      <trkpt lat="43.20428" lon="2.54811">
        <ele>88.1</ele>
        <time>2024-05-10T06:50:07Z</time>
      </trkpt>
      <trkpt lat="43.20428" lon="2.54811">
        <ele>88.1</ele>
        <time>2024-05-10T06:50:08Z</time>
      </trkpt>
      <trkpt lat="43.20428" lon="2.54811">
        <ele>88.1</ele>
        <time>2024-05-10T06:50:09Z</time>
      </trkpt>
      <trkpt lat="43.20428" lon="2.54811">
        <ele>88.1</ele>
        <time>2024-05-10T06:50:10Z</time>
      </trkpt>
      <trkpt lat="43.20428" lon="2.54811">
        <ele>88.1</ele>
        <time>2024-05-10T06:50:11Z</time>
      </trkpt>
      <trkpt lat="43.20428" lon="2.54811">
        <ele>88.1</ele>
        <time>2024-05-10T06:50:12Z</time>
      </trkpt>
      <trkpt lat="43.20428" lon="2.54811">
        <ele>88.1</ele>
        <time>2024-05-10T06:50:13Z</time>
      </trkpt>
      <trkpt lat="43.20428" lon="2.54811">
        <ele>88.1</ele>
        <time>2024-05-10T06:50:14Z</time>
      </trkpt>
      <trkpt lat="43.20428" lon="2.54811">
        <ele>88.1</ele>
        <time>2024-05-10T06:50:15Z</time>
      </trkpt>
      <trkpt lat="43.20428" lon="2.54811">
        <ele>88.1</ele>
        <time>2024-05-10T06:50:16Z</time>
      </trkpt>
      <trkpt lat="43.20428" lon="2.54811">
        <ele>88.1</ele>
        <time>2024-05-10T06:50:17Z</time>
      </trkpt>
      <trkpt lat="43.20428" lon="2.54811">
        <ele>88.1</ele>
        <time>2024-05-10T06:50:18Z</time>
      </trkpt>
      <trkpt lat="43.20428" lon="2.54811">
        <ele>88.1</ele>
        <time>2024-05-10T06:50:19Z</time>
      </trkpt>
      <trkpt lat="43.20428" lon="2.54811">
        <ele>88.1</ele>
        <time>2024-05-10T06:50:20Z</time>
      </trkpt>
      <trkpt lat="43.20428" lon="2.54811">
        <ele>88.1</ele>
        <time>2024-05-10T06:50:21Z</time>
      </trkpt>
      <trkpt lat="43.20428" lon="2.54811">
        <ele>88.1</ele>
        <time>2024-05-10T06:50:22Z</time>
      </trkpt>
      <trkpt lat="43.20428" lon="2.54811">
        <ele>88.1</ele>
        <time>2024-05-10T06:50:23Z</time>
      </trkpt>
      <trkpt lat="43.20428" lon="2.54811">
        <ele>88.1</ele>
        <time>2024-05-10T06:50:24Z</time>
      </trkpt>
      <trkpt lat="43.20428" lon="2.54811">
        <ele>88.1</ele>
        <time>2024-05-10T06:50:25Z</time>
      </trkpt>
      <trkpt lat="43.20428" lon="2.54811">
        <ele>88.1</ele>
        <time>2024-05-10T06:50:26Z</time>
      </trkpt>
      <trkpt lat="43.20428" lon="2.54811">
        <ele>88.1</ele>
        <time>2024-05-10T06:50:27Z</time>
      </trkpt>
      <trkpt lat="43.20428" lon="2.54811">
        <ele>88.1</ele>
        <time>2024-05-10T06:50:28Z</time>
      </trkpt>
      <trkpt lat="43.20428" lon="2.54811">
        <ele>88.1</ele>
        <time>2024-05-10T06:50:29Z</time>
      </trkpt>
      <trkpt lat="43.20428" lon="2.54811">
        <ele>88.1</ele>
        <time>2024-05-10T06:50:30Z</time>
      </trkpt>
      <trkpt lat="43.20428" lon="2.54811">
        <ele>88.1</ele>
        <time>2024-05-10T06:50:31Z</time>
      </trkpt>
      <trkpt lat="43.20428" lon="2.54811">
        <ele>88.1</ele>
        <time>2024-05-10T06:50:32Z</time>
      </trkpt>
      <trkpt lat="43.20428" lon="2.54811">
        <ele>88.1</ele>
        <time>2024-05-10T06:50:33Z</time>
      </trkpt>
      <trkpt lat="43.20428" lon="2.54811">
        <ele>88.1</ele>
        <time>2024-05-10T06:50:34Z</time>
      </trkpt>
      <trkpt lat="43.20428" lon="2.54811">
        <ele>88.1</ele>
        <time>2024-05-10T06:50:35Z</time>
      </trkpt>
      <trkpt lat="43.20428" lon="2.54811">
        <ele>88.1</ele>
        <time>2024-05-10T06:50:36Z</time>
      </trkpt>
      <trkpt lat="43.20428" lon="2.54812">
        <ele>88.1</ele>
        <time>2024-05-10T06:50:37Z</time>
      </trkpt>
      <trkpt lat="43.20429" lon="2.54814">
        <ele>88.1</ele>
        <time>2024-05-10T06:50:38Z</time>
      </trkpt>
      <trkpt lat="43.20429" lon="2.54814">
        <ele>88.1</ele>
        <time>2024-05-10T06:50:39Z</time>
      </trkpt>
      <trkpt lat="43.20429" lon="2.54814">
        <ele>88.1</ele>
        <time>2024-05-10T06:50:40Z</time>
      </trkpt>
      <trkpt lat="43.20429" lon="2.54814">
        <ele>88.1</ele>
        <time>2024-05-10T06:50:41Z</time>
      </trkpt>
      <trkpt lat="43.20429" lon="2.54813">
        <ele>88.1</ele>
        <time>2024-05-10T06:50:42Z</time>
      </trkpt>
      <trkpt lat="43.20429" lon="2.54813">
        <ele>88.1</ele>
        <time>2024-05-10T06:50:43Z</time>
      </trkpt>
      <trkpt lat="43.20429" lon="2.54813">
        <ele>88.1</ele>
        <time>2024-05-10T06:50:44Z</time>
      </trkpt>
      <trkpt lat="43.20429" lon="2.54813">
        <ele>88.1</ele>
        <time>2024-05-10T06:50:45Z</time>
      </trkpt>
      <trkpt lat="43.2043" lon="2.54813">
        <ele>88</ele>
        <time>2024-05-10T06:50:46Z</time>
      </trkpt>
      <trkpt lat="43.2043" lon="2.54813">
        <ele>88</ele>
        <time>2024-05-10T06:50:47Z</time>
      </trkpt>
      <trkpt lat="43.2043" lon="2.54814">
        <ele>88</ele>
        <time>2024-05-10T06:50:48Z</time>
      </trkpt>
      <trkpt lat="43.2043" lon="2.54813">
        <ele>88</ele>
        <time>2024-05-10T06:50:49Z</time>
      </trkpt>
      <trkpt lat="43.2043" lon="2.54813">
        <ele>88</ele>
        <time>2024-05-10T06:50:50Z</time>
      </trkpt>
      <trkpt lat="43.2043" lon="2.54812">
        <ele>87.9</ele>
        <time>2024-05-10T06:50:51Z</time>
      </trkpt>
      <trkpt lat="43.20429" lon="2.54812">
        <ele>88</ele>
        <time>2024-05-10T06:50:52Z</time>
      </trkpt>
      <trkpt lat="43.20429" lon="2.54812">
        <ele>88</ele>
        <time>2024-05-10T06:50:53Z</time>
      </trkpt>
      <trkpt lat="43.20429" lon="2.54812">
        <ele>88</ele>
        <time>2024-05-10T06:50:54Z</time>
      </trkpt>
      <trkpt lat="43.20429" lon="2.54812">
        <ele>88</ele>
        <time>2024-05-10T06:50:55Z</time>
      </trkpt>
      <trkpt lat="43.20429" lon="2.54811">
        <ele>88</ele>
        <time>2024-05-10T06:50:56Z</time>
      </trkpt>
      <trkpt lat="43.20429" lon="2.54811">
        <ele>88</ele>
        <time>2024-05-10T06:50:57Z</time>
      </trkpt>
      <trkpt lat="43.20429" lon="2.54811">
        <ele>88</ele>
        <time>2024-05-10T06:50:58Z</time>
      </trkpt>
      <trkpt lat="43.20429" lon="2.54811">
        <ele>88</ele>
        <time>2024-05-10T06:50:59Z</time>
      </trkpt>
      <trkpt lat="43.20428" lon="2.54812">
        <ele>88.1</ele>
        <time>2024-05-10T06:51:00Z</time>
      </trkpt>
      <trkpt lat="43.20428" lon="2.54812">
        <ele>88.1</ele>
        <time>2024-05-10T06:51:01Z</time>
      </trkpt>
      <trkpt lat="43.20428" lon="2.54812">
        <ele>88.1</ele>
        <time>2024-05-10T06:51:02Z</time>
      </trkpt>
      <trkpt lat="43.20428" lon="2.54812">
        <ele>88.1</ele>
        <time>2024-05-10T06:51:03Z</time>
      </trkpt>
      <trkpt lat="43.20429" lon="2.54812">
        <ele>88</ele>
        <time>2024-05-10T06:51:04Z</time>
      </trkpt>
      <trkpt lat="43.20429" lon="2.54812">
        <ele>88</ele>
        <time>2024-05-10T06:51:05Z</time>
      </trkpt>
      <trkpt lat="43.20429" lon="2.54812">
        <ele>88</ele>
        <time>2024-05-10T06:51:06Z</time>
      </trkpt>
      <trkpt lat="43.20429" lon="2.54812">
        <ele>88</ele>
        <time>2024-05-10T06:51:07Z</time>
      </trkpt>
      <trkpt lat="43.20429" lon="2.54812">
        <ele>88</ele>
        <time>2024-05-10T06:51:08Z</time>
      </trkpt>
      <trkpt lat="43.20429" lon="2.54812">
        <ele>88</ele>
        <time>2024-05-10T06:51:09Z</time>
      </trkpt>
      <trkpt lat="43.20429" lon="2.54812">
        <ele>88</ele>
        <time>2024-05-10T06:51:10Z</time>
      </trkpt>
      <trkpt lat="43.20429" lon="2.54812">
        <ele>88</ele>
        <time>2024-05-10T06:51:11Z</time>
      </trkpt>
      <trkpt lat="43.20429" lon="2.54812">
        <ele>88</ele>
        <time>2024-05-10T06:51:12Z</time>
      </trkpt>
      <trkpt lat="43.20429" lon="2.54812">
        <ele>88</ele>
        <time>2024-05-10T06:51:13Z</time>
      </trkpt>
      <trkpt lat="43.20429" lon="2.54812">
        <ele>88</ele>
        <time>2024-05-10T06:51:14Z</time>
      </trkpt>
      <trkpt lat="43.20429" lon="2.54812">
        <ele>88</ele>
        <time>2024-05-10T06:51:15Z</time>
      </trkpt>
      <trkpt lat="43.20429" lon="2.54812">
        <ele>88</ele>
        <time>2024-05-10T06:51:16Z</time>
      </trkpt>
      <trkpt lat="43.20429" lon="2.54812">
        <ele>88</ele>
        <time>2024-05-10T06:51:17Z</time>
      </trkpt>
      <trkpt lat="43.20429" lon="2.54812">
        <ele>88</ele>
        <time>2024-05-10T06:51:18Z</time>
      </trkpt>
      <trkpt lat="43.20429" lon="2.54812">
        <ele>88</ele>
        <time>2024-05-10T06:51:19Z</time>
      </trkpt>
      <trkpt lat="43.20429" lon="2.54812">
        <ele>88</ele>
        <time>2024-05-10T06:51:20Z</time>
      </trkpt>
      <trkpt lat="43.20429" lon="2.54812">
        <ele>88</ele>
        <time>2024-05-10T06:51:21Z</time>
      </trkpt>
      <trkpt lat="43.20429" lon="2.54812">
        <ele>88</ele>
        <time>2024-05-10T06:51:22Z</time>
      </trkpt>
      <trkpt lat="43.20429" lon="2.54812">
        <ele>88</ele>
        <time>2024-05-10T06:51:23Z</time>
      </trkpt>
      <trkpt lat="43.20429" lon="2.54812">
        <ele>88</ele>
        <time>2024-05-10T06:51:24Z</time>
      </trkpt>
      <trkpt lat="43.20429" lon="2.54812">
        <ele>88</ele>
        <time>2024-05-10T06:51:25Z</time>
      </trkpt>
      <trkpt lat="43.20429" lon="2.54812">
        <ele>88</ele>
        <time>2024-05-10T06:51:26Z</time>
      </trkpt>
      <trkpt lat="43.20429" lon="2.54812">
        <ele>88</ele>
        <time>2024-05-10T06:51:27Z</time>
      </trkpt>
      <trkpt lat="43.20429" lon="2.54812">
        <ele>88</ele>
        <time>2024-05-10T06:51:28Z</time>
      </trkpt>
      <trkpt lat="43.20429" lon="2.54812">
        <ele>88</ele>
        <time>2024-05-10T06:51:29Z</time>
      </trkpt>
      <trkpt lat="43.20429" lon="2.54812">
        <ele>88</ele>
        <time>2024-05-10T06:51:30Z</time>
      </trkpt>
      <trkpt lat="43.20429" lon="2.54812">
        <ele>88</ele>
        <time>2024-05-10T06:51:31Z</time>
      </trkpt>
      <trkpt lat="43.20429" lon="2.54812">
        <ele>88</ele>
        <time>2024-05-10T06:51:32Z</time>
      </trkpt>
      <trkpt lat="43.20429" lon="2.54812">
        <ele>88</ele>
        <time>2024-05-10T06:51:33Z</time>
      </trkpt>
      <trkpt lat="43.20429" lon="2.54812">
        <ele>88</ele>
        <time>2024-05-10T06:51:34Z</time>
      </trkpt>
      <trkpt lat="43.20419" lon="2.5481">
        <ele>88.9</ele>
        <time>2024-05-10T06:54:25Z</time>
      </trkpt>
      <trkpt lat="43.20421" lon="2.54811">
        <ele>88.8</ele>
        <time>2024-05-10T06:54:26Z</time>
      </trkpt>
      <trkpt lat="43.2042" lon="2.54811">
        <ele>88.9</ele>
        <time>2024-05-10T06:54:27Z</time>
      </trkpt>
      <trkpt lat="43.2042" lon="2.54813">
        <ele>88.9</ele>
        <time>2024-05-10T06:54:28Z</time>
      </trkpt>
      <trkpt lat="43.20421" lon="2.54813">
        <ele>88.8</ele>
        <time>2024-05-10T06:54:29Z</time>
      </trkpt>
      <trkpt lat="43.20423" lon="2.54813">
        <ele>88.6</ele>
        <time>2024-05-10T06:54:30Z</time>
      </trkpt>
      <trkpt lat="43.20424" lon="2.54812">
        <ele>88.5</ele>
        <time>2024-05-10T06:54:31Z</time>
      </trkpt>
      <trkpt lat="43.20429" lon="2.54808">
        <ele>87.8</ele>
        <time>2024-05-10T06:54:32Z</time>
      </trkpt>
      <trkpt lat="43.20429" lon="2.54811">
        <ele>88</ele>
        <time>2024-05-10T06:54:33Z</time>
      </trkpt>
      <trkpt lat="43.20429" lon="2.54811">
        <ele>88</ele>
        <time>2024-05-10T06:54:34Z</time>
      </trkpt>
      <trkpt lat="43.20429" lon="2.54811">
        <ele>88</ele>
        <time>2024-05-10T06:54:35Z</time>
      </trkpt>
      <trkpt lat="43.20429" lon="2.54811">
        <ele>88</ele>
        <time>2024-05-10T06:54:36Z</time>
      </trkpt>
      <trkpt lat="43.20429" lon="2.54811">
        <ele>88</ele>
        <time>2024-05-10T06:54:37Z</time>
      </trkpt>
      <trkpt lat="43.20429" lon="2.54811">
        <ele>88</ele>
        <time>2024-05-10T06:54:38Z</time>
      </trkpt>
      <trkpt lat="43.20429" lon="2.54811">
        <ele>88</ele>
        <time>2024-05-10T06:54:39Z</time>
      </trkpt>
      <trkpt lat="43.20429" lon="2.54811">
        <ele>88</ele>
        <time>2024-05-10T06:54:40Z</time>
      </trkpt>
      <trkpt lat="43.20429" lon="2.54811">
        <ele>88</ele>
        <time>2024-05-10T06:54:41Z</time>
      </trkpt>
      <trkpt lat="43.20429" lon="2.54811">
        <ele>88</ele>
        <time>2024-05-10T06:54:42Z</time>
      </trkpt>
      <trkpt lat="43.20429" lon="2.54811">
        <ele>88</ele>
        <time>2024-05-10T06:54:43Z</time>
      </trkpt>
      <trkpt lat="43.20429" lon="2.54811">
        <ele>88</ele>
        <time>2024-05-10T06:54:44Z</time>
      </trkpt>
      <trkpt lat="43.20429" lon="2.54811">
        <ele>88</ele>
        <time>2024-05-10T06:54:45Z</time>
      </trkpt>
      <trkpt lat="43.20429" lon="2.54811">
        <ele>88</ele>
        <time>2024-05-10T06:54:46Z</time>
      </trkpt>
      <trkpt lat="43.20429" lon="2.54811">
        <ele>88</ele>
        <time>2024-05-10T06:54:47Z</time>
      </trkpt>
      <trkpt lat="43.20429" lon="2.54811">
        <ele>88</ele>
        <time>2024-05-10T06:54:48Z</time>
      </trkpt>
      <trkpt lat="43.20429" lon="2.54811">
        <ele>88</ele>
        <time>2024-05-10T06:54:49Z</time>
      </trkpt>
      <trkpt lat="43.20429" lon="2.54811">
        <ele>88</ele>
        <time>2024-05-10T06:54:50Z</time>
      </trkpt>
      <trkpt lat="43.20429" lon="2.54811">
        <ele>88</ele>
        <time>2024-05-10T06:54:51Z</time>
      </trkpt>
      <trkpt lat="43.20429" lon="2.54811">
        <ele>88</ele>
        <time>2024-05-10T06:54:52Z</time>
      </trkpt>
      <trkpt lat="43.20429" lon="2.54812">
        <ele>88</ele>
        <time>2024-05-10T06:54:53Z</time>
      </trkpt>
      <trkpt lat="43.2043" lon="2.54814">
        <ele>88</ele>
        <time>2024-05-10T06:54:54Z</time>
      </trkpt>
      <trkpt lat="43.20431" lon="2.54819">
        <ele>88.2</ele>
        <time>2024-05-10T06:54:55Z</time>
      </trkpt>
      <trkpt lat="43.20431" lon="2.54829">
        <ele>88.7</ele>
        <time>2024-05-10T06:54:56Z</time>
      </trkpt>
      <trkpt lat="43.20431" lon="2.54838">
        <ele>89</ele>
        <time>2024-05-10T06:54:57Z</time>
      </trkpt>
      <trkpt lat="43.20432" lon="2.54848">
        <ele>89</ele>
        <time>2024-05-10T06:54:58Z</time>
      </trkpt>
      <trkpt lat="43.20432" lon="2.54857">
        <ele>89</ele>
        <time>2024-05-10T06:54:59Z</time>
      </trkpt>
      <trkpt lat="43.20432" lon="2.54867">
        <ele>89.2</ele>
        <time>2024-05-10T06:55:00Z</time>
      </trkpt>
      <trkpt lat="43.20432" lon="2.54877">
        <ele>89.6</ele>
        <time>2024-05-10T06:55:01Z</time>
      </trkpt>
      <trkpt lat="43.20433" lon="2.54887">
        <ele>89.9</ele>
        <time>2024-05-10T06:55:02Z</time>
      </trkpt>
      <trkpt lat="43.20433" lon="2.54898">
        <ele>89.8</ele>
        <time>2024-05-10T06:55:03Z</time>
      </trkpt>
      <trkpt lat="43.20434" lon="2.54908">
        <ele>89.6</ele>
        <time>2024-05-10T06:55:04Z</time>
      </trkpt>
      <trkpt lat="43.20434" lon="2.54918">
        <ele>89.4</ele>
        <time>2024-05-10T06:55:05Z</time>
      </trkpt>
      <trkpt lat="43.20434" lon="2.54927">
        <ele>89.6</ele>
        <time>2024-05-10T06:55:06Z</time>
      </trkpt>
      <trkpt lat="43.20434" lon="2.54937">
        <ele>89.8</ele>
        <time>2024-05-10T06:55:07Z</time>
      </trkpt>
      <trkpt lat="43.20435" lon="2.54947">
        <ele>90</ele>
        <time>2024-05-10T06:55:08Z</time>
      </trkpt>
      <trkpt lat="43.20435" lon="2.54958">
        <ele>90</ele>
        <time>2024-05-10T06:55:09Z</time>
      </trkpt>
      <trkpt lat="43.20435" lon="2.5497">
        <ele>90</ele>
        <time>2024-05-10T06:55:10Z</time>
      </trkpt>
      <trkpt lat="43.20435" lon="2.54984">
        <ele>90</ele>
        <time>2024-05-10T06:55:11Z</time>
      </trkpt>
      <trkpt lat="43.20435" lon="2.54999">
        <ele>90</ele>
        <time>2024-05-10T06:55:12Z</time>
      </trkpt>
      <trkpt lat="43.20435" lon="2.55014">
        <ele>90</ele>
        <time>2024-05-10T06:55:13Z</time>
      </trkpt>
      <trkpt lat="43.20436" lon="2.55029">
        <ele>90</ele>
        <time>2024-05-10T06:55:14Z</time>
      </trkpt>
      <trkpt lat="43.20436" lon="2.55045">
        <ele>90</ele>
        <time>2024-05-10T06:55:15Z</time>
      </trkpt>
      <trkpt lat="43.20436" lon="2.55064">
        <ele>90</ele>
        <time>2024-05-10T06:55:16Z</time>
      </trkpt>
      <trkpt lat="43.20437" lon="2.55084">
        <ele>90</ele>
        <time>2024-05-10T06:55:17Z</time>
      </trkpt>
      <trkpt lat="43.20437" lon="2.55106">
        <ele>90</ele>
        <time>2024-05-10T06:55:18Z</time>
      </trkpt>
      <trkpt lat="43.20438" lon="2.5513">
        <ele>90</ele>
        <time>2024-05-10T06:55:19Z</time>
      </trkpt>
      <trkpt lat="43.20439" lon="2.55156">
        <ele>90</ele>
        <time>2024-05-10T06:55:20Z</time>
      </trkpt>
      <trkpt lat="43.2044" lon="2.55181">
        <ele>90</ele>
        <time>2024-05-10T06:55:21Z</time>
      </trkpt>
      <trkpt lat="43.20441" lon="2.55207">
        <ele>90</ele>
        <time>2024-05-10T06:55:22Z</time>
      </trkpt>
      <trkpt lat="43.20442" lon="2.55235">
        <ele>89.6</ele>
        <time>2024-05-10T06:55:23Z</time>
      </trkpt>
      <trkpt lat="43.20443" lon="2.55265">
        <ele>89.1</ele>
        <time>2024-05-10T06:55:24Z</time>
      </trkpt>
      <trkpt lat="43.20444" lon="2.55295">
        <ele>89</ele>
        <time>2024-05-10T06:55:25Z</time>
      </trkpt>
      <trkpt lat="43.20444" lon="2.55324">
        <ele>89</ele>
        <time>2024-05-10T06:55:26Z</time>
      </trkpt>
      <trkpt lat="43.20444" lon="2.55354">
        <ele>89</ele>
        <time>2024-05-10T06:55:27Z</time>
      </trkpt>
      <trkpt lat="43.20443" lon="2.55385">
        <ele>89.1</ele>
        <time>2024-05-10T06:55:28Z</time>
      </trkpt>
      <trkpt lat="43.20442" lon="2.55416">
        <ele>89.1</ele>
        <time>2024-05-10T06:55:29Z</time>
      </trkpt>
      <trkpt lat="43.20441" lon="2.55447">
        <ele>89</ele>
        <time>2024-05-10T06:55:30Z</time>
      </trkpt>
      <trkpt lat="43.20439" lon="2.55478">
        <ele>88.4</ele>
        <time>2024-05-10T06:55:31Z</time>
      </trkpt>
      <trkpt lat="43.20437" lon="2.5551">
        <ele>88.5</ele>
        <time>2024-05-10T06:55:32Z</time>
      </trkpt>
      <trkpt lat="43.20436" lon="2.55541">
        <ele>88.6</ele>
        <time>2024-05-10T06:55:33Z</time>
      </trkpt>
      <trkpt lat="43.20434" lon="2.55573">
        <ele>88.8</ele>
        <time>2024-05-10T06:55:34Z</time>
      </trkpt>
      <trkpt lat="43.20432" lon="2.55605">
        <ele>88.9</ele>
        <time>2024-05-10T06:55:35Z</time>
      </trkpt>
      <trkpt lat="43.20431" lon="2.55637">
        <ele>88</ele>
        <time>2024-05-10T06:55:36Z</time>
      </trkpt>
      <trkpt lat="43.20429" lon="2.55668">
        <ele>88.1</ele>
        <time>2024-05-10T06:55:37Z</time>
      </trkpt>
      <trkpt lat="43.20427" lon="2.55699">
        <ele>88.5</ele>
        <time>2024-05-10T06:55:38Z</time>
      </trkpt>
      <trkpt lat="43.20426" lon="2.55728">
        <ele>88</ele>
        <time>2024-05-10T06:55:39Z</time>
      </trkpt>
      <trkpt lat="43.20424" lon="2.55757">
        <ele>88</ele>
        <time>2024-05-10T06:55:40Z</time>
      </trkpt>
      <trkpt lat="43.20423" lon="2.55784">
        <ele>88</ele>
        <time>2024-05-10T06:55:41Z</time>
      </trkpt>
      <trkpt lat="43.20422" lon="2.55811">
        <ele>87.8</ele>
        <time>2024-05-10T06:55:42Z</time>
      </trkpt>
      <trkpt lat="43.2042" lon="2.55837">
        <ele>87.1</ele>
        <time>2024-05-10T06:55:43Z</time>
      </trkpt>
      <trkpt lat="43.20419" lon="2.55862">
        <ele>87</ele>
        <time>2024-05-10T06:55:44Z</time>
      </trkpt>
      <trkpt lat="43.20418" lon="2.55888">
        <ele>86.1</ele>
        <time>2024-05-10T06:55:45Z</time>
      </trkpt>
      <trkpt lat="43.20417" lon="2.55914">
        <ele>86</ele>
        <time>2024-05-10T06:55:46Z</time>
      </trkpt>
      <trkpt lat="43.20415" lon="2.55939">
        <ele>85.2</ele>
        <time>2024-05-10T06:55:47Z</time>
      </trkpt>
      <trkpt lat="43.20414" lon="2.55962">
        <ele>85</ele>
        <time>2024-05-10T06:55:48Z</time>
      </trkpt>
      <trkpt lat="43.20412" lon="2.55985">
        <ele>84.6</ele>
        <time>2024-05-10T06:55:49Z</time>
      </trkpt>
      <trkpt lat="43.2041" lon="2.56007">
        <ele>84.2</ele>
        <time>2024-05-10T06:55:50Z</time>
      </trkpt>
      <trkpt lat="43.20408" lon="2.56027">
        <ele>84</ele>
        <time>2024-05-10T06:55:51Z</time>
      </trkpt>
      <trkpt lat="43.20405" lon="2.56048">
        <ele>84</ele>
        <time>2024-05-10T06:55:52Z</time>
      </trkpt>
      <trkpt lat="43.20402" lon="2.56069">
        <ele>84</ele>
        <time>2024-05-10T06:55:53Z</time>
      </trkpt>
      <trkpt lat="43.20399" lon="2.56091">
        <ele>84</ele>
        <time>2024-05-10T06:55:54Z</time>
      </trkpt>
      <trkpt lat="43.20395" lon="2.56113">
        <ele>84</ele>
        <time>2024-05-10T06:55:55Z</time>
      </trkpt>
      <trkpt lat="43.20392" lon="2.56137">
        <ele>84</ele>
        <time>2024-05-10T06:55:56Z</time>
      </trkpt>
      <trkpt lat="43.20389" lon="2.56161">
        <ele>84</ele>
        <time>2024-05-10T06:55:57Z</time>
      </trkpt>
      <trkpt lat="43.20386" lon="2.56186">
        <ele>83.9</ele>
        <time>2024-05-10T06:55:58Z</time>
      </trkpt>
      <trkpt lat="43.20385" lon="2.56212">
        <ele>83.9</ele>
        <time>2024-05-10T06:55:59Z</time>
      </trkpt>
      <trkpt lat="43.20384" lon="2.56239">
        <ele>83.8</ele>
        <time>2024-05-10T06:56:00Z</time>
      </trkpt>
      <trkpt lat="43.20384" lon="2.56268">
        <ele>83.8</ele>
        <time>2024-05-10T06:56:01Z</time>
      </trkpt>
      <trkpt lat="43.20386" lon="2.56297">
        <ele>84.5</ele>
        <time>2024-05-10T06:56:02Z</time>
      </trkpt>
      <trkpt lat="43.20388" lon="2.56326">
        <ele>84.9</ele>
        <time>2024-05-10T06:56:03Z</time>
      </trkpt>
      <trkpt lat="43.20391" lon="2.56354">
        <ele>85.1</ele>
        <time>2024-05-10T06:56:04Z</time>
      </trkpt>
      <trkpt lat="43.20394" lon="2.56382">
        <ele>84.8</ele>
        <time>2024-05-10T06:56:05Z</time>
      </trkpt>
      <trkpt lat="43.20399" lon="2.5641">
        <ele>85.6</ele>
        <time>2024-05-10T06:56:06Z</time>
      </trkpt>
      <trkpt lat="43.20403" lon="2.56438">
        <ele>86</ele>
        <time>2024-05-10T06:56:07Z</time>
      </trkpt>
      <trkpt lat="43.20407" lon="2.56464">
        <ele>85.4</ele>
        <time>2024-05-10T06:56:08Z</time>
      </trkpt>
      <trkpt lat="43.20411" lon="2.5649">
        <ele>85.4</ele>
        <time>2024-05-10T06:56:09Z</time>
      </trkpt>
      <trkpt lat="43.20415" lon="2.56516">
        <ele>85.3</ele>
        <time>2024-05-10T06:56:10Z</time>
      </trkpt>
      <trkpt lat="43.20419" lon="2.56542">
        <ele>85.3</ele>
        <time>2024-05-10T06:56:11Z</time>
      </trkpt>
      <trkpt lat="43.20424" lon="2.56568">
        <ele>85.8</ele>
        <time>2024-05-10T06:56:12Z</time>
      </trkpt>
      <trkpt lat="43.20428" lon="2.56595">
        <ele>86.1</ele>
        <time>2024-05-10T06:56:13Z</time>
      </trkpt>
      <trkpt lat="43.20432" lon="2.56621">
        <ele>85.7</ele>
        <time>2024-05-10T06:56:14Z</time>
      </trkpt>
      <trkpt lat="43.20436" lon="2.56648">
        <ele>85.4</ele>
        <time>2024-05-10T06:56:15Z</time>
      </trkpt>
      <trkpt lat="43.2044" lon="2.56674">
        <ele>85.6</ele>
        <time>2024-05-10T06:56:16Z</time>
      </trkpt>
      <trkpt lat="43.20445" lon="2.567">
        <ele>85.8</ele>
        <time>2024-05-10T06:56:17Z</time>
      </trkpt>
      <trkpt lat="43.20449" lon="2.56725">
        <ele>85.5</ele>
        <time>2024-05-10T06:56:18Z</time>
      </trkpt>
      <trkpt lat="43.20454" lon="2.56749">
        <ele>85.7</ele>
        <time>2024-05-10T06:56:19Z</time>
      </trkpt>
      <trkpt lat="43.20459" lon="2.56772">
        <ele>86</ele>
        <time>2024-05-10T06:56:20Z</time>
      </trkpt>
      <trkpt lat="43.20464" lon="2.56794">
        <ele>86</ele>
        <time>2024-05-10T06:56:21Z</time>
      </trkpt>
      <trkpt lat="43.2047" lon="2.56816">
        <ele>85.9</ele>
        <time>2024-05-10T06:56:22Z</time>
      </trkpt>
      <trkpt lat="43.20476" lon="2.56836">
        <ele>86.1</ele>
        <time>2024-05-10T06:56:23Z</time>
      </trkpt>
      <trkpt lat="43.20482" lon="2.56855">
        <ele>86.4</ele>
        <time>2024-05-10T06:56:24Z</time>
      </trkpt>
      <trkpt lat="43.20488" lon="2.56874">
        <ele>86.3</ele>
        <time>2024-05-10T06:56:25Z</time>
      </trkpt>
      <trkpt lat="43.20494" lon="2.5689">
        <ele>86</ele>
        <time>2024-05-10T06:56:26Z</time>
      </trkpt>
      <trkpt lat="43.205" lon="2.56906">
        <ele>85.4</ele>
        <time>2024-05-10T06:56:27Z</time>
      </trkpt>
      <trkpt lat="43.20506" lon="2.56921">
        <ele>85.2</ele>
        <time>2024-05-10T06:56:28Z</time>
      </trkpt>
      <trkpt lat="43.20512" lon="2.56937">
        <ele>85.1</ele>
        <time>2024-05-10T06:56:29Z</time>
      </trkpt>
      <trkpt lat="43.20519" lon="2.56954">
        <ele>84.7</ele>
        <time>2024-05-10T06:56:30Z</time>
      </trkpt>
      <trkpt lat="43.20525" lon="2.56971">
        <ele>84</ele>
        <time>2024-05-10T06:56:31Z</time>
      </trkpt>
      <trkpt lat="43.20533" lon="2.56988">
        <ele>84</ele>
        <time>2024-05-10T06:56:32Z</time>
      </trkpt>
      <trkpt lat="43.2054" lon="2.57005">
        <ele>83.9</ele>
        <time>2024-05-10T06:56:33Z</time>
      </trkpt>
      <trkpt lat="43.20547" lon="2.57023">
        <ele>83.7</ele>
        <time>2024-05-10T06:56:34Z</time>
      </trkpt>
      <trkpt lat="43.20554" lon="2.57041">
        <ele>83.4</ele>
        <time>2024-05-10T06:56:35Z</time>
      </trkpt>
      <trkpt lat="43.20561" lon="2.57059">
        <ele>83.1</ele>
        <time>2024-05-10T06:56:36Z</time>
      </trkpt>
      <trkpt lat="43.20569" lon="2.57078">
        <ele>83.1</ele>
        <time>2024-05-10T06:56:37Z</time>
      </trkpt>
      <trkpt lat="43.20577" lon="2.57098">
        <ele>83.7</ele>
        <time>2024-05-10T06:56:38Z</time>
      </trkpt>
      <trkpt lat="43.20585" lon="2.5712">
        <ele>84</ele>
        <time>2024-05-10T06:56:39Z</time>
      </trkpt>
      <trkpt lat="43.20594" lon="2.57142">
        <ele>84</ele>
        <time>2024-05-10T06:56:40Z</time>
      </trkpt>
      <trkpt lat="43.20603" lon="2.57166">
        <ele>84</ele>
        <time>2024-05-10T06:56:41Z</time>
      </trkpt>
      <trkpt lat="43.20613" lon="2.5719">
        <ele>83.2</ele>
        <time>2024-05-10T06:56:42Z</time>
      </trkpt>
      <trkpt lat="43.20623" lon="2.57216">
        <ele>83.1</ele>
        <time>2024-05-10T06:56:43Z</time>
      </trkpt>
      <trkpt lat="43.20633" lon="2.57243">
        <ele>82.4</ele>
        <time>2024-05-10T06:56:44Z</time>
      </trkpt>
      <trkpt lat="43.20644" lon="2.57271">
        <ele>81.9</ele>
        <time>2024-05-10T06:56:45Z</time>
      </trkpt>
      <trkpt lat="43.20655" lon="2.573">
        <ele>80.7</ele>
        <time>2024-05-10T06:56:46Z</time>
      </trkpt>
      <trkpt lat="43.20667" lon="2.5733">
        <ele>81</ele>
        <time>2024-05-10T06:56:47Z</time>
      </trkpt>
      <trkpt lat="43.20678" lon="2.5736">
        <ele>79.5</ele>
        <time>2024-05-10T06:56:48Z</time>
      </trkpt>
      <trkpt lat="43.20689" lon="2.57389">
        <ele>79.6</ele>
        <time>2024-05-10T06:56:49Z</time>
      </trkpt>
      <trkpt lat="43.207" lon="2.57417">
        <ele>80</ele>
        <time>2024-05-10T06:56:50Z</time>
      </trkpt>
      <trkpt lat="43.2071" lon="2.57444">
        <ele>79.1</ele>
        <time>2024-05-10T06:56:51Z</time>
      </trkpt>
      <trkpt lat="43.20721" lon="2.57471">
        <ele>79.9</ele>
        <time>2024-05-10T06:56:52Z</time>
      </trkpt>
      <trkpt lat="43.20732" lon="2.57499">
        <ele>79.7</ele>
        <time>2024-05-10T06:56:53Z</time>
      </trkpt>
      <trkpt lat="43.20743" lon="2.57525">
        <ele>80.5</ele>
        <time>2024-05-10T06:56:54Z</time>
      </trkpt>
      <trkpt lat="43.20753" lon="2.57552">
        <ele>81.2</ele>
        <time>2024-05-10T06:56:55Z</time>
      </trkpt>
      <trkpt lat="43.20764" lon="2.57579">
        <ele>82</ele>
        <time>2024-05-10T06:56:56Z</time>
      </trkpt>
      <trkpt lat="43.20774" lon="2.57605">
        <ele>82.1</ele>
        <time>2024-05-10T06:56:57Z</time>
      </trkpt>
      <trkpt lat="43.20786" lon="2.57631">
        <ele>82.9</ele>
        <time>2024-05-10T06:56:58Z</time>
      </trkpt>
      <trkpt lat="43.20798" lon="2.57657">
        <ele>83</ele>
        <time>2024-05-10T06:56:59Z</time>
      </trkpt>
      <trkpt lat="43.20811" lon="2.57682">
        <ele>83.7</ele>
        <time>2024-05-10T06:57:00Z</time>
      </trkpt>
      <trkpt lat="43.20824" lon="2.57708">
        <ele>84</ele>
        <time>2024-05-10T06:57:01Z</time>
      </trkpt>
      <trkpt lat="43.20835" lon="2.57736">
        <ele>84</ele>
        <time>2024-05-10T06:57:02Z</time>
      </trkpt>
      <trkpt lat="43.20845" lon="2.57764">
        <ele>84</ele>
        <time>2024-05-10T06:57:03Z</time>
      </trkpt>
      <trkpt lat="43.20855" lon="2.57793">
        <ele>84.4</ele>
        <time>2024-05-10T06:57:04Z</time>
      </trkpt>
      <trkpt lat="43.20864" lon="2.57823">
        <ele>84.2</ele>
        <time>2024-05-10T06:57:05Z</time>
      </trkpt>
      <trkpt lat="43.20873" lon="2.57853">
        <ele>84.3</ele>
        <time>2024-05-10T06:57:06Z</time>
      </trkpt>
      <trkpt lat="43.20883" lon="2.57883">
        <ele>84</ele>
        <time>2024-05-10T06:57:07Z</time>
      </trkpt>
      <trkpt lat="43.20892" lon="2.57913">
        <ele>83.8</ele>
        <time>2024-05-10T06:57:08Z</time>
      </trkpt>
      <trkpt lat="43.20901" lon="2.57943">
        <ele>83.1</ele>
        <time>2024-05-10T06:57:09Z</time>
      </trkpt>
      <trkpt lat="43.20911" lon="2.57973">
        <ele>84</ele>
        <time>2024-05-10T06:57:10Z</time>
      </trkpt>
      <trkpt lat="43.2092" lon="2.58003">
        <ele>83.5</ele>
        <time>2024-05-10T06:57:11Z</time>
      </trkpt>
      <trkpt lat="43.20929" lon="2.58032">
        <ele>82.7</ele>
        <time>2024-05-10T06:57:12Z</time>
      </trkpt>
      <trkpt lat="43.20939" lon="2.58062">
        <ele>82.5</ele>
        <time>2024-05-10T06:57:13Z</time>
      </trkpt>
      <trkpt lat="43.20948" lon="2.58091">
        <ele>82</ele>
        <time>2024-05-10T06:57:14Z</time>
      </trkpt>
      <trkpt lat="43.20957" lon="2.58121">
        <ele>81</ele>
        <time>2024-05-10T06:57:15Z</time>
      </trkpt>
      <trkpt lat="43.20966" lon="2.58151">
        <ele>82</ele>
        <time>2024-05-10T06:57:16Z</time>
      </trkpt>
      <trkpt lat="43.20976" lon="2.58181">
        <ele>81</ele>
        <time>2024-05-10T06:57:17Z</time>
      </trkpt>
      <trkpt lat="43.20986" lon="2.58212">
        <ele>80.8</ele>
        <time>2024-05-10T06:57:18Z</time>
      </trkpt>
      <trkpt lat="43.20995" lon="2.58242">
        <ele>81.1</ele>
        <time>2024-05-10T06:57:19Z</time>
      </trkpt>
      <trkpt lat="43.21004" lon="2.58272">
        <ele>80.4</ele>
        <time>2024-05-10T06:57:20Z</time>
      </trkpt>
      <trkpt lat="43.21012" lon="2.58302">
        <ele>80.9</ele>
        <time>2024-05-10T06:57:21Z</time>
      </trkpt>
      <trkpt lat="43.2102" lon="2.58332">
        <ele>80.8</ele>
        <time>2024-05-10T06:57:22Z</time>
      </trkpt>
      <trkpt lat="43.21028" lon="2.58362">
        <ele>81</ele>
        <time>2024-05-10T06:57:23Z</time>
      </trkpt>
      <trkpt lat="43.21035" lon="2.58391">
        <ele>79.9</ele>
        <time>2024-05-10T06:57:24Z</time>
      </trkpt>
      <trkpt lat="43.21043" lon="2.5842">
        <ele>80.3</ele>
        <time>2024-05-10T06:57:25Z</time>
      </trkpt>
      <trkpt lat="43.2105" lon="2.58448">
        <ele>79.7</ele>
        <time>2024-05-10T06:57:26Z</time>
      </trkpt>
      <trkpt lat="43.21057" lon="2.58475">
        <ele>77.8</ele>
        <time>2024-05-10T06:57:27Z</time>
      </trkpt>
      <trkpt lat="43.21064" lon="2.58502">
        <ele>76.9</ele>
        <time>2024-05-10T06:57:28Z</time>
      </trkpt>
      <trkpt lat="43.21071" lon="2.58528">
        <ele>77.3</ele>
        <time>2024-05-10T06:57:29Z</time>
      </trkpt>
      <trkpt lat="43.21078" lon="2.58555">
        <ele>75.6</ele>
        <time>2024-05-10T06:57:30Z</time>
      </trkpt>
      <trkpt lat="43.21085" lon="2.58584">
        <ele>73.8</ele>
        <time>2024-05-10T06:57:31Z</time>
      </trkpt>
      <trkpt lat="43.21092" lon="2.58612">
        <ele>72.1</ele>
        <time>2024-05-10T06:57:32Z</time>
      </trkpt>
      <trkpt lat="43.21099" lon="2.58642">
        <ele>71.9</ele>
        <time>2024-05-10T06:57:33Z</time>
      </trkpt>
      <trkpt lat="43.21106" lon="2.58672">
        <ele>71.2</ele>
        <time>2024-05-10T06:57:34Z</time>
      </trkpt>
      <trkpt lat="43.21112" lon="2.58701">
        <ele>69.9</ele>
        <time>2024-05-10T06:57:35Z</time>
      </trkpt>
      <trkpt lat="43.21118" lon="2.5873">
        <ele>69.4</ele>
        <time>2024-05-10T06:57:36Z</time>
      </trkpt>
      <trkpt lat="43.21124" lon="2.58759">
        <ele>69.5</ele>
        <time>2024-05-10T06:57:37Z</time>
      </trkpt>
      <trkpt lat="43.21129" lon="2.58787">
        <ele>69.4</ele>
        <time>2024-05-10T06:57:38Z</time>
      </trkpt>
      <trkpt lat="43.21135" lon="2.58814">
        <ele>69.1</ele>
        <time>2024-05-10T06:57:39Z</time>
      </trkpt>
      <trkpt lat="43.2114" lon="2.5884">
        <ele>68.8</ele>
        <time>2024-05-10T06:57:40Z</time>
      </trkpt>
      <trkpt lat="43.21146" lon="2.58866">
        <ele>68.3</ele>
        <time>2024-05-10T06:57:41Z</time>
      </trkpt>
      <trkpt lat="43.21152" lon="2.58892">
        <ele>68.1</ele>
        <time>2024-05-10T06:57:42Z</time>
      </trkpt>
      <trkpt lat="43.21158" lon="2.58919">
        <ele>68.4</ele>
        <time>2024-05-10T06:57:43Z</time>
      </trkpt>
      <trkpt lat="43.21164" lon="2.58945">
        <ele>69</ele>
        <time>2024-05-10T06:57:44Z</time>
      </trkpt>
      <trkpt lat="43.21172" lon="2.58972">
        <ele>67.8</ele>
        <time>2024-05-10T06:57:45Z</time>
      </trkpt>
      <trkpt lat="43.21179" lon="2.58998">
        <ele>68.4</ele>
        <time>2024-05-10T06:57:46Z</time>
      </trkpt>
      <trkpt lat="43.21187" lon="2.59024">
        <ele>68.1</ele>
        <time>2024-05-10T06:57:47Z</time>
      </trkpt>
      <trkpt lat="43.21195" lon="2.5905">
        <ele>68</ele>
        <time>2024-05-10T06:57:48Z</time>
      </trkpt>
      <trkpt lat="43.21204" lon="2.59077">
        <ele>68.1</ele>
        <time>2024-05-10T06:57:49Z</time>
      </trkpt>
      <trkpt lat="43.21212" lon="2.59102">
        <ele>68.7</ele>
        <time>2024-05-10T06:57:50Z</time>
      </trkpt>
      <trkpt lat="43.21222" lon="2.59127">
        <ele>69</ele>
        <time>2024-05-10T06:57:51Z</time>
      </trkpt>
      <trkpt lat="43.21231" lon="2.59152">
        <ele>68.9</ele>
        <time>2024-05-10T06:57:52Z</time>
      </trkpt>
      <trkpt lat="43.21241" lon="2.59176">
        <ele>68.6</ele>
        <time>2024-05-10T06:57:53Z</time>
      </trkpt>
      <trkpt lat="43.21251" lon="2.59201">
        <ele>69</ele>
        <time>2024-05-10T06:57:54Z</time>
      </trkpt>
      <trkpt lat="43.21261" lon="2.59225">
        <ele>68.6</ele>
        <time>2024-05-10T06:57:55Z</time>
      </trkpt>
      <trkpt lat="43.21271" lon="2.59249">
        <ele>68.7</ele>
        <time>2024-05-10T06:57:56Z</time>
      </trkpt>
      <trkpt lat="43.21282" lon="2.59273">
        <ele>68.9</ele>
        <time>2024-05-10T06:57:57Z</time>
      </trkpt>
      <trkpt lat="43.21293" lon="2.59297">
        <ele>68.8</ele>
        <time>2024-05-10T06:57:58Z</time>
      </trkpt>
      <trkpt lat="43.21305" lon="2.59321">
        <ele>69</ele>
        <time>2024-05-10T06:57:59Z</time>
      </trkpt>
      <trkpt lat="43.21317" lon="2.59344">
        <ele>68.7</ele>
        <time>2024-05-10T06:58:00Z</time>
      </trkpt>
      <trkpt lat="43.21329" lon="2.59367">
        <ele>69</ele>
        <time>2024-05-10T06:58:01Z</time>
      </trkpt>
      <trkpt lat="43.21342" lon="2.59389">
        <ele>69</ele>
        <time>2024-05-10T06:58:02Z</time>
      </trkpt>
      <trkpt lat="43.21356" lon="2.59411">
        <ele>69.9</ele>
        <time>2024-05-10T06:58:03Z</time>
      </trkpt>
      <trkpt lat="43.21371" lon="2.59433">
        <ele>70.4</ele>
        <time>2024-05-10T06:58:04Z</time>
      </trkpt>
      <trkpt lat="43.21387" lon="2.59453">
        <ele>70.4</ele>
        <time>2024-05-10T06:58:05Z</time>
      </trkpt>
      <trkpt lat="43.21404" lon="2.59473">
        <ele>70.5</ele>
        <time>2024-05-10T06:58:06Z</time>
      </trkpt>
      <trkpt lat="43.2142" lon="2.59492">
        <ele>70.6</ele>
        <time>2024-05-10T06:58:07Z</time>
      </trkpt>
      <trkpt lat="43.21436" lon="2.5951">
        <ele>70.3</ele>
        <time>2024-05-10T06:58:08Z</time>
      </trkpt>
      <trkpt lat="43.21452" lon="2.59527">
        <ele>70</ele>
        <time>2024-05-10T06:58:09Z</time>
      </trkpt>
      <trkpt lat="43.21467" lon="2.59543">
        <ele>70.1</ele>
        <time>2024-05-10T06:58:10Z</time>
      </trkpt>
      <trkpt lat="43.21482" lon="2.5956">
        <ele>69.7</ele>
        <time>2024-05-10T06:58:11Z</time>
      </trkpt>
      <trkpt lat="43.21496" lon="2.59577">
        <ele>69.8</ele>
        <time>2024-05-10T06:58:12Z</time>
      </trkpt>
      <trkpt lat="43.2151" lon="2.59594">
        <ele>69.2</ele>
        <time>2024-05-10T06:58:13Z</time>
      </trkpt>
      <trkpt lat="43.21522" lon="2.59611">
        <ele>69</ele>
        <time>2024-05-10T06:58:14Z</time>
      </trkpt>
      <trkpt lat="43.21535" lon="2.59629">
        <ele>68.7</ele>
        <time>2024-05-10T06:58:15Z</time>
      </trkpt>
      <trkpt lat="43.21546" lon="2.59646">
        <ele>68.5</ele>
        <time>2024-05-10T06:58:16Z</time>
      </trkpt>
      <trkpt lat="43.21557" lon="2.59664">
        <ele>68.9</ele>
        <time>2024-05-10T06:58:17Z</time>
      </trkpt>
      <trkpt lat="43.21569" lon="2.59684">
        <ele>68.5</ele>
        <time>2024-05-10T06:58:18Z</time>
      </trkpt>
      <trkpt lat="43.21579" lon="2.59704">
        <ele>68.4</ele>
        <time>2024-05-10T06:58:19Z</time>
      </trkpt>
      <trkpt lat="43.21589" lon="2.59726">
        <ele>68.7</ele>
        <time>2024-05-10T06:58:20Z</time>
      </trkpt>
      <trkpt lat="43.216" lon="2.59748">
        <ele>68.6</ele>
        <time>2024-05-10T06:58:21Z</time>
      </trkpt>
      <trkpt lat="43.21609" lon="2.59771">
        <ele>69</ele>
        <time>2024-05-10T06:58:22Z</time>
      </trkpt>
      <trkpt lat="43.21618" lon="2.59794">
        <ele>69.7</ele>
        <time>2024-05-10T06:58:23Z</time>
      </trkpt>
      <trkpt lat="43.21627" lon="2.59818">
        <ele>70.4</ele>
        <time>2024-05-10T06:58:24Z</time>
      </trkpt>
      <trkpt lat="43.21635" lon="2.59843">
        <ele>71</ele>
        <time>2024-05-10T06:58:25Z</time>
      </trkpt>
      <trkpt lat="43.21642" lon="2.59869">
        <ele>71</ele>
        <time>2024-05-10T06:58:26Z</time>
      </trkpt>
      <trkpt lat="43.21648" lon="2.59895">
        <ele>71.1</ele>
        <time>2024-05-10T06:58:27Z</time>
      </trkpt>
      <trkpt lat="43.21655" lon="2.59922">
        <ele>71.5</ele>
        <time>2024-05-10T06:58:28Z</time>
      </trkpt>
      <trkpt lat="43.21661" lon="2.59949">
        <ele>72</ele>
        <time>2024-05-10T06:58:29Z</time>
      </trkpt>
      <trkpt lat="43.21667" lon="2.59975">
        <ele>72</ele>
        <time>2024-05-10T06:58:30Z</time>
      </trkpt>
      <trkpt lat="43.21674" lon="2.60001">
        <ele>72</ele>
        <time>2024-05-10T06:58:31Z</time>
      </trkpt>
      <trkpt lat="43.2168" lon="2.60027">
        <ele>72</ele>
        <time>2024-05-10T06:58:32Z</time>
      </trkpt>
      <trkpt lat="43.21687" lon="2.60053">
        <ele>72</ele>
        <time>2024-05-10T06:58:33Z</time>
      </trkpt>
      <trkpt lat="43.21693" lon="2.60077">
        <ele>72</ele>
        <time>2024-05-10T06:58:34Z</time>
      </trkpt>
      <trkpt lat="43.21699" lon="2.60101">
        <ele>72</ele>
        <time>2024-05-10T06:58:35Z</time>
      </trkpt>
      <trkpt lat="43.21707" lon="2.60124">
        <ele>72</ele>
        <time>2024-05-10T06:58:36Z</time>
      </trkpt>
      <trkpt lat="43.21715" lon="2.60147">
        <ele>72</ele>
        <time>2024-05-10T06:58:37Z</time>
      </trkpt>
      <trkpt lat="43.21723" lon="2.60169">
        <ele>72</ele>
        <time>2024-05-10T06:58:38Z</time>
      </trkpt>
      <trkpt lat="43.21732" lon="2.60191">
        <ele>72</ele>
        <time>2024-05-10T06:58:39Z</time>
      </trkpt>
      <trkpt lat="43.2174" lon="2.60214">
        <ele>72</ele>
        <time>2024-05-10T06:58:40Z</time>
      </trkpt>
      <trkpt lat="43.21749" lon="2.60237">
        <ele>71.5</ele>
        <time>2024-05-10T06:58:41Z</time>
      </trkpt>
      <trkpt lat="43.21758" lon="2.60261">
        <ele>71.2</ele>
        <time>2024-05-10T06:58:42Z</time>
      </trkpt>
      <trkpt lat="43.21767" lon="2.60284">
        <ele>71</ele>
        <time>2024-05-10T06:58:43Z</time>
      </trkpt>
      <trkpt lat="43.21776" lon="2.60308">
        <ele>71</ele>
        <time>2024-05-10T06:58:44Z</time>
      </trkpt>
      <trkpt lat="43.21785" lon="2.60332">
        <ele>71</ele>
        <time>2024-05-10T06:58:45Z</time>
      </trkpt>
      <trkpt lat="43.21794" lon="2.60357">
        <ele>71</ele>
        <time>2024-05-10T06:58:46Z</time>
      </trkpt>
      <trkpt lat="43.21803" lon="2.60381">
        <ele>70.3</ele>
        <time>2024-05-10T06:58:47Z</time>
      </trkpt>
      <trkpt lat="43.21812" lon="2.60406">
        <ele>70.6</ele>
        <time>2024-05-10T06:58:48Z</time>
      </trkpt>
      <trkpt lat="43.21821" lon="2.60431">
        <ele>70.2</ele>
        <time>2024-05-10T06:58:49Z</time>
      </trkpt>
      <trkpt lat="43.2183" lon="2.60456">
        <ele>70</ele>
        <time>2024-05-10T06:58:50Z</time>
      </trkpt>
      <trkpt lat="43.2184" lon="2.60482">
        <ele>69.6</ele>
        <time>2024-05-10T06:58:51Z</time>
      </trkpt>
      <trkpt lat="43.21849" lon="2.60508">
        <ele>68.8</ele>
        <time>2024-05-10T06:58:52Z</time>
      </trkpt>
      <trkpt lat="43.2186" lon="2.60533">
        <ele>68</ele>
        <time>2024-05-10T06:58:53Z</time>
      </trkpt>
      <trkpt lat="43.21871" lon="2.60559">
        <ele>68</ele>
        <time>2024-05-10T06:58:54Z</time>
      </trkpt>
      <trkpt lat="43.21883" lon="2.60584">
        <ele>67.2</ele>
        <time>2024-05-10T06:58:55Z</time>
      </trkpt>
      <trkpt lat="43.21894" lon="2.60608">
        <ele>66.1</ele>
        <time>2024-05-10T06:58:56Z</time>
      </trkpt>
      <trkpt lat="43.21905" lon="2.60631">
        <ele>66</ele>
        <time>2024-05-10T06:58:57Z</time>
      </trkpt>
      <trkpt lat="43.21917" lon="2.60655">
        <ele>65.4</ele>
        <time>2024-05-10T06:58:58Z</time>
      </trkpt>
      <trkpt lat="43.21928" lon="2.60678">
        <ele>65.2</ele>
        <time>2024-05-10T06:58:59Z</time>
      </trkpt>
      <trkpt lat="43.21939" lon="2.607">
        <ele>65</ele>
        <time>2024-05-10T06:59:00Z</time>
      </trkpt>
      <trkpt lat="43.2195" lon="2.60723">
        <ele>65</ele>
        <time>2024-05-10T06:59:01Z</time>
      </trkpt>
      <trkpt lat="43.21961" lon="2.60746">
        <ele>64.1</ele>
        <time>2024-05-10T06:59:02Z</time>
      </trkpt>
      <trkpt lat="43.21972" lon="2.6077">
        <ele>64</ele>
        <time>2024-05-10T06:59:03Z</time>
      </trkpt>
      <trkpt lat="43.21982" lon="2.60794">
        <ele>64</ele>
        <time>2024-05-10T06:59:04Z</time>
      </trkpt>
      <trkpt lat="43.21993" lon="2.60819">
        <ele>63.5</ele>
        <time>2024-05-10T06:59:05Z</time>
      </trkpt>
      <trkpt lat="43.22003" lon="2.60845">
        <ele>63</ele>
        <time>2024-05-10T06:59:06Z</time>
      </trkpt>
      <trkpt lat="43.22013" lon="2.60871">
        <ele>63</ele>
        <time>2024-05-10T06:59:07Z</time>
      </trkpt>
      <trkpt lat="43.22022" lon="2.60898">
        <ele>62.9</ele>
        <time>2024-05-10T06:59:08Z</time>
      </trkpt>
      <trkpt lat="43.2203" lon="2.60924">
        <ele>63</ele>
        <time>2024-05-10T06:59:09Z</time>
      </trkpt>
      <trkpt lat="43.2204" lon="2.60951">
        <ele>62.9</ele>
        <time>2024-05-10T06:59:10Z</time>
      </trkpt>
      <trkpt lat="43.22048" lon="2.60976">
        <ele>62.6</ele>
        <time>2024-05-10T06:59:11Z</time>
      </trkpt>
      <trkpt lat="43.22056" lon="2.61002">
        <ele>62</ele>
        <time>2024-05-10T06:59:12Z</time>
      </trkpt>
      <trkpt lat="43.22065" lon="2.61026">
        <ele>62.3</ele>
        <time>2024-05-10T06:59:13Z</time>
      </trkpt>
      <trkpt lat="43.22073" lon="2.6105">
        <ele>62.6</ele>
        <time>2024-05-10T06:59:14Z</time>
      </trkpt>
      <trkpt lat="43.22082" lon="2.61075">
        <ele>63</ele>
        <time>2024-05-10T06:59:15Z</time>
      </trkpt>
      <trkpt lat="43.22091" lon="2.611">
        <ele>62.8</ele>
        <time>2024-05-10T06:59:16Z</time>
      </trkpt>
      <trkpt lat="43.22101" lon="2.61125">
        <ele>62.4</ele>
        <time>2024-05-10T06:59:17Z</time>
      </trkpt>
      <trkpt lat="43.2211" lon="2.61151">
        <ele>61.6</ele>
        <time>2024-05-10T06:59:18Z</time>
      </trkpt>
      <trkpt lat="43.2212" lon="2.61176">
        <ele>61.2</ele>
        <time>2024-05-10T06:59:19Z</time>
      </trkpt>
      <trkpt lat="43.2213" lon="2.61202">
        <ele>61.1</ele>
        <time>2024-05-10T06:59:20Z</time>
      </trkpt>
      <trkpt lat="43.22139" lon="2.61227">
        <ele>60.2</ele>
        <time>2024-05-10T06:59:21Z</time>
      </trkpt>
      <trkpt lat="43.22149" lon="2.61253">
        <ele>60.6</ele>
        <time>2024-05-10T06:59:22Z</time>
      </trkpt>
      <trkpt lat="43.22158" lon="2.61278">
        <ele>59.6</ele>
        <time>2024-05-10T06:59:23Z</time>
      </trkpt>
      <trkpt lat="43.22167" lon="2.61305">
        <ele>59</ele>
        <time>2024-05-10T06:59:24Z</time>
      </trkpt>
      <trkpt lat="43.22176" lon="2.61332">
        <ele>58.7</ele>
        <time>2024-05-10T06:59:25Z</time>
      </trkpt>
      <trkpt lat="43.22184" lon="2.61359">
        <ele>57.8</ele>
        <time>2024-05-10T06:59:26Z</time>
      </trkpt>
      <trkpt lat="43.22193" lon="2.61386">
        <ele>57.1</ele>
        <time>2024-05-10T06:59:27Z</time>
      </trkpt>
      <trkpt lat="43.222" lon="2.61413">
        <ele>56.8</ele>
        <time>2024-05-10T06:59:28Z</time>
      </trkpt>
      <trkpt lat="43.22208" lon="2.61439">
        <ele>56.5</ele>
        <time>2024-05-10T06:59:29Z</time>
      </trkpt>
      <trkpt lat="43.22214" lon="2.61465">
        <ele>56</ele>
        <time>2024-05-10T06:59:30Z</time>
      </trkpt>
      <trkpt lat="43.2222" lon="2.6149">
        <ele>55.2</ele>
        <time>2024-05-10T06:59:31Z</time>
      </trkpt>
      <trkpt lat="43.22226" lon="2.61514">
        <ele>55</ele>
        <time>2024-05-10T06:59:32Z</time>
      </trkpt>
      <trkpt lat="43.22231" lon="2.61538">
        <ele>55.1</ele>
        <time>2024-05-10T06:59:33Z</time>
      </trkpt>
      <trkpt lat="43.22236" lon="2.61561">
        <ele>55</ele>
        <time>2024-05-10T06:59:34Z</time>
      </trkpt>
      <trkpt lat="43.2224" lon="2.61582">
        <ele>54.7</ele>
        <time>2024-05-10T06:59:35Z</time>
      </trkpt>
      <trkpt lat="43.22244" lon="2.61602">
        <ele>54.3</ele>
        <time>2024-05-10T06:59:36Z</time>
      </trkpt>
      <trkpt lat="43.22248" lon="2.61621">
        <ele>54.1</ele>
        <time>2024-05-10T06:59:37Z</time>
      </trkpt>
      <trkpt lat="43.2225" lon="2.61639">
        <ele>54</ele>
        <time>2024-05-10T06:59:38Z</time>
      </trkpt>
      <trkpt lat="43.22252" lon="2.61658">
        <ele>54</ele>
        <time>2024-05-10T06:59:39Z</time>
      </trkpt>
      <trkpt lat="43.22253" lon="2.61676">
        <ele>54</ele>
        <time>2024-05-10T06:59:40Z</time>
      </trkpt>
      <trkpt lat="43.22254" lon="2.61694">
        <ele>54</ele>
        <time>2024-05-10T06:59:41Z</time>
      </trkpt>
      <trkpt lat="43.22254" lon="2.61712">
        <ele>54</ele>
        <time>2024-05-10T06:59:42Z</time>
      </trkpt>
      <trkpt lat="43.22253" lon="2.6173">
        <ele>54</ele>
        <time>2024-05-10T06:59:43Z</time>
      </trkpt>
      <trkpt lat="43.22253" lon="2.61746">
        <ele>54</ele>
        <time>2024-05-10T06:59:44Z</time>
      </trkpt>
      <trkpt lat="43.22252" lon="2.61762">
        <ele>54</ele>
        <time>2024-05-10T06:59:45Z</time>
      </trkpt>
      <trkpt lat="43.22252" lon="2.61777">
        <ele>54</ele>
        <time>2024-05-10T06:59:46Z</time>
      </trkpt>
      <trkpt lat="43.22253" lon="2.61792">
        <ele>54</ele>
        <time>2024-05-10T06:59:47Z</time>
      </trkpt>
      <trkpt lat="43.22253" lon="2.61807">
        <ele>54</ele>
        <time>2024-05-10T06:59:48Z</time>
      </trkpt>
      <trkpt lat="43.22253" lon="2.61821">
        <ele>54</ele>
        <time>2024-05-10T06:59:49Z</time>
      </trkpt>
      <trkpt lat="43.22253" lon="2.61835">
        <ele>54</ele>
        <time>2024-05-10T06:59:50Z</time>
      </trkpt>
      <trkpt lat="43.22254" lon="2.61847">
        <ele>54</ele>
        <time>2024-05-10T06:59:51Z</time>
      </trkpt>
      <trkpt lat="43.22254" lon="2.6186">
        <ele>54</ele>
        <time>2024-05-10T06:59:52Z</time>
      </trkpt>
      <trkpt lat="43.22255" lon="2.61872">
        <ele>54</ele>
        <time>2024-05-10T06:59:53Z</time>
      </trkpt>
      <trkpt lat="43.22255" lon="2.61884">
        <ele>54</ele>
        <time>2024-05-10T06:59:54Z</time>
      </trkpt>
      <trkpt lat="43.22256" lon="2.61897">
        <ele>54</ele>
        <time>2024-05-10T06:59:55Z</time>
      </trkpt>
      <trkpt lat="43.22256" lon="2.61909">
        <ele>54</ele>
        <time>2024-05-10T06:59:56Z</time>
      </trkpt>
      <trkpt lat="43.22257" lon="2.61922">
        <ele>54</ele>
        <time>2024-05-10T06:59:57Z</time>
      </trkpt>
      <trkpt lat="43.22258" lon="2.61936">
        <ele>54</ele>
        <time>2024-05-10T06:59:58Z</time>
      </trkpt>
      <trkpt lat="43.22259" lon="2.61951">
        <ele>54</ele>
        <time>2024-05-10T06:59:59Z</time>
      </trkpt>
      <trkpt lat="43.2226" lon="2.61965">
        <ele>54</ele>
        <time>2024-05-10T07:00:00Z</time>
      </trkpt>
      <trkpt lat="43.2226" lon="2.6198">
        <ele>53.8</ele>
        <time>2024-05-10T07:00:01Z</time>
      </trkpt>
      <trkpt lat="43.22261" lon="2.61995">
        <ele>53.5</ele>
        <time>2024-05-10T07:00:02Z</time>
      </trkpt>
      <trkpt lat="43.22262" lon="2.6201">
        <ele>53.4</ele>
        <time>2024-05-10T07:00:03Z</time>
      </trkpt>
      <trkpt lat="43.22262" lon="2.62024">
        <ele>53.4</ele>
        <time>2024-05-10T07:00:04Z</time>
      </trkpt>
      <trkpt lat="43.22263" lon="2.62037">
        <ele>53.6</ele>
        <time>2024-05-10T07:00:05Z</time>
      </trkpt>
      <trkpt lat="43.22263" lon="2.6205">
        <ele>53.9</ele>
        <time>2024-05-10T07:00:06Z</time>
      </trkpt>
      <trkpt lat="43.22264" lon="2.62063">
        <ele>54</ele>
        <time>2024-05-10T07:00:07Z</time>
      </trkpt>
      <trkpt lat="43.22264" lon="2.62076">
        <ele>54</ele>
        <time>2024-05-10T07:00:08Z</time>
      </trkpt>
      <trkpt lat="43.22265" lon="2.6209">
        <ele>54</ele>
        <time>2024-05-10T07:00:09Z</time>
      </trkpt>
      <trkpt lat="43.22266" lon="2.62103">
        <ele>54</ele>
        <time>2024-05-10T07:00:10Z</time>
      </trkpt>
      <trkpt lat="43.22268" lon="2.62118">
        <ele>54</ele>
        <time>2024-05-10T07:00:11Z</time>
      </trkpt>
      <trkpt lat="43.22269" lon="2.62133">
        <ele>54</ele>
        <time>2024-05-10T07:00:12Z</time>
      </trkpt>
      <trkpt lat="43.22271" lon="2.62148">
        <ele>54</ele>
        <time>2024-05-10T07:00:13Z</time>
      </trkpt>
      <trkpt lat="43.22273" lon="2.62162">
        <ele>54</ele>
        <time>2024-05-10T07:00:14Z</time>
      </trkpt>
      <trkpt lat="43.22276" lon="2.62176">
        <ele>54</ele>
        <time>2024-05-10T07:00:15Z</time>
      </trkpt>
      <trkpt lat="43.22278" lon="2.62188">
        <ele>54</ele>
        <time>2024-05-10T07:00:16Z</time>
      </trkpt>
      <trkpt lat="43.2228" lon="2.62199">
        <ele>53.7</ele>
        <time>2024-05-10T07:00:17Z</time>
      </trkpt>
      <trkpt lat="43.22282" lon="2.62208">
        <ele>53</ele>
        <time>2024-05-10T07:00:18Z</time>
      </trkpt>
      <trkpt lat="43.22285" lon="2.62217">
        <ele>52.4</ele>
        <time>2024-05-10T07:00:19Z</time>
      </trkpt>
      <trkpt lat="43.22287" lon="2.62225">
        <ele>52.1</ele>
        <time>2024-05-10T07:00:20Z</time>
      </trkpt>
      <trkpt lat="43.22289" lon="2.62233">
        <ele>52.4</ele>
        <time>2024-05-10T07:00:21Z</time>
      </trkpt>
      <trkpt lat="43.2229" lon="2.62241">
        <ele>52.7</ele>
        <time>2024-05-10T07:00:22Z</time>
      </trkpt>
      <trkpt lat="43.22292" lon="2.62251">
        <ele>53</ele>
        <time>2024-05-10T07:00:23Z</time>
      </trkpt>
      <trkpt lat="43.22294" lon="2.62261">
        <ele>53.4</ele>
        <time>2024-05-10T07:00:24Z</time>
      </trkpt>
      <trkpt lat="43.22297" lon="2.62273">
        <ele>53.8</ele>
        <time>2024-05-10T07:00:25Z</time>
      </trkpt>
      <trkpt lat="43.223" lon="2.62285">
        <ele>54</ele>
        <time>2024-05-10T07:00:26Z</time>
      </trkpt>
      <trkpt lat="43.22301" lon="2.62299">
        <ele>54</ele>
        <time>2024-05-10T07:00:27Z</time>
      </trkpt>
      <trkpt lat="43.22302" lon="2.62313">
        <ele>54.1</ele>
        <time>2024-05-10T07:00:28Z</time>
      </trkpt>
      <trkpt lat="43.22303" lon="2.62327">
        <ele>54.1</ele>
        <time>2024-05-10T07:00:29Z</time>
      </trkpt>
      <trkpt lat="43.22303" lon="2.6234">
        <ele>54.4</ele>
        <time>2024-05-10T07:00:30Z</time>
      </trkpt>
      <trkpt lat="43.22303" lon="2.62352">
        <ele>54.9</ele>
        <time>2024-05-10T07:00:31Z</time>
      </trkpt>
      <trkpt lat="43.22303" lon="2.62363">
        <ele>55.2</ele>
        <time>2024-05-10T07:00:32Z</time>
      </trkpt>
      <trkpt lat="43.22303" lon="2.62374">
        <ele>55.6</ele>
        <time>2024-05-10T07:00:33Z</time>
      </trkpt>
      <trkpt lat="43.22303" lon="2.62384">
        <ele>55.9</ele>
        <time>2024-05-10T07:00:34Z</time>
      </trkpt>
      <trkpt lat="43.22304" lon="2.62394">
        <ele>56</ele>
        <time>2024-05-10T07:00:35Z</time>
      </trkpt>
      <trkpt lat="43.22304" lon="2.62403">
        <ele>56</ele>
        <time>2024-05-10T07:00:36Z</time>
      </trkpt>
      <trkpt lat="43.22303" lon="2.62413">
        <ele>56</ele>
        <time>2024-05-10T07:00:37Z</time>
      </trkpt>
      <trkpt lat="43.22303" lon="2.62421">
        <ele>55.8</ele>
        <time>2024-05-10T07:00:38Z</time>
      </trkpt>
      <trkpt lat="43.22303" lon="2.62429">
        <ele>55.6</ele>
        <time>2024-05-10T07:00:39Z</time>
      </trkpt>
      <trkpt lat="43.22303" lon="2.62438">
        <ele>55.2</ele>
        <time>2024-05-10T07:00:40Z</time>
      </trkpt>
      <trkpt lat="43.22304" lon="2.62447">
        <ele>55</ele>
        <time>2024-05-10T07:00:41Z</time>
      </trkpt>
      <trkpt lat="43.22306" lon="2.62455">
        <ele>55</ele>
        <time>2024-05-10T07:00:42Z</time>
      </trkpt>
      <trkpt lat="43.22307" lon="2.62463">
        <ele>55</ele>
        <time>2024-05-10T07:00:43Z</time>
      </trkpt>
      <trkpt lat="43.22308" lon="2.62472">
        <ele>55</ele>
        <time>2024-05-10T07:00:44Z</time>
      </trkpt>
      <trkpt lat="43.2231" lon="2.6248">
        <ele>55</ele>
        <time>2024-05-10T07:00:45Z</time>
      </trkpt>
      <trkpt lat="43.22312" lon="2.62489">
        <ele>55</ele>
        <time>2024-05-10T07:00:46Z</time>
      </trkpt>
      <trkpt lat="43.22315" lon="2.62498">
        <ele>55</ele>
        <time>2024-05-10T07:00:47Z</time>
      </trkpt>
      <trkpt lat="43.22318" lon="2.62507">
        <ele>54.9</ele>
        <time>2024-05-10T07:00:48Z</time>
      </trkpt>
      <trkpt lat="43.22322" lon="2.62517">
        <ele>54.8</ele>
        <time>2024-05-10T07:00:49Z</time>
      </trkpt>
      <trkpt lat="43.22324" lon="2.62527">
        <ele>54.7</ele>
        <time>2024-05-10T07:00:50Z</time>
      </trkpt>
      <trkpt lat="43.22327" lon="2.62538">
        <ele>54.6</ele>
        <time>2024-05-10T07:00:51Z</time>
      </trkpt>
      <trkpt lat="43.22329" lon="2.6255">
        <ele>54.3</ele>
        <time>2024-05-10T07:00:52Z</time>
      </trkpt>
      <trkpt lat="43.22332" lon="2.62561">
        <ele>54</ele>
        <time>2024-05-10T07:00:53Z</time>
      </trkpt>
      <trkpt lat="43.22335" lon="2.62572">
        <ele>54.1</ele>
        <time>2024-05-10T07:00:54Z</time>
      </trkpt>
      <trkpt lat="43.22338" lon="2.62584">
        <ele>54.2</ele>
        <time>2024-05-10T07:00:55Z</time>
      </trkpt>
      <trkpt lat="43.22341" lon="2.62596">
        <ele>54.2</ele>
        <time>2024-05-10T07:00:56Z</time>
      </trkpt>
      <trkpt lat="43.22345" lon="2.62608">
        <ele>54</ele>
        <time>2024-05-10T07:00:57Z</time>
      </trkpt>
      <trkpt lat="43.22348" lon="2.6262">
        <ele>54</ele>
        <time>2024-05-10T07:00:58Z</time>
      </trkpt>
      <trkpt lat="43.22351" lon="2.62633">
        <ele>54</ele>
        <time>2024-05-10T07:00:59Z</time>
      </trkpt>
      <trkpt lat="43.22356" lon="2.62645">
        <ele>53.8</ele>
        <time>2024-05-10T07:01:00Z</time>
      </trkpt>
      <trkpt lat="43.2236" lon="2.62657">
        <ele>53.4</ele>
        <time>2024-05-10T07:01:01Z</time>
      </trkpt>
      <trkpt lat="43.22364" lon="2.62669">
        <ele>53.2</ele>
        <time>2024-05-10T07:01:02Z</time>
      </trkpt>
      <trkpt lat="43.22368" lon="2.6268">
        <ele>53.5</ele>
        <time>2024-05-10T07:01:03Z</time>
      </trkpt>
      <trkpt lat="43.22372" lon="2.62691">
        <ele>53.6</ele>
        <time>2024-05-10T07:01:04Z</time>
      </trkpt>
      <trkpt lat="43.22378" lon="2.62701">
        <ele>53.4</ele>
        <time>2024-05-10T07:01:05Z</time>
      </trkpt>
      <trkpt lat="43.22384" lon="2.62711">
        <ele>53.2</ele>
        <time>2024-05-10T07:01:06Z</time>
      </trkpt>
      <trkpt lat="43.22391" lon="2.62721">
        <ele>53.1</ele>
        <time>2024-05-10T07:01:07Z</time>
      </trkpt>
      <trkpt lat="43.22398" lon="2.6273">
        <ele>53.5</ele>
        <time>2024-05-10T07:01:08Z</time>
      </trkpt>
      <trkpt lat="43.22405" lon="2.62739">
        <ele>53.8</ele>
        <time>2024-05-10T07:01:09Z</time>
      </trkpt>
      <trkpt lat="43.22411" lon="2.62749">
        <ele>54</ele>
        <time>2024-05-10T07:01:10Z</time>
      </trkpt>
      <trkpt lat="43.22418" lon="2.62759">
        <ele>54</ele>
        <time>2024-05-10T07:01:11Z</time>
      </trkpt>
      <trkpt lat="43.22426" lon="2.6277">
        <ele>54.3</ele>
        <time>2024-05-10T07:01:12Z</time>
      </trkpt>
      <trkpt lat="43.22433" lon="2.6278">
        <ele>54.5</ele>
        <time>2024-05-10T07:01:13Z</time>
      </trkpt>
      <trkpt lat="43.22441" lon="2.6279">
        <ele>54.5</ele>
        <time>2024-05-10T07:01:14Z</time>
      </trkpt>
      <trkpt lat="43.2245" lon="2.62803">
        <ele>54.3</ele>
        <time>2024-05-10T07:01:15Z</time>
      </trkpt>
      <trkpt lat="43.22458" lon="2.62815">
        <ele>54.3</ele>
        <time>2024-05-10T07:01:16Z</time>
      </trkpt>
      <trkpt lat="43.22465" lon="2.62828">
        <ele>54.1</ele>
        <time>2024-05-10T07:01:17Z</time>
      </trkpt>
      <trkpt lat="43.22473" lon="2.62843">
        <ele>54</ele>
        <time>2024-05-10T07:01:18Z</time>
      </trkpt>
      <trkpt lat="43.2248" lon="2.62856">
        <ele>54.3</ele>
        <time>2024-05-10T07:01:19Z</time>
      </trkpt>
      <trkpt lat="43.22487" lon="2.6287">
        <ele>54.5</ele>
        <time>2024-05-10T07:01:20Z</time>
      </trkpt>
      <trkpt lat="43.22493" lon="2.62884">
        <ele>54.7</ele>
        <time>2024-05-10T07:01:21Z</time>
      </trkpt>
      <trkpt lat="43.22499" lon="2.62897">
        <ele>54.4</ele>
        <time>2024-05-10T07:01:22Z</time>
      </trkpt>
      <trkpt lat="43.22505" lon="2.62912">
        <ele>53.6</ele>
        <time>2024-05-10T07:01:23Z</time>
      </trkpt>
      <trkpt lat="43.22512" lon="2.62927">
        <ele>53.9</ele>
        <time>2024-05-10T07:01:24Z</time>
      </trkpt>
      <trkpt lat="43.22518" lon="2.62942">
        <ele>54.3</ele>
        <time>2024-05-10T07:01:25Z</time>
      </trkpt>
      <trkpt lat="43.22522" lon="2.62956">
        <ele>53.9</ele>
        <time>2024-05-10T07:01:26Z</time>
      </trkpt>
      <trkpt lat="43.22528" lon="2.6297">
        <ele>53.2</ele>
        <time>2024-05-10T07:01:27Z</time>
      </trkpt>
      <trkpt lat="43.22532" lon="2.62981">
        <ele>53.2</ele>
        <time>2024-05-10T07:01:28Z</time>
      </trkpt>
      <trkpt lat="43.22536" lon="2.62993">
        <ele>53.3</ele>
        <time>2024-05-10T07:01:29Z</time>
      </trkpt>
      <trkpt lat="43.22537" lon="2.63006">
        <ele>52.9</ele>
        <time>2024-05-10T07:01:30Z</time>
      </trkpt>
      <trkpt lat="43.22542" lon="2.63019">
        <ele>52.5</ele>
        <time>2024-05-10T07:01:31Z</time>
      </trkpt>
      <trkpt lat="43.22547" lon="2.63032">
        <ele>52.7</ele>
        <time>2024-05-10T07:01:32Z</time>
      </trkpt>
      <trkpt lat="43.22549" lon="2.63044">
        <ele>52.7</ele>
        <time>2024-05-10T07:01:33Z</time>
      </trkpt>
      <trkpt lat="43.22553" lon="2.63056">
        <ele>52.8</ele>
        <time>2024-05-10T07:01:34Z</time>
      </trkpt>
      <trkpt lat="43.22555" lon="2.6307">
        <ele>53</ele>
        <time>2024-05-10T07:01:35Z</time>
      </trkpt>
      <trkpt lat="43.2256" lon="2.63084">
        <ele>53.2</ele>
        <time>2024-05-10T07:01:36Z</time>
      </trkpt>
      <trkpt lat="43.22565" lon="2.631">
        <ele>53.3</ele>
        <time>2024-05-10T07:01:37Z</time>
      </trkpt>
      <trkpt lat="43.22569" lon="2.63117">
        <ele>53.5</ele>
        <time>2024-05-10T07:01:38Z</time>
      </trkpt>
      <trkpt lat="43.22574" lon="2.63136">
        <ele>53.7</ele>
        <time>2024-05-10T07:01:39Z</time>
      </trkpt>
      <trkpt lat="43.22579" lon="2.63154">
        <ele>53.2</ele>
        <time>2024-05-10T07:01:40Z</time>
      </trkpt>
      <trkpt lat="43.22585" lon="2.63174">
        <ele>52.8</ele>
        <time>2024-05-10T07:01:41Z</time>
      </trkpt>
      <trkpt lat="43.22591" lon="2.63194">
        <ele>52.6</ele>
        <time>2024-05-10T07:01:42Z</time>
      </trkpt>
      <trkpt lat="43.22597" lon="2.63216">
        <ele>53.4</ele>
        <time>2024-05-10T07:01:43Z</time>
      </trkpt>
      <trkpt lat="43.22602" lon="2.63238">
        <ele>53.3</ele>
        <time>2024-05-10T07:01:44Z</time>
      </trkpt>
      <trkpt lat="43.22608" lon="2.63261">
        <ele>53</ele>
        <time>2024-05-10T07:01:45Z</time>
      </trkpt>
      <trkpt lat="43.22615" lon="2.63285">
        <ele>53</ele>
        <time>2024-05-10T07:01:46Z</time>
      </trkpt>
      <trkpt lat="43.22621" lon="2.63308">
        <ele>53.3</ele>
        <time>2024-05-10T07:01:47Z</time>
      </trkpt>
      <trkpt lat="43.22627" lon="2.63333">
        <ele>53</ele>
        <time>2024-05-10T07:01:48Z</time>
      </trkpt>
      <trkpt lat="43.22634" lon="2.63358">
        <ele>53</ele>
        <time>2024-05-10T07:01:49Z</time>
      </trkpt>
      <trkpt lat="43.2264" lon="2.63382">
        <ele>53</ele>
        <time>2024-05-10T07:01:50Z</time>
      </trkpt>
      <trkpt lat="43.22647" lon="2.63407">
        <ele>53</ele>
        <time>2024-05-10T07:01:51Z</time>
      </trkpt>
      <trkpt lat="43.22654" lon="2.63431">
        <ele>53</ele>
        <time>2024-05-10T07:01:52Z</time>
      </trkpt>
      <trkpt lat="43.22662" lon="2.63457">
        <ele>53.1</ele>
        <time>2024-05-10T07:01:53Z</time>
      </trkpt>
      <trkpt lat="43.22671" lon="2.63482">
        <ele>53</ele>
        <time>2024-05-10T07:01:54Z</time>
      </trkpt>
      <trkpt lat="43.22682" lon="2.63507">
        <ele>53.1</ele>
        <time>2024-05-10T07:01:55Z</time>
      </trkpt>
      <trkpt lat="43.22692" lon="2.63532">
        <ele>53.2</ele>
        <time>2024-05-10T07:01:56Z</time>
      </trkpt>
      <trkpt lat="43.22704" lon="2.63556">
        <ele>53.7</ele>
        <time>2024-05-10T07:01:57Z</time>
      </trkpt>
      <trkpt lat="43.22715" lon="2.6358">
        <ele>53.3</ele>
        <time>2024-05-10T07:01:58Z</time>
      </trkpt>
      <trkpt lat="43.22726" lon="2.63603">
        <ele>53.6</ele>
        <time>2024-05-10T07:01:59Z</time>
      </trkpt>
      <trkpt lat="43.22737" lon="2.63627">
        <ele>53.2</ele>
        <time>2024-05-10T07:02:00Z</time>
      </trkpt>
      <trkpt lat="43.22749" lon="2.63652">
        <ele>53</ele>
        <time>2024-05-10T07:02:01Z</time>
      </trkpt>
      <trkpt lat="43.22761" lon="2.63676">
        <ele>53</ele>
        <time>2024-05-10T07:02:02Z</time>
      </trkpt>
      <trkpt lat="43.22773" lon="2.63699">
        <ele>53</ele>
        <time>2024-05-10T07:02:03Z</time>
      </trkpt>
      <trkpt lat="43.22786" lon="2.63721">
        <ele>53</ele>
        <time>2024-05-10T07:02:04Z</time>
      </trkpt>
      <trkpt lat="43.22798" lon="2.63741">
        <ele>53</ele>
        <time>2024-05-10T07:02:05Z</time>
      </trkpt>
      <trkpt lat="43.2281" lon="2.63762">
        <ele>53</ele>
        <time>2024-05-10T07:02:06Z</time>
      </trkpt>
      <trkpt lat="43.22823" lon="2.63783">
        <ele>53</ele>
        <time>2024-05-10T07:02:07Z</time>
      </trkpt>
      <trkpt lat="43.22835" lon="2.63803">
        <ele>53</ele>
        <time>2024-05-10T07:02:08Z</time>
      </trkpt>
      <trkpt lat="43.22848" lon="2.63822">
        <ele>53</ele>
        <time>2024-05-10T07:02:09Z</time>
      </trkpt>
      <trkpt lat="43.2286" lon="2.63841">
        <ele>53</ele>
        <time>2024-05-10T07:02:10Z</time>
      </trkpt>
      <trkpt lat="43.22871" lon="2.63859">
        <ele>53</ele>
        <time>2024-05-10T07:02:11Z</time>
      </trkpt>
      <trkpt lat="43.22883" lon="2.63878">
        <ele>53</ele>
        <time>2024-05-10T07:02:12Z</time>
      </trkpt>
      <trkpt lat="43.22895" lon="2.63895">
        <ele>53</ele>
        <time>2024-05-10T07:02:13Z</time>
      </trkpt>
      <trkpt lat="43.22908" lon="2.63914">
        <ele>52.4</ele>
        <time>2024-05-10T07:02:14Z</time>
      </trkpt>
      <trkpt lat="43.2292" lon="2.63933">
        <ele>52.6</ele>
        <time>2024-05-10T07:02:15Z</time>
      </trkpt>
      <trkpt lat="43.22933" lon="2.63952">
        <ele>52.9</ele>
        <time>2024-05-10T07:02:16Z</time>
      </trkpt>
      <trkpt lat="43.22946" lon="2.6397">
        <ele>52.9</ele>
        <time>2024-05-10T07:02:17Z</time>
      </trkpt>
      <trkpt lat="43.22959" lon="2.63987">
        <ele>52.2</ele>
        <time>2024-05-10T07:02:18Z</time>
      </trkpt>
      <trkpt lat="43.22971" lon="2.64005">
        <ele>52.2</ele>
        <time>2024-05-10T07:02:19Z</time>
      </trkpt>
      <trkpt lat="43.22984" lon="2.64025">
        <ele>52.5</ele>
        <time>2024-05-10T07:02:20Z</time>
      </trkpt>
      <trkpt lat="43.22996" lon="2.64045">
        <ele>52.6</ele>
        <time>2024-05-10T07:02:21Z</time>
      </trkpt>
      <trkpt lat="43.23009" lon="2.64065">
        <ele>52.4</ele>
        <time>2024-05-10T07:02:22Z</time>
      </trkpt>
      <trkpt lat="43.23021" lon="2.64087">
        <ele>52.1</ele>
        <time>2024-05-10T07:02:23Z</time>
      </trkpt>
      <trkpt lat="43.23033" lon="2.64108">
        <ele>52.7</ele>
        <time>2024-05-10T07:02:24Z</time>
      </trkpt>
      <trkpt lat="43.23046" lon="2.64129">
        <ele>52.1</ele>
        <time>2024-05-10T07:02:25Z</time>
      </trkpt>
      <trkpt lat="43.23059" lon="2.64151">
        <ele>52</ele>
        <time>2024-05-10T07:02:26Z</time>
      </trkpt>
      <trkpt lat="43.23072" lon="2.64173">
        <ele>52</ele>
        <time>2024-05-10T07:02:27Z</time>
      </trkpt>
      <trkpt lat="43.23085" lon="2.64195">
        <ele>52</ele>
        <time>2024-05-10T07:02:28Z</time>
      </trkpt>
      <trkpt lat="43.23098" lon="2.64216">
        <ele>52</ele>
        <time>2024-05-10T07:02:29Z</time>
      </trkpt>
      <trkpt lat="43.23111" lon="2.64238">
        <ele>52</ele>
        <time>2024-05-10T07:02:30Z</time>
      </trkpt>
      <trkpt lat="43.23125" lon="2.64257">
        <ele>52</ele>
        <time>2024-05-10T07:02:31Z</time>
      </trkpt>
      <trkpt lat="43.23139" lon="2.64276">
        <ele>52</ele>
        <time>2024-05-10T07:02:32Z</time>
      </trkpt>
      <trkpt lat="43.23153" lon="2.64293">
        <ele>52</ele>
        <time>2024-05-10T07:02:33Z</time>
      </trkpt>
      <trkpt lat="43.23168" lon="2.6431">
        <ele>52</ele>
        <time>2024-05-10T07:02:34Z</time>
      </trkpt>
      <trkpt lat="43.23183" lon="2.64326">
        <ele>52</ele>
        <time>2024-05-10T07:02:35Z</time>
      </trkpt>
      <trkpt lat="43.23198" lon="2.64342">
        <ele>52</ele>
        <time>2024-05-10T07:02:36Z</time>
      </trkpt>
      <trkpt lat="43.23213" lon="2.64359">
        <ele>52</ele>
        <time>2024-05-10T07:02:37Z</time>
      </trkpt>
      <trkpt lat="43.23229" lon="2.64376">
        <ele>52</ele>
        <time>2024-05-10T07:02:38Z</time>
      </trkpt>
      <trkpt lat="43.23243" lon="2.64395">
        <ele>52</ele>
        <time>2024-05-10T07:02:39Z</time>
      </trkpt>
      <trkpt lat="43.23258" lon="2.64413">
        <ele>52</ele>
        <time>2024-05-10T07:02:40Z</time>
      </trkpt>
      <trkpt lat="43.23273" lon="2.64432">
        <ele>51.9</ele>
        <time>2024-05-10T07:02:41Z</time>
      </trkpt>
      <trkpt lat="43.23287" lon="2.6445">
        <ele>51.9</ele>
        <time>2024-05-10T07:02:42Z</time>
      </trkpt>
      <trkpt lat="43.23302" lon="2.64468">
        <ele>51.9</ele>
        <time>2024-05-10T07:02:43Z</time>
      </trkpt>
      <trkpt lat="43.23316" lon="2.64485">
        <ele>51.9</ele>
        <time>2024-05-10T07:02:44Z</time>
      </trkpt>
      <trkpt lat="43.2333" lon="2.64501">
        <ele>51.8</ele>
        <time>2024-05-10T07:02:45Z</time>
      </trkpt>
      <trkpt lat="43.23344" lon="2.64518">
        <ele>52.1</ele>
        <time>2024-05-10T07:02:46Z</time>
      </trkpt>
      <trkpt lat="43.23357" lon="2.64537">
        <ele>52.4</ele>
        <time>2024-05-10T07:02:47Z</time>
      </trkpt>
      <trkpt lat="43.23369" lon="2.64557">
        <ele>52.2</ele>
        <time>2024-05-10T07:02:48Z</time>
      </trkpt>
      <trkpt lat="43.2338" lon="2.64578">
        <ele>51.9</ele>
        <time>2024-05-10T07:02:49Z</time>
      </trkpt>
      <trkpt lat="43.2339" lon="2.64598">
        <ele>52</ele>
        <time>2024-05-10T07:02:50Z</time>
      </trkpt>
      <trkpt lat="43.234" lon="2.64618">
        <ele>52.3</ele>
        <time>2024-05-10T07:02:51Z</time>
      </trkpt>
      <trkpt lat="43.2341" lon="2.64638">
        <ele>52.5</ele>
        <time>2024-05-10T07:02:52Z</time>
      </trkpt>
      <trkpt lat="43.2342" lon="2.64658">
        <ele>51.7</ele>
        <time>2024-05-10T07:02:53Z</time>
      </trkpt>
      <trkpt lat="43.2343" lon="2.64679">
        <ele>51.7</ele>
        <time>2024-05-10T07:02:54Z</time>
      </trkpt>
      <trkpt lat="43.23441" lon="2.647">
        <ele>51.7</ele>
        <time>2024-05-10T07:02:55Z</time>
      </trkpt>
      <trkpt lat="43.23452" lon="2.6472">
        <ele>51.6</ele>
        <time>2024-05-10T07:02:56Z</time>
      </trkpt>
      <trkpt lat="43.23462" lon="2.64741">
        <ele>51.8</ele>
        <time>2024-05-10T07:02:57Z</time>
      </trkpt>
      <trkpt lat="43.23472" lon="2.64761">
        <ele>51.6</ele>
        <time>2024-05-10T07:02:58Z</time>
      </trkpt>
      <trkpt lat="43.23482" lon="2.6478">
        <ele>51.7</ele>
        <time>2024-05-10T07:02:59Z</time>
      </trkpt>
      <trkpt lat="43.23492" lon="2.64799">
        <ele>51.9</ele>
        <time>2024-05-10T07:03:00Z</time>
      </trkpt>
      <trkpt lat="43.23502" lon="2.64817">
        <ele>51.6</ele>
        <time>2024-05-10T07:03:01Z</time>
      </trkpt>
      <trkpt lat="43.23511" lon="2.64835">
        <ele>51.8</ele>
        <time>2024-05-10T07:03:02Z</time>
      </trkpt>
      <trkpt lat="43.2352" lon="2.64852">
        <ele>52</ele>
        <time>2024-05-10T07:03:03Z</time>
      </trkpt>
      <trkpt lat="43.23529" lon="2.64869">
        <ele>51.7</ele>
        <time>2024-05-10T07:03:04Z</time>
      </trkpt>
      <trkpt lat="43.23538" lon="2.64886">
        <ele>51.7</ele>
        <time>2024-05-10T07:03:05Z</time>
      </trkpt>
      <trkpt lat="43.23547" lon="2.64903">
        <ele>52</ele>
        <time>2024-05-10T07:03:06Z</time>
      </trkpt>
      <trkpt lat="43.23556" lon="2.6492">
        <ele>51.9</ele>
        <time>2024-05-10T07:03:07Z</time>
      </trkpt>
      <trkpt lat="43.23566" lon="2.64939">
        <ele>51.7</ele>
        <time>2024-05-10T07:03:08Z</time>
      </trkpt>
      <trkpt lat="43.23576" lon="2.64957">
        <ele>52.1</ele>
        <time>2024-05-10T07:03:09Z</time>
      </trkpt>
      <trkpt lat="43.23586" lon="2.64977">
        <ele>52</ele>
        <time>2024-05-10T07:03:10Z</time>
      </trkpt>
      <trkpt lat="43.23595" lon="2.64995">
        <ele>52.6</ele>
        <time>2024-05-10T07:03:11Z</time>
      </trkpt>
      <trkpt lat="43.23605" lon="2.65013">
        <ele>52.7</ele>
        <time>2024-05-10T07:03:12Z</time>
      </trkpt>
      <trkpt lat="43.23615" lon="2.65032">
        <ele>51.9</ele>
        <time>2024-05-10T07:03:13Z</time>
      </trkpt>
      <trkpt lat="43.23625" lon="2.65051">
        <ele>52.4</ele>
        <time>2024-05-10T07:03:14Z</time>
      </trkpt>
      <trkpt lat="43.23634" lon="2.65071">
        <ele>52.6</ele>
        <time>2024-05-10T07:03:15Z</time>
      </trkpt>
      <trkpt lat="43.23645" lon="2.65091">
        <ele>52</ele>
        <time>2024-05-10T07:03:16Z</time>
      </trkpt>
      <trkpt lat="43.23655" lon="2.65112">
        <ele>53.3</ele>
        <time>2024-05-10T07:03:17Z</time>
      </trkpt>
      <trkpt lat="43.23666" lon="2.65132">
        <ele>52.7</ele>
        <time>2024-05-10T07:03:18Z</time>
      </trkpt>
      <trkpt lat="43.23676" lon="2.65153">
        <ele>52.3</ele>
        <time>2024-05-10T07:03:19Z</time>
      </trkpt>
      <trkpt lat="43.23687" lon="2.65174">
        <ele>53.3</ele>
        <time>2024-05-10T07:03:20Z</time>
      </trkpt>
      <trkpt lat="43.23698" lon="2.65196">
        <ele>52.2</ele>
        <time>2024-05-10T07:03:21Z</time>
      </trkpt>
      <trkpt lat="43.23709" lon="2.65218">
        <ele>52.6</ele>
        <time>2024-05-10T07:03:22Z</time>
      </trkpt>
      <trkpt lat="43.23722" lon="2.65239">
        <ele>52.8</ele>
        <time>2024-05-10T07:03:23Z</time>
      </trkpt>
      <trkpt lat="43.23735" lon="2.6526">
        <ele>52.5</ele>
        <time>2024-05-10T07:03:24Z</time>
      </trkpt>
      <trkpt lat="43.23748" lon="2.6528">
        <ele>51.7</ele>
        <time>2024-05-10T07:03:25Z</time>
      </trkpt>
      <trkpt lat="43.23762" lon="2.653">
        <ele>51.8</ele>
        <time>2024-05-10T07:03:26Z</time>
      </trkpt>
      <trkpt lat="43.23777" lon="2.65319">
        <ele>52.5</ele>
        <time>2024-05-10T07:03:27Z</time>
      </trkpt>
      <trkpt lat="43.23792" lon="2.65339">
        <ele>52.1</ele>
        <time>2024-05-10T07:03:28Z</time>
      </trkpt>
      <trkpt lat="43.23806" lon="2.65358">
        <ele>51.4</ele>
        <time>2024-05-10T07:03:29Z</time>
      </trkpt>
      <trkpt lat="43.23821" lon="2.65377">
        <ele>51.8</ele>
        <time>2024-05-10T07:03:30Z</time>
      </trkpt>
      <trkpt lat="43.23834" lon="2.65395">
        <ele>51.6</ele>
        <time>2024-05-10T07:03:31Z</time>
      </trkpt>
      <trkpt lat="43.23848" lon="2.65413">
        <ele>51.7</ele>
        <time>2024-05-10T07:03:32Z</time>
      </trkpt>
      <trkpt lat="43.23862" lon="2.65431">
        <ele>51.5</ele>
        <time>2024-05-10T07:03:33Z</time>
      </trkpt>
      <trkpt lat="43.23875" lon="2.65449">
        <ele>51.8</ele>
        <time>2024-05-10T07:03:34Z</time>
      </trkpt>
      <trkpt lat="43.23889" lon="2.65467">
        <ele>51.6</ele>
        <time>2024-05-10T07:03:35Z</time>
      </trkpt>
      <trkpt lat="43.23902" lon="2.65485">
        <ele>51.3</ele>
        <time>2024-05-10T07:03:36Z</time>
      </trkpt>
      <trkpt lat="43.23916" lon="2.65503">
        <ele>50.9</ele>
        <time>2024-05-10T07:03:37Z</time>
      </trkpt>
      <trkpt lat="43.23929" lon="2.65522">
        <ele>51.2</ele>
        <time>2024-05-10T07:03:38Z</time>
      </trkpt>
      <trkpt lat="43.23943" lon="2.65539">
        <ele>51.1</ele>
        <time>2024-05-10T07:03:39Z</time>
      </trkpt>
      <trkpt lat="43.23956" lon="2.65557">
        <ele>50.4</ele>
        <time>2024-05-10T07:03:40Z</time>
      </trkpt>
      <trkpt lat="43.23968" lon="2.65574">
        <ele>50.3</ele>
        <time>2024-05-10T07:03:41Z</time>
      </trkpt>
      <trkpt lat="43.2398" lon="2.65593">
        <ele>50.3</ele>
        <time>2024-05-10T07:03:42Z</time>
      </trkpt>
      <trkpt lat="43.23992" lon="2.65612">
        <ele>50.7</ele>
        <time>2024-05-10T07:03:43Z</time>
      </trkpt>
      <trkpt lat="43.24004" lon="2.65631">
        <ele>50.3</ele>
        <time>2024-05-10T07:03:44Z</time>
      </trkpt>
      <trkpt lat="43.24016" lon="2.6565">
        <ele>49.8</ele>
        <time>2024-05-10T07:03:45Z</time>
      </trkpt>
      <trkpt lat="43.24028" lon="2.65669">
        <ele>50</ele>
        <time>2024-05-10T07:03:46Z</time>
      </trkpt>
      <trkpt lat="43.24039" lon="2.65689">
        <ele>50</ele>
        <time>2024-05-10T07:03:47Z</time>
      </trkpt>
      <trkpt lat="43.2405" lon="2.65708">
        <ele>49.9</ele>
        <time>2024-05-10T07:03:48Z</time>
      </trkpt>
      <trkpt lat="43.24061" lon="2.65728">
        <ele>49.8</ele>
        <time>2024-05-10T07:03:49Z</time>
      </trkpt>
      <trkpt lat="43.24071" lon="2.65746">
        <ele>49.6</ele>
        <time>2024-05-10T07:03:50Z</time>
      </trkpt>
      <trkpt lat="43.2408" lon="2.65764">
        <ele>49.4</ele>
        <time>2024-05-10T07:03:51Z</time>
      </trkpt>
      <trkpt lat="43.24089" lon="2.65782">
        <ele>49</ele>
        <time>2024-05-10T07:03:52Z</time>
      </trkpt>
      <trkpt lat="43.24099" lon="2.65801">
        <ele>49</ele>
        <time>2024-05-10T07:03:53Z</time>
      </trkpt>
      <trkpt lat="43.24109" lon="2.6582">
        <ele>49</ele>
        <time>2024-05-10T07:03:54Z</time>
      </trkpt>
      <trkpt lat="43.24118" lon="2.6584">
        <ele>49</ele>
        <time>2024-05-10T07:03:55Z</time>
      </trkpt>
      <trkpt lat="43.24128" lon="2.6586">
        <ele>49</ele>
        <time>2024-05-10T07:03:56Z</time>
      </trkpt>
      <trkpt lat="43.24138" lon="2.65879">
        <ele>49</ele>
        <time>2024-05-10T07:03:57Z</time>
      </trkpt>
      <trkpt lat="43.24148" lon="2.65898">
        <ele>49</ele>
        <time>2024-05-10T07:03:58Z</time>
      </trkpt>
      <trkpt lat="43.24158" lon="2.65915">
        <ele>49</ele>
        <time>2024-05-10T07:03:59Z</time>
      </trkpt>
      <trkpt lat="43.24168" lon="2.65932">
        <ele>49</ele>
        <time>2024-05-10T07:04:00Z</time>
      </trkpt>
      <trkpt lat="43.24177" lon="2.65949">
        <ele>49</ele>
        <time>2024-05-10T07:04:01Z</time>
      </trkpt>
      <trkpt lat="43.24186" lon="2.65966">
        <ele>49</ele>
        <time>2024-05-10T07:04:02Z</time>
      </trkpt>
      <trkpt lat="43.24196" lon="2.65983">
        <ele>49</ele>
        <time>2024-05-10T07:04:03Z</time>
      </trkpt>
      <trkpt lat="43.24206" lon="2.66">
        <ele>49</ele>
        <time>2024-05-10T07:04:04Z</time>
      </trkpt>
      <trkpt lat="43.24216" lon="2.66017">
        <ele>49</ele>
        <time>2024-05-10T07:04:05Z</time>
      </trkpt>
      <trkpt lat="43.24227" lon="2.66034">
        <ele>49</ele>
        <time>2024-05-10T07:04:06Z</time>
      </trkpt>
      <trkpt lat="43.24238" lon="2.6605">
        <ele>49</ele>
        <time>2024-05-10T07:04:07Z</time>
      </trkpt>
      <trkpt lat="43.2425" lon="2.66066">
        <ele>49</ele>
        <time>2024-05-10T07:04:08Z</time>
      </trkpt>
      <trkpt lat="43.24262" lon="2.66082">
        <ele>49</ele>
        <time>2024-05-10T07:04:09Z</time>
      </trkpt>
      <trkpt lat="43.24274" lon="2.66097">
        <ele>49</ele>
        <time>2024-05-10T07:04:10Z</time>
      </trkpt>
      <trkpt lat="43.24285" lon="2.66111">
        <ele>49</ele>
        <time>2024-05-10T07:04:11Z</time>
      </trkpt>
      <trkpt lat="43.24296" lon="2.66126">
        <ele>48.8</ele>
        <time>2024-05-10T07:04:12Z</time>
      </trkpt>
      <trkpt lat="43.24308" lon="2.6614">
        <ele>49</ele>
        <time>2024-05-10T07:04:13Z</time>
      </trkpt>
      <trkpt lat="43.24319" lon="2.66155">
        <ele>48.7</ele>
        <time>2024-05-10T07:04:14Z</time>
      </trkpt>
      <trkpt lat="43.2433" lon="2.66169">
        <ele>48.8</ele>
        <time>2024-05-10T07:04:15Z</time>
      </trkpt>
      <trkpt lat="43.24341" lon="2.66183">
        <ele>48.6</ele>
        <time>2024-05-10T07:04:16Z</time>
      </trkpt>
      <trkpt lat="43.24352" lon="2.66198">
        <ele>48.7</ele>
        <time>2024-05-10T07:04:17Z</time>
      </trkpt>
      <trkpt lat="43.24364" lon="2.66212">
        <ele>49</ele>
        <time>2024-05-10T07:04:18Z</time>
      </trkpt>
      <trkpt lat="43.24376" lon="2.66228">
        <ele>49</ele>
        <time>2024-05-10T07:04:19Z</time>
      </trkpt>
      <trkpt lat="43.24389" lon="2.66244">
        <ele>49</ele>
        <time>2024-05-10T07:04:20Z</time>
      </trkpt>
      <trkpt lat="43.24402" lon="2.66261">
        <ele>48.8</ele>
        <time>2024-05-10T07:04:21Z</time>
      </trkpt>
      <trkpt lat="43.24416" lon="2.66279">
        <ele>48.9</ele>
        <time>2024-05-10T07:04:22Z</time>
      </trkpt>
      <trkpt lat="43.24429" lon="2.66297">
        <ele>48.3</ele>
        <time>2024-05-10T07:04:23Z</time>
      </trkpt>
      <trkpt lat="43.24444" lon="2.66315">
        <ele>48</ele>
        <time>2024-05-10T07:04:24Z</time>
      </trkpt>
      <trkpt lat="43.24458" lon="2.66333">
        <ele>48</ele>
        <time>2024-05-10T07:04:25Z</time>
      </trkpt>
      <trkpt lat="43.24473" lon="2.6635">
        <ele>48</ele>
        <time>2024-05-10T07:04:26Z</time>
      </trkpt>
      <trkpt lat="43.24488" lon="2.66367">
        <ele>48</ele>
        <time>2024-05-10T07:04:27Z</time>
      </trkpt>
      <trkpt lat="43.24503" lon="2.66382">
        <ele>48</ele>
        <time>2024-05-10T07:04:28Z</time>
      </trkpt>
      <trkpt lat="43.24518" lon="2.66398">
        <ele>48</ele>
        <time>2024-05-10T07:04:29Z</time>
      </trkpt>
      <trkpt lat="43.24534" lon="2.66413">
        <ele>48.2</ele>
        <time>2024-05-10T07:04:30Z</time>
      </trkpt>
      <trkpt lat="43.2455" lon="2.66429">
        <ele>48.4</ele>
        <time>2024-05-10T07:04:31Z</time>
      </trkpt>
      <trkpt lat="43.24565" lon="2.66445">
        <ele>48.3</ele>
        <time>2024-05-10T07:04:32Z</time>
      </trkpt>
      <trkpt lat="43.24581" lon="2.66461">
        <ele>48.4</ele>
        <time>2024-05-10T07:04:33Z</time>
      </trkpt>
      <trkpt lat="43.24597" lon="2.66478">
        <ele>47.9</ele>
        <time>2024-05-10T07:04:34Z</time>
      </trkpt>
      <trkpt lat="43.24613" lon="2.66495">
        <ele>47.2</ele>
        <time>2024-05-10T07:04:35Z</time>
      </trkpt>
      <trkpt lat="43.24629" lon="2.66515">
        <ele>47.3</ele>
        <time>2024-05-10T07:04:36Z</time>
      </trkpt>
      <trkpt lat="43.24643" lon="2.66537">
        <ele>47</ele>
        <time>2024-05-10T07:04:37Z</time>
      </trkpt>
      <trkpt lat="43.24657" lon="2.6656">
        <ele>46.9</ele>
        <time>2024-05-10T07:04:38Z</time>
      </trkpt>
      <trkpt lat="43.2467" lon="2.66585">
        <ele>46.2</ele>
        <time>2024-05-10T07:04:39Z</time>
      </trkpt>
      <trkpt lat="43.24683" lon="2.66611">
        <ele>47</ele>
        <time>2024-05-10T07:04:40Z</time>
      </trkpt>
      <trkpt lat="43.24697" lon="2.66638">
        <ele>47.5</ele>
        <time>2024-05-10T07:04:41Z</time>
      </trkpt>
      <trkpt lat="43.24709" lon="2.66665">
        <ele>48.7</ele>
        <time>2024-05-10T07:04:42Z</time>
      </trkpt>
      <trkpt lat="43.24721" lon="2.66692">
        <ele>47.3</ele>
        <time>2024-05-10T07:04:43Z</time>
      </trkpt>
      <trkpt lat="43.24731" lon="2.66719">
        <ele>49.1</ele>
        <time>2024-05-10T07:04:44Z</time>
      </trkpt>
      <trkpt lat="43.24741" lon="2.66746">
        <ele>50.1</ele>
        <time>2024-05-10T07:04:45Z</time>
      </trkpt>
      <trkpt lat="43.24751" lon="2.66773">
        <ele>48.6</ele>
        <time>2024-05-10T07:04:46Z</time>
      </trkpt>
      <trkpt lat="43.24761" lon="2.66798">
        <ele>49.6</ele>
        <time>2024-05-10T07:04:47Z</time>
      </trkpt>
      <trkpt lat="43.2477" lon="2.66823">
        <ele>49.1</ele>
        <time>2024-05-10T07:04:48Z</time>
      </trkpt>
      <trkpt lat="43.24777" lon="2.66849">
        <ele>48</ele>
        <time>2024-05-10T07:04:49Z</time>
      </trkpt>
      <trkpt lat="43.24784" lon="2.66874">
        <ele>47.9</ele>
        <time>2024-05-10T07:04:50Z</time>
      </trkpt>
      <trkpt lat="43.24791" lon="2.66899">
        <ele>47.5</ele>
        <time>2024-05-10T07:04:51Z</time>
      </trkpt>
      <trkpt lat="43.24798" lon="2.66924">
        <ele>47.2</ele>
        <time>2024-05-10T07:04:52Z</time>
      </trkpt>
      <trkpt lat="43.24804" lon="2.66948">
        <ele>47</ele>
        <time>2024-05-10T07:04:53Z</time>
      </trkpt>
      <trkpt lat="43.24811" lon="2.66972">
        <ele>47.2</ele>
        <time>2024-05-10T07:04:54Z</time>
      </trkpt>
      <trkpt lat="43.24817" lon="2.66996">
        <ele>47.4</ele>
        <time>2024-05-10T07:04:55Z</time>
      </trkpt>
      <trkpt lat="43.24824" lon="2.67019">
        <ele>47.2</ele>
        <time>2024-05-10T07:04:56Z</time>
      </trkpt>
      <trkpt lat="43.24831" lon="2.67043">
        <ele>47</ele>
        <time>2024-05-10T07:04:57Z</time>
      </trkpt>
      <trkpt lat="43.24839" lon="2.67066">
        <ele>47</ele>
        <time>2024-05-10T07:04:58Z</time>
      </trkpt>
      <trkpt lat="43.24848" lon="2.67089">
        <ele>46.8</ele>
        <time>2024-05-10T07:04:59Z</time>
      </trkpt>
      <trkpt lat="43.24858" lon="2.67112">
        <ele>46</ele>
        <time>2024-05-10T07:05:00Z</time>
      </trkpt>
      <trkpt lat="43.24869" lon="2.67134">
        <ele>46</ele>
        <time>2024-05-10T07:05:01Z</time>
      </trkpt>
      <trkpt lat="43.2488" lon="2.67156">
        <ele>46</ele>
        <time>2024-05-10T07:05:02Z</time>
      </trkpt>
      <trkpt lat="43.2489" lon="2.67176">
        <ele>46</ele>
        <time>2024-05-10T07:05:03Z</time>
      </trkpt>
      <trkpt lat="43.249" lon="2.67196">
        <ele>46</ele>
        <time>2024-05-10T07:05:04Z</time>
      </trkpt>
      <trkpt lat="43.2491" lon="2.67215">
        <ele>46.6</ele>
        <time>2024-05-10T07:05:05Z</time>
      </trkpt>
      <trkpt lat="43.24922" lon="2.67232">
        <ele>46.9</ele>
        <time>2024-05-10T07:05:06Z</time>
      </trkpt>
      <trkpt lat="43.24934" lon="2.67248">
        <ele>47.3</ele>
        <time>2024-05-10T07:05:07Z</time>
      </trkpt>
      <trkpt lat="43.24947" lon="2.67263">
        <ele>47.5</ele>
        <time>2024-05-10T07:05:08Z</time>
      </trkpt>
      <trkpt lat="43.24961" lon="2.67277">
        <ele>47.6</ele>
        <time>2024-05-10T07:05:09Z</time>
      </trkpt>
      <trkpt lat="43.24976" lon="2.67291">
        <ele>46.7</ele>
        <time>2024-05-10T07:05:10Z</time>
      </trkpt>
      <trkpt lat="43.24992" lon="2.67305">
        <ele>45.3</ele>
        <time>2024-05-10T07:05:11Z</time>
      </trkpt>
      <trkpt lat="43.25007" lon="2.67319">
        <ele>46.2</ele>
        <time>2024-05-10T07:05:12Z</time>
      </trkpt>
      <trkpt lat="43.25022" lon="2.67332">
        <ele>48.3</ele>
        <time>2024-05-10T07:05:13Z</time>
      </trkpt>
      <trkpt lat="43.25036" lon="2.67346">
        <ele>47.6</ele>
        <time>2024-05-10T07:05:14Z</time>
      </trkpt>
      <trkpt lat="43.25049" lon="2.67361">
        <ele>47.5</ele>
        <time>2024-05-10T07:05:15Z</time>
      </trkpt>
      <trkpt lat="43.25062" lon="2.67378">
        <ele>47.2</ele>
        <time>2024-05-10T07:05:16Z</time>
      </trkpt>
      <trkpt lat="43.25075" lon="2.67398">
        <ele>46.9</ele>
        <time>2024-05-10T07:05:17Z</time>
      </trkpt>
      <trkpt lat="43.25086" lon="2.6742">
        <ele>46.4</ele>
        <time>2024-05-10T07:05:18Z</time>
      </trkpt>
      <trkpt lat="43.25096" lon="2.67443">
        <ele>47.4</ele>
        <time>2024-05-10T07:05:19Z</time>
      </trkpt>
      <trkpt lat="43.25106" lon="2.67467">
        <ele>47.1</ele>
        <time>2024-05-10T07:05:20Z</time>
      </trkpt>
      <trkpt lat="43.25115" lon="2.67491">
        <ele>46.8</ele>
        <time>2024-05-10T07:05:21Z</time>
      </trkpt>
      <trkpt lat="43.25124" lon="2.67516">
        <ele>47.6</ele>
        <time>2024-05-10T07:05:22Z</time>
      </trkpt>
      <trkpt lat="43.25133" lon="2.67541">
        <ele>47.6</ele>
        <time>2024-05-10T07:05:23Z</time>
      </trkpt>
      <trkpt lat="43.25142" lon="2.67566">
        <ele>47.3</ele>
        <time>2024-05-10T07:05:24Z</time>
      </trkpt>
      <trkpt lat="43.25152" lon="2.67591">
        <ele>47.8</ele>
        <time>2024-05-10T07:05:25Z</time>
      </trkpt>
      <trkpt lat="43.25163" lon="2.67616">
        <ele>47.7</ele>
        <time>2024-05-10T07:05:26Z</time>
      </trkpt>
      <trkpt lat="43.25174" lon="2.6764">
        <ele>47.3</ele>
        <time>2024-05-10T07:05:27Z</time>
      </trkpt>
      <trkpt lat="43.25186" lon="2.67663">
        <ele>47.1</ele>
        <time>2024-05-10T07:05:28Z</time>
      </trkpt>
      <trkpt lat="43.252" lon="2.67686">
        <ele>47.3</ele>
        <time>2024-05-10T07:05:29Z</time>
      </trkpt>
      <trkpt lat="43.25214" lon="2.67708">
        <ele>47.7</ele>
        <time>2024-05-10T07:05:30Z</time>
      </trkpt>
      <trkpt lat="43.25229" lon="2.67729">
        <ele>48</ele>
        <time>2024-05-10T07:05:31Z</time>
      </trkpt>
      <trkpt lat="43.25243" lon="2.67749">
        <ele>47.8</ele>
        <time>2024-05-10T07:05:32Z</time>
      </trkpt>
      <trkpt lat="43.25258" lon="2.67768">
        <ele>47.8</ele>
        <time>2024-05-10T07:05:33Z</time>
      </trkpt>
      <trkpt lat="43.25272" lon="2.67785">
        <ele>48.4</ele>
        <time>2024-05-10T07:05:34Z</time>
      </trkpt>
      <trkpt lat="43.25286" lon="2.67802">
        <ele>48.4</ele>
        <time>2024-05-10T07:05:35Z</time>
      </trkpt>
      <trkpt lat="43.25299" lon="2.67822">
        <ele>48.6</ele>
        <time>2024-05-10T07:05:36Z</time>
      </trkpt>
      <trkpt lat="43.2531" lon="2.67843">
        <ele>48.9</ele>
        <time>2024-05-10T07:05:37Z</time>
      </trkpt>
      <trkpt lat="43.25319" lon="2.67866">
        <ele>48.8</ele>
        <time>2024-05-10T07:05:38Z</time>
      </trkpt>
      <trkpt lat="43.25328" lon="2.6789">
        <ele>48.6</ele>
        <time>2024-05-10T07:05:39Z</time>
      </trkpt>
      <trkpt lat="43.25336" lon="2.67916">
        <ele>48.3</ele>
        <time>2024-05-10T07:05:40Z</time>
      </trkpt>
      <trkpt lat="43.25345" lon="2.67942">
        <ele>48.7</ele>
        <time>2024-05-10T07:05:41Z</time>
      </trkpt>
      <trkpt lat="43.25353" lon="2.67968">
        <ele>48.6</ele>
        <time>2024-05-10T07:05:42Z</time>
      </trkpt>
      <trkpt lat="43.25361" lon="2.67993">
        <ele>48.2</ele>
        <time>2024-05-10T07:05:43Z</time>
      </trkpt>
      <trkpt lat="43.25369" lon="2.68018">
        <ele>47.7</ele>
        <time>2024-05-10T07:05:44Z</time>
      </trkpt>
      <trkpt lat="43.25377" lon="2.68043">
        <ele>47</ele>
        <time>2024-05-10T07:05:45Z</time>
      </trkpt>
      <trkpt lat="43.25384" lon="2.68067">
        <ele>46.8</ele>
        <time>2024-05-10T07:05:46Z</time>
      </trkpt>
      <trkpt lat="43.25392" lon="2.68091">
        <ele>47.1</ele>
        <time>2024-05-10T07:05:47Z</time>
      </trkpt>
      <trkpt lat="43.25398" lon="2.68115">
        <ele>47.2</ele>
        <time>2024-05-10T07:05:48Z</time>
      </trkpt>
      <trkpt lat="43.25404" lon="2.68139">
        <ele>46.5</ele>
        <time>2024-05-10T07:05:49Z</time>
      </trkpt>
      <trkpt lat="43.2541" lon="2.68162">
        <ele>46.8</ele>
        <time>2024-05-10T07:05:50Z</time>
      </trkpt>
      <trkpt lat="43.25416" lon="2.68186">
        <ele>46.3</ele>
        <time>2024-05-10T07:05:51Z</time>
      </trkpt>
      <trkpt lat="43.25422" lon="2.68212">
        <ele>46.2</ele>
        <time>2024-05-10T07:05:52Z</time>
      </trkpt>
      <trkpt lat="43.25427" lon="2.68237">
        <ele>46.4</ele>
        <time>2024-05-10T07:05:53Z</time>
      </trkpt>
      <trkpt lat="43.25432" lon="2.68263">
        <ele>46.6</ele>
        <time>2024-05-10T07:05:54Z</time>
      </trkpt>
      <trkpt lat="43.25437" lon="2.6829">
        <ele>46.7</ele>
        <time>2024-05-10T07:05:55Z</time>
      </trkpt>
      <trkpt lat="43.25441" lon="2.68316">
        <ele>46.5</ele>
        <time>2024-05-10T07:05:56Z</time>
      </trkpt>
      <trkpt lat="43.25446" lon="2.68344">
        <ele>46.1</ele>
        <time>2024-05-10T07:05:57Z</time>
      </trkpt>
      <trkpt lat="43.2545" lon="2.68371">
        <ele>46.2</ele>
        <time>2024-05-10T07:05:58Z</time>
      </trkpt>
      <trkpt lat="43.25455" lon="2.68399">
        <ele>46.4</ele>
        <time>2024-05-10T07:05:59Z</time>
      </trkpt>
      <trkpt lat="43.25459" lon="2.68428">
        <ele>46.3</ele>
        <time>2024-05-10T07:06:00Z</time>
      </trkpt>
      <trkpt lat="43.25464" lon="2.68457">
        <ele>46.4</ele>
        <time>2024-05-10T07:06:01Z</time>
      </trkpt>
      <trkpt lat="43.25469" lon="2.68487">
        <ele>46.3</ele>
        <time>2024-05-10T07:06:02Z</time>
      </trkpt>
      <trkpt lat="43.25474" lon="2.68517">
        <ele>46.3</ele>
        <time>2024-05-10T07:06:03Z</time>
      </trkpt>
      <trkpt lat="43.25479" lon="2.68549">
        <ele>46.8</ele>
        <time>2024-05-10T07:06:04Z</time>
      </trkpt>
      <trkpt lat="43.25486" lon="2.68581">
        <ele>46.1</ele>
        <time>2024-05-10T07:06:05Z</time>
      </trkpt>
      <trkpt lat="43.25493" lon="2.68615">
        <ele>45.7</ele>
        <time>2024-05-10T07:06:06Z</time>
      </trkpt>
      <trkpt lat="43.255" lon="2.68649">
        <ele>45.6</ele>
        <time>2024-05-10T07:06:07Z</time>
      </trkpt>
      <trkpt lat="43.25507" lon="2.68683">
        <ele>45.6</ele>
        <time>2024-05-10T07:06:08Z</time>
      </trkpt>
      <trkpt lat="43.25515" lon="2.68719">
        <ele>45.6</ele>
        <time>2024-05-10T07:06:09Z</time>
      </trkpt>
      <trkpt lat="43.25522" lon="2.68754">
        <ele>45.8</ele>
        <time>2024-05-10T07:06:10Z</time>
      </trkpt>
      <trkpt lat="43.2553" lon="2.6879">
        <ele>45.8</ele>
        <time>2024-05-10T07:06:11Z</time>
      </trkpt>
      <trkpt lat="43.25537" lon="2.68825">
        <ele>45.8</ele>
        <time>2024-05-10T07:06:12Z</time>
      </trkpt>
      <trkpt lat="43.25544" lon="2.68859">
        <ele>46.2</ele>
        <time>2024-05-10T07:06:13Z</time>
      </trkpt>
      <trkpt lat="43.25551" lon="2.68892">
        <ele>45</ele>
        <time>2024-05-10T07:06:14Z</time>
      </trkpt>
      <trkpt lat="43.25558" lon="2.68923">
        <ele>45.4</ele>
        <time>2024-05-10T07:06:15Z</time>
      </trkpt>
      <trkpt lat="43.25565" lon="2.68953">
        <ele>46.3</ele>
        <time>2024-05-10T07:06:16Z</time>
      </trkpt>
      <trkpt lat="43.25571" lon="2.68983">
        <ele>46.2</ele>
        <time>2024-05-10T07:06:17Z</time>
      </trkpt>
      <trkpt lat="43.25578" lon="2.69011">
        <ele>45.5</ele>
        <time>2024-05-10T07:06:18Z</time>
      </trkpt>
      <trkpt lat="43.25584" lon="2.69039">
        <ele>45</ele>
        <time>2024-05-10T07:06:19Z</time>
      </trkpt>
      <trkpt lat="43.2559" lon="2.69065">
        <ele>45.2</ele>
        <time>2024-05-10T07:06:20Z</time>
      </trkpt>
      <trkpt lat="43.25595" lon="2.69091">
        <ele>45.3</ele>
        <time>2024-05-10T07:06:21Z</time>
      </trkpt>
      <trkpt lat="43.25601" lon="2.69116">
        <ele>45</ele>
        <time>2024-05-10T07:06:22Z</time>
      </trkpt>
      <trkpt lat="43.25606" lon="2.6914">
        <ele>45</ele>
        <time>2024-05-10T07:06:23Z</time>
      </trkpt>
      <trkpt lat="43.25611" lon="2.69164">
        <ele>45</ele>
        <time>2024-05-10T07:06:24Z</time>
      </trkpt>
      <trkpt lat="43.25616" lon="2.69187">
        <ele>45</ele>
        <time>2024-05-10T07:06:25Z</time>
      </trkpt>
      <trkpt lat="43.25621" lon="2.6921">
        <ele>45</ele>
        <time>2024-05-10T07:06:26Z</time>
      </trkpt>
      <trkpt lat="43.25626" lon="2.69234">
        <ele>45</ele>
        <time>2024-05-10T07:06:27Z</time>
      </trkpt>
      <trkpt lat="43.25631" lon="2.69258">
        <ele>44.9</ele>
        <time>2024-05-10T07:06:28Z</time>
      </trkpt>
      <trkpt lat="43.25636" lon="2.69282">
        <ele>44.9</ele>
        <time>2024-05-10T07:06:29Z</time>
      </trkpt>
      <trkpt lat="43.25641" lon="2.69306">
        <ele>45</ele>
        <time>2024-05-10T07:06:30Z</time>
      </trkpt>
      <trkpt lat="43.25646" lon="2.69329">
        <ele>45</ele>
        <time>2024-05-10T07:06:31Z</time>
      </trkpt>
      <trkpt lat="43.25651" lon="2.69352">
        <ele>44.6</ele>
        <time>2024-05-10T07:06:32Z</time>
      </trkpt>
      <trkpt lat="43.25656" lon="2.69375">
        <ele>44.3</ele>
        <time>2024-05-10T07:06:33Z</time>
      </trkpt>
      <trkpt lat="43.2566" lon="2.69397">
        <ele>44.2</ele>
        <time>2024-05-10T07:06:34Z</time>
      </trkpt>
      <trkpt lat="43.25665" lon="2.69419">
        <ele>44.9</ele>
        <time>2024-05-10T07:06:35Z</time>
      </trkpt>
      <trkpt lat="43.25671" lon="2.69441">
        <ele>44.8</ele>
        <time>2024-05-10T07:06:36Z</time>
      </trkpt>
      <trkpt lat="43.25677" lon="2.69463">
        <ele>44.2</ele>
        <time>2024-05-10T07:06:37Z</time>
      </trkpt>
      <trkpt lat="43.25682" lon="2.69484">
        <ele>44</ele>
        <time>2024-05-10T07:06:38Z</time>
      </trkpt>
      <trkpt lat="43.25688" lon="2.69504">
        <ele>44.1</ele>
        <time>2024-05-10T07:06:39Z</time>
      </trkpt>
      <trkpt lat="43.25694" lon="2.69524">
        <ele>44.9</ele>
        <time>2024-05-10T07:06:40Z</time>
      </trkpt>
      <trkpt lat="43.25701" lon="2.69545">
        <ele>44.3</ele>
        <time>2024-05-10T07:06:41Z</time>
      </trkpt>
      <trkpt lat="43.25708" lon="2.69566">
        <ele>44</ele>
        <time>2024-05-10T07:06:42Z</time>
      </trkpt>
      <trkpt lat="43.25714" lon="2.69587">
        <ele>44</ele>
        <time>2024-05-10T07:06:43Z</time>
      </trkpt>
      <trkpt lat="43.2572" lon="2.69608">
        <ele>44</ele>
        <time>2024-05-10T07:06:44Z</time>
      </trkpt>
      <trkpt lat="43.25727" lon="2.6963">
        <ele>44</ele>
        <time>2024-05-10T07:06:45Z</time>
      </trkpt>
      <trkpt lat="43.25734" lon="2.69653">
        <ele>44</ele>
        <time>2024-05-10T07:06:46Z</time>
      </trkpt>
      <trkpt lat="43.25742" lon="2.69676">
        <ele>44</ele>
        <time>2024-05-10T07:06:47Z</time>
      </trkpt>
      <trkpt lat="43.2575" lon="2.69701">
        <ele>44</ele>
        <time>2024-05-10T07:06:48Z</time>
      </trkpt>
      <trkpt lat="43.25758" lon="2.69726">
        <ele>44</ele>
        <time>2024-05-10T07:06:49Z</time>
      </trkpt>
      <trkpt lat="43.25765" lon="2.69751">
        <ele>44</ele>
        <time>2024-05-10T07:06:50Z</time>
      </trkpt>
      <trkpt lat="43.25773" lon="2.69776">
        <ele>44</ele>
        <time>2024-05-10T07:06:51Z</time>
      </trkpt>
      <trkpt lat="43.25781" lon="2.69801">
        <ele>44</ele>
        <time>2024-05-10T07:06:52Z</time>
      </trkpt>
      <trkpt lat="43.25788" lon="2.69824">
        <ele>44</ele>
        <time>2024-05-10T07:06:53Z</time>
      </trkpt>
      <trkpt lat="43.25795" lon="2.69847">
        <ele>44</ele>
        <time>2024-05-10T07:06:54Z</time>
      </trkpt>
      <trkpt lat="43.25802" lon="2.69872">
        <ele>44</ele>
        <time>2024-05-10T07:06:55Z</time>
      </trkpt>
      <trkpt lat="43.25809" lon="2.69897">
        <ele>43.9</ele>
        <time>2024-05-10T07:06:56Z</time>
      </trkpt>
      <trkpt lat="43.25816" lon="2.69923">
        <ele>43.6</ele>
        <time>2024-05-10T07:06:57Z</time>
      </trkpt>
      <trkpt lat="43.25823" lon="2.69949">
        <ele>43.4</ele>
        <time>2024-05-10T07:06:58Z</time>
      </trkpt>
      <trkpt lat="43.2583" lon="2.69975">
        <ele>43.9</ele>
        <time>2024-05-10T07:06:59Z</time>
      </trkpt>
      <trkpt lat="43.25837" lon="2.70003">
        <ele>43.8</ele>
        <time>2024-05-10T07:07:00Z</time>
      </trkpt>
      <trkpt lat="43.25844" lon="2.7003">
        <ele>43</ele>
        <time>2024-05-10T07:07:01Z</time>
      </trkpt>
      <trkpt lat="43.25852" lon="2.70057">
        <ele>43</ele>
        <time>2024-05-10T07:07:02Z</time>
      </trkpt>
      <trkpt lat="43.2586" lon="2.70084">
        <ele>43</ele>
        <time>2024-05-10T07:07:03Z</time>
      </trkpt>
      <trkpt lat="43.25869" lon="2.7011">
        <ele>43</ele>
        <time>2024-05-10T07:07:04Z</time>
      </trkpt>
      <trkpt lat="43.25878" lon="2.70136">
        <ele>43</ele>
        <time>2024-05-10T07:07:05Z</time>
      </trkpt>
      <trkpt lat="43.25888" lon="2.70163">
        <ele>43</ele>
        <time>2024-05-10T07:07:06Z</time>
      </trkpt>
      <trkpt lat="43.25898" lon="2.70189">
        <ele>42.7</ele>
        <time>2024-05-10T07:07:07Z</time>
      </trkpt>
      <trkpt lat="43.25909" lon="2.70214">
        <ele>42.3</ele>
        <time>2024-05-10T07:07:08Z</time>
      </trkpt>
      <trkpt lat="43.25921" lon="2.70239">
        <ele>41.9</ele>
        <time>2024-05-10T07:07:09Z</time>
      </trkpt>
      <trkpt lat="43.25933" lon="2.70263">
        <ele>42.1</ele>
        <time>2024-05-10T07:07:10Z</time>
      </trkpt>
      <trkpt lat="43.25946" lon="2.70287">
        <ele>43</ele>
        <time>2024-05-10T07:07:11Z</time>
      </trkpt>
      <trkpt lat="43.25959" lon="2.70311">
        <ele>42.9</ele>
        <time>2024-05-10T07:07:12Z</time>
      </trkpt>
      <trkpt lat="43.25973" lon="2.70334">
        <ele>44.1</ele>
        <time>2024-05-10T07:07:13Z</time>
      </trkpt>
      <trkpt lat="43.25987" lon="2.70356">
        <ele>45.7</ele>
        <time>2024-05-10T07:07:14Z</time>
      </trkpt>
      <trkpt lat="43.26001" lon="2.70377">
        <ele>46.5</ele>
        <time>2024-05-10T07:07:15Z</time>
      </trkpt>
      <trkpt lat="43.26015" lon="2.70398">
        <ele>46.8</ele>
        <time>2024-05-10T07:07:16Z</time>
      </trkpt>
      <trkpt lat="43.2603" lon="2.70417">
        <ele>47.1</ele>
        <time>2024-05-10T07:07:17Z</time>
      </trkpt>
      <trkpt lat="43.26044" lon="2.70435">
        <ele>47.3</ele>
        <time>2024-05-10T07:07:18Z</time>
      </trkpt>
      <trkpt lat="43.26058" lon="2.70453">
        <ele>47.7</ele>
        <time>2024-05-10T07:07:19Z</time>
      </trkpt>
      <trkpt lat="43.26072" lon="2.7047">
        <ele>47.1</ele>
        <time>2024-05-10T07:07:20Z</time>
      </trkpt>
      <trkpt lat="43.26086" lon="2.70488">
        <ele>47.2</ele>
        <time>2024-05-10T07:07:21Z</time>
      </trkpt>
      <trkpt lat="43.261" lon="2.70505">
        <ele>47.9</ele>
        <time>2024-05-10T07:07:22Z</time>
      </trkpt>
      <trkpt lat="43.26115" lon="2.70523">
        <ele>47.5</ele>
        <time>2024-05-10T07:07:23Z</time>
      </trkpt>
      <trkpt lat="43.2613" lon="2.70541">
        <ele>47.6</ele>
        <time>2024-05-10T07:07:24Z</time>
      </trkpt>
      <trkpt lat="43.26145" lon="2.70559">
        <ele>47.3</ele>
        <time>2024-05-10T07:07:25Z</time>
      </trkpt>
      <trkpt lat="43.26159" lon="2.70577">
        <ele>47.7</ele>
        <time>2024-05-10T07:07:26Z</time>
      </trkpt>
      <trkpt lat="43.26174" lon="2.70595">
        <ele>47.7</ele>
        <time>2024-05-10T07:07:27Z</time>
      </trkpt>
      <trkpt lat="43.26189" lon="2.70613">
        <ele>47.8</ele>
        <time>2024-05-10T07:07:28Z</time>
      </trkpt>
      <trkpt lat="43.26204" lon="2.70632">
        <ele>48.3</ele>
        <time>2024-05-10T07:07:29Z</time>
      </trkpt>
      <trkpt lat="43.26219" lon="2.7065">
        <ele>48.9</ele>
        <time>2024-05-10T07:07:30Z</time>
      </trkpt>
      <trkpt lat="43.26234" lon="2.7067">
        <ele>48.6</ele>
        <time>2024-05-10T07:07:31Z</time>
      </trkpt>
      <trkpt lat="43.26249" lon="2.70691">
        <ele>48.8</ele>
        <time>2024-05-10T07:07:32Z</time>
      </trkpt>
      <trkpt lat="43.26263" lon="2.70713">
        <ele>48.8</ele>
        <time>2024-05-10T07:07:33Z</time>
      </trkpt>
      <trkpt lat="43.26278" lon="2.70735">
        <ele>49</ele>
        <time>2024-05-10T07:07:34Z</time>
      </trkpt>
      <trkpt lat="43.26291" lon="2.7076">
        <ele>48.5</ele>
        <time>2024-05-10T07:07:35Z</time>
      </trkpt>
      <trkpt lat="43.26304" lon="2.70785">
        <ele>48.3</ele>
        <time>2024-05-10T07:07:36Z</time>
      </trkpt>
      <trkpt lat="43.26316" lon="2.70812">
        <ele>48.5</ele>
        <time>2024-05-10T07:07:37Z</time>
      </trkpt>
      <trkpt lat="43.26327" lon="2.70837">
        <ele>48</ele>
        <time>2024-05-10T07:07:38Z</time>
      </trkpt>
      <trkpt lat="43.26337" lon="2.70863">
        <ele>47.9</ele>
        <time>2024-05-10T07:07:39Z</time>
      </trkpt>
      <trkpt lat="43.26347" lon="2.70887">
        <ele>47.5</ele>
        <time>2024-05-10T07:07:40Z</time>
      </trkpt>
      <trkpt lat="43.26357" lon="2.70911">
        <ele>47.7</ele>
        <time>2024-05-10T07:07:41Z</time>
      </trkpt>
      <trkpt lat="43.26366" lon="2.70935">
        <ele>48.3</ele>
        <time>2024-05-10T07:07:42Z</time>
      </trkpt>
      <trkpt lat="43.26375" lon="2.70958">
        <ele>47.5</ele>
        <time>2024-05-10T07:07:43Z</time>
      </trkpt>
      <trkpt lat="43.26384" lon="2.70981">
        <ele>47.8</ele>
        <time>2024-05-10T07:07:44Z</time>
      </trkpt>
      <trkpt lat="43.26394" lon="2.71005">
        <ele>48.1</ele>
        <time>2024-05-10T07:07:45Z</time>
      </trkpt>
      <trkpt lat="43.26404" lon="2.71029">
        <ele>48.4</ele>
        <time>2024-05-10T07:07:46Z</time>
      </trkpt>
      <trkpt lat="43.26414" lon="2.71053">
        <ele>48</ele>
        <time>2024-05-10T07:07:47Z</time>
      </trkpt>
      <trkpt lat="43.26424" lon="2.71078">
        <ele>48</ele>
        <time>2024-05-10T07:07:48Z</time>
      </trkpt>
      <trkpt lat="43.26436" lon="2.71103">
        <ele>48.2</ele>
        <time>2024-05-10T07:07:49Z</time>
      </trkpt>
      <trkpt lat="43.26447" lon="2.71127">
        <ele>48</ele>
        <time>2024-05-10T07:07:50Z</time>
      </trkpt>
      <trkpt lat="43.26458" lon="2.71152">
        <ele>48.2</ele>
        <time>2024-05-10T07:07:51Z</time>
      </trkpt>
      <trkpt lat="43.2647" lon="2.71176">
        <ele>48.1</ele>
        <time>2024-05-10T07:07:52Z</time>
      </trkpt>
      <trkpt lat="43.26481" lon="2.712">
        <ele>48.1</ele>
        <time>2024-05-10T07:07:53Z</time>
      </trkpt>
      <trkpt lat="43.26492" lon="2.71225">
        <ele>48.3</ele>
        <time>2024-05-10T07:07:54Z</time>
      </trkpt>
      <trkpt lat="43.26503" lon="2.7125">
        <ele>48</ele>
        <time>2024-05-10T07:07:55Z</time>
      </trkpt>
      <trkpt lat="43.26512" lon="2.71276">
        <ele>48</ele>
        <time>2024-05-10T07:07:56Z</time>
      </trkpt>
      <trkpt lat="43.26519" lon="2.71302">
        <ele>48</ele>
        <time>2024-05-10T07:07:57Z</time>
      </trkpt>
      <trkpt lat="43.26526" lon="2.7133">
        <ele>48.8</ele>
        <time>2024-05-10T07:07:58Z</time>
      </trkpt>
      <trkpt lat="43.2653" lon="2.71358">
        <ele>48.9</ele>
        <time>2024-05-10T07:07:59Z</time>
      </trkpt>
      <trkpt lat="43.26533" lon="2.71386">
        <ele>48.1</ele>
        <time>2024-05-10T07:08:00Z</time>
      </trkpt>
      <trkpt lat="43.26535" lon="2.71415">
        <ele>48</ele>
        <time>2024-05-10T07:08:01Z</time>
      </trkpt>
      <trkpt lat="43.26536" lon="2.71443">
        <ele>48</ele>
        <time>2024-05-10T07:08:02Z</time>
      </trkpt>
      <trkpt lat="43.26537" lon="2.71471">
        <ele>48</ele>
        <time>2024-05-10T07:08:03Z</time>
      </trkpt>
      <trkpt lat="43.26538" lon="2.71499">
        <ele>48</ele>
        <time>2024-05-10T07:08:04Z</time>
      </trkpt>
      <trkpt lat="43.26538" lon="2.71526">
        <ele>48</ele>
        <time>2024-05-10T07:08:05Z</time>
      </trkpt>
      <trkpt lat="43.26539" lon="2.71554">
        <ele>48.6</ele>
        <time>2024-05-10T07:08:06Z</time>
      </trkpt>
      <trkpt lat="43.2654" lon="2.71581">
        <ele>49.5</ele>
        <time>2024-05-10T07:08:07Z</time>
      </trkpt>
      <trkpt lat="43.2654" lon="2.71608">
        <ele>48.7</ele>
        <time>2024-05-10T07:08:08Z</time>
      </trkpt>
      <trkpt lat="43.26541" lon="2.71634">
        <ele>48.5</ele>
        <time>2024-05-10T07:08:09Z</time>
      </trkpt>
      <trkpt lat="43.26542" lon="2.7166">
        <ele>48.9</ele>
        <time>2024-05-10T07:08:10Z</time>
      </trkpt>
      <trkpt lat="43.26542" lon="2.71685">
        <ele>49</ele>
        <time>2024-05-10T07:08:11Z</time>
      </trkpt>
      <trkpt lat="43.26543" lon="2.7171">
        <ele>49</ele>
        <time>2024-05-10T07:08:12Z</time>
      </trkpt>
      <trkpt lat="43.26544" lon="2.71734">
        <ele>48.8</ele>
        <time>2024-05-10T07:08:13Z</time>
      </trkpt>
      <trkpt lat="43.26545" lon="2.71758">
        <ele>48.7</ele>
        <time>2024-05-10T07:08:14Z</time>
      </trkpt>
      <trkpt lat="43.26545" lon="2.71781">
        <ele>49</ele>
        <time>2024-05-10T07:08:15Z</time>
      </trkpt>
      <trkpt lat="43.26546" lon="2.71804">
        <ele>48.7</ele>
        <time>2024-05-10T07:08:16Z</time>
      </trkpt>
      <trkpt lat="43.26546" lon="2.71829">
        <ele>48.7</ele>
        <time>2024-05-10T07:08:17Z</time>
      </trkpt>
      <trkpt lat="43.26546" lon="2.71853">
        <ele>48.7</ele>
        <time>2024-05-10T07:08:18Z</time>
      </trkpt>
      <trkpt lat="43.26547" lon="2.71878">
        <ele>48.7</ele>
        <time>2024-05-10T07:08:19Z</time>
      </trkpt>
      <trkpt lat="43.26548" lon="2.71902">
        <ele>48.9</ele>
        <time>2024-05-10T07:08:20Z</time>
      </trkpt>
      <trkpt lat="43.26549" lon="2.71927">
        <ele>48.6</ele>
        <time>2024-05-10T07:08:21Z</time>
      </trkpt>
      <trkpt lat="43.26549" lon="2.71953">
        <ele>48</ele>
        <time>2024-05-10T07:08:22Z</time>
      </trkpt>
      <trkpt lat="43.2655" lon="2.71979">
        <ele>47.8</ele>
        <time>2024-05-10T07:08:23Z</time>
      </trkpt>
      <trkpt lat="43.26551" lon="2.72006">
        <ele>46.8</ele>
        <time>2024-05-10T07:08:24Z</time>
      </trkpt>
      <trkpt lat="43.26552" lon="2.72033">
        <ele>46.1</ele>
        <time>2024-05-10T07:08:25Z</time>
      </trkpt>
      <trkpt lat="43.26552" lon="2.7206">
        <ele>46.1</ele>
        <time>2024-05-10T07:08:26Z</time>
      </trkpt>
      <trkpt lat="43.26553" lon="2.72088">
        <ele>46.1</ele>
        <time>2024-05-10T07:08:27Z</time>
      </trkpt>
      <trkpt lat="43.26554" lon="2.72115">
        <ele>45.9</ele>
        <time>2024-05-10T07:08:28Z</time>
      </trkpt>
      <trkpt lat="43.26554" lon="2.72143">
        <ele>45.8</ele>
        <time>2024-05-10T07:08:29Z</time>
      </trkpt>
      <trkpt lat="43.26555" lon="2.72171">
        <ele>45</ele>
        <time>2024-05-10T07:08:30Z</time>
      </trkpt>
      <trkpt lat="43.26556" lon="2.722">
        <ele>45</ele>
        <time>2024-05-10T07:08:31Z</time>
      </trkpt>
      <trkpt lat="43.26557" lon="2.72228">
        <ele>44.8</ele>
        <time>2024-05-10T07:08:32Z</time>
      </trkpt>
      <trkpt lat="43.26558" lon="2.72256">
        <ele>44.1</ele>
        <time>2024-05-10T07:08:33Z</time>
      </trkpt>
      <trkpt lat="43.26558" lon="2.72284">
        <ele>44.1</ele>
        <time>2024-05-10T07:08:34Z</time>
      </trkpt>
      <trkpt lat="43.26559" lon="2.72312">
        <ele>44</ele>
        <time>2024-05-10T07:08:35Z</time>
      </trkpt>
      <trkpt lat="43.2656" lon="2.72339">
        <ele>44</ele>
        <time>2024-05-10T07:08:36Z</time>
      </trkpt>
      <trkpt lat="43.26562" lon="2.72366">
        <ele>43.8</ele>
        <time>2024-05-10T07:08:37Z</time>
      </trkpt>
      <trkpt lat="43.26565" lon="2.72391">
        <ele>43</ele>
        <time>2024-05-10T07:08:38Z</time>
      </trkpt>
      <trkpt lat="43.26569" lon="2.72416">
        <ele>43</ele>
        <time>2024-05-10T07:08:39Z</time>
      </trkpt>
      <trkpt lat="43.26574" lon="2.72439">
        <ele>43</ele>
        <time>2024-05-10T07:08:40Z</time>
      </trkpt>
      <trkpt lat="43.26581" lon="2.72463">
        <ele>43</ele>
        <time>2024-05-10T07:08:41Z</time>
      </trkpt>
      <trkpt lat="43.26589" lon="2.72486">
        <ele>43</ele>
        <time>2024-05-10T07:08:42Z</time>
      </trkpt>
      <trkpt lat="43.26599" lon="2.72509">
        <ele>43</ele>
        <time>2024-05-10T07:08:43Z</time>
      </trkpt>
      <trkpt lat="43.2661" lon="2.72531">
        <ele>43</ele>
        <time>2024-05-10T07:08:44Z</time>
      </trkpt>
      <trkpt lat="43.26622" lon="2.72552">
        <ele>43.4</ele>
        <time>2024-05-10T07:08:45Z</time>
      </trkpt>
      <trkpt lat="43.26634" lon="2.72574">
        <ele>43.2</ele>
        <time>2024-05-10T07:08:46Z</time>
      </trkpt>
      <trkpt lat="43.26646" lon="2.72596">
        <ele>42.9</ele>
        <time>2024-05-10T07:08:47Z</time>
      </trkpt>
      <trkpt lat="43.26658" lon="2.72618">
        <ele>43.2</ele>
        <time>2024-05-10T07:08:48Z</time>
      </trkpt>
      <trkpt lat="43.26669" lon="2.72641">
        <ele>43</ele>
        <time>2024-05-10T07:08:49Z</time>
      </trkpt>
      <trkpt lat="43.26679" lon="2.72665">
        <ele>42.9</ele>
        <time>2024-05-10T07:08:50Z</time>
      </trkpt>
      <trkpt lat="43.26687" lon="2.7269">
        <ele>43.5</ele>
        <time>2024-05-10T07:08:51Z</time>
      </trkpt>
      <trkpt lat="43.26695" lon="2.72715">
        <ele>43.3</ele>
        <time>2024-05-10T07:08:52Z</time>
      </trkpt>
      <trkpt lat="43.26701" lon="2.7274">
        <ele>43.4</ele>
        <time>2024-05-10T07:08:53Z</time>
      </trkpt>
      <trkpt lat="43.26705" lon="2.72765">
        <ele>43.6</ele>
        <time>2024-05-10T07:08:54Z</time>
      </trkpt>
      <trkpt lat="43.26709" lon="2.7279">
        <ele>43.8</ele>
        <time>2024-05-10T07:08:55Z</time>
      </trkpt>
      <trkpt lat="43.26711" lon="2.72814">
        <ele>44.2</ele>
        <time>2024-05-10T07:08:56Z</time>
      </trkpt>
      <trkpt lat="43.26713" lon="2.72838">
        <ele>44.3</ele>
        <time>2024-05-10T07:08:57Z</time>
      </trkpt>
      <trkpt lat="43.26713" lon="2.72863">
        <ele>44</ele>
        <time>2024-05-10T07:08:58Z</time>
      </trkpt>
      <trkpt lat="43.26713" lon="2.72888">
        <ele>44.7</ele>
        <time>2024-05-10T07:08:59Z</time>
      </trkpt>
      <trkpt lat="43.26711" lon="2.72914">
        <ele>44.9</ele>
        <time>2024-05-10T07:09:00Z</time>
      </trkpt>
      <trkpt lat="43.26708" lon="2.7294">
        <ele>44.8</ele>
        <time>2024-05-10T07:09:01Z</time>
      </trkpt>
      <trkpt lat="43.26704" lon="2.72966">
        <ele>44.1</ele>
        <time>2024-05-10T07:09:02Z</time>
      </trkpt>
      <trkpt lat="43.267" lon="2.72993">
        <ele>43.6</ele>
        <time>2024-05-10T07:09:03Z</time>
      </trkpt>
      <trkpt lat="43.26696" lon="2.73019">
        <ele>43.3</ele>
        <time>2024-05-10T07:09:04Z</time>
      </trkpt>
      <trkpt lat="43.26691" lon="2.73046">
        <ele>42.8</ele>
        <time>2024-05-10T07:09:05Z</time>
      </trkpt>
      <trkpt lat="43.26687" lon="2.73072">
        <ele>42.9</ele>
        <time>2024-05-10T07:09:06Z</time>
      </trkpt>
      <trkpt lat="43.26682" lon="2.73097">
        <ele>43.2</ele>
        <time>2024-05-10T07:09:07Z</time>
      </trkpt>
      <trkpt lat="43.26678" lon="2.73121">
        <ele>43.3</ele>
        <time>2024-05-10T07:09:08Z</time>
      </trkpt>
      <trkpt lat="43.26674" lon="2.73146">
        <ele>43.2</ele>
        <time>2024-05-10T07:09:09Z</time>
      </trkpt>
      <trkpt lat="43.2667" lon="2.73169">
        <ele>43.1</ele>
        <time>2024-05-10T07:09:10Z</time>
      </trkpt>
      <trkpt lat="43.26667" lon="2.73193">
        <ele>42.1</ele>
        <time>2024-05-10T07:09:11Z</time>
      </trkpt>
      <trkpt lat="43.26663" lon="2.73216">
        <ele>41.8</ele>
        <time>2024-05-10T07:09:12Z</time>
      </trkpt>
      <trkpt lat="43.26659" lon="2.73239">
        <ele>42.6</ele>
        <time>2024-05-10T07:09:13Z</time>
      </trkpt>
      <trkpt lat="43.26655" lon="2.73261">
        <ele>42.7</ele>
        <time>2024-05-10T07:09:14Z</time>
      </trkpt>
      <trkpt lat="43.26651" lon="2.73284">
        <ele>42.3</ele>
        <time>2024-05-10T07:09:15Z</time>
      </trkpt>
      <trkpt lat="43.26647" lon="2.73306">
        <ele>41.9</ele>
        <time>2024-05-10T07:09:16Z</time>
      </trkpt>
      <trkpt lat="43.26643" lon="2.73328">
        <ele>41.7</ele>
        <time>2024-05-10T07:09:17Z</time>
      </trkpt>
      <trkpt lat="43.2664" lon="2.73349">
        <ele>41.2</ele>
        <time>2024-05-10T07:09:18Z</time>
      </trkpt>
      <trkpt lat="43.26636" lon="2.73368">
        <ele>40.9</ele>
        <time>2024-05-10T07:09:19Z</time>
      </trkpt>
      <trkpt lat="43.26634" lon="2.73385">
        <ele>40.8</ele>
        <time>2024-05-10T07:09:20Z</time>
      </trkpt>
      <trkpt lat="43.26631" lon="2.73401">
        <ele>41</ele>
        <time>2024-05-10T07:09:21Z</time>
      </trkpt>
      <trkpt lat="43.26628" lon="2.73416">
        <ele>41.2</ele>
        <time>2024-05-10T07:09:22Z</time>
      </trkpt>
      <trkpt lat="43.26626" lon="2.73431">
        <ele>41.6</ele>
        <time>2024-05-10T07:09:23Z</time>
      </trkpt>
      <trkpt lat="43.26623" lon="2.73445">
        <ele>41.7</ele>
        <time>2024-05-10T07:09:24Z</time>
      </trkpt>
      <trkpt lat="43.2662" lon="2.7346">
        <ele>42</ele>
        <time>2024-05-10T07:09:25Z</time>
      </trkpt>
      <trkpt lat="43.26618" lon="2.73474">
        <ele>42.3</ele>
        <time>2024-05-10T07:09:26Z</time>
      </trkpt>
      <trkpt lat="43.26615" lon="2.73488">
        <ele>41.8</ele>
        <time>2024-05-10T07:09:27Z</time>
      </trkpt>
      <trkpt lat="43.26613" lon="2.73503">
        <ele>41.4</ele>
        <time>2024-05-10T07:09:28Z</time>
      </trkpt>
      <trkpt lat="43.26611" lon="2.73517">
        <ele>41</ele>
        <time>2024-05-10T07:09:29Z</time>
      </trkpt>
      <trkpt lat="43.26609" lon="2.73528">
        <ele>40.9</ele>
        <time>2024-05-10T07:09:30Z</time>
      </trkpt>
      <trkpt lat="43.26606" lon="2.73538">
        <ele>40.9</ele>
        <time>2024-05-10T07:09:31Z</time>
      </trkpt>
      <trkpt lat="43.26602" lon="2.73545">
        <ele>40.9</ele>
        <time>2024-05-10T07:09:32Z</time>
      </trkpt>
      <trkpt lat="43.266" lon="2.73549">
        <ele>40.9</ele>
        <time>2024-05-10T07:09:33Z</time>
      </trkpt>
      <trkpt lat="43.26597" lon="2.73552">
        <ele>40.9</ele>
        <time>2024-05-10T07:09:34Z</time>
      </trkpt>
      <trkpt lat="43.26595" lon="2.73554">
        <ele>41</ele>
        <time>2024-05-10T07:09:35Z</time>
      </trkpt>
      <trkpt lat="43.26595" lon="2.73555">
        <ele>41</ele>
        <time>2024-05-10T07:09:36Z</time>
      </trkpt>
      <trkpt lat="43.26595" lon="2.73555">
        <ele>41</ele>
        <time>2024-05-10T07:09:37Z</time>
      </trkpt>
      <trkpt lat="43.26595" lon="2.73554">
        <ele>41</ele>
        <time>2024-05-10T07:09:38Z</time>
      </trkpt>
      <trkpt lat="43.26595" lon="2.73555">
        <ele>41</ele>
        <time>2024-05-10T07:09:39Z</time>
      </trkpt>
      <trkpt lat="43.26595" lon="2.73555">
        <ele>41</ele>
        <time>2024-05-10T07:09:40Z</time>
      </trkpt>
      <trkpt lat="43.26595" lon="2.73555">
        <ele>41</ele>
        <time>2024-05-10T07:09:41Z</time>
      </trkpt>
      <trkpt lat="43.26593" lon="2.73556">
        <ele>41</ele>
        <time>2024-05-10T07:09:42Z</time>
      </trkpt>
      <trkpt lat="43.26589" lon="2.73559">
        <ele>40.8</ele>
        <time>2024-05-10T07:09:43Z</time>
      </trkpt>
      <trkpt lat="43.26582" lon="2.73562">
        <ele>40.5</ele>
        <time>2024-05-10T07:09:44Z</time>
      </trkpt>
      <trkpt lat="43.26572" lon="2.73566">
        <ele>39.7</ele>
        <time>2024-05-10T07:09:45Z</time>
      </trkpt>
      <trkpt lat="43.26559" lon="2.73569">
        <ele>39.1</ele>
        <time>2024-05-10T07:09:46Z</time>
      </trkpt>
      <trkpt lat="43.26544" lon="2.7357">
        <ele>39</ele>
        <time>2024-05-10T07:09:47Z</time>
      </trkpt>
      <trkpt lat="43.26529" lon="2.73567">
        <ele>39</ele>
        <time>2024-05-10T07:09:48Z</time>
      </trkpt>
      <trkpt lat="43.26512" lon="2.7356">
        <ele>39</ele>
        <time>2024-05-10T07:09:49Z</time>
      </trkpt>
      <trkpt lat="43.26496" lon="2.73553">
        <ele>39.1</ele>
        <time>2024-05-10T07:09:50Z</time>
      </trkpt>
      <trkpt lat="43.2648" lon="2.73551">
        <ele>39.6</ele>
        <time>2024-05-10T07:09:51Z</time>
      </trkpt>
      <trkpt lat="43.26462" lon="2.73555">
        <ele>40</ele>
        <time>2024-05-10T07:09:52Z</time>
      </trkpt>
      <trkpt lat="43.26445" lon="2.73564">
        <ele>39.7</ele>
        <time>2024-05-10T07:09:53Z</time>
      </trkpt>
      <trkpt lat="43.26428" lon="2.73576">
        <ele>40</ele>
        <time>2024-05-10T07:09:54Z</time>
      </trkpt>
      <trkpt lat="43.2641" lon="2.7359">
        <ele>40.3</ele>
        <time>2024-05-10T07:09:55Z</time>
      </trkpt>
      <trkpt lat="43.26393" lon="2.73602">
        <ele>40.8</ele>
        <time>2024-05-10T07:09:56Z</time>
      </trkpt>
      <trkpt lat="43.26376" lon="2.73615">
        <ele>41.2</ele>
        <time>2024-05-10T07:09:57Z</time>
      </trkpt>
      <trkpt lat="43.26359" lon="2.73627">
        <ele>39.3</ele>
        <time>2024-05-10T07:09:58Z</time>
      </trkpt>
      <trkpt lat="43.26342" lon="2.7364">
        <ele>34.1</ele>
        <time>2024-05-10T07:09:59Z</time>
      </trkpt>
      <trkpt lat="43.26325" lon="2.73652">
        <ele>32</ele>
        <time>2024-05-10T07:10:00Z</time>
      </trkpt>
      <trkpt lat="43.26308" lon="2.73665">
        <ele>32</ele>
        <time>2024-05-10T07:10:01Z</time>
      </trkpt>
      <trkpt lat="43.26292" lon="2.73676">
        <ele>36.7</ele>
        <time>2024-05-10T07:10:02Z</time>
      </trkpt>
      <trkpt lat="43.26276" lon="2.73688">
        <ele>41.6</ele>
        <time>2024-05-10T07:10:03Z</time>
      </trkpt>
      <trkpt lat="43.26261" lon="2.73699">
        <ele>40</ele>
        <time>2024-05-10T07:10:04Z</time>
      </trkpt>
      <trkpt lat="43.26246" lon="2.7371">
        <ele>39.6</ele>
        <time>2024-05-10T07:10:05Z</time>
      </trkpt>
      <trkpt lat="43.26231" lon="2.73721">
        <ele>40.6</ele>
        <time>2024-05-10T07:10:06Z</time>
      </trkpt>
      <trkpt lat="43.26217" lon="2.73732">
        <ele>40.7</ele>
        <time>2024-05-10T07:10:07Z</time>
      </trkpt>
      <trkpt lat="43.26204" lon="2.73744">
        <ele>41.1</ele>
        <time>2024-05-10T07:10:08Z</time>
      </trkpt>
      <trkpt lat="43.26192" lon="2.73756">
        <ele>41.7</ele>
        <time>2024-05-10T07:10:09Z</time>
      </trkpt>
      <trkpt lat="43.26181" lon="2.7377">
        <ele>41.1</ele>
        <time>2024-05-10T07:10:10Z</time>
      </trkpt>
      <trkpt lat="43.26172" lon="2.73788">
        <ele>40.9</ele>
        <time>2024-05-10T07:10:11Z</time>
      </trkpt>
      <trkpt lat="43.26164" lon="2.73809">
        <ele>41</ele>
        <time>2024-05-10T07:10:12Z</time>
      </trkpt>
      <trkpt lat="43.26156" lon="2.73833">
        <ele>41</ele>
        <time>2024-05-10T07:10:13Z</time>
      </trkpt>
      <trkpt lat="43.26147" lon="2.7386">
        <ele>40.7</ele>
        <time>2024-05-10T07:10:14Z</time>
      </trkpt>
      <trkpt lat="43.26138" lon="2.73888">
        <ele>42</ele>
        <time>2024-05-10T07:10:15Z</time>
      </trkpt>
      <trkpt lat="43.26128" lon="2.73919">
        <ele>41.9</ele>
        <time>2024-05-10T07:10:16Z</time>
      </trkpt>
      <trkpt lat="43.26118" lon="2.73952">
        <ele>41.7</ele>
        <time>2024-05-10T07:10:17Z</time>
      </trkpt>
      <trkpt lat="43.26107" lon="2.73986">
        <ele>41.4</ele>
        <time>2024-05-10T07:10:18Z</time>
      </trkpt>
      <trkpt lat="43.26096" lon="2.7402">
        <ele>40.7</ele>
        <time>2024-05-10T07:10:19Z</time>
      </trkpt>
      <trkpt lat="43.26085" lon="2.74056">
        <ele>41.8</ele>
        <time>2024-05-10T07:10:20Z</time>
      </trkpt>
      <trkpt lat="43.26074" lon="2.74093">
        <ele>40.2</ele>
        <time>2024-05-10T07:10:21Z</time>
      </trkpt>
      <trkpt lat="43.26063" lon="2.74129">
        <ele>40.5</ele>
        <time>2024-05-10T07:10:22Z</time>
      </trkpt>
      <trkpt lat="43.26051" lon="2.74166">
        <ele>40</ele>
        <time>2024-05-10T07:10:23Z</time>
      </trkpt>
      <trkpt lat="43.26039" lon="2.74202">
        <ele>39.8</ele>
        <time>2024-05-10T07:10:24Z</time>
      </trkpt>
      <trkpt lat="43.26027" lon="2.74238">
        <ele>41</ele>
        <time>2024-05-10T07:10:25Z</time>
      </trkpt>
      <trkpt lat="43.26016" lon="2.74273">
        <ele>40.5</ele>
        <time>2024-05-10T07:10:26Z</time>
      </trkpt>
      <trkpt lat="43.26006" lon="2.74306">
        <ele>40.8</ele>
        <time>2024-05-10T07:10:27Z</time>
      </trkpt>
      <trkpt lat="43.25995" lon="2.74338">
        <ele>40.9</ele>
        <time>2024-05-10T07:10:28Z</time>
      </trkpt>
      <trkpt lat="43.25985" lon="2.74369">
        <ele>41.1</ele>
        <time>2024-05-10T07:10:29Z</time>
      </trkpt>
      <trkpt lat="43.25975" lon="2.74397">
        <ele>41.8</ele>
        <time>2024-05-10T07:10:30Z</time>
      </trkpt>
      <trkpt lat="43.25963" lon="2.74425">
        <ele>42.5</ele>
        <time>2024-05-10T07:10:31Z</time>
      </trkpt>
      <trkpt lat="43.2595" lon="2.7445">
        <ele>43.5</ele>
        <time>2024-05-10T07:10:32Z</time>
      </trkpt>
      <trkpt lat="43.25935" lon="2.74473">
        <ele>45.7</ele>
        <time>2024-05-10T07:10:33Z</time>
      </trkpt>
      <trkpt lat="43.2592" lon="2.74496">
        <ele>45.3</ele>
        <time>2024-05-10T07:10:34Z</time>
      </trkpt>
      <trkpt lat="43.25905" lon="2.74517">
        <ele>46.2</ele>
        <time>2024-05-10T07:10:35Z</time>
      </trkpt>
      <trkpt lat="43.2589" lon="2.74537">
        <ele>47.2</ele>
        <time>2024-05-10T07:10:36Z</time>
      </trkpt>
      <trkpt lat="43.25872" lon="2.74555">
        <ele>46.2</ele>
        <time>2024-05-10T07:10:37Z</time>
      </trkpt>
      <trkpt lat="43.25853" lon="2.74573">
        <ele>43.8</ele>
        <time>2024-05-10T07:10:38Z</time>
      </trkpt>
      <trkpt lat="43.25834" lon="2.74592">
        <ele>43</ele>
        <time>2024-05-10T07:10:39Z</time>
      </trkpt>
      <trkpt lat="43.25813" lon="2.74612">
        <ele>38.1</ele>
        <time>2024-05-10T07:10:40Z</time>
      </trkpt>
      <trkpt lat="43.25791" lon="2.74633">
        <ele>40.6</ele>
        <time>2024-05-10T07:10:41Z</time>
      </trkpt>
      <trkpt lat="43.25768" lon="2.74653">
        <ele>42.7</ele>
        <time>2024-05-10T07:10:42Z</time>
      </trkpt>
      <trkpt lat="43.25745" lon="2.74673">
        <ele>43.6</ele>
        <time>2024-05-10T07:10:43Z</time>
      </trkpt>
      <trkpt lat="43.25722" lon="2.74692">
        <ele>44.1</ele>
        <time>2024-05-10T07:10:44Z</time>
      </trkpt>
      <trkpt lat="43.257" lon="2.74712">
        <ele>43.3</ele>
        <time>2024-05-10T07:10:45Z</time>
      </trkpt>
      <trkpt lat="43.25678" lon="2.74732">
        <ele>42.6</ele>
        <time>2024-05-10T07:10:46Z</time>
      </trkpt>
      <trkpt lat="43.25657" lon="2.74752">
        <ele>42.8</ele>
        <time>2024-05-10T07:10:47Z</time>
      </trkpt>
      <trkpt lat="43.25636" lon="2.74771">
        <ele>43.2</ele>
        <time>2024-05-10T07:10:48Z</time>
      </trkpt>
      <trkpt lat="43.25615" lon="2.74791">
        <ele>43.6</ele>
        <time>2024-05-10T07:10:49Z</time>
      </trkpt>
      <trkpt lat="43.25594" lon="2.74812">
        <ele>42.5</ele>
        <time>2024-05-10T07:10:50Z</time>
      </trkpt>
      <trkpt lat="43.25572" lon="2.74831">
        <ele>42.1</ele>
        <time>2024-05-10T07:10:51Z</time>
      </trkpt>
      <trkpt lat="43.25549" lon="2.7485">
        <ele>42.6</ele>
        <time>2024-05-10T07:10:52Z</time>
      </trkpt>
      <trkpt lat="43.25527" lon="2.7487">
        <ele>41.4</ele>
        <time>2024-05-10T07:10:53Z</time>
      </trkpt>
      <trkpt lat="43.25504" lon="2.7489">
        <ele>40.8</ele>
        <time>2024-05-10T07:10:54Z</time>
      </trkpt>
      <trkpt lat="43.25481" lon="2.74911">
        <ele>40.9</ele>
        <time>2024-05-10T07:10:55Z</time>
      </trkpt>
      <trkpt lat="43.25459" lon="2.74932">
        <ele>40.8</ele>
        <time>2024-05-10T07:10:56Z</time>
      </trkpt>
      <trkpt lat="43.25436" lon="2.74953">
        <ele>40.7</ele>
        <time>2024-05-10T07:10:57Z</time>
      </trkpt>
      <trkpt lat="43.25414" lon="2.74973">
        <ele>40</ele>
        <time>2024-05-10T07:10:58Z</time>
      </trkpt>
      <trkpt lat="43.25393" lon="2.74993">
        <ele>40</ele>
        <time>2024-05-10T07:10:59Z</time>
      </trkpt>
      <trkpt lat="43.25372" lon="2.75011">
        <ele>39.8</ele>
        <time>2024-05-10T07:11:00Z</time>
      </trkpt>
      <trkpt lat="43.25352" lon="2.7503">
        <ele>39.5</ele>
        <time>2024-05-10T07:11:01Z</time>
      </trkpt>
      <trkpt lat="43.25332" lon="2.75048">
        <ele>39.6</ele>
        <time>2024-05-10T07:11:02Z</time>
      </trkpt>
      <trkpt lat="43.25311" lon="2.75066">
        <ele>39.9</ele>
        <time>2024-05-10T07:11:03Z</time>
      </trkpt>
      <trkpt lat="43.25289" lon="2.7508">
        <ele>39.2</ele>
        <time>2024-05-10T07:11:04Z</time>
      </trkpt>
      <trkpt lat="43.25265" lon="2.75093">
        <ele>38.5</ele>
        <time>2024-05-10T07:11:05Z</time>
      </trkpt>
      <trkpt lat="43.25241" lon="2.75106">
        <ele>38.4</ele>
        <time>2024-05-10T07:11:06Z</time>
      </trkpt>
      <trkpt lat="43.25216" lon="2.75118">
        <ele>38.4</ele>
        <time>2024-05-10T07:11:07Z</time>
      </trkpt>
      <trkpt lat="43.2519" lon="2.75131">
        <ele>38</ele>
        <time>2024-05-10T07:11:08Z</time>
      </trkpt>
      <trkpt lat="43.25164" lon="2.75146">
        <ele>37.7</ele>
        <time>2024-05-10T07:11:09Z</time>
      </trkpt>
      <trkpt lat="43.25137" lon="2.7516">
        <ele>37.2</ele>
        <time>2024-05-10T07:11:10Z</time>
      </trkpt>
      <trkpt lat="43.25109" lon="2.75173">
        <ele>36.8</ele>
        <time>2024-05-10T07:11:11Z</time>
      </trkpt>
      <trkpt lat="43.25081" lon="2.75186">
        <ele>37</ele>
        <time>2024-05-10T07:11:12Z</time>
      </trkpt>
      <trkpt lat="43.25053" lon="2.75199">
        <ele>36.9</ele>
        <time>2024-05-10T07:11:13Z</time>
      </trkpt>
      <trkpt lat="43.25025" lon="2.75212">
        <ele>37</ele>
        <time>2024-05-10T07:11:14Z</time>
      </trkpt>
      <trkpt lat="43.24998" lon="2.75226">
        <ele>36.9</ele>
        <time>2024-05-10T07:11:15Z</time>
      </trkpt>
      <trkpt lat="43.24971" lon="2.7524">
        <ele>36.4</ele>
        <time>2024-05-10T07:11:16Z</time>
      </trkpt>
      <trkpt lat="43.24945" lon="2.75253">
        <ele>36.9</ele>
        <time>2024-05-10T07:11:17Z</time>
      </trkpt>
      <trkpt lat="43.2492" lon="2.75265">
        <ele>36.5</ele>
        <time>2024-05-10T07:11:18Z</time>
      </trkpt>
      <trkpt lat="43.24896" lon="2.75277">
        <ele>36</ele>
        <time>2024-05-10T07:11:19Z</time>
      </trkpt>
      <trkpt lat="43.24873" lon="2.75289">
        <ele>35.3</ele>
        <time>2024-05-10T07:11:20Z</time>
      </trkpt>
      <trkpt lat="43.24849" lon="2.75301">
        <ele>35.5</ele>
        <time>2024-05-10T07:11:21Z</time>
      </trkpt>
      <trkpt lat="43.24824" lon="2.75314">
        <ele>35.4</ele>
        <time>2024-05-10T07:11:22Z</time>
      </trkpt>
      <trkpt lat="43.24799" lon="2.75327">
        <ele>34.8</ele>
        <time>2024-05-10T07:11:23Z</time>
      </trkpt>
      <trkpt lat="43.24774" lon="2.75339">
        <ele>35.6</ele>
        <time>2024-05-10T07:11:24Z</time>
      </trkpt>
      <trkpt lat="43.2475" lon="2.75351">
        <ele>34.7</ele>
        <time>2024-05-10T07:11:25Z</time>
      </trkpt>
      <trkpt lat="43.24726" lon="2.75362">
        <ele>34.8</ele>
        <time>2024-05-10T07:11:26Z</time>
      </trkpt>
      <trkpt lat="43.24704" lon="2.75373">
        <ele>34.7</ele>
        <time>2024-05-10T07:11:27Z</time>
      </trkpt>
      <trkpt lat="43.24683" lon="2.75383">
        <ele>35.2</ele>
        <time>2024-05-10T07:11:28Z</time>
      </trkpt>
      <trkpt lat="43.24662" lon="2.75393">
        <ele>34.6</ele>
        <time>2024-05-10T07:11:29Z</time>
      </trkpt>
      <trkpt lat="43.24642" lon="2.75403">
        <ele>34.4</ele>
        <time>2024-05-10T07:11:30Z</time>
      </trkpt>
      <trkpt lat="43.24623" lon="2.75413">
        <ele>34.6</ele>
        <time>2024-05-10T07:11:31Z</time>
      </trkpt>
      <trkpt lat="43.24604" lon="2.75422">
        <ele>34.5</ele>
        <time>2024-05-10T07:11:32Z</time>
      </trkpt>
      <trkpt lat="43.24585" lon="2.75432">
        <ele>34</ele>
        <time>2024-05-10T07:11:33Z</time>
      </trkpt>
      <trkpt lat="43.24565" lon="2.75442">
        <ele>34</ele>
        <time>2024-05-10T07:11:34Z</time>
      </trkpt>
      <trkpt lat="43.24546" lon="2.75452">
        <ele>34</ele>
        <time>2024-05-10T07:11:35Z</time>
      </trkpt>
      <trkpt lat="43.24527" lon="2.75462">
        <ele>34</ele>
        <time>2024-05-10T07:11:36Z</time>
      </trkpt>
      <trkpt lat="43.24507" lon="2.75471">
        <ele>34</ele>
        <time>2024-05-10T07:11:37Z</time>
      </trkpt>
      <trkpt lat="43.24488" lon="2.75481">
        <ele>34</ele>
        <time>2024-05-10T07:11:38Z</time>
      </trkpt>
      <trkpt lat="43.24468" lon="2.75491">
        <ele>34.7</ele>
        <time>2024-05-10T07:11:39Z</time>
      </trkpt>
      <trkpt lat="43.24448" lon="2.75501">
        <ele>34.9</ele>
        <time>2024-05-10T07:11:40Z</time>
      </trkpt>
      <trkpt lat="43.24428" lon="2.75511">
        <ele>33.9</ele>
        <time>2024-05-10T07:11:41Z</time>
      </trkpt>
      <trkpt lat="43.24407" lon="2.75521">
        <ele>33.9</ele>
        <time>2024-05-10T07:11:42Z</time>
      </trkpt>
      <trkpt lat="43.24387" lon="2.75531">
        <ele>33.7</ele>
        <time>2024-05-10T07:11:43Z</time>
      </trkpt>
      <trkpt lat="43.24368" lon="2.75541">
        <ele>33</ele>
        <time>2024-05-10T07:11:44Z</time>
      </trkpt>
      <trkpt lat="43.24349" lon="2.7555">
        <ele>33.3</ele>
        <time>2024-05-10T07:11:45Z</time>
      </trkpt>
      <trkpt lat="43.2433" lon="2.7556">
        <ele>33.8</ele>
        <time>2024-05-10T07:11:46Z</time>
      </trkpt>
      <trkpt lat="43.24311" lon="2.75569">
        <ele>33.5</ele>
        <time>2024-05-10T07:11:47Z</time>
      </trkpt>
      <trkpt lat="43.24292" lon="2.7558">
        <ele>33.9</ele>
        <time>2024-05-10T07:11:48Z</time>
      </trkpt>
      <trkpt lat="43.24272" lon="2.75592">
        <ele>33.6</ele>
        <time>2024-05-10T07:11:49Z</time>
      </trkpt>
      <trkpt lat="43.24254" lon="2.75605">
        <ele>33.7</ele>
        <time>2024-05-10T07:11:50Z</time>
      </trkpt>
      <trkpt lat="43.24235" lon="2.7562">
        <ele>33.3</ele>
        <time>2024-05-10T07:11:51Z</time>
      </trkpt>
      <trkpt lat="43.24217" lon="2.75636">
        <ele>33.7</ele>
        <time>2024-05-10T07:11:52Z</time>
      </trkpt>
      <trkpt lat="43.24199" lon="2.75653">
        <ele>33.4</ele>
        <time>2024-05-10T07:11:53Z</time>
      </trkpt>
      <trkpt lat="43.24182" lon="2.7567">
        <ele>33.5</ele>
        <time>2024-05-10T07:11:54Z</time>
      </trkpt>
      <trkpt lat="43.24165" lon="2.75688">
        <ele>33.7</ele>
        <time>2024-05-10T07:11:55Z</time>
      </trkpt>
      <trkpt lat="43.24147" lon="2.75706">
        <ele>33.3</ele>
        <time>2024-05-10T07:11:56Z</time>
      </trkpt>
      <trkpt lat="43.2413" lon="2.75724">
        <ele>33.5</ele>
        <time>2024-05-10T07:11:57Z</time>
      </trkpt>
      <trkpt lat="43.24114" lon="2.75741">
        <ele>31.1</ele>
        <time>2024-05-10T07:11:58Z</time>
      </trkpt>
      <trkpt lat="43.24097" lon="2.75757">
        <ele>31.5</ele>
        <time>2024-05-10T07:11:59Z</time>
      </trkpt>
      <trkpt lat="43.24081" lon="2.75774">
        <ele>33.8</ele>
        <time>2024-05-10T07:12:00Z</time>
      </trkpt>
      <trkpt lat="43.24064" lon="2.75792">
        <ele>33.7</ele>
        <time>2024-05-10T07:12:01Z</time>
      </trkpt>
      <trkpt lat="43.24048" lon="2.75809">
        <ele>33.9</ele>
        <time>2024-05-10T07:12:02Z</time>
      </trkpt>
      <trkpt lat="43.24031" lon="2.75827">
        <ele>33.9</ele>
        <time>2024-05-10T07:12:03Z</time>
      </trkpt>
      <trkpt lat="43.24015" lon="2.75844">
        <ele>33.8</ele>
        <time>2024-05-10T07:12:04Z</time>
      </trkpt>
      <trkpt lat="43.23998" lon="2.75861">
        <ele>34</ele>
        <time>2024-05-10T07:12:05Z</time>
      </trkpt>
      <trkpt lat="43.23983" lon="2.75877">
        <ele>33.8</ele>
        <time>2024-05-10T07:12:06Z</time>
      </trkpt>
      <trkpt lat="43.23968" lon="2.75893">
        <ele>34.2</ele>
        <time>2024-05-10T07:12:07Z</time>
      </trkpt>
      <trkpt lat="43.23953" lon="2.75908">
        <ele>34.7</ele>
        <time>2024-05-10T07:12:08Z</time>
      </trkpt>
      <trkpt lat="43.23938" lon="2.75923">
        <ele>34.8</ele>
        <time>2024-05-10T07:12:09Z</time>
      </trkpt>
      <trkpt lat="43.23924" lon="2.75938">
        <ele>34.8</ele>
        <time>2024-05-10T07:12:10Z</time>
      </trkpt>
      <trkpt lat="43.2391" lon="2.75953">
        <ele>34.8</ele>
        <time>2024-05-10T07:12:11Z</time>
      </trkpt>
      <trkpt lat="43.23896" lon="2.75967">
        <ele>34.8</ele>
        <time>2024-05-10T07:12:12Z</time>
      </trkpt>
      <trkpt lat="43.23881" lon="2.75982">
        <ele>35</ele>
        <time>2024-05-10T07:12:13Z</time>
      </trkpt>
      <trkpt lat="43.23867" lon="2.75997">
        <ele>35</ele>
        <time>2024-05-10T07:12:14Z</time>
      </trkpt>
      <trkpt lat="43.23853" lon="2.76012">
        <ele>35</ele>
        <time>2024-05-10T07:12:15Z</time>
      </trkpt>
      <trkpt lat="43.2384" lon="2.76026">
        <ele>35</ele>
        <time>2024-05-10T07:12:16Z</time>
      </trkpt>
      <trkpt lat="43.23826" lon="2.7604">
        <ele>34.7</ele>
        <time>2024-05-10T07:12:17Z</time>
      </trkpt>
      <trkpt lat="43.23813" lon="2.76054">
        <ele>34.7</ele>
        <time>2024-05-10T07:12:18Z</time>
      </trkpt>
      <trkpt lat="43.23801" lon="2.76066">
        <ele>34.7</ele>
        <time>2024-05-10T07:12:19Z</time>
      </trkpt>
      <trkpt lat="43.23789" lon="2.76078">
        <ele>34.7</ele>
        <time>2024-05-10T07:12:20Z</time>
      </trkpt>
      <trkpt lat="43.23778" lon="2.76089">
        <ele>35</ele>
        <time>2024-05-10T07:12:21Z</time>
      </trkpt>
      <trkpt lat="43.23768" lon="2.761">
        <ele>34.8</ele>
        <time>2024-05-10T07:12:22Z</time>
      </trkpt>
      <trkpt lat="43.23757" lon="2.76111">
        <ele>34.3</ele>
        <time>2024-05-10T07:12:23Z</time>
      </trkpt>
      <trkpt lat="43.23747" lon="2.76121">
        <ele>34.1</ele>
        <time>2024-05-10T07:12:24Z</time>
      </trkpt>
      <trkpt lat="43.23737" lon="2.76131">
        <ele>34.5</ele>
        <time>2024-05-10T07:12:25Z</time>
      </trkpt>
      <trkpt lat="43.23727" lon="2.76141">
        <ele>34.8</ele>
        <time>2024-05-10T07:12:26Z</time>
      </trkpt>
      <trkpt lat="43.23717" lon="2.76151">
        <ele>34.6</ele>
        <time>2024-05-10T07:12:27Z</time>
      </trkpt>
      <trkpt lat="43.23707" lon="2.76161">
        <ele>34.6</ele>
        <time>2024-05-10T07:12:28Z</time>
      </trkpt>
      <trkpt lat="43.23697" lon="2.76172">
        <ele>34.7</ele>
        <time>2024-05-10T07:12:29Z</time>
      </trkpt>
      <trkpt lat="43.23686" lon="2.76183">
        <ele>34.4</ele>
        <time>2024-05-10T07:12:30Z</time>
      </trkpt>
      <trkpt lat="43.23675" lon="2.76195">
        <ele>34</ele>
        <time>2024-05-10T07:12:31Z</time>
      </trkpt>
      <trkpt lat="43.23663" lon="2.76206">
        <ele>33.6</ele>
        <time>2024-05-10T07:12:32Z</time>
      </trkpt>
      <trkpt lat="43.23651" lon="2.76217">
        <ele>33.6</ele>
        <time>2024-05-10T07:12:33Z</time>
      </trkpt>
      <trkpt lat="43.2364" lon="2.76229">
        <ele>33.7</ele>
        <time>2024-05-10T07:12:34Z</time>
      </trkpt>
      <trkpt lat="43.23628" lon="2.76242">
        <ele>32.8</ele>
        <time>2024-05-10T07:12:35Z</time>
      </trkpt>
      <trkpt lat="43.23617" lon="2.76254">
        <ele>32</ele>
        <time>2024-05-10T07:12:36Z</time>
      </trkpt>
      <trkpt lat="43.23605" lon="2.76266">
        <ele>31.2</ele>
        <time>2024-05-10T07:12:37Z</time>
      </trkpt>
      <trkpt lat="43.23594" lon="2.76278">
        <ele>32.5</ele>
        <time>2024-05-10T07:12:38Z</time>
      </trkpt>
      <trkpt lat="43.23585" lon="2.7629">
        <ele>33.7</ele>
        <time>2024-05-10T07:12:39Z</time>
      </trkpt>
      <trkpt lat="43.23576" lon="2.76301">
        <ele>34</ele>
        <time>2024-05-10T07:12:40Z</time>
      </trkpt>
      <trkpt lat="43.23569" lon="2.76311">
        <ele>33.9</ele>
        <time>2024-05-10T07:12:41Z</time>
      </trkpt>
      <trkpt lat="43.23562" lon="2.76321">
        <ele>34.2</ele>
        <time>2024-05-10T07:12:42Z</time>
      </trkpt>
      <trkpt lat="43.23555" lon="2.76329">
        <ele>34.8</ele>
        <time>2024-05-10T07:12:43Z</time>
      </trkpt>
      <trkpt lat="43.23548" lon="2.76338">
        <ele>34.5</ele>
        <time>2024-05-10T07:12:44Z</time>
      </trkpt>
      <trkpt lat="43.23542" lon="2.76346">
        <ele>34.5</ele>
        <time>2024-05-10T07:12:45Z</time>
      </trkpt>
      <trkpt lat="43.23537" lon="2.76352">
        <ele>34.8</ele>
        <time>2024-05-10T07:12:46Z</time>
      </trkpt>
      <trkpt lat="43.23533" lon="2.76357">
        <ele>35.3</ele>
        <time>2024-05-10T07:12:47Z</time>
      </trkpt>
      <trkpt lat="43.2353" lon="2.76361">
        <ele>35.8</ele>
        <time>2024-05-10T07:12:48Z</time>
      </trkpt>
      <trkpt lat="43.23528" lon="2.76364">
        <ele>36.1</ele>
        <time>2024-05-10T07:12:49Z</time>
      </trkpt>
      <trkpt lat="43.23527" lon="2.76365">
        <ele>36.1</ele>
        <time>2024-05-10T07:12:50Z</time>
      </trkpt>
      <trkpt lat="43.23527" lon="2.76365">
        <ele>36.1</ele>
        <time>2024-05-10T07:12:51Z</time>
      </trkpt>
      <trkpt lat="43.23527" lon="2.76365">
        <ele>36.1</ele>
        <time>2024-05-10T07:12:52Z</time>
      </trkpt>
      <trkpt lat="43.23527" lon="2.76366">
        <ele>36.2</ele>
        <time>2024-05-10T07:12:53Z</time>
      </trkpt>
      <trkpt lat="43.23527" lon="2.76366">
        <ele>36.2</ele>
        <time>2024-05-10T07:12:54Z</time>
      </trkpt>
      <trkpt lat="43.23527" lon="2.76366">
        <ele>36.2</ele>
        <time>2024-05-10T07:12:55Z</time>
      </trkpt>
      <trkpt lat="43.23527" lon="2.76366">
        <ele>36.2</ele>
        <time>2024-05-10T07:12:56Z</time>
      </trkpt>
      <trkpt lat="43.23525" lon="2.76368">
        <ele>36.2</ele>
        <time>2024-05-10T07:12:57Z</time>
      </trkpt>
      <trkpt lat="43.2352" lon="2.7637">
        <ele>36.2</ele>
        <time>2024-05-10T07:12:58Z</time>
      </trkpt>
      <trkpt lat="43.23515" lon="2.76373">
        <ele>36.2</ele>
        <time>2024-05-10T07:12:59Z</time>
      </trkpt>
      <trkpt lat="43.23509" lon="2.7638">
        <ele>36.2</ele>
        <time>2024-05-10T07:13:00Z</time>
      </trkpt>
      <trkpt lat="43.23506" lon="2.76388">
        <ele>36.2</ele>
        <time>2024-05-10T07:13:01Z</time>
      </trkpt>
      <trkpt lat="43.23506" lon="2.764">
        <ele>36.1</ele>
        <time>2024-05-10T07:13:02Z</time>
      </trkpt>
      <trkpt lat="43.23509" lon="2.76413">
        <ele>36</ele>
        <time>2024-05-10T07:13:03Z</time>
      </trkpt>
      <trkpt lat="43.23513" lon="2.76427">
        <ele>35.2</ele>
        <time>2024-05-10T07:13:04Z</time>
      </trkpt>
      <trkpt lat="43.23516" lon="2.76441">
        <ele>34.4</ele>
        <time>2024-05-10T07:13:05Z</time>
      </trkpt>
      <trkpt lat="43.23516" lon="2.76458">
        <ele>33.6</ele>
        <time>2024-05-10T07:13:06Z</time>
      </trkpt>
      <trkpt lat="43.23512" lon="2.76477">
        <ele>33.1</ele>
        <time>2024-05-10T07:13:07Z</time>
      </trkpt>
      <trkpt lat="43.23507" lon="2.76498">
        <ele>33.7</ele>
        <time>2024-05-10T07:13:08Z</time>
      </trkpt>
      <trkpt lat="43.23498" lon="2.76521">
        <ele>33.9</ele>
        <time>2024-05-10T07:13:09Z</time>
      </trkpt>
      <trkpt lat="43.23487" lon="2.76547">
        <ele>33.2</ele>
        <time>2024-05-10T07:13:10Z</time>
      </trkpt>
      <trkpt lat="43.23477" lon="2.76573">
        <ele>33</ele>
        <time>2024-05-10T07:13:11Z</time>
      </trkpt>
      <trkpt lat="43.23466" lon="2.76599">
        <ele>33</ele>
        <time>2024-05-10T07:13:12Z</time>
      </trkpt>
      <trkpt lat="43.23455" lon="2.76627">
        <ele>33</ele>
        <time>2024-05-10T07:13:13Z</time>
      </trkpt>
      <trkpt lat="43.23443" lon="2.76656">
        <ele>33</ele>
        <time>2024-05-10T07:13:14Z</time>
      </trkpt>
      <trkpt lat="43.23432" lon="2.76686">
        <ele>33</ele>
        <time>2024-05-10T07:13:15Z</time>
      </trkpt>
      <trkpt lat="43.23419" lon="2.76717">
        <ele>33</ele>
        <time>2024-05-10T07:13:16Z</time>
      </trkpt>
      <trkpt lat="43.23407" lon="2.76748">
        <ele>33</ele>
        <time>2024-05-10T07:13:17Z</time>
      </trkpt>
      <trkpt lat="43.23394" lon="2.7678">
        <ele>33</ele>
        <time>2024-05-10T07:13:18Z</time>
      </trkpt>
      <trkpt lat="43.2338" lon="2.76814">
        <ele>33</ele>
        <time>2024-05-10T07:13:19Z</time>
      </trkpt>
      <trkpt lat="43.23367" lon="2.76847">
        <ele>33</ele>
        <time>2024-05-10T07:13:20Z</time>
      </trkpt>
      <trkpt lat="43.23353" lon="2.7688">
        <ele>33</ele>
        <time>2024-05-10T07:13:21Z</time>
      </trkpt>
      <trkpt lat="43.23339" lon="2.76915">
        <ele>33</ele>
        <time>2024-05-10T07:13:22Z</time>
      </trkpt>
      <trkpt lat="43.23325" lon="2.76951">
        <ele>33</ele>
        <time>2024-05-10T07:13:23Z</time>
      </trkpt>
      <trkpt lat="43.23312" lon="2.76986">
        <ele>33</ele>
        <time>2024-05-10T07:13:24Z</time>
      </trkpt>
      <trkpt lat="43.23298" lon="2.77019">
        <ele>33</ele>
        <time>2024-05-10T07:13:25Z</time>
      </trkpt>
      <trkpt lat="43.23284" lon="2.77051">
        <ele>32.8</ele>
        <time>2024-05-10T07:13:26Z</time>
      </trkpt>
      <trkpt lat="43.23271" lon="2.77082">
        <ele>32.3</ele>
        <time>2024-05-10T07:13:27Z</time>
      </trkpt>
      <trkpt lat="43.23259" lon="2.7711">
        <ele>32.7</ele>
        <time>2024-05-10T07:13:28Z</time>
      </trkpt>
      <trkpt lat="43.23249" lon="2.77138">
        <ele>33</ele>
        <time>2024-05-10T07:13:29Z</time>
      </trkpt>
      <trkpt lat="43.23241" lon="2.77164">
        <ele>32.1</ele>
        <time>2024-05-10T07:13:30Z</time>
      </trkpt>
      <trkpt lat="43.23237" lon="2.77192">
        <ele>32</ele>
        <time>2024-05-10T07:13:31Z</time>
      </trkpt>
      <trkpt lat="43.23237" lon="2.77222">
        <ele>32.5</ele>
        <time>2024-05-10T07:13:32Z</time>
      </trkpt>
      <trkpt lat="43.23237" lon="2.77254">
        <ele>31.9</ele>
        <time>2024-05-10T07:13:33Z</time>
      </trkpt>
      <trkpt lat="43.23236" lon="2.77288">
        <ele>32.2</ele>
        <time>2024-05-10T07:13:34Z</time>
      </trkpt>
      <trkpt lat="43.23236" lon="2.77324">
        <ele>32.5</ele>
        <time>2024-05-10T07:13:35Z</time>
      </trkpt>
      <trkpt lat="43.23235" lon="2.7736">
        <ele>32</ele>
        <time>2024-05-10T07:13:36Z</time>
      </trkpt>
      <trkpt lat="43.23235" lon="2.77396">
        <ele>32.4</ele>
        <time>2024-05-10T07:13:37Z</time>
      </trkpt>
      <trkpt lat="43.23235" lon="2.77432">
        <ele>32.3</ele>
        <time>2024-05-10T07:13:38Z</time>
      </trkpt>
      <trkpt lat="43.23234" lon="2.77469">
        <ele>32.1</ele>
        <time>2024-05-10T07:13:39Z</time>
      </trkpt>
      <trkpt lat="43.23233" lon="2.77506">
        <ele>32</ele>
        <time>2024-05-10T07:13:40Z</time>
      </trkpt>
      <trkpt lat="43.23232" lon="2.77541">
        <ele>32</ele>
        <time>2024-05-10T07:13:41Z</time>
      </trkpt>
      <trkpt lat="43.23231" lon="2.77575">
        <ele>32</ele>
        <time>2024-05-10T07:13:42Z</time>
      </trkpt>
      <trkpt lat="43.2323" lon="2.77608">
        <ele>32</ele>
        <time>2024-05-10T07:13:43Z</time>
      </trkpt>
      <trkpt lat="43.2323" lon="2.77639">
        <ele>32</ele>
        <time>2024-05-10T07:13:44Z</time>
      </trkpt>
      <trkpt lat="43.2323" lon="2.77671">
        <ele>32</ele>
        <time>2024-05-10T07:13:45Z</time>
      </trkpt>
      <trkpt lat="43.23229" lon="2.77702">
        <ele>32</ele>
        <time>2024-05-10T07:13:46Z</time>
      </trkpt>
      <trkpt lat="43.23229" lon="2.77734">
        <ele>32</ele>
        <time>2024-05-10T07:13:47Z</time>
      </trkpt>
      <trkpt lat="43.23228" lon="2.77767">
        <ele>32</ele>
        <time>2024-05-10T07:13:48Z</time>
      </trkpt>
      <trkpt lat="43.23228" lon="2.77801">
        <ele>32</ele>
        <time>2024-05-10T07:13:49Z</time>
      </trkpt>
      <trkpt lat="43.23228" lon="2.77837">
        <ele>32</ele>
        <time>2024-05-10T07:13:50Z</time>
      </trkpt>
      <trkpt lat="43.23227" lon="2.77875">
        <ele>32</ele>
        <time>2024-05-10T07:13:51Z</time>
      </trkpt>
      <trkpt lat="43.23226" lon="2.77913">
        <ele>32</ele>
        <time>2024-05-10T07:13:52Z</time>
      </trkpt>
      <trkpt lat="43.23225" lon="2.7795">
        <ele>32</ele>
        <time>2024-05-10T07:13:53Z</time>
      </trkpt>
      <trkpt lat="43.23223" lon="2.77987">
        <ele>32</ele>
        <time>2024-05-10T07:13:54Z</time>
      </trkpt>
      <trkpt lat="43.23223" lon="2.78024">
        <ele>32</ele>
        <time>2024-05-10T07:13:55Z</time>
      </trkpt>
      <trkpt lat="43.23222" lon="2.7806">
        <ele>32</ele>
        <time>2024-05-10T07:13:56Z</time>
      </trkpt>
      <trkpt lat="43.23222" lon="2.78095">
        <ele>32.4</ele>
        <time>2024-05-10T07:13:57Z</time>
      </trkpt>
      <trkpt lat="43.23221" lon="2.7813">
        <ele>33</ele>
        <time>2024-05-10T07:13:58Z</time>
      </trkpt>
      <trkpt lat="43.2322" lon="2.78163">
        <ele>32.9</ele>
        <time>2024-05-10T07:13:59Z</time>
      </trkpt>
      <trkpt lat="43.23219" lon="2.78196">
        <ele>32.9</ele>
        <time>2024-05-10T07:14:00Z</time>
      </trkpt>
      <trkpt lat="43.23218" lon="2.78228">
        <ele>32.8</ele>
        <time>2024-05-10T07:14:01Z</time>
      </trkpt>
      <trkpt lat="43.23217" lon="2.78258">
        <ele>32.8</ele>
        <time>2024-05-10T07:14:02Z</time>
      </trkpt>
      <trkpt lat="43.23217" lon="2.78287">
        <ele>32.5</ele>
        <time>2024-05-10T07:14:03Z</time>
      </trkpt>
      <trkpt lat="43.23216" lon="2.78315">
        <ele>32.3</ele>
        <time>2024-05-10T07:14:04Z</time>
      </trkpt>
      <trkpt lat="43.23216" lon="2.7834">
        <ele>32.6</ele>
        <time>2024-05-10T07:14:05Z</time>
      </trkpt>
      <trkpt lat="43.23215" lon="2.78363">
        <ele>31.9</ele>
        <time>2024-05-10T07:14:06Z</time>
      </trkpt>
      <trkpt lat="43.23215" lon="2.78385">
        <ele>31.4</ele>
        <time>2024-05-10T07:14:07Z</time>
      </trkpt>
      <trkpt lat="43.23214" lon="2.78406">
        <ele>31.3</ele>
        <time>2024-05-10T07:14:08Z</time>
      </trkpt>
      <trkpt lat="43.23214" lon="2.78426">
        <ele>31.3</ele>
        <time>2024-05-10T07:14:09Z</time>
      </trkpt>
      <trkpt lat="43.23214" lon="2.78446">
        <ele>31.3</ele>
        <time>2024-05-10T07:14:10Z</time>
      </trkpt>
      <trkpt lat="43.23212" lon="2.78465">
        <ele>31.4</ele>
        <time>2024-05-10T07:14:11Z</time>
      </trkpt>
      <trkpt lat="43.23213" lon="2.78484">
        <ele>31.3</ele>
        <time>2024-05-10T07:14:12Z</time>
      </trkpt>
      <trkpt lat="43.23212" lon="2.78502">
        <ele>31.4</ele>
        <time>2024-05-10T07:14:13Z</time>
      </trkpt>
      <trkpt lat="43.23212" lon="2.78521">
        <ele>31.8</ele>
        <time>2024-05-10T07:14:14Z</time>
      </trkpt>
      <trkpt lat="43.23212" lon="2.78542">
        <ele>32</ele>
        <time>2024-05-10T07:14:15Z</time>
      </trkpt>
      <trkpt lat="43.23211" lon="2.78563">
        <ele>32</ele>
        <time>2024-05-10T07:14:16Z</time>
      </trkpt>
      <trkpt lat="43.23211" lon="2.78583">
        <ele>32</ele>
        <time>2024-05-10T07:14:17Z</time>
      </trkpt>
      <trkpt lat="43.2321" lon="2.78604">
        <ele>32.4</ele>
        <time>2024-05-10T07:14:18Z</time>
      </trkpt>
      <trkpt lat="43.2321" lon="2.78625">
        <ele>32.3</ele>
        <time>2024-05-10T07:14:19Z</time>
      </trkpt>
      <trkpt lat="43.23209" lon="2.78647">
        <ele>32</ele>
        <time>2024-05-10T07:14:20Z</time>
      </trkpt>
      <trkpt lat="43.23209" lon="2.78669">
        <ele>32</ele>
        <time>2024-05-10T07:14:21Z</time>
      </trkpt>
      <trkpt lat="43.23209" lon="2.7869">
        <ele>32.4</ele>
        <time>2024-05-10T07:14:22Z</time>
      </trkpt>
      <trkpt lat="43.23208" lon="2.78711">
        <ele>32.5</ele>
        <time>2024-05-10T07:14:23Z</time>
      </trkpt>
      <trkpt lat="43.23208" lon="2.78732">
        <ele>32.5</ele>
        <time>2024-05-10T07:14:24Z</time>
      </trkpt>
      <trkpt lat="43.23207" lon="2.78752">
        <ele>32.5</ele>
        <time>2024-05-10T07:14:25Z</time>
      </trkpt>
      <trkpt lat="43.23206" lon="2.78773">
        <ele>32.6</ele>
        <time>2024-05-10T07:14:26Z</time>
      </trkpt>
      <trkpt lat="43.23205" lon="2.78792">
        <ele>32.6</ele>
        <time>2024-05-10T07:14:27Z</time>
      </trkpt>
      <trkpt lat="43.23205" lon="2.78811">
        <ele>32.7</ele>
        <time>2024-05-10T07:14:28Z</time>
      </trkpt>
      <trkpt lat="43.23204" lon="2.78829">
        <ele>32.9</ele>
        <time>2024-05-10T07:14:29Z</time>
      </trkpt>
      <trkpt lat="43.23204" lon="2.78848">
        <ele>33.3</ele>
        <time>2024-05-10T07:14:30Z</time>
      </trkpt>
      <trkpt lat="43.23204" lon="2.78866">
        <ele>33.8</ele>
        <time>2024-05-10T07:14:31Z</time>
      </trkpt>
      <trkpt lat="43.23204" lon="2.78885">
        <ele>34.2</ele>
        <time>2024-05-10T07:14:32Z</time>
      </trkpt>
      <trkpt lat="43.23203" lon="2.78905">
        <ele>35</ele>
        <time>2024-05-10T07:14:33Z</time>
      </trkpt>
      <trkpt lat="43.23203" lon="2.78926">
        <ele>35.5</ele>
        <time>2024-05-10T07:14:34Z</time>
      </trkpt>
      <trkpt lat="43.23202" lon="2.78947">
        <ele>35.8</ele>
        <time>2024-05-10T07:14:35Z</time>
      </trkpt>
      <trkpt lat="43.232" lon="2.78968">
        <ele>36.6</ele>
        <time>2024-05-10T07:14:36Z</time>
      </trkpt>
      <trkpt lat="43.23196" lon="2.78989">
        <ele>37</ele>
        <time>2024-05-10T07:14:37Z</time>
      </trkpt>
      <trkpt lat="43.23191" lon="2.79011">
        <ele>37.3</ele>
        <time>2024-05-10T07:14:38Z</time>
      </trkpt>
      <trkpt lat="43.23184" lon="2.79034">
        <ele>37.6</ele>
        <time>2024-05-10T07:14:39Z</time>
      </trkpt>
      <trkpt lat="43.23177" lon="2.79058">
        <ele>37.4</ele>
        <time>2024-05-10T07:14:40Z</time>
      </trkpt>
      <trkpt lat="43.23169" lon="2.79084">
        <ele>38</ele>
        <time>2024-05-10T07:14:41Z</time>
      </trkpt>
      <trkpt lat="43.2316" lon="2.79112">
        <ele>37.7</ele>
        <time>2024-05-10T07:14:42Z</time>
      </trkpt>
      <trkpt lat="43.23151" lon="2.79142">
        <ele>37</ele>
        <time>2024-05-10T07:14:43Z</time>
      </trkpt>
      <trkpt lat="43.23142" lon="2.79172">
        <ele>37.2</ele>
        <time>2024-05-10T07:14:44Z</time>
      </trkpt>
      <trkpt lat="43.23133" lon="2.79202">
        <ele>37.6</ele>
        <time>2024-05-10T07:14:45Z</time>
      </trkpt>
      <trkpt lat="43.23125" lon="2.7923">
        <ele>37</ele>
        <time>2024-05-10T07:14:46Z</time>
      </trkpt>
      <trkpt lat="43.23117" lon="2.79256">
        <ele>37.2</ele>
        <time>2024-05-10T07:14:47Z</time>
      </trkpt>
      <trkpt lat="43.2311" lon="2.79278">
        <ele>38</ele>
        <time>2024-05-10T07:14:48Z</time>
      </trkpt>
      <trkpt lat="43.23104" lon="2.793">
        <ele>37.1</ele>
        <time>2024-05-10T07:14:49Z</time>
      </trkpt>
      <trkpt lat="43.23097" lon="2.7932">
        <ele>37</ele>
        <time>2024-05-10T07:14:50Z</time>
      </trkpt>
      <trkpt lat="43.23091" lon="2.79341">
        <ele>37.2</ele>
        <time>2024-05-10T07:14:51Z</time>
      </trkpt>
      <trkpt lat="43.23085" lon="2.79361">
        <ele>37.9</ele>
        <time>2024-05-10T07:14:52Z</time>
      </trkpt>
      <trkpt lat="43.2308" lon="2.7938">
        <ele>37.9</ele>
        <time>2024-05-10T07:14:53Z</time>
      </trkpt>
      <trkpt lat="43.23075" lon="2.79397">
        <ele>37.7</ele>
        <time>2024-05-10T07:14:54Z</time>
      </trkpt>
      <trkpt lat="43.2307" lon="2.79413">
        <ele>37.5</ele>
        <time>2024-05-10T07:14:55Z</time>
      </trkpt>
      <trkpt lat="43.23066" lon="2.79428">
        <ele>37.2</ele>
        <time>2024-05-10T07:14:56Z</time>
      </trkpt>
      <trkpt lat="43.23061" lon="2.79442">
        <ele>37</ele>
        <time>2024-05-10T07:14:57Z</time>
      </trkpt>
      <trkpt lat="43.23057" lon="2.79455">
        <ele>37</ele>
        <time>2024-05-10T07:14:58Z</time>
      </trkpt>
      <trkpt lat="43.23053" lon="2.79468">
        <ele>37</ele>
        <time>2024-05-10T07:14:59Z</time>
      </trkpt>
      <trkpt lat="43.23049" lon="2.79479">
        <ele>37.2</ele>
        <time>2024-05-10T07:15:00Z</time>
      </trkpt>
      <trkpt lat="43.23046" lon="2.79489">
        <ele>37.4</ele>
        <time>2024-05-10T07:15:01Z</time>
      </trkpt>
      <trkpt lat="43.23043" lon="2.79499">
        <ele>37.5</ele>
        <time>2024-05-10T07:15:02Z</time>
      </trkpt>
      <trkpt lat="43.23041" lon="2.79508">
        <ele>37.3</ele>
        <time>2024-05-10T07:15:03Z</time>
      </trkpt>
      <trkpt lat="43.23038" lon="2.79516">
        <ele>37.2</ele>
        <time>2024-05-10T07:15:04Z</time>
      </trkpt>
      <trkpt lat="43.23035" lon="2.79524">
        <ele>37</ele>
        <time>2024-05-10T07:15:05Z</time>
      </trkpt>
      <trkpt lat="43.23032" lon="2.79532">
        <ele>37</ele>
        <time>2024-05-10T07:15:06Z</time>
      </trkpt>
      <trkpt lat="43.23029" lon="2.79538">
        <ele>37</ele>
        <time>2024-05-10T07:15:07Z</time>
      </trkpt>
      <trkpt lat="43.23027" lon="2.79544">
        <ele>37</ele>
        <time>2024-05-10T07:15:08Z</time>
      </trkpt>
      <trkpt lat="43.23026" lon="2.79549">
        <ele>37</ele>
        <time>2024-05-10T07:15:09Z</time>
      </trkpt>
      <trkpt lat="43.23026" lon="2.79553">
        <ele>37</ele>
        <time>2024-05-10T07:15:10Z</time>
      </trkpt>
      <trkpt lat="43.23027" lon="2.79555">
        <ele>37</ele>
        <time>2024-05-10T07:15:11Z</time>
      </trkpt>
      <trkpt lat="43.23027" lon="2.79557">
        <ele>37</ele>
        <time>2024-05-10T07:15:12Z</time>
      </trkpt>
      <trkpt lat="43.23028" lon="2.79557">
        <ele>37</ele>
        <time>2024-05-10T07:15:13Z</time>
      </trkpt>
      <trkpt lat="43.23028" lon="2.79557">
        <ele>37</ele>
        <time>2024-05-10T07:15:14Z</time>
      </trkpt>
      <trkpt lat="43.23027" lon="2.79557">
        <ele>37</ele>
        <time>2024-05-10T07:15:15Z</time>
      </trkpt>
      <trkpt lat="43.23027" lon="2.79557">
        <ele>37</ele>
        <time>2024-05-10T07:15:16Z</time>
      </trkpt>
      <trkpt lat="43.23027" lon="2.79557">
        <ele>37</ele>
        <time>2024-05-10T07:15:17Z</time>
      </trkpt>
      <trkpt lat="43.23027" lon="2.79557">
        <ele>37</ele>
        <time>2024-05-10T07:15:18Z</time>
      </trkpt>
      <trkpt lat="43.23027" lon="2.79557">
        <ele>37</ele>
        <time>2024-05-10T07:15:19Z</time>
      </trkpt>
      <trkpt lat="43.23029" lon="2.79558">
        <ele>37</ele>
        <time>2024-05-10T07:15:20Z</time>
      </trkpt>
      <trkpt lat="43.23033" lon="2.79561">
        <ele>37</ele>
        <time>2024-05-10T07:15:21Z</time>
      </trkpt>
      <trkpt lat="43.2304" lon="2.79563">
        <ele>37</ele>
        <time>2024-05-10T07:15:22Z</time>
      </trkpt>
      <trkpt lat="43.23048" lon="2.79565">
        <ele>37</ele>
        <time>2024-05-10T07:15:23Z</time>
      </trkpt>
      <trkpt lat="43.23057" lon="2.79568">
        <ele>37</ele>
        <time>2024-05-10T07:15:24Z</time>
      </trkpt>
      <trkpt lat="43.23068" lon="2.79572">
        <ele>37</ele>
        <time>2024-05-10T07:15:25Z</time>
      </trkpt>
      <trkpt lat="43.23078" lon="2.79577">
        <ele>37</ele>
        <time>2024-05-10T07:15:26Z</time>
      </trkpt>
      <trkpt lat="43.23088" lon="2.79581">
        <ele>37</ele>
        <time>2024-05-10T07:15:27Z</time>
      </trkpt>
      <trkpt lat="43.231" lon="2.79586">
        <ele>37</ele>
        <time>2024-05-10T07:15:28Z</time>
      </trkpt>
      <trkpt lat="43.23112" lon="2.79591">
        <ele>37</ele>
        <time>2024-05-10T07:15:29Z</time>
      </trkpt>
      <trkpt lat="43.23124" lon="2.79597">
        <ele>37</ele>
        <time>2024-05-10T07:15:30Z</time>
      </trkpt>
      <trkpt lat="43.23134" lon="2.79602">
        <ele>37</ele>
        <time>2024-05-10T07:15:31Z</time>
      </trkpt>
      <trkpt lat="43.23145" lon="2.79608">
        <ele>37</ele>
        <time>2024-05-10T07:15:32Z</time>
      </trkpt>
      <trkpt lat="43.23155" lon="2.79613">
        <ele>37</ele>
        <time>2024-05-10T07:15:33Z</time>
      </trkpt>
      <trkpt lat="43.23166" lon="2.79618">
        <ele>37</ele>
        <time>2024-05-10T07:15:34Z</time>
      </trkpt>
      <trkpt lat="43.23178" lon="2.79623">
        <ele>37</ele>
        <time>2024-05-10T07:15:35Z</time>
      </trkpt>
      <trkpt lat="43.2319" lon="2.79629">
        <ele>37</ele>
        <time>2024-05-10T07:15:36Z</time>
      </trkpt>
      <trkpt lat="43.23202" lon="2.79634">
        <ele>36.8</ele>
        <time>2024-05-10T07:15:37Z</time>
      </trkpt>
      <trkpt lat="43.23214" lon="2.79639">
        <ele>36.3</ele>
        <time>2024-05-10T07:15:38Z</time>
      </trkpt>
      <trkpt lat="43.23225" lon="2.79644">
        <ele>36.2</ele>
        <time>2024-05-10T07:15:39Z</time>
      </trkpt>
      <trkpt lat="43.23236" lon="2.79649">
        <ele>36.5</ele>
        <time>2024-05-10T07:15:40Z</time>
      </trkpt>
      <trkpt lat="43.23247" lon="2.79653">
        <ele>36.5</ele>
        <time>2024-05-10T07:15:41Z</time>
      </trkpt>
      <trkpt lat="43.2326" lon="2.79659">
        <ele>36</ele>
        <time>2024-05-10T07:15:42Z</time>
      </trkpt>
      <trkpt lat="43.23272" lon="2.79665">
        <ele>35.3</ele>
        <time>2024-05-10T07:15:43Z</time>
      </trkpt>
      <trkpt lat="43.23285" lon="2.79672">
        <ele>35.1</ele>
        <time>2024-05-10T07:15:44Z</time>
      </trkpt>
      <trkpt lat="43.23299" lon="2.79678">
        <ele>35.1</ele>
        <time>2024-05-10T07:15:45Z</time>
      </trkpt>
      <trkpt lat="43.23315" lon="2.79685">
        <ele>34.7</ele>
        <time>2024-05-10T07:15:46Z</time>
      </trkpt>
      <trkpt lat="43.23329" lon="2.79692">
        <ele>34.2</ele>
        <time>2024-05-10T07:15:47Z</time>
      </trkpt>
      <trkpt lat="43.23343" lon="2.797">
        <ele>33.5</ele>
        <time>2024-05-10T07:15:48Z</time>
      </trkpt>
      <trkpt lat="43.23357" lon="2.79706">
        <ele>33.1</ele>
        <time>2024-05-10T07:15:49Z</time>
      </trkpt>
      <trkpt lat="43.23371" lon="2.79712">
        <ele>33</ele>
        <time>2024-05-10T07:15:50Z</time>
      </trkpt>
      <trkpt lat="43.23386" lon="2.79719">
        <ele>33</ele>
        <time>2024-05-10T07:15:51Z</time>
      </trkpt>
      <trkpt lat="43.23401" lon="2.79725">
        <ele>32.5</ele>
        <time>2024-05-10T07:15:52Z</time>
      </trkpt>
      <trkpt lat="43.23416" lon="2.79733">
        <ele>31.6</ele>
        <time>2024-05-10T07:15:53Z</time>
      </trkpt>
      <trkpt lat="43.23431" lon="2.79741">
        <ele>31.3</ele>
        <time>2024-05-10T07:15:54Z</time>
      </trkpt>
      <trkpt lat="43.23446" lon="2.79749">
        <ele>31.8</ele>
        <time>2024-05-10T07:15:55Z</time>
      </trkpt>
      <trkpt lat="43.23461" lon="2.79756">
        <ele>30.6</ele>
        <time>2024-05-10T07:15:56Z</time>
      </trkpt>
      <trkpt lat="43.23476" lon="2.79763">
        <ele>30.1</ele>
        <time>2024-05-10T07:15:57Z</time>
      </trkpt>
      <trkpt lat="43.2349" lon="2.79769">
        <ele>30.4</ele>
        <time>2024-05-10T07:15:58Z</time>
      </trkpt>
      <trkpt lat="43.23504" lon="2.79776">
        <ele>30.8</ele>
        <time>2024-05-10T07:15:59Z</time>
      </trkpt>
      <trkpt lat="43.23519" lon="2.79783">
        <ele>30.1</ele>
        <time>2024-05-10T07:16:00Z</time>
      </trkpt>
      <trkpt lat="43.23533" lon="2.79789">
        <ele>29.6</ele>
        <time>2024-05-10T07:16:01Z</time>
      </trkpt>
      <trkpt lat="43.23547" lon="2.79796">
        <ele>29.6</ele>
        <time>2024-05-10T07:16:02Z</time>
      </trkpt>
      <trkpt lat="43.23561" lon="2.79802">
        <ele>29.9</ele>
        <time>2024-05-10T07:16:03Z</time>
      </trkpt>
      <trkpt lat="43.23575" lon="2.79809">
        <ele>29.9</ele>
        <time>2024-05-10T07:16:04Z</time>
      </trkpt>
      <trkpt lat="43.23589" lon="2.79816">
        <ele>29.4</ele>
        <time>2024-05-10T07:16:05Z</time>
      </trkpt>
      <trkpt lat="43.23604" lon="2.79823">
        <ele>28.8</ele>
        <time>2024-05-10T07:16:06Z</time>
      </trkpt>
      <trkpt lat="43.23618" lon="2.7983">
        <ele>28.9</ele>
        <time>2024-05-10T07:16:07Z</time>
      </trkpt>
      <trkpt lat="43.23633" lon="2.79837">
        <ele>28.9</ele>
        <time>2024-05-10T07:16:08Z</time>
      </trkpt>
      <trkpt lat="43.23649" lon="2.79843">
        <ele>28.4</ele>
        <time>2024-05-10T07:16:09Z</time>
      </trkpt>
      <trkpt lat="43.23665" lon="2.79848">
        <ele>28</ele>
        <time>2024-05-10T07:16:10Z</time>
      </trkpt>
      <trkpt lat="43.23681" lon="2.79851">
        <ele>28</ele>
        <time>2024-05-10T07:16:11Z</time>
      </trkpt>
      <trkpt lat="43.23698" lon="2.79852">
        <ele>28</ele>
        <time>2024-05-10T07:16:12Z</time>
      </trkpt>
      <trkpt lat="43.23714" lon="2.79851">
        <ele>28</ele>
        <time>2024-05-10T07:16:13Z</time>
      </trkpt>
      <trkpt lat="43.2373" lon="2.79849">
        <ele>28</ele>
        <time>2024-05-10T07:16:14Z</time>
      </trkpt>
      <trkpt lat="43.23745" lon="2.79846">
        <ele>28</ele>
        <time>2024-05-10T07:16:15Z</time>
      </trkpt>
      <trkpt lat="43.23759" lon="2.79844">
        <ele>28.6</ele>
        <time>2024-05-10T07:16:16Z</time>
      </trkpt>
      <trkpt lat="43.23773" lon="2.79841">
        <ele>29.8</ele>
        <time>2024-05-10T07:16:17Z</time>
      </trkpt>
      <trkpt lat="43.23785" lon="2.79839">
        <ele>29.4</ele>
        <time>2024-05-10T07:16:18Z</time>
      </trkpt>
      <trkpt lat="43.23797" lon="2.79836">
        <ele>27.6</ele>
        <time>2024-05-10T07:16:19Z</time>
      </trkpt>
      <trkpt lat="43.23809" lon="2.79834">
        <ele>25.4</ele>
        <time>2024-05-10T07:16:20Z</time>
      </trkpt>
      <trkpt lat="43.2382" lon="2.79832">
        <ele>23.4</ele>
        <time>2024-05-10T07:16:21Z</time>
      </trkpt>
      <trkpt lat="43.23829" lon="2.79831">
        <ele>21.8</ele>
        <time>2024-05-10T07:16:22Z</time>
      </trkpt>
      <trkpt lat="43.23837" lon="2.79829">
        <ele>21</ele>
        <time>2024-05-10T07:16:23Z</time>
      </trkpt>
      <trkpt lat="43.23844" lon="2.79828">
        <ele>21.1</ele>
        <time>2024-05-10T07:16:24Z</time>
      </trkpt>
      <trkpt lat="43.23851" lon="2.79827">
        <ele>21.1</ele>
        <time>2024-05-10T07:16:25Z</time>
      </trkpt>
      <trkpt lat="43.23859" lon="2.79826">
        <ele>21.2</ele>
        <time>2024-05-10T07:16:26Z</time>
      </trkpt>
      <trkpt lat="43.23866" lon="2.79825">
        <ele>22.3</ele>
        <time>2024-05-10T07:16:27Z</time>
      </trkpt>
      <trkpt lat="43.23874" lon="2.79823">
        <ele>24</ele>
        <time>2024-05-10T07:16:28Z</time>
      </trkpt>
      <trkpt lat="43.23882" lon="2.79822">
        <ele>25.6</ele>
        <time>2024-05-10T07:16:29Z</time>
      </trkpt>
      <trkpt lat="43.2389" lon="2.79821">
        <ele>27.1</ele>
        <time>2024-05-10T07:16:30Z</time>
      </trkpt>
      <trkpt lat="43.23899" lon="2.7982">
        <ele>27.9</ele>
        <time>2024-05-10T07:16:31Z</time>
      </trkpt>
      <trkpt lat="43.23909" lon="2.79819">
        <ele>28.8</ele>
        <time>2024-05-10T07:16:32Z</time>
      </trkpt>
      <trkpt lat="43.2392" lon="2.79819">
        <ele>29.4</ele>
        <time>2024-05-10T07:16:33Z</time>
      </trkpt>
      <trkpt lat="43.23931" lon="2.79819">
        <ele>29</ele>
        <time>2024-05-10T07:16:34Z</time>
      </trkpt>
      <trkpt lat="43.23945" lon="2.79821">
        <ele>28.4</ele>
        <time>2024-05-10T07:16:35Z</time>
      </trkpt>
      <trkpt lat="43.23959" lon="2.79825">
        <ele>28.5</ele>
        <time>2024-05-10T07:16:36Z</time>
      </trkpt>
      <trkpt lat="43.23974" lon="2.7983">
        <ele>28.9</ele>
        <time>2024-05-10T07:16:37Z</time>
      </trkpt>
      <trkpt lat="43.23989" lon="2.79836">
        <ele>28.9</ele>
        <time>2024-05-10T07:16:38Z</time>
      </trkpt>
      <trkpt lat="43.24004" lon="2.79842">
        <ele>28.7</ele>
        <time>2024-05-10T07:16:39Z</time>
      </trkpt>
      <trkpt lat="43.24019" lon="2.79849">
        <ele>28.8</ele>
        <time>2024-05-10T07:16:40Z</time>
      </trkpt>
      <trkpt lat="43.24034" lon="2.79857">
        <ele>29.2</ele>
        <time>2024-05-10T07:16:41Z</time>
      </trkpt>
      <trkpt lat="43.24049" lon="2.79868">
        <ele>29.5</ele>
        <time>2024-05-10T07:16:42Z</time>
      </trkpt>
      <trkpt lat="43.24062" lon="2.79881">
        <ele>29.7</ele>
        <time>2024-05-10T07:16:43Z</time>
      </trkpt>
      <trkpt lat="43.24075" lon="2.79895">
        <ele>30.4</ele>
        <time>2024-05-10T07:16:44Z</time>
      </trkpt>
      <trkpt lat="43.24089" lon="2.79909">
        <ele>31.1</ele>
        <time>2024-05-10T07:16:45Z</time>
      </trkpt>
      <trkpt lat="43.24102" lon="2.79922">
        <ele>30.9</ele>
        <time>2024-05-10T07:16:46Z</time>
      </trkpt>
      <trkpt lat="43.24116" lon="2.79935">
        <ele>31.1</ele>
        <time>2024-05-10T07:16:47Z</time>
      </trkpt>
      <trkpt lat="43.24129" lon="2.79946">
        <ele>31</ele>
        <time>2024-05-10T07:16:48Z</time>
      </trkpt>
      <trkpt lat="43.24144" lon="2.79956">
        <ele>31</ele>
        <time>2024-05-10T07:16:49Z</time>
      </trkpt>
      <trkpt lat="43.24159" lon="2.79961">
        <ele>31</ele>
        <time>2024-05-10T07:16:50Z</time>
      </trkpt>
      <trkpt lat="43.24175" lon="2.79964">
        <ele>31.2</ele>
        <time>2024-05-10T07:16:51Z</time>
      </trkpt>
      <trkpt lat="43.24192" lon="2.79965">
        <ele>31.7</ele>
        <time>2024-05-10T07:16:52Z</time>
      </trkpt>
      <trkpt lat="43.24208" lon="2.79967">
        <ele>31.8</ele>
        <time>2024-05-10T07:16:53Z</time>
      </trkpt>
      <trkpt lat="43.24226" lon="2.79969">
        <ele>31.9</ele>
        <time>2024-05-10T07:16:54Z</time>
      </trkpt>
      <trkpt lat="43.24242" lon="2.7997">
        <ele>32</ele>
        <time>2024-05-10T07:16:55Z</time>
      </trkpt>
      <trkpt lat="43.24259" lon="2.79972">
        <ele>32.3</ele>
        <time>2024-05-10T07:16:56Z</time>
      </trkpt>
      <trkpt lat="43.24274" lon="2.79977">
        <ele>32.5</ele>
        <time>2024-05-10T07:16:57Z</time>
      </trkpt>
      <trkpt lat="43.24288" lon="2.79985">
        <ele>32.2</ele>
        <time>2024-05-10T07:16:58Z</time>
      </trkpt>
      <trkpt lat="43.243" lon="2.79995">
        <ele>32.5</ele>
        <time>2024-05-10T07:16:59Z</time>
      </trkpt>
      <trkpt lat="43.24312" lon="2.80006">
        <ele>32.5</ele>
        <time>2024-05-10T07:17:00Z</time>
      </trkpt>
      <trkpt lat="43.24325" lon="2.80019">
        <ele>32.4</ele>
        <time>2024-05-10T07:17:01Z</time>
      </trkpt>
      <trkpt lat="43.24337" lon="2.80032">
        <ele>32.6</ele>
        <time>2024-05-10T07:17:02Z</time>
      </trkpt>
      <trkpt lat="43.2435" lon="2.80045">
        <ele>32.3</ele>
        <time>2024-05-10T07:17:03Z</time>
      </trkpt>
      <trkpt lat="43.24362" lon="2.80058">
        <ele>32.8</ele>
        <time>2024-05-10T07:17:04Z</time>
      </trkpt>
      <trkpt lat="43.24374" lon="2.8007">
        <ele>32.2</ele>
        <time>2024-05-10T07:17:05Z</time>
      </trkpt>
      <trkpt lat="43.24385" lon="2.80082">
        <ele>32.7</ele>
        <time>2024-05-10T07:17:06Z</time>
      </trkpt>
      <trkpt lat="43.24398" lon="2.80094">
        <ele>32.3</ele>
        <time>2024-05-10T07:17:07Z</time>
      </trkpt>
      <trkpt lat="43.24411" lon="2.80105">
        <ele>32.5</ele>
        <time>2024-05-10T07:17:08Z</time>
      </trkpt>
      <trkpt lat="43.24425" lon="2.80115">
        <ele>32.4</ele>
        <time>2024-05-10T07:17:09Z</time>
      </trkpt>
      <trkpt lat="43.24439" lon="2.80124">
        <ele>31.6</ele>
        <time>2024-05-10T07:17:10Z</time>
      </trkpt>
      <trkpt lat="43.24453" lon="2.80132">
        <ele>31.7</ele>
        <time>2024-05-10T07:17:11Z</time>
      </trkpt>
      <trkpt lat="43.24466" lon="2.8014">
        <ele>32.5</ele>
        <time>2024-05-10T07:17:12Z</time>
      </trkpt>
      <trkpt lat="43.24478" lon="2.80148">
        <ele>32.3</ele>
        <time>2024-05-10T07:17:13Z</time>
      </trkpt>
      <trkpt lat="43.2449" lon="2.80156">
        <ele>32.3</ele>
        <time>2024-05-10T07:17:14Z</time>
      </trkpt>
      <trkpt lat="43.24501" lon="2.80163">
        <ele>32.8</ele>
        <time>2024-05-10T07:17:15Z</time>
      </trkpt>
      <trkpt lat="43.24512" lon="2.8017">
        <ele>32.4</ele>
        <time>2024-05-10T07:17:16Z</time>
      </trkpt>
      <trkpt lat="43.24522" lon="2.80177">
        <ele>32.1</ele>
        <time>2024-05-10T07:17:17Z</time>
      </trkpt>
      <trkpt lat="43.24531" lon="2.80184">
        <ele>32</ele>
        <time>2024-05-10T07:17:18Z</time>
      </trkpt>
      <trkpt lat="43.2454" lon="2.80191">
        <ele>32</ele>
        <time>2024-05-10T07:17:19Z</time>
      </trkpt>
      <trkpt lat="43.24548" lon="2.802">
        <ele>31.9</ele>
        <time>2024-05-10T07:17:20Z</time>
      </trkpt>
      <trkpt lat="43.24555" lon="2.80209">
        <ele>32</ele>
        <time>2024-05-10T07:17:21Z</time>
      </trkpt>
      <trkpt lat="43.24562" lon="2.80218">
        <ele>32</ele>
        <time>2024-05-10T07:17:22Z</time>
      </trkpt>
      <trkpt lat="43.24567" lon="2.80227">
        <ele>32</ele>
        <time>2024-05-10T07:17:23Z</time>
      </trkpt>
      <trkpt lat="43.24573" lon="2.80235">
        <ele>32.4</ele>
        <time>2024-05-10T07:17:24Z</time>
      </trkpt>
      <trkpt lat="43.24578" lon="2.80244">
        <ele>33.1</ele>
        <time>2024-05-10T07:17:25Z</time>
      </trkpt>
      <trkpt lat="43.24583" lon="2.80251">
        <ele>33.9</ele>
        <time>2024-05-10T07:17:26Z</time>
      </trkpt>
      <trkpt lat="43.24588" lon="2.80259">
        <ele>32.9</ele>
        <time>2024-05-10T07:17:27Z</time>
      </trkpt>
      <trkpt lat="43.24592" lon="2.80266">
        <ele>32.2</ele>
        <time>2024-05-10T07:17:28Z</time>
      </trkpt>
      <trkpt lat="43.24596" lon="2.80273">
        <ele>31.7</ele>
        <time>2024-05-10T07:17:29Z</time>
      </trkpt>
      <trkpt lat="43.246" lon="2.80279">
        <ele>31.6</ele>
        <time>2024-05-10T07:17:30Z</time>
      </trkpt>
      <trkpt lat="43.24603" lon="2.80285">
        <ele>31.9</ele>
        <time>2024-05-10T07:17:31Z</time>
      </trkpt>
      <trkpt lat="43.24606" lon="2.80292">
        <ele>32.2</ele>
        <time>2024-05-10T07:17:32Z</time>
      </trkpt>
      <trkpt lat="43.2461" lon="2.80299">
        <ele>32.7</ele>
        <time>2024-05-10T07:17:33Z</time>
      </trkpt>
      <trkpt lat="43.24613" lon="2.80307">
        <ele>32.8</ele>
        <time>2024-05-10T07:17:34Z</time>
      </trkpt>
      <trkpt lat="43.24617" lon="2.80316">
        <ele>32.4</ele>
        <time>2024-05-10T07:17:35Z</time>
      </trkpt>
      <trkpt lat="43.24621" lon="2.80325">
        <ele>32.2</ele>
        <time>2024-05-10T07:17:36Z</time>
      </trkpt>
      <trkpt lat="43.24626" lon="2.80332">
        <ele>32.6</ele>
        <time>2024-05-10T07:17:37Z</time>
      </trkpt>
      <trkpt lat="43.24633" lon="2.80339">
        <ele>33.1</ele>
        <time>2024-05-10T07:17:38Z</time>
      </trkpt>
      <trkpt lat="43.24639" lon="2.80343">
        <ele>33.3</ele>
        <time>2024-05-10T07:17:39Z</time>
      </trkpt>
      <trkpt lat="43.24646" lon="2.80347">
        <ele>33</ele>
        <time>2024-05-10T07:17:40Z</time>
      </trkpt>
      <trkpt lat="43.24653" lon="2.80353">
        <ele>33</ele>
        <time>2024-05-10T07:17:41Z</time>
      </trkpt>
      <trkpt lat="43.2466" lon="2.80358">
        <ele>33.4</ele>
        <time>2024-05-10T07:17:42Z</time>
      </trkpt>
      <trkpt lat="43.24668" lon="2.80364">
        <ele>33.8</ele>
        <time>2024-05-10T07:17:43Z</time>
      </trkpt>
      <trkpt lat="43.24676" lon="2.8037">
        <ele>33.3</ele>
        <time>2024-05-10T07:17:44Z</time>
      </trkpt>
      <trkpt lat="43.24683" lon="2.80376">
        <ele>33.3</ele>
        <time>2024-05-10T07:17:45Z</time>
      </trkpt>
      <trkpt lat="43.2469" lon="2.80381">
        <ele>33.5</ele>
        <time>2024-05-10T07:17:46Z</time>
      </trkpt>
      <trkpt lat="43.24697" lon="2.80387">
        <ele>33.8</ele>
        <time>2024-05-10T07:17:47Z</time>
      </trkpt>
      <trkpt lat="43.24703" lon="2.80393">
        <ele>33.5</ele>
        <time>2024-05-10T07:17:48Z</time>
      </trkpt>
      <trkpt lat="43.24709" lon="2.80399">
        <ele>33.1</ele>
        <time>2024-05-10T07:17:49Z</time>
      </trkpt>
      <trkpt lat="43.24715" lon="2.80406">
        <ele>32.9</ele>
        <time>2024-05-10T07:17:50Z</time>
      </trkpt>
      <trkpt lat="43.24721" lon="2.80414">
        <ele>33</ele>
        <time>2024-05-10T07:17:51Z</time>
      </trkpt>
      <trkpt lat="43.24728" lon="2.80423">
        <ele>32.7</ele>
        <time>2024-05-10T07:17:52Z</time>
      </trkpt>
      <trkpt lat="43.24735" lon="2.80434">
        <ele>32.5</ele>
        <time>2024-05-10T07:17:53Z</time>
      </trkpt>
      <trkpt lat="43.24742" lon="2.80445">
        <ele>32.7</ele>
        <time>2024-05-10T07:17:54Z</time>
      </trkpt>
      <trkpt lat="43.2475" lon="2.80458">
        <ele>32.5</ele>
        <time>2024-05-10T07:17:55Z</time>
      </trkpt>
      <trkpt lat="43.24758" lon="2.80471">
        <ele>32</ele>
        <time>2024-05-10T07:17:56Z</time>
      </trkpt>
      <trkpt lat="43.24767" lon="2.80485">
        <ele>32.1</ele>
        <time>2024-05-10T07:17:57Z</time>
      </trkpt>
      <trkpt lat="43.24776" lon="2.80499">
        <ele>32.8</ele>
        <time>2024-05-10T07:17:58Z</time>
      </trkpt>
      <trkpt lat="43.24786" lon="2.80515">
        <ele>32.5</ele>
        <time>2024-05-10T07:17:59Z</time>
      </trkpt>
      <trkpt lat="43.24796" lon="2.80532">
        <ele>32.6</ele>
        <time>2024-05-10T07:18:00Z</time>
      </trkpt>
      <trkpt lat="43.24806" lon="2.80548">
        <ele>33</ele>
        <time>2024-05-10T07:18:01Z</time>
      </trkpt>
      <trkpt lat="43.24815" lon="2.80564">
        <ele>32.6</ele>
        <time>2024-05-10T07:18:02Z</time>
      </trkpt>
      <trkpt lat="43.24825" lon="2.8058">
        <ele>32.7</ele>
        <time>2024-05-10T07:18:03Z</time>
      </trkpt>
      <trkpt lat="43.24835" lon="2.80594">
        <ele>32.6</ele>
        <time>2024-05-10T07:18:04Z</time>
      </trkpt>
      <trkpt lat="43.24845" lon="2.80609">
        <ele>32</ele>
        <time>2024-05-10T07:18:05Z</time>
      </trkpt>
      <trkpt lat="43.24856" lon="2.80623">
        <ele>32.3</ele>
        <time>2024-05-10T07:18:06Z</time>
      </trkpt>
      <trkpt lat="43.24867" lon="2.8064">
        <ele>32.8</ele>
        <time>2024-05-10T07:18:07Z</time>
      </trkpt>
      <trkpt lat="43.2488" lon="2.80657">
        <ele>32.6</ele>
        <time>2024-05-10T07:18:08Z</time>
      </trkpt>
      <trkpt lat="43.24893" lon="2.80676">
        <ele>32.6</ele>
        <time>2024-05-10T07:18:09Z</time>
      </trkpt>
      <trkpt lat="43.24907" lon="2.80696">
        <ele>32</ele>
        <time>2024-05-10T07:18:10Z</time>
      </trkpt>
      <trkpt lat="43.24922" lon="2.80718">
        <ele>32</ele>
        <time>2024-05-10T07:18:11Z</time>
      </trkpt>
      <trkpt lat="43.24937" lon="2.8074">
        <ele>31.8</ele>
        <time>2024-05-10T07:18:12Z</time>
      </trkpt>
      <trkpt lat="43.24953" lon="2.80764">
        <ele>31.8</ele>
        <time>2024-05-10T07:18:13Z</time>
      </trkpt>
      <trkpt lat="43.24967" lon="2.80787">
        <ele>32.4</ele>
        <time>2024-05-10T07:18:14Z</time>
      </trkpt>
      <trkpt lat="43.24979" lon="2.80811">
        <ele>31.9</ele>
        <time>2024-05-10T07:18:15Z</time>
      </trkpt>
      <trkpt lat="43.2499" lon="2.80836">
        <ele>32.2</ele>
        <time>2024-05-10T07:18:16Z</time>
      </trkpt>
      <trkpt lat="43.24999" lon="2.80862">
        <ele>32</ele>
        <time>2024-05-10T07:18:17Z</time>
      </trkpt>
      <trkpt lat="43.25005" lon="2.80888">
        <ele>32</ele>
        <time>2024-05-10T07:18:18Z</time>
      </trkpt>
      <trkpt lat="43.25011" lon="2.80914">
        <ele>31.5</ele>
        <time>2024-05-10T07:18:19Z</time>
      </trkpt>
      <trkpt lat="43.25017" lon="2.80939">
        <ele>32.1</ele>
        <time>2024-05-10T07:18:20Z</time>
      </trkpt>
      <trkpt lat="43.25024" lon="2.80963">
        <ele>32.2</ele>
        <time>2024-05-10T07:18:21Z</time>
      </trkpt>
      <trkpt lat="43.2503" lon="2.80987">
        <ele>32</ele>
        <time>2024-05-10T07:18:22Z</time>
      </trkpt>
      <trkpt lat="43.25037" lon="2.81011">
        <ele>31.7</ele>
        <time>2024-05-10T07:18:23Z</time>
      </trkpt>
      <trkpt lat="43.25043" lon="2.81035">
        <ele>31.6</ele>
        <time>2024-05-10T07:18:24Z</time>
      </trkpt>
      <trkpt lat="43.2505" lon="2.81059">
        <ele>32.3</ele>
        <time>2024-05-10T07:18:25Z</time>
      </trkpt>
      <trkpt lat="43.25057" lon="2.81082">
        <ele>32</ele>
        <time>2024-05-10T07:18:26Z</time>
      </trkpt>
      <trkpt lat="43.25065" lon="2.81104">
        <ele>31.5</ele>
        <time>2024-05-10T07:18:27Z</time>
      </trkpt>
      <trkpt lat="43.25071" lon="2.81126">
        <ele>31.9</ele>
        <time>2024-05-10T07:18:28Z</time>
      </trkpt>
      <trkpt lat="43.25077" lon="2.81145">
        <ele>32.6</ele>
        <time>2024-05-10T07:18:29Z</time>
      </trkpt>
      <trkpt lat="43.25081" lon="2.81164">
        <ele>32.9</ele>
        <time>2024-05-10T07:18:30Z</time>
      </trkpt>
      <trkpt lat="43.25082" lon="2.81183">
        <ele>32.4</ele>
        <time>2024-05-10T07:18:31Z</time>
      </trkpt>
      <trkpt lat="43.2508" lon="2.81201">
        <ele>32</ele>
        <time>2024-05-10T07:18:32Z</time>
      </trkpt>
      <trkpt lat="43.25077" lon="2.81219">
        <ele>31.8</ele>
        <time>2024-05-10T07:18:33Z</time>
      </trkpt>
      <trkpt lat="43.25072" lon="2.81236">
        <ele>31.6</ele>
        <time>2024-05-10T07:18:34Z</time>
      </trkpt>
      <trkpt lat="43.25067" lon="2.81254">
        <ele>31.4</ele>
        <time>2024-05-10T07:18:35Z</time>
      </trkpt>
      <trkpt lat="43.25062" lon="2.81274">
        <ele>31.2</ele>
        <time>2024-05-10T07:18:36Z</time>
      </trkpt>
      <trkpt lat="43.25058" lon="2.81294">
        <ele>31.1</ele>
        <time>2024-05-10T07:18:37Z</time>
      </trkpt>
      <trkpt lat="43.25055" lon="2.81316">
        <ele>31</ele>
        <time>2024-05-10T07:18:38Z</time>
      </trkpt>
      <trkpt lat="43.25055" lon="2.81338">
        <ele>31</ele>
        <time>2024-05-10T07:18:39Z</time>
      </trkpt>
      <trkpt lat="43.25056" lon="2.81361">
        <ele>31</ele>
        <time>2024-05-10T07:18:40Z</time>
      </trkpt>
      <trkpt lat="43.25057" lon="2.81385">
        <ele>31.1</ele>
        <time>2024-05-10T07:18:41Z</time>
      </trkpt>
      <trkpt lat="43.25059" lon="2.81409">
        <ele>31.1</ele>
        <time>2024-05-10T07:18:42Z</time>
      </trkpt>
      <trkpt lat="43.25061" lon="2.81434">
        <ele>31.2</ele>
        <time>2024-05-10T07:18:43Z</time>
      </trkpt>
      <trkpt lat="43.25063" lon="2.81458">
        <ele>30.9</ele>
        <time>2024-05-10T07:18:44Z</time>
      </trkpt>
      <trkpt lat="43.25066" lon="2.81482">
        <ele>30.6</ele>
        <time>2024-05-10T07:18:45Z</time>
      </trkpt>
      <trkpt lat="43.25071" lon="2.81506">
        <ele>30.6</ele>
        <time>2024-05-10T07:18:46Z</time>
      </trkpt>
      <trkpt lat="43.25077" lon="2.81531">
        <ele>30.8</ele>
        <time>2024-05-10T07:18:47Z</time>
      </trkpt>
      <trkpt lat="43.25084" lon="2.81557">
        <ele>31</ele>
        <time>2024-05-10T07:18:48Z</time>
      </trkpt>
      <trkpt lat="43.25093" lon="2.81584">
        <ele>31</ele>
        <time>2024-05-10T07:18:49Z</time>
      </trkpt>
      <trkpt lat="43.25102" lon="2.81611">
        <ele>31</ele>
        <time>2024-05-10T07:18:50Z</time>
      </trkpt>
      <trkpt lat="43.25112" lon="2.81636">
        <ele>31</ele>
        <time>2024-05-10T07:18:51Z</time>
      </trkpt>
      <trkpt lat="43.25121" lon="2.81661">
        <ele>30.8</ele>
        <time>2024-05-10T07:18:52Z</time>
      </trkpt>
      <trkpt lat="43.25128" lon="2.81685">
        <ele>30.8</ele>
        <time>2024-05-10T07:18:53Z</time>
      </trkpt>
      <trkpt lat="43.25132" lon="2.81709">
        <ele>30.8</ele>
        <time>2024-05-10T07:18:54Z</time>
      </trkpt>
      <trkpt lat="43.25133" lon="2.81733">
        <ele>30.7</ele>
        <time>2024-05-10T07:18:55Z</time>
      </trkpt>
      <trkpt lat="43.25131" lon="2.81759">
        <ele>30.2</ele>
        <time>2024-05-10T07:18:56Z</time>
      </trkpt>
      <trkpt lat="43.25128" lon="2.81785">
        <ele>29.6</ele>
        <time>2024-05-10T07:18:57Z</time>
      </trkpt>
      <trkpt lat="43.25123" lon="2.81813">
        <ele>29.4</ele>
        <time>2024-05-10T07:18:58Z</time>
      </trkpt>
      <trkpt lat="43.25118" lon="2.81842">
        <ele>29.5</ele>
        <time>2024-05-10T07:18:59Z</time>
      </trkpt>
      <trkpt lat="43.25112" lon="2.81871">
        <ele>30</ele>
        <time>2024-05-10T07:19:00Z</time>
      </trkpt>
      <trkpt lat="43.25107" lon="2.81901">
        <ele>29.9</ele>
        <time>2024-05-10T07:19:01Z</time>
      </trkpt>
      <trkpt lat="43.25101" lon="2.81931">
        <ele>29.3</ele>
        <time>2024-05-10T07:19:02Z</time>
      </trkpt>
      <trkpt lat="43.25097" lon="2.81962">
        <ele>28.7</ele>
        <time>2024-05-10T07:19:03Z</time>
      </trkpt>
      <trkpt lat="43.25093" lon="2.81994">
        <ele>28.9</ele>
        <time>2024-05-10T07:19:04Z</time>
      </trkpt>
      <trkpt lat="43.25089" lon="2.82025">
        <ele>29.2</ele>
        <time>2024-05-10T07:19:05Z</time>
      </trkpt>
      <trkpt lat="43.25086" lon="2.82058">
        <ele>29.2</ele>
        <time>2024-05-10T07:19:06Z</time>
      </trkpt>
      <trkpt lat="43.25082" lon="2.8209">
        <ele>30</ele>
        <time>2024-05-10T07:19:07Z</time>
      </trkpt>
      <trkpt lat="43.25079" lon="2.82123">
        <ele>29.9</ele>
        <time>2024-05-10T07:19:08Z</time>
      </trkpt>
      <trkpt lat="43.25075" lon="2.82155">
        <ele>30.4</ele>
        <time>2024-05-10T07:19:09Z</time>
      </trkpt>
      <trkpt lat="43.2507" lon="2.82188">
        <ele>30.5</ele>
        <time>2024-05-10T07:19:10Z</time>
      </trkpt>
      <trkpt lat="43.25065" lon="2.8222">
        <ele>30.3</ele>
        <time>2024-05-10T07:19:11Z</time>
      </trkpt>
      <trkpt lat="43.2506" lon="2.82252">
        <ele>30.2</ele>
        <time>2024-05-10T07:19:12Z</time>
      </trkpt>
      <trkpt lat="43.25055" lon="2.82281">
        <ele>30.1</ele>
        <time>2024-05-10T07:19:13Z</time>
      </trkpt>
      <trkpt lat="43.25049" lon="2.8231">
        <ele>30.8</ele>
        <time>2024-05-10T07:19:14Z</time>
      </trkpt>
      <trkpt lat="43.25044" lon="2.82337">
        <ele>31.7</ele>
        <time>2024-05-10T07:19:15Z</time>
      </trkpt>
      <trkpt lat="43.2504" lon="2.82363">
        <ele>30.9</ele>
        <time>2024-05-10T07:19:16Z</time>
      </trkpt>
      <trkpt lat="43.25037" lon="2.82388">
        <ele>31.3</ele>
        <time>2024-05-10T07:19:17Z</time>
      </trkpt>
      <trkpt lat="43.25036" lon="2.82413">
        <ele>31.9</ele>
        <time>2024-05-10T07:19:18Z</time>
      </trkpt>
      <trkpt lat="43.25035" lon="2.82436">
        <ele>32</ele>
        <time>2024-05-10T07:19:19Z</time>
      </trkpt>
      <trkpt lat="43.25035" lon="2.82458">
        <ele>32</ele>
        <time>2024-05-10T07:19:20Z</time>
      </trkpt>
      <trkpt lat="43.25033" lon="2.82481">
        <ele>32.3</ele>
        <time>2024-05-10T07:19:21Z</time>
      </trkpt>
      <trkpt lat="43.25029" lon="2.82503">
        <ele>32.9</ele>
        <time>2024-05-10T07:19:22Z</time>
      </trkpt>
      <trkpt lat="43.25025" lon="2.82526">
        <ele>31.7</ele>
        <time>2024-05-10T07:19:23Z</time>
      </trkpt>
      <trkpt lat="43.2502" lon="2.8255">
        <ele>31.1</ele>
        <time>2024-05-10T07:19:24Z</time>
      </trkpt>
      <trkpt lat="43.25014" lon="2.82574">
        <ele>31.2</ele>
        <time>2024-05-10T07:19:25Z</time>
      </trkpt>
      <trkpt lat="43.25008" lon="2.82599">
        <ele>32.3</ele>
        <time>2024-05-10T07:19:26Z</time>
      </trkpt>
      <trkpt lat="43.25002" lon="2.82625">
        <ele>32.6</ele>
        <time>2024-05-10T07:19:27Z</time>
      </trkpt>
      <trkpt lat="43.24994" lon="2.82651">
        <ele>31.3</ele>
        <time>2024-05-10T07:19:28Z</time>
      </trkpt>
      <trkpt lat="43.24987" lon="2.82677">
        <ele>31.6</ele>
        <time>2024-05-10T07:19:29Z</time>
      </trkpt>
      <trkpt lat="43.2498" lon="2.82702">
        <ele>32.9</ele>
        <time>2024-05-10T07:19:30Z</time>
      </trkpt>
      <trkpt lat="43.24972" lon="2.82728">
        <ele>32.8</ele>
        <time>2024-05-10T07:19:31Z</time>
      </trkpt>
      <trkpt lat="43.24965" lon="2.82754">
        <ele>31.6</ele>
        <time>2024-05-10T07:19:32Z</time>
      </trkpt>
      <trkpt lat="43.24958" lon="2.82779">
        <ele>32</ele>
        <time>2024-05-10T07:19:33Z</time>
      </trkpt>
      <trkpt lat="43.24951" lon="2.82804">
        <ele>32.9</ele>
        <time>2024-05-10T07:19:34Z</time>
      </trkpt>
      <trkpt lat="43.24944" lon="2.8283">
        <ele>32.9</ele>
        <time>2024-05-10T07:19:35Z</time>
      </trkpt>
      <trkpt lat="43.24937" lon="2.82857">
        <ele>31.3</ele>
        <time>2024-05-10T07:19:36Z</time>
      </trkpt>
      <trkpt lat="43.24929" lon="2.82885">
        <ele>31.8</ele>
        <time>2024-05-10T07:19:37Z</time>
      </trkpt>
      <trkpt lat="43.24922" lon="2.82912">
        <ele>32.8</ele>
        <time>2024-05-10T07:19:38Z</time>
      </trkpt>
      <trkpt lat="43.24914" lon="2.82939">
        <ele>31.7</ele>
        <time>2024-05-10T07:19:39Z</time>
      </trkpt>
      <trkpt lat="43.24906" lon="2.82965">
        <ele>30.6</ele>
        <time>2024-05-10T07:19:40Z</time>
      </trkpt>
      <trkpt lat="43.24899" lon="2.8299">
        <ele>31.7</ele>
        <time>2024-05-10T07:19:41Z</time>
      </trkpt>
      <trkpt lat="43.24892" lon="2.83013">
        <ele>33.2</ele>
        <time>2024-05-10T07:19:42Z</time>
      </trkpt>
      <trkpt lat="43.24886" lon="2.83036">
        <ele>32.2</ele>
        <time>2024-05-10T07:19:43Z</time>
      </trkpt>
      <trkpt lat="43.24882" lon="2.83055">
        <ele>31.5</ele>
        <time>2024-05-10T07:19:44Z</time>
      </trkpt>
      <trkpt lat="43.24878" lon="2.8307">
        <ele>31.4</ele>
        <time>2024-05-10T07:19:45Z</time>
      </trkpt>
      <trkpt lat="43.24875" lon="2.83085">
        <ele>31.6</ele>
        <time>2024-05-10T07:19:46Z</time>
      </trkpt>
      <trkpt lat="43.24872" lon="2.831">
        <ele>32.5</ele>
        <time>2024-05-10T07:19:47Z</time>
      </trkpt>
      <trkpt lat="43.2487" lon="2.83114">
        <ele>33.3</ele>
        <time>2024-05-10T07:19:48Z</time>
      </trkpt>
      <trkpt lat="43.24867" lon="2.83128">
        <ele>33.2</ele>
        <time>2024-05-10T07:19:49Z</time>
      </trkpt>
      <trkpt lat="43.24866" lon="2.83142">
        <ele>33</ele>
        <time>2024-05-10T07:19:50Z</time>
      </trkpt>
      <trkpt lat="43.24865" lon="2.83156">
        <ele>33</ele>
        <time>2024-05-10T07:19:51Z</time>
      </trkpt>
      <trkpt lat="43.24865" lon="2.8317">
        <ele>33</ele>
        <time>2024-05-10T07:19:52Z</time>
      </trkpt>
      <trkpt lat="43.24865" lon="2.83183">
        <ele>33</ele>
        <time>2024-05-10T07:19:53Z</time>
      </trkpt>
      <trkpt lat="43.24865" lon="2.83197">
        <ele>33</ele>
        <time>2024-05-10T07:19:54Z</time>
      </trkpt>
      <trkpt lat="43.24865" lon="2.8321">
        <ele>33</ele>
        <time>2024-05-10T07:19:55Z</time>
      </trkpt>
      <trkpt lat="43.24865" lon="2.83224">
        <ele>32.9</ele>
        <time>2024-05-10T07:19:56Z</time>
      </trkpt>
      <trkpt lat="43.24865" lon="2.83237">
        <ele>32.5</ele>
        <time>2024-05-10T07:19:57Z</time>
      </trkpt>
      <trkpt lat="43.24866" lon="2.8325">
        <ele>32.2</ele>
        <time>2024-05-10T07:19:58Z</time>
      </trkpt>
      <trkpt lat="43.24866" lon="2.83263">
        <ele>32.2</ele>
        <time>2024-05-10T07:19:59Z</time>
      </trkpt>
      <trkpt lat="43.24866" lon="2.83276">
        <ele>32.2</ele>
        <time>2024-05-10T07:20:00Z</time>
      </trkpt>
      <trkpt lat="43.24866" lon="2.83287">
        <ele>32.5</ele>
        <time>2024-05-10T07:20:01Z</time>
      </trkpt>
      <trkpt lat="43.24866" lon="2.83298">
        <ele>32.9</ele>
        <time>2024-05-10T07:20:02Z</time>
      </trkpt>
      <trkpt lat="43.24866" lon="2.83307">
        <ele>33.2</ele>
        <time>2024-05-10T07:20:03Z</time>
      </trkpt>
      <trkpt lat="43.24866" lon="2.83315">
        <ele>33.2</ele>
        <time>2024-05-10T07:20:04Z</time>
      </trkpt>
      <trkpt lat="43.24866" lon="2.83323">
        <ele>33.2</ele>
        <time>2024-05-10T07:20:05Z</time>
      </trkpt>
      <trkpt lat="43.24866" lon="2.8333">
        <ele>33.2</ele>
        <time>2024-05-10T07:20:06Z</time>
      </trkpt>
      <trkpt lat="43.24866" lon="2.83336">
        <ele>33.3</ele>
        <time>2024-05-10T07:20:07Z</time>
      </trkpt>
      <trkpt lat="43.24866" lon="2.83343">
        <ele>33.5</ele>
        <time>2024-05-10T07:20:08Z</time>
      </trkpt>
      <trkpt lat="43.24866" lon="2.8335">
        <ele>33.7</ele>
        <time>2024-05-10T07:20:09Z</time>
      </trkpt>
      <trkpt lat="43.24865" lon="2.83359">
        <ele>33.9</ele>
        <time>2024-05-10T07:20:10Z</time>
      </trkpt>
      <trkpt lat="43.24864" lon="2.83369">
        <ele>34</ele>
        <time>2024-05-10T07:20:11Z</time>
      </trkpt>
      <trkpt lat="43.24864" lon="2.83381">
        <ele>34</ele>
        <time>2024-05-10T07:20:12Z</time>
      </trkpt>
      <trkpt lat="43.24864" lon="2.83396">
        <ele>33.8</ele>
        <time>2024-05-10T07:20:13Z</time>
      </trkpt>
      <trkpt lat="43.24864" lon="2.83413">
        <ele>33.4</ele>
        <time>2024-05-10T07:20:14Z</time>
      </trkpt>
      <trkpt lat="43.24865" lon="2.8343">
        <ele>32.9</ele>
        <time>2024-05-10T07:20:15Z</time>
      </trkpt>
      <trkpt lat="43.24865" lon="2.83449">
        <ele>32.3</ele>
        <time>2024-05-10T07:20:16Z</time>
      </trkpt>
      <trkpt lat="43.24867" lon="2.83469">
        <ele>32.2</ele>
        <time>2024-05-10T07:20:17Z</time>
      </trkpt>
      <trkpt lat="43.24869" lon="2.83491">
        <ele>32.6</ele>
        <time>2024-05-10T07:20:18Z</time>
      </trkpt>
      <trkpt lat="43.24872" lon="2.83512">
        <ele>32.6</ele>
        <time>2024-05-10T07:20:19Z</time>
      </trkpt>
      <trkpt lat="43.24874" lon="2.83536">
        <ele>32.2</ele>
        <time>2024-05-10T07:20:20Z</time>
      </trkpt>
      <trkpt lat="43.24875" lon="2.8356">
        <ele>31.3</ele>
        <time>2024-05-10T07:20:21Z</time>
      </trkpt>
      <trkpt lat="43.24876" lon="2.83583">
        <ele>30.6</ele>
        <time>2024-05-10T07:20:22Z</time>
      </trkpt>
      <trkpt lat="43.24876" lon="2.83607">
        <ele>30.6</ele>
        <time>2024-05-10T07:20:23Z</time>
      </trkpt>
      <trkpt lat="43.24875" lon="2.8363">
        <ele>30.8</ele>
        <time>2024-05-10T07:20:24Z</time>
      </trkpt>
      <trkpt lat="43.24874" lon="2.83652">
        <ele>31.2</ele>
        <time>2024-05-10T07:20:25Z</time>
      </trkpt>
      <trkpt lat="43.24872" lon="2.83673">
        <ele>31.5</ele>
        <time>2024-05-10T07:20:26Z</time>
      </trkpt>
      <trkpt lat="43.24871" lon="2.83694">
        <ele>32</ele>
        <time>2024-05-10T07:20:27Z</time>
      </trkpt>
      <trkpt lat="43.2487" lon="2.83714">
        <ele>32.5</ele>
        <time>2024-05-10T07:20:28Z</time>
      </trkpt>
      <trkpt lat="43.24868" lon="2.83735">
        <ele>32.4</ele>
        <time>2024-05-10T07:20:29Z</time>
      </trkpt>
      <trkpt lat="43.24867" lon="2.83756">
        <ele>32</ele>
        <time>2024-05-10T07:20:30Z</time>
      </trkpt>
      <trkpt lat="43.24866" lon="2.83778">
        <ele>32</ele>
        <time>2024-05-10T07:20:31Z</time>
      </trkpt>
      <trkpt lat="43.24864" lon="2.83799">
        <ele>32.1</ele>
        <time>2024-05-10T07:20:32Z</time>
      </trkpt>
      <trkpt lat="43.24863" lon="2.83819">
        <ele>32.5</ele>
        <time>2024-05-10T07:20:33Z</time>
      </trkpt>
      <trkpt lat="43.24862" lon="2.83838">
        <ele>33</ele>
        <time>2024-05-10T07:20:34Z</time>
      </trkpt>
      <trkpt lat="43.24861" lon="2.83857">
        <ele>33</ele>
        <time>2024-05-10T07:20:35Z</time>
      </trkpt>
      <trkpt lat="43.24859" lon="2.83875">
        <ele>32.6</ele>
        <time>2024-05-10T07:20:36Z</time>
      </trkpt>
      <trkpt lat="43.24858" lon="2.83893">
        <ele>32.5</ele>
        <time>2024-05-10T07:20:37Z</time>
      </trkpt>
      <trkpt lat="43.24858" lon="2.83909">
        <ele>32.5</ele>
        <time>2024-05-10T07:20:38Z</time>
      </trkpt>
      <trkpt lat="43.24858" lon="2.83926">
        <ele>32.5</ele>
        <time>2024-05-10T07:20:39Z</time>
      </trkpt>
      <trkpt lat="43.24857" lon="2.83943">
        <ele>32.1</ele>
        <time>2024-05-10T07:20:40Z</time>
      </trkpt>
      <trkpt lat="43.24856" lon="2.83961">
        <ele>30.3</ele>
        <time>2024-05-10T07:20:41Z</time>
      </trkpt>
      <trkpt lat="43.24856" lon="2.83978">
        <ele>28.9</ele>
        <time>2024-05-10T07:20:42Z</time>
      </trkpt>
      <trkpt lat="43.24856" lon="2.83996">
        <ele>27.7</ele>
        <time>2024-05-10T07:20:43Z</time>
      </trkpt>
      <trkpt lat="43.24855" lon="2.84013">
        <ele>26.6</ele>
        <time>2024-05-10T07:20:44Z</time>
      </trkpt>
      <trkpt lat="43.24854" lon="2.84032">
        <ele>25.7</ele>
        <time>2024-05-10T07:20:45Z</time>
      </trkpt>
      <trkpt lat="43.24853" lon="2.84051">
        <ele>25.7</ele>
        <time>2024-05-10T07:20:46Z</time>
      </trkpt>
      <trkpt lat="43.24853" lon="2.84069">
        <ele>25.7</ele>
        <time>2024-05-10T07:20:47Z</time>
      </trkpt>
      <trkpt lat="43.24852" lon="2.84088">
        <ele>25.6</ele>
        <time>2024-05-10T07:20:48Z</time>
      </trkpt>
      <trkpt lat="43.24851" lon="2.84106">
        <ele>25.1</ele>
        <time>2024-05-10T07:20:49Z</time>
      </trkpt>
      <trkpt lat="43.24851" lon="2.84124">
        <ele>23.3</ele>
        <time>2024-05-10T07:20:50Z</time>
      </trkpt>
      <trkpt lat="43.2485" lon="2.84142">
        <ele>21.8</ele>
        <time>2024-05-10T07:20:51Z</time>
      </trkpt>
      <trkpt lat="43.24849" lon="2.84158">
        <ele>24.6</ele>
        <time>2024-05-10T07:20:52Z</time>
      </trkpt>
      <trkpt lat="43.24848" lon="2.84174">
        <ele>25.9</ele>
        <time>2024-05-10T07:20:53Z</time>
      </trkpt>
      <trkpt lat="43.24846" lon="2.84189">
        <ele>25.5</ele>
        <time>2024-05-10T07:20:54Z</time>
      </trkpt>
      <trkpt lat="43.24842" lon="2.84205">
        <ele>25.3</ele>
        <time>2024-05-10T07:20:55Z</time>
      </trkpt>
      <trkpt lat="43.24836" lon="2.84222">
        <ele>25.1</ele>
        <time>2024-05-10T07:20:56Z</time>
      </trkpt>
      <trkpt lat="43.24829" lon="2.84239">
        <ele>25</ele>
        <time>2024-05-10T07:20:57Z</time>
      </trkpt>
      <trkpt lat="43.24821" lon="2.84258">
        <ele>24.9</ele>
        <time>2024-05-10T07:20:58Z</time>
      </trkpt>
      <trkpt lat="43.24813" lon="2.84277">
        <ele>24.3</ele>
        <time>2024-05-10T07:20:59Z</time>
      </trkpt>
      <trkpt lat="43.24804" lon="2.84296">
        <ele>24.7</ele>
        <time>2024-05-10T07:21:00Z</time>
      </trkpt>
      <trkpt lat="43.24796" lon="2.84315">
        <ele>24.9</ele>
        <time>2024-05-10T07:21:01Z</time>
      </trkpt>
      <trkpt lat="43.24788" lon="2.84333">
        <ele>24.4</ele>
        <time>2024-05-10T07:21:02Z</time>
      </trkpt>
      <trkpt lat="43.24779" lon="2.84351">
        <ele>24.7</ele>
        <time>2024-05-10T07:21:03Z</time>
      </trkpt>
      <trkpt lat="43.24772" lon="2.84369">
        <ele>24.8</ele>
        <time>2024-05-10T07:21:04Z</time>
      </trkpt>
      <trkpt lat="43.24764" lon="2.84386">
        <ele>24.5</ele>
        <time>2024-05-10T07:21:05Z</time>
      </trkpt>
      <trkpt lat="43.24756" lon="2.84405">
        <ele>24.2</ele>
        <time>2024-05-10T07:21:06Z</time>
      </trkpt>
      <trkpt lat="43.24748" lon="2.84423">
        <ele>24.2</ele>
        <time>2024-05-10T07:21:07Z</time>
      </trkpt>
      <trkpt lat="43.24741" lon="2.84441">
        <ele>24.6</ele>
        <time>2024-05-10T07:21:08Z</time>
      </trkpt>
      <trkpt lat="43.24735" lon="2.84459">
        <ele>24.5</ele>
        <time>2024-05-10T07:21:09Z</time>
      </trkpt>
      <trkpt lat="43.2473" lon="2.84478">
        <ele>24.3</ele>
        <time>2024-05-10T07:21:10Z</time>
      </trkpt>
      <trkpt lat="43.24726" lon="2.84499">
        <ele>24.1</ele>
        <time>2024-05-10T07:21:11Z</time>
      </trkpt>
      <trkpt lat="43.24722" lon="2.8452">
        <ele>24.7</ele>
        <time>2024-05-10T07:21:12Z</time>
      </trkpt>
      <trkpt lat="43.24718" lon="2.84541">
        <ele>24.8</ele>
        <time>2024-05-10T07:21:13Z</time>
      </trkpt>
      <trkpt lat="43.24714" lon="2.84563">
        <ele>25</ele>
        <time>2024-05-10T07:21:14Z</time>
      </trkpt>
      <trkpt lat="43.2471" lon="2.84586">
        <ele>25.6</ele>
        <time>2024-05-10T07:21:15Z</time>
      </trkpt>
      <trkpt lat="43.24706" lon="2.8461">
        <ele>25.4</ele>
        <time>2024-05-10T07:21:16Z</time>
      </trkpt>
      <trkpt lat="43.24701" lon="2.84633">
        <ele>25.2</ele>
        <time>2024-05-10T07:21:17Z</time>
      </trkpt>
      <trkpt lat="43.24697" lon="2.84655">
        <ele>25.7</ele>
        <time>2024-05-10T07:21:18Z</time>
      </trkpt>
      <trkpt lat="43.24692" lon="2.84677">
        <ele>25.9</ele>
        <time>2024-05-10T07:21:19Z</time>
      </trkpt>
      <trkpt lat="43.24689" lon="2.84698">
        <ele>25.8</ele>
        <time>2024-05-10T07:21:20Z</time>
      </trkpt>
      <trkpt lat="43.24688" lon="2.84719">
        <ele>26</ele>
        <time>2024-05-10T07:21:21Z</time>
      </trkpt>
      <trkpt lat="43.24689" lon="2.84738">
        <ele>26</ele>
        <time>2024-05-10T07:21:22Z</time>
      </trkpt>
      <trkpt lat="43.24691" lon="2.84758">
        <ele>26.3</ele>
        <time>2024-05-10T07:21:23Z</time>
      </trkpt>
      <trkpt lat="43.24695" lon="2.84777">
        <ele>27</ele>
        <time>2024-05-10T07:21:24Z</time>
      </trkpt>
      <trkpt lat="43.24702" lon="2.84797">
        <ele>26.5</ele>
        <time>2024-05-10T07:21:25Z</time>
      </trkpt>
      <trkpt lat="43.24709" lon="2.84817">
        <ele>26.5</ele>
        <time>2024-05-10T07:21:26Z</time>
      </trkpt>
      <trkpt lat="43.24717" lon="2.84837">
        <ele>26.8</ele>
        <time>2024-05-10T07:21:27Z</time>
      </trkpt>
      <trkpt lat="43.24726" lon="2.84858">
        <ele>27</ele>
        <time>2024-05-10T07:21:28Z</time>
      </trkpt>
      <trkpt lat="43.24735" lon="2.84879">
        <ele>27.3</ele>
        <time>2024-05-10T07:21:29Z</time>
      </trkpt>
      <trkpt lat="43.24744" lon="2.849">
        <ele>27.8</ele>
        <time>2024-05-10T07:21:30Z</time>
      </trkpt>
      <trkpt lat="43.24752" lon="2.84921">
        <ele>28.1</ele>
        <time>2024-05-10T07:21:31Z</time>
      </trkpt>
      <trkpt lat="43.2476" lon="2.84943">
        <ele>28.7</ele>
        <time>2024-05-10T07:21:32Z</time>
      </trkpt>
      <trkpt lat="43.24765" lon="2.84963">
        <ele>28.8</ele>
        <time>2024-05-10T07:21:33Z</time>
      </trkpt>
      <trkpt lat="43.2477" lon="2.84985">
        <ele>29.2</ele>
        <time>2024-05-10T07:21:34Z</time>
      </trkpt>
      <trkpt lat="43.24775" lon="2.85006">
        <ele>29.5</ele>
        <time>2024-05-10T07:21:35Z</time>
      </trkpt>
      <trkpt lat="43.24778" lon="2.85027">
        <ele>29.1</ele>
        <time>2024-05-10T07:21:36Z</time>
      </trkpt>
      <trkpt lat="43.2478" lon="2.85049">
        <ele>29.2</ele>
        <time>2024-05-10T07:21:37Z</time>
      </trkpt>
      <trkpt lat="43.2478" lon="2.85071">
        <ele>29.2</ele>
        <time>2024-05-10T07:21:38Z</time>
      </trkpt>
      <trkpt lat="43.2478" lon="2.85094">
        <ele>29.2</ele>
        <time>2024-05-10T07:21:39Z</time>
      </trkpt>
      <trkpt lat="43.24779" lon="2.85117">
        <ele>29.3</ele>
        <time>2024-05-10T07:21:40Z</time>
      </trkpt>
      <trkpt lat="43.24777" lon="2.8514">
        <ele>29.9</ele>
        <time>2024-05-10T07:21:41Z</time>
      </trkpt>
      <trkpt lat="43.24776" lon="2.85163">
        <ele>29.8</ele>
        <time>2024-05-10T07:21:42Z</time>
      </trkpt>
      <trkpt lat="43.24775" lon="2.85186">
        <ele>29.7</ele>
        <time>2024-05-10T07:21:43Z</time>
      </trkpt>
      <trkpt lat="43.24774" lon="2.85208">
        <ele>29.6</ele>
        <time>2024-05-10T07:21:44Z</time>
      </trkpt>
      <trkpt lat="43.24774" lon="2.85231">
        <ele>29.6</ele>
        <time>2024-05-10T07:21:45Z</time>
      </trkpt>
      <trkpt lat="43.24774" lon="2.85254">
        <ele>29.6</ele>
        <time>2024-05-10T07:21:46Z</time>
      </trkpt>
      <trkpt lat="43.24774" lon="2.85278">
        <ele>29.6</ele>
        <time>2024-05-10T07:21:47Z</time>
      </trkpt>
      <trkpt lat="43.24775" lon="2.85302">
        <ele>29.7</ele>
        <time>2024-05-10T07:21:48Z</time>
      </trkpt>
      <trkpt lat="43.24775" lon="2.85327">
        <ele>29</ele>
        <time>2024-05-10T07:21:49Z</time>
      </trkpt>
      <trkpt lat="43.24776" lon="2.85352">
        <ele>28.8</ele>
        <time>2024-05-10T07:21:50Z</time>
      </trkpt>
      <trkpt lat="43.24775" lon="2.85377">
        <ele>28.7</ele>
        <time>2024-05-10T07:21:51Z</time>
      </trkpt>
      <trkpt lat="43.24774" lon="2.85401">
        <ele>29</ele>
        <time>2024-05-10T07:21:52Z</time>
      </trkpt>
      <trkpt lat="43.24773" lon="2.85425">
        <ele>29.6</ele>
        <time>2024-05-10T07:21:53Z</time>
      </trkpt>
      <trkpt lat="43.2477" lon="2.8545">
        <ele>29.9</ele>
        <time>2024-05-10T07:21:54Z</time>
      </trkpt>
      <trkpt lat="43.24766" lon="2.85474">
        <ele>30</ele>
        <time>2024-05-10T07:21:55Z</time>
      </trkpt>
      <trkpt lat="43.24763" lon="2.85497">
        <ele>29.3</ele>
        <time>2024-05-10T07:21:56Z</time>
      </trkpt>
      <trkpt lat="43.24759" lon="2.85519">
        <ele>28.6</ele>
        <time>2024-05-10T07:21:57Z</time>
      </trkpt>
      <trkpt lat="43.24755" lon="2.85541">
        <ele>28.3</ele>
        <time>2024-05-10T07:21:58Z</time>
      </trkpt>
      <trkpt lat="43.24751" lon="2.85562">
        <ele>28.4</ele>
        <time>2024-05-10T07:21:59Z</time>
      </trkpt>
      <trkpt lat="43.24747" lon="2.85584">
        <ele>28.8</ele>
        <time>2024-05-10T07:22:00Z</time>
      </trkpt>
      <trkpt lat="43.24742" lon="2.85604">
        <ele>30.3</ele>
        <time>2024-05-10T07:22:01Z</time>
      </trkpt>
      <trkpt lat="43.24738" lon="2.85624">
        <ele>29.9</ele>
        <time>2024-05-10T07:22:02Z</time>
      </trkpt>
      <trkpt lat="43.24735" lon="2.85644">
        <ele>29.3</ele>
        <time>2024-05-10T07:22:03Z</time>
      </trkpt>
      <trkpt lat="43.24732" lon="2.85662">
        <ele>28.8</ele>
        <time>2024-05-10T07:22:04Z</time>
      </trkpt>
      <trkpt lat="43.24731" lon="2.85681">
        <ele>28.9</ele>
        <time>2024-05-10T07:22:05Z</time>
      </trkpt>
      <trkpt lat="43.2473" lon="2.85699">
        <ele>29.1</ele>
        <time>2024-05-10T07:22:06Z</time>
      </trkpt>
      <trkpt lat="43.24729" lon="2.85717">
        <ele>29</ele>
        <time>2024-05-10T07:22:07Z</time>
      </trkpt>
      <trkpt lat="43.24729" lon="2.85734">
        <ele>29.3</ele>
        <time>2024-05-10T07:22:08Z</time>
      </trkpt>
      <trkpt lat="43.24729" lon="2.8575">
        <ele>29.7</ele>
        <time>2024-05-10T07:22:09Z</time>
      </trkpt>
      <trkpt lat="43.24728" lon="2.85765">
        <ele>30.1</ele>
        <time>2024-05-10T07:22:10Z</time>
      </trkpt>
      <trkpt lat="43.24726" lon="2.8578">
        <ele>30.3</ele>
        <time>2024-05-10T07:22:11Z</time>
      </trkpt>
      <trkpt lat="43.24725" lon="2.85794">
        <ele>30.2</ele>
        <time>2024-05-10T07:22:12Z</time>
      </trkpt>
      <trkpt lat="43.24723" lon="2.85809">
        <ele>30.4</ele>
        <time>2024-05-10T07:22:13Z</time>
      </trkpt>
      <trkpt lat="43.24719" lon="2.85824">
        <ele>31.6</ele>
        <time>2024-05-10T07:22:14Z</time>
      </trkpt>
      <trkpt lat="43.24716" lon="2.85838">
        <ele>32</ele>
        <time>2024-05-10T07:22:15Z</time>
      </trkpt>
      <trkpt lat="43.24711" lon="2.85852">
        <ele>31.3</ele>
        <time>2024-05-10T07:22:16Z</time>
      </trkpt>
      <trkpt lat="43.24708" lon="2.85866">
        <ele>31</ele>
        <time>2024-05-10T07:22:17Z</time>
      </trkpt>
      <trkpt lat="43.24705" lon="2.85879">
        <ele>30.8</ele>
        <time>2024-05-10T07:22:18Z</time>
      </trkpt>
      <trkpt lat="43.24704" lon="2.85891">
        <ele>30.8</ele>
        <time>2024-05-10T07:22:19Z</time>
      </trkpt>
      <trkpt lat="43.24703" lon="2.85904">
        <ele>31.4</ele>
        <time>2024-05-10T07:22:20Z</time>
      </trkpt>
      <trkpt lat="43.24702" lon="2.85915">
        <ele>31.9</ele>
        <time>2024-05-10T07:22:21Z</time>
      </trkpt>
      <trkpt lat="43.24701" lon="2.85925">
        <ele>32.2</ele>
        <time>2024-05-10T07:22:22Z</time>
      </trkpt>
      <trkpt lat="43.247" lon="2.85934">
        <ele>32.5</ele>
        <time>2024-05-10T07:22:23Z</time>
      </trkpt>
      <trkpt lat="43.24699" lon="2.85943">
        <ele>32.8</ele>
        <time>2024-05-10T07:22:24Z</time>
      </trkpt>
      <trkpt lat="43.24699" lon="2.85953">
        <ele>33.1</ele>
        <time>2024-05-10T07:22:25Z</time>
      </trkpt>
      <trkpt lat="43.24698" lon="2.85962">
        <ele>33.4</ele>
        <time>2024-05-10T07:22:26Z</time>
      </trkpt>
      <trkpt lat="43.24697" lon="2.85971">
        <ele>33.8</ele>
        <time>2024-05-10T07:22:27Z</time>
      </trkpt>
      <trkpt lat="43.24697" lon="2.85979">
        <ele>33.9</ele>
        <time>2024-05-10T07:22:28Z</time>
      </trkpt>
      <trkpt lat="43.24696" lon="2.85989">
        <ele>34</ele>
        <time>2024-05-10T07:22:29Z</time>
      </trkpt>
      <trkpt lat="43.24695" lon="2.85998">
        <ele>34</ele>
        <time>2024-05-10T07:22:30Z</time>
      </trkpt>
      <trkpt lat="43.24694" lon="2.86009">
        <ele>33.6</ele>
        <time>2024-05-10T07:22:31Z</time>
      </trkpt>
      <trkpt lat="43.24693" lon="2.8602">
        <ele>33</ele>
        <time>2024-05-10T07:22:32Z</time>
      </trkpt>
      <trkpt lat="43.24692" lon="2.86033">
        <ele>32.4</ele>
        <time>2024-05-10T07:22:33Z</time>
      </trkpt>
      <trkpt lat="43.2469" lon="2.86048">
        <ele>31.7</ele>
        <time>2024-05-10T07:22:34Z</time>
      </trkpt>
      <trkpt lat="43.24689" lon="2.86064">
        <ele>31.5</ele>
        <time>2024-05-10T07:22:35Z</time>
      </trkpt>
      <trkpt lat="43.24687" lon="2.86081">
        <ele>31.4</ele>
        <time>2024-05-10T07:22:36Z</time>
      </trkpt>
      <trkpt lat="43.24684" lon="2.86098">
        <ele>31.6</ele>
        <time>2024-05-10T07:22:37Z</time>
      </trkpt>
      <trkpt lat="43.24682" lon="2.86115">
        <ele>31.8</ele>
        <time>2024-05-10T07:22:38Z</time>
      </trkpt>
      <trkpt lat="43.2468" lon="2.86133">
        <ele>30.8</ele>
        <time>2024-05-10T07:22:39Z</time>
      </trkpt>
      <trkpt lat="43.24678" lon="2.86152">
        <ele>30.5</ele>
        <time>2024-05-10T07:22:40Z</time>
      </trkpt>
      <trkpt lat="43.24676" lon="2.86172">
        <ele>30.8</ele>
        <time>2024-05-10T07:22:41Z</time>
      </trkpt>
      <trkpt lat="43.24673" lon="2.86193">
        <ele>31.2</ele>
        <time>2024-05-10T07:22:42Z</time>
      </trkpt>
      <trkpt lat="43.24671" lon="2.86214">
        <ele>31.9</ele>
        <time>2024-05-10T07:22:43Z</time>
      </trkpt>
      <trkpt lat="43.24668" lon="2.86236">
        <ele>32</ele>
        <time>2024-05-10T07:22:44Z</time>
      </trkpt>
      <trkpt lat="43.24666" lon="2.86257">
        <ele>31.8</ele>
        <time>2024-05-10T07:22:45Z</time>
      </trkpt>
      <trkpt lat="43.24663" lon="2.86278">
        <ele>31.2</ele>
        <time>2024-05-10T07:22:46Z</time>
      </trkpt>
      <trkpt lat="43.2466" lon="2.86301">
        <ele>30.4</ele>
        <time>2024-05-10T07:22:47Z</time>
      </trkpt>
      <trkpt lat="43.24658" lon="2.86323">
        <ele>30</ele>
        <time>2024-05-10T07:22:48Z</time>
      </trkpt>
      <trkpt lat="43.24656" lon="2.86346">
        <ele>29.7</ele>
        <time>2024-05-10T07:22:49Z</time>
      </trkpt>
      <trkpt lat="43.24654" lon="2.86369">
        <ele>29.4</ele>
        <time>2024-05-10T07:22:50Z</time>
      </trkpt>
      <trkpt lat="43.24654" lon="2.86393">
        <ele>29.7</ele>
        <time>2024-05-10T07:22:51Z</time>
      </trkpt>
      <trkpt lat="43.24654" lon="2.86417">
        <ele>29.7</ele>
        <time>2024-05-10T07:22:52Z</time>
      </trkpt>
      <trkpt lat="43.24655" lon="2.86442">
        <ele>30.7</ele>
        <time>2024-05-10T07:22:53Z</time>
      </trkpt>
      <trkpt lat="43.24657" lon="2.86467">
        <ele>31.2</ele>
        <time>2024-05-10T07:22:54Z</time>
      </trkpt>
      <trkpt lat="43.24659" lon="2.86491">
        <ele>31.1</ele>
        <time>2024-05-10T07:22:55Z</time>
      </trkpt>
      <trkpt lat="43.24661" lon="2.86515">
        <ele>31.1</ele>
        <time>2024-05-10T07:22:56Z</time>
      </trkpt>
      <trkpt lat="43.24662" lon="2.86538">
        <ele>31.2</ele>
        <time>2024-05-10T07:22:57Z</time>
      </trkpt>
      <trkpt lat="43.24664" lon="2.86561">
        <ele>31.7</ele>
        <time>2024-05-10T07:22:58Z</time>
      </trkpt>
      <trkpt lat="43.24665" lon="2.86583">
        <ele>32.6</ele>
        <time>2024-05-10T07:22:59Z</time>
      </trkpt>
      <trkpt lat="43.24667" lon="2.86605">
        <ele>32.2</ele>
        <time>2024-05-10T07:23:00Z</time>
      </trkpt>
      <trkpt lat="43.24669" lon="2.86627">
        <ele>32.1</ele>
        <time>2024-05-10T07:23:01Z</time>
      </trkpt>
      <trkpt lat="43.24672" lon="2.86649">
        <ele>31.8</ele>
        <time>2024-05-10T07:23:02Z</time>
      </trkpt>
      <trkpt lat="43.24675" lon="2.8667">
        <ele>31.1</ele>
        <time>2024-05-10T07:23:03Z</time>
      </trkpt>
      <trkpt lat="43.24679" lon="2.8669">
        <ele>30.5</ele>
        <time>2024-05-10T07:23:04Z</time>
      </trkpt>
      <trkpt lat="43.24685" lon="2.86709">
        <ele>30.6</ele>
        <time>2024-05-10T07:23:05Z</time>
      </trkpt>
      <trkpt lat="43.24693" lon="2.86727">
        <ele>31.6</ele>
        <time>2024-05-10T07:23:06Z</time>
      </trkpt>
      <trkpt lat="43.24702" lon="2.86744">
        <ele>31.4</ele>
        <time>2024-05-10T07:23:07Z</time>
      </trkpt>
      <trkpt lat="43.24712" lon="2.8676">
        <ele>31.1</ele>
        <time>2024-05-10T07:23:08Z</time>
      </trkpt>
      <trkpt lat="43.24722" lon="2.86776">
        <ele>32</ele>
        <time>2024-05-10T07:23:09Z</time>
      </trkpt>
      <trkpt lat="43.24733" lon="2.8679">
        <ele>30.8</ele>
        <time>2024-05-10T07:23:10Z</time>
      </trkpt>
      <trkpt lat="43.24744" lon="2.86804">
        <ele>31.7</ele>
        <time>2024-05-10T07:23:11Z</time>
      </trkpt>
      <trkpt lat="43.24753" lon="2.86817">
        <ele>30.3</ele>
        <time>2024-05-10T07:23:12Z</time>
      </trkpt>
      <trkpt lat="43.24763" lon="2.86831">
        <ele>29.1</ele>
        <time>2024-05-10T07:23:13Z</time>
      </trkpt>
      <trkpt lat="43.24772" lon="2.86846">
        <ele>31.1</ele>
        <time>2024-05-10T07:23:14Z</time>
      </trkpt>
      <trkpt lat="43.24779" lon="2.8686">
        <ele>32.9</ele>
        <time>2024-05-10T07:23:15Z</time>
      </trkpt>
      <trkpt lat="43.24784" lon="2.86875">
        <ele>30.4</ele>
        <time>2024-05-10T07:23:16Z</time>
      </trkpt>
      <trkpt lat="43.24787" lon="2.8689">
        <ele>28.8</ele>
        <time>2024-05-10T07:23:17Z</time>
      </trkpt>
      <trkpt lat="43.24787" lon="2.86904">
        <ele>30.1</ele>
        <time>2024-05-10T07:23:18Z</time>
      </trkpt>
      <trkpt lat="43.24787" lon="2.8692">
        <ele>31.4</ele>
        <time>2024-05-10T07:23:19Z</time>
      </trkpt>
      <trkpt lat="43.24788" lon="2.86937">
        <ele>31.8</ele>
        <time>2024-05-10T07:23:20Z</time>
      </trkpt>
      <trkpt lat="43.24789" lon="2.86955">
        <ele>31.8</ele>
        <time>2024-05-10T07:23:21Z</time>
      </trkpt>
      <trkpt lat="43.24791" lon="2.86974">
        <ele>31.4</ele>
        <time>2024-05-10T07:23:22Z</time>
      </trkpt>
      <trkpt lat="43.24793" lon="2.86994">
        <ele>30.5</ele>
        <time>2024-05-10T07:23:23Z</time>
      </trkpt>
      <trkpt lat="43.24796" lon="2.87014">
        <ele>30.6</ele>
        <time>2024-05-10T07:23:24Z</time>
      </trkpt>
      <trkpt lat="43.24799" lon="2.87035">
        <ele>31.3</ele>
        <time>2024-05-10T07:23:25Z</time>
      </trkpt>
      <trkpt lat="43.24801" lon="2.87056">
        <ele>32.2</ele>
        <time>2024-05-10T07:23:26Z</time>
      </trkpt>
      <trkpt lat="43.24802" lon="2.87076">
        <ele>32.3</ele>
        <time>2024-05-10T07:23:27Z</time>
      </trkpt>
      <trkpt lat="43.24802" lon="2.87096">
        <ele>31.9</ele>
        <time>2024-05-10T07:23:28Z</time>
      </trkpt>
      <trkpt lat="43.24801" lon="2.87115">
        <ele>31.3</ele>
        <time>2024-05-10T07:23:29Z</time>
      </trkpt>
      <trkpt lat="43.24799" lon="2.87135">
        <ele>31.1</ele>
        <time>2024-05-10T07:23:30Z</time>
      </trkpt>
      <trkpt lat="43.24798" lon="2.87156">
        <ele>30.9</ele>
        <time>2024-05-10T07:23:31Z</time>
      </trkpt>
      <trkpt lat="43.24796" lon="2.87177">
        <ele>30.6</ele>
        <time>2024-05-10T07:23:32Z</time>
      </trkpt>
      <trkpt lat="43.24793" lon="2.87199">
        <ele>30.2</ele>
        <time>2024-05-10T07:23:33Z</time>
      </trkpt>
      <trkpt lat="43.24791" lon="2.8722">
        <ele>29.9</ele>
        <time>2024-05-10T07:23:34Z</time>
      </trkpt>
      <trkpt lat="43.24789" lon="2.87243">
        <ele>30.5</ele>
        <time>2024-05-10T07:23:35Z</time>
      </trkpt>
      <trkpt lat="43.24788" lon="2.87263">
        <ele>31</ele>
        <time>2024-05-10T07:23:36Z</time>
      </trkpt>
      <trkpt lat="43.24787" lon="2.87284">
        <ele>31.5</ele>
        <time>2024-05-10T07:23:37Z</time>
      </trkpt>
      <trkpt lat="43.24787" lon="2.87304">
        <ele>32</ele>
        <time>2024-05-10T07:23:38Z</time>
      </trkpt>
      <trkpt lat="43.24787" lon="2.87323">
        <ele>32</ele>
        <time>2024-05-10T07:23:39Z</time>
      </trkpt>
      <trkpt lat="43.24788" lon="2.87341">
        <ele>31.5</ele>
        <time>2024-05-10T07:23:40Z</time>
      </trkpt>
      <trkpt lat="43.24789" lon="2.87359">
        <ele>30.3</ele>
        <time>2024-05-10T07:23:41Z</time>
      </trkpt>
      <trkpt lat="43.24789" lon="2.87377">
        <ele>30.4</ele>
        <time>2024-05-10T07:23:42Z</time>
      </trkpt>
      <trkpt lat="43.24788" lon="2.87397">
        <ele>30.3</ele>
        <time>2024-05-10T07:23:43Z</time>
      </trkpt>
      <trkpt lat="43.24785" lon="2.87417">
        <ele>29.5</ele>
        <time>2024-05-10T07:23:44Z</time>
      </trkpt>
      <trkpt lat="43.24782" lon="2.87439">
        <ele>29.9</ele>
        <time>2024-05-10T07:23:45Z</time>
      </trkpt>
      <trkpt lat="43.24778" lon="2.87461">
        <ele>30</ele>
        <time>2024-05-10T07:23:46Z</time>
      </trkpt>
      <trkpt lat="43.24774" lon="2.87484">
        <ele>29.5</ele>
        <time>2024-05-10T07:23:47Z</time>
      </trkpt>
      <trkpt lat="43.2477" lon="2.87507">
        <ele>29</ele>
        <time>2024-05-10T07:23:48Z</time>
      </trkpt>
      <trkpt lat="43.24766" lon="2.87529">
        <ele>28.2</ele>
        <time>2024-05-10T07:23:49Z</time>
      </trkpt>
      <trkpt lat="43.2476" lon="2.87552">
        <ele>27.7</ele>
        <time>2024-05-10T07:23:50Z</time>
      </trkpt>
      <trkpt lat="43.24754" lon="2.87574">
        <ele>28.4</ele>
        <time>2024-05-10T07:23:51Z</time>
      </trkpt>
      <trkpt lat="43.24746" lon="2.87596">
        <ele>28.1</ele>
        <time>2024-05-10T07:23:52Z</time>
      </trkpt>
      <trkpt lat="43.24738" lon="2.87618">
        <ele>27.2</ele>
        <time>2024-05-10T07:23:53Z</time>
      </trkpt>
      <trkpt lat="43.2473" lon="2.87639">
        <ele>27.3</ele>
        <time>2024-05-10T07:23:54Z</time>
      </trkpt>
      <trkpt lat="43.24722" lon="2.8766">
        <ele>27.7</ele>
        <time>2024-05-10T07:23:55Z</time>
      </trkpt>
      <trkpt lat="43.24715" lon="2.87681">
        <ele>27.2</ele>
        <time>2024-05-10T07:23:56Z</time>
      </trkpt>
      <trkpt lat="43.24707" lon="2.87701">
        <ele>26.6</ele>
        <time>2024-05-10T07:23:57Z</time>
      </trkpt>
      <trkpt lat="43.247" lon="2.87721">
        <ele>27.1</ele>
        <time>2024-05-10T07:23:58Z</time>
      </trkpt>
      <trkpt lat="43.24692" lon="2.87741">
        <ele>27.5</ele>
        <time>2024-05-10T07:23:59Z</time>
      </trkpt>
      <trkpt lat="43.24684" lon="2.8776">
        <ele>27.4</ele>
        <time>2024-05-10T07:24:00Z</time>
      </trkpt>
      <trkpt lat="43.24677" lon="2.87779">
        <ele>27.4</ele>
        <time>2024-05-10T07:24:01Z</time>
      </trkpt>
      <trkpt lat="43.24669" lon="2.878">
        <ele>27</ele>
        <time>2024-05-10T07:24:02Z</time>
      </trkpt>
      <trkpt lat="43.24662" lon="2.87821">
        <ele>26.8</ele>
        <time>2024-05-10T07:24:03Z</time>
      </trkpt>
      <trkpt lat="43.24655" lon="2.87843">
        <ele>26.6</ele>
        <time>2024-05-10T07:24:04Z</time>
      </trkpt>
      <trkpt lat="43.24649" lon="2.87866">
        <ele>26.5</ele>
        <time>2024-05-10T07:24:05Z</time>
      </trkpt>
      <trkpt lat="43.24643" lon="2.87888">
        <ele>27</ele>
        <time>2024-05-10T07:24:06Z</time>
      </trkpt>
      <trkpt lat="43.24638" lon="2.87911">
        <ele>27</ele>
        <time>2024-05-10T07:24:07Z</time>
      </trkpt>
      <trkpt lat="43.24632" lon="2.87934">
        <ele>26.8</ele>
        <time>2024-05-10T07:24:08Z</time>
      </trkpt>
      <trkpt lat="43.24626" lon="2.87957">
        <ele>26.3</ele>
        <time>2024-05-10T07:24:09Z</time>
      </trkpt>
      <trkpt lat="43.2462" lon="2.87981">
        <ele>26.2</ele>
        <time>2024-05-10T07:24:10Z</time>
      </trkpt>
      <trkpt lat="43.24614" lon="2.88005">
        <ele>26.9</ele>
        <time>2024-05-10T07:24:11Z</time>
      </trkpt>
      <trkpt lat="43.24608" lon="2.88028">
        <ele>26.9</ele>
        <time>2024-05-10T07:24:12Z</time>
      </trkpt>
      <trkpt lat="43.24602" lon="2.88051">
        <ele>26.7</ele>
        <time>2024-05-10T07:24:13Z</time>
      </trkpt>
      <trkpt lat="43.24596" lon="2.88074">
        <ele>26.5</ele>
        <time>2024-05-10T07:24:14Z</time>
      </trkpt>
      <trkpt lat="43.24591" lon="2.88096">
        <ele>26.2</ele>
        <time>2024-05-10T07:24:15Z</time>
      </trkpt>
      <trkpt lat="43.24586" lon="2.88117">
        <ele>26</ele>
        <time>2024-05-10T07:24:16Z</time>
      </trkpt>
      <trkpt lat="43.24581" lon="2.88138">
        <ele>25.9</ele>
        <time>2024-05-10T07:24:17Z</time>
      </trkpt>
      <trkpt lat="43.24575" lon="2.8816">
        <ele>25.7</ele>
        <time>2024-05-10T07:24:18Z</time>
      </trkpt>
      <trkpt lat="43.2457" lon="2.88182">
        <ele>25.2</ele>
        <time>2024-05-10T07:24:19Z</time>
      </trkpt>
      <trkpt lat="43.24564" lon="2.88204">
        <ele>25</ele>
        <time>2024-05-10T07:24:20Z</time>
      </trkpt>
      <trkpt lat="43.24559" lon="2.88226">
        <ele>25</ele>
        <time>2024-05-10T07:24:21Z</time>
      </trkpt>
      <trkpt lat="43.24554" lon="2.88249">
        <ele>24.9</ele>
        <time>2024-05-10T07:24:22Z</time>
      </trkpt>
      <trkpt lat="43.24548" lon="2.88271">
        <ele>24.7</ele>
        <time>2024-05-10T07:24:23Z</time>
      </trkpt>
      <trkpt lat="43.24543" lon="2.88292">
        <ele>24.8</ele>
        <time>2024-05-10T07:24:24Z</time>
      </trkpt>
      <trkpt lat="43.24537" lon="2.88314">
        <ele>25</ele>
        <time>2024-05-10T07:24:25Z</time>
      </trkpt>
      <trkpt lat="43.24532" lon="2.88335">
        <ele>25</ele>
        <time>2024-05-10T07:24:26Z</time>
      </trkpt>
      <trkpt lat="43.24527" lon="2.88356">
        <ele>25</ele>
        <time>2024-05-10T07:24:27Z</time>
      </trkpt>
      <trkpt lat="43.24522" lon="2.88377">
        <ele>24.3</ele>
        <time>2024-05-10T07:24:28Z</time>
      </trkpt>
      <trkpt lat="43.24517" lon="2.88397">
        <ele>23.8</ele>
        <time>2024-05-10T07:24:29Z</time>
      </trkpt>
      <trkpt lat="43.24511" lon="2.88416">
        <ele>23.6</ele>
        <time>2024-05-10T07:24:30Z</time>
      </trkpt>
      <trkpt lat="43.24504" lon="2.88434">
        <ele>23.2</ele>
        <time>2024-05-10T07:24:31Z</time>
      </trkpt>
      <trkpt lat="43.24494" lon="2.8845">
        <ele>22.3</ele>
        <time>2024-05-10T07:24:32Z</time>
      </trkpt>
      <trkpt lat="43.24485" lon="2.88464">
        <ele>21.3</ele>
        <time>2024-05-10T07:24:33Z</time>
      </trkpt>
      <trkpt lat="43.24477" lon="2.88476">
        <ele>20.9</ele>
        <time>2024-05-10T07:24:34Z</time>
      </trkpt>
      <trkpt lat="43.24471" lon="2.88488">
        <ele>20.4</ele>
        <time>2024-05-10T07:24:35Z</time>
      </trkpt>
      <trkpt lat="43.24467" lon="2.88501">
        <ele>20</ele>
        <time>2024-05-10T07:24:36Z</time>
      </trkpt>
      <trkpt lat="43.24463" lon="2.88514">
        <ele>19.7</ele>
        <time>2024-05-10T07:24:37Z</time>
      </trkpt>
      <trkpt lat="43.24459" lon="2.88528">
        <ele>19.5</ele>
        <time>2024-05-10T07:24:38Z</time>
      </trkpt>
      <trkpt lat="43.24457" lon="2.88542">
        <ele>19.3</ele>
        <time>2024-05-10T07:24:39Z</time>
      </trkpt>
      <trkpt lat="43.24456" lon="2.88558">
        <ele>19.2</ele>
        <time>2024-05-10T07:24:40Z</time>
      </trkpt>
      <trkpt lat="43.24456" lon="2.88575">
        <ele>19.8</ele>
        <time>2024-05-10T07:24:41Z</time>
      </trkpt>
      <trkpt lat="43.24455" lon="2.88592">
        <ele>20.4</ele>
        <time>2024-05-10T07:24:42Z</time>
      </trkpt>
      <trkpt lat="43.24456" lon="2.8861">
        <ele>21.2</ele>
        <time>2024-05-10T07:24:43Z</time>
      </trkpt>
      <trkpt lat="43.24457" lon="2.8863">
        <ele>21.4</ele>
        <time>2024-05-10T07:24:44Z</time>
      </trkpt>
      <trkpt lat="43.24459" lon="2.88648">
        <ele>21.9</ele>
        <time>2024-05-10T07:24:45Z</time>
      </trkpt>
      <trkpt lat="43.24461" lon="2.88666">
        <ele>22.8</ele>
        <time>2024-05-10T07:24:46Z</time>
      </trkpt>
      <trkpt lat="43.24463" lon="2.88684">
        <ele>23</ele>
        <time>2024-05-10T07:24:47Z</time>
      </trkpt>
      <trkpt lat="43.24465" lon="2.88702">
        <ele>23.1</ele>
        <time>2024-05-10T07:24:48Z</time>
      </trkpt>
      <trkpt lat="43.24467" lon="2.8872">
        <ele>23.3</ele>
        <time>2024-05-10T07:24:49Z</time>
      </trkpt>
      <trkpt lat="43.24468" lon="2.88738">
        <ele>23.4</ele>
        <time>2024-05-10T07:24:50Z</time>
      </trkpt>
      <trkpt lat="43.24468" lon="2.88754">
        <ele>23.4</ele>
        <time>2024-05-10T07:24:51Z</time>
      </trkpt>
      <trkpt lat="43.24467" lon="2.8877">
        <ele>23.2</ele>
        <time>2024-05-10T07:24:52Z</time>
      </trkpt>
      <trkpt lat="43.24465" lon="2.88785">
        <ele>23</ele>
        <time>2024-05-10T07:24:53Z</time>
      </trkpt>
      <trkpt lat="43.24464" lon="2.88798">
        <ele>22.8</ele>
        <time>2024-05-10T07:24:54Z</time>
      </trkpt>
      <trkpt lat="43.24463" lon="2.88808">
        <ele>22.7</ele>
        <time>2024-05-10T07:24:55Z</time>
      </trkpt>
      <trkpt lat="43.24463" lon="2.88816">
        <ele>22.8</ele>
        <time>2024-05-10T07:24:56Z</time>
      </trkpt>
      <trkpt lat="43.24462" lon="2.88823">
        <ele>22.8</ele>
        <time>2024-05-10T07:24:57Z</time>
      </trkpt>
      <trkpt lat="43.24461" lon="2.88831">
        <ele>22.8</ele>
        <time>2024-05-10T07:24:58Z</time>
      </trkpt>
      <trkpt lat="43.24461" lon="2.88837">
        <ele>22.8</ele>
        <time>2024-05-10T07:24:59Z</time>
      </trkpt>
      <trkpt lat="43.2446" lon="2.88844">
        <ele>22.7</ele>
        <time>2024-05-10T07:25:00Z</time>
      </trkpt>
      <trkpt lat="43.24459" lon="2.8885">
        <ele>22.6</ele>
        <time>2024-05-10T07:25:01Z</time>
      </trkpt>
      <trkpt lat="43.24459" lon="2.88856">
        <ele>22.6</ele>
        <time>2024-05-10T07:25:02Z</time>
      </trkpt>
      <trkpt lat="43.24459" lon="2.88863">
        <ele>22.6</ele>
        <time>2024-05-10T07:25:03Z</time>
      </trkpt>
      <trkpt lat="43.24458" lon="2.88871">
        <ele>22.6</ele>
        <time>2024-05-10T07:25:04Z</time>
      </trkpt>
      <trkpt lat="43.24458" lon="2.8888">
        <ele>22.8</ele>
        <time>2024-05-10T07:25:05Z</time>
      </trkpt>
      <trkpt lat="43.24457" lon="2.88889">
        <ele>22.9</ele>
        <time>2024-05-10T07:25:06Z</time>
      </trkpt>
      <trkpt lat="43.24457" lon="2.88898">
        <ele>23.1</ele>
        <time>2024-05-10T07:25:07Z</time>
      </trkpt>
      <trkpt lat="43.24457" lon="2.88907">
        <ele>23.3</ele>
        <time>2024-05-10T07:25:08Z</time>
      </trkpt>
      <trkpt lat="43.24457" lon="2.88913">
        <ele>23.4</ele>
        <time>2024-05-10T07:25:09Z</time>
      </trkpt>
      <trkpt lat="43.24457" lon="2.88919">
        <ele>23.5</ele>
        <time>2024-05-10T07:25:10Z</time>
      </trkpt>
      <trkpt lat="43.24456" lon="2.88925">
        <ele>23.6</ele>
        <time>2024-05-10T07:25:11Z</time>
      </trkpt>
      <trkpt lat="43.24456" lon="2.88931">
        <ele>23.7</ele>
        <time>2024-05-10T07:25:12Z</time>
      </trkpt>
      <trkpt lat="43.24456" lon="2.88939">
        <ele>23.9</ele>
        <time>2024-05-10T07:25:13Z</time>
      </trkpt>
      <trkpt lat="43.24456" lon="2.88948">
        <ele>24</ele>
        <time>2024-05-10T07:25:14Z</time>
      </trkpt>
      <trkpt lat="43.24456" lon="2.88958">
        <ele>24</ele>
        <time>2024-05-10T07:25:15Z</time>
      </trkpt>
      <trkpt lat="43.24456" lon="2.88969">
        <ele>24</ele>
        <time>2024-05-10T07:25:16Z</time>
      </trkpt>
      <trkpt lat="43.24456" lon="2.8898">
        <ele>24</ele>
        <time>2024-05-10T07:25:17Z</time>
      </trkpt>
      <trkpt lat="43.24457" lon="2.88991">
        <ele>24</ele>
        <time>2024-05-10T07:25:18Z</time>
      </trkpt>
      <trkpt lat="43.24457" lon="2.89003">
        <ele>24</ele>
        <time>2024-05-10T07:25:19Z</time>
      </trkpt>
      <trkpt lat="43.24457" lon="2.89015">
        <ele>24</ele>
        <time>2024-05-10T07:25:20Z</time>
      </trkpt>
      <trkpt lat="43.24458" lon="2.89027">
        <ele>24</ele>
        <time>2024-05-10T07:25:21Z</time>
      </trkpt>
      <trkpt lat="43.24458" lon="2.89041">
        <ele>24</ele>
        <time>2024-05-10T07:25:22Z</time>
      </trkpt>
      <trkpt lat="43.24459" lon="2.89055">
        <ele>24</ele>
        <time>2024-05-10T07:25:23Z</time>
      </trkpt>
      <trkpt lat="43.2446" lon="2.89069">
        <ele>24</ele>
        <time>2024-05-10T07:25:24Z</time>
      </trkpt>
      <trkpt lat="43.24461" lon="2.89082">
        <ele>24</ele>
        <time>2024-05-10T07:25:25Z</time>
      </trkpt>
      <trkpt lat="43.24461" lon="2.89095">
        <ele>24</ele>
        <time>2024-05-10T07:25:26Z</time>
      </trkpt>
      <trkpt lat="43.24462" lon="2.89107">
        <ele>24</ele>
        <time>2024-05-10T07:25:27Z</time>
      </trkpt>
      <trkpt lat="43.24463" lon="2.89118">
        <ele>23.8</ele>
        <time>2024-05-10T07:25:28Z</time>
      </trkpt>
      <trkpt lat="43.24464" lon="2.89129">
        <ele>23.4</ele>
        <time>2024-05-10T07:25:29Z</time>
      </trkpt>
      <trkpt lat="43.24464" lon="2.8914">
        <ele>23</ele>
        <time>2024-05-10T07:25:30Z</time>
      </trkpt>
      <trkpt lat="43.24465" lon="2.8915">
        <ele>22.9</ele>
        <time>2024-05-10T07:25:31Z</time>
      </trkpt>
      <trkpt lat="43.24465" lon="2.8916">
        <ele>22.8</ele>
        <time>2024-05-10T07:25:32Z</time>
      </trkpt>
      <trkpt lat="43.24466" lon="2.8917">
        <ele>22.7</ele>
        <time>2024-05-10T07:25:33Z</time>
      </trkpt>
      <trkpt lat="43.24467" lon="2.8918">
        <ele>22.3</ele>
        <time>2024-05-10T07:25:34Z</time>
      </trkpt>
      <trkpt lat="43.24468" lon="2.89189">
        <ele>22</ele>
        <time>2024-05-10T07:25:35Z</time>
      </trkpt>
      <trkpt lat="43.24469" lon="2.89197">
        <ele>21.8</ele>
        <time>2024-05-10T07:25:36Z</time>
      </trkpt>
      <trkpt lat="43.24469" lon="2.89204">
        <ele>21.5</ele>
        <time>2024-05-10T07:25:37Z</time>
      </trkpt>
      <trkpt lat="43.2447" lon="2.89211">
        <ele>21.3</ele>
        <time>2024-05-10T07:25:38Z</time>
      </trkpt>
      <trkpt lat="43.24471" lon="2.89218">
        <ele>21.1</ele>
        <time>2024-05-10T07:25:39Z</time>
      </trkpt>
      <trkpt lat="43.24472" lon="2.89225">
        <ele>20.9</ele>
        <time>2024-05-10T07:25:40Z</time>
      </trkpt>
      <trkpt lat="43.24473" lon="2.8923">
        <ele>20.8</ele>
        <time>2024-05-10T07:25:41Z</time>
      </trkpt>
      <trkpt lat="43.24473" lon="2.89234">
        <ele>20.6</ele>
        <time>2024-05-10T07:25:42Z</time>
      </trkpt>
      <trkpt lat="43.24473" lon="2.89237">
        <ele>20.5</ele>
        <time>2024-05-10T07:25:43Z</time>
      </trkpt>
      <trkpt lat="43.24474" lon="2.8924">
        <ele>20.5</ele>
        <time>2024-05-10T07:25:44Z</time>
      </trkpt>
      <trkpt lat="43.24474" lon="2.89241">
        <ele>20.5</ele>
        <time>2024-05-10T07:25:45Z</time>
      </trkpt>
      <trkpt lat="43.24474" lon="2.89241">
        <ele>20.5</ele>
        <time>2024-05-10T07:25:46Z</time>
      </trkpt>
      <trkpt lat="43.24474" lon="2.89241">
        <ele>20.5</ele>
        <time>2024-05-10T07:25:47Z</time>
      </trkpt>
      <trkpt lat="43.24475" lon="2.89241">
        <ele>20.6</ele>
        <time>2024-05-10T07:25:48Z</time>
      </trkpt>
      <trkpt lat="43.24475" lon="2.89241">
        <ele>20.6</ele>
        <time>2024-05-10T07:25:49Z</time>
      </trkpt>
      <trkpt lat="43.24475" lon="2.89241">
        <ele>20.6</ele>
        <time>2024-05-10T07:25:50Z</time>
      </trkpt>
      <trkpt lat="43.24475" lon="2.89241">
        <ele>20.6</ele>
        <time>2024-05-10T07:25:51Z</time>
      </trkpt>
      <trkpt lat="43.24475" lon="2.89241">
        <ele>20.6</ele>
        <time>2024-05-10T07:25:52Z</time>
      </trkpt>
      <trkpt lat="43.24476" lon="2.89243">
        <ele>20.6</ele>
        <time>2024-05-10T07:25:53Z</time>
      </trkpt>
      <trkpt lat="43.24477" lon="2.89248">
        <ele>20.4</ele>
        <time>2024-05-10T07:25:54Z</time>
      </trkpt>
      <trkpt lat="43.2448" lon="2.89256">
        <ele>20.4</ele>
        <time>2024-05-10T07:25:55Z</time>
      </trkpt>
      <trkpt lat="43.24484" lon="2.89266">
        <ele>20.4</ele>
        <time>2024-05-10T07:25:56Z</time>
      </trkpt>
      <trkpt lat="43.24487" lon="2.89276">
        <ele>20.1</ele>
        <time>2024-05-10T07:25:57Z</time>
      </trkpt>
      <trkpt lat="43.2449" lon="2.89286">
        <ele>20.2</ele>
        <time>2024-05-10T07:25:58Z</time>
      </trkpt>
      <trkpt lat="43.24492" lon="2.89295">
        <ele>20.4</ele>
        <time>2024-05-10T07:25:59Z</time>
      </trkpt>
      <trkpt lat="43.24494" lon="2.89306">
        <ele>20.8</ele>
        <time>2024-05-10T07:26:00Z</time>
      </trkpt>
      <trkpt lat="43.24496" lon="2.89317">
        <ele>20.9</ele>
        <time>2024-05-10T07:26:01Z</time>
      </trkpt>
      <trkpt lat="43.24497" lon="2.89328">
        <ele>21</ele>
        <time>2024-05-10T07:26:02Z</time>
      </trkpt>
      <trkpt lat="43.24497" lon="2.89338">
        <ele>21</ele>
        <time>2024-05-10T07:26:03Z</time>
      </trkpt>
      <trkpt lat="43.24497" lon="2.89348">
        <ele>21</ele>
        <time>2024-05-10T07:26:04Z</time>
      </trkpt>
      <trkpt lat="43.24496" lon="2.89357">
        <ele>21</ele>
        <time>2024-05-10T07:26:05Z</time>
      </trkpt>
      <trkpt lat="43.24494" lon="2.89365">
        <ele>21.1</ele>
        <time>2024-05-10T07:26:06Z</time>
      </trkpt>
      <trkpt lat="43.24491" lon="2.89373">
        <ele>21.4</ele>
        <time>2024-05-10T07:26:07Z</time>
      </trkpt>
      <trkpt lat="43.24486" lon="2.8938">
        <ele>21.7</ele>
        <time>2024-05-10T07:26:08Z</time>
      </trkpt>
      <trkpt lat="43.24481" lon="2.89388">
        <ele>22</ele>
        <time>2024-05-10T07:26:09Z</time>
      </trkpt>
      <trkpt lat="43.24475" lon="2.89395">
        <ele>22.2</ele>
        <time>2024-05-10T07:26:10Z</time>
      </trkpt>
      <trkpt lat="43.2447" lon="2.894">
        <ele>22.5</ele>
        <time>2024-05-10T07:26:11Z</time>
      </trkpt>
      <trkpt lat="43.24465" lon="2.89406">
        <ele>22.9</ele>
        <time>2024-05-10T07:26:12Z</time>
      </trkpt>
      <trkpt lat="43.24461" lon="2.89413">
        <ele>23.3</ele>
        <time>2024-05-10T07:26:13Z</time>
      </trkpt>
      <trkpt lat="43.24458" lon="2.89421">
        <ele>23.6</ele>
        <time>2024-05-10T07:26:14Z</time>
      </trkpt>
      <trkpt lat="43.24456" lon="2.8943">
        <ele>23.8</ele>
        <time>2024-05-10T07:26:15Z</time>
      </trkpt>
      <trkpt lat="43.24455" lon="2.89441">
        <ele>24</ele>
        <time>2024-05-10T07:26:16Z</time>
      </trkpt>
      <trkpt lat="43.24453" lon="2.89451">
        <ele>24</ele>
        <time>2024-05-10T07:26:17Z</time>
      </trkpt>
      <trkpt lat="43.24451" lon="2.89459">
        <ele>24</ele>
        <time>2024-05-10T07:26:18Z</time>
      </trkpt>
      <trkpt lat="43.24448" lon="2.89468">
        <ele>24</ele>
        <time>2024-05-10T07:26:19Z</time>
      </trkpt>
      <trkpt lat="43.24445" lon="2.89476">
        <ele>24</ele>
        <time>2024-05-10T07:26:20Z</time>
      </trkpt>
      <trkpt lat="43.24442" lon="2.89483">
        <ele>24</ele>
        <time>2024-05-10T07:26:21Z</time>
      </trkpt>
      <trkpt lat="43.2444" lon="2.8949">
        <ele>24</ele>
        <time>2024-05-10T07:26:22Z</time>
      </trkpt>
      <trkpt lat="43.24437" lon="2.89497">
        <ele>24</ele>
        <time>2024-05-10T07:26:23Z</time>
      </trkpt>
      <trkpt lat="43.24435" lon="2.89504">
        <ele>24</ele>
        <time>2024-05-10T07:26:24Z</time>
      </trkpt>
      <trkpt lat="43.24432" lon="2.89512">
        <ele>24</ele>
        <time>2024-05-10T07:26:25Z</time>
      </trkpt>
      <trkpt lat="43.2443" lon="2.89521">
        <ele>24</ele>
        <time>2024-05-10T07:26:26Z</time>
      </trkpt>
      <trkpt lat="43.24427" lon="2.89529">
        <ele>24</ele>
        <time>2024-05-10T07:26:27Z</time>
      </trkpt>
      <trkpt lat="43.24425" lon="2.89537">
        <ele>24</ele>
        <time>2024-05-10T07:26:28Z</time>
      </trkpt>
      <trkpt lat="43.24423" lon="2.89544">
        <ele>24</ele>
        <time>2024-05-10T07:26:29Z</time>
      </trkpt>
      <trkpt lat="43.2442" lon="2.8955">
        <ele>24</ele>
        <time>2024-05-10T07:26:30Z</time>
      </trkpt>
      <trkpt lat="43.24419" lon="2.89556">
        <ele>24</ele>
        <time>2024-05-10T07:26:31Z</time>
      </trkpt>
      <trkpt lat="43.24417" lon="2.89561">
        <ele>24</ele>
        <time>2024-05-10T07:26:32Z</time>
      </trkpt>
      <trkpt lat="43.24417" lon="2.89567">
        <ele>24</ele>
        <time>2024-05-10T07:26:33Z</time>
      </trkpt>
      <trkpt lat="43.24416" lon="2.89572">
        <ele>24</ele>
        <time>2024-05-10T07:26:34Z</time>
      </trkpt>
      <trkpt lat="43.24415" lon="2.89579">
        <ele>24</ele>
        <time>2024-05-10T07:26:35Z</time>
      </trkpt>
      <trkpt lat="43.24415" lon="2.89589">
        <ele>24</ele>
        <time>2024-05-10T07:26:36Z</time>
      </trkpt>
      <trkpt lat="43.24415" lon="2.89598">
        <ele>24</ele>
        <time>2024-05-10T07:26:37Z</time>
      </trkpt>
      <trkpt lat="43.24414" lon="2.89607">
        <ele>24</ele>
        <time>2024-05-10T07:26:38Z</time>
      </trkpt>
      <trkpt lat="43.24414" lon="2.89618">
        <ele>24</ele>
        <time>2024-05-10T07:26:39Z</time>
      </trkpt>
      <trkpt lat="43.24415" lon="2.89629">
        <ele>24</ele>
        <time>2024-05-10T07:26:40Z</time>
      </trkpt>
      <trkpt lat="43.24415" lon="2.8964">
        <ele>24</ele>
        <time>2024-05-10T07:26:41Z</time>
      </trkpt>
      <trkpt lat="43.24415" lon="2.8965">
        <ele>24</ele>
        <time>2024-05-10T07:26:42Z</time>
      </trkpt>
      <trkpt lat="43.24415" lon="2.89661">
        <ele>24</ele>
        <time>2024-05-10T07:26:43Z</time>
      </trkpt>
      <trkpt lat="43.24416" lon="2.89671">
        <ele>24</ele>
        <time>2024-05-10T07:26:44Z</time>
      </trkpt>
      <trkpt lat="43.24416" lon="2.89681">
        <ele>24</ele>
        <time>2024-05-10T07:26:45Z</time>
      </trkpt>
      <trkpt lat="43.24417" lon="2.8969">
        <ele>24</ele>
        <time>2024-05-10T07:26:46Z</time>
      </trkpt>
      <trkpt lat="43.24417" lon="2.89698">
        <ele>24</ele>
        <time>2024-05-10T07:26:47Z</time>
      </trkpt>
      <trkpt lat="43.24417" lon="2.89707">
        <ele>24</ele>
        <time>2024-05-10T07:26:48Z</time>
      </trkpt>
      <trkpt lat="43.24416" lon="2.89715">
        <ele>24</ele>
        <time>2024-05-10T07:26:49Z</time>
      </trkpt>
      <trkpt lat="43.24415" lon="2.89722">
        <ele>24</ele>
        <time>2024-05-10T07:26:50Z</time>
      </trkpt>
      <trkpt lat="43.24415" lon="2.89729">
        <ele>24</ele>
        <time>2024-05-10T07:26:51Z</time>
      </trkpt>
      <trkpt lat="43.24416" lon="2.89736">
        <ele>24</ele>
        <time>2024-05-10T07:26:52Z</time>
      </trkpt>
      <trkpt lat="43.24416" lon="2.89742">
        <ele>24</ele>
        <time>2024-05-10T07:26:53Z</time>
      </trkpt>
      <trkpt lat="43.24416" lon="2.89745">
        <ele>24</ele>
        <time>2024-05-10T07:26:54Z</time>
      </trkpt>
      <trkpt lat="43.24416" lon="2.89749">
        <ele>24</ele>
        <time>2024-05-10T07:26:55Z</time>
      </trkpt>
      <trkpt lat="43.24416" lon="2.89752">
        <ele>24</ele>
        <time>2024-05-10T07:26:56Z</time>
      </trkpt>
      <trkpt lat="43.24416" lon="2.89756">
        <ele>24</ele>
        <time>2024-05-10T07:26:57Z</time>
      </trkpt>
      <trkpt lat="43.24417" lon="2.8976">
        <ele>24</ele>
        <time>2024-05-10T07:26:58Z</time>
      </trkpt>
      <trkpt lat="43.24417" lon="2.89762">
        <ele>24</ele>
        <time>2024-05-10T07:26:59Z</time>
      </trkpt>
      <trkpt lat="43.24418" lon="2.89764">
        <ele>24</ele>
        <time>2024-05-10T07:27:00Z</time>
      </trkpt>
      <trkpt lat="43.24418" lon="2.89764">
        <ele>24</ele>
        <time>2024-05-10T07:27:01Z</time>
      </trkpt>
      <trkpt lat="43.24418" lon="2.89764">
        <ele>24</ele>
        <time>2024-05-10T07:27:02Z</time>
      </trkpt>
      <trkpt lat="43.24418" lon="2.89764">
        <ele>24</ele>
        <time>2024-05-10T07:27:03Z</time>
      </trkpt>
      <trkpt lat="43.24418" lon="2.89764">
        <ele>24</ele>
        <time>2024-05-10T07:27:04Z</time>
      </trkpt>
      <trkpt lat="43.24418" lon="2.89766">
        <ele>24</ele>
        <time>2024-05-10T07:27:05Z</time>
      </trkpt>
      <trkpt lat="43.24418" lon="2.89769">
        <ele>24</ele>
        <time>2024-05-10T07:27:06Z</time>
      </trkpt>
      <trkpt lat="43.24419" lon="2.89774">
        <ele>24</ele>
        <time>2024-05-10T07:27:07Z</time>
      </trkpt>
      <trkpt lat="43.2442" lon="2.89782">
        <ele>24</ele>
        <time>2024-05-10T07:27:08Z</time>
      </trkpt>
      <trkpt lat="43.2442" lon="2.89789">
        <ele>24</ele>
        <time>2024-05-10T07:27:09Z</time>
      </trkpt>
      <trkpt lat="43.2442" lon="2.89795">
        <ele>24</ele>
        <time>2024-05-10T07:27:10Z</time>
      </trkpt>
      <trkpt lat="43.24419" lon="2.89801">
        <ele>24</ele>
        <time>2024-05-10T07:27:11Z</time>
      </trkpt>
      <trkpt lat="43.2442" lon="2.89806">
        <ele>24</ele>
        <time>2024-05-10T07:27:12Z</time>
      </trkpt>
      <trkpt lat="43.2442" lon="2.8981">
        <ele>23.9</ele>
        <time>2024-05-10T07:27:13Z</time>
      </trkpt>
      <trkpt lat="43.24421" lon="2.89815">
        <ele>23.7</ele>
        <time>2024-05-10T07:27:14Z</time>
      </trkpt>
      <trkpt lat="43.24422" lon="2.89819">
        <ele>23.6</ele>
        <time>2024-05-10T07:27:15Z</time>
      </trkpt>
      <trkpt lat="43.24422" lon="2.89823">
        <ele>23.5</ele>
        <time>2024-05-10T07:27:16Z</time>
      </trkpt>
      <trkpt lat="43.24422" lon="2.89826">
        <ele>23.4</ele>
        <time>2024-05-10T07:27:17Z</time>
      </trkpt>
      <trkpt lat="43.24422" lon="2.8983">
        <ele>23.3</ele>
        <time>2024-05-10T07:27:18Z</time>
      </trkpt>
      <trkpt lat="43.24422" lon="2.89833">
        <ele>23.2</ele>
        <time>2024-05-10T07:27:19Z</time>
      </trkpt>
      <trkpt lat="43.24422" lon="2.89835">
        <ele>23.2</ele>
        <time>2024-05-10T07:27:20Z</time>
      </trkpt>
      <trkpt lat="43.24423" lon="2.89837">
        <ele>23.2</ele>
        <time>2024-05-10T07:27:21Z</time>
      </trkpt>
      <trkpt lat="43.24423" lon="2.89839">
        <ele>23.2</ele>
        <time>2024-05-10T07:27:22Z</time>
      </trkpt>
      <trkpt lat="43.24423" lon="2.8984">
        <ele>23.2</ele>
        <time>2024-05-10T07:27:23Z</time>
      </trkpt>
      <trkpt lat="43.24423" lon="2.8984">
        <ele>23.2</ele>
        <time>2024-05-10T07:27:24Z</time>
      </trkpt>
      <trkpt lat="43.24423" lon="2.89839">
        <ele>23.2</ele>
        <time>2024-05-10T07:27:25Z</time>
      </trkpt>
      <trkpt lat="43.24423" lon="2.89839">
        <ele>23.2</ele>
        <time>2024-05-10T07:27:26Z</time>
      </trkpt>
      <trkpt lat="43.24423" lon="2.89839">
        <ele>23.2</ele>
        <time>2024-05-10T07:27:27Z</time>
      </trkpt>
      <trkpt lat="43.24423" lon="2.89839">
        <ele>23.2</ele>
        <time>2024-05-10T07:27:28Z</time>
      </trkpt>
      <trkpt lat="43.24423" lon="2.89839">
        <ele>23.2</ele>
        <time>2024-05-10T07:27:29Z</time>
      </trkpt>
      <trkpt lat="43.24423" lon="2.89839">
        <ele>23.2</ele>
        <time>2024-05-10T07:27:30Z</time>
      </trkpt>
      <trkpt lat="43.24423" lon="2.89839">
        <ele>23.2</ele>
        <time>2024-05-10T07:27:31Z</time>
      </trkpt>
      <trkpt lat="43.24423" lon="2.89839">
        <ele>23.2</ele>
        <time>2024-05-10T07:27:32Z</time>
      </trkpt>
      <trkpt lat="43.24423" lon="2.89839">
        <ele>23.2</ele>
        <time>2024-05-10T07:27:33Z</time>
      </trkpt>
      <trkpt lat="43.24423" lon="2.89839">
        <ele>23.2</ele>
        <time>2024-05-10T07:27:34Z</time>
      </trkpt>
      <trkpt lat="43.24423" lon="2.8984">
        <ele>23.2</ele>
        <time>2024-05-10T07:27:35Z</time>
      </trkpt>
      <trkpt lat="43.24423" lon="2.89842">
        <ele>23.2</ele>
        <time>2024-05-10T07:27:36Z</time>
      </trkpt>
      <trkpt lat="43.24423" lon="2.89847">
        <ele>23.2</ele>
        <time>2024-05-10T07:27:37Z</time>
      </trkpt>
      <trkpt lat="43.24424" lon="2.89859">
        <ele>23.3</ele>
        <time>2024-05-10T07:27:38Z</time>
      </trkpt>
      <trkpt lat="43.24424" lon="2.89869">
        <ele>23.3</ele>
        <time>2024-05-10T07:27:39Z</time>
      </trkpt>
      <trkpt lat="43.24425" lon="2.8988">
        <ele>23.3</ele>
        <time>2024-05-10T07:27:40Z</time>
      </trkpt>
      <trkpt lat="43.24426" lon="2.89891">
        <ele>23.3</ele>
        <time>2024-05-10T07:27:41Z</time>
      </trkpt>
      <trkpt lat="43.24427" lon="2.89905">
        <ele>23.4</ele>
        <time>2024-05-10T07:27:42Z</time>
      </trkpt>
      <trkpt lat="43.24428" lon="2.8992">
        <ele>23.4</ele>
        <time>2024-05-10T07:27:43Z</time>
      </trkpt>
      <trkpt lat="43.2443" lon="2.89935">
        <ele>23.5</ele>
        <time>2024-05-10T07:27:44Z</time>
      </trkpt>
      <trkpt lat="43.24431" lon="2.89951">
        <ele>23.5</ele>
        <time>2024-05-10T07:27:45Z</time>
      </trkpt>
      <trkpt lat="43.24433" lon="2.89968">
        <ele>23.6</ele>
        <time>2024-05-10T07:27:46Z</time>
      </trkpt>
      <trkpt lat="43.24434" lon="2.89986">
        <ele>23.3</ele>
        <time>2024-05-10T07:27:47Z</time>
      </trkpt>
      <trkpt lat="43.24436" lon="2.90005">
        <ele>23.1</ele>
        <time>2024-05-10T07:27:48Z</time>
      </trkpt>
      <trkpt lat="43.24437" lon="2.90024">
        <ele>23.6</ele>
        <time>2024-05-10T07:27:49Z</time>
      </trkpt>
      <trkpt lat="43.24439" lon="2.90043">
        <ele>23.4</ele>
        <time>2024-05-10T07:27:50Z</time>
      </trkpt>
      <trkpt lat="43.24442" lon="2.90064">
        <ele>23</ele>
        <time>2024-05-10T07:27:51Z</time>
      </trkpt>
      <trkpt lat="43.24446" lon="2.90085">
        <ele>23</ele>
        <time>2024-05-10T07:27:52Z</time>
      </trkpt>
      <trkpt lat="43.24449" lon="2.90107">
        <ele>23</ele>
        <time>2024-05-10T07:27:53Z</time>
      </trkpt>
      <trkpt lat="43.24451" lon="2.90127">
        <ele>23</ele>
        <time>2024-05-10T07:27:54Z</time>
      </trkpt>
      <trkpt lat="43.24454" lon="2.90144">
        <ele>23</ele>
        <time>2024-05-10T07:27:55Z</time>
      </trkpt>
      <trkpt lat="43.24456" lon="2.90159">
        <ele>23</ele>
        <time>2024-05-10T07:27:56Z</time>
      </trkpt>
      <trkpt lat="43.24458" lon="2.90173">
        <ele>23</ele>
        <time>2024-05-10T07:27:57Z</time>
      </trkpt>
      <trkpt lat="43.2446" lon="2.90187">
        <ele>23</ele>
        <time>2024-05-10T07:27:58Z</time>
      </trkpt>
      <trkpt lat="43.24461" lon="2.90198">
        <ele>23</ele>
        <time>2024-05-10T07:27:59Z</time>
      </trkpt>
      <trkpt lat="43.24463" lon="2.90209">
        <ele>23</ele>
        <time>2024-05-10T07:28:00Z</time>
      </trkpt>
      <trkpt lat="43.24464" lon="2.90219">
        <ele>23</ele>
        <time>2024-05-10T07:28:01Z</time>
      </trkpt>
      <trkpt lat="43.24466" lon="2.90231">
        <ele>23</ele>
        <time>2024-05-10T07:28:02Z</time>
      </trkpt>
      <trkpt lat="43.24468" lon="2.90243">
        <ele>23</ele>
        <time>2024-05-10T07:28:03Z</time>
      </trkpt>
      <trkpt lat="43.2447" lon="2.90255">
        <ele>23</ele>
        <time>2024-05-10T07:28:04Z</time>
      </trkpt>
      <trkpt lat="43.24472" lon="2.90267">
        <ele>23</ele>
        <time>2024-05-10T07:28:05Z</time>
      </trkpt>
      <trkpt lat="43.24474" lon="2.90279">
        <ele>23</ele>
        <time>2024-05-10T07:28:06Z</time>
      </trkpt>
      <trkpt lat="43.24476" lon="2.90294">
        <ele>23</ele>
        <time>2024-05-10T07:28:07Z</time>
      </trkpt>
      <trkpt lat="43.24478" lon="2.9031">
        <ele>23</ele>
        <time>2024-05-10T07:28:08Z</time>
      </trkpt>
      <trkpt lat="43.2448" lon="2.90326">
        <ele>23</ele>
        <time>2024-05-10T07:28:09Z</time>
      </trkpt>
      <trkpt lat="43.24482" lon="2.90342">
        <ele>23.1</ele>
        <time>2024-05-10T07:28:10Z</time>
      </trkpt>
      <trkpt lat="43.24483" lon="2.90357">
        <ele>23.3</ele>
        <time>2024-05-10T07:28:11Z</time>
      </trkpt>
      <trkpt lat="43.24484" lon="2.90369">
        <ele>23.4</ele>
        <time>2024-05-10T07:28:12Z</time>
      </trkpt>
      <trkpt lat="43.24484" lon="2.9038">
        <ele>23.4</ele>
        <time>2024-05-10T07:28:13Z</time>
      </trkpt>
      <trkpt lat="43.24484" lon="2.9039">
        <ele>23.4</ele>
        <time>2024-05-10T07:28:14Z</time>
      </trkpt>
      <trkpt lat="43.24484" lon="2.904">
        <ele>23.4</ele>
        <time>2024-05-10T07:28:15Z</time>
      </trkpt>
      <trkpt lat="43.24485" lon="2.90409">
        <ele>23.5</ele>
        <time>2024-05-10T07:28:16Z</time>
      </trkpt>
      <trkpt lat="43.24484" lon="2.90419">
        <ele>23.5</ele>
        <time>2024-05-10T07:28:17Z</time>
      </trkpt>
      <trkpt lat="43.24485" lon="2.90431">
        <ele>23.7</ele>
        <time>2024-05-10T07:28:18Z</time>
      </trkpt>
      <trkpt lat="43.24485" lon="2.90444">
        <ele>24</ele>
        <time>2024-05-10T07:28:19Z</time>
      </trkpt>
      <trkpt lat="43.24485" lon="2.9046">
        <ele>24</ele>
        <time>2024-05-10T07:28:20Z</time>
      </trkpt>
      <trkpt lat="43.24485" lon="2.90476">
        <ele>24</ele>
        <time>2024-05-10T07:28:21Z</time>
      </trkpt>
      <trkpt lat="43.24485" lon="2.90492">
        <ele>24</ele>
        <time>2024-05-10T07:28:22Z</time>
      </trkpt>
      <trkpt lat="43.24486" lon="2.9051">
        <ele>24</ele>
        <time>2024-05-10T07:28:23Z</time>
      </trkpt>
      <trkpt lat="43.24485" lon="2.9053">
        <ele>24</ele>
        <time>2024-05-10T07:28:24Z</time>
      </trkpt>
      <trkpt lat="43.24485" lon="2.90551">
        <ele>24</ele>
        <time>2024-05-10T07:28:25Z</time>
      </trkpt>
      <trkpt lat="43.24485" lon="2.90574">
        <ele>24</ele>
        <time>2024-05-10T07:28:26Z</time>
      </trkpt>
      <trkpt lat="43.24485" lon="2.90597">
        <ele>24</ele>
        <time>2024-05-10T07:28:27Z</time>
      </trkpt>
      <trkpt lat="43.24486" lon="2.90621">
        <ele>24</ele>
        <time>2024-05-10T07:28:28Z</time>
      </trkpt>
      <trkpt lat="43.24486" lon="2.90646">
        <ele>23.7</ele>
        <time>2024-05-10T07:28:29Z</time>
      </trkpt>
      <trkpt lat="43.24486" lon="2.90671">
        <ele>23</ele>
        <time>2024-05-10T07:28:30Z</time>
      </trkpt>
      <trkpt lat="43.24486" lon="2.90696">
        <ele>23</ele>
        <time>2024-05-10T07:28:31Z</time>
      </trkpt>
      <trkpt lat="43.24486" lon="2.9072">
        <ele>23</ele>
        <time>2024-05-10T07:28:32Z</time>
      </trkpt>
      <trkpt lat="43.24486" lon="2.90743">
        <ele>23</ele>
        <time>2024-05-10T07:28:33Z</time>
      </trkpt>
      <trkpt lat="43.24484" lon="2.90767">
        <ele>23</ele>
        <time>2024-05-10T07:28:34Z</time>
      </trkpt>
      <trkpt lat="43.24481" lon="2.9079">
        <ele>23</ele>
        <time>2024-05-10T07:28:35Z</time>
      </trkpt>
      <trkpt lat="43.24475" lon="2.90814">
        <ele>23</ele>
        <time>2024-05-10T07:28:36Z</time>
      </trkpt>
      <trkpt lat="43.24468" lon="2.90839">
        <ele>23</ele>
        <time>2024-05-10T07:28:37Z</time>
      </trkpt>
      <trkpt lat="43.24461" lon="2.90864">
        <ele>23</ele>
        <time>2024-05-10T07:28:38Z</time>
      </trkpt>
      <trkpt lat="43.24454" lon="2.90891">
        <ele>23</ele>
        <time>2024-05-10T07:28:39Z</time>
      </trkpt>
      <trkpt lat="43.24446" lon="2.90916">
        <ele>23</ele>
        <time>2024-05-10T07:28:40Z</time>
      </trkpt>
      <trkpt lat="43.24439" lon="2.90943">
        <ele>22.8</ele>
        <time>2024-05-10T07:28:41Z</time>
      </trkpt>
      <trkpt lat="43.24431" lon="2.90969">
        <ele>22.9</ele>
        <time>2024-05-10T07:28:42Z</time>
      </trkpt>
      <trkpt lat="43.24424" lon="2.90996">
        <ele>22.8</ele>
        <time>2024-05-10T07:28:43Z</time>
      </trkpt>
      <trkpt lat="43.24416" lon="2.91023">
        <ele>23</ele>
        <time>2024-05-10T07:28:44Z</time>
      </trkpt>
      <trkpt lat="43.24409" lon="2.9105">
        <ele>22.1</ele>
        <time>2024-05-10T07:28:45Z</time>
      </trkpt>
      <trkpt lat="43.24402" lon="2.91076">
        <ele>22</ele>
        <time>2024-05-10T07:28:46Z</time>
      </trkpt>
      <trkpt lat="43.24394" lon="2.91102">
        <ele>22</ele>
        <time>2024-05-10T07:28:47Z</time>
      </trkpt>
      <trkpt lat="43.24387" lon="2.91128">
        <ele>22</ele>
        <time>2024-05-10T07:28:48Z</time>
      </trkpt>
      <trkpt lat="43.24379" lon="2.91156">
        <ele>22</ele>
        <time>2024-05-10T07:28:49Z</time>
      </trkpt>
      <trkpt lat="43.24371" lon="2.91184">
        <ele>22</ele>
        <time>2024-05-10T07:28:50Z</time>
      </trkpt>
      <trkpt lat="43.24362" lon="2.91209">
        <ele>22</ele>
        <time>2024-05-10T07:28:51Z</time>
      </trkpt>
      <trkpt lat="43.24354" lon="2.91232">
        <ele>21.7</ele>
        <time>2024-05-10T07:28:52Z</time>
      </trkpt>
      <trkpt lat="43.24346" lon="2.91253">
        <ele>21.5</ele>
        <time>2024-05-10T07:28:53Z</time>
      </trkpt>
      <trkpt lat="43.24341" lon="2.91275">
        <ele>21.7</ele>
        <time>2024-05-10T07:28:54Z</time>
      </trkpt>
      <trkpt lat="43.24338" lon="2.91296">
        <ele>21.3</ele>
        <time>2024-05-10T07:28:55Z</time>
      </trkpt>
      <trkpt lat="43.24337" lon="2.91318">
        <ele>21.1</ele>
        <time>2024-05-10T07:28:56Z</time>
      </trkpt>
      <trkpt lat="43.24336" lon="2.91339">
        <ele>21.1</ele>
        <time>2024-05-10T07:28:57Z</time>
      </trkpt>
      <trkpt lat="43.24336" lon="2.9136">
        <ele>21</ele>
        <time>2024-05-10T07:28:58Z</time>
      </trkpt>
      <trkpt lat="43.24335" lon="2.91382">
        <ele>21</ele>
        <time>2024-05-10T07:28:59Z</time>
      </trkpt>
      <trkpt lat="43.24333" lon="2.91404">
        <ele>21</ele>
        <time>2024-05-10T07:29:00Z</time>
      </trkpt>
      <trkpt lat="43.24331" lon="2.91427">
        <ele>20.9</ele>
        <time>2024-05-10T07:29:01Z</time>
      </trkpt>
      <trkpt lat="43.24327" lon="2.91451">
        <ele>20.5</ele>
        <time>2024-05-10T07:29:02Z</time>
      </trkpt>
      <trkpt lat="43.24323" lon="2.91475">
        <ele>20.3</ele>
        <time>2024-05-10T07:29:03Z</time>
      </trkpt>
      <trkpt lat="43.24319" lon="2.915">
        <ele>20</ele>
        <time>2024-05-10T07:29:04Z</time>
      </trkpt>
      <trkpt lat="43.24315" lon="2.91525">
        <ele>18.8</ele>
        <time>2024-05-10T07:29:05Z</time>
      </trkpt>
      <trkpt lat="43.24311" lon="2.9155">
        <ele>18.2</ele>
        <time>2024-05-10T07:29:06Z</time>
      </trkpt>
      <trkpt lat="43.24309" lon="2.91576">
        <ele>18.1</ele>
        <time>2024-05-10T07:29:07Z</time>
      </trkpt>
      <trkpt lat="43.24307" lon="2.91602">
        <ele>17.4</ele>
        <time>2024-05-10T07:29:08Z</time>
      </trkpt>
      <trkpt lat="43.24306" lon="2.91628">
        <ele>17</ele>
        <time>2024-05-10T07:29:09Z</time>
      </trkpt>
      <trkpt lat="43.24305" lon="2.91656">
        <ele>17</ele>
        <time>2024-05-10T07:29:10Z</time>
      </trkpt>
      <trkpt lat="43.24306" lon="2.91686">
        <ele>17</ele>
        <time>2024-05-10T07:29:11Z</time>
      </trkpt>
      <trkpt lat="43.24308" lon="2.9172">
        <ele>17.1</ele>
        <time>2024-05-10T07:29:12Z</time>
      </trkpt>
      <trkpt lat="43.24311" lon="2.91756">
        <ele>17</ele>
        <time>2024-05-10T07:29:13Z</time>
      </trkpt>
      <trkpt lat="43.24313" lon="2.9179">
        <ele>17</ele>
        <time>2024-05-10T07:29:14Z</time>
      </trkpt>
      <trkpt lat="43.24314" lon="2.91823">
        <ele>17</ele>
        <time>2024-05-10T07:29:15Z</time>
      </trkpt>
      <trkpt lat="43.24315" lon="2.91854">
        <ele>16.5</ele>
        <time>2024-05-10T07:29:16Z</time>
      </trkpt>
      <trkpt lat="43.24317" lon="2.91884">
        <ele>16.4</ele>
        <time>2024-05-10T07:29:17Z</time>
      </trkpt>
      <trkpt lat="43.24317" lon="2.91911">
        <ele>16.7</ele>
        <time>2024-05-10T07:29:18Z</time>
      </trkpt>
      <trkpt lat="43.24316" lon="2.91934">
        <ele>16.8</ele>
        <time>2024-05-10T07:29:19Z</time>
      </trkpt>
      <trkpt lat="43.24315" lon="2.91954">
        <ele>16.7</ele>
        <time>2024-05-10T07:29:20Z</time>
      </trkpt>
      <trkpt lat="43.24314" lon="2.91974">
        <ele>16.7</ele>
        <time>2024-05-10T07:29:21Z</time>
      </trkpt>
      <trkpt lat="43.24312" lon="2.91992">
        <ele>17</ele>
        <time>2024-05-10T07:29:22Z</time>
      </trkpt>
      <trkpt lat="43.2431" lon="2.92007">
        <ele>17.2</ele>
        <time>2024-05-10T07:29:23Z</time>
      </trkpt>
      <trkpt lat="43.2431" lon="2.92017">
        <ele>17.3</ele>
        <time>2024-05-10T07:29:24Z</time>
      </trkpt>
      <trkpt lat="43.24309" lon="2.92026">
        <ele>17.2</ele>
        <time>2024-05-10T07:29:25Z</time>
      </trkpt>
      <trkpt lat="43.24308" lon="2.92035">
        <ele>17.2</ele>
        <time>2024-05-10T07:29:26Z</time>
      </trkpt>
      <trkpt lat="43.24306" lon="2.92043">
        <ele>17</ele>
        <time>2024-05-10T07:29:27Z</time>
      </trkpt>
      <trkpt lat="43.24305" lon="2.92052">
        <ele>17</ele>
        <time>2024-05-10T07:29:28Z</time>
      </trkpt>
      <trkpt lat="43.24304" lon="2.92061">
        <ele>17.2</ele>
        <time>2024-05-10T07:29:29Z</time>
      </trkpt>
      <trkpt lat="43.24303" lon="2.9207">
        <ele>17.5</ele>
        <time>2024-05-10T07:29:30Z</time>
      </trkpt>
      <trkpt lat="43.24302" lon="2.92079">
        <ele>17.7</ele>
        <time>2024-05-10T07:29:31Z</time>
      </trkpt>
      <trkpt lat="43.24302" lon="2.92089">
        <ele>17.9</ele>
        <time>2024-05-10T07:29:32Z</time>
      </trkpt>
      <trkpt lat="43.24301" lon="2.92099">
        <ele>17.8</ele>
        <time>2024-05-10T07:29:33Z</time>
      </trkpt>
      <trkpt lat="43.243" lon="2.92108">
        <ele>17.8</ele>
        <time>2024-05-10T07:29:34Z</time>
      </trkpt>
      <trkpt lat="43.24299" lon="2.92118">
        <ele>18.2</ele>
        <time>2024-05-10T07:29:35Z</time>
      </trkpt>
      <trkpt lat="43.24298" lon="2.92127">
        <ele>18.7</ele>
        <time>2024-05-10T07:29:36Z</time>
      </trkpt>
      <trkpt lat="43.24297" lon="2.92135">
        <ele>19.1</ele>
        <time>2024-05-10T07:29:37Z</time>
      </trkpt>
      <trkpt lat="43.24296" lon="2.92144">
        <ele>19.3</ele>
        <time>2024-05-10T07:29:38Z</time>
      </trkpt>
      <trkpt lat="43.24295" lon="2.92153">
        <ele>19.2</ele>
        <time>2024-05-10T07:29:39Z</time>
      </trkpt>
      <trkpt lat="43.24295" lon="2.92162">
        <ele>19.2</ele>
        <time>2024-05-10T07:29:40Z</time>
      </trkpt>
      <trkpt lat="43.24294" lon="2.9217">
        <ele>19.4</ele>
        <time>2024-05-10T07:29:41Z</time>
      </trkpt>
      <trkpt lat="43.24293" lon="2.92177">
        <ele>19.7</ele>
        <time>2024-05-10T07:29:42Z</time>
      </trkpt>
      <trkpt lat="43.24292" lon="2.92183">
        <ele>19.9</ele>
        <time>2024-05-10T07:29:43Z</time>
      </trkpt>
      <trkpt lat="43.2429" lon="2.92189">
        <ele>20</ele>
        <time>2024-05-10T07:29:44Z</time>
      </trkpt>
      <trkpt lat="43.24287" lon="2.92196">
        <ele>20.1</ele>
        <time>2024-05-10T07:29:45Z</time>
      </trkpt>
      <trkpt lat="43.24285" lon="2.92203">
        <ele>20.2</ele>
        <time>2024-05-10T07:29:46Z</time>
      </trkpt>
      <trkpt lat="43.24283" lon="2.92211">
        <ele>20.3</ele>
        <time>2024-05-10T07:29:47Z</time>
      </trkpt>
      <trkpt lat="43.24281" lon="2.9222">
        <ele>20.4</ele>
        <time>2024-05-10T07:29:48Z</time>
      </trkpt>
      <trkpt lat="43.2428" lon="2.92228">
        <ele>20.9</ele>
        <time>2024-05-10T07:29:49Z</time>
      </trkpt>
      <trkpt lat="43.24278" lon="2.92235">
        <ele>21.4</ele>
        <time>2024-05-10T07:29:50Z</time>
      </trkpt>
      <trkpt lat="43.24277" lon="2.92241">
        <ele>22</ele>
        <time>2024-05-10T07:29:51Z</time>
      </trkpt>
      <trkpt lat="43.24276" lon="2.92248">
        <ele>22.7</ele>
        <time>2024-05-10T07:29:52Z</time>
      </trkpt>
      <trkpt lat="43.24274" lon="2.92256">
        <ele>23.1</ele>
        <time>2024-05-10T07:29:53Z</time>
      </trkpt>
      <trkpt lat="43.24274" lon="2.92263">
        <ele>23.5</ele>
        <time>2024-05-10T07:29:54Z</time>
      </trkpt>
      <trkpt lat="43.24274" lon="2.92272">
        <ele>23.9</ele>
        <time>2024-05-10T07:29:55Z</time>
      </trkpt>
      <trkpt lat="43.24274" lon="2.9228">
        <ele>24.1</ele>
        <time>2024-05-10T07:29:56Z</time>
      </trkpt>
      <trkpt lat="43.24275" lon="2.92287">
        <ele>24.1</ele>
        <time>2024-05-10T07:29:57Z</time>
      </trkpt>
      <trkpt lat="43.24276" lon="2.92294">
        <ele>24</ele>
        <time>2024-05-10T07:29:58Z</time>
      </trkpt>
      <trkpt lat="43.24278" lon="2.92299">
        <ele>24</ele>
        <time>2024-05-10T07:29:59Z</time>
      </trkpt>
      <trkpt lat="43.24279" lon="2.92304">
        <ele>24</ele>
        <time>2024-05-10T07:30:00Z</time>
      </trkpt>
      <trkpt lat="43.24278" lon="2.92309">
        <ele>24</ele>
        <time>2024-05-10T07:30:01Z</time>
      </trkpt>
      <trkpt lat="43.24277" lon="2.92313">
        <ele>24</ele>
        <time>2024-05-10T07:30:02Z</time>
      </trkpt>
      <trkpt lat="43.24277" lon="2.92317">
        <ele>24</ele>
        <time>2024-05-10T07:30:03Z</time>
      </trkpt>
      <trkpt lat="43.24278" lon="2.92319">
        <ele>24</ele>
        <time>2024-05-10T07:30:04Z</time>
      </trkpt>
      <trkpt lat="43.24279" lon="2.9232">
        <ele>24</ele>
        <time>2024-05-10T07:30:05Z</time>
      </trkpt>
      <trkpt lat="43.24279" lon="2.92321">
        <ele>24</ele>
        <time>2024-05-10T07:30:06Z</time>
      </trkpt>
      <trkpt lat="43.24279" lon="2.92321">
        <ele>24</ele>
        <time>2024-05-10T07:30:07Z</time>
      </trkpt>
      <trkpt lat="43.24279" lon="2.92321">
        <ele>24</ele>
        <time>2024-05-10T07:30:08Z</time>
      </trkpt>
      <trkpt lat="43.24279" lon="2.9232">
        <ele>24</ele>
        <time>2024-05-10T07:30:09Z</time>
      </trkpt>
      <trkpt lat="43.24279" lon="2.92321">
        <ele>24</ele>
        <time>2024-05-10T07:30:10Z</time>
      </trkpt>
      <trkpt lat="43.24279" lon="2.9232">
        <ele>24</ele>
        <time>2024-05-10T07:30:11Z</time>
      </trkpt>
      <trkpt lat="43.24281" lon="2.92321">
        <ele>24.1</ele>
        <time>2024-05-10T07:30:12Z</time>
      </trkpt>
      <trkpt lat="43.24283" lon="2.92322">
        <ele>24.1</ele>
        <time>2024-05-10T07:30:13Z</time>
      </trkpt>
      <trkpt lat="43.24287" lon="2.92322">
        <ele>24.1</ele>
        <time>2024-05-10T07:30:14Z</time>
      </trkpt>
      <trkpt lat="43.2429" lon="2.92323">
        <ele>24.2</ele>
        <time>2024-05-10T07:30:15Z</time>
      </trkpt>
      <trkpt lat="43.24298" lon="2.92324">
        <ele>24.2</ele>
        <time>2024-05-10T07:30:16Z</time>
      </trkpt>
      <trkpt lat="43.24303" lon="2.92326">
        <ele>24.2</ele>
        <time>2024-05-10T07:30:17Z</time>
      </trkpt>
      <trkpt lat="43.2431" lon="2.92328">
        <ele>24.2</ele>
        <time>2024-05-10T07:30:18Z</time>
      </trkpt>
      <trkpt lat="43.24316" lon="2.92332">
        <ele>24</ele>
        <time>2024-05-10T07:30:19Z</time>
      </trkpt>
      <trkpt lat="43.24324" lon="2.92336">
        <ele>23.9</ele>
        <time>2024-05-10T07:30:20Z</time>
      </trkpt>
      <trkpt lat="43.24331" lon="2.92341">
        <ele>23.7</ele>
        <time>2024-05-10T07:30:21Z</time>
      </trkpt>
      <trkpt lat="43.24338" lon="2.92346">
        <ele>23.3</ele>
        <time>2024-05-10T07:30:22Z</time>
      </trkpt>
      <trkpt lat="43.24345" lon="2.92351">
        <ele>22.7</ele>
        <time>2024-05-10T07:30:23Z</time>
      </trkpt>
      <trkpt lat="43.24354" lon="2.92354">
        <ele>22</ele>
        <time>2024-05-10T07:30:24Z</time>
      </trkpt>
      <trkpt lat="43.24363" lon="2.92358">
        <ele>21.2</ele>
        <time>2024-05-10T07:30:25Z</time>
      </trkpt>
      <trkpt lat="43.24371" lon="2.92362">
        <ele>20.7</ele>
        <time>2024-05-10T07:30:26Z</time>
      </trkpt>
      <trkpt lat="43.24374" lon="2.92363">
        <ele>20.6</ele>
        <time>2024-05-10T07:30:27Z</time>
      </trkpt>
      <trkpt lat="43.24377" lon="2.92364">
        <ele>20.5</ele>
        <time>2024-05-10T07:30:28Z</time>
      </trkpt>
      <trkpt lat="43.24381" lon="2.92366">
        <ele>20.3</ele>
        <time>2024-05-10T07:30:29Z</time>
      </trkpt>
      <trkpt lat="43.24385" lon="2.92368">
        <ele>20.2</ele>
        <time>2024-05-10T07:30:30Z</time>
      </trkpt>
      <trkpt lat="43.24387" lon="2.92368">
        <ele>20.1</ele>
        <time>2024-05-10T07:30:31Z</time>
      </trkpt>
      <trkpt lat="43.24389" lon="2.92369">
        <ele>20</ele>
        <time>2024-05-10T07:30:32Z</time>
      </trkpt>
      <trkpt lat="43.24392" lon="2.92371">
        <ele>20</ele>
        <time>2024-05-10T07:30:33Z</time>
      </trkpt>
      <trkpt lat="43.24396" lon="2.92373">
        <ele>19.9</ele>
        <time>2024-05-10T07:30:34Z</time>
      </trkpt>
      <trkpt lat="43.24398" lon="2.92375">
        <ele>19.8</ele>
        <time>2024-05-10T07:30:35Z</time>
      </trkpt>
      <trkpt lat="43.24402" lon="2.92377">
        <ele>19.7</ele>
        <time>2024-05-10T07:30:36Z</time>
      </trkpt>
      <trkpt lat="43.24405" lon="2.9238">
        <ele>19.6</ele>
        <time>2024-05-10T07:30:37Z</time>
      </trkpt>
      <trkpt lat="43.2441" lon="2.92383">
        <ele>19.4</ele>
        <time>2024-05-10T07:30:38Z</time>
      </trkpt>
      <trkpt lat="43.24416" lon="2.92389">
        <ele>19</ele>
        <time>2024-05-10T07:30:39Z</time>
      </trkpt>
      <trkpt lat="43.24423" lon="2.92394">
        <ele>19.1</ele>
        <time>2024-05-10T07:30:40Z</time>
      </trkpt>
      <trkpt lat="43.24431" lon="2.924">
        <ele>19</ele>
        <time>2024-05-10T07:30:41Z</time>
      </trkpt>
      <trkpt lat="43.24439" lon="2.92407">
        <ele>18.6</ele>
        <time>2024-05-10T07:30:42Z</time>
      </trkpt>
      <trkpt lat="43.24447" lon="2.92415">
        <ele>18.1</ele>
        <time>2024-05-10T07:30:43Z</time>
      </trkpt>
      <trkpt lat="43.24455" lon="2.92422">
        <ele>18.2</ele>
        <time>2024-05-10T07:30:44Z</time>
      </trkpt>
      <trkpt lat="43.24464" lon="2.9243">
        <ele>18</ele>
        <time>2024-05-10T07:30:45Z</time>
      </trkpt>
      <trkpt lat="43.24472" lon="2.92438">
        <ele>17.5</ele>
        <time>2024-05-10T07:30:46Z</time>
      </trkpt>
      <trkpt lat="43.2448" lon="2.92446">
        <ele>17.3</ele>
        <time>2024-05-10T07:30:47Z</time>
      </trkpt>
      <trkpt lat="43.24486" lon="2.92453">
        <ele>17.3</ele>
        <time>2024-05-10T07:30:48Z</time>
      </trkpt>
      <trkpt lat="43.24493" lon="2.9246">
        <ele>17.3</ele>
        <time>2024-05-10T07:30:49Z</time>
      </trkpt>
      <trkpt lat="43.24495" lon="2.92463">
        <ele>17.3</ele>
        <time>2024-05-10T07:30:50Z</time>
      </trkpt>
      <trkpt lat="43.24499" lon="2.92468">
        <ele>17.1</ele>
        <time>2024-05-10T07:30:51Z</time>
      </trkpt>
      <trkpt lat="43.24502" lon="2.92471">
        <ele>17</ele>
        <time>2024-05-10T07:30:52Z</time>
      </trkpt>
      <trkpt lat="43.24505" lon="2.92474">
        <ele>17</ele>
        <time>2024-05-10T07:30:53Z</time>
      </trkpt>
      <trkpt lat="43.24509" lon="2.92477">
        <ele>16.9</ele>
        <time>2024-05-10T07:30:54Z</time>
      </trkpt>
      <trkpt lat="43.24512" lon="2.92479">
        <ele>16.9</ele>
        <time>2024-05-10T07:30:55Z</time>
      </trkpt>
      <trkpt lat="43.24517" lon="2.92483">
        <ele>16.8</ele>
        <time>2024-05-10T07:30:56Z</time>
      </trkpt>
      <trkpt lat="43.24521" lon="2.92486">
        <ele>16.6</ele>
        <time>2024-05-10T07:30:57Z</time>
      </trkpt>
      <trkpt lat="43.24523" lon="2.92489">
        <ele>16.5</ele>
        <time>2024-05-10T07:30:58Z</time>
      </trkpt>
      <trkpt lat="43.24525" lon="2.9249">
        <ele>16.4</ele>
        <time>2024-05-10T07:30:59Z</time>
      </trkpt>
      <trkpt lat="43.24527" lon="2.92492">
        <ele>16.3</ele>
        <time>2024-05-10T07:31:00Z</time>
      </trkpt>
      <trkpt lat="43.2453" lon="2.92494">
        <ele>16.2</ele>
        <time>2024-05-10T07:31:01Z</time>
      </trkpt>
      <trkpt lat="43.24532" lon="2.92497">
        <ele>16.1</ele>
        <time>2024-05-10T07:31:02Z</time>
      </trkpt>
      <trkpt lat="43.24537" lon="2.92501">
        <ele>16</ele>
        <time>2024-05-10T07:31:03Z</time>
      </trkpt>
      <trkpt lat="43.24543" lon="2.92505">
        <ele>16</ele>
        <time>2024-05-10T07:31:04Z</time>
      </trkpt>
      <trkpt lat="43.24549" lon="2.9251">
        <ele>16</ele>
        <time>2024-05-10T07:31:05Z</time>
      </trkpt>
      <trkpt lat="43.24555" lon="2.92515">
        <ele>16</ele>
        <time>2024-05-10T07:31:06Z</time>
      </trkpt>
      <trkpt lat="43.24562" lon="2.9252">
        <ele>16.1</ele>
        <time>2024-05-10T07:31:07Z</time>
      </trkpt>
      <trkpt lat="43.24571" lon="2.92526">
        <ele>16</ele>
        <time>2024-05-10T07:31:08Z</time>
      </trkpt>
      <trkpt lat="43.24581" lon="2.92533">
        <ele>16</ele>
        <time>2024-05-10T07:31:09Z</time>
      </trkpt>
      <trkpt lat="43.24591" lon="2.92541">
        <ele>16.1</ele>
        <time>2024-05-10T07:31:10Z</time>
      </trkpt>
      <trkpt lat="43.24601" lon="2.92547">
        <ele>16.2</ele>
        <time>2024-05-10T07:31:11Z</time>
      </trkpt>
      <trkpt lat="43.24611" lon="2.92554">
        <ele>16.1</ele>
        <time>2024-05-10T07:31:12Z</time>
      </trkpt>
      <trkpt lat="43.24623" lon="2.92561">
        <ele>16.2</ele>
        <time>2024-05-10T07:31:13Z</time>
      </trkpt>
      <trkpt lat="43.24635" lon="2.92568">
        <ele>16.4</ele>
        <time>2024-05-10T07:31:14Z</time>
      </trkpt>
      <trkpt lat="43.24646" lon="2.92575">
        <ele>16.2</ele>
        <time>2024-05-10T07:31:15Z</time>
      </trkpt>
      <trkpt lat="43.24657" lon="2.92583">
        <ele>16</ele>
        <time>2024-05-10T07:31:16Z</time>
      </trkpt>
      <trkpt lat="43.24668" lon="2.9259">
        <ele>15.8</ele>
        <time>2024-05-10T07:31:17Z</time>
      </trkpt>
      <trkpt lat="43.24678" lon="2.92596">
        <ele>15.5</ele>
        <time>2024-05-10T07:31:18Z</time>
      </trkpt>
      <trkpt lat="43.24689" lon="2.92603">
        <ele>15.3</ele>
        <time>2024-05-10T07:31:19Z</time>
      </trkpt>
      <trkpt lat="43.247" lon="2.92609">
        <ele>15.3</ele>
        <time>2024-05-10T07:31:20Z</time>
      </trkpt>
      <trkpt lat="43.24709" lon="2.92615">
        <ele>15.5</ele>
        <time>2024-05-10T07:31:21Z</time>
      </trkpt>
      <trkpt lat="43.24718" lon="2.92621">
        <ele>15.5</ele>
        <time>2024-05-10T07:31:22Z</time>
      </trkpt>
      <trkpt lat="43.24726" lon="2.92626">
        <ele>15.5</ele>
        <time>2024-05-10T07:31:23Z</time>
      </trkpt>
      <trkpt lat="43.24734" lon="2.92631">
        <ele>15.6</ele>
        <time>2024-05-10T07:31:24Z</time>
      </trkpt>
      <trkpt lat="43.24741" lon="2.92636">
        <ele>15.7</ele>
        <time>2024-05-10T07:31:25Z</time>
      </trkpt>
      <trkpt lat="43.24747" lon="2.92643">
        <ele>15.9</ele>
        <time>2024-05-10T07:31:26Z</time>
      </trkpt>
      <trkpt lat="43.24753" lon="2.92652">
        <ele>16</ele>
        <time>2024-05-10T07:31:27Z</time>
      </trkpt>
      <trkpt lat="43.24758" lon="2.92661">
        <ele>16</ele>
        <time>2024-05-10T07:31:28Z</time>
      </trkpt>
      <trkpt lat="43.24763" lon="2.92673">
        <ele>15.9</ele>
        <time>2024-05-10T07:31:29Z</time>
      </trkpt>
      <trkpt lat="43.24768" lon="2.92686">
        <ele>15.8</ele>
        <time>2024-05-10T07:31:30Z</time>
      </trkpt>
      <trkpt lat="43.24774" lon="2.92701">
        <ele>15.7</ele>
        <time>2024-05-10T07:31:31Z</time>
      </trkpt>
      <trkpt lat="43.2478" lon="2.92716">
        <ele>15.2</ele>
        <time>2024-05-10T07:31:32Z</time>
      </trkpt>
      <trkpt lat="43.24786" lon="2.92732">
        <ele>15</ele>
        <time>2024-05-10T07:31:33Z</time>
      </trkpt>
      <trkpt lat="43.24793" lon="2.92748">
        <ele>15</ele>
        <time>2024-05-10T07:31:34Z</time>
      </trkpt>
      <trkpt lat="43.248" lon="2.92765">
        <ele>15</ele>
        <time>2024-05-10T07:31:35Z</time>
      </trkpt>
      <trkpt lat="43.24807" lon="2.92783">
        <ele>15</ele>
        <time>2024-05-10T07:31:36Z</time>
      </trkpt>
      <trkpt lat="43.24815" lon="2.92802">
        <ele>15</ele>
        <time>2024-05-10T07:31:37Z</time>
      </trkpt>
      <trkpt lat="43.24823" lon="2.92821">
        <ele>15</ele>
        <time>2024-05-10T07:31:38Z</time>
      </trkpt>
      <trkpt lat="43.24831" lon="2.9284">
        <ele>15</ele>
        <time>2024-05-10T07:31:39Z</time>
      </trkpt>
      <trkpt lat="43.2484" lon="2.92857">
        <ele>15</ele>
        <time>2024-05-10T07:31:40Z</time>
      </trkpt>
      <trkpt lat="43.24851" lon="2.92872">
        <ele>15</ele>
        <time>2024-05-10T07:31:41Z</time>
      </trkpt>
      <trkpt lat="43.24864" lon="2.92886">
        <ele>15</ele>
        <time>2024-05-10T07:31:42Z</time>
      </trkpt>
      <trkpt lat="43.24877" lon="2.92897">
        <ele>15</ele>
        <time>2024-05-10T07:31:43Z</time>
      </trkpt>
      <trkpt lat="43.24892" lon="2.92905">
        <ele>15</ele>
        <time>2024-05-10T07:31:44Z</time>
      </trkpt>
      <trkpt lat="43.24908" lon="2.9291">
        <ele>15.2</ele>
        <time>2024-05-10T07:31:45Z</time>
      </trkpt>
      <trkpt lat="43.24925" lon="2.92913">
        <ele>15.1</ele>
        <time>2024-05-10T07:31:46Z</time>
      </trkpt>
      <trkpt lat="43.24943" lon="2.92915">
        <ele>15.1</ele>
        <time>2024-05-10T07:31:47Z</time>
      </trkpt>
      <trkpt lat="43.24962" lon="2.92917">
        <ele>15</ele>
        <time>2024-05-10T07:31:48Z</time>
      </trkpt>
      <trkpt lat="43.2498" lon="2.92919">
        <ele>15</ele>
        <time>2024-05-10T07:31:49Z</time>
      </trkpt>
      <trkpt lat="43.25" lon="2.92921">
        <ele>15</ele>
        <time>2024-05-10T07:31:50Z</time>
      </trkpt>
      <trkpt lat="43.2502" lon="2.92923">
        <ele>15</ele>
        <time>2024-05-10T07:31:51Z</time>
      </trkpt>
      <trkpt lat="43.25038" lon="2.92925">
        <ele>15.3</ele>
        <time>2024-05-10T07:31:52Z</time>
      </trkpt>
      <trkpt lat="43.25057" lon="2.92927">
        <ele>15.6</ele>
        <time>2024-05-10T07:31:53Z</time>
      </trkpt>
      <trkpt lat="43.25075" lon="2.92929">
        <ele>15.6</ele>
        <time>2024-05-10T07:31:54Z</time>
      </trkpt>
      <trkpt lat="43.25092" lon="2.92931">
        <ele>15.5</ele>
        <time>2024-05-10T07:31:55Z</time>
      </trkpt>
      <trkpt lat="43.25109" lon="2.92933">
        <ele>15.4</ele>
        <time>2024-05-10T07:31:56Z</time>
      </trkpt>
      <trkpt lat="43.25125" lon="2.92936">
        <ele>15.3</ele>
        <time>2024-05-10T07:31:57Z</time>
      </trkpt>
      <trkpt lat="43.25141" lon="2.92941">
        <ele>15.2</ele>
        <time>2024-05-10T07:31:58Z</time>
      </trkpt>
      <trkpt lat="43.25155" lon="2.92949">
        <ele>15.5</ele>
        <time>2024-05-10T07:31:59Z</time>
      </trkpt>
      <trkpt lat="43.25168" lon="2.9296">
        <ele>15.4</ele>
        <time>2024-05-10T07:32:00Z</time>
      </trkpt>
      <trkpt lat="43.25179" lon="2.92974">
        <ele>15.4</ele>
        <time>2024-05-10T07:32:01Z</time>
      </trkpt>
      <trkpt lat="43.25187" lon="2.92989">
        <ele>15.3</ele>
        <time>2024-05-10T07:32:02Z</time>
      </trkpt>
      <trkpt lat="43.25194" lon="2.93005">
        <ele>15</ele>
        <time>2024-05-10T07:32:03Z</time>
      </trkpt>
      <trkpt lat="43.25201" lon="2.93022">
        <ele>15.2</ele>
        <time>2024-05-10T07:32:04Z</time>
      </trkpt>
      <trkpt lat="43.25208" lon="2.93039">
        <ele>15.5</ele>
        <time>2024-05-10T07:32:05Z</time>
      </trkpt>
      <trkpt lat="43.25215" lon="2.93056">
        <ele>15.7</ele>
        <time>2024-05-10T07:32:06Z</time>
      </trkpt>
      <trkpt lat="43.25222" lon="2.93074">
        <ele>16</ele>
        <time>2024-05-10T07:32:07Z</time>
      </trkpt>
      <trkpt lat="43.25229" lon="2.93092">
        <ele>15.7</ele>
        <time>2024-05-10T07:32:08Z</time>
      </trkpt>
      <trkpt lat="43.25236" lon="2.93111">
        <ele>15</ele>
        <time>2024-05-10T07:32:09Z</time>
      </trkpt>
      <trkpt lat="43.25244" lon="2.93131">
        <ele>15.6</ele>
        <time>2024-05-10T07:32:10Z</time>
      </trkpt>
      <trkpt lat="43.25254" lon="2.93152">
        <ele>16</ele>
        <time>2024-05-10T07:32:11Z</time>
      </trkpt>
      <trkpt lat="43.25265" lon="2.93172">
        <ele>15.9</ele>
        <time>2024-05-10T07:32:12Z</time>
      </trkpt>
      <trkpt lat="43.25278" lon="2.93193">
        <ele>16</ele>
        <time>2024-05-10T07:32:13Z</time>
      </trkpt>
      <trkpt lat="43.25291" lon="2.93215">
        <ele>15.6</ele>
        <time>2024-05-10T07:32:14Z</time>
      </trkpt>
      <trkpt lat="43.25305" lon="2.93238">
        <ele>16</ele>
        <time>2024-05-10T07:32:15Z</time>
      </trkpt>
      <trkpt lat="43.25319" lon="2.93261">
        <ele>16</ele>
        <time>2024-05-10T07:32:16Z</time>
      </trkpt>
      <trkpt lat="43.25333" lon="2.93284">
        <ele>16</ele>
        <time>2024-05-10T07:32:17Z</time>
      </trkpt>
      <trkpt lat="43.25346" lon="2.93306">
        <ele>16</ele>
        <time>2024-05-10T07:32:18Z</time>
      </trkpt>
      <trkpt lat="43.2536" lon="2.93328">
        <ele>16</ele>
        <time>2024-05-10T07:32:19Z</time>
      </trkpt>
      <trkpt lat="43.25373" lon="2.93348">
        <ele>15.7</ele>
        <time>2024-05-10T07:32:20Z</time>
      </trkpt>
      <trkpt lat="43.25386" lon="2.93369">
        <ele>15.9</ele>
        <time>2024-05-10T07:32:21Z</time>
      </trkpt>
      <trkpt lat="43.25399" lon="2.93389">
        <ele>16</ele>
        <time>2024-05-10T07:32:22Z</time>
      </trkpt>
      <trkpt lat="43.25412" lon="2.93409">
        <ele>15.9</ele>
        <time>2024-05-10T07:32:23Z</time>
      </trkpt>
      <trkpt lat="43.25425" lon="2.93429">
        <ele>15.7</ele>
        <time>2024-05-10T07:32:24Z</time>
      </trkpt>
      <trkpt lat="43.25438" lon="2.93449">
        <ele>15.6</ele>
        <time>2024-05-10T07:32:25Z</time>
      </trkpt>
      <trkpt lat="43.25451" lon="2.93469">
        <ele>15.3</ele>
        <time>2024-05-10T07:32:26Z</time>
      </trkpt>
      <trkpt lat="43.25464" lon="2.93489">
        <ele>15.7</ele>
        <time>2024-05-10T07:32:27Z</time>
      </trkpt>
      <trkpt lat="43.25476" lon="2.93508">
        <ele>15.8</ele>
        <time>2024-05-10T07:32:28Z</time>
      </trkpt>
      <trkpt lat="43.25488" lon="2.93526">
        <ele>15.6</ele>
        <time>2024-05-10T07:32:29Z</time>
      </trkpt>
      <trkpt lat="43.25499" lon="2.93544">
        <ele>16</ele>
        <time>2024-05-10T07:32:30Z</time>
      </trkpt>
      <trkpt lat="43.25511" lon="2.93561">
        <ele>15.9</ele>
        <time>2024-05-10T07:32:31Z</time>
      </trkpt>
      <trkpt lat="43.25522" lon="2.93578">
        <ele>15.8</ele>
        <time>2024-05-10T07:32:32Z</time>
      </trkpt>
      <trkpt lat="43.25532" lon="2.93595">
        <ele>15.6</ele>
        <time>2024-05-10T07:32:33Z</time>
      </trkpt>
      <trkpt lat="43.25543" lon="2.93611">
        <ele>15.5</ele>
        <time>2024-05-10T07:32:34Z</time>
      </trkpt>
      <trkpt lat="43.25554" lon="2.93628">
        <ele>16</ele>
        <time>2024-05-10T07:32:35Z</time>
      </trkpt>
      <trkpt lat="43.25565" lon="2.93645">
        <ele>16</ele>
        <time>2024-05-10T07:32:36Z</time>
      </trkpt>
      <trkpt lat="43.25575" lon="2.93663">
        <ele>16</ele>
        <time>2024-05-10T07:32:37Z</time>
      </trkpt>
      <trkpt lat="43.25586" lon="2.93681">
        <ele>16</ele>
        <time>2024-05-10T07:32:38Z</time>
      </trkpt>
      <trkpt lat="43.25595" lon="2.937">
        <ele>16.1</ele>
        <time>2024-05-10T07:32:39Z</time>
      </trkpt>
      <trkpt lat="43.25604" lon="2.93718">
        <ele>16.6</ele>
        <time>2024-05-10T07:32:40Z</time>
      </trkpt>
      <trkpt lat="43.25612" lon="2.93737">
        <ele>17.5</ele>
        <time>2024-05-10T07:32:41Z</time>
      </trkpt>
      <trkpt lat="43.2562" lon="2.93755">
        <ele>16.8</ele>
        <time>2024-05-10T07:32:42Z</time>
      </trkpt>
      <trkpt lat="43.25628" lon="2.93772">
        <ele>14.4</ele>
        <time>2024-05-10T07:32:43Z</time>
      </trkpt>
      <trkpt lat="43.25636" lon="2.9379">
        <ele>15.2</ele>
        <time>2024-05-10T07:32:44Z</time>
      </trkpt>
      <trkpt lat="43.25644" lon="2.93808">
        <ele>17.5</ele>
        <time>2024-05-10T07:32:45Z</time>
      </trkpt>
      <trkpt lat="43.25653" lon="2.93826">
        <ele>16.3</ele>
        <time>2024-05-10T07:32:46Z</time>
      </trkpt>
      <trkpt lat="43.25661" lon="2.93846">
        <ele>16.4</ele>
        <time>2024-05-10T07:32:47Z</time>
      </trkpt>
      <trkpt lat="43.2567" lon="2.93866">
        <ele>16.7</ele>
        <time>2024-05-10T07:32:48Z</time>
      </trkpt>
      <trkpt lat="43.25677" lon="2.93888">
        <ele>16</ele>
        <time>2024-05-10T07:32:49Z</time>
      </trkpt>
      <trkpt lat="43.25684" lon="2.9391">
        <ele>15.7</ele>
        <time>2024-05-10T07:32:50Z</time>
      </trkpt>
      <trkpt lat="43.25689" lon="2.93931">
        <ele>15.8</ele>
        <time>2024-05-10T07:32:51Z</time>
      </trkpt>
      <trkpt lat="43.25693" lon="2.93952">
        <ele>15.9</ele>
        <time>2024-05-10T07:32:52Z</time>
      </trkpt>
      <trkpt lat="43.25697" lon="2.93969">
        <ele>16</ele>
        <time>2024-05-10T07:32:53Z</time>
      </trkpt>
      <trkpt lat="43.257" lon="2.93986">
        <ele>16</ele>
        <time>2024-05-10T07:32:54Z</time>
      </trkpt>
      <trkpt lat="43.25702" lon="2.94001">
        <ele>16</ele>
        <time>2024-05-10T07:32:55Z</time>
      </trkpt>
      <trkpt lat="43.25705" lon="2.94017">
        <ele>16</ele>
        <time>2024-05-10T07:32:56Z</time>
      </trkpt>
      <trkpt lat="43.25707" lon="2.94034">
        <ele>16</ele>
        <time>2024-05-10T07:32:57Z</time>
      </trkpt>
      <trkpt lat="43.25708" lon="2.9405">
        <ele>16</ele>
        <time>2024-05-10T07:32:58Z</time>
      </trkpt>
      <trkpt lat="43.25709" lon="2.94065">
        <ele>15.8</ele>
        <time>2024-05-10T07:32:59Z</time>
      </trkpt>
      <trkpt lat="43.2571" lon="2.94079">
        <ele>15.6</ele>
        <time>2024-05-10T07:33:00Z</time>
      </trkpt>
      <trkpt lat="43.25711" lon="2.94093">
        <ele>15.7</ele>
        <time>2024-05-10T07:33:01Z</time>
      </trkpt>
      <trkpt lat="43.25711" lon="2.94106">
        <ele>15.9</ele>
        <time>2024-05-10T07:33:02Z</time>
      </trkpt>
      <trkpt lat="43.25711" lon="2.94118">
        <ele>16.1</ele>
        <time>2024-05-10T07:33:03Z</time>
      </trkpt>
      <trkpt lat="43.25711" lon="2.9413">
        <ele>16.4</ele>
        <time>2024-05-10T07:33:04Z</time>
      </trkpt>
      <trkpt lat="43.25711" lon="2.94141">
        <ele>16.6</ele>
        <time>2024-05-10T07:33:05Z</time>
      </trkpt>
      <trkpt lat="43.25711" lon="2.94151">
        <ele>16.3</ele>
        <time>2024-05-10T07:33:06Z</time>
      </trkpt>
      <trkpt lat="43.25711" lon="2.94161">
        <ele>16.1</ele>
        <time>2024-05-10T07:33:07Z</time>
      </trkpt>
      <trkpt lat="43.25711" lon="2.94172">
        <ele>16</ele>
        <time>2024-05-10T07:33:08Z</time>
      </trkpt>
      <trkpt lat="43.25711" lon="2.94184">
        <ele>16</ele>
        <time>2024-05-10T07:33:09Z</time>
      </trkpt>
      <trkpt lat="43.2571" lon="2.94196">
        <ele>16</ele>
        <time>2024-05-10T07:33:10Z</time>
      </trkpt>
      <trkpt lat="43.2571" lon="2.94207">
        <ele>16</ele>
        <time>2024-05-10T07:33:11Z</time>
      </trkpt>
      <trkpt lat="43.2571" lon="2.94218">
        <ele>16</ele>
        <time>2024-05-10T07:33:12Z</time>
      </trkpt>
      <trkpt lat="43.25709" lon="2.94226">
        <ele>16</ele>
        <time>2024-05-10T07:33:13Z</time>
      </trkpt>
      <trkpt lat="43.25709" lon="2.94233">
        <ele>16</ele>
        <time>2024-05-10T07:33:14Z</time>
      </trkpt>
      <trkpt lat="43.25709" lon="2.94239">
        <ele>16</ele>
        <time>2024-05-10T07:33:15Z</time>
      </trkpt>
      <trkpt lat="43.25708" lon="2.94245">
        <ele>16</ele>
        <time>2024-05-10T07:33:16Z</time>
      </trkpt>
      <trkpt lat="43.25708" lon="2.94252">
        <ele>16</ele>
        <time>2024-05-10T07:33:17Z</time>
      </trkpt>
      <trkpt lat="43.25707" lon="2.94259">
        <ele>16.1</ele>
        <time>2024-05-10T07:33:18Z</time>
      </trkpt>
      <trkpt lat="43.25707" lon="2.94268">
        <ele>16.3</ele>
        <time>2024-05-10T07:33:19Z</time>
      </trkpt>
      <trkpt lat="43.25707" lon="2.94276">
        <ele>16.4</ele>
        <time>2024-05-10T07:33:20Z</time>
      </trkpt>
      <trkpt lat="43.25706" lon="2.94285">
        <ele>16.4</ele>
        <time>2024-05-10T07:33:21Z</time>
      </trkpt>
      <trkpt lat="43.25706" lon="2.94293">
        <ele>16.4</ele>
        <time>2024-05-10T07:33:22Z</time>
      </trkpt>
      <trkpt lat="43.25705" lon="2.94301">
        <ele>16.4</ele>
        <time>2024-05-10T07:33:23Z</time>
      </trkpt>
      <trkpt lat="43.25705" lon="2.94309">
        <ele>16.3</ele>
        <time>2024-05-10T07:33:24Z</time>
      </trkpt>
      <trkpt lat="43.25705" lon="2.94316">
        <ele>16.2</ele>
        <time>2024-05-10T07:33:25Z</time>
      </trkpt>
      <trkpt lat="43.25704" lon="2.94323">
        <ele>16.1</ele>
        <time>2024-05-10T07:33:26Z</time>
      </trkpt>
      <trkpt lat="43.25704" lon="2.9433">
        <ele>16</ele>
        <time>2024-05-10T07:33:27Z</time>
      </trkpt>
      <trkpt lat="43.25704" lon="2.94338">
        <ele>16</ele>
        <time>2024-05-10T07:33:28Z</time>
      </trkpt>
      <trkpt lat="43.25703" lon="2.94346">
        <ele>16</ele>
        <time>2024-05-10T07:33:29Z</time>
      </trkpt>
      <trkpt lat="43.25703" lon="2.94355">
        <ele>16</ele>
        <time>2024-05-10T07:33:30Z</time>
      </trkpt>
      <trkpt lat="43.25702" lon="2.94364">
        <ele>16</ele>
        <time>2024-05-10T07:33:31Z</time>
      </trkpt>
      <trkpt lat="43.25702" lon="2.94373">
        <ele>16</ele>
        <time>2024-05-10T07:33:32Z</time>
      </trkpt>
      <trkpt lat="43.25702" lon="2.94383">
        <ele>16</ele>
        <time>2024-05-10T07:33:33Z</time>
      </trkpt>
      <trkpt lat="43.25701" lon="2.94393">
        <ele>16</ele>
        <time>2024-05-10T07:33:34Z</time>
      </trkpt>
      <trkpt lat="43.25701" lon="2.94403">
        <ele>16.1</ele>
        <time>2024-05-10T07:33:35Z</time>
      </trkpt>
      <trkpt lat="43.25701" lon="2.94413">
        <ele>16.2</ele>
        <time>2024-05-10T07:33:36Z</time>
      </trkpt>
      <trkpt lat="43.257" lon="2.94422">
        <ele>16.2</ele>
        <time>2024-05-10T07:33:37Z</time>
      </trkpt>
      <trkpt lat="43.25699" lon="2.9443">
        <ele>16.2</ele>
        <time>2024-05-10T07:33:38Z</time>
      </trkpt>
      <trkpt lat="43.25698" lon="2.94438">
        <ele>16.1</ele>
        <time>2024-05-10T07:33:39Z</time>
      </trkpt>
      <trkpt lat="43.25697" lon="2.94446">
        <ele>16.1</ele>
        <time>2024-05-10T07:33:40Z</time>
      </trkpt>
      <trkpt lat="43.25696" lon="2.94454">
        <ele>16</ele>
        <time>2024-05-10T07:33:41Z</time>
      </trkpt>
      <trkpt lat="43.25694" lon="2.94462">
        <ele>16</ele>
        <time>2024-05-10T07:33:42Z</time>
      </trkpt>
      <trkpt lat="43.25693" lon="2.94471">
        <ele>15.9</ele>
        <time>2024-05-10T07:33:43Z</time>
      </trkpt>
      <trkpt lat="43.25691" lon="2.94481">
        <ele>15.9</ele>
        <time>2024-05-10T07:33:44Z</time>
      </trkpt>
      <trkpt lat="43.2569" lon="2.9449">
        <ele>15.9</ele>
        <time>2024-05-10T07:33:45Z</time>
      </trkpt>
      <trkpt lat="43.25688" lon="2.94501">
        <ele>16</ele>
        <time>2024-05-10T07:33:46Z</time>
      </trkpt>
      <trkpt lat="43.25687" lon="2.94511">
        <ele>16.4</ele>
        <time>2024-05-10T07:33:47Z</time>
      </trkpt>
      <trkpt lat="43.25685" lon="2.94521">
        <ele>16.8</ele>
        <time>2024-05-10T07:33:48Z</time>
      </trkpt>
      <trkpt lat="43.25684" lon="2.9453">
        <ele>17</ele>
        <time>2024-05-10T07:33:49Z</time>
      </trkpt>
      <trkpt lat="43.25683" lon="2.94539">
        <ele>17</ele>
        <time>2024-05-10T07:33:50Z</time>
      </trkpt>
      <trkpt lat="43.25682" lon="2.94548">
        <ele>17</ele>
        <time>2024-05-10T07:33:51Z</time>
      </trkpt>
      <trkpt lat="43.25681" lon="2.94557">
        <ele>17</ele>
        <time>2024-05-10T07:33:52Z</time>
      </trkpt>
      <trkpt lat="43.25679" lon="2.94566">
        <ele>17</ele>
        <time>2024-05-10T07:33:53Z</time>
      </trkpt>
      <trkpt lat="43.25677" lon="2.94576">
        <ele>17</ele>
        <time>2024-05-10T07:33:54Z</time>
      </trkpt>
      <trkpt lat="43.25676" lon="2.94587">
        <ele>16.9</ele>
        <time>2024-05-10T07:33:55Z</time>
      </trkpt>
      <trkpt lat="43.25674" lon="2.94597">
        <ele>16.6</ele>
        <time>2024-05-10T07:33:56Z</time>
      </trkpt>
      <trkpt lat="43.25672" lon="2.94607">
        <ele>16.3</ele>
        <time>2024-05-10T07:33:57Z</time>
      </trkpt>
      <trkpt lat="43.2567" lon="2.94618">
        <ele>16.1</ele>
        <time>2024-05-10T07:33:58Z</time>
      </trkpt>
      <trkpt lat="43.25668" lon="2.94628">
        <ele>16</ele>
        <time>2024-05-10T07:33:59Z</time>
      </trkpt>
      <trkpt lat="43.25667" lon="2.94638">
        <ele>16</ele>
        <time>2024-05-10T07:34:00Z</time>
      </trkpt>
      <trkpt lat="43.25665" lon="2.94647">
        <ele>16.3</ele>
        <time>2024-05-10T07:34:01Z</time>
      </trkpt>
      <trkpt lat="43.25664" lon="2.94655">
        <ele>16.6</ele>
        <time>2024-05-10T07:34:02Z</time>
      </trkpt>
      <trkpt lat="43.25662" lon="2.94664">
        <ele>16.9</ele>
        <time>2024-05-10T07:34:03Z</time>
      </trkpt>
      <trkpt lat="43.25661" lon="2.9467">
        <ele>16.9</ele>
        <time>2024-05-10T07:34:04Z</time>
      </trkpt>
      <trkpt lat="43.2566" lon="2.94676">
        <ele>16.7</ele>
        <time>2024-05-10T07:34:05Z</time>
      </trkpt>
      <trkpt lat="43.25659" lon="2.94681">
        <ele>16.5</ele>
        <time>2024-05-10T07:34:06Z</time>
      </trkpt>
      <trkpt lat="43.25658" lon="2.94686">
        <ele>16.3</ele>
        <time>2024-05-10T07:34:07Z</time>
      </trkpt>
      <trkpt lat="43.25658" lon="2.94689">
        <ele>16.2</ele>
        <time>2024-05-10T07:34:08Z</time>
      </trkpt>
      <trkpt lat="43.25658" lon="2.94692">
        <ele>16.1</ele>
        <time>2024-05-10T07:34:09Z</time>
      </trkpt>
      <trkpt lat="43.25657" lon="2.94695">
        <ele>16</ele>
        <time>2024-05-10T07:34:10Z</time>
      </trkpt>
      <trkpt lat="43.25657" lon="2.94698">
        <ele>16</ele>
        <time>2024-05-10T07:34:11Z</time>
      </trkpt>
      <trkpt lat="43.25656" lon="2.94702">
        <ele>16</ele>
        <time>2024-05-10T07:34:12Z</time>
      </trkpt>
      <trkpt lat="43.25655" lon="2.94706">
        <ele>16</ele>
        <time>2024-05-10T07:34:13Z</time>
      </trkpt>
      <trkpt lat="43.25654" lon="2.94712">
        <ele>16</ele>
        <time>2024-05-10T07:34:14Z</time>
      </trkpt>
      <trkpt lat="43.25653" lon="2.94716">
        <ele>16</ele>
        <time>2024-05-10T07:34:15Z</time>
      </trkpt>
      <trkpt lat="43.25652" lon="2.94721">
        <ele>16</ele>
        <time>2024-05-10T07:34:16Z</time>
      </trkpt>
      <trkpt lat="43.25653" lon="2.94726">
        <ele>16</ele>
        <time>2024-05-10T07:34:17Z</time>
      </trkpt>
      <trkpt lat="43.25655" lon="2.94731">
        <ele>16</ele>
        <time>2024-05-10T07:34:18Z</time>
      </trkpt>
      <trkpt lat="43.25661" lon="2.94733">
        <ele>16</ele>
        <time>2024-05-10T07:34:19Z</time>
      </trkpt>
      <trkpt lat="43.25665" lon="2.94737">
        <ele>16</ele>
        <time>2024-05-10T07:34:20Z</time>
      </trkpt>
      <trkpt lat="43.2567" lon="2.9474">
        <ele>16</ele>
        <time>2024-05-10T07:34:21Z</time>
      </trkpt>
      <trkpt lat="43.25675" lon="2.94745">
        <ele>16</ele>
        <time>2024-05-10T07:34:22Z</time>
      </trkpt>
      <trkpt lat="43.2568" lon="2.9475">
        <ele>16</ele>
        <time>2024-05-10T07:34:23Z</time>
      </trkpt>
      <trkpt lat="43.25685" lon="2.94753">
        <ele>16</ele>
        <time>2024-05-10T07:34:24Z</time>
      </trkpt>
      <trkpt lat="43.2569" lon="2.94757">
        <ele>16</ele>
        <time>2024-05-10T07:34:25Z</time>
      </trkpt>
      <trkpt lat="43.25695" lon="2.94762">
        <ele>16</ele>
        <time>2024-05-10T07:34:26Z</time>
      </trkpt>
      <trkpt lat="43.25699" lon="2.94767">
        <ele>16</ele>
        <time>2024-05-10T07:34:27Z</time>
      </trkpt>
      <trkpt lat="43.25703" lon="2.94769">
        <ele>16</ele>
        <time>2024-05-10T07:34:28Z</time>
      </trkpt>
      <trkpt lat="43.25707" lon="2.9477">
        <ele>16</ele>
        <time>2024-05-10T07:34:29Z</time>
      </trkpt>
      <trkpt lat="43.25711" lon="2.94771">
        <ele>16</ele>
        <time>2024-05-10T07:34:30Z</time>
      </trkpt>
      <trkpt lat="43.25715" lon="2.94771">
        <ele>16</ele>
        <time>2024-05-10T07:34:31Z</time>
      </trkpt>
      <trkpt lat="43.25718" lon="2.94772">
        <ele>16</ele>
        <time>2024-05-10T07:34:32Z</time>
      </trkpt>
      <trkpt lat="43.2572" lon="2.94772">
        <ele>16</ele>
        <time>2024-05-10T07:34:33Z</time>
      </trkpt>
      <trkpt lat="43.2572" lon="2.94772">
        <ele>16</ele>
        <time>2024-05-10T07:34:34Z</time>
      </trkpt>
      <trkpt lat="43.25721" lon="2.94773">
        <ele>16</ele>
        <time>2024-05-10T07:34:35Z</time>
      </trkpt>
      <trkpt lat="43.25722" lon="2.94774">
        <ele>16</ele>
        <time>2024-05-10T07:34:36Z</time>
      </trkpt>
      <trkpt lat="43.25724" lon="2.94775">
        <ele>16</ele>
        <time>2024-05-10T07:34:37Z</time>
      </trkpt>
      <trkpt lat="43.25726" lon="2.94776">
        <ele>16</ele>
        <time>2024-05-10T07:34:38Z</time>
      </trkpt>
      <trkpt lat="43.25727" lon="2.94776">
        <ele>16</ele>
        <time>2024-05-10T07:34:39Z</time>
      </trkpt>
      <trkpt lat="43.25728" lon="2.94776">
        <ele>16</ele>
        <time>2024-05-10T07:34:40Z</time>
      </trkpt>
      <trkpt lat="43.25728" lon="2.94775">
        <ele>16</ele>
        <time>2024-05-10T07:34:41Z</time>
      </trkpt>
      <trkpt lat="43.25728" lon="2.94775">
        <ele>16</ele>
        <time>2024-05-10T07:34:42Z</time>
      </trkpt>
      <trkpt lat="43.25727" lon="2.94775">
        <ele>16</ele>
        <time>2024-05-10T07:34:43Z</time>
      </trkpt>
      <trkpt lat="43.25727" lon="2.94775">
        <ele>16</ele>
        <time>2024-05-10T07:34:44Z</time>
      </trkpt>
      <trkpt lat="43.25727" lon="2.94775">
        <ele>16</ele>
        <time>2024-05-10T07:34:45Z</time>
      </trkpt>
      <trkpt lat="43.25727" lon="2.94775">
        <ele>16</ele>
        <time>2024-05-10T07:34:46Z</time>
      </trkpt>
      <trkpt lat="43.25728" lon="2.94775">
        <ele>16</ele>
        <time>2024-05-10T07:34:47Z</time>
      </trkpt>
      <trkpt lat="43.25728" lon="2.94776">
        <ele>16</ele>
        <time>2024-05-10T07:34:48Z</time>
      </trkpt>
      <trkpt lat="43.25729" lon="2.94777">
        <ele>16</ele>
        <time>2024-05-10T07:34:49Z</time>
      </trkpt>
      <trkpt lat="43.25731" lon="2.9478">
        <ele>16</ele>
        <time>2024-05-10T07:34:50Z</time>
      </trkpt>
      <trkpt lat="43.25733" lon="2.94789">
        <ele>16</ele>
        <time>2024-05-10T07:34:51Z</time>
      </trkpt>
      <trkpt lat="43.25734" lon="2.94796">
        <ele>16</ele>
        <time>2024-05-10T07:34:52Z</time>
      </trkpt>
      <trkpt lat="43.25735" lon="2.94805">
        <ele>16</ele>
        <time>2024-05-10T07:34:53Z</time>
      </trkpt>
      <trkpt lat="43.25735" lon="2.94813">
        <ele>16.1</ele>
        <time>2024-05-10T07:34:54Z</time>
      </trkpt>
      <trkpt lat="43.25734" lon="2.94821">
        <ele>16.2</ele>
        <time>2024-05-10T07:34:55Z</time>
      </trkpt>
      <trkpt lat="43.25735" lon="2.9483">
        <ele>16.4</ele>
        <time>2024-05-10T07:34:56Z</time>
      </trkpt>
      <trkpt lat="43.25735" lon="2.9484">
        <ele>16.3</ele>
        <time>2024-05-10T07:34:57Z</time>
      </trkpt>
      <trkpt lat="43.25735" lon="2.94849">
        <ele>16.2</ele>
        <time>2024-05-10T07:34:58Z</time>
      </trkpt>
      <trkpt lat="43.25734" lon="2.94858">
        <ele>16</ele>
        <time>2024-05-10T07:34:59Z</time>
      </trkpt>
      <trkpt lat="43.25734" lon="2.94867">
        <ele>16</ele>
        <time>2024-05-10T07:35:00Z</time>
      </trkpt>
      <trkpt lat="43.25733" lon="2.94874">
        <ele>16</ele>
        <time>2024-05-10T07:35:01Z</time>
      </trkpt>
      <trkpt lat="43.25733" lon="2.94882">
        <ele>16</ele>
        <time>2024-05-10T07:35:02Z</time>
      </trkpt>
      <trkpt lat="43.25731" lon="2.94888">
        <ele>16</ele>
        <time>2024-05-10T07:35:03Z</time>
      </trkpt>
      <trkpt lat="43.25729" lon="2.94896">
        <ele>16.3</ele>
        <time>2024-05-10T07:35:04Z</time>
      </trkpt>
      <trkpt lat="43.25728" lon="2.94902">
        <ele>16.5</ele>
        <time>2024-05-10T07:35:05Z</time>
      </trkpt>
      <trkpt lat="43.25726" lon="2.94908">
        <ele>16.7</ele>
        <time>2024-05-10T07:35:06Z</time>
      </trkpt>
      <trkpt lat="43.25724" lon="2.94915">
        <ele>16.9</ele>
        <time>2024-05-10T07:35:07Z</time>
      </trkpt>
      <trkpt lat="43.25722" lon="2.94923">
        <ele>17</ele>
        <time>2024-05-10T07:35:08Z</time>
      </trkpt>
      <trkpt lat="43.25719" lon="2.9493">
        <ele>16.9</ele>
        <time>2024-05-10T07:35:09Z</time>
      </trkpt>
      <trkpt lat="43.25716" lon="2.94938">
        <ele>16.8</ele>
        <time>2024-05-10T07:35:10Z</time>
      </trkpt>
      <trkpt lat="43.25712" lon="2.94945">
        <ele>16.7</ele>
        <time>2024-05-10T07:35:11Z</time>
      </trkpt>
      <trkpt lat="43.25706" lon="2.94952">
        <ele>16.7</ele>
        <time>2024-05-10T07:35:12Z</time>
      </trkpt>
      <trkpt lat="43.25703" lon="2.94958">
        <ele>16.8</ele>
        <time>2024-05-10T07:35:13Z</time>
      </trkpt>
      <trkpt lat="43.25695" lon="2.94962">
        <ele>16.7</ele>
        <time>2024-05-10T07:35:14Z</time>
      </trkpt>
      <trkpt lat="43.25689" lon="2.94966">
        <ele>16.6</ele>
        <time>2024-05-10T07:35:15Z</time>
      </trkpt>
      <trkpt lat="43.25683" lon="2.9497">
        <ele>16.5</ele>
        <time>2024-05-10T07:35:16Z</time>
      </trkpt>
      <trkpt lat="43.25681" lon="2.94972">
        <ele>16.5</ele>
        <time>2024-05-10T07:35:17Z</time>
      </trkpt>
      <trkpt lat="43.25679" lon="2.94972">
        <ele>16.4</ele>
        <time>2024-05-10T07:35:18Z</time>
      </trkpt>
      <trkpt lat="43.25678" lon="2.94971">
        <ele>16.4</ele>
        <time>2024-05-10T07:35:19Z</time>
      </trkpt>
      <trkpt lat="43.25678" lon="2.94968">
        <ele>16.3</ele>
        <time>2024-05-10T07:35:20Z</time>
      </trkpt>
      <trkpt lat="43.25678" lon="2.94966">
        <ele>16.2</ele>
        <time>2024-05-10T07:35:21Z</time>
      </trkpt>
      <trkpt lat="43.25678" lon="2.94963">
        <ele>16.1</ele>
        <time>2024-05-10T07:35:22Z</time>
      </trkpt>
      <trkpt lat="43.25679" lon="2.94962">
        <ele>16.1</ele>
        <time>2024-05-10T07:35:23Z</time>
      </trkpt>
      <trkpt lat="43.2568" lon="2.94962">
        <ele>16.1</ele>
        <time>2024-05-10T07:35:24Z</time>
      </trkpt>
      <trkpt lat="43.25681" lon="2.94962">
        <ele>16.1</ele>
        <time>2024-05-10T07:35:25Z</time>
      </trkpt>
      <trkpt lat="43.25681" lon="2.94962">
        <ele>16.1</ele>
        <time>2024-05-10T07:35:26Z</time>
      </trkpt>
      <trkpt lat="43.25682" lon="2.94962">
        <ele>16.2</ele>
        <time>2024-05-10T07:35:27Z</time>
      </trkpt>
      <trkpt lat="43.25683" lon="2.94962">
        <ele>16.2</ele>
        <time>2024-05-10T07:35:28Z</time>
      </trkpt>
      <trkpt lat="43.25683" lon="2.94962">
        <ele>16.2</ele>
        <time>2024-05-10T07:35:29Z</time>
      </trkpt>
      <trkpt lat="43.25683" lon="2.94963">
        <ele>16.3</ele>
        <time>2024-05-10T07:35:30Z</time>
      </trkpt>
      <trkpt lat="43.25683" lon="2.94963">
        <ele>16.3</ele>
        <time>2024-05-10T07:35:31Z</time>
      </trkpt>
      <trkpt lat="43.25683" lon="2.94963">
        <ele>16.3</ele>
        <time>2024-05-10T07:35:32Z</time>
      </trkpt>
      <trkpt lat="43.25683" lon="2.94963">
        <ele>16.3</ele>
        <time>2024-05-10T07:35:33Z</time>
      </trkpt>
      <trkpt lat="43.25683" lon="2.94963">
        <ele>16.3</ele>
        <time>2024-05-10T07:35:34Z</time>
      </trkpt>
      <trkpt lat="43.25683" lon="2.94963">
        <ele>16.3</ele>
        <time>2024-05-10T07:35:35Z</time>
      </trkpt>
      <trkpt lat="43.25683" lon="2.94963">
        <ele>16.3</ele>
        <time>2024-05-10T07:35:36Z</time>
      </trkpt>
      <trkpt lat="43.25683" lon="2.94963">
        <ele>16.3</ele>
        <time>2024-05-10T07:35:37Z</time>
      </trkpt>
      <trkpt lat="43.25683" lon="2.94963">
        <ele>16.3</ele>
        <time>2024-05-10T07:35:38Z</time>
      </trkpt>
      <trkpt lat="43.25683" lon="2.94963">
        <ele>16.3</ele>
        <time>2024-05-10T07:35:39Z</time>
      </trkpt>
      <trkpt lat="43.25683" lon="2.94963">
        <ele>16.3</ele>
        <time>2024-05-10T07:35:40Z</time>
      </trkpt>
      <trkpt lat="43.25683" lon="2.94963">
        <ele>16.3</ele>
        <time>2024-05-10T07:35:41Z</time>
      </trkpt>
      <trkpt lat="43.25683" lon="2.94963">
        <ele>16.3</ele>
        <time>2024-05-10T07:35:42Z</time>
      </trkpt>
      <trkpt lat="43.25683" lon="2.94963">
        <ele>16.3</ele>
        <time>2024-05-10T07:35:43Z</time>
      </trkpt>
      <trkpt lat="43.25683" lon="2.94963">
        <ele>16.3</ele>
        <time>2024-05-10T07:35:44Z</time>
      </trkpt>
      <trkpt lat="43.25683" lon="2.94963">
        <ele>16.3</ele>
        <time>2024-05-10T07:35:45Z</time>
      </trkpt>
      <trkpt lat="43.25683" lon="2.94963">
        <ele>16.3</ele>
        <time>2024-05-10T07:35:46Z</time>
      </trkpt>
      <trkpt lat="43.25683" lon="2.94963">
        <ele>16.3</ele>
        <time>2024-05-10T07:35:47Z</time>
      </trkpt>
      <trkpt lat="43.25683" lon="2.94963">
        <ele>16.3</ele>
        <time>2024-05-10T07:35:48Z</time>
      </trkpt>
      <trkpt lat="43.25683" lon="2.94963">
        <ele>16.3</ele>
        <time>2024-05-10T07:35:49Z</time>
      </trkpt>
      <trkpt lat="43.25683" lon="2.94963">
        <ele>16.3</ele>
        <time>2024-05-10T07:35:50Z</time>
      </trkpt>
      <trkpt lat="43.25683" lon="2.94963">
        <ele>16.3</ele>
        <time>2024-05-10T07:35:51Z</time>
      </trkpt>
      <trkpt lat="43.25683" lon="2.94963">
        <ele>16.3</ele>
        <time>2024-05-10T07:35:52Z</time>
      </trkpt>
      <trkpt lat="43.25683" lon="2.94963">
        <ele>16.3</ele>
        <time>2024-05-10T07:35:53Z</time>
      </trkpt>
      <trkpt lat="43.25683" lon="2.94963">
        <ele>16.3</ele>
        <time>2024-05-10T07:35:54Z</time>
      </trkpt>
      <trkpt lat="43.25683" lon="2.94963">
        <ele>16.3</ele>
        <time>2024-05-10T07:35:55Z</time>
      </trkpt>
      <trkpt lat="43.25683" lon="2.94963">
        <ele>16.3</ele>
        <time>2024-05-10T07:35:56Z</time>
      </trkpt>
      <trkpt lat="43.25683" lon="2.94963">
        <ele>16.3</ele>
        <time>2024-05-10T07:35:57Z</time>
      </trkpt>
      <trkpt lat="43.25683" lon="2.94963">
        <ele>16.3</ele>
        <time>2024-05-10T07:35:58Z</time>
      </trkpt>
      <trkpt lat="43.25683" lon="2.94963">
        <ele>16.3</ele>
        <time>2024-05-10T07:35:59Z</time>
      </trkpt>
      <trkpt lat="43.25683" lon="2.94963">
        <ele>16.3</ele>
        <time>2024-05-10T07:36:00Z</time>
      </trkpt>
      <trkpt lat="43.25683" lon="2.94963">
        <ele>16.3</ele>
        <time>2024-05-10T07:36:01Z</time>
      </trkpt>
      <trkpt lat="43.25683" lon="2.94963">
        <ele>16.3</ele>
        <time>2024-05-10T07:36:02Z</time>
      </trkpt>
      <trkpt lat="43.25683" lon="2.94963">
        <ele>16.3</ele>
        <time>2024-05-10T07:36:03Z</time>
      </trkpt>
      <trkpt lat="43.25683" lon="2.94963">
        <ele>16.3</ele>
        <time>2024-05-10T07:36:04Z</time>
      </trkpt>
      <trkpt lat="43.25683" lon="2.94963">
        <ele>16.3</ele>
        <time>2024-05-10T07:36:05Z</time>
      </trkpt>
      <trkpt lat="43.25683" lon="2.94963">
        <ele>16.3</ele>
        <time>2024-05-10T07:36:06Z</time>
      </trkpt>
      <trkpt lat="43.25683" lon="2.94963">
        <ele>16.3</ele>
        <time>2024-05-10T07:36:07Z</time>
      </trkpt>
      <trkpt lat="43.25683" lon="2.94963">
        <ele>16.3</ele>
        <time>2024-05-10T07:36:08Z</time>
      </trkpt>
      <trkpt lat="43.25683" lon="2.94963">
        <ele>16.3</ele>
        <time>2024-05-10T07:36:09Z</time>
      </trkpt>
      <trkpt lat="43.25683" lon="2.94963">
        <ele>16.3</ele>
        <time>2024-05-10T07:36:10Z</time>
      </trkpt>
      <trkpt lat="43.25683" lon="2.94963">
        <ele>16.3</ele>
        <time>2024-05-10T07:36:11Z</time>
      </trkpt>
      <trkpt lat="43.25683" lon="2.94963">
        <ele>16.3</ele>
        <time>2024-05-10T07:36:12Z</time>
      </trkpt>
      <trkpt lat="43.25683" lon="2.94963">
        <ele>16.3</ele>
        <time>2024-05-10T07:36:13Z</time>
      </trkpt>
      <trkpt lat="43.25683" lon="2.94963">
        <ele>16.3</ele>
        <time>2024-05-10T07:36:14Z</time>
      </trkpt>
      <trkpt lat="43.25683" lon="2.94963">
        <ele>16.3</ele>
        <time>2024-05-10T07:36:15Z</time>
      </trkpt>
      <trkpt lat="43.25683" lon="2.94963">
        <ele>16.3</ele>
        <time>2024-05-10T07:36:16Z</time>
      </trkpt>
      <trkpt lat="43.25683" lon="2.94963">
        <ele>16.3</ele>
        <time>2024-05-10T07:36:17Z</time>
      </trkpt>
      <trkpt lat="43.25683" lon="2.94963">
        <ele>16.3</ele>
        <time>2024-05-10T07:36:18Z</time>
      </trkpt>
      <trkpt lat="43.25683" lon="2.94963">
        <ele>16.3</ele>
        <time>2024-05-10T07:36:19Z</time>
      </trkpt>
      <trkpt lat="43.25683" lon="2.94963">
        <ele>16.3</ele>
        <time>2024-05-10T07:36:20Z</time>
      </trkpt>
      <trkpt lat="43.25683" lon="2.94963">
        <ele>16.3</ele>
        <time>2024-05-10T07:36:21Z</time>
      </trkpt>
      <trkpt lat="43.25683" lon="2.94963">
        <ele>16.3</ele>
        <time>2024-05-10T07:36:22Z</time>
      </trkpt>
      <trkpt lat="43.25683" lon="2.94963">
        <ele>16.3</ele>
        <time>2024-05-10T07:36:23Z</time>
      </trkpt>
      <trkpt lat="43.25683" lon="2.94963">
        <ele>16.3</ele>
        <time>2024-05-10T07:36:24Z</time>
      </trkpt>
      <trkpt lat="43.25683" lon="2.94963">
        <ele>16.3</ele>
        <time>2024-05-10T07:36:25Z</time>
      </trkpt>
      <trkpt lat="43.25683" lon="2.94963">
        <ele>16.3</ele>
        <time>2024-05-10T07:36:26Z</time>
      </trkpt>
      <trkpt lat="43.25683" lon="2.94963">
        <ele>16.3</ele>
        <time>2024-05-10T07:36:27Z</time>
      </trkpt>
      <trkpt lat="43.25683" lon="2.94963">
        <ele>16.3</ele>
        <time>2024-05-10T07:36:28Z</time>
      </trkpt>
      <trkpt lat="43.25683" lon="2.94963">
        <ele>16.3</ele>
        <time>2024-05-10T07:36:29Z</time>
      </trkpt>
      <trkpt lat="43.25683" lon="2.94963">
        <ele>16.3</ele>
        <time>2024-05-10T07:36:30Z</time>
      </trkpt>
      <trkpt lat="43.25683" lon="2.94963">
        <ele>16.3</ele>
        <time>2024-05-10T07:36:31Z</time>
      </trkpt>
      <trkpt lat="43.25683" lon="2.94963">
        <ele>16.3</ele>
        <time>2024-05-10T07:36:32Z</time>
      </trkpt>
      <trkpt lat="43.25683" lon="2.94963">
        <ele>16.3</ele>
        <time>2024-05-10T07:36:33Z</time>
      </trkpt>
      <trkpt lat="43.25683" lon="2.94963">
        <ele>16.3</ele>
        <time>2024-05-10T07:36:34Z</time>
      </trkpt>
      <trkpt lat="43.25683" lon="2.94963">
        <ele>16.3</ele>
        <time>2024-05-10T07:36:35Z</time>
      </trkpt>
      <trkpt lat="43.25683" lon="2.94963">
        <ele>16.3</ele>
        <time>2024-05-10T07:36:36Z</time>
      </trkpt>
      <trkpt lat="43.25683" lon="2.94963">
        <ele>16.3</ele>
        <time>2024-05-10T07:36:37Z</time>
      </trkpt>
      <trkpt lat="43.25683" lon="2.94963">
        <ele>16.3</ele>
        <time>2024-05-10T07:36:38Z</time>
      </trkpt>
      <trkpt lat="43.25683" lon="2.94963">
        <ele>16.3</ele>
        <time>2024-05-10T07:36:39Z</time>
      </trkpt>
      <trkpt lat="43.25683" lon="2.94963">
        <ele>16.3</ele>
        <time>2024-05-10T07:36:40Z</time>
      </trkpt>
      <trkpt lat="43.25683" lon="2.94963">
        <ele>16.3</ele>
        <time>2024-05-10T07:36:41Z</time>
      </trkpt>
      <trkpt lat="43.25683" lon="2.94963">
        <ele>16.3</ele>
        <time>2024-05-10T07:36:42Z</time>
      </trkpt>
      <trkpt lat="43.25683" lon="2.94963">
        <ele>16.3</ele>
        <time>2024-05-10T07:36:43Z</time>
      </trkpt>
      <trkpt lat="43.25683" lon="2.94963">
        <ele>16.3</ele>
        <time>2024-05-10T07:36:44Z</time>
      </trkpt>
      <trkpt lat="43.25683" lon="2.94963">
        <ele>16.3</ele>
        <time>2024-05-10T07:36:45Z</time>
      </trkpt>
      <trkpt lat="43.25683" lon="2.94963">
        <ele>16.3</ele>
        <time>2024-05-10T07:36:46Z</time>
      </trkpt>
      <trkpt lat="43.25683" lon="2.94963">
        <ele>16.3</ele>
        <time>2024-05-10T07:36:47Z</time>
      </trkpt>
      <trkpt lat="43.25683" lon="2.94963">
        <ele>16.3</ele>
        <time>2024-05-10T07:36:48Z</time>
      </trkpt>
      <trkpt lat="43.25683" lon="2.94963">
        <ele>16.3</ele>
        <time>2024-05-10T07:36:49Z</time>
      </trkpt>
      <trkpt lat="43.25683" lon="2.94963">
        <ele>16.3</ele>
        <time>2024-05-10T07:36:50Z</time>
      </trkpt>
      <trkpt lat="43.25683" lon="2.94963">
        <ele>16.3</ele>
        <time>2024-05-10T07:36:51Z</time>
      </trkpt>
      <trkpt lat="43.25683" lon="2.94963">
        <ele>16.3</ele>
        <time>2024-05-10T07:36:52Z</time>
      </trkpt>
      <trkpt lat="43.25683" lon="2.94963">
        <ele>16.3</ele>
        <time>2024-05-10T07:36:53Z</time>
      </trkpt>
      <trkpt lat="43.25683" lon="2.94963">
        <ele>16.3</ele>
        <time>2024-05-10T07:36:54Z</time>
      </trkpt>
      <trkpt lat="43.25683" lon="2.94963">
        <ele>16.3</ele>
        <time>2024-05-10T07:36:55Z</time>
      </trkpt>
      <trkpt lat="43.25683" lon="2.94963">
        <ele>16.3</ele>
        <time>2024-05-10T07:36:56Z</time>
      </trkpt>
      <trkpt lat="43.25683" lon="2.94963">
        <ele>16.3</ele>
        <time>2024-05-10T07:36:57Z</time>
      </trkpt>
      <trkpt lat="43.25683" lon="2.94963">
        <ele>16.3</ele>
        <time>2024-05-10T07:36:58Z</time>
      </trkpt>
      <trkpt lat="43.25683" lon="2.94963">
        <ele>16.3</ele>
        <time>2024-05-10T07:36:59Z</time>
      </trkpt>
      <trkpt lat="43.25683" lon="2.94963">
        <ele>16.3</ele>
        <time>2024-05-10T07:37:00Z</time>
      </trkpt>
      <trkpt lat="43.25683" lon="2.94963">
        <ele>16.3</ele>
        <time>2024-05-10T07:37:01Z</time>
      </trkpt>
      <trkpt lat="43.25683" lon="2.94963">
        <ele>16.3</ele>
        <time>2024-05-10T07:37:02Z</time>
      </trkpt>
      <trkpt lat="43.25683" lon="2.94963">
        <ele>16.3</ele>
        <time>2024-05-10T07:37:03Z</time>
      </trkpt>
      <trkpt lat="43.25683" lon="2.94963">
        <ele>16.3</ele>
        <time>2024-05-10T07:37:04Z</time>
      </trkpt>
      <trkpt lat="43.25683" lon="2.94963">
        <ele>16.3</ele>
        <time>2024-05-10T07:37:05Z</time>
      </trkpt>
      <trkpt lat="43.25683" lon="2.94963">
        <ele>16.3</ele>
        <time>2024-05-10T07:37:06Z</time>
      </trkpt>
      <trkpt lat="43.25683" lon="2.94963">
        <ele>16.3</ele>
        <time>2024-05-10T07:37:07Z</time>
      </trkpt>
      <trkpt lat="43.25683" lon="2.94963">
        <ele>16.3</ele>
        <time>2024-05-10T07:37:08Z</time>
      </trkpt>
      <trkpt lat="43.25683" lon="2.94963">
        <ele>16.3</ele>
        <time>2024-05-10T07:37:09Z</time>
      </trkpt>
      <trkpt lat="43.25683" lon="2.94963">
        <ele>16.3</ele>
        <time>2024-05-10T07:37:10Z</time>
      </trkpt>
      <trkpt lat="43.25683" lon="2.94963">
        <ele>16.3</ele>
        <time>2024-05-10T07:37:11Z</time>
      </trkpt>
      <trkpt lat="43.25683" lon="2.94963">
        <ele>16.3</ele>
        <time>2024-05-10T07:37:12Z</time>
      </trkpt>
      <trkpt lat="43.25683" lon="2.94963">
        <ele>16.3</ele>
        <time>2024-05-10T07:37:13Z</time>
      </trkpt>
      <trkpt lat="43.25683" lon="2.94963">
        <ele>16.3</ele>
        <time>2024-05-10T07:37:14Z</time>
      </trkpt>
      <trkpt lat="43.25683" lon="2.94963">
        <ele>16.3</ele>
        <time>2024-05-10T07:37:15Z</time>
      </trkpt>
      <trkpt lat="43.25683" lon="2.94963">
        <ele>16.3</ele>
        <time>2024-05-10T07:37:16Z</time>
      </trkpt>
      <trkpt lat="43.25683" lon="2.94963">
        <ele>16.3</ele>
        <time>2024-05-10T07:37:17Z</time>
      </trkpt>
      <trkpt lat="43.25683" lon="2.94963">
        <ele>16.3</ele>
        <time>2024-05-10T07:37:18Z</time>
      </trkpt>
      <trkpt lat="43.25683" lon="2.94963">
        <ele>16.3</ele>
        <time>2024-05-10T07:37:19Z</time>
      </trkpt>
      <trkpt lat="43.25683" lon="2.94963">
        <ele>16.3</ele>
        <time>2024-05-10T07:37:20Z</time>
      </trkpt>
      <trkpt lat="43.25683" lon="2.94963">
        <ele>16.3</ele>
        <time>2024-05-10T07:37:21Z</time>
      </trkpt>
      <trkpt lat="43.25683" lon="2.94963">
        <ele>16.3</ele>
        <time>2024-05-10T07:37:22Z</time>
      </trkpt>
      <trkpt lat="43.25683" lon="2.94963">
        <ele>16.3</ele>
        <time>2024-05-10T07:37:23Z</time>
      </trkpt>
      <trkpt lat="43.25683" lon="2.94963">
        <ele>16.3</ele>
        <time>2024-05-10T07:37:24Z</time>
      </trkpt>
      <trkpt lat="43.25683" lon="2.94963">
        <ele>16.3</ele>
        <time>2024-05-10T07:37:25Z</time>
      </trkpt>
      <trkpt lat="43.25683" lon="2.94963">
        <ele>16.3</ele>
        <time>2024-05-10T07:37:26Z</time>
      </trkpt>
      <trkpt lat="43.25683" lon="2.94963">
        <ele>16.3</ele>
        <time>2024-05-10T07:37:27Z</time>
      </trkpt>
      <trkpt lat="43.25683" lon="2.94963">
        <ele>16.3</ele>
        <time>2024-05-10T07:37:28Z</time>
      </trkpt>
      <trkpt lat="43.25683" lon="2.94963">
        <ele>16.3</ele>
        <time>2024-05-10T07:37:29Z</time>
      </trkpt>
      <trkpt lat="43.25683" lon="2.94963">
        <ele>16.3</ele>
        <time>2024-05-10T07:37:30Z</time>
      </trkpt>
      <trkpt lat="43.25683" lon="2.94963">
        <ele>16.3</ele>
        <time>2024-05-10T07:37:31Z</time>
      </trkpt>
      <trkpt lat="43.25683" lon="2.94963">
        <ele>16.3</ele>
        <time>2024-05-10T07:37:32Z</time>
      </trkpt>
      <trkpt lat="43.25683" lon="2.94963">
        <ele>16.3</ele>
        <time>2024-05-10T07:37:33Z</time>
      </trkpt>
      <trkpt lat="43.25683" lon="2.94963">
        <ele>16.3</ele>
        <time>2024-05-10T07:37:34Z</time>
      </trkpt>
      <trkpt lat="43.25683" lon="2.94963">
        <ele>16.3</ele>
        <time>2024-05-10T07:37:35Z</time>
      </trkpt>
      <trkpt lat="43.25683" lon="2.94963">
        <ele>16.3</ele>
        <time>2024-05-10T07:37:36Z</time>
      </trkpt>
      <trkpt lat="43.25683" lon="2.94963">
        <ele>16.3</ele>
        <time>2024-05-10T07:37:37Z</time>
      </trkpt>
      <trkpt lat="43.25683" lon="2.94963">
        <ele>16.3</ele>
        <time>2024-05-10T07:37:38Z</time>
      </trkpt>
      <trkpt lat="43.25683" lon="2.94963">
        <ele>16.3</ele>
        <time>2024-05-10T07:37:39Z</time>
      </trkpt>
      <trkpt lat="43.25683" lon="2.94963">
        <ele>16.3</ele>
        <time>2024-05-10T07:37:40Z</time>
      </trkpt>
      <trkpt lat="43.25683" lon="2.94963">
        <ele>16.3</ele>
        <time>2024-05-10T07:37:41Z</time>
      </trkpt>
      <trkpt lat="43.25683" lon="2.94963">
        <ele>16.3</ele>
        <time>2024-05-10T07:37:42Z</time>
      </trkpt>
      <trkpt lat="43.25683" lon="2.94963">
        <ele>16.3</ele>
        <time>2024-05-10T07:37:43Z</time>
      </trkpt>
      <trkpt lat="43.25683" lon="2.94963">
        <ele>16.3</ele>
        <time>2024-05-10T07:37:44Z</time>
      </trkpt>
      <trkpt lat="43.25683" lon="2.94963">
        <ele>16.3</ele>
        <time>2024-05-10T07:37:45Z</time>
      </trkpt>
      <trkpt lat="43.25683" lon="2.94963">
        <ele>16.3</ele>
        <time>2024-05-10T07:37:46Z</time>
      </trkpt>
      <trkpt lat="43.25683" lon="2.94963">
        <ele>16.3</ele>
        <time>2024-05-10T07:37:47Z</time>
      </trkpt>
      <trkpt lat="43.25683" lon="2.94963">
        <ele>16.3</ele>
        <time>2024-05-10T07:37:48Z</time>
      </trkpt>
      <trkpt lat="43.25683" lon="2.94963">
        <ele>16.3</ele>
        <time>2024-05-10T07:37:49Z</time>
      </trkpt>
      <trkpt lat="43.25683" lon="2.94963">
        <ele>16.3</ele>
        <time>2024-05-10T07:37:50Z</time>
      </trkpt>
      <trkpt lat="43.25683" lon="2.94963">
        <ele>16.3</ele>
        <time>2024-05-10T07:37:51Z</time>
      </trkpt>
      <trkpt lat="43.25683" lon="2.94963">
        <ele>16.3</ele>
        <time>2024-05-10T07:37:52Z</time>
      </trkpt>
      <trkpt lat="43.25683" lon="2.94963">
        <ele>16.3</ele>
        <time>2024-05-10T07:37:53Z</time>
      </trkpt>
      <trkpt lat="43.25683" lon="2.94963">
        <ele>16.3</ele>
        <time>2024-05-10T07:37:54Z</time>
      </trkpt>
      <trkpt lat="43.25683" lon="2.94963">
        <ele>16.3</ele>
        <time>2024-05-10T07:37:55Z</time>
      </trkpt>
      <trkpt lat="43.25683" lon="2.94963">
        <ele>16.3</ele>
        <time>2024-05-10T07:37:56Z</time>
      </trkpt>
      <trkpt lat="43.25683" lon="2.94963">
        <ele>16.3</ele>
        <time>2024-05-10T07:37:57Z</time>
      </trkpt>
      <trkpt lat="43.25683" lon="2.94963">
        <ele>16.3</ele>
        <time>2024-05-10T07:37:58Z</time>
      </trkpt>
      <trkpt lat="43.25683" lon="2.94963">
        <ele>16.3</ele>
        <time>2024-05-10T07:37:59Z</time>
      </trkpt>
      <trkpt lat="43.25683" lon="2.94963">
        <ele>16.3</ele>
        <time>2024-05-10T07:38:00Z</time>
      </trkpt>
      <trkpt lat="43.25683" lon="2.94963">
        <ele>16.3</ele>
        <time>2024-05-10T07:38:01Z</time>
      </trkpt>
      <trkpt lat="43.25683" lon="2.94963">
        <ele>16.3</ele>
        <time>2024-05-10T07:38:02Z</time>
      </trkpt>
      <trkpt lat="43.25683" lon="2.94963">
        <ele>16.3</ele>
        <time>2024-05-10T07:38:03Z</time>
      </trkpt>
      <trkpt lat="43.25683" lon="2.94963">
        <ele>16.3</ele>
        <time>2024-05-10T07:38:04Z</time>
      </trkpt>
      <trkpt lat="43.25683" lon="2.94963">
        <ele>16.3</ele>
        <time>2024-05-10T07:38:05Z</time>
      </trkpt>
      <trkpt lat="43.25683" lon="2.94963">
        <ele>16.3</ele>
        <time>2024-05-10T07:38:06Z</time>
      </trkpt>
      <trkpt lat="43.25683" lon="2.94963">
        <ele>16.3</ele>
        <time>2024-05-10T07:38:07Z</time>
      </trkpt>
      <trkpt lat="43.25683" lon="2.94963">
        <ele>16.3</ele>
        <time>2024-05-10T07:38:08Z</time>
      </trkpt>
      <trkpt lat="43.25683" lon="2.94963">
        <ele>16.3</ele>
        <time>2024-05-10T07:38:09Z</time>
      </trkpt>
      <trkpt lat="43.25683" lon="2.94963">
        <ele>16.3</ele>
        <time>2024-05-10T07:38:10Z</time>
      </trkpt>
      <trkpt lat="43.25683" lon="2.94963">
        <ele>16.3</ele>
        <time>2024-05-10T07:38:11Z</time>
      </trkpt>
      <trkpt lat="43.25683" lon="2.94963">
        <ele>16.3</ele>
        <time>2024-05-10T07:38:12Z</time>
      </trkpt>
      <trkpt lat="43.25683" lon="2.94964">
        <ele>16.3</ele>
        <time>2024-05-10T07:38:13Z</time>
      </trkpt>
      <trkpt lat="43.25684" lon="2.94964">
        <ele>16.3</ele>
        <time>2024-05-10T07:38:14Z</time>
      </trkpt>
      <trkpt lat="43.25684" lon="2.94964">
        <ele>16.3</ele>
        <time>2024-05-10T07:38:15Z</time>
      </trkpt>
      <trkpt lat="43.25684" lon="2.94964">
        <ele>16.3</ele>
        <time>2024-05-10T07:38:16Z</time>
      </trkpt>
      <trkpt lat="43.25684" lon="2.94964">
        <ele>16.3</ele>
        <time>2024-05-10T07:38:17Z</time>
      </trkpt>
      <trkpt lat="43.25684" lon="2.94964">
        <ele>16.3</ele>
        <time>2024-05-10T07:38:18Z</time>
      </trkpt>
      <trkpt lat="43.25684" lon="2.94964">
        <ele>16.3</ele>
        <time>2024-05-10T07:38:19Z</time>
      </trkpt>
      <trkpt lat="43.25683" lon="2.94964">
        <ele>16.3</ele>
        <time>2024-05-10T07:38:20Z</time>
      </trkpt>
      <trkpt lat="43.25683" lon="2.94964">
        <ele>16.3</ele>
        <time>2024-05-10T07:38:21Z</time>
      </trkpt>
      <trkpt lat="43.25683" lon="2.94964">
        <ele>16.3</ele>
        <time>2024-05-10T07:38:22Z</time>
      </trkpt>
      <trkpt lat="43.25683" lon="2.94965">
        <ele>16.3</ele>
        <time>2024-05-10T07:38:23Z</time>
      </trkpt>
      <trkpt lat="43.25683" lon="2.94965">
        <ele>16.3</ele>
        <time>2024-05-10T07:38:24Z</time>
      </trkpt>
      <trkpt lat="43.25683" lon="2.94966">
        <ele>16.4</ele>
        <time>2024-05-10T07:38:25Z</time>
      </trkpt>
      <trkpt lat="43.25684" lon="2.94968">
        <ele>16.5</ele>
        <time>2024-05-10T07:38:26Z</time>
      </trkpt>
      <trkpt lat="43.25684" lon="2.9497">
        <ele>16.5</ele>
        <time>2024-05-10T07:38:27Z</time>
      </trkpt>
      <trkpt lat="43.25684" lon="2.94972">
        <ele>16.6</ele>
        <time>2024-05-10T07:38:28Z</time>
      </trkpt>
      <trkpt lat="43.25683" lon="2.94974">
        <ele>16.4</ele>
        <time>2024-05-10T07:38:29Z</time>
      </trkpt>
      <trkpt lat="43.25681" lon="2.94976">
        <ele>16.1</ele>
        <time>2024-05-10T07:38:30Z</time>
      </trkpt>
      <trkpt lat="43.25679" lon="2.94977">
        <ele>15.9</ele>
        <time>2024-05-10T07:38:31Z</time>
      </trkpt>
      <trkpt lat="43.25677" lon="2.94978">
        <ele>15.8</ele>
        <time>2024-05-10T07:38:32Z</time>
      </trkpt>
      <trkpt lat="43.25675" lon="2.94979">
        <ele>15.7</ele>
        <time>2024-05-10T07:38:33Z</time>
      </trkpt>
      <trkpt lat="43.25673" lon="2.9498">
        <ele>15.5</ele>
        <time>2024-05-10T07:38:34Z</time>
      </trkpt>
      <trkpt lat="43.25672" lon="2.9498">
        <ele>15.5</ele>
        <time>2024-05-10T07:38:35Z</time>
      </trkpt>
      <trkpt lat="43.2567" lon="2.94981">
        <ele>15.4</ele>
        <time>2024-05-10T07:38:36Z</time>
      </trkpt>
      <trkpt lat="43.25669" lon="2.94982">
        <ele>15.3</ele>
        <time>2024-05-10T07:38:37Z</time>
      </trkpt>
      <trkpt lat="43.25668" lon="2.94983">
        <ele>15.2</ele>
        <time>2024-05-10T07:38:38Z</time>
      </trkpt>
      <trkpt lat="43.25668" lon="2.94983">
        <ele>15.2</ele>
        <time>2024-05-10T07:38:39Z</time>
      </trkpt>
      <trkpt lat="43.25668" lon="2.94983">
        <ele>15.2</ele>
        <time>2024-05-10T07:38:40Z</time>
      </trkpt>
      <trkpt lat="43.25667" lon="2.94983">
        <ele>15.2</ele>
        <time>2024-05-10T07:38:41Z</time>
      </trkpt>
      <trkpt lat="43.25667" lon="2.94983">
        <ele>15.2</ele>
        <time>2024-05-10T07:38:42Z</time>
      </trkpt>
      <trkpt lat="43.25666" lon="2.94983">
        <ele>15.2</ele>
        <time>2024-05-10T07:38:43Z</time>
      </trkpt>
      <trkpt lat="43.25666" lon="2.94983">
        <ele>15.2</ele>
        <time>2024-05-10T07:38:44Z</time>
      </trkpt>
      <trkpt lat="43.25666" lon="2.94983">
        <ele>15.2</ele>
        <time>2024-05-10T07:38:45Z</time>
      </trkpt>
      <trkpt lat="43.25665" lon="2.94983">
        <ele>15.3</ele>
        <time>2024-05-10T07:38:46Z</time>
      </trkpt>
      <trkpt lat="43.25665" lon="2.94983">
        <ele>15.3</ele>
        <time>2024-05-10T07:38:47Z</time>
      </trkpt>
      <trkpt lat="43.25664" lon="2.94983">
        <ele>15.3</ele>
        <time>2024-05-10T07:38:48Z</time>
      </trkpt>
      <trkpt lat="43.25663" lon="2.94984">
        <ele>15.3</ele>
        <time>2024-05-10T07:38:49Z</time>
      </trkpt>
      <trkpt lat="43.25661" lon="2.94985">
        <ele>15.3</ele>
        <time>2024-05-10T07:38:50Z</time>
      </trkpt>
      <trkpt lat="43.2566" lon="2.94985">
        <ele>15.3</ele>
        <time>2024-05-10T07:38:51Z</time>
      </trkpt>
      <trkpt lat="43.25659" lon="2.94986">
        <ele>15.3</ele>
        <time>2024-05-10T07:38:52Z</time>
      </trkpt>
      <trkpt lat="43.25658" lon="2.94986">
        <ele>15.3</ele>
        <time>2024-05-10T07:38:53Z</time>
      </trkpt>
      <trkpt lat="43.25658" lon="2.94987">
        <ele>15.3</ele>
        <time>2024-05-10T07:38:54Z</time>
      </trkpt>
      <trkpt lat="43.25658" lon="2.94987">
        <ele>15.3</ele>
        <time>2024-05-10T07:38:55Z</time>
      </trkpt>
      <trkpt lat="43.25658" lon="2.94987">
        <ele>15.3</ele>
        <time>2024-05-10T07:38:56Z</time>
      </trkpt>
      <trkpt lat="43.25658" lon="2.94987">
        <ele>15.3</ele>
        <time>2024-05-10T07:38:57Z</time>
      </trkpt>
      <trkpt lat="43.25658" lon="2.94988">
        <ele>15.2</ele>
        <time>2024-05-10T07:38:58Z</time>
      </trkpt>
      <trkpt lat="43.25658" lon="2.94988">
        <ele>15.2</ele>
        <time>2024-05-10T07:38:59Z</time>
      </trkpt>
      <trkpt lat="43.25658" lon="2.94988">
        <ele>15.2</ele>
        <time>2024-05-10T07:39:00Z</time>
      </trkpt>
      <trkpt lat="43.25658" lon="2.94988">
        <ele>15.2</ele>
        <time>2024-05-10T07:39:01Z</time>
      </trkpt>
      <trkpt lat="43.25658" lon="2.94988">
        <ele>15.2</ele>
        <time>2024-05-10T07:39:02Z</time>
      </trkpt>
      <trkpt lat="43.25658" lon="2.94988">
        <ele>15.2</ele>
        <time>2024-05-10T07:39:03Z</time>
      </trkpt>
      <trkpt lat="43.25658" lon="2.94988">
        <ele>15.2</ele>
        <time>2024-05-10T07:39:04Z</time>
      </trkpt>
      <trkpt lat="43.25659" lon="2.94987">
        <ele>15.2</ele>
        <time>2024-05-10T07:39:05Z</time>
      </trkpt>
      <trkpt lat="43.25659" lon="2.94987">
        <ele>15.2</ele>
        <time>2024-05-10T07:39:06Z</time>
      </trkpt>
      <trkpt lat="43.25659" lon="2.94986">
        <ele>15.3</ele>
        <time>2024-05-10T07:39:07Z</time>
      </trkpt>
      <trkpt lat="43.25659" lon="2.94986">
        <ele>15.3</ele>
        <time>2024-05-10T07:39:08Z</time>
      </trkpt>
      <trkpt lat="43.25658" lon="2.94986">
        <ele>15.3</ele>
        <time>2024-05-10T07:39:09Z</time>
      </trkpt>
      <trkpt lat="43.25658" lon="2.94986">
        <ele>15.3</ele>
        <time>2024-05-10T07:39:10Z</time>
      </trkpt>
      <trkpt lat="43.25658" lon="2.94986">
        <ele>15.3</ele>
        <time>2024-05-10T07:39:11Z</time>
      </trkpt>
      <trkpt lat="43.25658" lon="2.94986">
        <ele>15.3</ele>
        <time>2024-05-10T07:39:12Z</time>
      </trkpt>
      <trkpt lat="43.25658" lon="2.94986">
        <ele>15.3</ele>
        <time>2024-05-10T07:39:13Z</time>
      </trkpt>
      <trkpt lat="43.25658" lon="2.94987">
        <ele>15.3</ele>
        <time>2024-05-10T07:39:14Z</time>
      </trkpt>
      <trkpt lat="43.25658" lon="2.94987">
        <ele>15.3</ele>
        <time>2024-05-10T07:39:15Z</time>
      </trkpt>
      <trkpt lat="43.25658" lon="2.94987">
        <ele>15.3</ele>
        <time>2024-05-10T07:39:16Z</time>
      </trkpt>
      <trkpt lat="43.25658" lon="2.94987">
        <ele>15.3</ele>
        <time>2024-05-10T07:39:17Z</time>
      </trkpt>
      <trkpt lat="43.25658" lon="2.94987">
        <ele>15.3</ele>
        <time>2024-05-10T07:39:18Z</time>
      </trkpt>
      <trkpt lat="43.25658" lon="2.94987">
        <ele>15.3</ele>
        <time>2024-05-10T07:39:19Z</time>
      </trkpt>
      <trkpt lat="43.25658" lon="2.94987">
        <ele>15.3</ele>
        <time>2024-05-10T07:39:20Z</time>
      </trkpt>
      <trkpt lat="43.25658" lon="2.94986">
        <ele>15.3</ele>
        <time>2024-05-10T07:39:21Z</time>
      </trkpt>
      <trkpt lat="43.25658" lon="2.94985">
        <ele>15.4</ele>
        <time>2024-05-10T07:39:22Z</time>
      </trkpt>
      <trkpt lat="43.25658" lon="2.94985">
        <ele>15.4</ele>
        <time>2024-05-10T07:39:23Z</time>
      </trkpt>
      <trkpt lat="43.25658" lon="2.94984">
        <ele>15.4</ele>
        <time>2024-05-10T07:39:24Z</time>
      </trkpt>
      <trkpt lat="43.25658" lon="2.94984">
        <ele>15.4</ele>
        <time>2024-05-10T07:39:25Z</time>
      </trkpt>
      <trkpt lat="43.25658" lon="2.94983">
        <ele>15.5</ele>
        <time>2024-05-10T07:39:26Z</time>
      </trkpt>
      <trkpt lat="43.25658" lon="2.94983">
        <ele>15.5</ele>
        <time>2024-05-10T07:39:27Z</time>
      </trkpt>
      <trkpt lat="43.25658" lon="2.94983">
        <ele>15.5</ele>
        <time>2024-05-10T07:39:28Z</time>
      </trkpt>
      <trkpt lat="43.25658" lon="2.94983">
        <ele>15.5</ele>
        <time>2024-05-10T07:39:29Z</time>
      </trkpt>
      <trkpt lat="43.25658" lon="2.94983">
        <ele>15.5</ele>
        <time>2024-05-10T07:39:30Z</time>
      </trkpt>
      <trkpt lat="43.25658" lon="2.94983">
        <ele>15.5</ele>
        <time>2024-05-10T07:39:31Z</time>
      </trkpt>
      <trkpt lat="43.25658" lon="2.94983">
        <ele>15.5</ele>
        <time>2024-05-10T07:39:32Z</time>
      </trkpt>
      <trkpt lat="43.25658" lon="2.94983">
        <ele>15.5</ele>
        <time>2024-05-10T07:39:33Z</time>
      </trkpt>
      <trkpt lat="43.25658" lon="2.94983">
        <ele>15.5</ele>
        <time>2024-05-10T07:39:34Z</time>
      </trkpt>
      <trkpt lat="43.25658" lon="2.94983">
        <ele>15.5</ele>
        <time>2024-05-10T07:39:35Z</time>
      </trkpt>
      <trkpt lat="43.25658" lon="2.94983">
        <ele>15.5</ele>
        <time>2024-05-10T07:39:36Z</time>
      </trkpt>
      <trkpt lat="43.25658" lon="2.94983">
        <ele>15.5</ele>
        <time>2024-05-10T07:39:37Z</time>
      </trkpt>
      <trkpt lat="43.25658" lon="2.94983">
        <ele>15.5</ele>
        <time>2024-05-10T07:39:38Z</time>
      </trkpt>
      <trkpt lat="43.25658" lon="2.94983">
        <ele>15.5</ele>
        <time>2024-05-10T07:39:39Z</time>
      </trkpt>
      <trkpt lat="43.25658" lon="2.94983">
        <ele>15.5</ele>
        <time>2024-05-10T07:39:40Z</time>
      </trkpt>
      <trkpt lat="43.25658" lon="2.94983">
        <ele>15.5</ele>
        <time>2024-05-10T07:39:41Z</time>
      </trkpt>
      <trkpt lat="43.25658" lon="2.94983">
        <ele>15.5</ele>
        <time>2024-05-10T07:39:42Z</time>
      </trkpt>
      <trkpt lat="43.25658" lon="2.94983">
        <ele>15.5</ele>
        <time>2024-05-10T07:39:43Z</time>
      </trkpt>
      <trkpt lat="43.25658" lon="2.94983">
        <ele>15.5</ele>
        <time>2024-05-10T07:39:44Z</time>
      </trkpt>
      <trkpt lat="43.25658" lon="2.94983">
        <ele>15.5</ele>
        <time>2024-05-10T07:39:45Z</time>
      </trkpt>
      <trkpt lat="43.25658" lon="2.94983">
        <ele>15.5</ele>
        <time>2024-05-10T07:39:46Z</time>
      </trkpt>
      <trkpt lat="43.25658" lon="2.94983">
        <ele>15.5</ele>
        <time>2024-05-10T07:39:47Z</time>
      </trkpt>
      <trkpt lat="43.25658" lon="2.94983">
        <ele>15.5</ele>
        <time>2024-05-10T07:39:48Z</time>
      </trkpt>
      <trkpt lat="43.25658" lon="2.94983">
        <ele>15.5</ele>
        <time>2024-05-10T07:39:49Z</time>
      </trkpt>
      <trkpt lat="43.25658" lon="2.94983">
        <ele>15.5</ele>
        <time>2024-05-10T07:39:50Z</time>
      </trkpt>
      <trkpt lat="43.25658" lon="2.94983">
        <ele>15.5</ele>
        <time>2024-05-10T07:39:51Z</time>
      </trkpt>
      <trkpt lat="43.25658" lon="2.94983">
        <ele>15.5</ele>
        <time>2024-05-10T07:39:52Z</time>
      </trkpt>
      <trkpt lat="43.25658" lon="2.94983">
        <ele>15.5</ele>
        <time>2024-05-10T07:39:53Z</time>
      </trkpt>
      <trkpt lat="43.25658" lon="2.94983">
        <ele>15.5</ele>
        <time>2024-05-10T07:39:54Z</time>
      </trkpt>
      <trkpt lat="43.25658" lon="2.94983">
        <ele>15.5</ele>
        <time>2024-05-10T07:39:55Z</time>
      </trkpt>
      <trkpt lat="43.25658" lon="2.94983">
        <ele>15.5</ele>
        <time>2024-05-10T07:39:56Z</time>
      </trkpt>
      <trkpt lat="43.25658" lon="2.94983">
        <ele>15.5</ele>
        <time>2024-05-10T07:39:57Z</time>
      </trkpt>
      <trkpt lat="43.25658" lon="2.94983">
        <ele>15.5</ele>
        <time>2024-05-10T07:39:58Z</time>
      </trkpt>
      <trkpt lat="43.25658" lon="2.94983">
        <ele>15.5</ele>
        <time>2024-05-10T07:39:59Z</time>
      </trkpt>
      <trkpt lat="43.25658" lon="2.94983">
        <ele>15.5</ele>
        <time>2024-05-10T07:40:00Z</time>
      </trkpt>
      <trkpt lat="43.25658" lon="2.94983">
        <ele>15.5</ele>
        <time>2024-05-10T07:40:01Z</time>
      </trkpt>
      <trkpt lat="43.25658" lon="2.94983">
        <ele>15.5</ele>
        <time>2024-05-10T07:40:02Z</time>
      </trkpt>
      <trkpt lat="43.25658" lon="2.94983">
        <ele>15.5</ele>
        <time>2024-05-10T07:40:03Z</time>
      </trkpt>
      <trkpt lat="43.25658" lon="2.94983">
        <ele>15.5</ele>
        <time>2024-05-10T07:40:04Z</time>
      </trkpt>
      <trkpt lat="43.25658" lon="2.94983">
        <ele>15.5</ele>
        <time>2024-05-10T07:40:05Z</time>
      </trkpt>
      <trkpt lat="43.25658" lon="2.94983">
        <ele>15.5</ele>
        <time>2024-05-10T07:40:06Z</time>
      </trkpt>
      <trkpt lat="43.25658" lon="2.94983">
        <ele>15.5</ele>
        <time>2024-05-10T07:40:07Z</time>
      </trkpt>
      <trkpt lat="43.25658" lon="2.94983">
        <ele>15.5</ele>
        <time>2024-05-10T07:40:08Z</time>
      </trkpt>
      <trkpt lat="43.25658" lon="2.94983">
        <ele>15.5</ele>
        <time>2024-05-10T07:40:09Z</time>
      </trkpt>
      <trkpt lat="43.25658" lon="2.94983">
        <ele>15.5</ele>
        <time>2024-05-10T07:40:10Z</time>
      </trkpt>
      <trkpt lat="43.25658" lon="2.94983">
        <ele>15.5</ele>
        <time>2024-05-10T07:40:11Z</time>
      </trkpt>
      <trkpt lat="43.25658" lon="2.94983">
        <ele>15.5</ele>
        <time>2024-05-10T07:40:12Z</time>
      </trkpt>
      <trkpt lat="43.25658" lon="2.94983">
        <ele>15.5</ele>
        <time>2024-05-10T07:40:13Z</time>
      </trkpt>
      <trkpt lat="43.25658" lon="2.94983">
        <ele>15.5</ele>
        <time>2024-05-10T07:40:14Z</time>
      </trkpt>
      <trkpt lat="43.25658" lon="2.94983">
        <ele>15.5</ele>
        <time>2024-05-10T07:40:15Z</time>
      </trkpt>
      <trkpt lat="43.25658" lon="2.94983">
        <ele>15.5</ele>
        <time>2024-05-10T07:40:16Z</time>
      </trkpt>
      <trkpt lat="43.25658" lon="2.94983">
        <ele>15.5</ele>
        <time>2024-05-10T07:40:17Z</time>
      </trkpt>
      <trkpt lat="43.25658" lon="2.94983">
        <ele>15.5</ele>
        <time>2024-05-10T07:40:18Z</time>
      </trkpt>
      <trkpt lat="43.25658" lon="2.94983">
        <ele>15.5</ele>
        <time>2024-05-10T07:40:19Z</time>
      </trkpt>
      <trkpt lat="43.25658" lon="2.94983">
        <ele>15.5</ele>
        <time>2024-05-10T07:40:20Z</time>
      </trkpt>
      <trkpt lat="43.25658" lon="2.94983">
        <ele>15.5</ele>
        <time>2024-05-10T07:40:21Z</time>
      </trkpt>
      <trkpt lat="43.25658" lon="2.94983">
        <ele>15.5</ele>
        <time>2024-05-10T07:40:22Z</time>
      </trkpt>
      <trkpt lat="43.25658" lon="2.94983">
        <ele>15.5</ele>
        <time>2024-05-10T07:40:23Z</time>
      </trkpt>
      <trkpt lat="43.25658" lon="2.94983">
        <ele>15.5</ele>
        <time>2024-05-10T07:40:24Z</time>
      </trkpt>
      <trkpt lat="43.25658" lon="2.94983">
        <ele>15.5</ele>
        <time>2024-05-10T07:40:25Z</time>
      </trkpt>
      <trkpt lat="43.25658" lon="2.94982">
        <ele>15.5</ele>
        <time>2024-05-10T07:40:26Z</time>
      </trkpt>
      <trkpt lat="43.25658" lon="2.94981">
        <ele>15.6</ele>
        <time>2024-05-10T07:40:27Z</time>
      </trkpt>
      <trkpt lat="43.25658" lon="2.94981">
        <ele>15.6</ele>
        <time>2024-05-10T07:40:28Z</time>
      </trkpt>
      <trkpt lat="43.25658" lon="2.94981">
        <ele>15.6</ele>
        <time>2024-05-10T07:40:29Z</time>
      </trkpt>
      <trkpt lat="43.25658" lon="2.94981">
        <ele>15.6</ele>
        <time>2024-05-10T07:40:30Z</time>
      </trkpt>
      <trkpt lat="43.25658" lon="2.94981">
        <ele>15.6</ele>
        <time>2024-05-10T07:40:31Z</time>
      </trkpt>
      <trkpt lat="43.25658" lon="2.94981">
        <ele>15.6</ele>
        <time>2024-05-10T07:40:32Z</time>
      </trkpt>
      <trkpt lat="43.25658" lon="2.94981">
        <ele>15.6</ele>
        <time>2024-05-10T07:40:33Z</time>
      </trkpt>
      <trkpt lat="43.25658" lon="2.94981">
        <ele>15.6</ele>
        <time>2024-05-10T07:40:34Z</time>
      </trkpt>
      <trkpt lat="43.25658" lon="2.94981">
        <ele>15.6</ele>
        <time>2024-05-10T07:40:35Z</time>
      </trkpt>
      <trkpt lat="43.25658" lon="2.94981">
        <ele>15.6</ele>
        <time>2024-05-10T07:40:36Z</time>
      </trkpt>
      <trkpt lat="43.25658" lon="2.94981">
        <ele>15.6</ele>
        <time>2024-05-10T07:40:37Z</time>
      </trkpt>
      <trkpt lat="43.25658" lon="2.94981">
        <ele>15.6</ele>
        <time>2024-05-10T07:40:38Z</time>
      </trkpt>
      <trkpt lat="43.25658" lon="2.94981">
        <ele>15.6</ele>
        <time>2024-05-10T07:40:39Z</time>
      </trkpt>
      <trkpt lat="43.25658" lon="2.94981">
        <ele>15.6</ele>
        <time>2024-05-10T07:40:40Z</time>
      </trkpt>
      <trkpt lat="43.25658" lon="2.94981">
        <ele>15.6</ele>
        <time>2024-05-10T07:40:41Z</time>
      </trkpt>
      <trkpt lat="43.25658" lon="2.94981">
        <ele>15.6</ele>
        <time>2024-05-10T07:40:42Z</time>
      </trkpt>
      <trkpt lat="43.25658" lon="2.94981">
        <ele>15.6</ele>
        <time>2024-05-10T07:40:43Z</time>
      </trkpt>
      <trkpt lat="43.25657" lon="2.94984">
        <ele>15.4</ele>
        <time>2024-05-10T08:22:07Z</time>
      </trkpt>
      <trkpt lat="43.25659" lon="2.94984">
        <ele>15.4</ele>
        <time>2024-05-10T08:22:08Z</time>
      </trkpt>
      <trkpt lat="43.25658" lon="2.94985">
        <ele>15.4</ele>
        <time>2024-05-10T08:22:09Z</time>
      </trkpt>
      <trkpt lat="43.25658" lon="2.94985">
        <ele>15.4</ele>
        <time>2024-05-10T08:22:10Z</time>
      </trkpt>
      <trkpt lat="43.25658" lon="2.94986">
        <ele>15.3</ele>
        <time>2024-05-10T08:22:11Z</time>
      </trkpt>
      <trkpt lat="43.25658" lon="2.94986">
        <ele>15.3</ele>
        <time>2024-05-10T08:22:12Z</time>
      </trkpt>
      <trkpt lat="43.25658" lon="2.94985">
        <ele>15.4</ele>
        <time>2024-05-10T08:22:13Z</time>
      </trkpt>
      <trkpt lat="43.25659" lon="2.94985">
        <ele>15.3</ele>
        <time>2024-05-10T08:22:14Z</time>
      </trkpt>
      <trkpt lat="43.25659" lon="2.94985">
        <ele>15.3</ele>
        <time>2024-05-10T08:22:15Z</time>
      </trkpt>
      <trkpt lat="43.25658" lon="2.94985">
        <ele>15.4</ele>
        <time>2024-05-10T08:22:16Z</time>
      </trkpt>
      <trkpt lat="43.25659" lon="2.94986">
        <ele>15.3</ele>
        <time>2024-05-10T08:22:17Z</time>
      </trkpt>
      <trkpt lat="43.25659" lon="2.94986">
        <ele>15.3</ele>
        <time>2024-05-10T08:22:18Z</time>
      </trkpt>
      <trkpt lat="43.25659" lon="2.94986">
        <ele>15.3</ele>
        <time>2024-05-10T08:22:19Z</time>
      </trkpt>
      <trkpt lat="43.2566" lon="2.94986">
        <ele>15.2</ele>
        <time>2024-05-10T08:22:20Z</time>
      </trkpt>
      <trkpt lat="43.2566" lon="2.94986">
        <ele>15.2</ele>
        <time>2024-05-10T08:22:21Z</time>
      </trkpt>
      <trkpt lat="43.2566" lon="2.94986">
        <ele>15.2</ele>
        <time>2024-05-10T08:22:22Z</time>
      </trkpt>
      <trkpt lat="43.2566" lon="2.94987">
        <ele>15.2</ele>
        <time>2024-05-10T08:22:23Z</time>
      </trkpt>
      <trkpt lat="43.2566" lon="2.94987">
        <ele>15.2</ele>
        <time>2024-05-10T08:22:24Z</time>
      </trkpt>
      <trkpt lat="43.2566" lon="2.94987">
        <ele>15.2</ele>
        <time>2024-05-10T08:22:25Z</time>
      </trkpt>
      <trkpt lat="43.2566" lon="2.94987">
        <ele>15.2</ele>
        <time>2024-05-10T08:22:26Z</time>
      </trkpt>
      <trkpt lat="43.2566" lon="2.94987">
        <ele>15.2</ele>
        <time>2024-05-10T08:22:27Z</time>
      </trkpt>
      <trkpt lat="43.2566" lon="2.94987">
        <ele>15.2</ele>
        <time>2024-05-10T08:22:28Z</time>
      </trkpt>
      <trkpt lat="43.2566" lon="2.94987">
        <ele>15.2</ele>
        <time>2024-05-10T08:22:29Z</time>
      </trkpt>
      <trkpt lat="43.2566" lon="2.94987">
        <ele>15.2</ele>
        <time>2024-05-10T08:22:30Z</time>
      </trkpt>
      <trkpt lat="43.2566" lon="2.94987">
        <ele>15.2</ele>
        <time>2024-05-10T08:22:31Z</time>
      </trkpt>
      <trkpt lat="43.2566" lon="2.94987">
        <ele>15.2</ele>
        <time>2024-05-10T08:22:32Z</time>
      </trkpt>
      <trkpt lat="43.2566" lon="2.94987">
        <ele>15.2</ele>
        <time>2024-05-10T08:22:33Z</time>
      </trkpt>
      <trkpt lat="43.2566" lon="2.94987">
        <ele>15.2</ele>
        <time>2024-05-10T08:22:34Z</time>
      </trkpt>
      <trkpt lat="43.25661" lon="2.94987">
        <ele>15.2</ele>
        <time>2024-05-10T08:22:35Z</time>
      </trkpt>
      <trkpt lat="43.25661" lon="2.94988">
        <ele>15.1</ele>
        <time>2024-05-10T08:22:36Z</time>
      </trkpt>
      <trkpt lat="43.25662" lon="2.94988">
        <ele>15.1</ele>
        <time>2024-05-10T08:22:37Z</time>
      </trkpt>
      <trkpt lat="43.25663" lon="2.94987">
        <ele>15.1</ele>
        <time>2024-05-10T08:22:38Z</time>
      </trkpt>
      <trkpt lat="43.25665" lon="2.94986">
        <ele>15.1</ele>
        <time>2024-05-10T08:22:39Z</time>
      </trkpt>
      <trkpt lat="43.25666" lon="2.94985">
        <ele>15.1</ele>
        <time>2024-05-10T08:22:40Z</time>
      </trkpt>
      <trkpt lat="43.25668" lon="2.94985">
        <ele>15.1</ele>
        <time>2024-05-10T08:22:41Z</time>
      </trkpt>
      <trkpt lat="43.2567" lon="2.94984">
        <ele>15.2</ele>
        <time>2024-05-10T08:22:42Z</time>
      </trkpt>
      <trkpt lat="43.25671" lon="2.94983">
        <ele>15.3</ele>
        <time>2024-05-10T08:22:43Z</time>
      </trkpt>
      <trkpt lat="43.25673" lon="2.94981">
        <ele>15.5</ele>
        <time>2024-05-10T08:22:44Z</time>
      </trkpt>
      <trkpt lat="43.25675" lon="2.9498">
        <ele>15.6</ele>
        <time>2024-05-10T08:22:45Z</time>
      </trkpt>
      <trkpt lat="43.25676" lon="2.94979">
        <ele>15.7</ele>
        <time>2024-05-10T08:22:46Z</time>
      </trkpt>
      <trkpt lat="43.25678" lon="2.94977">
        <ele>15.9</ele>
        <time>2024-05-10T08:22:47Z</time>
      </trkpt>
      <trkpt lat="43.25679" lon="2.94976">
        <ele>16.1</ele>
        <time>2024-05-10T08:22:48Z</time>
      </trkpt>
      <trkpt lat="43.25681" lon="2.94974">
        <ele>16.3</ele>
        <time>2024-05-10T08:22:49Z</time>
      </trkpt>
      <trkpt lat="43.25683" lon="2.94972">
        <ele>16.6</ele>
        <time>2024-05-10T08:22:50Z</time>
      </trkpt>
      <trkpt lat="43.25684" lon="2.94971">
        <ele>16.6</ele>
        <time>2024-05-10T08:22:51Z</time>
      </trkpt>
      <trkpt lat="43.25686" lon="2.94971">
        <ele>16.7</ele>
        <time>2024-05-10T08:22:52Z</time>
      </trkpt>
      <trkpt lat="43.25687" lon="2.94971">
        <ele>16.7</ele>
        <time>2024-05-10T08:22:53Z</time>
      </trkpt>
      <trkpt lat="43.25689" lon="2.9497">
        <ele>16.7</ele>
        <time>2024-05-10T08:22:54Z</time>
      </trkpt>
      <trkpt lat="43.25691" lon="2.9497">
        <ele>16.8</ele>
        <time>2024-05-10T08:22:55Z</time>
      </trkpt>
      <trkpt lat="43.25692" lon="2.94969">
        <ele>16.8</ele>
        <time>2024-05-10T08:22:56Z</time>
      </trkpt>
      <trkpt lat="43.25693" lon="2.94967">
        <ele>16.8</ele>
        <time>2024-05-10T08:22:57Z</time>
      </trkpt>
      <trkpt lat="43.25693" lon="2.94964">
        <ele>16.7</ele>
        <time>2024-05-10T08:22:58Z</time>
      </trkpt>
      <trkpt lat="43.25692" lon="2.94962">
        <ele>16.5</ele>
        <time>2024-05-10T08:22:59Z</time>
      </trkpt>
      <trkpt lat="43.2569" lon="2.94959">
        <ele>16.4</ele>
        <time>2024-05-10T08:23:00Z</time>
      </trkpt>
      <trkpt lat="43.25688" lon="2.94958">
        <ele>16.3</ele>
        <time>2024-05-10T08:23:01Z</time>
      </trkpt>
      <trkpt lat="43.25687" lon="2.94958">
        <ele>16.2</ele>
        <time>2024-05-10T08:23:02Z</time>
      </trkpt>
      <trkpt lat="43.25685" lon="2.94958">
        <ele>16.1</ele>
        <time>2024-05-10T08:23:03Z</time>
      </trkpt>
      <trkpt lat="43.25684" lon="2.9496">
        <ele>16.2</ele>
        <time>2024-05-10T08:23:04Z</time>
      </trkpt>
      <trkpt lat="43.25683" lon="2.94962">
        <ele>16.2</ele>
        <time>2024-05-10T08:23:05Z</time>
      </trkpt>
      <trkpt lat="43.25683" lon="2.94963">
        <ele>16.3</ele>
        <time>2024-05-10T08:23:06Z</time>
      </trkpt>
      <trkpt lat="43.25683" lon="2.94965">
        <ele>16.3</ele>
        <time>2024-05-10T08:23:07Z</time>
      </trkpt>
      <trkpt lat="43.25683" lon="2.94966">
        <ele>16.4</ele>
        <time>2024-05-10T08:23:08Z</time>
      </trkpt>
      <trkpt lat="43.25684" lon="2.94966">
        <ele>16.4</ele>
        <time>2024-05-10T08:23:09Z</time>
      </trkpt>
      <trkpt lat="43.25684" lon="2.94966">
        <ele>16.4</ele>
        <time>2024-05-10T08:23:10Z</time>
      </trkpt>
      <trkpt lat="43.25684" lon="2.94965">
        <ele>16.4</ele>
        <time>2024-05-10T08:23:11Z</time>
      </trkpt>
      <trkpt lat="43.25684" lon="2.94965">
        <ele>16.4</ele>
        <time>2024-05-10T08:23:12Z</time>
      </trkpt>
      <trkpt lat="43.25684" lon="2.94965">
        <ele>16.4</ele>
        <time>2024-05-10T08:23:13Z</time>
      </trkpt>
      <trkpt lat="43.25684" lon="2.94964">
        <ele>16.3</ele>
        <time>2024-05-10T08:23:14Z</time>
      </trkpt>
      <trkpt lat="43.25684" lon="2.94964">
        <ele>16.3</ele>
        <time>2024-05-10T08:23:15Z</time>
      </trkpt>
      <trkpt lat="43.25684" lon="2.94964">
        <ele>16.3</ele>
        <time>2024-05-10T08:23:16Z</time>
      </trkpt>
      <trkpt lat="43.25684" lon="2.94964">
        <ele>16.3</ele>
        <time>2024-05-10T08:23:17Z</time>
      </trkpt>
      <trkpt lat="43.25684" lon="2.94964">
        <ele>16.3</ele>
        <time>2024-05-10T08:23:18Z</time>
      </trkpt>
      <trkpt lat="43.25685" lon="2.94966">
        <ele>16.4</ele>
        <time>2024-05-10T08:23:19Z</time>
      </trkpt>
      <trkpt lat="43.25686" lon="2.94968">
        <ele>16.5</ele>
        <time>2024-05-10T08:23:20Z</time>
      </trkpt>
      <trkpt lat="43.25687" lon="2.9497">
        <ele>16.7</ele>
        <time>2024-05-10T08:23:21Z</time>
      </trkpt>
      <trkpt lat="43.25688" lon="2.94972">
        <ele>16.8</ele>
        <time>2024-05-10T08:23:22Z</time>
      </trkpt>
      <trkpt lat="43.25689" lon="2.94974">
        <ele>16.6</ele>
        <time>2024-05-10T08:23:23Z</time>
      </trkpt>
      <trkpt lat="43.25691" lon="2.94977">
        <ele>16.2</ele>
        <time>2024-05-10T08:23:24Z</time>
      </trkpt>
      <trkpt lat="43.25693" lon="2.9498">
        <ele>15.9</ele>
        <time>2024-05-10T08:23:25Z</time>
      </trkpt>
      <trkpt lat="43.25695" lon="2.94983">
        <ele>15.5</ele>
        <time>2024-05-10T08:23:26Z</time>
      </trkpt>
      <trkpt lat="43.25696" lon="2.94985">
        <ele>15.3</ele>
        <time>2024-05-10T08:23:27Z</time>
      </trkpt>
      <trkpt lat="43.25698" lon="2.94988">
        <ele>15.1</ele>
        <time>2024-05-10T08:23:28Z</time>
      </trkpt>
      <trkpt lat="43.25699" lon="2.94991">
        <ele>14.9</ele>
        <time>2024-05-10T08:23:29Z</time>
      </trkpt>
      <trkpt lat="43.257" lon="2.94994">
        <ele>14.7</ele>
        <time>2024-05-10T08:23:30Z</time>
      </trkpt>
      <trkpt lat="43.25701" lon="2.94998">
        <ele>14.4</ele>
        <time>2024-05-10T08:23:31Z</time>
      </trkpt>
      <trkpt lat="43.25702" lon="2.95004">
        <ele>14.6</ele>
        <time>2024-05-10T08:23:32Z</time>
      </trkpt>
      <trkpt lat="43.25703" lon="2.95011">
        <ele>15.1</ele>
        <time>2024-05-10T08:23:33Z</time>
      </trkpt>
      <trkpt lat="43.25703" lon="2.95018">
        <ele>15.5</ele>
        <time>2024-05-10T08:23:34Z</time>
      </trkpt>
      <trkpt lat="43.25702" lon="2.95026">
        <ele>15.9</ele>
        <time>2024-05-10T08:23:35Z</time>
      </trkpt>
      <trkpt lat="43.257" lon="2.95034">
        <ele>15.7</ele>
        <time>2024-05-10T08:23:36Z</time>
      </trkpt>
      <trkpt lat="43.25699" lon="2.95042">
        <ele>15.3</ele>
        <time>2024-05-10T08:23:37Z</time>
      </trkpt>
      <trkpt lat="43.25696" lon="2.95052">
        <ele>15</ele>
        <time>2024-05-10T08:23:38Z</time>
      </trkpt>
      <trkpt lat="43.25691" lon="2.9506">
        <ele>14.6</ele>
        <time>2024-05-10T08:23:39Z</time>
      </trkpt>
      <trkpt lat="43.25686" lon="2.95068">
        <ele>14.1</ele>
        <time>2024-05-10T08:23:40Z</time>
      </trkpt>
      <trkpt lat="43.25678" lon="2.95076">
        <ele>13.8</ele>
        <time>2024-05-10T08:23:41Z</time>
      </trkpt>
      <trkpt lat="43.25669" lon="2.95082">
        <ele>13.9</ele>
        <time>2024-05-10T08:23:42Z</time>
      </trkpt>
      <trkpt lat="43.25661" lon="2.95086">
        <ele>13.6</ele>
        <time>2024-05-10T08:23:43Z</time>
      </trkpt>
      <trkpt lat="43.25653" lon="2.95091">
        <ele>13.1</ele>
        <time>2024-05-10T08:23:44Z</time>
      </trkpt>
      <trkpt lat="43.25645" lon="2.95096">
        <ele>12.7</ele>
        <time>2024-05-10T08:23:45Z</time>
      </trkpt>
      <trkpt lat="43.25638" lon="2.951">
        <ele>12.4</ele>
        <time>2024-05-10T08:23:46Z</time>
      </trkpt>
      <trkpt lat="43.2563" lon="2.95105">
        <ele>12.6</ele>
        <time>2024-05-10T08:23:47Z</time>
      </trkpt>
      <trkpt lat="43.25622" lon="2.9511">
        <ele>12.7</ele>
        <time>2024-05-10T08:23:48Z</time>
      </trkpt>
      <trkpt lat="43.25615" lon="2.95114">
        <ele>12.8</ele>
        <time>2024-05-10T08:23:49Z</time>
      </trkpt>
      <trkpt lat="43.25609" lon="2.95117">
        <ele>12.8</ele>
        <time>2024-05-10T08:23:50Z</time>
      </trkpt>
      <trkpt lat="43.25604" lon="2.9512">
        <ele>12.7</ele>
        <time>2024-05-10T08:23:51Z</time>
      </trkpt>
      <trkpt lat="43.25599" lon="2.95123">
        <ele>12.6</ele>
        <time>2024-05-10T08:23:52Z</time>
      </trkpt>
      <trkpt lat="43.25594" lon="2.95126">
        <ele>12.5</ele>
        <time>2024-05-10T08:23:53Z</time>
      </trkpt>
      <trkpt lat="43.25589" lon="2.95128">
        <ele>12.4</ele>
        <time>2024-05-10T08:23:54Z</time>
      </trkpt>
      <trkpt lat="43.25584" lon="2.95132">
        <ele>12.2</ele>
        <time>2024-05-10T08:23:55Z</time>
      </trkpt>
      <trkpt lat="43.25577" lon="2.95136">
        <ele>12.2</ele>
        <time>2024-05-10T08:23:56Z</time>
      </trkpt>
      <trkpt lat="43.2557" lon="2.9514">
        <ele>12</ele>
        <time>2024-05-10T08:23:57Z</time>
      </trkpt>
      <trkpt lat="43.25561" lon="2.95145">
        <ele>12</ele>
        <time>2024-05-10T08:23:58Z</time>
      </trkpt>
      <trkpt lat="43.25552" lon="2.95151">
        <ele>12.1</ele>
        <time>2024-05-10T08:23:59Z</time>
      </trkpt>
      <trkpt lat="43.25541" lon="2.95158">
        <ele>12.3</ele>
        <time>2024-05-10T08:24:00Z</time>
      </trkpt>
      <trkpt lat="43.2553" lon="2.95165">
        <ele>12.1</ele>
        <time>2024-05-10T08:24:01Z</time>
      </trkpt>
      <trkpt lat="43.25518" lon="2.95171">
        <ele>11.7</ele>
        <time>2024-05-10T08:24:02Z</time>
      </trkpt>
      <trkpt lat="43.25508" lon="2.95178">
        <ele>11.6</ele>
        <time>2024-05-10T08:24:03Z</time>
      </trkpt>
      <trkpt lat="43.255" lon="2.95186">
        <ele>11.7</ele>
        <time>2024-05-10T08:24:04Z</time>
      </trkpt>
      <trkpt lat="43.25492" lon="2.95196">
        <ele>12</ele>
        <time>2024-05-10T08:24:05Z</time>
      </trkpt>
      <trkpt lat="43.25486" lon="2.95207">
        <ele>12</ele>
        <time>2024-05-10T08:24:06Z</time>
      </trkpt>
      <trkpt lat="43.25481" lon="2.9522">
        <ele>12</ele>
        <time>2024-05-10T08:24:07Z</time>
      </trkpt>
      <trkpt lat="43.25477" lon="2.95238">
        <ele>12</ele>
        <time>2024-05-10T08:24:08Z</time>
      </trkpt>
      <trkpt lat="43.25474" lon="2.95258">
        <ele>11.7</ele>
        <time>2024-05-10T08:24:09Z</time>
      </trkpt>
      <trkpt lat="43.25472" lon="2.95281">
        <ele>11.1</ele>
        <time>2024-05-10T08:24:10Z</time>
      </trkpt>
      <trkpt lat="43.2547" lon="2.95305">
        <ele>12</ele>
        <time>2024-05-10T08:24:11Z</time>
      </trkpt>
      <trkpt lat="43.25468" lon="2.95328">
        <ele>12</ele>
        <time>2024-05-10T08:24:12Z</time>
      </trkpt>
      <trkpt lat="43.25466" lon="2.9535">
        <ele>11.5</ele>
        <time>2024-05-10T08:24:13Z</time>
      </trkpt>
      <trkpt lat="43.25464" lon="2.95371">
        <ele>11.3</ele>
        <time>2024-05-10T08:24:14Z</time>
      </trkpt>
      <trkpt lat="43.25462" lon="2.95393">
        <ele>11.4</ele>
        <time>2024-05-10T08:24:15Z</time>
      </trkpt>
      <trkpt lat="43.2546" lon="2.95415">
        <ele>11.4</ele>
        <time>2024-05-10T08:24:16Z</time>
      </trkpt>
      <trkpt lat="43.25458" lon="2.95438">
        <ele>11.5</ele>
        <time>2024-05-10T08:24:17Z</time>
      </trkpt>
      <trkpt lat="43.25456" lon="2.95461">
        <ele>11.2</ele>
        <time>2024-05-10T08:24:18Z</time>
      </trkpt>
      <trkpt lat="43.25454" lon="2.95484">
        <ele>11.3</ele>
        <time>2024-05-10T08:24:19Z</time>
      </trkpt>
      <trkpt lat="43.25454" lon="2.95508">
        <ele>11.7</ele>
        <time>2024-05-10T08:24:20Z</time>
      </trkpt>
      <trkpt lat="43.25456" lon="2.95532">
        <ele>11.6</ele>
        <time>2024-05-10T08:24:21Z</time>
      </trkpt>
      <trkpt lat="43.25459" lon="2.95555">
        <ele>11.5</ele>
        <time>2024-05-10T08:24:22Z</time>
      </trkpt>
      <trkpt lat="43.25463" lon="2.95578">
        <ele>11.3</ele>
        <time>2024-05-10T08:24:23Z</time>
      </trkpt>
      <trkpt lat="43.25468" lon="2.95602">
        <ele>11.2</ele>
        <time>2024-05-10T08:24:24Z</time>
      </trkpt>
      <trkpt lat="43.25473" lon="2.95624">
        <ele>11</ele>
        <time>2024-05-10T08:24:25Z</time>
      </trkpt>
      <trkpt lat="43.25476" lon="2.95646">
        <ele>11.2</ele>
        <time>2024-05-10T08:24:26Z</time>
      </trkpt>
      <trkpt lat="43.25479" lon="2.95668">
        <ele>11.8</ele>
        <time>2024-05-10T08:24:27Z</time>
      </trkpt>
      <trkpt lat="43.2548" lon="2.95689">
        <ele>11.7</ele>
        <time>2024-05-10T08:24:28Z</time>
      </trkpt>
      <trkpt lat="43.25481" lon="2.9571">
        <ele>11.7</ele>
        <time>2024-05-10T08:24:29Z</time>
      </trkpt>
      <trkpt lat="43.25482" lon="2.95731">
        <ele>11.6</ele>
        <time>2024-05-10T08:24:30Z</time>
      </trkpt>
      <trkpt lat="43.25483" lon="2.9575">
        <ele>11.6</ele>
        <time>2024-05-10T08:24:31Z</time>
      </trkpt>
      <trkpt lat="43.25483" lon="2.9577">
        <ele>11.6</ele>
        <time>2024-05-10T08:24:32Z</time>
      </trkpt>
      <trkpt lat="43.25482" lon="2.95788">
        <ele>11.6</ele>
        <time>2024-05-10T08:24:33Z</time>
      </trkpt>
      <trkpt lat="43.2548" lon="2.95806">
        <ele>11.7</ele>
        <time>2024-05-10T08:24:34Z</time>
      </trkpt>
      <trkpt lat="43.25477" lon="2.95821">
        <ele>11.8</ele>
        <time>2024-05-10T08:24:35Z</time>
      </trkpt>
      <trkpt lat="43.25473" lon="2.95834">
        <ele>12</ele>
        <time>2024-05-10T08:24:36Z</time>
      </trkpt>
      <trkpt lat="43.25469" lon="2.95845">
        <ele>12</ele>
        <time>2024-05-10T08:24:37Z</time>
      </trkpt>
      <trkpt lat="43.25465" lon="2.95857">
        <ele>12</ele>
        <time>2024-05-10T08:24:38Z</time>
      </trkpt>
      <trkpt lat="43.25462" lon="2.95868">
        <ele>12</ele>
        <time>2024-05-10T08:24:39Z</time>
      </trkpt>
      <trkpt lat="43.25459" lon="2.95879">
        <ele>12</ele>
        <time>2024-05-10T08:24:40Z</time>
      </trkpt>
      <trkpt lat="43.25457" lon="2.95892">
        <ele>12</ele>
        <time>2024-05-10T08:24:41Z</time>
      </trkpt>
      <trkpt lat="43.25455" lon="2.95905">
        <ele>12</ele>
        <time>2024-05-10T08:24:42Z</time>
      </trkpt>
      <trkpt lat="43.25454" lon="2.95918">
        <ele>12</ele>
        <time>2024-05-10T08:24:43Z</time>
      </trkpt>
      <trkpt lat="43.25453" lon="2.95932">
        <ele>12</ele>
        <time>2024-05-10T08:24:44Z</time>
      </trkpt>
      <trkpt lat="43.25452" lon="2.95947">
        <ele>12</ele>
        <time>2024-05-10T08:24:45Z</time>
      </trkpt>
      <trkpt lat="43.25452" lon="2.95962">
        <ele>12</ele>
        <time>2024-05-10T08:24:46Z</time>
      </trkpt>
      <trkpt lat="43.25452" lon="2.95978">
        <ele>12</ele>
        <time>2024-05-10T08:24:47Z</time>
      </trkpt>
      <trkpt lat="43.25451" lon="2.95994">
        <ele>12</ele>
        <time>2024-05-10T08:24:48Z</time>
      </trkpt>
      <trkpt lat="43.25451" lon="2.96011">
        <ele>12</ele>
        <time>2024-05-10T08:24:49Z</time>
      </trkpt>
      <trkpt lat="43.25451" lon="2.96027">
        <ele>12</ele>
        <time>2024-05-10T08:24:50Z</time>
      </trkpt>
      <trkpt lat="43.25449" lon="2.96042">
        <ele>12</ele>
        <time>2024-05-10T08:24:51Z</time>
      </trkpt>
      <trkpt lat="43.25446" lon="2.96059">
        <ele>12</ele>
        <time>2024-05-10T08:24:52Z</time>
      </trkpt>
      <trkpt lat="43.25441" lon="2.96075">
        <ele>12</ele>
        <time>2024-05-10T08:24:53Z</time>
      </trkpt>
      <trkpt lat="43.25435" lon="2.96092">
        <ele>12</ele>
        <time>2024-05-10T08:24:54Z</time>
      </trkpt>
      <trkpt lat="43.25428" lon="2.96109">
        <ele>12</ele>
        <time>2024-05-10T08:24:55Z</time>
      </trkpt>
      <trkpt lat="43.2542" lon="2.96127">
        <ele>11.5</ele>
        <time>2024-05-10T08:24:56Z</time>
      </trkpt>
      <trkpt lat="43.25412" lon="2.96144">
        <ele>11</ele>
        <time>2024-05-10T08:24:57Z</time>
      </trkpt>
      <trkpt lat="43.25404" lon="2.96163">
        <ele>11</ele>
        <time>2024-05-10T08:24:58Z</time>
      </trkpt>
      <trkpt lat="43.25395" lon="2.96181">
        <ele>11</ele>
        <time>2024-05-10T08:24:59Z</time>
      </trkpt>
      <trkpt lat="43.25386" lon="2.962">
        <ele>11</ele>
        <time>2024-05-10T08:25:00Z</time>
      </trkpt>
      <trkpt lat="43.25377" lon="2.96218">
        <ele>11</ele>
        <time>2024-05-10T08:25:01Z</time>
      </trkpt>
      <trkpt lat="43.25369" lon="2.96236">
        <ele>11</ele>
        <time>2024-05-10T08:25:02Z</time>
      </trkpt>
      <trkpt lat="43.25361" lon="2.96253">
        <ele>11</ele>
        <time>2024-05-10T08:25:03Z</time>
      </trkpt>
      <trkpt lat="43.25354" lon="2.96271">
        <ele>11</ele>
        <time>2024-05-10T08:25:04Z</time>
      </trkpt>
      <trkpt lat="43.25348" lon="2.96289">
        <ele>11</ele>
        <time>2024-05-10T08:25:05Z</time>
      </trkpt>
      <trkpt lat="43.25343" lon="2.96308">
        <ele>11</ele>
        <time>2024-05-10T08:25:06Z</time>
      </trkpt>
      <trkpt lat="43.25338" lon="2.96328">
        <ele>11</ele>
        <time>2024-05-10T08:25:07Z</time>
      </trkpt>
      <trkpt lat="43.25332" lon="2.96347">
        <ele>11.5</ele>
        <time>2024-05-10T08:25:08Z</time>
      </trkpt>
      <trkpt lat="43.25327" lon="2.96367">
        <ele>11.8</ele>
        <time>2024-05-10T08:25:09Z</time>
      </trkpt>
      <trkpt lat="43.25322" lon="2.96387">
        <ele>11.6</ele>
        <time>2024-05-10T08:25:10Z</time>
      </trkpt>
      <trkpt lat="43.25317" lon="2.96408">
        <ele>11.4</ele>
        <time>2024-05-10T08:25:11Z</time>
      </trkpt>
      <trkpt lat="43.25311" lon="2.96429">
        <ele>11.6</ele>
        <time>2024-05-10T08:25:12Z</time>
      </trkpt>
      <trkpt lat="43.25306" lon="2.96449">
        <ele>12</ele>
        <time>2024-05-10T08:25:13Z</time>
      </trkpt>
      <trkpt lat="43.25301" lon="2.96469">
        <ele>11.8</ele>
        <time>2024-05-10T08:25:14Z</time>
      </trkpt>
      <trkpt lat="43.25295" lon="2.96488">
        <ele>11.3</ele>
        <time>2024-05-10T08:25:15Z</time>
      </trkpt>
      <trkpt lat="43.25289" lon="2.96505">
        <ele>11.1</ele>
        <time>2024-05-10T08:25:16Z</time>
      </trkpt>
      <trkpt lat="43.25282" lon="2.9652">
        <ele>11.6</ele>
        <time>2024-05-10T08:25:17Z</time>
      </trkpt>
      <trkpt lat="43.25274" lon="2.96533">
        <ele>11.7</ele>
        <time>2024-05-10T08:25:18Z</time>
      </trkpt>
      <trkpt lat="43.25266" lon="2.96545">
        <ele>11.5</ele>
        <time>2024-05-10T08:25:19Z</time>
      </trkpt>
      <trkpt lat="43.25256" lon="2.96556">
        <ele>11.8</ele>
        <time>2024-05-10T08:25:20Z</time>
      </trkpt>
      <trkpt lat="43.25245" lon="2.96566">
        <ele>11.6</ele>
        <time>2024-05-10T08:25:21Z</time>
      </trkpt>
      <trkpt lat="43.25232" lon="2.96576">
        <ele>12</ele>
        <time>2024-05-10T08:25:22Z</time>
      </trkpt>
      <trkpt lat="43.2522" lon="2.96587">
        <ele>12.5</ele>
        <time>2024-05-10T08:25:23Z</time>
      </trkpt>
      <trkpt lat="43.25207" lon="2.96597">
        <ele>11.7</ele>
        <time>2024-05-10T08:25:24Z</time>
      </trkpt>
      <trkpt lat="43.25196" lon="2.96608">
        <ele>12.6</ele>
        <time>2024-05-10T08:25:25Z</time>
      </trkpt>
      <trkpt lat="43.25186" lon="2.96619">
        <ele>12.3</ele>
        <time>2024-05-10T08:25:26Z</time>
      </trkpt>
      <trkpt lat="43.25177" lon="2.96632">
        <ele>11.9</ele>
        <time>2024-05-10T08:25:27Z</time>
      </trkpt>
      <trkpt lat="43.2517" lon="2.96647">
        <ele>12</ele>
        <time>2024-05-10T08:25:28Z</time>
      </trkpt>
      <trkpt lat="43.25166" lon="2.96665">
        <ele>12</ele>
        <time>2024-05-10T08:25:29Z</time>
      </trkpt>
      <trkpt lat="43.25164" lon="2.96684">
        <ele>11.3</ele>
        <time>2024-05-10T08:25:30Z</time>
      </trkpt>
      <trkpt lat="43.25164" lon="2.96705">
        <ele>11</ele>
        <time>2024-05-10T08:25:31Z</time>
      </trkpt>
      <trkpt lat="43.25164" lon="2.96725">
        <ele>11</ele>
        <time>2024-05-10T08:25:32Z</time>
      </trkpt>
      <trkpt lat="43.25165" lon="2.96745">
        <ele>11</ele>
        <time>2024-05-10T08:25:33Z</time>
      </trkpt>
      <trkpt lat="43.25164" lon="2.96765">
        <ele>11</ele>
        <time>2024-05-10T08:25:34Z</time>
      </trkpt>
      <trkpt lat="43.25162" lon="2.96786">
        <ele>11</ele>
        <time>2024-05-10T08:25:35Z</time>
      </trkpt>
      <trkpt lat="43.2516" lon="2.96807">
        <ele>11</ele>
        <time>2024-05-10T08:25:36Z</time>
      </trkpt>
      <trkpt lat="43.25157" lon="2.96828">
        <ele>11</ele>
        <time>2024-05-10T08:25:37Z</time>
      </trkpt>
      <trkpt lat="43.25154" lon="2.9685">
        <ele>11</ele>
        <time>2024-05-10T08:25:38Z</time>
      </trkpt>
      <trkpt lat="43.2515" lon="2.96873">
        <ele>11</ele>
        <time>2024-05-10T08:25:39Z</time>
      </trkpt>
      <trkpt lat="43.25147" lon="2.96895">
        <ele>11</ele>
        <time>2024-05-10T08:25:40Z</time>
      </trkpt>
      <trkpt lat="43.25143" lon="2.96918">
        <ele>11</ele>
        <time>2024-05-10T08:25:41Z</time>
      </trkpt>
      <trkpt lat="43.25139" lon="2.96941">
        <ele>11</ele>
        <time>2024-05-10T08:25:42Z</time>
      </trkpt>
      <trkpt lat="43.25134" lon="2.96964">
        <ele>10.9</ele>
        <time>2024-05-10T08:25:43Z</time>
      </trkpt>
      <trkpt lat="43.2513" lon="2.96989">
        <ele>10.5</ele>
        <time>2024-05-10T08:25:44Z</time>
      </trkpt>
      <trkpt lat="43.25125" lon="2.97014">
        <ele>10</ele>
        <time>2024-05-10T08:25:45Z</time>
      </trkpt>
      <trkpt lat="43.25121" lon="2.97038">
        <ele>10</ele>
        <time>2024-05-10T08:25:46Z</time>
      </trkpt>
      <trkpt lat="43.25116" lon="2.9706">
        <ele>10.1</ele>
        <time>2024-05-10T08:25:47Z</time>
      </trkpt>
      <trkpt lat="43.25111" lon="2.97083">
        <ele>11</ele>
        <time>2024-05-10T08:25:48Z</time>
      </trkpt>
      <trkpt lat="43.25107" lon="2.97106">
        <ele>11</ele>
        <time>2024-05-10T08:25:49Z</time>
      </trkpt>
      <trkpt lat="43.25102" lon="2.97128">
        <ele>11</ele>
        <time>2024-05-10T08:25:50Z</time>
      </trkpt>
      <trkpt lat="43.25097" lon="2.9715">
        <ele>11</ele>
        <time>2024-05-10T08:25:51Z</time>
      </trkpt>
      <trkpt lat="43.25093" lon="2.9717">
        <ele>11</ele>
        <time>2024-05-10T08:25:52Z</time>
      </trkpt>
      <trkpt lat="43.25088" lon="2.97191">
        <ele>11</ele>
        <time>2024-05-10T08:25:53Z</time>
      </trkpt>
      <trkpt lat="43.25083" lon="2.97211">
        <ele>11</ele>
        <time>2024-05-10T08:25:54Z</time>
      </trkpt>
      <trkpt lat="43.25078" lon="2.97231">
        <ele>11</ele>
        <time>2024-05-10T08:25:55Z</time>
      </trkpt>
      <trkpt lat="43.25074" lon="2.9725">
        <ele>11</ele>
        <time>2024-05-10T08:25:56Z</time>
      </trkpt>
      <trkpt lat="43.25069" lon="2.97269">
        <ele>11</ele>
        <time>2024-05-10T08:25:57Z</time>
      </trkpt>
      <trkpt lat="43.25063" lon="2.97288">
        <ele>11</ele>
        <time>2024-05-10T08:25:58Z</time>
      </trkpt>
      <trkpt lat="43.25057" lon="2.97307">
        <ele>11</ele>
        <time>2024-05-10T08:25:59Z</time>
      </trkpt>
      <trkpt lat="43.25051" lon="2.97327">
        <ele>11</ele>
        <time>2024-05-10T08:26:00Z</time>
      </trkpt>
      <trkpt lat="43.25046" lon="2.97347">
        <ele>11</ele>
        <time>2024-05-10T08:26:01Z</time>
      </trkpt>
      <trkpt lat="43.25041" lon="2.97367">
        <ele>11</ele>
        <time>2024-05-10T08:26:02Z</time>
      </trkpt>
      <trkpt lat="43.25036" lon="2.97387">
        <ele>11</ele>
        <time>2024-05-10T08:26:03Z</time>
      </trkpt>
      <trkpt lat="43.2503" lon="2.97407">
        <ele>11</ele>
        <time>2024-05-10T08:26:04Z</time>
      </trkpt>
      <trkpt lat="43.25024" lon="2.97428">
        <ele>11</ele>
        <time>2024-05-10T08:26:05Z</time>
      </trkpt>
      <trkpt lat="43.25018" lon="2.97447">
        <ele>11</ele>
        <time>2024-05-10T08:26:06Z</time>
      </trkpt>
      <trkpt lat="43.2501" lon="2.97466">
        <ele>11</ele>
        <time>2024-05-10T08:26:07Z</time>
      </trkpt>
      <trkpt lat="43.25001" lon="2.97485">
        <ele>11</ele>
        <time>2024-05-10T08:26:08Z</time>
      </trkpt>
      <trkpt lat="43.2499" lon="2.97502">
        <ele>11</ele>
        <time>2024-05-10T08:26:09Z</time>
      </trkpt>
      <trkpt lat="43.24978" lon="2.9752">
        <ele>11</ele>
        <time>2024-05-10T08:26:10Z</time>
      </trkpt>
      <trkpt lat="43.24966" lon="2.97537">
        <ele>11.4</ele>
        <time>2024-05-10T08:26:11Z</time>
      </trkpt>
      <trkpt lat="43.24955" lon="2.97555">
        <ele>11.6</ele>
        <time>2024-05-10T08:26:12Z</time>
      </trkpt>
      <trkpt lat="43.24946" lon="2.97574">
        <ele>11.3</ele>
        <time>2024-05-10T08:26:13Z</time>
      </trkpt>
      <trkpt lat="43.24939" lon="2.97594">
        <ele>11.2</ele>
        <time>2024-05-10T08:26:14Z</time>
      </trkpt>
      <trkpt lat="43.24932" lon="2.97614">
        <ele>11.8</ele>
        <time>2024-05-10T08:26:15Z</time>
      </trkpt>
      <trkpt lat="43.24926" lon="2.97635">
        <ele>11.8</ele>
        <time>2024-05-10T08:26:16Z</time>
      </trkpt>
      <trkpt lat="43.24919" lon="2.97658">
        <ele>11.3</ele>
        <time>2024-05-10T08:26:17Z</time>
      </trkpt>
      <trkpt lat="43.24911" lon="2.9768">
        <ele>11.2</ele>
        <time>2024-05-10T08:26:18Z</time>
      </trkpt>
      <trkpt lat="43.24904" lon="2.97703">
        <ele>11.3</ele>
        <time>2024-05-10T08:26:19Z</time>
      </trkpt>
      <trkpt lat="43.24897" lon="2.97725">
        <ele>11.3</ele>
        <time>2024-05-10T08:26:20Z</time>
      </trkpt>
      <trkpt lat="43.24889" lon="2.97747">
        <ele>11.1</ele>
        <time>2024-05-10T08:26:21Z</time>
      </trkpt>
      <trkpt lat="43.24882" lon="2.97769">
        <ele>11.2</ele>
        <time>2024-05-10T08:26:22Z</time>
      </trkpt>
      <trkpt lat="43.24876" lon="2.97791">
        <ele>11.5</ele>
        <time>2024-05-10T08:26:23Z</time>
      </trkpt>
      <trkpt lat="43.24868" lon="2.9781">
        <ele>11.6</ele>
        <time>2024-05-10T08:26:24Z</time>
      </trkpt>
      <trkpt lat="43.24859" lon="2.97827">
        <ele>11.3</ele>
        <time>2024-05-10T08:26:25Z</time>
      </trkpt>
      <trkpt lat="43.24848" lon="2.97841">
        <ele>11.2</ele>
        <time>2024-05-10T08:26:26Z</time>
      </trkpt>
      <trkpt lat="43.24836" lon="2.97855">
        <ele>11.1</ele>
        <time>2024-05-10T08:26:27Z</time>
      </trkpt>
      <trkpt lat="43.24826" lon="2.97872">
        <ele>10.8</ele>
        <time>2024-05-10T08:26:28Z</time>
      </trkpt>
      <trkpt lat="43.2482" lon="2.97892">
        <ele>11</ele>
        <time>2024-05-10T08:26:29Z</time>
      </trkpt>
      <trkpt lat="43.24815" lon="2.97913">
        <ele>11.3</ele>
        <time>2024-05-10T08:26:30Z</time>
      </trkpt>
      <trkpt lat="43.2481" lon="2.97935">
        <ele>11.7</ele>
        <time>2024-05-10T08:26:31Z</time>
      </trkpt>
      <trkpt lat="43.24806" lon="2.97958">
        <ele>11.5</ele>
        <time>2024-05-10T08:26:32Z</time>
      </trkpt>
      <trkpt lat="43.24802" lon="2.9798">
        <ele>11</ele>
        <time>2024-05-10T08:26:33Z</time>
      </trkpt>
      <trkpt lat="43.24798" lon="2.98001">
        <ele>11.2</ele>
        <time>2024-05-10T08:26:34Z</time>
      </trkpt>
      <trkpt lat="43.24793" lon="2.98022">
        <ele>11</ele>
        <time>2024-05-10T08:26:35Z</time>
      </trkpt>
      <trkpt lat="43.24788" lon="2.98041">
        <ele>11.6</ele>
        <time>2024-05-10T08:26:36Z</time>
      </trkpt>
      <trkpt lat="43.24781" lon="2.9806">
        <ele>12.4</ele>
        <time>2024-05-10T08:26:37Z</time>
      </trkpt>
      <trkpt lat="43.24774" lon="2.98079">
        <ele>11.3</ele>
        <time>2024-05-10T08:26:38Z</time>
      </trkpt>
      <trkpt lat="43.24767" lon="2.98099">
        <ele>10.9</ele>
        <time>2024-05-10T08:26:39Z</time>
      </trkpt>
      <trkpt lat="43.2476" lon="2.98119">
        <ele>11.3</ele>
        <time>2024-05-10T08:26:40Z</time>
      </trkpt>
      <trkpt lat="43.24753" lon="2.9814">
        <ele>11.7</ele>
        <time>2024-05-10T08:26:41Z</time>
      </trkpt>
      <trkpt lat="43.24746" lon="2.9816">
        <ele>11.2</ele>
        <time>2024-05-10T08:26:42Z</time>
      </trkpt>
      <trkpt lat="43.2474" lon="2.98179">
        <ele>11.2</ele>
        <time>2024-05-10T08:26:43Z</time>
      </trkpt>
      <trkpt lat="43.24734" lon="2.982">
        <ele>11.7</ele>
        <time>2024-05-10T08:26:44Z</time>
      </trkpt>
      <trkpt lat="43.24731" lon="2.98221">
        <ele>12.3</ele>
        <time>2024-05-10T08:26:45Z</time>
      </trkpt>
      <trkpt lat="43.24729" lon="2.98242">
        <ele>11.4</ele>
        <time>2024-05-10T08:26:46Z</time>
      </trkpt>
      <trkpt lat="43.24729" lon="2.98264">
        <ele>11</ele>
        <time>2024-05-10T08:26:47Z</time>
      </trkpt>
      <trkpt lat="43.24728" lon="2.98286">
        <ele>11</ele>
        <time>2024-05-10T08:26:48Z</time>
      </trkpt>
      <trkpt lat="43.24729" lon="2.98307">
        <ele>11</ele>
        <time>2024-05-10T08:26:49Z</time>
      </trkpt>
      <trkpt lat="43.24728" lon="2.98329">
        <ele>10.8</ele>
        <time>2024-05-10T08:26:50Z</time>
      </trkpt>
      <trkpt lat="43.24728" lon="2.98351">
        <ele>10.8</ele>
        <time>2024-05-10T08:26:51Z</time>
      </trkpt>
      <trkpt lat="43.24728" lon="2.98373">
        <ele>10.5</ele>
        <time>2024-05-10T08:26:52Z</time>
      </trkpt>
      <trkpt lat="43.24728" lon="2.98394">
        <ele>10</ele>
        <time>2024-05-10T08:26:53Z</time>
      </trkpt>
      <trkpt lat="43.24728" lon="2.98414">
        <ele>10</ele>
        <time>2024-05-10T08:26:54Z</time>
      </trkpt>
      <trkpt lat="43.24727" lon="2.98433">
        <ele>10</ele>
        <time>2024-05-10T08:26:55Z</time>
      </trkpt>
      <trkpt lat="43.24725" lon="2.9845">
        <ele>10.2</ele>
        <time>2024-05-10T08:26:56Z</time>
      </trkpt>
      <trkpt lat="43.24722" lon="2.98467">
        <ele>10.8</ele>
        <time>2024-05-10T08:26:57Z</time>
      </trkpt>
      <trkpt lat="43.24717" lon="2.98484">
        <ele>10.8</ele>
        <time>2024-05-10T08:26:58Z</time>
      </trkpt>
      <trkpt lat="43.2471" lon="2.98501">
        <ele>10.6</ele>
        <time>2024-05-10T08:26:59Z</time>
      </trkpt>
      <trkpt lat="43.24702" lon="2.98517">
        <ele>10.7</ele>
        <time>2024-05-10T08:27:00Z</time>
      </trkpt>
      <trkpt lat="43.24692" lon="2.98532">
        <ele>10.8</ele>
        <time>2024-05-10T08:27:01Z</time>
      </trkpt>
      <trkpt lat="43.24683" lon="2.98547">
        <ele>10.2</ele>
        <time>2024-05-10T08:27:02Z</time>
      </trkpt>
      <trkpt lat="43.24673" lon="2.98561">
        <ele>10</ele>
        <time>2024-05-10T08:27:03Z</time>
      </trkpt>
      <trkpt lat="43.24665" lon="2.98572">
        <ele>10</ele>
        <time>2024-05-10T08:27:04Z</time>
      </trkpt>
      <trkpt lat="43.24658" lon="2.98583">
        <ele>10</ele>
        <time>2024-05-10T08:27:05Z</time>
      </trkpt>
      <trkpt lat="43.2465" lon="2.98594">
        <ele>10</ele>
        <time>2024-05-10T08:27:06Z</time>
      </trkpt>
      <trkpt lat="43.24642" lon="2.98604">
        <ele>10</ele>
        <time>2024-05-10T08:27:07Z</time>
      </trkpt>
      <trkpt lat="43.24634" lon="2.98615">
        <ele>10</ele>
        <time>2024-05-10T08:27:08Z</time>
      </trkpt>
      <trkpt lat="43.24626" lon="2.98626">
        <ele>10</ele>
        <time>2024-05-10T08:27:09Z</time>
      </trkpt>
      <trkpt lat="43.24618" lon="2.98636">
        <ele>10</ele>
        <time>2024-05-10T08:27:10Z</time>
      </trkpt>
      <trkpt lat="43.2461" lon="2.98647">
        <ele>10</ele>
        <time>2024-05-10T08:27:11Z</time>
      </trkpt>
      <trkpt lat="43.24602" lon="2.98657">
        <ele>10</ele>
        <time>2024-05-10T08:27:12Z</time>
      </trkpt>
      <trkpt lat="43.24595" lon="2.98667">
        <ele>10</ele>
        <time>2024-05-10T08:27:13Z</time>
      </trkpt>
      <trkpt lat="43.24588" lon="2.98675">
        <ele>10</ele>
        <time>2024-05-10T08:27:14Z</time>
      </trkpt>
      <trkpt lat="43.24582" lon="2.98683">
        <ele>10</ele>
        <time>2024-05-10T08:27:15Z</time>
      </trkpt>
      <trkpt lat="43.24576" lon="2.9869">
        <ele>10</ele>
        <time>2024-05-10T08:27:16Z</time>
      </trkpt>
      <trkpt lat="43.24571" lon="2.98698">
        <ele>10</ele>
        <time>2024-05-10T08:27:17Z</time>
      </trkpt>
      <trkpt lat="43.24565" lon="2.98706">
        <ele>10</ele>
        <time>2024-05-10T08:27:18Z</time>
      </trkpt>
      <trkpt lat="43.2456" lon="2.98714">
        <ele>10</ele>
        <time>2024-05-10T08:27:19Z</time>
      </trkpt>
      <trkpt lat="43.24554" lon="2.98721">
        <ele>10</ele>
        <time>2024-05-10T08:27:20Z</time>
      </trkpt>
      <trkpt lat="43.24548" lon="2.98728">
        <ele>10</ele>
        <time>2024-05-10T08:27:21Z</time>
      </trkpt>
      <trkpt lat="43.24543" lon="2.98734">
        <ele>10</ele>
        <time>2024-05-10T08:27:22Z</time>
      </trkpt>
      <trkpt lat="43.24538" lon="2.98741">
        <ele>10</ele>
        <time>2024-05-10T08:27:23Z</time>
      </trkpt>
      <trkpt lat="43.24533" lon="2.98747">
        <ele>10</ele>
        <time>2024-05-10T08:27:24Z</time>
      </trkpt>
      <trkpt lat="43.24529" lon="2.98754">
        <ele>10</ele>
        <time>2024-05-10T08:27:25Z</time>
      </trkpt>
      <trkpt lat="43.24523" lon="2.98761">
        <ele>10</ele>
        <time>2024-05-10T08:27:26Z</time>
      </trkpt>
      <trkpt lat="43.24517" lon="2.98768">
        <ele>10</ele>
        <time>2024-05-10T08:27:27Z</time>
      </trkpt>
      <trkpt lat="43.24511" lon="2.98777">
        <ele>10</ele>
        <time>2024-05-10T08:27:28Z</time>
      </trkpt>
      <trkpt lat="43.24505" lon="2.98786">
        <ele>10</ele>
        <time>2024-05-10T08:27:29Z</time>
      </trkpt>
      <trkpt lat="43.24499" lon="2.98794">
        <ele>10</ele>
        <time>2024-05-10T08:27:30Z</time>
      </trkpt>
      <trkpt lat="43.24493" lon="2.98802">
        <ele>10.1</ele>
        <time>2024-05-10T08:27:31Z</time>
      </trkpt>
      <trkpt lat="43.24488" lon="2.9881">
        <ele>10</ele>
        <time>2024-05-10T08:27:32Z</time>
      </trkpt>
      <trkpt lat="43.24483" lon="2.98817">
        <ele>10</ele>
        <time>2024-05-10T08:27:33Z</time>
      </trkpt>
      <trkpt lat="43.24478" lon="2.98823">
        <ele>10</ele>
        <time>2024-05-10T08:27:34Z</time>
      </trkpt>
      <trkpt lat="43.24474" lon="2.98829">
        <ele>10</ele>
        <time>2024-05-10T08:27:35Z</time>
      </trkpt>
      <trkpt lat="43.24471" lon="2.98835">
        <ele>10.1</ele>
        <time>2024-05-10T08:27:36Z</time>
      </trkpt>
      <trkpt lat="43.24467" lon="2.98842">
        <ele>10.4</ele>
        <time>2024-05-10T08:27:37Z</time>
      </trkpt>
      <trkpt lat="43.24464" lon="2.98848">
        <ele>10.4</ele>
        <time>2024-05-10T08:27:38Z</time>
      </trkpt>
      <trkpt lat="43.2446" lon="2.98854">
        <ele>10.3</ele>
        <time>2024-05-10T08:27:39Z</time>
      </trkpt>
      <trkpt lat="43.24457" lon="2.98859">
        <ele>10.1</ele>
        <time>2024-05-10T08:27:40Z</time>
      </trkpt>
      <trkpt lat="43.24454" lon="2.98864">
        <ele>10</ele>
        <time>2024-05-10T08:27:41Z</time>
      </trkpt>
      <trkpt lat="43.24451" lon="2.98871">
        <ele>10</ele>
        <time>2024-05-10T08:27:42Z</time>
      </trkpt>
      <trkpt lat="43.24448" lon="2.98879">
        <ele>10</ele>
        <time>2024-05-10T08:27:43Z</time>
      </trkpt>
      <trkpt lat="43.24444" lon="2.98888">
        <ele>10</ele>
        <time>2024-05-10T08:27:44Z</time>
      </trkpt>
      <trkpt lat="43.24441" lon="2.98898">
        <ele>10.2</ele>
        <time>2024-05-10T08:27:45Z</time>
      </trkpt>
      <trkpt lat="43.24439" lon="2.98907">
        <ele>10.3</ele>
        <time>2024-05-10T08:27:46Z</time>
      </trkpt>
      <trkpt lat="43.24437" lon="2.98915">
        <ele>10.5</ele>
        <time>2024-05-10T08:27:47Z</time>
      </trkpt>
      <trkpt lat="43.24435" lon="2.98923">
        <ele>10.6</ele>
        <time>2024-05-10T08:27:48Z</time>
      </trkpt>
      <trkpt lat="43.24434" lon="2.98931">
        <ele>10.6</ele>
        <time>2024-05-10T08:27:49Z</time>
      </trkpt>
      <trkpt lat="43.24433" lon="2.98938">
        <ele>10.5</ele>
        <time>2024-05-10T08:27:50Z</time>
      </trkpt>
      <trkpt lat="43.24432" lon="2.98946">
        <ele>10.5</ele>
        <time>2024-05-10T08:27:51Z</time>
      </trkpt>
      <trkpt lat="43.24431" lon="2.98954">
        <ele>10.7</ele>
        <time>2024-05-10T08:27:52Z</time>
      </trkpt>
      <trkpt lat="43.2443" lon="2.98962">
        <ele>10.8</ele>
        <time>2024-05-10T08:27:53Z</time>
      </trkpt>
      <trkpt lat="43.24429" lon="2.98971">
        <ele>11.1</ele>
        <time>2024-05-10T08:27:54Z</time>
      </trkpt>
      <trkpt lat="43.24428" lon="2.9898">
        <ele>11</ele>
        <time>2024-05-10T08:27:55Z</time>
      </trkpt>
      <trkpt lat="43.24426" lon="2.98991">
        <ele>10.9</ele>
        <time>2024-05-10T08:27:56Z</time>
      </trkpt>
      <trkpt lat="43.24425" lon="2.99003">
        <ele>10.5</ele>
        <time>2024-05-10T08:27:57Z</time>
      </trkpt>
      <trkpt lat="43.24422" lon="2.99016">
        <ele>9.8</ele>
        <time>2024-05-10T08:27:58Z</time>
      </trkpt>
      <trkpt lat="43.2442" lon="2.99031">
        <ele>9</ele>
        <time>2024-05-10T08:27:59Z</time>
      </trkpt>
      <trkpt lat="43.24418" lon="2.99045">
        <ele>9</ele>
        <time>2024-05-10T08:28:00Z</time>
      </trkpt>
      <trkpt lat="43.24416" lon="2.9906">
        <ele>9</ele>
        <time>2024-05-10T08:28:01Z</time>
      </trkpt>
      <trkpt lat="43.24414" lon="2.99075">
        <ele>9.2</ele>
        <time>2024-05-10T08:28:02Z</time>
      </trkpt>
      <trkpt lat="43.24411" lon="2.99091">
        <ele>9.5</ele>
        <time>2024-05-10T08:28:03Z</time>
      </trkpt>
      <trkpt lat="43.24407" lon="2.99106">
        <ele>10.3</ele>
        <time>2024-05-10T08:28:04Z</time>
      </trkpt>
      <trkpt lat="43.24404" lon="2.9912">
        <ele>10.6</ele>
        <time>2024-05-10T08:28:05Z</time>
      </trkpt>
      <trkpt lat="43.24401" lon="2.99134">
        <ele>10.2</ele>
        <time>2024-05-10T08:28:06Z</time>
      </trkpt>
      <trkpt lat="43.24398" lon="2.99146">
        <ele>9.8</ele>
        <time>2024-05-10T08:28:07Z</time>
      </trkpt>
      <trkpt lat="43.24395" lon="2.99158">
        <ele>9.5</ele>
        <time>2024-05-10T08:28:08Z</time>
      </trkpt>
      <trkpt lat="43.24393" lon="2.99168">
        <ele>9.1</ele>
        <time>2024-05-10T08:28:09Z</time>
      </trkpt>
      <trkpt lat="43.24391" lon="2.99175">
        <ele>9.1</ele>
        <time>2024-05-10T08:28:10Z</time>
      </trkpt>
      <trkpt lat="43.24389" lon="2.99183">
        <ele>9</ele>
        <time>2024-05-10T08:28:11Z</time>
      </trkpt>
      <trkpt lat="43.24387" lon="2.99189">
        <ele>9.2</ele>
        <time>2024-05-10T08:28:12Z</time>
      </trkpt>
      <trkpt lat="43.24386" lon="2.99196">
        <ele>9.2</ele>
        <time>2024-05-10T08:28:13Z</time>
      </trkpt>
      <trkpt lat="43.24384" lon="2.99202">
        <ele>9.4</ele>
        <time>2024-05-10T08:28:14Z</time>
      </trkpt>
      <trkpt lat="43.24383" lon="2.9921">
        <ele>9.5</ele>
        <time>2024-05-10T08:28:15Z</time>
      </trkpt>
      <trkpt lat="43.24382" lon="2.99216">
        <ele>9.7</ele>
        <time>2024-05-10T08:28:16Z</time>
      </trkpt>
      <trkpt lat="43.24381" lon="2.99223">
        <ele>9.8</ele>
        <time>2024-05-10T08:28:17Z</time>
      </trkpt>
      <trkpt lat="43.2438" lon="2.99232">
        <ele>9.8</ele>
        <time>2024-05-10T08:28:18Z</time>
      </trkpt>
      <trkpt lat="43.24379" lon="2.99242">
        <ele>9.8</ele>
        <time>2024-05-10T08:28:19Z</time>
      </trkpt>
      <trkpt lat="43.24378" lon="2.99253">
        <ele>9.7</ele>
        <time>2024-05-10T08:28:20Z</time>
      </trkpt>
      <trkpt lat="43.24378" lon="2.99266">
        <ele>9.6</ele>
        <time>2024-05-10T08:28:21Z</time>
      </trkpt>
      <trkpt lat="43.24378" lon="2.99278">
        <ele>9.4</ele>
        <time>2024-05-10T08:28:22Z</time>
      </trkpt>
      <trkpt lat="43.24378" lon="2.99289">
        <ele>9.2</ele>
        <time>2024-05-10T08:28:23Z</time>
      </trkpt>
      <trkpt lat="43.24378" lon="2.993">
        <ele>9.1</ele>
        <time>2024-05-10T08:28:24Z</time>
      </trkpt>
      <trkpt lat="43.24378" lon="2.9931">
        <ele>9</ele>
        <time>2024-05-10T08:28:25Z</time>
      </trkpt>
      <trkpt lat="43.24378" lon="2.99319">
        <ele>9</ele>
        <time>2024-05-10T08:28:26Z</time>
      </trkpt>
      <trkpt lat="43.24377" lon="2.99328">
        <ele>9</ele>
        <time>2024-05-10T08:28:27Z</time>
      </trkpt>
      <trkpt lat="43.24377" lon="2.99336">
        <ele>9</ele>
        <time>2024-05-10T08:28:28Z</time>
      </trkpt>
      <trkpt lat="43.24377" lon="2.99344">
        <ele>9</ele>
        <time>2024-05-10T08:28:29Z</time>
      </trkpt>
      <trkpt lat="43.24376" lon="2.9935">
        <ele>9</ele>
        <time>2024-05-10T08:28:30Z</time>
      </trkpt>
      <trkpt lat="43.24376" lon="2.99357">
        <ele>9</ele>
        <time>2024-05-10T08:28:31Z</time>
      </trkpt>
      <trkpt lat="43.24376" lon="2.99363">
        <ele>9</ele>
        <time>2024-05-10T08:28:32Z</time>
      </trkpt>
      <trkpt lat="43.24376" lon="2.99371">
        <ele>9</ele>
        <time>2024-05-10T08:28:33Z</time>
      </trkpt>
      <trkpt lat="43.24376" lon="2.9938">
        <ele>9</ele>
        <time>2024-05-10T08:28:34Z</time>
      </trkpt>
      <trkpt lat="43.24376" lon="2.9939">
        <ele>9</ele>
        <time>2024-05-10T08:28:35Z</time>
      </trkpt>
      <trkpt lat="43.24376" lon="2.994">
        <ele>9</ele>
        <time>2024-05-10T08:28:36Z</time>
      </trkpt>
      <trkpt lat="43.24376" lon="2.99411">
        <ele>9</ele>
        <time>2024-05-10T08:28:37Z</time>
      </trkpt>
      <trkpt lat="43.24376" lon="2.99421">
        <ele>9</ele>
        <time>2024-05-10T08:28:38Z</time>
      </trkpt>
      <trkpt lat="43.24376" lon="2.99431">
        <ele>9</ele>
        <time>2024-05-10T08:28:39Z</time>
      </trkpt>
      <trkpt lat="43.24376" lon="2.99441">
        <ele>9</ele>
        <time>2024-05-10T08:28:40Z</time>
      </trkpt>
      <trkpt lat="43.24377" lon="2.99448">
        <ele>9</ele>
        <time>2024-05-10T08:28:41Z</time>
      </trkpt>
      <trkpt lat="43.24379" lon="2.99454">
        <ele>9</ele>
        <time>2024-05-10T08:28:42Z</time>
      </trkpt>
      <trkpt lat="43.2438" lon="2.99461">
        <ele>9</ele>
        <time>2024-05-10T08:28:43Z</time>
      </trkpt>
      <trkpt lat="43.24382" lon="2.99467">
        <ele>9</ele>
        <time>2024-05-10T08:28:44Z</time>
      </trkpt>
      <trkpt lat="43.24383" lon="2.99473">
        <ele>9</ele>
        <time>2024-05-10T08:28:45Z</time>
      </trkpt>
      <trkpt lat="43.24385" lon="2.99479">
        <ele>9</ele>
        <time>2024-05-10T08:28:46Z</time>
      </trkpt>
      <trkpt lat="43.24386" lon="2.99484">
        <ele>9</ele>
        <time>2024-05-10T08:28:47Z</time>
      </trkpt>
      <trkpt lat="43.24388" lon="2.9949">
        <ele>9</ele>
        <time>2024-05-10T08:28:48Z</time>
      </trkpt>
      <trkpt lat="43.24389" lon="2.99496">
        <ele>9</ele>
        <time>2024-05-10T08:28:49Z</time>
      </trkpt>
      <trkpt lat="43.2439" lon="2.99503">
        <ele>9</ele>
        <time>2024-05-10T08:28:50Z</time>
      </trkpt>
      <trkpt lat="43.24392" lon="2.99509">
        <ele>9</ele>
        <time>2024-05-10T08:28:51Z</time>
      </trkpt>
      <trkpt lat="43.24393" lon="2.99515">
        <ele>9</ele>
        <time>2024-05-10T08:28:52Z</time>
      </trkpt>
      <trkpt lat="43.24394" lon="2.99522">
        <ele>9</ele>
        <time>2024-05-10T08:28:53Z</time>
      </trkpt>
      <trkpt lat="43.24395" lon="2.9953">
        <ele>9</ele>
        <time>2024-05-10T08:28:54Z</time>
      </trkpt>
      <trkpt lat="43.24395" lon="2.99538">
        <ele>9</ele>
        <time>2024-05-10T08:28:55Z</time>
      </trkpt>
      <trkpt lat="43.24396" lon="2.99546">
        <ele>9</ele>
        <time>2024-05-10T08:28:56Z</time>
      </trkpt>
      <trkpt lat="43.24396" lon="2.99556">
        <ele>9</ele>
        <time>2024-05-10T08:28:57Z</time>
      </trkpt>
      <trkpt lat="43.24397" lon="2.99567">
        <ele>9</ele>
        <time>2024-05-10T08:28:58Z</time>
      </trkpt>
      <trkpt lat="43.24398" lon="2.99578">
        <ele>9</ele>
        <time>2024-05-10T08:28:59Z</time>
      </trkpt>
      <trkpt lat="43.24399" lon="2.99588">
        <ele>9.1</ele>
        <time>2024-05-10T08:29:00Z</time>
      </trkpt>
      <trkpt lat="43.24399" lon="2.99599">
        <ele>9.2</ele>
        <time>2024-05-10T08:29:01Z</time>
      </trkpt>
      <trkpt lat="43.24399" lon="2.9961">
        <ele>9.3</ele>
        <time>2024-05-10T08:29:02Z</time>
      </trkpt>
      <trkpt lat="43.24399" lon="2.9962">
        <ele>9.4</ele>
        <time>2024-05-10T08:29:03Z</time>
      </trkpt>
      <trkpt lat="43.24398" lon="2.99629">
        <ele>9.3</ele>
        <time>2024-05-10T08:29:04Z</time>
      </trkpt>
      <trkpt lat="43.24398" lon="2.99639">
        <ele>9.3</ele>
        <time>2024-05-10T08:29:05Z</time>
      </trkpt>
      <trkpt lat="43.24398" lon="2.9965">
        <ele>9.3</ele>
        <time>2024-05-10T08:29:06Z</time>
      </trkpt>
      <trkpt lat="43.24398" lon="2.99661">
        <ele>9.3</ele>
        <time>2024-05-10T08:29:07Z</time>
      </trkpt>
      <trkpt lat="43.24398" lon="2.99671">
        <ele>9.4</ele>
        <time>2024-05-10T08:29:08Z</time>
      </trkpt>
      <trkpt lat="43.24398" lon="2.9968">
        <ele>9.7</ele>
        <time>2024-05-10T08:29:09Z</time>
      </trkpt>
      <trkpt lat="43.24398" lon="2.99688">
        <ele>9.8</ele>
        <time>2024-05-10T08:29:10Z</time>
      </trkpt>
      <trkpt lat="43.24398" lon="2.99696">
        <ele>10</ele>
        <time>2024-05-10T08:29:11Z</time>
      </trkpt>
      <trkpt lat="43.24397" lon="2.99703">
        <ele>9.9</ele>
        <time>2024-05-10T08:29:12Z</time>
      </trkpt>
      <trkpt lat="43.24396" lon="2.99709">
        <ele>9.9</ele>
        <time>2024-05-10T08:29:13Z</time>
      </trkpt>
      <trkpt lat="43.24396" lon="2.99715">
        <ele>9.8</ele>
        <time>2024-05-10T08:29:14Z</time>
      </trkpt>
      <trkpt lat="43.24397" lon="2.99719">
        <ele>9.7</ele>
        <time>2024-05-10T08:29:15Z</time>
      </trkpt>
      <trkpt lat="43.24397" lon="2.99725">
        <ele>9.8</ele>
        <time>2024-05-10T08:29:16Z</time>
      </trkpt>
      <trkpt lat="43.24398" lon="2.9973">
        <ele>9.9</ele>
        <time>2024-05-10T08:29:17Z</time>
      </trkpt>
      <trkpt lat="43.24399" lon="2.99735">
        <ele>9.9</ele>
        <time>2024-05-10T08:29:18Z</time>
      </trkpt>
      <trkpt lat="43.24405" lon="2.99738">
        <ele>9.7</ele>
        <time>2024-05-10T08:29:19Z</time>
      </trkpt>
      <trkpt lat="43.2441" lon="2.99738">
        <ele>9.4</ele>
        <time>2024-05-10T08:29:20Z</time>
      </trkpt>
      <trkpt lat="43.24416" lon="2.99739">
        <ele>9</ele>
        <time>2024-05-10T08:29:21Z</time>
      </trkpt>
      <trkpt lat="43.24421" lon="2.9974">
        <ele>9</ele>
        <time>2024-05-10T08:29:22Z</time>
      </trkpt>
      <trkpt lat="43.24427" lon="2.99742">
        <ele>9</ele>
        <time>2024-05-10T08:29:23Z</time>
      </trkpt>
      <trkpt lat="43.24431" lon="2.99744">
        <ele>9</ele>
        <time>2024-05-10T08:29:24Z</time>
      </trkpt>
      <trkpt lat="43.24435" lon="2.99746">
        <ele>9</ele>
        <time>2024-05-10T08:29:25Z</time>
      </trkpt>
      <trkpt lat="43.24436" lon="2.99747">
        <ele>9</ele>
        <time>2024-05-10T08:29:26Z</time>
      </trkpt>
      <trkpt lat="43.24437" lon="2.99749">
        <ele>9</ele>
        <time>2024-05-10T08:29:27Z</time>
      </trkpt>
      <trkpt lat="43.24438" lon="2.9975">
        <ele>9</ele>
        <time>2024-05-10T08:29:28Z</time>
      </trkpt>
      <trkpt lat="43.24438" lon="2.99751">
        <ele>9</ele>
        <time>2024-05-10T08:29:29Z</time>
      </trkpt>
      <trkpt lat="43.24438" lon="2.99751">
        <ele>9</ele>
        <time>2024-05-10T08:29:30Z</time>
      </trkpt>
      <trkpt lat="43.24438" lon="2.99751">
        <ele>9</ele>
        <time>2024-05-10T08:29:31Z</time>
      </trkpt>
      <trkpt lat="43.24438" lon="2.99751">
        <ele>9</ele>
        <time>2024-05-10T08:29:32Z</time>
      </trkpt>
      <trkpt lat="43.24438" lon="2.99751">
        <ele>9</ele>
        <time>2024-05-10T08:29:33Z</time>
      </trkpt>
      <trkpt lat="43.24438" lon="2.99751">
        <ele>9</ele>
        <time>2024-05-10T08:29:34Z</time>
      </trkpt>
      <trkpt lat="43.24438" lon="2.99751">
        <ele>9</ele>
        <time>2024-05-10T08:29:35Z</time>
      </trkpt>
      <trkpt lat="43.24438" lon="2.99751">
        <ele>9</ele>
        <time>2024-05-10T08:29:36Z</time>
      </trkpt>
      <trkpt lat="43.24438" lon="2.99751">
        <ele>9</ele>
        <time>2024-05-10T08:29:37Z</time>
      </trkpt>
      <trkpt lat="43.24438" lon="2.99751">
        <ele>9</ele>
        <time>2024-05-10T08:29:38Z</time>
      </trkpt>
      <trkpt lat="43.24438" lon="2.99751">
        <ele>9</ele>
        <time>2024-05-10T08:29:39Z</time>
      </trkpt>
      <trkpt lat="43.24438" lon="2.99751">
        <ele>9</ele>
        <time>2024-05-10T08:29:40Z</time>
      </trkpt>
      <trkpt lat="43.24439" lon="2.99751">
        <ele>9</ele>
        <time>2024-05-10T08:29:41Z</time>
      </trkpt>
      <trkpt lat="43.24438" lon="2.99751">
        <ele>9</ele>
        <time>2024-05-10T08:29:42Z</time>
      </trkpt>
      <trkpt lat="43.24438" lon="2.99751">
        <ele>9</ele>
        <time>2024-05-10T08:29:43Z</time>
      </trkpt>
      <trkpt lat="43.24438" lon="2.99751">
        <ele>9</ele>
        <time>2024-05-10T08:29:44Z</time>
      </trkpt>
      <trkpt lat="43.24439" lon="2.99754">
        <ele>9</ele>
        <time>2024-05-10T08:29:45Z</time>
      </trkpt>
      <trkpt lat="43.2444" lon="2.99759">
        <ele>9</ele>
        <time>2024-05-10T08:29:46Z</time>
      </trkpt>
      <trkpt lat="43.24441" lon="2.99767">
        <ele>9</ele>
        <time>2024-05-10T08:29:47Z</time>
      </trkpt>
      <trkpt lat="43.2444" lon="2.99776">
        <ele>9</ele>
        <time>2024-05-10T08:29:48Z</time>
      </trkpt>
      <trkpt lat="43.24439" lon="2.99785">
        <ele>9</ele>
        <time>2024-05-10T08:29:49Z</time>
      </trkpt>
      <trkpt lat="43.24439" lon="2.99796">
        <ele>9</ele>
        <time>2024-05-10T08:29:50Z</time>
      </trkpt>
      <trkpt lat="43.24438" lon="2.99805">
        <ele>9</ele>
        <time>2024-05-10T08:29:51Z</time>
      </trkpt>
      <trkpt lat="43.24437" lon="2.99815">
        <ele>9</ele>
        <time>2024-05-10T08:29:52Z</time>
      </trkpt>
      <trkpt lat="43.24436" lon="2.99824">
        <ele>9</ele>
        <time>2024-05-10T08:29:53Z</time>
      </trkpt>
      <trkpt lat="43.24436" lon="2.99834">
        <ele>9</ele>
        <time>2024-05-10T08:29:54Z</time>
      </trkpt>
      <trkpt lat="43.24435" lon="2.99843">
        <ele>9</ele>
        <time>2024-05-10T08:29:55Z</time>
      </trkpt>
      <trkpt lat="43.24435" lon="2.99851">
        <ele>9</ele>
        <time>2024-05-10T08:29:56Z</time>
      </trkpt>
      <trkpt lat="43.24434" lon="2.99859">
        <ele>9</ele>
        <time>2024-05-10T08:29:57Z</time>
      </trkpt>
      <trkpt lat="43.24434" lon="2.99866">
        <ele>9</ele>
        <time>2024-05-10T08:29:58Z</time>
      </trkpt>
      <trkpt lat="43.24434" lon="2.9987">
        <ele>9</ele>
        <time>2024-05-10T08:29:59Z</time>
      </trkpt>
      <trkpt lat="43.24433" lon="2.99872">
        <ele>9</ele>
        <time>2024-05-10T08:30:00Z</time>
      </trkpt>
      <trkpt lat="43.24433" lon="2.99874">
        <ele>9</ele>
        <time>2024-05-10T08:30:01Z</time>
      </trkpt>
      <trkpt lat="43.24433" lon="2.99874">
        <ele>9</ele>
        <time>2024-05-10T08:30:02Z</time>
      </trkpt>
      <trkpt lat="43.24433" lon="2.99874">
        <ele>9</ele>
        <time>2024-05-10T08:30:03Z</time>
      </trkpt>
      <trkpt lat="43.24433" lon="2.99874">
        <ele>9</ele>
        <time>2024-05-10T08:30:04Z</time>
      </trkpt>
      <trkpt lat="43.24433" lon="2.99874">
        <ele>9</ele>
        <time>2024-05-10T08:30:05Z</time>
      </trkpt>
      <trkpt lat="43.24433" lon="2.99875">
        <ele>9</ele>
        <time>2024-05-10T08:30:06Z</time>
      </trkpt>
      <trkpt lat="43.24433" lon="2.99878">
        <ele>9</ele>
        <time>2024-05-10T08:30:07Z</time>
      </trkpt>
      <trkpt lat="43.24433" lon="2.99882">
        <ele>9</ele>
        <time>2024-05-10T08:30:08Z</time>
      </trkpt>
      <trkpt lat="43.24433" lon="2.99885">
        <ele>9</ele>
        <time>2024-05-10T08:30:09Z</time>
      </trkpt>
      <trkpt lat="43.24432" lon="2.99889">
        <ele>9</ele>
        <time>2024-05-10T08:30:10Z</time>
      </trkpt>
      <trkpt lat="43.24432" lon="2.99893">
        <ele>9</ele>
        <time>2024-05-10T08:30:11Z</time>
      </trkpt>
      <trkpt lat="43.24432" lon="2.99897">
        <ele>9</ele>
        <time>2024-05-10T08:30:12Z</time>
      </trkpt>
      <trkpt lat="43.24432" lon="2.99903">
        <ele>9</ele>
        <time>2024-05-10T08:30:13Z</time>
      </trkpt>
      <trkpt lat="43.24431" lon="2.9991">
        <ele>9</ele>
        <time>2024-05-10T08:30:14Z</time>
      </trkpt>
      <trkpt lat="43.2443" lon="2.99916">
        <ele>9</ele>
        <time>2024-05-10T08:30:15Z</time>
      </trkpt>
      <trkpt lat="43.2443" lon="2.99921">
        <ele>9</ele>
        <time>2024-05-10T08:30:16Z</time>
      </trkpt>
      <trkpt lat="43.2443" lon="2.99926">
        <ele>9</ele>
        <time>2024-05-10T08:30:17Z</time>
      </trkpt>
      <trkpt lat="43.24429" lon="2.99931">
        <ele>9</ele>
        <time>2024-05-10T08:30:18Z</time>
      </trkpt>
      <trkpt lat="43.24429" lon="2.99936">
        <ele>9</ele>
        <time>2024-05-10T08:30:19Z</time>
      </trkpt>
      <trkpt lat="43.2443" lon="2.9994">
        <ele>9</ele>
        <time>2024-05-10T08:30:20Z</time>
      </trkpt>
      <trkpt lat="43.24431" lon="2.99944">
        <ele>9</ele>
        <time>2024-05-10T08:30:21Z</time>
      </trkpt>
      <trkpt lat="43.24434" lon="2.99947">
        <ele>8.9</ele>
        <time>2024-05-10T08:30:22Z</time>
      </trkpt>
      <trkpt lat="43.24436" lon="2.99951">
        <ele>8.8</ele>
        <time>2024-05-10T08:30:23Z</time>
      </trkpt>
      <trkpt lat="43.24437" lon="2.99957">
        <ele>8.7</ele>
        <time>2024-05-10T08:30:24Z</time>
      </trkpt>
      <trkpt lat="43.24437" lon="2.99963">
        <ele>8.5</ele>
        <time>2024-05-10T08:30:25Z</time>
      </trkpt>
      <trkpt lat="43.24437" lon="2.99969">
        <ele>8.4</ele>
        <time>2024-05-10T08:30:26Z</time>
      </trkpt>
      <trkpt lat="43.24436" lon="2.99975">
        <ele>8.3</ele>
        <time>2024-05-10T08:30:27Z</time>
      </trkpt>
      <trkpt lat="43.24436" lon="2.99983">
        <ele>8.2</ele>
        <time>2024-05-10T08:30:28Z</time>
      </trkpt>
      <trkpt lat="43.24436" lon="2.99993">
        <ele>8.1</ele>
        <time>2024-05-10T08:30:29Z</time>
      </trkpt>
      <trkpt lat="43.24435" lon="3.00003">
        <ele>8</ele>
        <time>2024-05-10T08:30:30Z</time>
      </trkpt>
      <trkpt lat="43.24435" lon="3.00011">
        <ele>8</ele>
        <time>2024-05-10T08:30:31Z</time>
      </trkpt>
      <trkpt lat="43.24435" lon="3.00019">
        <ele>8</ele>
        <time>2024-05-10T08:30:32Z</time>
      </trkpt>
      <trkpt lat="43.24435" lon="3.00027">
        <ele>8</ele>
        <time>2024-05-10T08:30:33Z</time>
      </trkpt>
      <trkpt lat="43.24434" lon="3.00034">
        <ele>8</ele>
        <time>2024-05-10T08:30:34Z</time>
      </trkpt>
      <trkpt lat="43.24434" lon="3.0004">
        <ele>8</ele>
        <time>2024-05-10T08:30:35Z</time>
      </trkpt>
      <trkpt lat="43.24434" lon="3.00046">
        <ele>8</ele>
        <time>2024-05-10T08:30:36Z</time>
      </trkpt>
      <trkpt lat="43.24435" lon="3.00053">
        <ele>8</ele>
        <time>2024-05-10T08:30:37Z</time>
      </trkpt>
      <trkpt lat="43.24436" lon="3.00061">
        <ele>8</ele>
        <time>2024-05-10T08:30:38Z</time>
      </trkpt>
      <trkpt lat="43.24438" lon="3.00069">
        <ele>8</ele>
        <time>2024-05-10T08:30:39Z</time>
      </trkpt>
      <trkpt lat="43.2444" lon="3.00077">
        <ele>8</ele>
        <time>2024-05-10T08:30:40Z</time>
      </trkpt>
      <trkpt lat="43.24442" lon="3.00085">
        <ele>8</ele>
        <time>2024-05-10T08:30:41Z</time>
      </trkpt>
      <trkpt lat="43.24445" lon="3.00093">
        <ele>8</ele>
        <time>2024-05-10T08:30:42Z</time>
      </trkpt>
      <trkpt lat="43.24449" lon="3.00102">
        <ele>8</ele>
        <time>2024-05-10T08:30:43Z</time>
      </trkpt>
      <trkpt lat="43.24452" lon="3.0011">
        <ele>8</ele>
        <time>2024-05-10T08:30:44Z</time>
      </trkpt>
      <trkpt lat="43.24456" lon="3.00119">
        <ele>8</ele>
        <time>2024-05-10T08:30:45Z</time>
      </trkpt>
      <trkpt lat="43.24461" lon="3.00128">
        <ele>8</ele>
        <time>2024-05-10T08:30:46Z</time>
      </trkpt>
      <trkpt lat="43.24465" lon="3.00137">
        <ele>8</ele>
        <time>2024-05-10T08:30:47Z</time>
      </trkpt>
      <trkpt lat="43.24469" lon="3.00145">
        <ele>8</ele>
        <time>2024-05-10T08:30:48Z</time>
      </trkpt>
      <trkpt lat="43.24473" lon="3.00153">
        <ele>8</ele>
        <time>2024-05-10T08:30:49Z</time>
      </trkpt>
      <trkpt lat="43.24477" lon="3.0016">
        <ele>8</ele>
        <time>2024-05-10T08:30:50Z</time>
      </trkpt>
      <trkpt lat="43.2448" lon="3.00168">
        <ele>8</ele>
        <time>2024-05-10T08:30:51Z</time>
      </trkpt>
      <trkpt lat="43.24484" lon="3.00175">
        <ele>8</ele>
        <time>2024-05-10T08:30:52Z</time>
      </trkpt>
      <trkpt lat="43.24487" lon="3.00182">
        <ele>8</ele>
        <time>2024-05-10T08:30:53Z</time>
      </trkpt>
      <trkpt lat="43.24491" lon="3.00191">
        <ele>8</ele>
        <time>2024-05-10T08:30:54Z</time>
      </trkpt>
      <trkpt lat="43.24495" lon="3.00199">
        <ele>8</ele>
        <time>2024-05-10T08:30:55Z</time>
      </trkpt>
      <trkpt lat="43.24499" lon="3.00207">
        <ele>8</ele>
        <time>2024-05-10T08:30:56Z</time>
      </trkpt>
      <trkpt lat="43.24502" lon="3.00214">
        <ele>8</ele>
        <time>2024-05-10T08:30:57Z</time>
      </trkpt>
      <trkpt lat="43.24506" lon="3.00221">
        <ele>8</ele>
        <time>2024-05-10T08:30:58Z</time>
      </trkpt>
      <trkpt lat="43.24509" lon="3.00227">
        <ele>8</ele>
        <time>2024-05-10T08:30:59Z</time>
      </trkpt>
      <trkpt lat="43.24512" lon="3.00233">
        <ele>8</ele>
        <time>2024-05-10T08:31:00Z</time>
      </trkpt>
      <trkpt lat="43.24516" lon="3.0024">
        <ele>8</ele>
        <time>2024-05-10T08:31:01Z</time>
      </trkpt>
      <trkpt lat="43.24519" lon="3.00247">
        <ele>8</ele>
        <time>2024-05-10T08:31:02Z</time>
      </trkpt>
      <trkpt lat="43.24523" lon="3.00254">
        <ele>7.9</ele>
        <time>2024-05-10T08:31:03Z</time>
      </trkpt>
      <trkpt lat="43.24527" lon="3.00262">
        <ele>7.6</ele>
        <time>2024-05-10T08:31:04Z</time>
      </trkpt>
      <trkpt lat="43.2453" lon="3.0027">
        <ele>7.3</ele>
        <time>2024-05-10T08:31:05Z</time>
      </trkpt>
      <trkpt lat="43.24535" lon="3.0028">
        <ele>7.3</ele>
        <time>2024-05-10T08:31:06Z</time>
      </trkpt>
      <trkpt lat="43.24541" lon="3.00291">
        <ele>7.7</ele>
        <time>2024-05-10T08:31:07Z</time>
      </trkpt>
      <trkpt lat="43.24547" lon="3.00304">
        <ele>8</ele>
        <time>2024-05-10T08:31:08Z</time>
      </trkpt>
      <trkpt lat="43.24553" lon="3.00317">
        <ele>7.6</ele>
        <time>2024-05-10T08:31:09Z</time>
      </trkpt>
      <trkpt lat="43.24559" lon="3.00329">
        <ele>7.3</ele>
        <time>2024-05-10T08:31:10Z</time>
      </trkpt>
      <trkpt lat="43.24565" lon="3.00342">
        <ele>7.5</ele>
        <time>2024-05-10T08:31:11Z</time>
      </trkpt>
      <trkpt lat="43.2457" lon="3.00356">
        <ele>7.9</ele>
        <time>2024-05-10T08:31:12Z</time>
      </trkpt>
      <trkpt lat="43.24576" lon="3.00368">
        <ele>7.8</ele>
        <time>2024-05-10T08:31:13Z</time>
      </trkpt>
      <trkpt lat="43.24581" lon="3.0038">
        <ele>7.4</ele>
        <time>2024-05-10T08:31:14Z</time>
      </trkpt>
      <trkpt lat="43.24585" lon="3.00392">
        <ele>7.1</ele>
        <time>2024-05-10T08:31:15Z</time>
      </trkpt>
      <trkpt lat="43.24589" lon="3.00403">
        <ele>7.2</ele>
        <time>2024-05-10T08:31:16Z</time>
      </trkpt>
      <trkpt lat="43.24592" lon="3.00414">
        <ele>7.3</ele>
        <time>2024-05-10T08:31:17Z</time>
      </trkpt>
      <trkpt lat="43.24594" lon="3.00423">
        <ele>7.5</ele>
        <time>2024-05-10T08:31:18Z</time>
      </trkpt>
      <trkpt lat="43.24595" lon="3.00431">
        <ele>7.7</ele>
        <time>2024-05-10T08:31:19Z</time>
      </trkpt>
      <trkpt lat="43.24596" lon="3.00439">
        <ele>7.9</ele>
        <time>2024-05-10T08:31:20Z</time>
      </trkpt>
      <trkpt lat="43.24596" lon="3.00447">
        <ele>8</ele>
        <time>2024-05-10T08:31:21Z</time>
      </trkpt>
      <trkpt lat="43.24597" lon="3.00454">
        <ele>7.8</ele>
        <time>2024-05-10T08:31:22Z</time>
      </trkpt>
      <trkpt lat="43.24597" lon="3.00463">
        <ele>7.7</ele>
        <time>2024-05-10T08:31:23Z</time>
      </trkpt>
      <trkpt lat="43.24597" lon="3.00472">
        <ele>7.5</ele>
        <time>2024-05-10T08:31:24Z</time>
      </trkpt>
      <trkpt lat="43.24597" lon="3.00484">
        <ele>7.7</ele>
        <time>2024-05-10T08:31:25Z</time>
      </trkpt>
      <trkpt lat="43.24597" lon="3.00497">
        <ele>7.9</ele>
        <time>2024-05-10T08:31:26Z</time>
      </trkpt>
      <trkpt lat="43.24597" lon="3.00512">
        <ele>7.8</ele>
        <time>2024-05-10T08:31:27Z</time>
      </trkpt>
      <trkpt lat="43.24598" lon="3.00527">
        <ele>7.5</ele>
        <time>2024-05-10T08:31:28Z</time>
      </trkpt>
      <trkpt lat="43.24599" lon="3.00543">
        <ele>7.7</ele>
        <time>2024-05-10T08:31:29Z</time>
      </trkpt>
      <trkpt lat="43.246" lon="3.00559">
        <ele>7.9</ele>
        <time>2024-05-10T08:31:30Z</time>
      </trkpt>
      <trkpt lat="43.24602" lon="3.00578">
        <ele>7.5</ele>
        <time>2024-05-10T08:31:31Z</time>
      </trkpt>
      <trkpt lat="43.24606" lon="3.00596">
        <ele>7.1</ele>
        <time>2024-05-10T08:31:32Z</time>
      </trkpt>
      <trkpt lat="43.24613" lon="3.00617">
        <ele>7</ele>
        <time>2024-05-10T08:31:33Z</time>
      </trkpt>
      <trkpt lat="43.24623" lon="3.0064">
        <ele>7</ele>
        <time>2024-05-10T08:31:34Z</time>
      </trkpt>
      <trkpt lat="43.24633" lon="3.00663">
        <ele>7</ele>
        <time>2024-05-10T08:31:35Z</time>
      </trkpt>
      <trkpt lat="43.2464" lon="3.00686">
        <ele>7</ele>
        <time>2024-05-10T08:31:36Z</time>
      </trkpt>
      <trkpt lat="43.24643" lon="3.00712">
        <ele>7</ele>
        <time>2024-05-10T08:31:37Z</time>
      </trkpt>
      <trkpt lat="43.24644" lon="3.00739">
        <ele>7</ele>
        <time>2024-05-10T08:31:38Z</time>
      </trkpt>
      <trkpt lat="43.24642" lon="3.00763">
        <ele>7</ele>
        <time>2024-05-10T08:31:39Z</time>
      </trkpt>
      <trkpt lat="43.24638" lon="3.00786">
        <ele>7</ele>
        <time>2024-05-10T08:31:40Z</time>
      </trkpt>
      <trkpt lat="43.24634" lon="3.00811">
        <ele>7</ele>
        <time>2024-05-10T08:31:41Z</time>
      </trkpt>
      <trkpt lat="43.24631" lon="3.00838">
        <ele>7.2</ele>
        <time>2024-05-10T08:31:42Z</time>
      </trkpt>
      <trkpt lat="43.24627" lon="3.00867">
        <ele>7</ele>
        <time>2024-05-10T08:31:43Z</time>
      </trkpt>
      <trkpt lat="43.24621" lon="3.00899">
        <ele>7</ele>
        <time>2024-05-10T08:31:44Z</time>
      </trkpt>
      <trkpt lat="43.24616" lon="3.00933">
        <ele>7</ele>
        <time>2024-05-10T08:31:45Z</time>
      </trkpt>
      <trkpt lat="43.2461" lon="3.00967">
        <ele>7</ele>
        <time>2024-05-10T08:31:46Z</time>
      </trkpt>
      <trkpt lat="43.24604" lon="3.01003">
        <ele>6.3</ele>
        <time>2024-05-10T08:31:47Z</time>
      </trkpt>
      <trkpt lat="43.24598" lon="3.01038">
        <ele>6.7</ele>
        <time>2024-05-10T08:31:48Z</time>
      </trkpt>
      <trkpt lat="43.24592" lon="3.01072">
        <ele>7</ele>
        <time>2024-05-10T08:31:49Z</time>
      </trkpt>
      <trkpt lat="43.24587" lon="3.01105">
        <ele>7</ele>
        <time>2024-05-10T08:31:50Z</time>
      </trkpt>
      <trkpt lat="43.24582" lon="3.01135">
        <ele>7</ele>
        <time>2024-05-10T08:31:51Z</time>
      </trkpt>
      <trkpt lat="43.24576" lon="3.01166">
        <ele>7</ele>
        <time>2024-05-10T08:31:52Z</time>
      </trkpt>
      <trkpt lat="43.24571" lon="3.01195">
        <ele>7</ele>
        <time>2024-05-10T08:31:53Z</time>
      </trkpt>
      <trkpt lat="43.24566" lon="3.01223">
        <ele>7</ele>
        <time>2024-05-10T08:31:54Z</time>
      </trkpt>
      <trkpt lat="43.24561" lon="3.0125">
        <ele>7</ele>
        <time>2024-05-10T08:31:55Z</time>
      </trkpt>
      <trkpt lat="43.24558" lon="3.01275">
        <ele>7</ele>
        <time>2024-05-10T08:31:56Z</time>
      </trkpt>
      <trkpt lat="43.24558" lon="3.013">
        <ele>7</ele>
        <time>2024-05-10T08:31:57Z</time>
      </trkpt>
      <trkpt lat="43.24559" lon="3.01325">
        <ele>7</ele>
        <time>2024-05-10T08:31:58Z</time>
      </trkpt>
      <trkpt lat="43.2456" lon="3.0135">
        <ele>7</ele>
        <time>2024-05-10T08:31:59Z</time>
      </trkpt>
      <trkpt lat="43.24561" lon="3.01376">
        <ele>7</ele>
        <time>2024-05-10T08:32:00Z</time>
      </trkpt>
      <trkpt lat="43.24561" lon="3.01401">
        <ele>7</ele>
        <time>2024-05-10T08:32:01Z</time>
      </trkpt>
      <trkpt lat="43.24562" lon="3.01426">
        <ele>7</ele>
        <time>2024-05-10T08:32:02Z</time>
      </trkpt>
      <trkpt lat="43.24563" lon="3.01451">
        <ele>7</ele>
        <time>2024-05-10T08:32:03Z</time>
      </trkpt>
      <trkpt lat="43.24565" lon="3.01475">
        <ele>6.9</ele>
        <time>2024-05-10T08:32:04Z</time>
      </trkpt>
      <trkpt lat="43.24566" lon="3.01501">
        <ele>6</ele>
        <time>2024-05-10T08:32:05Z</time>
      </trkpt>
      <trkpt lat="43.24567" lon="3.01528">
        <ele>6</ele>
        <time>2024-05-10T08:32:06Z</time>
      </trkpt>
      <trkpt lat="43.24568" lon="3.01556">
        <ele>6.6</ele>
        <time>2024-05-10T08:32:07Z</time>
      </trkpt>
      <trkpt lat="43.24569" lon="3.01584">
        <ele>7</ele>
        <time>2024-05-10T08:32:08Z</time>
      </trkpt>
      <trkpt lat="43.2457" lon="3.01613">
        <ele>7</ele>
        <time>2024-05-10T08:32:09Z</time>
      </trkpt>
      <trkpt lat="43.24569" lon="3.01642">
        <ele>7</ele>
        <time>2024-05-10T08:32:10Z</time>
      </trkpt>
      <trkpt lat="43.24565" lon="3.01672">
        <ele>6.9</ele>
        <time>2024-05-10T08:32:11Z</time>
      </trkpt>
      <trkpt lat="43.24559" lon="3.01702">
        <ele>6.9</ele>
        <time>2024-05-10T08:32:12Z</time>
      </trkpt>
      <trkpt lat="43.2455" lon="3.0173">
        <ele>7</ele>
        <time>2024-05-10T08:32:13Z</time>
      </trkpt>
      <trkpt lat="43.24539" lon="3.01759">
        <ele>7</ele>
        <time>2024-05-10T08:32:14Z</time>
      </trkpt>
      <trkpt lat="43.24527" lon="3.0179">
        <ele>7</ele>
        <time>2024-05-10T08:32:15Z</time>
      </trkpt>
      <trkpt lat="43.24515" lon="3.01821">
        <ele>7</ele>
        <time>2024-05-10T08:32:16Z</time>
      </trkpt>
      <trkpt lat="43.24504" lon="3.01853">
        <ele>7</ele>
        <time>2024-05-10T08:32:17Z</time>
      </trkpt>
      <trkpt lat="43.24493" lon="3.01885">
        <ele>7</ele>
        <time>2024-05-10T08:32:18Z</time>
      </trkpt>
      <trkpt lat="43.24483" lon="3.01917">
        <ele>7</ele>
        <time>2024-05-10T08:32:19Z</time>
      </trkpt>
      <trkpt lat="43.24475" lon="3.01948">
        <ele>6.2</ele>
        <time>2024-05-10T08:32:20Z</time>
      </trkpt>
      <trkpt lat="43.24469" lon="3.0198">
        <ele>7</ele>
        <time>2024-05-10T08:32:21Z</time>
      </trkpt>
      <trkpt lat="43.24463" lon="3.02012">
        <ele>7</ele>
        <time>2024-05-10T08:32:22Z</time>
      </trkpt>
      <trkpt lat="43.24459" lon="3.02045">
        <ele>7</ele>
        <time>2024-05-10T08:32:23Z</time>
      </trkpt>
      <trkpt lat="43.24455" lon="3.02077">
        <ele>7</ele>
        <time>2024-05-10T08:32:24Z</time>
      </trkpt>
      <trkpt lat="43.24452" lon="3.02107">
        <ele>7</ele>
        <time>2024-05-10T08:32:25Z</time>
      </trkpt>
      <trkpt lat="43.24449" lon="3.02135">
        <ele>6.1</ele>
        <time>2024-05-10T08:32:26Z</time>
      </trkpt>
      <trkpt lat="43.24446" lon="3.02163">
        <ele>6.8</ele>
        <time>2024-05-10T08:32:27Z</time>
      </trkpt>
      <trkpt lat="43.24443" lon="3.0219">
        <ele>7</ele>
        <time>2024-05-10T08:32:28Z</time>
      </trkpt>
      <trkpt lat="43.2444" lon="3.02217">
        <ele>6.3</ele>
        <time>2024-05-10T08:32:29Z</time>
      </trkpt>
      <trkpt lat="43.24436" lon="3.02244">
        <ele>6.3</ele>
        <time>2024-05-10T08:32:30Z</time>
      </trkpt>
      <trkpt lat="43.24431" lon="3.0227">
        <ele>6.5</ele>
        <time>2024-05-10T08:32:31Z</time>
      </trkpt>
      <trkpt lat="43.24423" lon="3.02297">
        <ele>6.2</ele>
        <time>2024-05-10T08:32:32Z</time>
      </trkpt>
      <trkpt lat="43.24414" lon="3.02325">
        <ele>6.1</ele>
        <time>2024-05-10T08:32:33Z</time>
      </trkpt>
      <trkpt lat="43.24405" lon="3.02355">
        <ele>6.1</ele>
        <time>2024-05-10T08:32:34Z</time>
      </trkpt>
      <trkpt lat="43.24398" lon="3.02385">
        <ele>6.6</ele>
        <time>2024-05-10T08:32:35Z</time>
      </trkpt>
      <trkpt lat="43.24391" lon="3.02417">
        <ele>6.9</ele>
        <time>2024-05-10T08:32:36Z</time>
      </trkpt>
      <trkpt lat="43.24386" lon="3.02447">
        <ele>6.9</ele>
        <time>2024-05-10T08:32:37Z</time>
      </trkpt>
      <trkpt lat="43.2438" lon="3.02476">
        <ele>6.3</ele>
        <time>2024-05-10T08:32:38Z</time>
      </trkpt>
      <trkpt lat="43.24375" lon="3.02504">
        <ele>6.6</ele>
        <time>2024-05-10T08:32:39Z</time>
      </trkpt>
      <trkpt lat="43.2437" lon="3.0253">
        <ele>7</ele>
        <time>2024-05-10T08:32:40Z</time>
      </trkpt>
      <trkpt lat="43.24365" lon="3.02554">
        <ele>6.9</ele>
        <time>2024-05-10T08:32:41Z</time>
      </trkpt>
      <trkpt lat="43.24361" lon="3.02578">
        <ele>7</ele>
        <time>2024-05-10T08:32:42Z</time>
      </trkpt>
      <trkpt lat="43.24356" lon="3.02602">
        <ele>7</ele>
        <time>2024-05-10T08:32:43Z</time>
      </trkpt>
      <trkpt lat="43.24351" lon="3.02627">
        <ele>7</ele>
        <time>2024-05-10T08:32:44Z</time>
      </trkpt>
      <trkpt lat="43.24346" lon="3.02651">
        <ele>7</ele>
        <time>2024-05-10T08:32:45Z</time>
      </trkpt>
      <trkpt lat="43.24341" lon="3.02675">
        <ele>7</ele>
        <time>2024-05-10T08:32:46Z</time>
      </trkpt>
      <trkpt lat="43.24336" lon="3.02701">
        <ele>6.8</ele>
        <time>2024-05-10T08:32:47Z</time>
      </trkpt>
      <trkpt lat="43.2433" lon="3.02728">
        <ele>6</ele>
        <time>2024-05-10T08:32:48Z</time>
      </trkpt>
      <trkpt lat="43.24324" lon="3.02756">
        <ele>6.1</ele>
        <time>2024-05-10T08:32:49Z</time>
      </trkpt>
      <trkpt lat="43.24319" lon="3.02786">
        <ele>6.5</ele>
        <time>2024-05-10T08:32:50Z</time>
      </trkpt>
      <trkpt lat="43.24313" lon="3.02815">
        <ele>6.8</ele>
        <time>2024-05-10T08:32:51Z</time>
      </trkpt>
      <trkpt lat="43.24308" lon="3.02844">
        <ele>7</ele>
        <time>2024-05-10T08:32:52Z</time>
      </trkpt>
      <trkpt lat="43.24303" lon="3.02876">
        <ele>7</ele>
        <time>2024-05-10T08:32:53Z</time>
      </trkpt>
      <trkpt lat="43.24298" lon="3.02909">
        <ele>7</ele>
        <time>2024-05-10T08:32:54Z</time>
      </trkpt>
      <trkpt lat="43.24294" lon="3.02946">
        <ele>7</ele>
        <time>2024-05-10T08:32:55Z</time>
      </trkpt>
      <trkpt lat="43.24292" lon="3.02982">
        <ele>7</ele>
        <time>2024-05-10T08:32:56Z</time>
      </trkpt>
      <trkpt lat="43.2429" lon="3.03016">
        <ele>7</ele>
        <time>2024-05-10T08:32:57Z</time>
      </trkpt>
      <trkpt lat="43.24288" lon="3.03048">
        <ele>7</ele>
        <time>2024-05-10T08:32:58Z</time>
      </trkpt>
      <trkpt lat="43.24286" lon="3.03076">
        <ele>6.8</ele>
        <time>2024-05-10T08:32:59Z</time>
      </trkpt>
      <trkpt lat="43.24284" lon="3.03102">
        <ele>6.9</ele>
        <time>2024-05-10T08:33:00Z</time>
      </trkpt>
      <trkpt lat="43.24281" lon="3.03128">
        <ele>7</ele>
        <time>2024-05-10T08:33:01Z</time>
      </trkpt>
      <trkpt lat="43.24276" lon="3.03156">
        <ele>7</ele>
        <time>2024-05-10T08:33:02Z</time>
      </trkpt>
      <trkpt lat="43.2427" lon="3.03182">
        <ele>7</ele>
        <time>2024-05-10T08:33:03Z</time>
      </trkpt>
      <trkpt lat="43.24263" lon="3.03206">
        <ele>6.8</ele>
        <time>2024-05-10T08:33:04Z</time>
      </trkpt>
      <trkpt lat="43.24256" lon="3.03229">
        <ele>6.8</ele>
        <time>2024-05-10T08:33:05Z</time>
      </trkpt>
      <trkpt lat="43.2425" lon="3.03253">
        <ele>7</ele>
        <time>2024-05-10T08:33:06Z</time>
      </trkpt>
      <trkpt lat="43.24243" lon="3.03277">
        <ele>7</ele>
        <time>2024-05-10T08:33:07Z</time>
      </trkpt>
      <trkpt lat="43.24236" lon="3.03304">
        <ele>7</ele>
        <time>2024-05-10T08:33:08Z</time>
      </trkpt>
      <trkpt lat="43.24229" lon="3.0333">
        <ele>7</ele>
        <time>2024-05-10T08:33:09Z</time>
      </trkpt>
      <trkpt lat="43.24222" lon="3.03356">
        <ele>7</ele>
        <time>2024-05-10T08:33:10Z</time>
      </trkpt>
      <trkpt lat="43.24216" lon="3.0338">
        <ele>7</ele>
        <time>2024-05-10T08:33:11Z</time>
      </trkpt>
      <trkpt lat="43.24209" lon="3.03403">
        <ele>7</ele>
        <time>2024-05-10T08:33:12Z</time>
      </trkpt>
      <trkpt lat="43.24203" lon="3.03426">
        <ele>7</ele>
        <time>2024-05-10T08:33:13Z</time>
      </trkpt>
      <trkpt lat="43.24197" lon="3.03447">
        <ele>7</ele>
        <time>2024-05-10T08:33:14Z</time>
      </trkpt>
      <trkpt lat="43.24192" lon="3.03468">
        <ele>7.1</ele>
        <time>2024-05-10T08:33:15Z</time>
      </trkpt>
      <trkpt lat="43.24187" lon="3.03488">
        <ele>7.3</ele>
        <time>2024-05-10T08:33:16Z</time>
      </trkpt>
      <trkpt lat="43.24182" lon="3.03508">
        <ele>7.4</ele>
        <time>2024-05-10T08:33:17Z</time>
      </trkpt>
      <trkpt lat="43.24178" lon="3.03528">
        <ele>7.6</ele>
        <time>2024-05-10T08:33:18Z</time>
      </trkpt>
      <trkpt lat="43.24177" lon="3.03546">
        <ele>7.6</ele>
        <time>2024-05-10T08:33:19Z</time>
      </trkpt>
      <trkpt lat="43.24178" lon="3.03563">
        <ele>8</ele>
        <time>2024-05-10T08:33:20Z</time>
      </trkpt>
      <trkpt lat="43.24183" lon="3.03577">
        <ele>8.6</ele>
        <time>2024-05-10T08:33:21Z</time>
      </trkpt>
      <trkpt lat="43.24191" lon="3.0359">
        <ele>8.2</ele>
        <time>2024-05-10T08:33:22Z</time>
      </trkpt>
      <trkpt lat="43.24201" lon="3.03601">
        <ele>7.4</ele>
        <time>2024-05-10T08:33:23Z</time>
      </trkpt>
      <trkpt lat="43.24215" lon="3.03613">
        <ele>7.9</ele>
        <time>2024-05-10T08:33:24Z</time>
      </trkpt>
      <trkpt lat="43.24229" lon="3.03627">
        <ele>6.8</ele>
        <time>2024-05-10T08:33:25Z</time>
      </trkpt>
      <trkpt lat="43.24244" lon="3.03638">
        <ele>8.7</ele>
        <time>2024-05-10T08:33:26Z</time>
      </trkpt>
      <trkpt lat="43.24257" lon="3.0365">
        <ele>7.2</ele>
        <time>2024-05-10T08:33:27Z</time>
      </trkpt>
      <trkpt lat="43.24271" lon="3.03662">
        <ele>8</ele>
        <time>2024-05-10T08:33:28Z</time>
      </trkpt>
      <trkpt lat="43.24284" lon="3.03674">
        <ele>8.5</ele>
        <time>2024-05-10T08:33:29Z</time>
      </trkpt>
      <trkpt lat="43.24297" lon="3.03687">
        <ele>8.3</ele>
        <time>2024-05-10T08:33:30Z</time>
      </trkpt>
      <trkpt lat="43.24309" lon="3.03701">
        <ele>9.3</ele>
        <time>2024-05-10T08:33:31Z</time>
      </trkpt>
      <trkpt lat="43.24318" lon="3.03716">
        <ele>7.9</ele>
        <time>2024-05-10T08:33:32Z</time>
      </trkpt>
      <trkpt lat="43.24327" lon="3.03732">
        <ele>7.6</ele>
        <time>2024-05-10T08:33:33Z</time>
      </trkpt>
      <trkpt lat="43.24333" lon="3.03748">
        <ele>9.7</ele>
        <time>2024-05-10T08:33:34Z</time>
      </trkpt>
      <trkpt lat="43.24336" lon="3.03763">
        <ele>9.2</ele>
        <time>2024-05-10T08:33:35Z</time>
      </trkpt>
      <trkpt lat="43.24338" lon="3.03779">
        <ele>8.5</ele>
        <time>2024-05-10T08:33:36Z</time>
      </trkpt>
      <trkpt lat="43.24339" lon="3.03796">
        <ele>8.4</ele>
        <time>2024-05-10T08:33:37Z</time>
      </trkpt>
      <trkpt lat="43.24338" lon="3.03815">
        <ele>8.5</ele>
        <time>2024-05-10T08:33:38Z</time>
      </trkpt>
      <trkpt lat="43.24336" lon="3.03836">
        <ele>8.7</ele>
        <time>2024-05-10T08:33:39Z</time>
      </trkpt>
      <trkpt lat="43.24334" lon="3.03859">
        <ele>8.9</ele>
        <time>2024-05-10T08:33:40Z</time>
      </trkpt>
      <trkpt lat="43.24332" lon="3.03881">
        <ele>8.6</ele>
        <time>2024-05-10T08:33:41Z</time>
      </trkpt>
      <trkpt lat="43.24329" lon="3.03904">
        <ele>6.9</ele>
        <time>2024-05-10T08:33:42Z</time>
      </trkpt>
      <trkpt lat="43.24327" lon="3.03927">
        <ele>6.1</ele>
        <time>2024-05-10T08:33:43Z</time>
      </trkpt>
      <trkpt lat="43.24324" lon="3.03949">
        <ele>6.3</ele>
        <time>2024-05-10T08:33:44Z</time>
      </trkpt>
      <trkpt lat="43.24321" lon="3.03972">
        <ele>6</ele>
        <time>2024-05-10T08:33:45Z</time>
      </trkpt>
      <trkpt lat="43.24316" lon="3.03996">
        <ele>7.1</ele>
        <time>2024-05-10T08:33:46Z</time>
      </trkpt>
      <trkpt lat="43.24309" lon="3.0402">
        <ele>8.5</ele>
        <time>2024-05-10T08:33:47Z</time>
      </trkpt>
      <trkpt lat="43.24301" lon="3.04043">
        <ele>7.1</ele>
        <time>2024-05-10T08:33:48Z</time>
      </trkpt>
      <trkpt lat="43.24292" lon="3.04067">
        <ele>6.1</ele>
        <time>2024-05-10T08:33:49Z</time>
      </trkpt>
      <trkpt lat="43.24281" lon="3.04091">
        <ele>7.8</ele>
        <time>2024-05-10T08:33:50Z</time>
      </trkpt>
      <trkpt lat="43.2427" lon="3.04114">
        <ele>6.3</ele>
        <time>2024-05-10T08:33:51Z</time>
      </trkpt>
      <trkpt lat="43.24259" lon="3.04137">
        <ele>7.1</ele>
        <time>2024-05-10T08:33:52Z</time>
      </trkpt>
      <trkpt lat="43.24247" lon="3.04161">
        <ele>7.5</ele>
        <time>2024-05-10T08:33:53Z</time>
      </trkpt>
      <trkpt lat="43.24234" lon="3.04184">
        <ele>7.2</ele>
        <time>2024-05-10T08:33:54Z</time>
      </trkpt>
      <trkpt lat="43.2422" lon="3.04206">
        <ele>8.2</ele>
        <time>2024-05-10T08:33:55Z</time>
      </trkpt>
      <trkpt lat="43.24205" lon="3.04225">
        <ele>7.9</ele>
        <time>2024-05-10T08:33:56Z</time>
      </trkpt>
      <trkpt lat="43.24188" lon="3.04243">
        <ele>6.9</ele>
        <time>2024-05-10T08:33:57Z</time>
      </trkpt>
      <trkpt lat="43.24171" lon="3.04258">
        <ele>7</ele>
        <time>2024-05-10T08:33:58Z</time>
      </trkpt>
      <trkpt lat="43.24154" lon="3.04274">
        <ele>7.1</ele>
        <time>2024-05-10T08:33:59Z</time>
      </trkpt>
      <trkpt lat="43.24137" lon="3.04288">
        <ele>7</ele>
        <time>2024-05-10T08:34:00Z</time>
      </trkpt>
      <trkpt lat="43.24119" lon="3.04302">
        <ele>7.5</ele>
        <time>2024-05-10T08:34:01Z</time>
      </trkpt>
      <trkpt lat="43.24102" lon="3.04316">
        <ele>7.3</ele>
        <time>2024-05-10T08:34:02Z</time>
      </trkpt>
      <trkpt lat="43.24084" lon="3.04328">
        <ele>7.8</ele>
        <time>2024-05-10T08:34:03Z</time>
      </trkpt>
      <trkpt lat="43.24069" lon="3.0434">
        <ele>6.7</ele>
        <time>2024-05-10T08:34:04Z</time>
      </trkpt>
      <trkpt lat="43.24054" lon="3.04352">
        <ele>6.6</ele>
        <time>2024-05-10T08:34:05Z</time>
      </trkpt>
      <trkpt lat="43.24041" lon="3.04366">
        <ele>7.1</ele>
        <time>2024-05-10T08:34:06Z</time>
      </trkpt>
      <trkpt lat="43.24029" lon="3.0438">
        <ele>7.4</ele>
        <time>2024-05-10T08:34:07Z</time>
      </trkpt>
      <trkpt lat="43.24017" lon="3.04395">
        <ele>7</ele>
        <time>2024-05-10T08:34:08Z</time>
      </trkpt>
      <trkpt lat="43.24008" lon="3.04412">
        <ele>8</ele>
        <time>2024-05-10T08:34:09Z</time>
      </trkpt>
      <trkpt lat="43.23999" lon="3.04431">
        <ele>8.4</ele>
        <time>2024-05-10T08:34:10Z</time>
      </trkpt>
      <trkpt lat="43.23991" lon="3.04452">
        <ele>7.9</ele>
        <time>2024-05-10T08:34:11Z</time>
      </trkpt>
      <trkpt lat="43.23985" lon="3.04475">
        <ele>8.1</ele>
        <time>2024-05-10T08:34:12Z</time>
      </trkpt>
      <trkpt lat="43.23981" lon="3.04498">
        <ele>8.4</ele>
        <time>2024-05-10T08:34:13Z</time>
      </trkpt>
      <trkpt lat="43.23978" lon="3.04522">
        <ele>8.6</ele>
        <time>2024-05-10T08:34:14Z</time>
      </trkpt>
      <trkpt lat="43.23977" lon="3.04546">
        <ele>8.1</ele>
        <time>2024-05-10T08:34:15Z</time>
      </trkpt>
      <trkpt lat="43.23979" lon="3.0457">
        <ele>7.8</ele>
        <time>2024-05-10T08:34:16Z</time>
      </trkpt>
      <trkpt lat="43.23982" lon="3.04595">
        <ele>7.4</ele>
        <time>2024-05-10T08:34:17Z</time>
      </trkpt>
      <trkpt lat="43.23987" lon="3.0462">
        <ele>6.9</ele>
        <time>2024-05-10T08:34:18Z</time>
      </trkpt>
      <trkpt lat="43.23994" lon="3.04646">
        <ele>7.2</ele>
        <time>2024-05-10T08:34:19Z</time>
      </trkpt>
      <trkpt lat="43.24002" lon="3.04673">
        <ele>8.4</ele>
        <time>2024-05-10T08:34:20Z</time>
      </trkpt>
      <trkpt lat="43.2401" lon="3.04698">
        <ele>6.7</ele>
        <time>2024-05-10T08:34:21Z</time>
      </trkpt>
      <trkpt lat="43.24019" lon="3.04725">
        <ele>7.1</ele>
        <time>2024-05-10T08:34:22Z</time>
      </trkpt>
      <trkpt lat="43.24027" lon="3.04752">
        <ele>8.8</ele>
        <time>2024-05-10T08:34:23Z</time>
      </trkpt>
      <trkpt lat="43.24035" lon="3.04778">
        <ele>7</ele>
        <time>2024-05-10T08:34:24Z</time>
      </trkpt>
      <trkpt lat="43.24043" lon="3.04803">
        <ele>6.7</ele>
        <time>2024-05-10T08:34:25Z</time>
      </trkpt>
      <trkpt lat="43.24049" lon="3.04829">
        <ele>7.9</ele>
        <time>2024-05-10T08:34:26Z</time>
      </trkpt>
      <trkpt lat="43.24053" lon="3.04854">
        <ele>8.6</ele>
        <time>2024-05-10T08:34:27Z</time>
      </trkpt>
      <trkpt lat="43.24053" lon="3.04879">
        <ele>8.6</ele>
        <time>2024-05-10T08:34:28Z</time>
      </trkpt>
      <trkpt lat="43.2405" lon="3.04904">
        <ele>7.4</ele>
        <time>2024-05-10T08:34:29Z</time>
      </trkpt>
      <trkpt lat="43.24044" lon="3.04928">
        <ele>6.7</ele>
        <time>2024-05-10T08:34:30Z</time>
      </trkpt>
      <trkpt lat="43.24035" lon="3.0495">
        <ele>7.6</ele>
        <time>2024-05-10T08:34:31Z</time>
      </trkpt>
      <trkpt lat="43.24023" lon="3.04969">
        <ele>8.4</ele>
        <time>2024-05-10T08:34:32Z</time>
      </trkpt>
      <trkpt lat="43.24009" lon="3.04986">
        <ele>7.8</ele>
        <time>2024-05-10T08:34:33Z</time>
      </trkpt>
      <trkpt lat="43.23994" lon="3.04999">
        <ele>9.2</ele>
        <time>2024-05-10T08:34:34Z</time>
      </trkpt>
      <trkpt lat="43.23978" lon="3.05012">
        <ele>8.4</ele>
        <time>2024-05-10T08:34:35Z</time>
      </trkpt>
      <trkpt lat="43.23963" lon="3.05025">
        <ele>8.2</ele>
        <time>2024-05-10T08:34:36Z</time>
      </trkpt>
      <trkpt lat="43.23948" lon="3.05038">
        <ele>4.6</ele>
        <time>2024-05-10T08:34:37Z</time>
      </trkpt>
      <trkpt lat="43.23934" lon="3.05051">
        <ele>2.7</ele>
        <time>2024-05-10T08:34:38Z</time>
      </trkpt>
      <trkpt lat="43.2392" lon="3.05063">
        <ele>3.8</ele>
        <time>2024-05-10T08:34:39Z</time>
      </trkpt>
      <trkpt lat="43.23906" lon="3.05076">
        <ele>7.3</ele>
        <time>2024-05-10T08:34:40Z</time>
      </trkpt>
      <trkpt lat="43.23892" lon="3.05088">
        <ele>9.2</ele>
        <time>2024-05-10T08:34:41Z</time>
      </trkpt>
      <trkpt lat="43.23878" lon="3.051">
        <ele>8.3</ele>
        <time>2024-05-10T08:34:42Z</time>
      </trkpt>
      <trkpt lat="43.23863" lon="3.0511">
        <ele>9.7</ele>
        <time>2024-05-10T08:34:43Z</time>
      </trkpt>
      <trkpt lat="43.23847" lon="3.05116">
        <ele>8.5</ele>
        <time>2024-05-10T08:34:44Z</time>
      </trkpt>
      <trkpt lat="43.23831" lon="3.0512">
        <ele>7.3</ele>
        <time>2024-05-10T08:34:45Z</time>
      </trkpt>
      <trkpt lat="43.23813" lon="3.05124">
        <ele>7</ele>
        <time>2024-05-10T08:34:46Z</time>
      </trkpt>
      <trkpt lat="43.23795" lon="3.05129">
        <ele>7.6</ele>
        <time>2024-05-10T08:34:47Z</time>
      </trkpt>
      <trkpt lat="43.23779" lon="3.05136">
        <ele>8.8</ele>
        <time>2024-05-10T08:34:48Z</time>
      </trkpt>
      <trkpt lat="43.23765" lon="3.05145">
        <ele>7.7</ele>
        <time>2024-05-10T08:34:49Z</time>
      </trkpt>
      <trkpt lat="43.23755" lon="3.05154">
        <ele>7.4</ele>
        <time>2024-05-10T08:34:50Z</time>
      </trkpt>
      <trkpt lat="43.23748" lon="3.05162">
        <ele>7.5</ele>
        <time>2024-05-10T08:34:51Z</time>
      </trkpt>
      <trkpt lat="43.23742" lon="3.05171">
        <ele>6.5</ele>
        <time>2024-05-10T08:34:52Z</time>
      </trkpt>
      <trkpt lat="43.23737" lon="3.0518">
        <ele>6</ele>
        <time>2024-05-10T08:34:53Z</time>
      </trkpt>
      <trkpt lat="43.23732" lon="3.05188">
        <ele>6.4</ele>
        <time>2024-05-10T08:34:54Z</time>
      </trkpt>
      <trkpt lat="43.23728" lon="3.05196">
        <ele>7.3</ele>
        <time>2024-05-10T08:34:55Z</time>
      </trkpt>
      <trkpt lat="43.23725" lon="3.05202">
        <ele>7.5</ele>
        <time>2024-05-10T08:34:56Z</time>
      </trkpt>
      <trkpt lat="43.23722" lon="3.05208">
        <ele>7.5</ele>
        <time>2024-05-10T08:34:57Z</time>
      </trkpt>
      <trkpt lat="43.23719" lon="3.05214">
        <ele>6.9</ele>
        <time>2024-05-10T08:34:58Z</time>
      </trkpt>
      <trkpt lat="43.23717" lon="3.0522">
        <ele>6.6</ele>
        <time>2024-05-10T08:34:59Z</time>
      </trkpt>
      <trkpt lat="43.23714" lon="3.05225">
        <ele>6.4</ele>
        <time>2024-05-10T08:35:00Z</time>
      </trkpt>
      <trkpt lat="43.23711" lon="3.05231">
        <ele>6.4</ele>
        <time>2024-05-10T08:35:01Z</time>
      </trkpt>
      <trkpt lat="43.23707" lon="3.05238">
        <ele>6.6</ele>
        <time>2024-05-10T08:35:02Z</time>
      </trkpt>
      <trkpt lat="43.23704" lon="3.05245">
        <ele>7</ele>
        <time>2024-05-10T08:35:03Z</time>
      </trkpt>
      <trkpt lat="43.237" lon="3.05252">
        <ele>7.5</ele>
        <time>2024-05-10T08:35:04Z</time>
      </trkpt>
      <trkpt lat="43.23696" lon="3.05259">
        <ele>7.6</ele>
        <time>2024-05-10T08:35:05Z</time>
      </trkpt>
      <trkpt lat="43.23692" lon="3.05266">
        <ele>7.1</ele>
        <time>2024-05-10T08:35:06Z</time>
      </trkpt>
      <trkpt lat="43.23689" lon="3.05273">
        <ele>6.8</ele>
        <time>2024-05-10T08:35:07Z</time>
      </trkpt>
      <trkpt lat="43.23686" lon="3.05281">
        <ele>6.7</ele>
        <time>2024-05-10T08:35:08Z</time>
      </trkpt>
      <trkpt lat="43.23682" lon="3.05289">
        <ele>6.7</ele>
        <time>2024-05-10T08:35:09Z</time>
      </trkpt>
      <trkpt lat="43.23678" lon="3.05298">
        <ele>7</ele>
        <time>2024-05-10T08:35:10Z</time>
      </trkpt>
      <trkpt lat="43.23673" lon="3.05308">
        <ele>7.6</ele>
        <time>2024-05-10T08:35:11Z</time>
      </trkpt>
      <trkpt lat="43.23669" lon="3.05319">
        <ele>8.2</ele>
        <time>2024-05-10T08:35:12Z</time>
      </trkpt>
      <trkpt lat="43.23664" lon="3.0533">
        <ele>8.5</ele>
        <time>2024-05-10T08:35:13Z</time>
      </trkpt>
      <trkpt lat="43.2366" lon="3.05342">
        <ele>8.1</ele>
        <time>2024-05-10T08:35:14Z</time>
      </trkpt>
      <trkpt lat="43.23655" lon="3.05353">
        <ele>8.1</ele>
        <time>2024-05-10T08:35:15Z</time>
      </trkpt>
      <trkpt lat="43.2365" lon="3.05363">
        <ele>8.7</ele>
        <time>2024-05-10T08:35:16Z</time>
      </trkpt>
      <trkpt lat="43.23645" lon="3.05371">
        <ele>9.4</ele>
        <time>2024-05-10T08:35:17Z</time>
      </trkpt>
      <trkpt lat="43.23641" lon="3.05378">
        <ele>10.1</ele>
        <time>2024-05-10T08:35:18Z</time>
      </trkpt>
      <trkpt lat="43.23638" lon="3.05384">
        <ele>10.4</ele>
        <time>2024-05-10T08:35:19Z</time>
      </trkpt>
      <trkpt lat="43.23634" lon="3.0539">
        <ele>9.5</ele>
        <time>2024-05-10T08:35:20Z</time>
      </trkpt>
      <trkpt lat="43.2363" lon="3.05396">
        <ele>8.2</ele>
        <time>2024-05-10T08:35:21Z</time>
      </trkpt>
      <trkpt lat="43.23626" lon="3.05404">
        <ele>7.6</ele>
        <time>2024-05-10T08:35:22Z</time>
      </trkpt>
      <trkpt lat="43.23621" lon="3.05413">
        <ele>8</ele>
        <time>2024-05-10T08:35:23Z</time>
      </trkpt>
      <trkpt lat="43.23616" lon="3.05422">
        <ele>8.4</ele>
        <time>2024-05-10T08:35:24Z</time>
      </trkpt>
      <trkpt lat="43.23612" lon="3.05431">
        <ele>8.4</ele>
        <time>2024-05-10T08:35:25Z</time>
      </trkpt>
      <trkpt lat="43.23607" lon="3.0544">
        <ele>7.6</ele>
        <time>2024-05-10T08:35:26Z</time>
      </trkpt>
      <trkpt lat="43.23603" lon="3.05451">
        <ele>7</ele>
        <time>2024-05-10T08:35:27Z</time>
      </trkpt>
      <trkpt lat="43.23599" lon="3.05461">
        <ele>6.8</ele>
        <time>2024-05-10T08:35:28Z</time>
      </trkpt>
      <trkpt lat="43.23596" lon="3.05472">
        <ele>7.1</ele>
        <time>2024-05-10T08:35:29Z</time>
      </trkpt>
      <trkpt lat="43.23593" lon="3.05483">
        <ele>7.3</ele>
        <time>2024-05-10T08:35:30Z</time>
      </trkpt>
      <trkpt lat="43.23591" lon="3.05495">
        <ele>7.4</ele>
        <time>2024-05-10T08:35:31Z</time>
      </trkpt>
      <trkpt lat="43.23589" lon="3.05506">
        <ele>7.6</ele>
        <time>2024-05-10T08:35:32Z</time>
      </trkpt>
      <trkpt lat="43.23587" lon="3.05518">
        <ele>7.8</ele>
        <time>2024-05-10T08:35:33Z</time>
      </trkpt>
      <trkpt lat="43.23586" lon="3.05529">
        <ele>7.9</ele>
        <time>2024-05-10T08:35:34Z</time>
      </trkpt>
      <trkpt lat="43.23584" lon="3.0554">
        <ele>8</ele>
        <time>2024-05-10T08:35:35Z</time>
      </trkpt>
      <trkpt lat="43.23582" lon="3.05551">
        <ele>7.8</ele>
        <time>2024-05-10T08:35:36Z</time>
      </trkpt>
      <trkpt lat="43.23581" lon="3.05561">
        <ele>7.7</ele>
        <time>2024-05-10T08:35:37Z</time>
      </trkpt>
      <trkpt lat="43.23581" lon="3.0557">
        <ele>7.7</ele>
        <time>2024-05-10T08:35:38Z</time>
      </trkpt>
      <trkpt lat="43.23581" lon="3.05579">
        <ele>7.7</ele>
        <time>2024-05-10T08:35:39Z</time>
      </trkpt>
      <trkpt lat="43.23581" lon="3.05588">
        <ele>7.7</ele>
        <time>2024-05-10T08:35:40Z</time>
      </trkpt>
      <trkpt lat="43.23581" lon="3.05596">
        <ele>7.7</ele>
        <time>2024-05-10T08:35:41Z</time>
      </trkpt>
      <trkpt lat="43.23582" lon="3.05604">
        <ele>7.8</ele>
        <time>2024-05-10T08:35:42Z</time>
      </trkpt>
      <trkpt lat="43.23582" lon="3.05613">
        <ele>7.8</ele>
        <time>2024-05-10T08:35:43Z</time>
      </trkpt>
      <trkpt lat="43.23584" lon="3.05622">
        <ele>8</ele>
        <time>2024-05-10T08:35:44Z</time>
      </trkpt>
      <trkpt lat="43.23586" lon="3.05631">
        <ele>7.9</ele>
        <time>2024-05-10T08:35:45Z</time>
      </trkpt>
      <trkpt lat="43.2359" lon="3.05641">
        <ele>7.7</ele>
        <time>2024-05-10T08:35:46Z</time>
      </trkpt>
      <trkpt lat="43.23594" lon="3.05652">
        <ele>7.4</ele>
        <time>2024-05-10T08:35:47Z</time>
      </trkpt>
      <trkpt lat="43.236" lon="3.05661">
        <ele>7.7</ele>
        <time>2024-05-10T08:35:48Z</time>
      </trkpt>
      <trkpt lat="43.23605" lon="3.05667">
        <ele>8.3</ele>
        <time>2024-05-10T08:35:49Z</time>
      </trkpt>
      <trkpt lat="43.2361" lon="3.05673">
        <ele>9.1</ele>
        <time>2024-05-10T08:35:50Z</time>
      </trkpt>
      <trkpt lat="43.23614" lon="3.05678">
        <ele>9.3</ele>
        <time>2024-05-10T08:35:51Z</time>
      </trkpt>
      <trkpt lat="43.23618" lon="3.05684">
        <ele>9.2</ele>
        <time>2024-05-10T08:35:52Z</time>
      </trkpt>
      <trkpt lat="43.23621" lon="3.05689">
        <ele>9.2</ele>
        <time>2024-05-10T08:35:53Z</time>
      </trkpt>
      <trkpt lat="43.2362" lon="3.05695">
        <ele>9.3</ele>
        <time>2024-05-10T08:35:54Z</time>
      </trkpt>
      <trkpt lat="43.23619" lon="3.05698">
        <ele>9.1</ele>
        <time>2024-05-10T08:35:55Z</time>
      </trkpt>
      <trkpt lat="43.23618" lon="3.057">
        <ele>9</ele>
        <time>2024-05-10T08:35:56Z</time>
      </trkpt>
      <trkpt lat="43.23617" lon="3.05701">
        <ele>8.9</ele>
        <time>2024-05-10T08:35:57Z</time>
      </trkpt>
      <trkpt lat="43.23617" lon="3.05701">
        <ele>8.9</ele>
        <time>2024-05-10T08:35:58Z</time>
      </trkpt>
      <trkpt lat="43.23617" lon="3.05701">
        <ele>8.9</ele>
        <time>2024-05-10T08:35:59Z</time>
      </trkpt>
      <trkpt lat="43.23617" lon="3.05701">
        <ele>8.9</ele>
        <time>2024-05-10T08:36:00Z</time>
      </trkpt>
      <trkpt lat="43.23617" lon="3.05701">
        <ele>8.9</ele>
        <time>2024-05-10T08:36:01Z</time>
      </trkpt>
      <trkpt lat="43.23617" lon="3.05701">
        <ele>8.9</ele>
        <time>2024-05-10T08:36:02Z</time>
      </trkpt>
      <trkpt lat="43.23617" lon="3.05701">
        <ele>8.9</ele>
        <time>2024-05-10T08:36:03Z</time>
      </trkpt>
      <trkpt lat="43.23617" lon="3.05701">
        <ele>8.9</ele>
        <time>2024-05-10T08:36:04Z</time>
      </trkpt>
      <trkpt lat="43.23617" lon="3.05701">
        <ele>8.9</ele>
        <time>2024-05-10T08:36:05Z</time>
      </trkpt>
      <trkpt lat="43.23617" lon="3.05701">
        <ele>8.9</ele>
        <time>2024-05-10T08:36:06Z</time>
      </trkpt>
      <trkpt lat="43.23617" lon="3.05701">
        <ele>8.9</ele>
        <time>2024-05-10T08:36:07Z</time>
      </trkpt>
      <trkpt lat="43.23617" lon="3.05701">
        <ele>8.9</ele>
        <time>2024-05-10T08:36:08Z</time>
      </trkpt>
      <trkpt lat="43.23617" lon="3.05701">
        <ele>8.9</ele>
        <time>2024-05-10T08:36:09Z</time>
      </trkpt>
      <trkpt lat="43.23617" lon="3.05701">
        <ele>8.9</ele>
        <time>2024-05-10T08:36:10Z</time>
      </trkpt>
      <trkpt lat="43.23617" lon="3.05701">
        <ele>8.9</ele>
        <time>2024-05-10T08:36:11Z</time>
      </trkpt>
      <trkpt lat="43.23616" lon="3.05702">
        <ele>8.8</ele>
        <time>2024-05-10T08:36:12Z</time>
      </trkpt>
      <trkpt lat="43.23613" lon="3.05703">
        <ele>8.7</ele>
        <time>2024-05-10T08:36:13Z</time>
      </trkpt>
      <trkpt lat="43.23607" lon="3.05704">
        <ele>7.6</ele>
        <time>2024-05-10T08:36:14Z</time>
      </trkpt>
      <trkpt lat="43.23599" lon="3.05706">
        <ele>5.4</ele>
        <time>2024-05-10T08:36:15Z</time>
      </trkpt>
      <trkpt lat="43.23588" lon="3.05709">
        <ele>2.6</ele>
        <time>2024-05-10T08:36:16Z</time>
      </trkpt>
      <trkpt lat="43.23579" lon="3.05712">
        <ele>1.3</ele>
        <time>2024-05-10T08:36:17Z</time>
      </trkpt>
      <trkpt lat="43.23569" lon="3.05716">
        <ele>1.1</ele>
        <time>2024-05-10T08:36:18Z</time>
      </trkpt>
      <trkpt lat="43.2356" lon="3.0572">
        <ele>1</ele>
        <time>2024-05-10T08:36:19Z</time>
      </trkpt>
      <trkpt lat="43.23551" lon="3.05723">
        <ele>1.5</ele>
        <time>2024-05-10T08:36:20Z</time>
      </trkpt>
      <trkpt lat="43.23543" lon="3.05726">
        <ele>2.5</ele>
        <time>2024-05-10T08:36:21Z</time>
      </trkpt>
      <trkpt lat="43.23534" lon="3.0573">
        <ele>3.5</ele>
        <time>2024-05-10T08:36:22Z</time>
      </trkpt>
      <trkpt lat="43.23525" lon="3.05733">
        <ele>4.5</ele>
        <time>2024-05-10T08:36:23Z</time>
      </trkpt>
      <trkpt lat="43.23517" lon="3.05736">
        <ele>5.7</ele>
        <time>2024-05-10T08:36:24Z</time>
      </trkpt>
      <trkpt lat="43.23508" lon="3.0574">
        <ele>6.9</ele>
        <time>2024-05-10T08:36:25Z</time>
      </trkpt>
      <trkpt lat="43.23499" lon="3.05742">
        <ele>7.7</ele>
        <time>2024-05-10T08:36:26Z</time>
      </trkpt>
      <trkpt lat="43.2349" lon="3.05745">
        <ele>7.5</ele>
        <time>2024-05-10T08:36:27Z</time>
      </trkpt>
      <trkpt lat="43.23482" lon="3.05746">
        <ele>7.2</ele>
        <time>2024-05-10T08:36:28Z</time>
      </trkpt>
      <trkpt lat="43.23476" lon="3.05746">
        <ele>7</ele>
        <time>2024-05-10T08:36:29Z</time>
      </trkpt>
      <trkpt lat="43.23471" lon="3.05745">
        <ele>6.8</ele>
        <time>2024-05-10T08:36:30Z</time>
      </trkpt>
      <trkpt lat="43.23466" lon="3.05744">
        <ele>6.8</ele>
        <time>2024-05-10T08:36:31Z</time>
      </trkpt>
      <trkpt lat="43.23462" lon="3.05741">
        <ele>6.8</ele>
        <time>2024-05-10T08:36:32Z</time>
      </trkpt>
      <trkpt lat="43.23458" lon="3.05739">
        <ele>6.8</ele>
        <time>2024-05-10T08:36:33Z</time>
      </trkpt>
      <trkpt lat="43.23456" lon="3.05737">
        <ele>6.8</ele>
        <time>2024-05-10T08:36:34Z</time>
      </trkpt>
      <trkpt lat="43.23453" lon="3.05736">
        <ele>6.8</ele>
        <time>2024-05-10T08:36:35Z</time>
      </trkpt>
      <trkpt lat="43.23452" lon="3.05734">
        <ele>6.8</ele>
        <time>2024-05-10T08:36:36Z</time>
      </trkpt>
      <trkpt lat="43.2345" lon="3.05733">
        <ele>6.9</ele>
        <time>2024-05-10T08:36:37Z</time>
      </trkpt>
      <trkpt lat="43.23449" lon="3.05732">
        <ele>6.9</ele>
        <time>2024-05-10T08:36:38Z</time>
      </trkpt>
      <trkpt lat="43.23449" lon="3.05732">
        <ele>6.9</ele>
        <time>2024-05-10T08:36:39Z</time>
      </trkpt>
      <trkpt lat="43.23449" lon="3.05731">
        <ele>6.9</ele>
        <time>2024-05-10T08:36:40Z</time>
      </trkpt>
      <trkpt lat="43.23449" lon="3.05731">
        <ele>6.9</ele>
        <time>2024-05-10T08:36:41Z</time>
      </trkpt>
      <trkpt lat="43.23449" lon="3.05731">
        <ele>6.9</ele>
        <time>2024-05-10T08:36:42Z</time>
      </trkpt>
      <trkpt lat="43.23449" lon="3.05731">
        <ele>6.9</ele>
        <time>2024-05-10T08:36:43Z</time>
      </trkpt>
      <trkpt lat="43.23449" lon="3.05731">
        <ele>6.9</ele>
        <time>2024-05-10T08:36:44Z</time>
      </trkpt>
      <trkpt lat="43.23449" lon="3.05731">
        <ele>6.9</ele>
        <time>2024-05-10T08:36:45Z</time>
      </trkpt>
      <trkpt lat="43.23449" lon="3.05731">
        <ele>6.9</ele>
        <time>2024-05-10T08:36:46Z</time>
      </trkpt>
      <trkpt lat="43.23449" lon="3.05731">
        <ele>6.9</ele>
        <time>2024-05-10T08:36:47Z</time>
      </trkpt>
      <trkpt lat="43.23449" lon="3.05731">
        <ele>6.9</ele>
        <time>2024-05-10T08:36:48Z</time>
      </trkpt>
      <trkpt lat="43.23449" lon="3.05731">
        <ele>6.9</ele>
        <time>2024-05-10T08:36:49Z</time>
      </trkpt>
      <trkpt lat="43.23449" lon="3.05731">
        <ele>6.9</ele>
        <time>2024-05-10T08:36:50Z</time>
      </trkpt>
      <trkpt lat="43.23449" lon="3.05731">
        <ele>6.9</ele>
        <time>2024-05-10T08:36:51Z</time>
      </trkpt>
      <trkpt lat="43.23449" lon="3.05731">
        <ele>6.9</ele>
        <time>2024-05-10T08:36:52Z</time>
      </trkpt>
      <trkpt lat="43.23449" lon="3.05731">
        <ele>6.9</ele>
        <time>2024-05-10T08:36:53Z</time>
      </trkpt>
      <trkpt lat="43.23449" lon="3.05731">
        <ele>6.9</ele>
        <time>2024-05-10T08:36:54Z</time>
      </trkpt>
      <trkpt lat="43.23449" lon="3.05731">
        <ele>6.9</ele>
        <time>2024-05-10T08:36:55Z</time>
      </trkpt>
      <trkpt lat="43.23449" lon="3.05731">
        <ele>6.9</ele>
        <time>2024-05-10T08:36:56Z</time>
      </trkpt>
      <trkpt lat="43.23449" lon="3.05731">
        <ele>6.9</ele>
        <time>2024-05-10T08:36:57Z</time>
      </trkpt>
      <trkpt lat="43.23449" lon="3.05731">
        <ele>6.9</ele>
        <time>2024-05-10T08:36:58Z</time>
      </trkpt>
      <trkpt lat="43.23449" lon="3.05731">
        <ele>6.9</ele>
        <time>2024-05-10T08:36:59Z</time>
      </trkpt>
      <trkpt lat="43.23449" lon="3.05731">
        <ele>6.9</ele>
        <time>2024-05-10T08:37:00Z</time>
      </trkpt>
      <trkpt lat="43.23449" lon="3.05731">
        <ele>6.9</ele>
        <time>2024-05-10T08:37:01Z</time>
      </trkpt>
      <trkpt lat="43.23449" lon="3.05731">
        <ele>6.9</ele>
        <time>2024-05-10T08:37:02Z</time>
      </trkpt>
      <trkpt lat="43.23449" lon="3.05731">
        <ele>6.9</ele>
        <time>2024-05-10T08:37:03Z</time>
      </trkpt>
      <trkpt lat="43.23448" lon="3.0573">
        <ele>6.9</ele>
        <time>2024-05-10T08:37:04Z</time>
      </trkpt>
      <trkpt lat="43.23444" lon="3.05727">
        <ele>7</ele>
        <time>2024-05-10T08:37:05Z</time>
      </trkpt>
      <trkpt lat="43.23438" lon="3.05724">
        <ele>7</ele>
        <time>2024-05-10T08:37:06Z</time>
      </trkpt>
      <trkpt lat="43.23432" lon="3.0572">
        <ele>7</ele>
        <time>2024-05-10T08:37:07Z</time>
      </trkpt>
      <trkpt lat="43.23427" lon="3.05717">
        <ele>6.9</ele>
        <time>2024-05-10T08:37:08Z</time>
      </trkpt>
      <trkpt lat="43.23421" lon="3.05714">
        <ele>7</ele>
        <time>2024-05-10T08:37:09Z</time>
      </trkpt>
      <trkpt lat="43.23416" lon="3.0571">
        <ele>7</ele>
        <time>2024-05-10T08:37:10Z</time>
      </trkpt>
      <trkpt lat="43.2341" lon="3.05707">
        <ele>7</ele>
        <time>2024-05-10T08:37:11Z</time>
      </trkpt>
      <trkpt lat="43.23405" lon="3.05703">
        <ele>7</ele>
        <time>2024-05-10T08:37:12Z</time>
      </trkpt>
      <trkpt lat="43.234" lon="3.05699">
        <ele>7</ele>
        <time>2024-05-10T08:37:13Z</time>
      </trkpt>
      <trkpt lat="43.23395" lon="3.05696">
        <ele>7</ele>
        <time>2024-05-10T08:37:14Z</time>
      </trkpt>
      <trkpt lat="43.2339" lon="3.05691">
        <ele>7</ele>
        <time>2024-05-10T08:37:15Z</time>
      </trkpt>
      <trkpt lat="43.23386" lon="3.05687">
        <ele>7</ele>
        <time>2024-05-10T08:37:16Z</time>
      </trkpt>
      <trkpt lat="43.23383" lon="3.05683">
        <ele>7</ele>
        <time>2024-05-10T08:37:17Z</time>
      </trkpt>
      <trkpt lat="43.2338" lon="3.0568">
        <ele>7</ele>
        <time>2024-05-10T08:37:18Z</time>
      </trkpt>
      <trkpt lat="43.23377" lon="3.05677">
        <ele>7</ele>
        <time>2024-05-10T08:37:19Z</time>
      </trkpt>
      <trkpt lat="43.23375" lon="3.05675">
        <ele>7</ele>
        <time>2024-05-10T08:37:20Z</time>
      </trkpt>
      <trkpt lat="43.23373" lon="3.05672">
        <ele>7</ele>
        <time>2024-05-10T08:37:21Z</time>
      </trkpt>
      <trkpt lat="43.23371" lon="3.05671">
        <ele>7</ele>
        <time>2024-05-10T08:37:22Z</time>
      </trkpt>
      <trkpt lat="43.2337" lon="3.05669">
        <ele>7</ele>
        <time>2024-05-10T08:37:23Z</time>
      </trkpt>
      <trkpt lat="43.23369" lon="3.05667">
        <ele>7</ele>
        <time>2024-05-10T08:37:24Z</time>
      </trkpt>
      <trkpt lat="43.23368" lon="3.05665">
        <ele>7</ele>
        <time>2024-05-10T08:37:25Z</time>
      </trkpt>
      <trkpt lat="43.23368" lon="3.05664">
        <ele>7</ele>
        <time>2024-05-10T08:37:26Z</time>
      </trkpt>
      <trkpt lat="43.23367" lon="3.05662">
        <ele>7</ele>
        <time>2024-05-10T08:37:27Z</time>
      </trkpt>
      <trkpt lat="43.23366" lon="3.0566">
        <ele>7</ele>
        <time>2024-05-10T08:37:28Z</time>
      </trkpt>
      <trkpt lat="43.23364" lon="3.05658">
        <ele>7</ele>
        <time>2024-05-10T08:37:29Z</time>
      </trkpt>
      <trkpt lat="43.2336" lon="3.05653">
        <ele>7</ele>
        <time>2024-05-10T08:37:30Z</time>
      </trkpt>
      <trkpt lat="43.23354" lon="3.05646">
        <ele>7</ele>
        <time>2024-05-10T08:37:31Z</time>
      </trkpt>
      <trkpt lat="43.23348" lon="3.05638">
        <ele>7</ele>
        <time>2024-05-10T08:37:32Z</time>
      </trkpt>
      <trkpt lat="43.23342" lon="3.0563">
        <ele>7</ele>
        <time>2024-05-10T08:37:33Z</time>
      </trkpt>
      <trkpt lat="43.23336" lon="3.05623">
        <ele>7</ele>
        <time>2024-05-10T08:37:34Z</time>
      </trkpt>
      <trkpt lat="43.23334" lon="3.0562">
        <ele>7</ele>
        <time>2024-05-10T08:37:35Z</time>
      </trkpt>
      <trkpt lat="43.2333" lon="3.05617">
        <ele>7</ele>
        <time>2024-05-10T08:37:36Z</time>
      </trkpt>
      <trkpt lat="43.23328" lon="3.05617">
        <ele>7</ele>
        <time>2024-05-10T08:37:37Z</time>
      </trkpt>
      <trkpt lat="43.23326" lon="3.05619">
        <ele>7</ele>
        <time>2024-05-10T08:37:38Z</time>
      </trkpt>
      <trkpt lat="43.23326" lon="3.05621">
        <ele>7</ele>
        <time>2024-05-10T08:37:39Z</time>
      </trkpt>
      <trkpt lat="43.23326" lon="3.0562">
        <ele>7</ele>
        <time>2024-05-10T08:37:40Z</time>
      </trkpt>
      <trkpt lat="43.23326" lon="3.0562">
        <ele>7</ele>
        <time>2024-05-10T08:37:41Z</time>
      </trkpt>
      <trkpt lat="43.23325" lon="3.0562">
        <ele>7</ele>
        <time>2024-05-10T08:37:42Z</time>
      </trkpt>
      <trkpt lat="43.23325" lon="3.0562">
        <ele>7</ele>
        <time>2024-05-10T08:37:43Z</time>
      </trkpt>
      <trkpt lat="43.23325" lon="3.0562">
        <ele>7</ele>
        <time>2024-05-10T08:37:44Z</time>
      </trkpt>
      <trkpt lat="43.23325" lon="3.0562">
        <ele>7</ele>
        <time>2024-05-10T08:37:45Z</time>
      </trkpt>
      <trkpt lat="43.23325" lon="3.05621">
        <ele>7</ele>
        <time>2024-05-10T08:37:46Z</time>
      </trkpt>
      <trkpt lat="43.23324" lon="3.05624">
        <ele>7</ele>
        <time>2024-05-10T08:37:47Z</time>
      </trkpt>
      <trkpt lat="43.23323" lon="3.0563">
        <ele>7</ele>
        <time>2024-05-10T08:37:48Z</time>
      </trkpt>
      <trkpt lat="43.2332" lon="3.05638">
        <ele>7</ele>
        <time>2024-05-10T08:37:49Z</time>
      </trkpt>
      <trkpt lat="43.23317" lon="3.05646">
        <ele>7</ele>
        <time>2024-05-10T08:37:50Z</time>
      </trkpt>
      <trkpt lat="43.23315" lon="3.05652">
        <ele>7</ele>
        <time>2024-05-10T08:37:51Z</time>
      </trkpt>
      <trkpt lat="43.23312" lon="3.05659">
        <ele>7</ele>
        <time>2024-05-10T08:37:52Z</time>
      </trkpt>
      <trkpt lat="43.23311" lon="3.05665">
        <ele>7</ele>
        <time>2024-05-10T08:37:53Z</time>
      </trkpt>
      <trkpt lat="43.23309" lon="3.05671">
        <ele>7</ele>
        <time>2024-05-10T08:37:54Z</time>
      </trkpt>
      <trkpt lat="43.23308" lon="3.05678">
        <ele>7</ele>
        <time>2024-05-10T08:37:55Z</time>
      </trkpt>
      <trkpt lat="43.23306" lon="3.05685">
        <ele>7</ele>
        <time>2024-05-10T08:37:56Z</time>
      </trkpt>
      <trkpt lat="43.23304" lon="3.05692">
        <ele>7</ele>
        <time>2024-05-10T08:37:57Z</time>
      </trkpt>
      <trkpt lat="43.23303" lon="3.05699">
        <ele>7</ele>
        <time>2024-05-10T08:37:58Z</time>
      </trkpt>
      <trkpt lat="43.23301" lon="3.05707">
        <ele>7</ele>
        <time>2024-05-10T08:37:59Z</time>
      </trkpt>
      <trkpt lat="43.233" lon="3.05713">
        <ele>7</ele>
        <time>2024-05-10T08:38:00Z</time>
      </trkpt>
      <trkpt lat="43.23297" lon="3.0572">
        <ele>7</ele>
        <time>2024-05-10T08:38:01Z</time>
      </trkpt>
      <trkpt lat="43.23296" lon="3.05727">
        <ele>6.8</ele>
        <time>2024-05-10T08:38:02Z</time>
      </trkpt>
      <trkpt lat="43.23294" lon="3.05734">
        <ele>6.6</ele>
        <time>2024-05-10T08:38:03Z</time>
      </trkpt>
      <trkpt lat="43.23293" lon="3.05742">
        <ele>6.3</ele>
        <time>2024-05-10T08:38:04Z</time>
      </trkpt>
      <trkpt lat="43.23291" lon="3.0575">
        <ele>6</ele>
        <time>2024-05-10T08:38:05Z</time>
      </trkpt>
      <trkpt lat="43.23289" lon="3.05757">
        <ele>6</ele>
        <time>2024-05-10T08:38:06Z</time>
      </trkpt>
      <trkpt lat="43.23287" lon="3.05764">
        <ele>6</ele>
        <time>2024-05-10T08:38:07Z</time>
      </trkpt>
      <trkpt lat="43.23286" lon="3.0577">
        <ele>6</ele>
        <time>2024-05-10T08:38:08Z</time>
      </trkpt>
      <trkpt lat="43.23285" lon="3.05775">
        <ele>6</ele>
        <time>2024-05-10T08:38:09Z</time>
      </trkpt>
      <trkpt lat="43.23283" lon="3.0578">
        <ele>6</ele>
        <time>2024-05-10T08:38:10Z</time>
      </trkpt>
      <trkpt lat="43.23282" lon="3.05784">
        <ele>6</ele>
        <time>2024-05-10T08:38:11Z</time>
      </trkpt>
      <trkpt lat="43.2328" lon="3.05788">
        <ele>6</ele>
        <time>2024-05-10T08:38:12Z</time>
      </trkpt>
      <trkpt lat="43.23279" lon="3.05793">
        <ele>6</ele>
        <time>2024-05-10T08:38:13Z</time>
      </trkpt>
      <trkpt lat="43.23278" lon="3.05798">
        <ele>6</ele>
        <time>2024-05-10T08:38:14Z</time>
      </trkpt>
      <trkpt lat="43.23279" lon="3.05804">
        <ele>6</ele>
        <time>2024-05-10T08:38:15Z</time>
      </trkpt>
      <trkpt lat="43.23282" lon="3.0581">
        <ele>6</ele>
        <time>2024-05-10T08:38:16Z</time>
      </trkpt>
      <trkpt lat="43.23286" lon="3.05815">
        <ele>6</ele>
        <time>2024-05-10T08:38:17Z</time>
      </trkpt>
      <trkpt lat="43.23291" lon="3.05819">
        <ele>6</ele>
        <time>2024-05-10T08:38:18Z</time>
      </trkpt>
      <trkpt lat="43.23295" lon="3.05824">
        <ele>6</ele>
        <time>2024-05-10T08:38:19Z</time>
      </trkpt>
      <trkpt lat="43.23299" lon="3.05827">
        <ele>6</ele>
        <time>2024-05-10T08:38:20Z</time>
      </trkpt>
      <trkpt lat="43.23303" lon="3.05832">
        <ele>6</ele>
        <time>2024-05-10T08:38:21Z</time>
      </trkpt>
      <trkpt lat="43.23307" lon="3.05837">
        <ele>6</ele>
        <time>2024-05-10T08:38:22Z</time>
      </trkpt>
      <trkpt lat="43.23312" lon="3.05843">
        <ele>6</ele>
        <time>2024-05-10T08:38:23Z</time>
      </trkpt>
      <trkpt lat="43.23316" lon="3.05848">
        <ele>6</ele>
        <time>2024-05-10T08:38:24Z</time>
      </trkpt>
      <trkpt lat="43.23321" lon="3.05853">
        <ele>6</ele>
        <time>2024-05-10T08:38:25Z</time>
      </trkpt>
      <trkpt lat="43.23326" lon="3.05858">
        <ele>6</ele>
        <time>2024-05-10T08:38:26Z</time>
      </trkpt>
      <trkpt lat="43.23331" lon="3.05863">
        <ele>6</ele>
        <time>2024-05-10T08:38:27Z</time>
      </trkpt>
      <trkpt lat="43.23335" lon="3.05868">
        <ele>6</ele>
        <time>2024-05-10T08:38:28Z</time>
      </trkpt>
      <trkpt lat="43.2334" lon="3.0587">
        <ele>6</ele>
        <time>2024-05-10T08:38:29Z</time>
      </trkpt>
      <trkpt lat="43.23345" lon="3.05873">
        <ele>6</ele>
        <time>2024-05-10T08:38:30Z</time>
      </trkpt>
      <trkpt lat="43.23349" lon="3.05874">
        <ele>6</ele>
        <time>2024-05-10T08:38:31Z</time>
      </trkpt>
      <trkpt lat="43.23353" lon="3.05874">
        <ele>6</ele>
        <time>2024-05-10T08:38:32Z</time>
      </trkpt>
      <trkpt lat="43.23357" lon="3.05874">
        <ele>6</ele>
        <time>2024-05-10T08:38:33Z</time>
      </trkpt>
      <trkpt lat="43.23362" lon="3.05874">
        <ele>6</ele>
        <time>2024-05-10T08:38:34Z</time>
      </trkpt>
      <trkpt lat="43.23366" lon="3.05873">
        <ele>5.9</ele>
        <time>2024-05-10T08:38:35Z</time>
      </trkpt>
      <trkpt lat="43.2337" lon="3.05872">
        <ele>5.8</ele>
        <time>2024-05-10T08:38:36Z</time>
      </trkpt>
      <trkpt lat="43.23375" lon="3.05872">
        <ele>5.7</ele>
        <time>2024-05-10T08:38:37Z</time>
      </trkpt>
      <trkpt lat="43.23378" lon="3.05871">
        <ele>5.6</ele>
        <time>2024-05-10T08:38:38Z</time>
      </trkpt>
      <trkpt lat="43.23382" lon="3.05871">
        <ele>5.5</ele>
        <time>2024-05-10T08:38:39Z</time>
      </trkpt>
      <trkpt lat="43.23385" lon="3.0587">
        <ele>5.4</ele>
        <time>2024-05-10T08:38:40Z</time>
      </trkpt>
      <trkpt lat="43.23387" lon="3.0587">
        <ele>5.4</ele>
        <time>2024-05-10T08:38:41Z</time>
      </trkpt>
      <trkpt lat="43.23389" lon="3.0587">
        <ele>5.3</ele>
        <time>2024-05-10T08:38:42Z</time>
      </trkpt>
      <trkpt lat="43.23391" lon="3.0587">
        <ele>5.4</ele>
        <time>2024-05-10T08:38:43Z</time>
      </trkpt>
      <trkpt lat="43.23394" lon="3.05871">
        <ele>5.5</ele>
        <time>2024-05-10T08:38:44Z</time>
      </trkpt>
      <trkpt lat="43.23396" lon="3.05872">
        <ele>5.5</ele>
        <time>2024-05-10T08:38:45Z</time>
      </trkpt>
      <trkpt lat="43.23398" lon="3.05874">
        <ele>5.6</ele>
        <time>2024-05-10T08:38:46Z</time>
      </trkpt>
      <trkpt lat="43.23399" lon="3.05878">
        <ele>5.8</ele>
        <time>2024-05-10T08:38:47Z</time>
      </trkpt>
      <trkpt lat="43.234" lon="3.05883">
        <ele>5.9</ele>
        <time>2024-05-10T08:38:48Z</time>
      </trkpt>
      <trkpt lat="43.234" lon="3.05887">
        <ele>6</ele>
        <time>2024-05-10T08:38:49Z</time>
      </trkpt>
      <trkpt lat="43.234" lon="3.05892">
        <ele>6</ele>
        <time>2024-05-10T08:38:50Z</time>
      </trkpt>
      <trkpt lat="43.234" lon="3.05896">
        <ele>6</ele>
        <time>2024-05-10T08:38:51Z</time>
      </trkpt>
      <trkpt lat="43.23399" lon="3.059">
        <ele>6</ele>
        <time>2024-05-10T08:38:52Z</time>
      </trkpt>
      <trkpt lat="43.23399" lon="3.05905">
        <ele>6</ele>
        <time>2024-05-10T08:38:53Z</time>
      </trkpt>
      <trkpt lat="43.23399" lon="3.05912">
        <ele>6</ele>
        <time>2024-05-10T08:38:54Z</time>
      </trkpt>
      <trkpt lat="43.23399" lon="3.05919">
        <ele>6</ele>
        <time>2024-05-10T08:38:55Z</time>
      </trkpt>
      <trkpt lat="43.23399" lon="3.05926">
        <ele>5.9</ele>
        <time>2024-05-10T08:38:56Z</time>
      </trkpt>
      <trkpt lat="43.23399" lon="3.05934">
        <ele>5.8</ele>
        <time>2024-05-10T08:38:57Z</time>
      </trkpt>
      <trkpt lat="43.23399" lon="3.05942">
        <ele>5.7</ele>
        <time>2024-05-10T08:38:58Z</time>
      </trkpt>
      <trkpt lat="43.234" lon="3.05951">
        <ele>5.7</ele>
        <time>2024-05-10T08:38:59Z</time>
      </trkpt>
      <trkpt lat="43.23399" lon="3.05958">
        <ele>5.8</ele>
        <time>2024-05-10T08:39:00Z</time>
      </trkpt>
      <trkpt lat="43.23399" lon="3.05965">
        <ele>5.9</ele>
        <time>2024-05-10T08:39:01Z</time>
      </trkpt>
      <trkpt lat="43.23398" lon="3.05971">
        <ele>6</ele>
        <time>2024-05-10T08:39:02Z</time>
      </trkpt>
      <trkpt lat="43.23398" lon="3.05977">
        <ele>6</ele>
        <time>2024-05-10T08:39:03Z</time>
      </trkpt>
      <trkpt lat="43.23396" lon="3.05984">
        <ele>6</ele>
        <time>2024-05-10T08:39:04Z</time>
      </trkpt>
      <trkpt lat="43.23395" lon="3.05991">
        <ele>6</ele>
        <time>2024-05-10T08:39:05Z</time>
      </trkpt>
      <trkpt lat="43.23393" lon="3.05999">
        <ele>6</ele>
        <time>2024-05-10T08:39:06Z</time>
      </trkpt>
      <trkpt lat="43.23391" lon="3.06008">
        <ele>6</ele>
        <time>2024-05-10T08:39:07Z</time>
      </trkpt>
      <trkpt lat="43.23389" lon="3.06017">
        <ele>6</ele>
        <time>2024-05-10T08:39:08Z</time>
      </trkpt>
      <trkpt lat="43.23387" lon="3.06025">
        <ele>6</ele>
        <time>2024-05-10T08:39:09Z</time>
      </trkpt>
      <trkpt lat="43.23386" lon="3.06033">
        <ele>6</ele>
        <time>2024-05-10T08:39:10Z</time>
      </trkpt>
      <trkpt lat="43.23385" lon="3.06041">
        <ele>6</ele>
        <time>2024-05-10T08:39:11Z</time>
      </trkpt>
      <trkpt lat="43.23384" lon="3.06049">
        <ele>6</ele>
        <time>2024-05-10T08:39:12Z</time>
      </trkpt>
      <trkpt lat="43.23384" lon="3.06058">
        <ele>6</ele>
        <time>2024-05-10T08:39:13Z</time>
      </trkpt>
      <trkpt lat="43.23385" lon="3.06066">
        <ele>6</ele>
        <time>2024-05-10T08:39:14Z</time>
      </trkpt>
      <trkpt lat="43.23386" lon="3.06075">
        <ele>6</ele>
        <time>2024-05-10T08:39:15Z</time>
      </trkpt>
      <trkpt lat="43.23387" lon="3.06085">
        <ele>6</ele>
        <time>2024-05-10T08:39:16Z</time>
      </trkpt>
      <trkpt lat="43.23389" lon="3.06094">
        <ele>6</ele>
        <time>2024-05-10T08:39:17Z</time>
      </trkpt>
      <trkpt lat="43.2339" lon="3.06105">
        <ele>6</ele>
        <time>2024-05-10T08:39:18Z</time>
      </trkpt>
      <trkpt lat="43.23391" lon="3.06116">
        <ele>6</ele>
        <time>2024-05-10T08:39:19Z</time>
      </trkpt>
      <trkpt lat="43.23393" lon="3.06126">
        <ele>6</ele>
        <time>2024-05-10T08:39:20Z</time>
      </trkpt>
      <trkpt lat="43.23394" lon="3.06137">
        <ele>6</ele>
        <time>2024-05-10T08:39:21Z</time>
      </trkpt>
      <trkpt lat="43.23395" lon="3.06148">
        <ele>6</ele>
        <time>2024-05-10T08:39:22Z</time>
      </trkpt>
      <trkpt lat="43.23396" lon="3.06159">
        <ele>6</ele>
        <time>2024-05-10T08:39:23Z</time>
      </trkpt>
      <trkpt lat="43.23397" lon="3.06171">
        <ele>6</ele>
        <time>2024-05-10T08:39:24Z</time>
      </trkpt>
      <trkpt lat="43.23398" lon="3.06183">
        <ele>6</ele>
        <time>2024-05-10T08:39:25Z</time>
      </trkpt>
      <trkpt lat="43.23399" lon="3.06195">
        <ele>6</ele>
        <time>2024-05-10T08:39:26Z</time>
      </trkpt>
      <trkpt lat="43.23399" lon="3.06207">
        <ele>6</ele>
        <time>2024-05-10T08:39:27Z</time>
      </trkpt>
      <trkpt lat="43.23399" lon="3.06218">
        <ele>6</ele>
        <time>2024-05-10T08:39:28Z</time>
      </trkpt>
      <trkpt lat="43.23399" lon="3.06229">
        <ele>6</ele>
        <time>2024-05-10T08:39:29Z</time>
      </trkpt>
      <trkpt lat="43.234" lon="3.06239">
        <ele>6</ele>
        <time>2024-05-10T08:39:30Z</time>
      </trkpt>
      <trkpt lat="43.234" lon="3.06249">
        <ele>6</ele>
        <time>2024-05-10T08:39:31Z</time>
      </trkpt>
      <trkpt lat="43.23401" lon="3.06259">
        <ele>6</ele>
        <time>2024-05-10T08:39:32Z</time>
      </trkpt>
      <trkpt lat="43.23402" lon="3.06268">
        <ele>6</ele>
        <time>2024-05-10T08:39:33Z</time>
      </trkpt>
      <trkpt lat="43.23404" lon="3.06276">
        <ele>6</ele>
        <time>2024-05-10T08:39:34Z</time>
      </trkpt>
      <trkpt lat="43.23405" lon="3.06285">
        <ele>6</ele>
        <time>2024-05-10T08:39:35Z</time>
      </trkpt>
      <trkpt lat="43.23407" lon="3.06294">
        <ele>6</ele>
        <time>2024-05-10T08:39:36Z</time>
      </trkpt>
      <trkpt lat="43.23409" lon="3.06302">
        <ele>6</ele>
        <time>2024-05-10T08:39:37Z</time>
      </trkpt>
      <trkpt lat="43.23409" lon="3.06307">
        <ele>6</ele>
        <time>2024-05-10T08:39:38Z</time>
      </trkpt>
      <trkpt lat="43.23409" lon="3.0631">
        <ele>6</ele>
        <time>2024-05-10T08:39:39Z</time>
      </trkpt>
      <trkpt lat="43.2341" lon="3.06313">
        <ele>6</ele>
        <time>2024-05-10T08:39:40Z</time>
      </trkpt>
      <trkpt lat="43.2341" lon="3.06317">
        <ele>6</ele>
        <time>2024-05-10T08:39:41Z</time>
      </trkpt>
      <trkpt lat="43.23411" lon="3.0632">
        <ele>6</ele>
        <time>2024-05-10T08:39:42Z</time>
      </trkpt>
      <trkpt lat="43.23412" lon="3.06323">
        <ele>6</ele>
        <time>2024-05-10T08:39:43Z</time>
      </trkpt>
      <trkpt lat="43.23412" lon="3.06326">
        <ele>6</ele>
        <time>2024-05-10T08:39:44Z</time>
      </trkpt>
      <trkpt lat="43.23413" lon="3.06329">
        <ele>6</ele>
        <time>2024-05-10T08:39:45Z</time>
      </trkpt>
      <trkpt lat="43.23414" lon="3.06331">
        <ele>6</ele>
        <time>2024-05-10T08:39:46Z</time>
      </trkpt>
      <trkpt lat="43.23414" lon="3.06334">
        <ele>6</ele>
        <time>2024-05-10T08:39:47Z</time>
      </trkpt>
      <trkpt lat="43.23414" lon="3.06336">
        <ele>6</ele>
        <time>2024-05-10T08:39:48Z</time>
      </trkpt>
      <trkpt lat="43.23414" lon="3.06339">
        <ele>6</ele>
        <time>2024-05-10T08:39:49Z</time>
      </trkpt>
      <trkpt lat="43.23415" lon="3.06341">
        <ele>6</ele>
        <time>2024-05-10T08:39:50Z</time>
      </trkpt>
      <trkpt lat="43.23415" lon="3.06344">
        <ele>6</ele>
        <time>2024-05-10T08:39:51Z</time>
      </trkpt>
      <trkpt lat="43.23416" lon="3.06346">
        <ele>6</ele>
        <time>2024-05-10T08:39:52Z</time>
      </trkpt>
      <trkpt lat="43.23416" lon="3.06347">
        <ele>6</ele>
        <time>2024-05-10T08:39:53Z</time>
      </trkpt>
      <trkpt lat="43.23416" lon="3.06348">
        <ele>6</ele>
        <time>2024-05-10T08:39:54Z</time>
      </trkpt>
      <trkpt lat="43.23417" lon="3.06348">
        <ele>6</ele>
        <time>2024-05-10T08:39:55Z</time>
      </trkpt>
      <trkpt lat="43.23417" lon="3.06348">
        <ele>6</ele>
        <time>2024-05-10T08:39:56Z</time>
      </trkpt>
      <trkpt lat="43.23417" lon="3.06349">
        <ele>6</ele>
        <time>2024-05-10T08:39:57Z</time>
      </trkpt>
      <trkpt lat="43.23418" lon="3.06352">
        <ele>6</ele>
        <time>2024-05-10T08:39:58Z</time>
      </trkpt>
      <trkpt lat="43.23422" lon="3.06362">
        <ele>6</ele>
        <time>2024-05-10T08:39:59Z</time>
      </trkpt>
      <trkpt lat="43.23424" lon="3.06371">
        <ele>6</ele>
        <time>2024-05-10T08:40:00Z</time>
      </trkpt>
      <trkpt lat="43.23427" lon="3.06381">
        <ele>6</ele>
        <time>2024-05-10T08:40:01Z</time>
      </trkpt>
      <trkpt lat="43.23429" lon="3.06391">
        <ele>6</ele>
        <time>2024-05-10T08:40:02Z</time>
      </trkpt>
      <trkpt lat="43.23432" lon="3.06403">
        <ele>6</ele>
        <time>2024-05-10T08:40:03Z</time>
      </trkpt>
      <trkpt lat="43.23434" lon="3.06417">
        <ele>6</ele>
        <time>2024-05-10T08:40:04Z</time>
      </trkpt>
      <trkpt lat="43.23435" lon="3.06431">
        <ele>6</ele>
        <time>2024-05-10T08:40:05Z</time>
      </trkpt>
      <trkpt lat="43.23436" lon="3.06446">
        <ele>6</ele>
        <time>2024-05-10T08:40:06Z</time>
      </trkpt>
      <trkpt lat="43.23437" lon="3.06461">
        <ele>6</ele>
        <time>2024-05-10T08:40:07Z</time>
      </trkpt>
      <trkpt lat="43.23437" lon="3.06476">
        <ele>6</ele>
        <time>2024-05-10T08:40:08Z</time>
      </trkpt>
      <trkpt lat="43.23438" lon="3.06492">
        <ele>6</ele>
        <time>2024-05-10T08:40:09Z</time>
      </trkpt>
      <trkpt lat="43.23439" lon="3.06507">
        <ele>6</ele>
        <time>2024-05-10T08:40:10Z</time>
      </trkpt>
      <trkpt lat="43.23439" lon="3.06523">
        <ele>6</ele>
        <time>2024-05-10T08:40:11Z</time>
      </trkpt>
      <trkpt lat="43.2344" lon="3.06538">
        <ele>6</ele>
        <time>2024-05-10T08:40:12Z</time>
      </trkpt>
      <trkpt lat="43.2344" lon="3.06552">
        <ele>6</ele>
        <time>2024-05-10T08:40:13Z</time>
      </trkpt>
      <trkpt lat="43.23441" lon="3.06566">
        <ele>6</ele>
        <time>2024-05-10T08:40:14Z</time>
      </trkpt>
      <trkpt lat="43.23441" lon="3.06579">
        <ele>6</ele>
        <time>2024-05-10T08:40:15Z</time>
      </trkpt>
      <trkpt lat="43.23442" lon="3.06592">
        <ele>6</ele>
        <time>2024-05-10T08:40:16Z</time>
      </trkpt>
      <trkpt lat="43.23442" lon="3.06605">
        <ele>6</ele>
        <time>2024-05-10T08:40:17Z</time>
      </trkpt>
      <trkpt lat="43.23443" lon="3.06617">
        <ele>6</ele>
        <time>2024-05-10T08:40:18Z</time>
      </trkpt>
      <trkpt lat="43.23443" lon="3.06628">
        <ele>6</ele>
        <time>2024-05-10T08:40:19Z</time>
      </trkpt>
      <trkpt lat="43.23443" lon="3.06639">
        <ele>6</ele>
        <time>2024-05-10T08:40:20Z</time>
      </trkpt>
      <trkpt lat="43.23444" lon="3.06649">
        <ele>6</ele>
        <time>2024-05-10T08:40:21Z</time>
      </trkpt>
      <trkpt lat="43.23444" lon="3.0666">
        <ele>6</ele>
        <time>2024-05-10T08:40:22Z</time>
      </trkpt>
      <trkpt lat="43.23445" lon="3.06669">
        <ele>6</ele>
        <time>2024-05-10T08:40:23Z</time>
      </trkpt>
      <trkpt lat="43.23445" lon="3.06679">
        <ele>6</ele>
        <time>2024-05-10T08:40:24Z</time>
      </trkpt>
      <trkpt lat="43.23444" lon="3.0669">
        <ele>6</ele>
        <time>2024-05-10T08:40:25Z</time>
      </trkpt>
      <trkpt lat="43.23443" lon="3.06702">
        <ele>5.9</ele>
        <time>2024-05-10T08:40:26Z</time>
      </trkpt>
      <trkpt lat="43.23441" lon="3.06715">
        <ele>5.9</ele>
        <time>2024-05-10T08:40:27Z</time>
      </trkpt>
      <trkpt lat="43.23437" lon="3.06728">
        <ele>5.8</ele>
        <time>2024-05-10T08:40:28Z</time>
      </trkpt>
      <trkpt lat="43.23432" lon="3.06741">
        <ele>5.9</ele>
        <time>2024-05-10T08:40:29Z</time>
      </trkpt>
      <trkpt lat="43.23427" lon="3.06755">
        <ele>6</ele>
        <time>2024-05-10T08:40:30Z</time>
      </trkpt>
      <trkpt lat="43.23421" lon="3.06768">
        <ele>6</ele>
        <time>2024-05-10T08:40:31Z</time>
      </trkpt>
      <trkpt lat="43.23416" lon="3.06781">
        <ele>6</ele>
        <time>2024-05-10T08:40:32Z</time>
      </trkpt>
      <trkpt lat="43.23411" lon="3.06793">
        <ele>6</ele>
        <time>2024-05-10T08:40:33Z</time>
      </trkpt>
      <trkpt lat="43.23406" lon="3.06805">
        <ele>6</ele>
        <time>2024-05-10T08:40:34Z</time>
      </trkpt>
      <trkpt lat="43.23401" lon="3.06817">
        <ele>6</ele>
        <time>2024-05-10T08:40:35Z</time>
      </trkpt>
      <trkpt lat="43.23396" lon="3.06828">
        <ele>6</ele>
        <time>2024-05-10T08:40:36Z</time>
      </trkpt>
      <trkpt lat="43.23392" lon="3.06838">
        <ele>6</ele>
        <time>2024-05-10T08:40:37Z</time>
      </trkpt>
      <trkpt lat="43.23388" lon="3.06848">
        <ele>6</ele>
        <time>2024-05-10T08:40:38Z</time>
      </trkpt>
      <trkpt lat="43.23385" lon="3.06855">
        <ele>6</ele>
        <time>2024-05-10T08:40:39Z</time>
      </trkpt>
      <trkpt lat="43.23383" lon="3.06862">
        <ele>6</ele>
        <time>2024-05-10T08:40:40Z</time>
      </trkpt>
      <trkpt lat="43.23381" lon="3.06868">
        <ele>5.8</ele>
        <time>2024-05-10T08:40:41Z</time>
      </trkpt>
      <trkpt lat="43.23379" lon="3.06873">
        <ele>5.7</ele>
        <time>2024-05-10T08:40:42Z</time>
      </trkpt>
      <trkpt lat="43.23378" lon="3.06879">
        <ele>5.6</ele>
        <time>2024-05-10T08:40:43Z</time>
      </trkpt>
      <trkpt lat="43.23376" lon="3.06884">
        <ele>5.6</ele>
        <time>2024-05-10T08:40:44Z</time>
      </trkpt>
      <trkpt lat="43.23375" lon="3.06889">
        <ele>5.5</ele>
        <time>2024-05-10T08:40:45Z</time>
      </trkpt>
      <trkpt lat="43.23373" lon="3.06895">
        <ele>5.7</ele>
        <time>2024-05-10T08:40:46Z</time>
      </trkpt>
      <trkpt lat="43.23372" lon="3.069">
        <ele>5.8</ele>
        <time>2024-05-10T08:40:47Z</time>
      </trkpt>
      <trkpt lat="43.23371" lon="3.06905">
        <ele>5.9</ele>
        <time>2024-05-10T08:40:48Z</time>
      </trkpt>
      <trkpt lat="43.2337" lon="3.06911">
        <ele>5.9</ele>
        <time>2024-05-10T08:40:49Z</time>
      </trkpt>
      <trkpt lat="43.23369" lon="3.0692">
        <ele>6</ele>
        <time>2024-05-10T08:40:50Z</time>
      </trkpt>
      <trkpt lat="43.23367" lon="3.06932">
        <ele>6</ele>
        <time>2024-05-10T08:40:51Z</time>
      </trkpt>
      <trkpt lat="43.23366" lon="3.06946">
        <ele>6</ele>
        <time>2024-05-10T08:40:52Z</time>
      </trkpt>
      <trkpt lat="43.23363" lon="3.0696">
        <ele>6</ele>
        <time>2024-05-10T08:40:53Z</time>
      </trkpt>
      <trkpt lat="43.23361" lon="3.06973">
        <ele>6</ele>
        <time>2024-05-10T08:40:54Z</time>
      </trkpt>
      <trkpt lat="43.2336" lon="3.06986">
        <ele>6</ele>
        <time>2024-05-10T08:40:55Z</time>
      </trkpt>
      <trkpt lat="43.23358" lon="3.07">
        <ele>5.9</ele>
        <time>2024-05-10T08:40:56Z</time>
      </trkpt>
      <trkpt lat="43.23356" lon="3.07014">
        <ele>5.9</ele>
        <time>2024-05-10T08:40:57Z</time>
      </trkpt>
      <trkpt lat="43.23354" lon="3.07028">
        <ele>6</ele>
        <time>2024-05-10T08:40:58Z</time>
      </trkpt>
      <trkpt lat="43.23352" lon="3.07042">
        <ele>6</ele>
        <time>2024-05-10T08:40:59Z</time>
      </trkpt>
      <trkpt lat="43.23349" lon="3.07057">
        <ele>6</ele>
        <time>2024-05-10T08:41:00Z</time>
      </trkpt>
      <trkpt lat="43.23347" lon="3.07072">
        <ele>5.7</ele>
        <time>2024-05-10T08:41:01Z</time>
      </trkpt>
      <trkpt lat="43.23345" lon="3.07089">
        <ele>5.5</ele>
        <time>2024-05-10T08:41:02Z</time>
      </trkpt>
      <trkpt lat="43.23342" lon="3.07105">
        <ele>5.8</ele>
        <time>2024-05-10T08:41:03Z</time>
      </trkpt>
      <trkpt lat="43.2334" lon="3.0712">
        <ele>6</ele>
        <time>2024-05-10T08:41:04Z</time>
      </trkpt>
      <trkpt lat="43.23338" lon="3.07136">
        <ele>6</ele>
        <time>2024-05-10T08:41:05Z</time>
      </trkpt>
      <trkpt lat="43.23337" lon="3.07151">
        <ele>6</ele>
        <time>2024-05-10T08:41:06Z</time>
      </trkpt>
      <trkpt lat="43.23336" lon="3.07166">
        <ele>6</ele>
        <time>2024-05-10T08:41:07Z</time>
      </trkpt>
      <trkpt lat="43.23335" lon="3.07181">
        <ele>6.5</ele>
        <time>2024-05-10T08:41:08Z</time>
      </trkpt>
      <trkpt lat="43.23335" lon="3.07196">
        <ele>6.9</ele>
        <time>2024-05-10T08:41:09Z</time>
      </trkpt>
      <trkpt lat="43.23335" lon="3.07211">
        <ele>6.9</ele>
        <time>2024-05-10T08:41:10Z</time>
      </trkpt>
      <trkpt lat="43.23337" lon="3.07224">
        <ele>6.8</ele>
        <time>2024-05-10T08:41:11Z</time>
      </trkpt>
      <trkpt lat="43.23339" lon="3.07237">
        <ele>6.4</ele>
        <time>2024-05-10T08:41:12Z</time>
      </trkpt>
      <trkpt lat="43.23341" lon="3.07251">
        <ele>6</ele>
        <time>2024-05-10T08:41:13Z</time>
      </trkpt>
      <trkpt lat="43.23343" lon="3.07264">
        <ele>6</ele>
        <time>2024-05-10T08:41:14Z</time>
      </trkpt>
      <trkpt lat="43.23346" lon="3.07278">
        <ele>6</ele>
        <time>2024-05-10T08:41:15Z</time>
      </trkpt>
      <trkpt lat="43.23348" lon="3.07291">
        <ele>6</ele>
        <time>2024-05-10T08:41:16Z</time>
      </trkpt>
      <trkpt lat="43.23349" lon="3.07303">
        <ele>6</ele>
        <time>2024-05-10T08:41:17Z</time>
      </trkpt>
      <trkpt lat="43.23349" lon="3.07315">
        <ele>6.4</ele>
        <time>2024-05-10T08:41:18Z</time>
      </trkpt>
      <trkpt lat="43.23348" lon="3.07328">
        <ele>6.9</ele>
        <time>2024-05-10T08:41:19Z</time>
      </trkpt>
      <trkpt lat="43.23347" lon="3.07341">
        <ele>6.8</ele>
        <time>2024-05-10T08:41:20Z</time>
      </trkpt>
      <trkpt lat="43.23345" lon="3.07356">
        <ele>6.5</ele>
        <time>2024-05-10T08:41:21Z</time>
      </trkpt>
      <trkpt lat="43.23344" lon="3.07372">
        <ele>6.6</ele>
        <time>2024-05-10T08:41:22Z</time>
      </trkpt>
      <trkpt lat="43.23343" lon="3.07389">
        <ele>7</ele>
        <time>2024-05-10T08:41:23Z</time>
      </trkpt>
      <trkpt lat="43.23343" lon="3.07407">
        <ele>6.6</ele>
        <time>2024-05-10T08:41:24Z</time>
      </trkpt>
      <trkpt lat="43.23344" lon="3.07428">
        <ele>6.5</ele>
        <time>2024-05-10T08:41:25Z</time>
      </trkpt>
      <trkpt lat="43.23345" lon="3.07453">
        <ele>6.2</ele>
        <time>2024-05-10T08:41:26Z</time>
      </trkpt>
      <trkpt lat="43.23345" lon="3.07481">
        <ele>5.4</ele>
        <time>2024-05-10T08:41:27Z</time>
      </trkpt>
      <trkpt lat="43.23346" lon="3.07509">
        <ele>5.5</ele>
        <time>2024-05-10T08:41:28Z</time>
      </trkpt>
      <trkpt lat="43.23346" lon="3.07533">
        <ele>5.5</ele>
        <time>2024-05-10T08:41:29Z</time>
      </trkpt>
      <trkpt lat="43.23346" lon="3.0755">
        <ele>5.5</ele>
        <time>2024-05-10T08:41:30Z</time>
      </trkpt>
      <trkpt lat="43.23346" lon="3.07561">
        <ele>5.5</ele>
        <time>2024-05-10T08:41:31Z</time>
      </trkpt>
      <trkpt lat="43.23346" lon="3.0757">
        <ele>5.5</ele>
        <time>2024-05-10T08:41:32Z</time>
      </trkpt>
      <trkpt lat="43.23347" lon="3.07577">
        <ele>5.5</ele>
        <time>2024-05-10T08:41:33Z</time>
      </trkpt>
      <trkpt lat="43.23347" lon="3.07584">
        <ele>5.5</ele>
        <time>2024-05-10T08:41:34Z</time>
      </trkpt>
      <trkpt lat="43.23347" lon="3.0759">
        <ele>5.5</ele>
        <time>2024-05-10T08:41:35Z</time>
      </trkpt>
      <trkpt lat="43.23347" lon="3.07597">
        <ele>5.5</ele>
        <time>2024-05-10T08:41:36Z</time>
      </trkpt>
      <trkpt lat="43.23347" lon="3.07604">
        <ele>5.5</ele>
        <time>2024-05-10T08:41:37Z</time>
      </trkpt>
      <trkpt lat="43.23347" lon="3.07611">
        <ele>5.5</ele>
        <time>2024-05-10T08:41:38Z</time>
      </trkpt>
      <trkpt lat="43.23344" lon="3.07617">
        <ele>5.5</ele>
        <time>2024-05-10T08:41:39Z</time>
      </trkpt>
      <trkpt lat="43.2334" lon="3.07621">
        <ele>5.5</ele>
        <time>2024-05-10T08:41:40Z</time>
      </trkpt>
      <trkpt lat="43.23335" lon="3.07622">
        <ele>5.4</ele>
        <time>2024-05-10T08:41:41Z</time>
      </trkpt>
      <trkpt lat="43.23327" lon="3.07623">
        <ele>5.4</ele>
        <time>2024-05-10T08:41:42Z</time>
      </trkpt>
      <trkpt lat="43.23317" lon="3.07625">
        <ele>5.5</ele>
        <time>2024-05-10T08:41:43Z</time>
      </trkpt>
      <trkpt lat="43.23305" lon="3.07627">
        <ele>5.6</ele>
        <time>2024-05-10T08:41:44Z</time>
      </trkpt>
      <trkpt lat="43.23293" lon="3.0763">
        <ele>5.4</ele>
        <time>2024-05-10T08:41:45Z</time>
      </trkpt>
      <trkpt lat="43.23281" lon="3.07632">
        <ele>5.1</ele>
        <time>2024-05-10T08:41:46Z</time>
      </trkpt>
      <trkpt lat="43.23269" lon="3.07635">
        <ele>5.3</ele>
        <time>2024-05-10T08:41:47Z</time>
      </trkpt>
      <trkpt lat="43.23256" lon="3.07638">
        <ele>5.8</ele>
        <time>2024-05-10T08:41:48Z</time>
      </trkpt>
      <trkpt lat="43.23241" lon="3.0764">
        <ele>6</ele>
        <time>2024-05-10T08:41:49Z</time>
      </trkpt>
      <trkpt lat="43.23226" lon="3.07643">
        <ele>5.9</ele>
        <time>2024-05-10T08:41:50Z</time>
      </trkpt>
      <trkpt lat="43.23211" lon="3.07646">
        <ele>5.4</ele>
        <time>2024-05-10T08:41:51Z</time>
      </trkpt>
      <trkpt lat="43.23195" lon="3.0765">
        <ele>5</ele>
        <time>2024-05-10T08:41:52Z</time>
      </trkpt>
      <trkpt lat="43.23178" lon="3.07653">
        <ele>5</ele>
        <time>2024-05-10T08:41:53Z</time>
      </trkpt>
      <trkpt lat="43.23161" lon="3.07658">
        <ele>5</ele>
        <time>2024-05-10T08:41:54Z</time>
      </trkpt>
      <trkpt lat="43.23142" lon="3.07664">
        <ele>5</ele>
        <time>2024-05-10T08:41:55Z</time>
      </trkpt>
      <trkpt lat="43.23122" lon="3.07672">
        <ele>5</ele>
        <time>2024-05-10T08:41:56Z</time>
      </trkpt>
      <trkpt lat="43.23101" lon="3.07681">
        <ele>5</ele>
        <time>2024-05-10T08:41:57Z</time>
      </trkpt>
      <trkpt lat="43.2308" lon="3.07689">
        <ele>5</ele>
        <time>2024-05-10T08:41:58Z</time>
      </trkpt>
      <trkpt lat="43.23061" lon="3.07697">
        <ele>5</ele>
        <time>2024-05-10T08:41:59Z</time>
      </trkpt>
      <trkpt lat="43.23044" lon="3.07704">
        <ele>5</ele>
        <time>2024-05-10T08:42:00Z</time>
      </trkpt>
      <trkpt lat="43.23027" lon="3.0771">
        <ele>5</ele>
        <time>2024-05-10T08:42:01Z</time>
      </trkpt>
      <trkpt lat="43.23012" lon="3.07713">
        <ele>5</ele>
        <time>2024-05-10T08:42:02Z</time>
      </trkpt>
      <trkpt lat="43.22996" lon="3.07716">
        <ele>5</ele>
        <time>2024-05-10T08:42:03Z</time>
      </trkpt>
      <trkpt lat="43.22979" lon="3.07719">
        <ele>5</ele>
        <time>2024-05-10T08:42:04Z</time>
      </trkpt>
      <trkpt lat="43.22961" lon="3.07722">
        <ele>5</ele>
        <time>2024-05-10T08:42:05Z</time>
      </trkpt>
      <trkpt lat="43.22941" lon="3.07725">
        <ele>5</ele>
        <time>2024-05-10T08:42:06Z</time>
      </trkpt>
      <trkpt lat="43.2292" lon="3.07729">
        <ele>5</ele>
        <time>2024-05-10T08:42:07Z</time>
      </trkpt>
      <trkpt lat="43.22897" lon="3.07733">
        <ele>5</ele>
        <time>2024-05-10T08:42:08Z</time>
      </trkpt>
      <trkpt lat="43.22873" lon="3.07736">
        <ele>5</ele>
        <time>2024-05-10T08:42:09Z</time>
      </trkpt>
      <trkpt lat="43.22848" lon="3.07739">
        <ele>5</ele>
        <time>2024-05-10T08:42:10Z</time>
      </trkpt>
      <trkpt lat="43.22822" lon="3.07743">
        <ele>5</ele>
        <time>2024-05-10T08:42:11Z</time>
      </trkpt>
      <trkpt lat="43.22797" lon="3.07747">
        <ele>5</ele>
        <time>2024-05-10T08:42:12Z</time>
      </trkpt>
      <trkpt lat="43.22772" lon="3.0775">
        <ele>5</ele>
        <time>2024-05-10T08:42:13Z</time>
      </trkpt>
      <trkpt lat="43.22747" lon="3.07753">
        <ele>5</ele>
        <time>2024-05-10T08:42:14Z</time>
      </trkpt>
      <trkpt lat="43.22722" lon="3.07756">
        <ele>5</ele>
        <time>2024-05-10T08:42:15Z</time>
      </trkpt>
      <trkpt lat="43.22697" lon="3.0776">
        <ele>5</ele>
        <time>2024-05-10T08:42:16Z</time>
      </trkpt>
      <trkpt lat="43.22673" lon="3.07761">
        <ele>5</ele>
        <time>2024-05-10T08:42:17Z</time>
      </trkpt>
      <trkpt lat="43.2265" lon="3.0776">
        <ele>4.8</ele>
        <time>2024-05-10T08:42:18Z</time>
      </trkpt>
      <trkpt lat="43.22627" lon="3.07757">
        <ele>4.7</ele>
        <time>2024-05-10T08:42:19Z</time>
      </trkpt>
      <trkpt lat="43.22605" lon="3.07753">
        <ele>4.9</ele>
        <time>2024-05-10T08:42:20Z</time>
      </trkpt>
      <trkpt lat="43.22582" lon="3.07748">
        <ele>5</ele>
        <time>2024-05-10T08:42:21Z</time>
      </trkpt>
      <trkpt lat="43.22559" lon="3.07743">
        <ele>5</ele>
        <time>2024-05-10T08:42:22Z</time>
      </trkpt>
      <trkpt lat="43.22537" lon="3.07738">
        <ele>5</ele>
        <time>2024-05-10T08:42:23Z</time>
      </trkpt>
      <trkpt lat="43.22515" lon="3.07733">
        <ele>4.8</ele>
        <time>2024-05-10T08:42:24Z</time>
      </trkpt>
      <trkpt lat="43.22494" lon="3.07728">
        <ele>4.8</ele>
        <time>2024-05-10T08:42:25Z</time>
      </trkpt>
      <trkpt lat="43.22473" lon="3.07723">
        <ele>5</ele>
        <time>2024-05-10T08:42:26Z</time>
      </trkpt>
      <trkpt lat="43.22452" lon="3.07719">
        <ele>5</ele>
        <time>2024-05-10T08:42:27Z</time>
      </trkpt>
      <trkpt lat="43.2243" lon="3.07714">
        <ele>5</ele>
        <time>2024-05-10T08:42:28Z</time>
      </trkpt>
      <trkpt lat="43.22408" lon="3.07709">
        <ele>4.8</ele>
        <time>2024-05-10T08:42:29Z</time>
      </trkpt>
      <trkpt lat="43.22383" lon="3.07705">
        <ele>4.6</ele>
        <time>2024-05-10T08:42:30Z</time>
      </trkpt>
      <trkpt lat="43.22358" lon="3.07699">
        <ele>4.9</ele>
        <time>2024-05-10T08:42:31Z</time>
      </trkpt>
      <trkpt lat="43.22334" lon="3.07693">
        <ele>5</ele>
        <time>2024-05-10T08:42:32Z</time>
      </trkpt>
      <trkpt lat="43.2231" lon="3.07686">
        <ele>5</ele>
        <time>2024-05-10T08:42:33Z</time>
      </trkpt>
      <trkpt lat="43.22288" lon="3.07678">
        <ele>5</ele>
        <time>2024-05-10T08:42:34Z</time>
      </trkpt>
      <trkpt lat="43.22265" lon="3.0767">
        <ele>5</ele>
        <time>2024-05-10T08:42:35Z</time>
      </trkpt>
      <trkpt lat="43.22241" lon="3.07662">
        <ele>5</ele>
        <time>2024-05-10T08:42:36Z</time>
      </trkpt>
      <trkpt lat="43.22218" lon="3.07653">
        <ele>5</ele>
        <time>2024-05-10T08:42:37Z</time>
      </trkpt>
      <trkpt lat="43.22195" lon="3.07645">
        <ele>5</ele>
        <time>2024-05-10T08:42:38Z</time>
      </trkpt>
      <trkpt lat="43.22173" lon="3.07636">
        <ele>4.9</ele>
        <time>2024-05-10T08:42:39Z</time>
      </trkpt>
      <trkpt lat="43.22151" lon="3.07628">
        <ele>4.8</ele>
        <time>2024-05-10T08:42:40Z</time>
      </trkpt>
      <trkpt lat="43.22131" lon="3.0762">
        <ele>5</ele>
        <time>2024-05-10T08:42:41Z</time>
      </trkpt>
      <trkpt lat="43.22109" lon="3.07611">
        <ele>4.9</ele>
        <time>2024-05-10T08:42:42Z</time>
      </trkpt>
      <trkpt lat="43.22088" lon="3.07602">
        <ele>4.4</ele>
        <time>2024-05-10T08:42:43Z</time>
      </trkpt>
      <trkpt lat="43.22066" lon="3.07594">
        <ele>4.9</ele>
        <time>2024-05-10T08:42:44Z</time>
      </trkpt>
      <trkpt lat="43.22044" lon="3.07586">
        <ele>5</ele>
        <time>2024-05-10T08:42:45Z</time>
      </trkpt>
      <trkpt lat="43.22022" lon="3.07577">
        <ele>4.8</ele>
        <time>2024-05-10T08:42:46Z</time>
      </trkpt>
      <trkpt lat="43.21999" lon="3.07569">
        <ele>5</ele>
        <time>2024-05-10T08:42:47Z</time>
      </trkpt>
      <trkpt lat="43.21977" lon="3.07561">
        <ele>5</ele>
        <time>2024-05-10T08:42:48Z</time>
      </trkpt>
      <trkpt lat="43.21955" lon="3.07553">
        <ele>4.9</ele>
        <time>2024-05-10T08:42:49Z</time>
      </trkpt>
      <trkpt lat="43.21934" lon="3.07545">
        <ele>4.8</ele>
        <time>2024-05-10T08:42:50Z</time>
      </trkpt>
      <trkpt lat="43.21914" lon="3.07538">
        <ele>5</ele>
        <time>2024-05-10T08:42:51Z</time>
      </trkpt>
      <trkpt lat="43.21896" lon="3.07531">
        <ele>5</ele>
        <time>2024-05-10T08:42:52Z</time>
      </trkpt>
      <trkpt lat="43.21882" lon="3.07525">
        <ele>4.7</ele>
        <time>2024-05-10T08:42:53Z</time>
      </trkpt>
      <trkpt lat="43.21869" lon="3.0752">
        <ele>4.2</ele>
        <time>2024-05-10T08:42:54Z</time>
      </trkpt>
      <trkpt lat="43.21858" lon="3.07517">
        <ele>4.1</ele>
        <time>2024-05-10T08:42:55Z</time>
      </trkpt>
      <trkpt lat="43.21847" lon="3.07515">
        <ele>4.5</ele>
        <time>2024-05-10T08:42:56Z</time>
      </trkpt>
      <trkpt lat="43.21836" lon="3.07517">
        <ele>4.9</ele>
        <time>2024-05-10T08:42:57Z</time>
      </trkpt>
      <trkpt lat="43.21828" lon="3.07524">
        <ele>4.8</ele>
        <time>2024-05-10T08:42:58Z</time>
      </trkpt>
      <trkpt lat="43.2182" lon="3.07536">
        <ele>4.4</ele>
        <time>2024-05-10T08:42:59Z</time>
      </trkpt>
      <trkpt lat="43.21813" lon="3.0755">
        <ele>4.1</ele>
        <time>2024-05-10T08:43:00Z</time>
      </trkpt>
      <trkpt lat="43.21806" lon="3.07566">
        <ele>4</ele>
        <time>2024-05-10T08:43:01Z</time>
      </trkpt>
      <trkpt lat="43.218" lon="3.07584">
        <ele>4</ele>
        <time>2024-05-10T08:43:02Z</time>
      </trkpt>
      <trkpt lat="43.21793" lon="3.07603">
        <ele>4.3</ele>
        <time>2024-05-10T08:43:03Z</time>
      </trkpt>
      <trkpt lat="43.21785" lon="3.07621">
        <ele>4.8</ele>
        <time>2024-05-10T08:43:04Z</time>
      </trkpt>
      <trkpt lat="43.21778" lon="3.07638">
        <ele>5</ele>
        <time>2024-05-10T08:43:05Z</time>
      </trkpt>
      <trkpt lat="43.21773" lon="3.07652">
        <ele>5</ele>
        <time>2024-05-10T08:43:06Z</time>
      </trkpt>
      <trkpt lat="43.21767" lon="3.07665">
        <ele>5</ele>
        <time>2024-05-10T08:43:07Z</time>
      </trkpt>
      <trkpt lat="43.21762" lon="3.07677">
        <ele>5</ele>
        <time>2024-05-10T08:43:08Z</time>
      </trkpt>
      <trkpt lat="43.21758" lon="3.07689">
        <ele>5</ele>
        <time>2024-05-10T08:43:09Z</time>
      </trkpt>
      <trkpt lat="43.21754" lon="3.07703">
        <ele>5</ele>
        <time>2024-05-10T08:43:10Z</time>
      </trkpt>
      <trkpt lat="43.21751" lon="3.07717">
        <ele>5</ele>
        <time>2024-05-10T08:43:11Z</time>
      </trkpt>
      <trkpt lat="43.2175" lon="3.07734">
        <ele>5</ele>
        <time>2024-05-10T08:43:12Z</time>
      </trkpt>
      <trkpt lat="43.21752" lon="3.07751">
        <ele>5</ele>
        <time>2024-05-10T08:43:13Z</time>
      </trkpt>
      <trkpt lat="43.21757" lon="3.07768">
        <ele>5</ele>
        <time>2024-05-10T08:43:14Z</time>
      </trkpt>
      <trkpt lat="43.21762" lon="3.07784">
        <ele>5</ele>
        <time>2024-05-10T08:43:15Z</time>
      </trkpt>
      <trkpt lat="43.21767" lon="3.078">
        <ele>5</ele>
        <time>2024-05-10T08:43:16Z</time>
      </trkpt>
      <trkpt lat="43.21771" lon="3.07818">
        <ele>5</ele>
        <time>2024-05-10T08:43:17Z</time>
      </trkpt>
      <trkpt lat="43.21773" lon="3.07836">
        <ele>5</ele>
        <time>2024-05-10T08:43:18Z</time>
      </trkpt>
      <trkpt lat="43.21772" lon="3.07854">
        <ele>5</ele>
        <time>2024-05-10T08:43:19Z</time>
      </trkpt>
      <trkpt lat="43.21769" lon="3.07869">
        <ele>5</ele>
        <time>2024-05-10T08:43:20Z</time>
      </trkpt>
      <trkpt lat="43.21766" lon="3.07882">
        <ele>5</ele>
        <time>2024-05-10T08:43:21Z</time>
      </trkpt>
      <trkpt lat="43.21763" lon="3.07894">
        <ele>5</ele>
        <time>2024-05-10T08:43:22Z</time>
      </trkpt>
      <trkpt lat="43.2176" lon="3.07904">
        <ele>5.2</ele>
        <time>2024-05-10T08:43:23Z</time>
      </trkpt>
      <trkpt lat="43.21757" lon="3.07913">
        <ele>5.4</ele>
        <time>2024-05-10T08:43:24Z</time>
      </trkpt>
      <trkpt lat="43.21755" lon="3.07922">
        <ele>5.7</ele>
        <time>2024-05-10T08:43:25Z</time>
      </trkpt>
      <trkpt lat="43.21752" lon="3.0793">
        <ele>5.9</ele>
        <time>2024-05-10T08:43:26Z</time>
      </trkpt>
      <trkpt lat="43.21748" lon="3.07937">
        <ele>6</ele>
        <time>2024-05-10T08:43:27Z</time>
      </trkpt>
      <trkpt lat="43.21742" lon="3.07943">
        <ele>6</ele>
        <time>2024-05-10T08:43:28Z</time>
      </trkpt>
      <trkpt lat="43.21733" lon="3.07945">
        <ele>6</ele>
        <time>2024-05-10T08:43:29Z</time>
      </trkpt>
      <trkpt lat="43.21722" lon="3.07943">
        <ele>5.9</ele>
        <time>2024-05-10T08:43:30Z</time>
      </trkpt>
      <trkpt lat="43.21708" lon="3.07938">
        <ele>5.9</ele>
        <time>2024-05-10T08:43:31Z</time>
      </trkpt>
      <trkpt lat="43.21692" lon="3.07933">
        <ele>6</ele>
        <time>2024-05-10T08:43:32Z</time>
      </trkpt>
      <trkpt lat="43.21676" lon="3.07927">
        <ele>6</ele>
        <time>2024-05-10T08:43:33Z</time>
      </trkpt>
      <trkpt lat="43.2166" lon="3.07922">
        <ele>6</ele>
        <time>2024-05-10T08:43:34Z</time>
      </trkpt>
      <trkpt lat="43.21643" lon="3.07917">
        <ele>6</ele>
        <time>2024-05-10T08:43:35Z</time>
      </trkpt>
      <trkpt lat="43.21626" lon="3.07911">
        <ele>6</ele>
        <time>2024-05-10T08:43:36Z</time>
      </trkpt>
      <trkpt lat="43.21607" lon="3.07905">
        <ele>6.4</ele>
        <time>2024-05-10T08:43:37Z</time>
      </trkpt>
      <trkpt lat="43.21587" lon="3.07898">
        <ele>6.7</ele>
        <time>2024-05-10T08:43:38Z</time>
      </trkpt>
      <trkpt lat="43.21568" lon="3.07892">
        <ele>6.4</ele>
        <time>2024-05-10T08:43:39Z</time>
      </trkpt>
      <trkpt lat="43.21549" lon="3.07885">
        <ele>6.1</ele>
        <time>2024-05-10T08:43:40Z</time>
      </trkpt>
      <trkpt lat="43.2153" lon="3.07879">
        <ele>6.6</ele>
        <time>2024-05-10T08:43:41Z</time>
      </trkpt>
      <trkpt lat="43.2151" lon="3.07873">
        <ele>6.4</ele>
        <time>2024-05-10T08:43:42Z</time>
      </trkpt>
      <trkpt lat="43.21492" lon="3.07867">
        <ele>6.2</ele>
        <time>2024-05-10T08:43:43Z</time>
      </trkpt>
      <trkpt lat="43.21474" lon="3.07861">
        <ele>6</ele>
        <time>2024-05-10T08:43:44Z</time>
      </trkpt>
      <trkpt lat="43.21455" lon="3.07855">
        <ele>6.4</ele>
        <time>2024-05-10T08:43:45Z</time>
      </trkpt>
      <trkpt lat="43.21437" lon="3.0785">
        <ele>6.6</ele>
        <time>2024-05-10T08:43:46Z</time>
      </trkpt>
      <trkpt lat="43.21419" lon="3.07844">
        <ele>6.4</ele>
        <time>2024-05-10T08:43:47Z</time>
      </trkpt>
      <trkpt lat="43.21402" lon="3.07837">
        <ele>6.6</ele>
        <time>2024-05-10T08:43:48Z</time>
      </trkpt>
      <trkpt lat="43.21386" lon="3.07829">
        <ele>6.9</ele>
        <time>2024-05-10T08:43:49Z</time>
      </trkpt>
      <trkpt lat="43.21372" lon="3.07818">
        <ele>6.8</ele>
        <time>2024-05-10T08:43:50Z</time>
      </trkpt>
      <trkpt lat="43.21357" lon="3.07804">
        <ele>7</ele>
        <time>2024-05-10T08:43:51Z</time>
      </trkpt>
      <trkpt lat="43.21342" lon="3.07789">
        <ele>6.8</ele>
        <time>2024-05-10T08:43:52Z</time>
      </trkpt>
      <trkpt lat="43.21327" lon="3.07776">
        <ele>7.2</ele>
        <time>2024-05-10T08:43:53Z</time>
      </trkpt>
      <trkpt lat="43.21312" lon="3.07766">
        <ele>7.3</ele>
        <time>2024-05-10T08:43:54Z</time>
      </trkpt>
      <trkpt lat="43.21296" lon="3.07757">
        <ele>7.5</ele>
        <time>2024-05-10T08:43:55Z</time>
      </trkpt>
      <trkpt lat="43.21281" lon="3.07751">
        <ele>7.9</ele>
        <time>2024-05-10T08:43:56Z</time>
      </trkpt>
      <trkpt lat="43.2127" lon="3.07748">
        <ele>8.2</ele>
        <time>2024-05-10T08:43:57Z</time>
      </trkpt>
      <trkpt lat="43.21262" lon="3.07745">
        <ele>8.4</ele>
        <time>2024-05-10T08:43:58Z</time>
      </trkpt>
      <trkpt lat="43.21254" lon="3.07741">
        <ele>8.5</ele>
        <time>2024-05-10T08:43:59Z</time>
      </trkpt>
      <trkpt lat="43.21247" lon="3.07738">
        <ele>8.6</ele>
        <time>2024-05-10T08:44:00Z</time>
      </trkpt>
      <trkpt lat="43.21241" lon="3.07735">
        <ele>8.5</ele>
        <time>2024-05-10T08:44:01Z</time>
      </trkpt>
      <trkpt lat="43.21236" lon="3.07732">
        <ele>8.4</ele>
        <time>2024-05-10T08:44:02Z</time>
      </trkpt>
      <trkpt lat="43.21232" lon="3.0773">
        <ele>8.3</ele>
        <time>2024-05-10T08:44:03Z</time>
      </trkpt>
      <trkpt lat="43.21228" lon="3.07728">
        <ele>8.2</ele>
        <time>2024-05-10T08:44:04Z</time>
      </trkpt>
      <trkpt lat="43.21224" lon="3.07726">
        <ele>8.1</ele>
        <time>2024-05-10T08:44:05Z</time>
      </trkpt>
      <trkpt lat="43.2122" lon="3.07724">
        <ele>8.2</ele>
        <time>2024-05-10T08:44:06Z</time>
      </trkpt>
      <trkpt lat="43.21216" lon="3.07721">
        <ele>8.4</ele>
        <time>2024-05-10T08:44:07Z</time>
      </trkpt>
      <trkpt lat="43.21213" lon="3.07719">
        <ele>8.5</ele>
        <time>2024-05-10T08:44:08Z</time>
      </trkpt>
      <trkpt lat="43.2121" lon="3.07716">
        <ele>8.6</ele>
        <time>2024-05-10T08:44:09Z</time>
      </trkpt>
      <trkpt lat="43.21206" lon="3.07713">
        <ele>8.6</ele>
        <time>2024-05-10T08:44:10Z</time>
      </trkpt>
      <trkpt lat="43.21203" lon="3.07711">
        <ele>8.7</ele>
        <time>2024-05-10T08:44:11Z</time>
      </trkpt>
      <trkpt lat="43.212" lon="3.0771">
        <ele>8.8</ele>
        <time>2024-05-10T08:44:12Z</time>
      </trkpt>
      <trkpt lat="43.21198" lon="3.07708">
        <ele>8.8</ele>
        <time>2024-05-10T08:44:13Z</time>
      </trkpt>
      <trkpt lat="43.21195" lon="3.07707">
        <ele>8.9</ele>
        <time>2024-05-10T08:44:14Z</time>
      </trkpt>
      <trkpt lat="43.21193" lon="3.07705">
        <ele>8.8</ele>
        <time>2024-05-10T08:44:15Z</time>
      </trkpt>
      <trkpt lat="43.21191" lon="3.07704">
        <ele>8.9</ele>
        <time>2024-05-10T08:44:16Z</time>
      </trkpt>
      <trkpt lat="43.21189" lon="3.07702">
        <ele>8.8</ele>
        <time>2024-05-10T08:44:17Z</time>
      </trkpt>
      <trkpt lat="43.21187" lon="3.077">
        <ele>8.8</ele>
        <time>2024-05-10T08:44:18Z</time>
      </trkpt>
      <trkpt lat="43.21184" lon="3.07698">
        <ele>8.9</ele>
        <time>2024-05-10T08:44:19Z</time>
      </trkpt>
      <trkpt lat="43.21182" lon="3.07696">
        <ele>9</ele>
        <time>2024-05-10T08:44:20Z</time>
      </trkpt>
      <trkpt lat="43.21181" lon="3.07695">
        <ele>9</ele>
        <time>2024-05-10T08:44:21Z</time>
      </trkpt>
      <trkpt lat="43.2118" lon="3.07694">
        <ele>9</ele>
        <time>2024-05-10T08:44:22Z</time>
      </trkpt>
      <trkpt lat="43.21179" lon="3.07693">
        <ele>9.1</ele>
        <time>2024-05-10T08:44:23Z</time>
      </trkpt>
      <trkpt lat="43.21179" lon="3.07693">
        <ele>9.1</ele>
        <time>2024-05-10T08:44:24Z</time>
      </trkpt>
      <trkpt lat="43.21179" lon="3.07694">
        <ele>9.1</ele>
        <time>2024-05-10T08:44:25Z</time>
      </trkpt>
      <trkpt lat="43.21179" lon="3.07694">
        <ele>9.1</ele>
        <time>2024-05-10T08:44:26Z</time>
      </trkpt>
      <trkpt lat="43.21179" lon="3.07694">
        <ele>9.1</ele>
        <time>2024-05-10T08:44:27Z</time>
      </trkpt>
      <trkpt lat="43.21179" lon="3.07694">
        <ele>9.1</ele>
        <time>2024-05-10T08:44:28Z</time>
      </trkpt>
      <trkpt lat="43.21179" lon="3.07694">
        <ele>9.1</ele>
        <time>2024-05-10T08:44:29Z</time>
      </trkpt>
      <trkpt lat="43.21179" lon="3.07694">
        <ele>9.1</ele>
        <time>2024-05-10T08:44:30Z</time>
      </trkpt>
      <trkpt lat="43.21179" lon="3.07694">
        <ele>9.1</ele>
        <time>2024-05-10T08:44:31Z</time>
      </trkpt>
      <trkpt lat="43.21179" lon="3.07694">
        <ele>9.1</ele>
        <time>2024-05-10T08:44:32Z</time>
      </trkpt>
      <trkpt lat="43.21179" lon="3.07694">
        <ele>9.1</ele>
        <time>2024-05-10T08:44:33Z</time>
      </trkpt>
      <trkpt lat="43.21179" lon="3.07694">
        <ele>9.1</ele>
        <time>2024-05-10T08:44:34Z</time>
      </trkpt>
      <trkpt lat="43.21179" lon="3.07694">
        <ele>9.1</ele>
        <time>2024-05-10T08:44:35Z</time>
      </trkpt>
      <trkpt lat="43.21178" lon="3.07694">
        <ele>9.2</ele>
        <time>2024-05-10T08:44:36Z</time>
      </trkpt>
      <trkpt lat="43.21177" lon="3.07693">
        <ele>9.2</ele>
        <time>2024-05-10T08:44:37Z</time>
      </trkpt>
      <trkpt lat="43.21174" lon="3.0769">
        <ele>9.2</ele>
        <time>2024-05-10T08:44:38Z</time>
      </trkpt>
      <trkpt lat="43.21166" lon="3.07685">
        <ele>9.4</ele>
        <time>2024-05-10T08:44:39Z</time>
      </trkpt>
      <trkpt lat="43.2116" lon="3.0768">
        <ele>9.3</ele>
        <time>2024-05-10T08:44:40Z</time>
      </trkpt>
      <trkpt lat="43.21154" lon="3.07677">
        <ele>9.5</ele>
        <time>2024-05-10T08:44:41Z</time>
      </trkpt>
      <trkpt lat="43.21147" lon="3.07673">
        <ele>9.7</ele>
        <time>2024-05-10T08:44:42Z</time>
      </trkpt>
      <trkpt lat="43.21142" lon="3.0767">
        <ele>9.9</ele>
        <time>2024-05-10T08:44:43Z</time>
      </trkpt>
      <trkpt lat="43.21137" lon="3.07666">
        <ele>10</ele>
        <time>2024-05-10T08:44:44Z</time>
      </trkpt>
      <trkpt lat="43.21131" lon="3.07663">
        <ele>10.1</ele>
        <time>2024-05-10T08:44:45Z</time>
      </trkpt>
      <trkpt lat="43.21124" lon="3.0766">
        <ele>10.2</ele>
        <time>2024-05-10T08:44:46Z</time>
      </trkpt>
      <trkpt lat="43.21117" lon="3.07656">
        <ele>10.1</ele>
        <time>2024-05-10T08:44:47Z</time>
      </trkpt>
      <trkpt lat="43.2111" lon="3.07652">
        <ele>10</ele>
        <time>2024-05-10T08:44:48Z</time>
      </trkpt>
      <trkpt lat="43.21103" lon="3.07649">
        <ele>9.9</ele>
        <time>2024-05-10T08:44:49Z</time>
      </trkpt>
      <trkpt lat="43.21097" lon="3.07645">
        <ele>9.8</ele>
        <time>2024-05-10T08:44:50Z</time>
      </trkpt>
      <trkpt lat="43.21091" lon="3.07641">
        <ele>9.8</ele>
        <time>2024-05-10T08:44:51Z</time>
      </trkpt>
      <trkpt lat="43.21086" lon="3.07638">
        <ele>9.9</ele>
        <time>2024-05-10T08:44:52Z</time>
      </trkpt>
      <trkpt lat="43.21081" lon="3.07635">
        <ele>9.9</ele>
        <time>2024-05-10T08:44:53Z</time>
      </trkpt>
      <trkpt lat="43.21077" lon="3.07632">
        <ele>10</ele>
        <time>2024-05-10T08:44:54Z</time>
      </trkpt>
      <trkpt lat="43.21074" lon="3.0763">
        <ele>10</ele>
        <time>2024-05-10T08:44:55Z</time>
      </trkpt>
      <trkpt lat="43.2107" lon="3.07628">
        <ele>10.1</ele>
        <time>2024-05-10T08:44:56Z</time>
      </trkpt>
      <trkpt lat="43.21066" lon="3.07626">
        <ele>10.2</ele>
        <time>2024-05-10T08:44:57Z</time>
      </trkpt>
      <trkpt lat="43.21062" lon="3.07624">
        <ele>10.2</ele>
        <time>2024-05-10T08:44:58Z</time>
      </trkpt>
      <trkpt lat="43.21058" lon="3.07621">
        <ele>10.3</ele>
        <time>2024-05-10T08:44:59Z</time>
      </trkpt>
      <trkpt lat="43.21053" lon="3.07619">
        <ele>10.4</ele>
        <time>2024-05-10T08:45:00Z</time>
      </trkpt>
      <trkpt lat="43.21048" lon="3.07616">
        <ele>10.4</ele>
        <time>2024-05-10T08:45:01Z</time>
      </trkpt>
      <trkpt lat="43.21042" lon="3.07613">
        <ele>10.6</ele>
        <time>2024-05-10T08:45:02Z</time>
      </trkpt>
      <trkpt lat="43.21035" lon="3.07609">
        <ele>10.7</ele>
        <time>2024-05-10T08:45:03Z</time>
      </trkpt>
      <trkpt lat="43.21028" lon="3.07605">
        <ele>11</ele>
        <time>2024-05-10T08:45:04Z</time>
      </trkpt>
      <trkpt lat="43.21021" lon="3.07602">
        <ele>11.2</ele>
        <time>2024-05-10T08:45:05Z</time>
      </trkpt>
      <trkpt lat="43.21014" lon="3.07598">
        <ele>11.3</ele>
        <time>2024-05-10T08:45:06Z</time>
      </trkpt>
      <trkpt lat="43.21007" lon="3.07593">
        <ele>11.3</ele>
        <time>2024-05-10T08:45:07Z</time>
      </trkpt>
      <trkpt lat="43.21" lon="3.07589">
        <ele>11.2</ele>
        <time>2024-05-10T08:45:08Z</time>
      </trkpt>
      <trkpt lat="43.20992" lon="3.07586">
        <ele>11.4</ele>
        <time>2024-05-10T08:45:09Z</time>
      </trkpt>
      <trkpt lat="43.20985" lon="3.07582">
        <ele>11.5</ele>
        <time>2024-05-10T08:45:10Z</time>
      </trkpt>
      <trkpt lat="43.20978" lon="3.07579">
        <ele>11.7</ele>
        <time>2024-05-10T08:45:11Z</time>
      </trkpt>
      <trkpt lat="43.20973" lon="3.07578">
        <ele>11.8</ele>
        <time>2024-05-10T08:45:12Z</time>
      </trkpt>
      <trkpt lat="43.20968" lon="3.07577">
        <ele>11.9</ele>
        <time>2024-05-10T08:45:13Z</time>
      </trkpt>
      <trkpt lat="43.20964" lon="3.07576">
        <ele>12</ele>
        <time>2024-05-10T08:45:14Z</time>
      </trkpt>
      <trkpt lat="43.20959" lon="3.07575">
        <ele>12.2</ele>
        <time>2024-05-10T08:45:15Z</time>
      </trkpt>
      <trkpt lat="43.20955" lon="3.07573">
        <ele>12.2</ele>
        <time>2024-05-10T08:45:16Z</time>
      </trkpt>
      <trkpt lat="43.20949" lon="3.07573">
        <ele>12.5</ele>
        <time>2024-05-10T08:45:17Z</time>
      </trkpt>
      <trkpt lat="43.20944" lon="3.07572">
        <ele>12.6</ele>
        <time>2024-05-10T08:45:18Z</time>
      </trkpt>
      <trkpt lat="43.20939" lon="3.07571">
        <ele>12.6</ele>
        <time>2024-05-10T08:45:19Z</time>
      </trkpt>
      <trkpt lat="43.20934" lon="3.07569">
        <ele>12.5</ele>
        <time>2024-05-10T08:45:20Z</time>
      </trkpt>
      <trkpt lat="43.2093" lon="3.07566">
        <ele>12.4</ele>
        <time>2024-05-10T08:45:21Z</time>
      </trkpt>
      <trkpt lat="43.20925" lon="3.0756">
        <ele>12.2</ele>
        <time>2024-05-10T08:45:22Z</time>
      </trkpt>
      <trkpt lat="43.20918" lon="3.07556">
        <ele>12</ele>
        <time>2024-05-10T08:45:23Z</time>
      </trkpt>
      <trkpt lat="43.20911" lon="3.07552">
        <ele>12.1</ele>
        <time>2024-05-10T08:45:24Z</time>
      </trkpt>
      <trkpt lat="43.20904" lon="3.07548">
        <ele>12.2</ele>
        <time>2024-05-10T08:45:25Z</time>
      </trkpt>
      <trkpt lat="43.20896" lon="3.07545">
        <ele>12.4</ele>
        <time>2024-05-10T08:45:26Z</time>
      </trkpt>
      <trkpt lat="43.20889" lon="3.07541">
        <ele>12.5</ele>
        <time>2024-05-10T08:45:27Z</time>
      </trkpt>
      <trkpt lat="43.20882" lon="3.07538">
        <ele>12.4</ele>
        <time>2024-05-10T08:45:28Z</time>
      </trkpt>
      <trkpt lat="43.20875" lon="3.07533">
        <ele>12.2</ele>
        <time>2024-05-10T08:45:29Z</time>
      </trkpt>
      <trkpt lat="43.20869" lon="3.0753">
        <ele>12.1</ele>
        <time>2024-05-10T08:45:30Z</time>
      </trkpt>
      <trkpt lat="43.20863" lon="3.07526">
        <ele>11.9</ele>
        <time>2024-05-10T08:45:31Z</time>
      </trkpt>
      <trkpt lat="43.20856" lon="3.07523">
        <ele>12</ele>
        <time>2024-05-10T08:45:32Z</time>
      </trkpt>
      <trkpt lat="43.20849" lon="3.0752">
        <ele>12.2</ele>
        <time>2024-05-10T08:45:33Z</time>
      </trkpt>
      <trkpt lat="43.20842" lon="3.07517">
        <ele>12.3</ele>
        <time>2024-05-10T08:45:34Z</time>
      </trkpt>
      <trkpt lat="43.20836" lon="3.07514">
        <ele>12.4</ele>
        <time>2024-05-10T08:45:35Z</time>
      </trkpt>
      <trkpt lat="43.20832" lon="3.07512">
        <ele>12.4</ele>
        <time>2024-05-10T08:45:36Z</time>
      </trkpt>
      <trkpt lat="43.20828" lon="3.0751">
        <ele>12.4</ele>
        <time>2024-05-10T08:45:37Z</time>
      </trkpt>
      <trkpt lat="43.20824" lon="3.07508">
        <ele>12.3</ele>
        <time>2024-05-10T08:45:38Z</time>
      </trkpt>
      <trkpt lat="43.2082" lon="3.07505">
        <ele>12.2</ele>
        <time>2024-05-10T08:45:39Z</time>
      </trkpt>
      <trkpt lat="43.20814" lon="3.07502">
        <ele>12.1</ele>
        <time>2024-05-10T08:45:40Z</time>
      </trkpt>
      <trkpt lat="43.20809" lon="3.075">
        <ele>12</ele>
        <time>2024-05-10T08:45:41Z</time>
      </trkpt>
      <trkpt lat="43.20803" lon="3.07497">
        <ele>12.1</ele>
        <time>2024-05-10T08:45:42Z</time>
      </trkpt>
      <trkpt lat="43.20798" lon="3.07495">
        <ele>12.2</ele>
        <time>2024-05-10T08:45:43Z</time>
      </trkpt>
      <trkpt lat="43.20792" lon="3.07492">
        <ele>12.3</ele>
        <time>2024-05-10T08:45:44Z</time>
      </trkpt>
      <trkpt lat="43.20786" lon="3.07489">
        <ele>12.4</ele>
        <time>2024-05-10T08:45:45Z</time>
      </trkpt>
      <trkpt lat="43.2078" lon="3.07487">
        <ele>12.5</ele>
        <time>2024-05-10T08:45:46Z</time>
      </trkpt>
      <trkpt lat="43.20775" lon="3.07484">
        <ele>12.4</ele>
        <time>2024-05-10T08:45:47Z</time>
      </trkpt>
      <trkpt lat="43.2077" lon="3.07482">
        <ele>12.4</ele>
        <time>2024-05-10T08:45:48Z</time>
      </trkpt>
      <trkpt lat="43.20765" lon="3.0748">
        <ele>12.3</ele>
        <time>2024-05-10T08:45:49Z</time>
      </trkpt>
      <trkpt lat="43.20761" lon="3.07478">
        <ele>12.2</ele>
        <time>2024-05-10T08:45:50Z</time>
      </trkpt>
      <trkpt lat="43.20757" lon="3.07477">
        <ele>12.2</ele>
        <time>2024-05-10T08:45:51Z</time>
      </trkpt>
      <trkpt lat="43.20753" lon="3.07475">
        <ele>12.1</ele>
        <time>2024-05-10T08:45:52Z</time>
      </trkpt>
      <trkpt lat="43.20748" lon="3.07473">
        <ele>12.1</ele>
        <time>2024-05-10T08:45:53Z</time>
      </trkpt>
      <trkpt lat="43.20743" lon="3.0747">
        <ele>12.2</ele>
        <time>2024-05-10T08:45:54Z</time>
      </trkpt>
      <trkpt lat="43.20738" lon="3.07468">
        <ele>12.2</ele>
        <time>2024-05-10T08:45:55Z</time>
      </trkpt>
      <trkpt lat="43.20732" lon="3.07465">
        <ele>12.2</ele>
        <time>2024-05-10T08:45:56Z</time>
      </trkpt>
      <trkpt lat="43.20727" lon="3.07463">
        <ele>12.2</ele>
        <time>2024-05-10T08:45:57Z</time>
      </trkpt>
      <trkpt lat="43.20722" lon="3.07461">
        <ele>12.2</ele>
        <time>2024-05-10T08:45:58Z</time>
      </trkpt>
      <trkpt lat="43.20718" lon="3.07459">
        <ele>12.2</ele>
        <time>2024-05-10T08:45:59Z</time>
      </trkpt>
      <trkpt lat="43.20715" lon="3.07458">
        <ele>12.2</ele>
        <time>2024-05-10T08:46:00Z</time>
      </trkpt>
      <trkpt lat="43.20713" lon="3.07457">
        <ele>12.2</ele>
        <time>2024-05-10T08:46:01Z</time>
      </trkpt>
      <trkpt lat="43.2071" lon="3.07456">
        <ele>12.3</ele>
        <time>2024-05-10T08:46:02Z</time>
      </trkpt>
      <trkpt lat="43.20709" lon="3.07456">
        <ele>12.3</ele>
        <time>2024-05-10T08:46:03Z</time>
      </trkpt>
      <trkpt lat="43.20708" lon="3.07456">
        <ele>12.3</ele>
        <time>2024-05-10T08:46:04Z</time>
      </trkpt>
      <trkpt lat="43.20708" lon="3.07456">
        <ele>12.3</ele>
        <time>2024-05-10T08:46:05Z</time>
      </trkpt>
      <trkpt lat="43.20708" lon="3.07456">
        <ele>12.3</ele>
        <time>2024-05-10T08:46:06Z</time>
      </trkpt>
      <trkpt lat="43.20708" lon="3.07456">
        <ele>12.3</ele>
        <time>2024-05-10T08:46:07Z</time>
      </trkpt>
      <trkpt lat="43.20708" lon="3.07456">
        <ele>12.3</ele>
        <time>2024-05-10T08:46:08Z</time>
      </trkpt>
      <trkpt lat="43.20708" lon="3.07456">
        <ele>12.3</ele>
        <time>2024-05-10T08:46:09Z</time>
      </trkpt>
      <trkpt lat="43.20708" lon="3.07456">
        <ele>12.3</ele>
        <time>2024-05-10T08:46:10Z</time>
      </trkpt>
      <trkpt lat="43.20708" lon="3.07456">
        <ele>12.3</ele>
        <time>2024-05-10T08:46:11Z</time>
      </trkpt>
      <trkpt lat="43.20708" lon="3.07456">
        <ele>12.3</ele>
        <time>2024-05-10T08:46:12Z</time>
      </trkpt>
      <trkpt lat="43.20708" lon="3.07456">
        <ele>12.3</ele>
        <time>2024-05-10T08:46:13Z</time>
      </trkpt>
      <trkpt lat="43.20708" lon="3.07456">
        <ele>12.3</ele>
        <time>2024-05-10T08:46:14Z</time>
      </trkpt>
      <trkpt lat="43.20708" lon="3.07456">
        <ele>12.3</ele>
        <time>2024-05-10T08:46:15Z</time>
      </trkpt>
      <trkpt lat="43.20708" lon="3.07456">
        <ele>12.3</ele>
        <time>2024-05-10T08:46:16Z</time>
      </trkpt>
      <trkpt lat="43.20708" lon="3.07456">
        <ele>12.3</ele>
        <time>2024-05-10T08:46:17Z</time>
      </trkpt>
      <trkpt lat="43.20708" lon="3.07456">
        <ele>12.3</ele>
        <time>2024-05-10T08:46:18Z</time>
      </trkpt>
      <trkpt lat="43.20708" lon="3.07456">
        <ele>12.3</ele>
        <time>2024-05-10T08:46:19Z</time>
      </trkpt>
      <trkpt lat="43.20708" lon="3.07456">
        <ele>12.3</ele>
        <time>2024-05-10T08:46:20Z</time>
      </trkpt>
      <trkpt lat="43.20708" lon="3.07456">
        <ele>12.3</ele>
        <time>2024-05-10T08:46:21Z</time>
      </trkpt>
      <trkpt lat="43.20708" lon="3.07456">
        <ele>12.3</ele>
        <time>2024-05-10T08:46:22Z</time>
      </trkpt>
      <trkpt lat="43.20708" lon="3.07456">
        <ele>12.3</ele>
        <time>2024-05-10T08:46:23Z</time>
      </trkpt>
      <trkpt lat="43.20708" lon="3.07456">
        <ele>12.3</ele>
        <time>2024-05-10T08:46:24Z</time>
      </trkpt>
      <trkpt lat="43.20708" lon="3.07456">
        <ele>12.3</ele>
        <time>2024-05-10T08:46:25Z</time>
      </trkpt>
      <trkpt lat="43.20708" lon="3.07456">
        <ele>12.3</ele>
        <time>2024-05-10T08:46:26Z</time>
      </trkpt>
      <trkpt lat="43.20708" lon="3.07456">
        <ele>12.3</ele>
        <time>2024-05-10T08:46:27Z</time>
      </trkpt>
      <trkpt lat="43.20708" lon="3.07456">
        <ele>12.3</ele>
        <time>2024-05-10T08:46:28Z</time>
      </trkpt>
      <trkpt lat="43.20708" lon="3.07456">
        <ele>12.3</ele>
        <time>2024-05-10T08:46:29Z</time>
      </trkpt>
      <trkpt lat="43.20708" lon="3.07456">
        <ele>12.3</ele>
        <time>2024-05-10T08:46:30Z</time>
      </trkpt>
      <trkpt lat="43.20708" lon="3.07456">
        <ele>12.3</ele>
        <time>2024-05-10T08:46:31Z</time>
      </trkpt>
      <trkpt lat="43.20708" lon="3.07456">
        <ele>12.3</ele>
        <time>2024-05-10T08:46:32Z</time>
      </trkpt>
      <trkpt lat="43.20708" lon="3.07456">
        <ele>12.3</ele>
        <time>2024-05-10T08:46:33Z</time>
      </trkpt>
      <trkpt lat="43.20708" lon="3.07456">
        <ele>12.3</ele>
        <time>2024-05-10T08:46:34Z</time>
      </trkpt>
      <trkpt lat="43.20708" lon="3.07456">
        <ele>12.3</ele>
        <time>2024-05-10T08:46:35Z</time>
      </trkpt>
      <trkpt lat="43.20708" lon="3.07456">
        <ele>12.3</ele>
        <time>2024-05-10T08:46:36Z</time>
      </trkpt>
      <trkpt lat="43.20708" lon="3.07456">
        <ele>12.3</ele>
        <time>2024-05-10T08:46:37Z</time>
      </trkpt>
      <trkpt lat="43.20708" lon="3.07456">
        <ele>12.3</ele>
        <time>2024-05-10T08:46:38Z</time>
      </trkpt>
      <trkpt lat="43.20708" lon="3.07456">
        <ele>12.3</ele>
        <time>2024-05-10T08:46:39Z</time>
      </trkpt>
      <trkpt lat="43.20708" lon="3.07456">
        <ele>12.3</ele>
        <time>2024-05-10T08:46:40Z</time>
      </trkpt>
      <trkpt lat="43.20708" lon="3.07456">
        <ele>12.3</ele>
        <time>2024-05-10T08:46:41Z</time>
      </trkpt>
      <trkpt lat="43.20708" lon="3.07456">
        <ele>12.3</ele>
        <time>2024-05-10T08:46:42Z</time>
      </trkpt>
      <trkpt lat="43.20708" lon="3.07456">
        <ele>12.3</ele>
        <time>2024-05-10T08:46:43Z</time>
      </trkpt>
      <trkpt lat="43.20708" lon="3.07456">
        <ele>12.3</ele>
        <time>2024-05-10T08:46:44Z</time>
      </trkpt>
      <trkpt lat="43.20708" lon="3.07456">
        <ele>12.3</ele>
        <time>2024-05-10T08:46:45Z</time>
      </trkpt>
      <trkpt lat="43.20708" lon="3.07456">
        <ele>12.3</ele>
        <time>2024-05-10T08:46:46Z</time>
      </trkpt>
      <trkpt lat="43.20708" lon="3.07456">
        <ele>12.3</ele>
        <time>2024-05-10T08:46:47Z</time>
      </trkpt>
      <trkpt lat="43.20708" lon="3.07456">
        <ele>12.3</ele>
        <time>2024-05-10T08:46:48Z</time>
      </trkpt>
      <trkpt lat="43.20708" lon="3.07456">
        <ele>12.3</ele>
        <time>2024-05-10T08:46:49Z</time>
      </trkpt>
      <trkpt lat="43.20708" lon="3.07456">
        <ele>12.3</ele>
        <time>2024-05-10T08:46:50Z</time>
      </trkpt>
      <trkpt lat="43.20708" lon="3.07456">
        <ele>12.3</ele>
        <time>2024-05-10T08:46:51Z</time>
      </trkpt>
      <trkpt lat="43.20708" lon="3.07456">
        <ele>12.3</ele>
        <time>2024-05-10T08:46:52Z</time>
      </trkpt>
      <trkpt lat="43.20708" lon="3.07456">
        <ele>12.3</ele>
        <time>2024-05-10T08:46:53Z</time>
      </trkpt>
      <trkpt lat="43.20708" lon="3.07456">
        <ele>12.3</ele>
        <time>2024-05-10T08:46:54Z</time>
      </trkpt>
      <trkpt lat="43.20708" lon="3.07456">
        <ele>12.3</ele>
        <time>2024-05-10T08:46:55Z</time>
      </trkpt>
      <trkpt lat="43.20708" lon="3.07456">
        <ele>12.3</ele>
        <time>2024-05-10T08:46:56Z</time>
      </trkpt>
      <trkpt lat="43.20708" lon="3.07456">
        <ele>12.3</ele>
        <time>2024-05-10T08:46:57Z</time>
      </trkpt>
      <trkpt lat="43.20708" lon="3.07456">
        <ele>12.3</ele>
        <time>2024-05-10T08:46:58Z</time>
      </trkpt>
      <trkpt lat="43.20708" lon="3.07456">
        <ele>12.3</ele>
        <time>2024-05-10T08:46:59Z</time>
      </trkpt>
      <trkpt lat="43.20708" lon="3.07456">
        <ele>12.3</ele>
        <time>2024-05-10T08:47:00Z</time>
      </trkpt>
      <trkpt lat="43.20708" lon="3.07456">
        <ele>12.3</ele>
        <time>2024-05-10T08:47:01Z</time>
      </trkpt>
      <trkpt lat="43.20708" lon="3.07456">
        <ele>12.3</ele>
        <time>2024-05-10T08:47:02Z</time>
      </trkpt>
      <trkpt lat="43.20708" lon="3.07456">
        <ele>12.3</ele>
        <time>2024-05-10T08:47:03Z</time>
      </trkpt>
      <trkpt lat="43.20708" lon="3.07456">
        <ele>12.3</ele>
        <time>2024-05-10T08:47:04Z</time>
      </trkpt>
      <trkpt lat="43.20708" lon="3.07456">
        <ele>12.3</ele>
        <time>2024-05-10T08:47:05Z</time>
      </trkpt>
      <trkpt lat="43.20708" lon="3.07456">
        <ele>12.3</ele>
        <time>2024-05-10T08:47:06Z</time>
      </trkpt>
      <trkpt lat="43.20708" lon="3.07456">
        <ele>12.3</ele>
        <time>2024-05-10T08:47:07Z</time>
      </trkpt>
      <trkpt lat="43.20708" lon="3.07456">
        <ele>12.3</ele>
        <time>2024-05-10T08:47:08Z</time>
      </trkpt>
      <trkpt lat="43.20708" lon="3.07456">
        <ele>12.3</ele>
        <time>2024-05-10T08:47:09Z</time>
      </trkpt>
      <trkpt lat="43.20708" lon="3.07456">
        <ele>12.3</ele>
        <time>2024-05-10T08:47:10Z</time>
      </trkpt>
      <trkpt lat="43.20708" lon="3.07456">
        <ele>12.3</ele>
        <time>2024-05-10T08:47:11Z</time>
      </trkpt>
      <trkpt lat="43.20708" lon="3.07456">
        <ele>12.3</ele>
        <time>2024-05-10T08:47:12Z</time>
      </trkpt>
      <trkpt lat="43.20708" lon="3.07456">
        <ele>12.3</ele>
        <time>2024-05-10T08:47:13Z</time>
      </trkpt>
      <trkpt lat="43.20708" lon="3.07456">
        <ele>12.3</ele>
        <time>2024-05-10T08:47:14Z</time>
      </trkpt>
      <trkpt lat="43.20708" lon="3.07456">
        <ele>12.3</ele>
        <time>2024-05-10T08:47:15Z</time>
      </trkpt>
      <trkpt lat="43.20708" lon="3.07456">
        <ele>12.3</ele>
        <time>2024-05-10T08:47:16Z</time>
      </trkpt>
      <trkpt lat="43.20708" lon="3.07456">
        <ele>12.3</ele>
        <time>2024-05-10T08:47:17Z</time>
      </trkpt>
      <trkpt lat="43.20708" lon="3.07456">
        <ele>12.3</ele>
        <time>2024-05-10T08:47:18Z</time>
      </trkpt>
      <trkpt lat="43.20708" lon="3.07456">
        <ele>12.3</ele>
        <time>2024-05-10T08:47:19Z</time>
      </trkpt>
      <trkpt lat="43.20708" lon="3.07456">
        <ele>12.3</ele>
        <time>2024-05-10T08:47:20Z</time>
      </trkpt>
      <trkpt lat="43.20708" lon="3.07456">
        <ele>12.3</ele>
        <time>2024-05-10T08:47:21Z</time>
      </trkpt>
      <trkpt lat="43.20708" lon="3.07456">
        <ele>12.3</ele>
        <time>2024-05-10T08:47:22Z</time>
      </trkpt>
      <trkpt lat="43.20708" lon="3.07456">
        <ele>12.3</ele>
        <time>2024-05-10T08:47:23Z</time>
      </trkpt>
      <trkpt lat="43.20708" lon="3.07456">
        <ele>12.3</ele>
        <time>2024-05-10T08:47:24Z</time>
      </trkpt>
      <trkpt lat="43.20708" lon="3.07456">
        <ele>12.3</ele>
        <time>2024-05-10T08:47:25Z</time>
      </trkpt>
      <trkpt lat="43.20708" lon="3.07456">
        <ele>12.3</ele>
        <time>2024-05-10T08:47:26Z</time>
      </trkpt>
      <trkpt lat="43.20708" lon="3.07456">
        <ele>12.3</ele>
        <time>2024-05-10T08:47:27Z</time>
      </trkpt>
      <trkpt lat="43.20708" lon="3.07456">
        <ele>12.3</ele>
        <time>2024-05-10T08:47:28Z</time>
      </trkpt>
      <trkpt lat="43.20708" lon="3.07456">
        <ele>12.3</ele>
        <time>2024-05-10T08:47:29Z</time>
      </trkpt>
      <trkpt lat="43.20708" lon="3.07456">
        <ele>12.3</ele>
        <time>2024-05-10T08:47:30Z</time>
      </trkpt>
      <trkpt lat="43.20708" lon="3.07456">
        <ele>12.3</ele>
        <time>2024-05-10T08:47:31Z</time>
      </trkpt>
      <trkpt lat="43.20708" lon="3.07456">
        <ele>12.3</ele>
        <time>2024-05-10T08:47:32Z</time>
      </trkpt>
      <trkpt lat="43.20708" lon="3.07456">
        <ele>12.3</ele>
        <time>2024-05-10T08:47:33Z</time>
      </trkpt>
      <trkpt lat="43.20708" lon="3.07456">
        <ele>12.3</ele>
        <time>2024-05-10T08:47:34Z</time>
      </trkpt>
      <trkpt lat="43.20708" lon="3.07456">
        <ele>12.3</ele>
        <time>2024-05-10T08:47:35Z</time>
      </trkpt>
      <trkpt lat="43.20708" lon="3.07456">
        <ele>12.3</ele>
        <time>2024-05-10T08:47:36Z</time>
      </trkpt>
      <trkpt lat="43.20708" lon="3.07456">
        <ele>12.3</ele>
        <time>2024-05-10T08:47:37Z</time>
      </trkpt>
      <trkpt lat="43.20708" lon="3.07456">
        <ele>12.3</ele>
        <time>2024-05-10T08:47:38Z</time>
      </trkpt>
      <trkpt lat="43.20708" lon="3.07456">
        <ele>12.3</ele>
        <time>2024-05-10T08:47:39Z</time>
      </trkpt>
      <trkpt lat="43.20708" lon="3.07456">
        <ele>12.3</ele>
        <time>2024-05-10T08:47:40Z</time>
      </trkpt>
      <trkpt lat="43.20708" lon="3.07456">
        <ele>12.3</ele>
        <time>2024-05-10T08:47:41Z</time>
      </trkpt>
      <trkpt lat="43.20708" lon="3.07456">
        <ele>12.3</ele>
        <time>2024-05-10T08:47:42Z</time>
      </trkpt>
      <trkpt lat="43.20708" lon="3.07456">
        <ele>12.3</ele>
        <time>2024-05-10T08:47:43Z</time>
      </trkpt>
      <trkpt lat="43.20708" lon="3.07456">
        <ele>12.3</ele>
        <time>2024-05-10T08:47:44Z</time>
      </trkpt>
      <trkpt lat="43.20708" lon="3.07456">
        <ele>12.3</ele>
        <time>2024-05-10T08:47:45Z</time>
      </trkpt>
      <trkpt lat="43.20708" lon="3.07456">
        <ele>12.3</ele>
        <time>2024-05-10T08:47:46Z</time>
      </trkpt>
      <trkpt lat="43.20708" lon="3.07456">
        <ele>12.3</ele>
        <time>2024-05-10T08:47:47Z</time>
      </trkpt>
      <trkpt lat="43.20708" lon="3.07456">
        <ele>12.3</ele>
        <time>2024-05-10T08:47:48Z</time>
      </trkpt>
      <trkpt lat="43.20708" lon="3.07456">
        <ele>12.3</ele>
        <time>2024-05-10T08:47:49Z</time>
      </trkpt>
      <trkpt lat="43.20708" lon="3.07456">
        <ele>12.3</ele>
        <time>2024-05-10T08:47:50Z</time>
      </trkpt>
      <trkpt lat="43.20708" lon="3.07456">
        <ele>12.3</ele>
        <time>2024-05-10T08:47:51Z</time>
      </trkpt>
      <trkpt lat="43.20708" lon="3.07456">
        <ele>12.3</ele>
        <time>2024-05-10T08:47:52Z</time>
      </trkpt>
      <trkpt lat="43.20708" lon="3.07456">
        <ele>12.3</ele>
        <time>2024-05-10T08:47:53Z</time>
      </trkpt>
      <trkpt lat="43.20708" lon="3.07456">
        <ele>12.3</ele>
        <time>2024-05-10T08:47:54Z</time>
      </trkpt>
      <trkpt lat="43.20708" lon="3.07456">
        <ele>12.3</ele>
        <time>2024-05-10T08:47:55Z</time>
      </trkpt>
      <trkpt lat="43.20708" lon="3.07456">
        <ele>12.3</ele>
        <time>2024-05-10T08:47:56Z</time>
      </trkpt>
      <trkpt lat="43.20708" lon="3.07456">
        <ele>12.3</ele>
        <time>2024-05-10T08:47:57Z</time>
      </trkpt>
      <trkpt lat="43.20708" lon="3.07456">
        <ele>12.3</ele>
        <time>2024-05-10T08:47:58Z</time>
      </trkpt>
      <trkpt lat="43.20708" lon="3.07456">
        <ele>12.3</ele>
        <time>2024-05-10T08:47:59Z</time>
      </trkpt>
      <trkpt lat="43.20708" lon="3.07456">
        <ele>12.3</ele>
        <time>2024-05-10T08:48:00Z</time>
      </trkpt>
      <trkpt lat="43.20708" lon="3.07456">
        <ele>12.3</ele>
        <time>2024-05-10T08:48:01Z</time>
      </trkpt>
      <trkpt lat="43.20708" lon="3.07456">
        <ele>12.3</ele>
        <time>2024-05-10T08:48:02Z</time>
      </trkpt>
      <trkpt lat="43.20708" lon="3.07456">
        <ele>12.3</ele>
        <time>2024-05-10T08:48:03Z</time>
      </trkpt>
      <trkpt lat="43.20708" lon="3.07456">
        <ele>12.3</ele>
        <time>2024-05-10T08:48:04Z</time>
      </trkpt>
      <trkpt lat="43.20708" lon="3.07456">
        <ele>12.3</ele>
        <time>2024-05-10T08:48:05Z</time>
      </trkpt>
      <trkpt lat="43.20708" lon="3.07456">
        <ele>12.3</ele>
        <time>2024-05-10T08:48:06Z</time>
      </trkpt>
      <trkpt lat="43.20708" lon="3.07456">
        <ele>12.3</ele>
        <time>2024-05-10T08:48:07Z</time>
      </trkpt>
      <trkpt lat="43.20708" lon="3.07456">
        <ele>12.3</ele>
        <time>2024-05-10T08:48:08Z</time>
      </trkpt>
      <trkpt lat="43.20708" lon="3.07456">
        <ele>12.3</ele>
        <time>2024-05-10T08:48:09Z</time>
      </trkpt>
      <trkpt lat="43.20708" lon="3.07456">
        <ele>12.3</ele>
        <time>2024-05-10T08:48:10Z</time>
      </trkpt>
      <trkpt lat="43.20708" lon="3.07456">
        <ele>12.3</ele>
        <time>2024-05-10T08:48:11Z</time>
      </trkpt>
      <trkpt lat="43.20708" lon="3.07456">
        <ele>12.3</ele>
        <time>2024-05-10T08:48:12Z</time>
      </trkpt>
      <trkpt lat="43.20708" lon="3.07456">
        <ele>12.3</ele>
        <time>2024-05-10T08:48:13Z</time>
      </trkpt>
      <trkpt lat="43.20708" lon="3.07456">
        <ele>12.3</ele>
        <time>2024-05-10T08:48:14Z</time>
      </trkpt>
      <trkpt lat="43.20708" lon="3.07456">
        <ele>12.3</ele>
        <time>2024-05-10T08:48:15Z</time>
      </trkpt>
      <trkpt lat="43.20708" lon="3.07456">
        <ele>12.3</ele>
        <time>2024-05-10T08:48:16Z</time>
      </trkpt>
      <trkpt lat="43.20708" lon="3.07456">
        <ele>12.3</ele>
        <time>2024-05-10T08:48:17Z</time>
      </trkpt>
      <trkpt lat="43.20708" lon="3.07456">
        <ele>12.3</ele>
        <time>2024-05-10T08:48:18Z</time>
      </trkpt>
      <trkpt lat="43.20708" lon="3.07456">
        <ele>12.3</ele>
        <time>2024-05-10T08:48:19Z</time>
      </trkpt>
      <trkpt lat="43.20708" lon="3.07456">
        <ele>12.3</ele>
        <time>2024-05-10T08:48:20Z</time>
      </trkpt>
      <trkpt lat="43.20708" lon="3.07456">
        <ele>12.3</ele>
        <time>2024-05-10T08:48:21Z</time>
      </trkpt>
      <trkpt lat="43.20708" lon="3.07456">
        <ele>12.3</ele>
        <time>2024-05-10T08:48:22Z</time>
      </trkpt>
      <trkpt lat="43.20708" lon="3.07456">
        <ele>12.3</ele>
        <time>2024-05-10T08:48:23Z</time>
      </trkpt>
      <trkpt lat="43.20708" lon="3.07456">
        <ele>12.3</ele>
        <time>2024-05-10T08:48:24Z</time>
      </trkpt>
      <trkpt lat="43.20708" lon="3.07456">
        <ele>12.3</ele>
        <time>2024-05-10T08:48:25Z</time>
      </trkpt>
      <trkpt lat="43.20708" lon="3.07456">
        <ele>12.3</ele>
        <time>2024-05-10T08:48:26Z</time>
      </trkpt>
      <trkpt lat="43.20708" lon="3.07456">
        <ele>12.3</ele>
        <time>2024-05-10T08:48:27Z</time>
      </trkpt>
      <trkpt lat="43.20708" lon="3.07456">
        <ele>12.3</ele>
        <time>2024-05-10T08:48:28Z</time>
      </trkpt>
      <trkpt lat="43.20708" lon="3.07456">
        <ele>12.3</ele>
        <time>2024-05-10T08:48:29Z</time>
      </trkpt>
      <trkpt lat="43.20708" lon="3.07456">
        <ele>12.3</ele>
        <time>2024-05-10T08:48:30Z</time>
      </trkpt>
      <trkpt lat="43.20708" lon="3.07456">
        <ele>12.3</ele>
        <time>2024-05-10T08:48:31Z</time>
      </trkpt>
      <trkpt lat="43.20708" lon="3.07456">
        <ele>12.3</ele>
        <time>2024-05-10T08:48:32Z</time>
      </trkpt>
      <trkpt lat="43.20708" lon="3.07456">
        <ele>12.3</ele>
        <time>2024-05-10T08:48:33Z</time>
      </trkpt>
      <trkpt lat="43.20708" lon="3.07456">
        <ele>12.3</ele>
        <time>2024-05-10T08:48:34Z</time>
      </trkpt>
      <trkpt lat="43.20708" lon="3.07456">
        <ele>12.3</ele>
        <time>2024-05-10T08:48:35Z</time>
      </trkpt>
      <trkpt lat="43.20708" lon="3.07456">
        <ele>12.3</ele>
        <time>2024-05-10T08:48:36Z</time>
      </trkpt>
      <trkpt lat="43.20707" lon="3.07456">
        <ele>12.4</ele>
        <time>2024-05-10T08:48:37Z</time>
      </trkpt>
      <trkpt lat="43.20704" lon="3.07455">
        <ele>12.4</ele>
        <time>2024-05-10T08:48:38Z</time>
      </trkpt>
      <trkpt lat="43.20698" lon="3.07455">
        <ele>12.6</ele>
        <time>2024-05-10T08:48:39Z</time>
      </trkpt>
      <trkpt lat="43.20692" lon="3.07455">
        <ele>12.7</ele>
        <time>2024-05-10T08:48:40Z</time>
      </trkpt>
      <trkpt lat="43.20687" lon="3.07455">
        <ele>12.7</ele>
        <time>2024-05-10T08:48:41Z</time>
      </trkpt>
      <trkpt lat="43.2068" lon="3.07454">
        <ele>12.5</ele>
        <time>2024-05-10T08:48:42Z</time>
      </trkpt>
      <trkpt lat="43.20674" lon="3.07453">
        <ele>12.4</ele>
        <time>2024-05-10T08:48:43Z</time>
      </trkpt>
      <trkpt lat="43.20667" lon="3.07452">
        <ele>12.3</ele>
        <time>2024-05-10T08:48:44Z</time>
      </trkpt>
      <trkpt lat="43.20661" lon="3.07452">
        <ele>12.3</ele>
        <time>2024-05-10T08:48:45Z</time>
      </trkpt>
      <trkpt lat="43.20656" lon="3.07452">
        <ele>12.4</ele>
        <time>2024-05-10T08:48:46Z</time>
      </trkpt>
      <trkpt lat="43.20652" lon="3.07453">
        <ele>12.5</ele>
        <time>2024-05-10T08:48:47Z</time>
      </trkpt>
      <trkpt lat="43.20648" lon="3.07453">
        <ele>12.5</ele>
        <time>2024-05-10T08:48:48Z</time>
      </trkpt>
      <trkpt lat="43.20644" lon="3.07453">
        <ele>12.6</ele>
        <time>2024-05-10T08:48:49Z</time>
      </trkpt>
      <trkpt lat="43.20639" lon="3.07454">
        <ele>12.7</ele>
        <time>2024-05-10T08:48:50Z</time>
      </trkpt>
      <trkpt lat="43.20634" lon="3.07453">
        <ele>12.7</ele>
        <time>2024-05-10T08:48:51Z</time>
      </trkpt>
      <trkpt lat="43.20629" lon="3.07453">
        <ele>12.9</ele>
        <time>2024-05-10T08:48:52Z</time>
      </trkpt>
      <trkpt lat="43.20623" lon="3.07453">
        <ele>13</ele>
        <time>2024-05-10T08:48:53Z</time>
      </trkpt>
      <trkpt lat="43.20617" lon="3.07453">
        <ele>13.2</ele>
        <time>2024-05-10T08:48:54Z</time>
      </trkpt>
      <trkpt lat="43.20613" lon="3.07454">
        <ele>13.3</ele>
        <time>2024-05-10T08:48:55Z</time>
      </trkpt>
      <trkpt lat="43.20607" lon="3.07455">
        <ele>13.4</ele>
        <time>2024-05-10T08:48:56Z</time>
      </trkpt>
      <trkpt lat="43.20601" lon="3.07456">
        <ele>13.6</ele>
        <time>2024-05-10T08:48:57Z</time>
      </trkpt>
      <trkpt lat="43.20594" lon="3.07457">
        <ele>13.7</ele>
        <time>2024-05-10T08:48:58Z</time>
      </trkpt>
      <trkpt lat="43.20587" lon="3.07458">
        <ele>13.9</ele>
        <time>2024-05-10T08:48:59Z</time>
      </trkpt>
      <trkpt lat="43.2058" lon="3.07459">
        <ele>14</ele>
        <time>2024-05-10T08:49:00Z</time>
      </trkpt>
      <trkpt lat="43.20573" lon="3.07459">
        <ele>13.9</ele>
        <time>2024-05-10T08:49:01Z</time>
      </trkpt>
      <trkpt lat="43.20566" lon="3.0746">
        <ele>13.8</ele>
        <time>2024-05-10T08:49:02Z</time>
      </trkpt>
      <trkpt lat="43.2056" lon="3.0746">
        <ele>13.6</ele>
        <time>2024-05-10T08:49:03Z</time>
      </trkpt>
      <trkpt lat="43.20555" lon="3.0746">
        <ele>13.6</ele>
        <time>2024-05-10T08:49:04Z</time>
      </trkpt>
      <trkpt lat="43.20549" lon="3.07461">
        <ele>13.7</ele>
        <time>2024-05-10T08:49:05Z</time>
      </trkpt>
      <trkpt lat="43.20541" lon="3.0746">
        <ele>13.9</ele>
        <time>2024-05-10T08:49:06Z</time>
      </trkpt>
      <trkpt lat="43.20533" lon="3.0746">
        <ele>14</ele>
        <time>2024-05-10T08:49:07Z</time>
      </trkpt>
      <trkpt lat="43.20525" lon="3.0746">
        <ele>14.1</ele>
        <time>2024-05-10T08:49:08Z</time>
      </trkpt>
      <trkpt lat="43.20516" lon="3.07458">
        <ele>13.8</ele>
        <time>2024-05-10T08:49:09Z</time>
      </trkpt>
      <trkpt lat="43.20508" lon="3.07457">
        <ele>13.6</ele>
        <time>2024-05-10T08:49:10Z</time>
      </trkpt>
      <trkpt lat="43.20499" lon="3.07457">
        <ele>13.4</ele>
        <time>2024-05-10T08:49:11Z</time>
      </trkpt>
      <trkpt lat="43.20491" lon="3.07456">
        <ele>13.3</ele>
        <time>2024-05-10T08:49:12Z</time>
      </trkpt>
      <trkpt lat="43.20485" lon="3.07456">
        <ele>13.2</ele>
        <time>2024-05-10T08:49:13Z</time>
      </trkpt>
      <trkpt lat="43.20479" lon="3.07456">
        <ele>13.1</ele>
        <time>2024-05-10T08:49:14Z</time>
      </trkpt>
      <trkpt lat="43.20474" lon="3.07456">
        <ele>13</ele>
        <time>2024-05-10T08:49:15Z</time>
      </trkpt>
      <trkpt lat="43.20471" lon="3.07456">
        <ele>13</ele>
        <time>2024-05-10T08:49:16Z</time>
      </trkpt>
      <trkpt lat="43.20469" lon="3.07455">
        <ele>13</ele>
        <time>2024-05-10T08:49:17Z</time>
      </trkpt>
      <trkpt lat="43.20468" lon="3.07454">
        <ele>13.1</ele>
        <time>2024-05-10T08:49:18Z</time>
      </trkpt>
      <trkpt lat="43.20468" lon="3.07454">
        <ele>13.1</ele>
        <time>2024-05-10T08:49:19Z</time>
      </trkpt>
      <trkpt lat="43.20468" lon="3.07454">
        <ele>13.1</ele>
        <time>2024-05-10T08:49:20Z</time>
      </trkpt>
      <trkpt lat="43.20467" lon="3.07454">
        <ele>13.1</ele>
        <time>2024-05-10T08:49:21Z</time>
      </trkpt>
      <trkpt lat="43.20467" lon="3.07454">
        <ele>13.1</ele>
        <time>2024-05-10T08:49:22Z</time>
      </trkpt>
      <trkpt lat="43.20467" lon="3.07454">
        <ele>13.1</ele>
        <time>2024-05-10T08:49:23Z</time>
      </trkpt>
      <trkpt lat="43.20467" lon="3.07454">
        <ele>13.1</ele>
        <time>2024-05-10T08:49:24Z</time>
      </trkpt>
      <trkpt lat="43.20465" lon="3.07454">
        <ele>13.1</ele>
        <time>2024-05-10T08:49:25Z</time>
      </trkpt>
      <trkpt lat="43.20462" lon="3.07454">
        <ele>13.1</ele>
        <time>2024-05-10T08:49:26Z</time>
      </trkpt>
      <trkpt lat="43.20456" lon="3.07454">
        <ele>13.2</ele>
        <time>2024-05-10T08:49:27Z</time>
      </trkpt>
      <trkpt lat="43.20449" lon="3.07454">
        <ele>13.3</ele>
        <time>2024-05-10T08:49:28Z</time>
      </trkpt>
      <trkpt lat="43.20441" lon="3.07454">
        <ele>13.4</ele>
        <time>2024-05-10T08:49:29Z</time>
      </trkpt>
      <trkpt lat="43.20433" lon="3.07454">
        <ele>13.5</ele>
        <time>2024-05-10T08:49:30Z</time>
      </trkpt>
      <trkpt lat="43.20425" lon="3.07454">
        <ele>13.6</ele>
        <time>2024-05-10T08:49:31Z</time>
      </trkpt>
      <trkpt lat="43.20417" lon="3.07454">
        <ele>13.7</ele>
        <time>2024-05-10T08:49:32Z</time>
      </trkpt>
      <trkpt lat="43.20409" lon="3.07454">
        <ele>13.8</ele>
        <time>2024-05-10T08:49:33Z</time>
      </trkpt>
      <trkpt lat="43.20401" lon="3.07454">
        <ele>13.9</ele>
        <time>2024-05-10T08:49:34Z</time>
      </trkpt>
      <trkpt lat="43.20394" lon="3.07454">
        <ele>13.9</ele>
        <time>2024-05-10T08:49:35Z</time>
      </trkpt>
      <trkpt lat="43.20388" lon="3.07454">
        <ele>14</ele>
        <time>2024-05-10T08:49:36Z</time>
      </trkpt>
      <trkpt lat="43.20381" lon="3.07453">
        <ele>13.8</ele>
        <time>2024-05-10T08:49:37Z</time>
      </trkpt>
      <trkpt lat="43.20375" lon="3.07454">
        <ele>13.7</ele>
        <time>2024-05-10T08:49:38Z</time>
      </trkpt>
      <trkpt lat="43.2037" lon="3.07454">
        <ele>13.6</ele>
        <time>2024-05-10T08:49:39Z</time>
      </trkpt>
      <trkpt lat="43.20364" lon="3.07453">
        <ele>13.4</ele>
        <time>2024-05-10T08:49:40Z</time>
      </trkpt>
      <trkpt lat="43.20358" lon="3.07454">
        <ele>13.4</ele>
        <time>2024-05-10T08:49:41Z</time>
      </trkpt>
      <trkpt lat="43.20353" lon="3.07453">
        <ele>13.4</ele>
        <time>2024-05-10T08:49:42Z</time>
      </trkpt>
      <trkpt lat="43.20348" lon="3.07452">
        <ele>13.4</ele>
        <time>2024-05-10T08:49:43Z</time>
      </trkpt>
      <trkpt lat="43.20344" lon="3.07451">
        <ele>13.4</ele>
        <time>2024-05-10T08:49:44Z</time>
      </trkpt>
      <trkpt lat="43.20339" lon="3.07449">
        <ele>13.3</ele>
        <time>2024-05-10T08:49:45Z</time>
      </trkpt>
      <trkpt lat="43.20333" lon="3.07448">
        <ele>13.3</ele>
        <time>2024-05-10T08:49:46Z</time>
      </trkpt>
      <trkpt lat="43.20327" lon="3.07447">
        <ele>13.4</ele>
        <time>2024-05-10T08:49:47Z</time>
      </trkpt>
      <trkpt lat="43.20319" lon="3.07445">
        <ele>13.5</ele>
        <time>2024-05-10T08:49:48Z</time>
      </trkpt>
      <trkpt lat="43.20312" lon="3.07444">
        <ele>13.8</ele>
        <time>2024-05-10T08:49:49Z</time>
      </trkpt>
      <trkpt lat="43.20306" lon="3.07442">
        <ele>14</ele>
        <time>2024-05-10T08:49:50Z</time>
      </trkpt>
      <trkpt lat="43.203" lon="3.0744">
        <ele>14.2</ele>
        <time>2024-05-10T08:49:51Z</time>
      </trkpt>
      <trkpt lat="43.20294" lon="3.07439">
        <ele>14.3</ele>
        <time>2024-05-10T08:49:52Z</time>
      </trkpt>
      <trkpt lat="43.20289" lon="3.07438">
        <ele>14.5</ele>
        <time>2024-05-10T08:49:53Z</time>
      </trkpt>
      <trkpt lat="43.20284" lon="3.07437">
        <ele>14.6</ele>
        <time>2024-05-10T08:49:54Z</time>
      </trkpt>
      <trkpt lat="43.20279" lon="3.07436">
        <ele>14.7</ele>
        <time>2024-05-10T08:49:55Z</time>
      </trkpt>
      <trkpt lat="43.20274" lon="3.07434">
        <ele>14.7</ele>
        <time>2024-05-10T08:49:56Z</time>
      </trkpt>
      <trkpt lat="43.20269" lon="3.07433">
        <ele>14.7</ele>
        <time>2024-05-10T08:49:57Z</time>
      </trkpt>
      <trkpt lat="43.20263" lon="3.07432">
        <ele>14.8</ele>
        <time>2024-05-10T08:49:58Z</time>
      </trkpt>
      <trkpt lat="43.20257" lon="3.07431">
        <ele>14.9</ele>
        <time>2024-05-10T08:49:59Z</time>
      </trkpt>
      <trkpt lat="43.20249" lon="3.0743">
        <ele>15</ele>
        <time>2024-05-10T08:50:00Z</time>
      </trkpt>
      <trkpt lat="43.20241" lon="3.0743">
        <ele>15.2</ele>
        <time>2024-05-10T08:50:01Z</time>
      </trkpt>
      <trkpt lat="43.20233" lon="3.0743">
        <ele>15.3</ele>
        <time>2024-05-10T08:50:02Z</time>
      </trkpt>
      <trkpt lat="43.20225" lon="3.0743">
        <ele>15.4</ele>
        <time>2024-05-10T08:50:03Z</time>
      </trkpt>
      <trkpt lat="43.20217" lon="3.0743">
        <ele>15.7</ele>
        <time>2024-05-10T08:50:04Z</time>
      </trkpt>
      <trkpt lat="43.20208" lon="3.0743">
        <ele>16</ele>
        <time>2024-05-10T08:50:05Z</time>
      </trkpt>
      <trkpt lat="43.20201" lon="3.07431">
        <ele>16.3</ele>
        <time>2024-05-10T08:50:06Z</time>
      </trkpt>
      <trkpt lat="43.20194" lon="3.07431">
        <ele>16.5</ele>
        <time>2024-05-10T08:50:07Z</time>
      </trkpt>
      <trkpt lat="43.20187" lon="3.07432">
        <ele>16.5</ele>
        <time>2024-05-10T08:50:08Z</time>
      </trkpt>
      <trkpt lat="43.2018" lon="3.07432">
        <ele>16.5</ele>
        <time>2024-05-10T08:50:09Z</time>
      </trkpt>
      <trkpt lat="43.20173" lon="3.07432">
        <ele>16.5</ele>
        <time>2024-05-10T08:50:10Z</time>
      </trkpt>
      <trkpt lat="43.20166" lon="3.07432">
        <ele>16.5</ele>
        <time>2024-05-10T08:50:11Z</time>
      </trkpt>
      <trkpt lat="43.20158" lon="3.07433">
        <ele>16.6</ele>
        <time>2024-05-10T08:50:12Z</time>
      </trkpt>
      <trkpt lat="43.2015" lon="3.07434">
        <ele>16.8</ele>
        <time>2024-05-10T08:50:13Z</time>
      </trkpt>
      <trkpt lat="43.20143" lon="3.07435">
        <ele>16.9</ele>
        <time>2024-05-10T08:50:14Z</time>
      </trkpt>
      <trkpt lat="43.20137" lon="3.07435">
        <ele>17</ele>
        <time>2024-05-10T08:50:15Z</time>
      </trkpt>
      <trkpt lat="43.2013" lon="3.07435">
        <ele>17.2</ele>
        <time>2024-05-10T08:50:16Z</time>
      </trkpt>
      <trkpt lat="43.20123" lon="3.07436">
        <ele>17.4</ele>
        <time>2024-05-10T08:50:17Z</time>
      </trkpt>
      <trkpt lat="43.20116" lon="3.07437">
        <ele>17.6</ele>
        <time>2024-05-10T08:50:18Z</time>
      </trkpt>
      <trkpt lat="43.20108" lon="3.07438">
        <ele>17.9</ele>
        <time>2024-05-10T08:50:19Z</time>
      </trkpt>
      <trkpt lat="43.201" lon="3.07438">
        <ele>18.2</ele>
        <time>2024-05-10T08:50:20Z</time>
      </trkpt>
      <trkpt lat="43.20093" lon="3.07439">
        <ele>18.5</ele>
        <time>2024-05-10T08:50:21Z</time>
      </trkpt>
      <trkpt lat="43.20086" lon="3.07439">
        <ele>18.7</ele>
        <time>2024-05-10T08:50:22Z</time>
      </trkpt>
      <trkpt lat="43.20079" lon="3.0744">
        <ele>18.8</ele>
        <time>2024-05-10T08:50:23Z</time>
      </trkpt>
      <trkpt lat="43.20071" lon="3.07441">
        <ele>18.9</ele>
        <time>2024-05-10T08:50:24Z</time>
      </trkpt>
      <trkpt lat="43.20063" lon="3.07442">
        <ele>18.9</ele>
        <time>2024-05-10T08:50:25Z</time>
      </trkpt>
      <trkpt lat="43.20055" lon="3.07442">
        <ele>18.9</ele>
        <time>2024-05-10T08:50:26Z</time>
      </trkpt>
      <trkpt lat="43.20047" lon="3.07443">
        <ele>18.6</ele>
        <time>2024-05-10T08:50:27Z</time>
      </trkpt>
      <trkpt lat="43.20039" lon="3.07444">
        <ele>18.4</ele>
        <time>2024-05-10T08:50:28Z</time>
      </trkpt>
      <trkpt lat="43.20032" lon="3.07445">
        <ele>18.2</ele>
        <time>2024-05-10T08:50:29Z</time>
      </trkpt>
      <trkpt lat="43.20025" lon="3.07446">
        <ele>18.1</ele>
        <time>2024-05-10T08:50:30Z</time>
      </trkpt>
      <trkpt lat="43.20019" lon="3.07447">
        <ele>18.1</ele>
        <time>2024-05-10T08:50:31Z</time>
      </trkpt>
      <trkpt lat="43.20014" lon="3.07447">
        <ele>18.1</ele>
        <time>2024-05-10T08:50:32Z</time>
      </trkpt>
      <trkpt lat="43.2001" lon="3.07448">
        <ele>18.1</ele>
        <time>2024-05-10T08:50:33Z</time>
      </trkpt>
      <trkpt lat="43.20005" lon="3.07448">
        <ele>18.1</ele>
        <time>2024-05-10T08:50:34Z</time>
      </trkpt>
      <trkpt lat="43.2" lon="3.07449">
        <ele>18.2</ele>
        <time>2024-05-10T08:50:35Z</time>
      </trkpt>
      <trkpt lat="43.19995" lon="3.07449">
        <ele>18.2</ele>
        <time>2024-05-10T08:50:36Z</time>
      </trkpt>
      <trkpt lat="43.19988" lon="3.0745">
        <ele>18.2</ele>
        <time>2024-05-10T08:50:37Z</time>
      </trkpt>
      <trkpt lat="43.1998" lon="3.07451">
        <ele>18.2</ele>
        <time>2024-05-10T08:50:38Z</time>
      </trkpt>
      <trkpt lat="43.19972" lon="3.07452">
        <ele>18.3</ele>
        <time>2024-05-10T08:50:39Z</time>
      </trkpt>
      <trkpt lat="43.19963" lon="3.07453">
        <ele>18</ele>
        <time>2024-05-10T08:50:40Z</time>
      </trkpt>
      <trkpt lat="43.19955" lon="3.07454">
        <ele>17.7</ele>
        <time>2024-05-10T08:50:41Z</time>
      </trkpt>
      <trkpt lat="43.19946" lon="3.07456">
        <ele>17.5</ele>
        <time>2024-05-10T08:50:42Z</time>
      </trkpt>
      <trkpt lat="43.19936" lon="3.07457">
        <ele>17.5</ele>
        <time>2024-05-10T08:50:43Z</time>
      </trkpt>
      <trkpt lat="43.19926" lon="3.07459">
        <ele>17.5</ele>
        <time>2024-05-10T08:50:44Z</time>
      </trkpt>
      <trkpt lat="43.19916" lon="3.07461">
        <ele>17.6</ele>
        <time>2024-05-10T08:50:45Z</time>
      </trkpt>
      <trkpt lat="43.19907" lon="3.07462">
        <ele>17.6</ele>
        <time>2024-05-10T08:50:46Z</time>
      </trkpt>
      <trkpt lat="43.19899" lon="3.07464">
        <ele>17.7</ele>
        <time>2024-05-10T08:50:47Z</time>
      </trkpt>
      <trkpt lat="43.19893" lon="3.07464">
        <ele>17.7</ele>
        <time>2024-05-10T08:50:48Z</time>
      </trkpt>
      <trkpt lat="43.19889" lon="3.07464">
        <ele>17.7</ele>
        <time>2024-05-10T08:50:49Z</time>
      </trkpt>
      <trkpt lat="43.19886" lon="3.07462">
        <ele>17.6</ele>
        <time>2024-05-10T08:50:50Z</time>
      </trkpt>
      <trkpt lat="43.19884" lon="3.07461">
        <ele>17.6</ele>
        <time>2024-05-10T08:50:51Z</time>
      </trkpt>
      <trkpt lat="43.19884" lon="3.0746">
        <ele>17.6</ele>
        <time>2024-05-10T08:50:52Z</time>
      </trkpt>
      <trkpt lat="43.19884" lon="3.07459">
        <ele>17.5</ele>
        <time>2024-05-10T08:50:53Z</time>
      </trkpt>
      <trkpt lat="43.19884" lon="3.0746">
        <ele>17.6</ele>
        <time>2024-05-10T08:50:54Z</time>
      </trkpt>
      <trkpt lat="43.19884" lon="3.0746">
        <ele>17.6</ele>
        <time>2024-05-10T08:50:55Z</time>
      </trkpt>
      <trkpt lat="43.19884" lon="3.0746">
        <ele>17.6</ele>
        <time>2024-05-10T08:50:56Z</time>
      </trkpt>
      <trkpt lat="43.19884" lon="3.0746">
        <ele>17.6</ele>
        <time>2024-05-10T08:50:57Z</time>
      </trkpt>
      <trkpt lat="43.19885" lon="3.0746">
        <ele>17.6</ele>
        <time>2024-05-10T08:50:58Z</time>
      </trkpt>
      <trkpt lat="43.19885" lon="3.0746">
        <ele>17.6</ele>
        <time>2024-05-10T08:50:59Z</time>
      </trkpt>
      <trkpt lat="43.19885" lon="3.0746">
        <ele>17.6</ele>
        <time>2024-05-10T08:51:00Z</time>
      </trkpt>
      <trkpt lat="43.19885" lon="3.0746">
        <ele>17.6</ele>
        <time>2024-05-10T08:51:01Z</time>
      </trkpt>
      <trkpt lat="43.19885" lon="3.0746">
        <ele>17.6</ele>
        <time>2024-05-10T08:51:02Z</time>
      </trkpt>
      <trkpt lat="43.19885" lon="3.0746">
        <ele>17.6</ele>
        <time>2024-05-10T08:51:03Z</time>
      </trkpt>
      <trkpt lat="43.19883" lon="3.07456">
        <ele>17.4</ele>
        <time>2024-05-10T08:51:04Z</time>
      </trkpt>
      <trkpt lat="43.1988" lon="3.07449">
        <ele>17.2</ele>
        <time>2024-05-10T08:51:05Z</time>
      </trkpt>
      <trkpt lat="43.1988" lon="3.07439">
        <ele>16.8</ele>
        <time>2024-05-10T08:51:06Z</time>
      </trkpt>
      <trkpt lat="43.19882" lon="3.07427">
        <ele>16.4</ele>
        <time>2024-05-10T08:51:07Z</time>
      </trkpt>
      <trkpt lat="43.19885" lon="3.07416">
        <ele>16</ele>
        <time>2024-05-10T08:51:08Z</time>
      </trkpt>
      <trkpt lat="43.19887" lon="3.07403">
        <ele>15.5</ele>
        <time>2024-05-10T08:51:09Z</time>
      </trkpt>
      <trkpt lat="43.1989" lon="3.07388">
        <ele>15</ele>
        <time>2024-05-10T08:51:10Z</time>
      </trkpt>
      <trkpt lat="43.19894" lon="3.07373">
        <ele>14.5</ele>
        <time>2024-05-10T08:51:11Z</time>
      </trkpt>
      <trkpt lat="43.19896" lon="3.0736">
        <ele>14.2</ele>
        <time>2024-05-10T08:51:12Z</time>
      </trkpt>
      <trkpt lat="43.19897" lon="3.07346">
        <ele>14.1</ele>
        <time>2024-05-10T08:51:13Z</time>
      </trkpt>
      <trkpt lat="43.19895" lon="3.07332">
        <ele>14</ele>
        <time>2024-05-10T08:51:14Z</time>
      </trkpt>
      <trkpt lat="43.19891" lon="3.07318">
        <ele>13.5</ele>
        <time>2024-05-10T08:51:15Z</time>
      </trkpt>
      <trkpt lat="43.19885" lon="3.07306">
        <ele>13</ele>
        <time>2024-05-10T08:51:16Z</time>
      </trkpt>
      <trkpt lat="43.19877" lon="3.07295">
        <ele>12.6</ele>
        <time>2024-05-10T08:51:17Z</time>
      </trkpt>
      <trkpt lat="43.19869" lon="3.07286">
        <ele>12.3</ele>
        <time>2024-05-10T08:51:18Z</time>
      </trkpt>
      <trkpt lat="43.1986" lon="3.07277">
        <ele>12</ele>
        <time>2024-05-10T08:51:19Z</time>
      </trkpt>
      <trkpt lat="43.19851" lon="3.07269">
        <ele>11.9</ele>
        <time>2024-05-10T08:51:20Z</time>
      </trkpt>
      <trkpt lat="43.19843" lon="3.07261">
        <ele>11.6</ele>
        <time>2024-05-10T08:51:21Z</time>
      </trkpt>
      <trkpt lat="43.19837" lon="3.07255">
        <ele>11.3</ele>
        <time>2024-05-10T08:51:22Z</time>
      </trkpt>
      <trkpt lat="43.19833" lon="3.0725">
        <ele>11</ele>
        <time>2024-05-10T08:51:23Z</time>
      </trkpt>
      <trkpt lat="43.19828" lon="3.07244">
        <ele>11</ele>
        <time>2024-05-10T08:51:24Z</time>
      </trkpt>
      <trkpt lat="43.19822" lon="3.07238">
        <ele>10.8</ele>
        <time>2024-05-10T08:51:25Z</time>
      </trkpt>
      <trkpt lat="43.19817" lon="3.07233">
        <ele>10.6</ele>
        <time>2024-05-10T08:51:26Z</time>
      </trkpt>
      <trkpt lat="43.19811" lon="3.07227">
        <ele>10.3</ele>
        <time>2024-05-10T08:51:27Z</time>
      </trkpt>
      <trkpt lat="43.19806" lon="3.07221">
        <ele>10</ele>
        <time>2024-05-10T08:51:28Z</time>
      </trkpt>
      <trkpt lat="43.198" lon="3.07215">
        <ele>9.9</ele>
        <time>2024-05-10T08:51:29Z</time>
      </trkpt>
      <trkpt lat="43.19795" lon="3.07211">
        <ele>9.8</ele>
        <time>2024-05-10T08:51:30Z</time>
      </trkpt>
      <trkpt lat="43.19788" lon="3.07205">
        <ele>9.6</ele>
        <time>2024-05-10T08:51:31Z</time>
      </trkpt>
      <trkpt lat="43.19782" lon="3.072">
        <ele>9.3</ele>
        <time>2024-05-10T08:51:32Z</time>
      </trkpt>
      <trkpt lat="43.19777" lon="3.07194">
        <ele>9</ele>
        <time>2024-05-10T08:51:33Z</time>
      </trkpt>
      <trkpt lat="43.19773" lon="3.0719">
        <ele>9</ele>
        <time>2024-05-10T08:51:34Z</time>
      </trkpt>
      <trkpt lat="43.19769" lon="3.07187">
        <ele>9</ele>
        <time>2024-05-10T08:51:35Z</time>
      </trkpt>
      <trkpt lat="43.19766" lon="3.07183">
        <ele>9</ele>
        <time>2024-05-10T08:51:36Z</time>
      </trkpt>
      <trkpt lat="43.19764" lon="3.0718">
        <ele>9</ele>
        <time>2024-05-10T08:51:37Z</time>
      </trkpt>
      <trkpt lat="43.19763" lon="3.07178">
        <ele>9</ele>
        <time>2024-05-10T08:51:38Z</time>
      </trkpt>
      <trkpt lat="43.19762" lon="3.07176">
        <ele>9</ele>
        <time>2024-05-10T08:51:39Z</time>
      </trkpt>
      <trkpt lat="43.19761" lon="3.07174">
        <ele>9</ele>
        <time>2024-05-10T08:51:40Z</time>
      </trkpt>
      <trkpt lat="43.1976" lon="3.07172">
        <ele>9</ele>
        <time>2024-05-10T08:51:41Z</time>
      </trkpt>
      <trkpt lat="43.1976" lon="3.07171">
        <ele>9</ele>
        <time>2024-05-10T08:51:42Z</time>
      </trkpt>
      <trkpt lat="43.1976" lon="3.07171">
        <ele>9</ele>
        <time>2024-05-10T08:51:43Z</time>
      </trkpt>
      <trkpt lat="43.1976" lon="3.07171">
        <ele>9</ele>
        <time>2024-05-10T08:51:44Z</time>
      </trkpt>
      <trkpt lat="43.1976" lon="3.07171">
        <ele>9</ele>
        <time>2024-05-10T08:51:45Z</time>
      </trkpt>
      <trkpt lat="43.1976" lon="3.07171">
        <ele>9</ele>
        <time>2024-05-10T08:51:46Z</time>
      </trkpt>
      <trkpt lat="43.1976" lon="3.07171">
        <ele>9</ele>
        <time>2024-05-10T08:51:47Z</time>
      </trkpt>
      <trkpt lat="43.1976" lon="3.07171">
        <ele>9</ele>
        <time>2024-05-10T08:51:48Z</time>
      </trkpt>
      <trkpt lat="43.1976" lon="3.07171">
        <ele>9</ele>
        <time>2024-05-10T08:51:49Z</time>
      </trkpt>
      <trkpt lat="43.1976" lon="3.07171">
        <ele>9</ele>
        <time>2024-05-10T08:51:50Z</time>
      </trkpt>
      <trkpt lat="43.1976" lon="3.0717">
        <ele>9</ele>
        <time>2024-05-10T08:51:51Z</time>
      </trkpt>
      <trkpt lat="43.1976" lon="3.0717">
        <ele>9</ele>
        <time>2024-05-10T08:51:52Z</time>
      </trkpt>
      <trkpt lat="43.19761" lon="3.0717">
        <ele>9</ele>
        <time>2024-05-10T08:51:53Z</time>
      </trkpt>
      <trkpt lat="43.19761" lon="3.0717">
        <ele>9</ele>
        <time>2024-05-10T08:51:54Z</time>
      </trkpt>
      <trkpt lat="43.19761" lon="3.0717">
        <ele>9</ele>
        <time>2024-05-10T08:51:55Z</time>
      </trkpt>
      <trkpt lat="43.19761" lon="3.0717">
        <ele>9</ele>
        <time>2024-05-10T08:51:56Z</time>
      </trkpt>
      <trkpt lat="43.19761" lon="3.0717">
        <ele>9</ele>
        <time>2024-05-10T08:51:57Z</time>
      </trkpt>
      <trkpt lat="43.19761" lon="3.0717">
        <ele>9</ele>
        <time>2024-05-10T08:51:58Z</time>
      </trkpt>
      <trkpt lat="43.19761" lon="3.0717">
        <ele>9</ele>
        <time>2024-05-10T08:51:59Z</time>
      </trkpt>
      <trkpt lat="43.19761" lon="3.0717">
        <ele>9</ele>
        <time>2024-05-10T08:52:00Z</time>
      </trkpt>
      <trkpt lat="43.19761" lon="3.0717">
        <ele>9</ele>
        <time>2024-05-10T08:52:01Z</time>
      </trkpt>
      <trkpt lat="43.19761" lon="3.0717">
        <ele>9</ele>
        <time>2024-05-10T08:52:02Z</time>
      </trkpt>
      <trkpt lat="43.19761" lon="3.0717">
        <ele>9</ele>
        <time>2024-05-10T08:52:03Z</time>
      </trkpt>
      <trkpt lat="43.19761" lon="3.0717">
        <ele>9</ele>
        <time>2024-05-10T08:52:04Z</time>
      </trkpt>
      <trkpt lat="43.19761" lon="3.0717">
        <ele>9</ele>
        <time>2024-05-10T08:52:05Z</time>
      </trkpt>
      <trkpt lat="43.1976" lon="3.07168">
        <ele>9</ele>
        <time>2024-05-10T08:52:06Z</time>
      </trkpt>
      <trkpt lat="43.19758" lon="3.07166">
        <ele>9</ele>
        <time>2024-05-10T08:52:07Z</time>
      </trkpt>
      <trkpt lat="43.19751" lon="3.07161">
        <ele>8.8</ele>
        <time>2024-05-10T08:52:08Z</time>
      </trkpt>
      <trkpt lat="43.19747" lon="3.07157">
        <ele>8.7</ele>
        <time>2024-05-10T08:52:09Z</time>
      </trkpt>
      <trkpt lat="43.19742" lon="3.07153">
        <ele>8.5</ele>
        <time>2024-05-10T08:52:10Z</time>
      </trkpt>
      <trkpt lat="43.19738" lon="3.07149">
        <ele>8.4</ele>
        <time>2024-05-10T08:52:11Z</time>
      </trkpt>
      <trkpt lat="43.19734" lon="3.07146">
        <ele>8.3</ele>
        <time>2024-05-10T08:52:12Z</time>
      </trkpt>
      <trkpt lat="43.19728" lon="3.07141">
        <ele>8.1</ele>
        <time>2024-05-10T08:52:13Z</time>
      </trkpt>
      <trkpt lat="43.19722" lon="3.07135">
        <ele>7.9</ele>
        <time>2024-05-10T08:52:14Z</time>
      </trkpt>
      <trkpt lat="43.19716" lon="3.07131">
        <ele>7.6</ele>
        <time>2024-05-10T08:52:15Z</time>
      </trkpt>
      <trkpt lat="43.19709" lon="3.07127">
        <ele>7.3</ele>
        <time>2024-05-10T08:52:16Z</time>
      </trkpt>
      <trkpt lat="43.19701" lon="3.07124">
        <ele>7.1</ele>
        <time>2024-05-10T08:52:17Z</time>
      </trkpt>
      <trkpt lat="43.19693" lon="3.07122">
        <ele>7</ele>
        <time>2024-05-10T08:52:18Z</time>
      </trkpt>
      <trkpt lat="43.19687" lon="3.07121">
        <ele>7</ele>
        <time>2024-05-10T08:52:19Z</time>
      </trkpt>
      <trkpt lat="43.19683" lon="3.07122">
        <ele>7</ele>
        <time>2024-05-10T08:52:20Z</time>
      </trkpt>
      <trkpt lat="43.19681" lon="3.07122">
        <ele>7</ele>
        <time>2024-05-10T08:52:21Z</time>
      </trkpt>
      <trkpt lat="43.1968" lon="3.07122">
        <ele>7</ele>
        <time>2024-05-10T08:52:22Z</time>
      </trkpt>
      <trkpt lat="43.19678" lon="3.07122">
        <ele>7</ele>
        <time>2024-05-10T08:52:23Z</time>
      </trkpt>
      <trkpt lat="43.19678" lon="3.07122">
        <ele>7</ele>
        <time>2024-05-10T08:52:24Z</time>
      </trkpt>
      <trkpt lat="43.19677" lon="3.07121">
        <ele>7</ele>
        <time>2024-05-10T08:52:25Z</time>
      </trkpt>
      <trkpt lat="43.19677" lon="3.07122">
        <ele>7</ele>
        <time>2024-05-10T08:52:26Z</time>
      </trkpt>
      <trkpt lat="43.19677" lon="3.07121">
        <ele>7</ele>
        <time>2024-05-10T08:52:27Z</time>
      </trkpt>
      <trkpt lat="43.19678" lon="3.07121">
        <ele>7</ele>
        <time>2024-05-10T08:52:28Z</time>
      </trkpt>
      <trkpt lat="43.19678" lon="3.07121">
        <ele>7</ele>
        <time>2024-05-10T08:52:29Z</time>
      </trkpt>
      <trkpt lat="43.19678" lon="3.07121">
        <ele>7</ele>
        <time>2024-05-10T08:52:30Z</time>
      </trkpt>
      <trkpt lat="43.19677" lon="3.0712">
        <ele>7</ele>
        <time>2024-05-10T08:52:31Z</time>
      </trkpt>
      <trkpt lat="43.19675" lon="3.07118">
        <ele>7</ele>
        <time>2024-05-10T08:52:32Z</time>
      </trkpt>
      <trkpt lat="43.19672" lon="3.07111">
        <ele>7</ele>
        <time>2024-05-10T08:52:33Z</time>
      </trkpt>
      <trkpt lat="43.19668" lon="3.07102">
        <ele>7</ele>
        <time>2024-05-10T08:52:34Z</time>
      </trkpt>
      <trkpt lat="43.19664" lon="3.07091">
        <ele>6.9</ele>
        <time>2024-05-10T08:52:35Z</time>
      </trkpt>
      <trkpt lat="43.1966" lon="3.07079">
        <ele>6.5</ele>
        <time>2024-05-10T08:52:36Z</time>
      </trkpt>
      <trkpt lat="43.19653" lon="3.07066">
        <ele>5.9</ele>
        <time>2024-05-10T08:52:37Z</time>
      </trkpt>
      <trkpt lat="43.19643" lon="3.07054">
        <ele>5.8</ele>
        <time>2024-05-10T08:52:38Z</time>
      </trkpt>
      <trkpt lat="43.19632" lon="3.07045">
        <ele>5.6</ele>
        <time>2024-05-10T08:52:39Z</time>
      </trkpt>
      <trkpt lat="43.19619" lon="3.07034">
        <ele>5.2</ele>
        <time>2024-05-10T08:52:40Z</time>
      </trkpt>
      <trkpt lat="43.19603" lon="3.07023">
        <ele>5.2</ele>
        <time>2024-05-10T08:52:41Z</time>
      </trkpt>
      <trkpt lat="43.19588" lon="3.07012">
        <ele>5.4</ele>
        <time>2024-05-10T08:52:42Z</time>
      </trkpt>
      <trkpt lat="43.19572" lon="3.07002">
        <ele>5.5</ele>
        <time>2024-05-10T08:52:43Z</time>
      </trkpt>
      <trkpt lat="43.19555" lon="3.06991">
        <ele>5.7</ele>
        <time>2024-05-10T08:52:44Z</time>
      </trkpt>
      <trkpt lat="43.19538" lon="3.0698">
        <ele>5.7</ele>
        <time>2024-05-10T08:52:45Z</time>
      </trkpt>
      <trkpt lat="43.19519" lon="3.06969">
        <ele>5.9</ele>
        <time>2024-05-10T08:52:46Z</time>
      </trkpt>
      <trkpt lat="43.19501" lon="3.06957">
        <ele>5.5</ele>
        <time>2024-05-10T08:52:47Z</time>
      </trkpt>
      <trkpt lat="43.19483" lon="3.06945">
        <ele>5.6</ele>
        <time>2024-05-10T08:52:48Z</time>
      </trkpt>
      <trkpt lat="43.19464" lon="3.06934">
        <ele>5.8</ele>
        <time>2024-05-10T08:52:49Z</time>
      </trkpt>
      <trkpt lat="43.19444" lon="3.06922">
        <ele>6.8</ele>
        <time>2024-05-10T08:52:50Z</time>
      </trkpt>
      <trkpt lat="43.19424" lon="3.06909">
        <ele>6.7</ele>
        <time>2024-05-10T08:52:51Z</time>
      </trkpt>
      <trkpt lat="43.19404" lon="3.06897">
        <ele>6.6</ele>
        <time>2024-05-10T08:52:52Z</time>
      </trkpt>
      <trkpt lat="43.19383" lon="3.06883">
        <ele>6.4</ele>
        <time>2024-05-10T08:52:53Z</time>
      </trkpt>
      <trkpt lat="43.19361" lon="3.06869">
        <ele>5.3</ele>
        <time>2024-05-10T08:52:54Z</time>
      </trkpt>
      <trkpt lat="43.19339" lon="3.06856">
        <ele>5.6</ele>
        <time>2024-05-10T08:52:55Z</time>
      </trkpt>
      <trkpt lat="43.19318" lon="3.06843">
        <ele>5.7</ele>
        <time>2024-05-10T08:52:56Z</time>
      </trkpt>
      <trkpt lat="43.19297" lon="3.0683">
        <ele>5.8</ele>
        <time>2024-05-10T08:52:57Z</time>
      </trkpt>
      <trkpt lat="43.19277" lon="3.06818">
        <ele>6</ele>
        <time>2024-05-10T08:52:58Z</time>
      </trkpt>
      <trkpt lat="43.19257" lon="3.06806">
        <ele>6</ele>
        <time>2024-05-10T08:52:59Z</time>
      </trkpt>
      <trkpt lat="43.19238" lon="3.06795">
        <ele>5.8</ele>
        <time>2024-05-10T08:53:00Z</time>
      </trkpt>
      <trkpt lat="43.19219" lon="3.06784">
        <ele>6.3</ele>
        <time>2024-05-10T08:53:01Z</time>
      </trkpt>
      <trkpt lat="43.19201" lon="3.06773">
        <ele>7.2</ele>
        <time>2024-05-10T08:53:02Z</time>
      </trkpt>
      <trkpt lat="43.19183" lon="3.06761">
        <ele>7.6</ele>
        <time>2024-05-10T08:53:03Z</time>
      </trkpt>
      <trkpt lat="43.19165" lon="3.0675">
        <ele>8.1</ele>
        <time>2024-05-10T08:53:04Z</time>
      </trkpt>
      <trkpt lat="43.19149" lon="3.06737">
        <ele>8.2</ele>
        <time>2024-05-10T08:53:05Z</time>
      </trkpt>
      <trkpt lat="43.19134" lon="3.06723">
        <ele>8.2</ele>
        <time>2024-05-10T08:53:06Z</time>
      </trkpt>
      <trkpt lat="43.19121" lon="3.06706">
        <ele>8.6</ele>
        <time>2024-05-10T08:53:07Z</time>
      </trkpt>
      <trkpt lat="43.19109" lon="3.06686">
        <ele>9.6</ele>
        <time>2024-05-10T08:53:08Z</time>
      </trkpt>
      <trkpt lat="43.19098" lon="3.06664">
        <ele>11.4</ele>
        <time>2024-05-10T08:53:09Z</time>
      </trkpt>
      <trkpt lat="43.19089" lon="3.0664">
        <ele>10.3</ele>
        <time>2024-05-10T08:53:10Z</time>
      </trkpt>
      <trkpt lat="43.1908" lon="3.06616">
        <ele>11.1</ele>
        <time>2024-05-10T08:53:11Z</time>
      </trkpt>
      <trkpt lat="43.19071" lon="3.06592">
        <ele>11.6</ele>
        <time>2024-05-10T08:53:12Z</time>
      </trkpt>
      <trkpt lat="43.19062" lon="3.06569">
        <ele>11.3</ele>
        <time>2024-05-10T08:53:13Z</time>
      </trkpt>
      <trkpt lat="43.19053" lon="3.06549">
        <ele>10.9</ele>
        <time>2024-05-10T08:53:14Z</time>
      </trkpt>
      <trkpt lat="43.19041" lon="3.06531">
        <ele>11.1</ele>
        <time>2024-05-10T08:53:15Z</time>
      </trkpt>
      <trkpt lat="43.19029" lon="3.06518">
        <ele>11.2</ele>
        <time>2024-05-10T08:53:16Z</time>
      </trkpt>
      <trkpt lat="43.19014" lon="3.06508">
        <ele>11.8</ele>
        <time>2024-05-10T08:53:17Z</time>
      </trkpt>
      <trkpt lat="43.18999" lon="3.06503">
        <ele>13</ele>
        <time>2024-05-10T08:53:18Z</time>
      </trkpt>
      <trkpt lat="43.18984" lon="3.06503">
        <ele>12.8</ele>
        <time>2024-05-10T08:53:19Z</time>
      </trkpt>
      <trkpt lat="43.18968" lon="3.06507">
        <ele>11.8</ele>
        <time>2024-05-10T08:53:20Z</time>
      </trkpt>
      <trkpt lat="43.18951" lon="3.06514">
        <ele>9.6</ele>
        <time>2024-05-10T08:53:21Z</time>
      </trkpt>
      <trkpt lat="43.18934" lon="3.06523">
        <ele>9.6</ele>
        <time>2024-05-10T08:53:22Z</time>
      </trkpt>
      <trkpt lat="43.18916" lon="3.06532">
        <ele>11.5</ele>
        <time>2024-05-10T08:53:23Z</time>
      </trkpt>
      <trkpt lat="43.18898" lon="3.06541">
        <ele>12.8</ele>
        <time>2024-05-10T08:53:24Z</time>
      </trkpt>
      <trkpt lat="43.18882" lon="3.0655">
        <ele>13.6</ele>
        <time>2024-05-10T08:53:25Z</time>
      </trkpt>
      <trkpt lat="43.18865" lon="3.06559">
        <ele>14.1</ele>
        <time>2024-05-10T08:53:26Z</time>
      </trkpt>
      <trkpt lat="43.18849" lon="3.06566">
        <ele>14.6</ele>
        <time>2024-05-10T08:53:27Z</time>
      </trkpt>
      <trkpt lat="43.18833" lon="3.06573">
        <ele>15</ele>
        <time>2024-05-10T08:53:28Z</time>
      </trkpt>
      <trkpt lat="43.18818" lon="3.06578">
        <ele>15.4</ele>
        <time>2024-05-10T08:53:29Z</time>
      </trkpt>
      <trkpt lat="43.18804" lon="3.06581">
        <ele>16</ele>
        <time>2024-05-10T08:53:30Z</time>
      </trkpt>
      <trkpt lat="43.18791" lon="3.0658">
        <ele>16.4</ele>
        <time>2024-05-10T08:53:31Z</time>
      </trkpt>
      <trkpt lat="43.18779" lon="3.06577">
        <ele>16.7</ele>
        <time>2024-05-10T08:53:32Z</time>
      </trkpt>
      <trkpt lat="43.18768" lon="3.06572">
        <ele>16.9</ele>
        <time>2024-05-10T08:53:33Z</time>
      </trkpt>
      <trkpt lat="43.18759" lon="3.06568">
        <ele>17.1</ele>
        <time>2024-05-10T08:53:34Z</time>
      </trkpt>
      <trkpt lat="43.18751" lon="3.06564">
        <ele>17.3</ele>
        <time>2024-05-10T08:53:35Z</time>
      </trkpt>
      <trkpt lat="43.18744" lon="3.06561">
        <ele>17.2</ele>
        <time>2024-05-10T08:53:36Z</time>
      </trkpt>
      <trkpt lat="43.18737" lon="3.06557">
        <ele>17</ele>
        <time>2024-05-10T08:53:37Z</time>
      </trkpt>
      <trkpt lat="43.18731" lon="3.06554">
        <ele>16.9</ele>
        <time>2024-05-10T08:53:38Z</time>
      </trkpt>
      <trkpt lat="43.18724" lon="3.0655">
        <ele>16.8</ele>
        <time>2024-05-10T08:53:39Z</time>
      </trkpt>
      <trkpt lat="43.18717" lon="3.06547">
        <ele>16.7</ele>
        <time>2024-05-10T08:53:40Z</time>
      </trkpt>
      <trkpt lat="43.1871" lon="3.06544">
        <ele>16.6</ele>
        <time>2024-05-10T08:53:41Z</time>
      </trkpt>
      <trkpt lat="43.18702" lon="3.06541">
        <ele>16.5</ele>
        <time>2024-05-10T08:53:42Z</time>
      </trkpt>
      <trkpt lat="43.18694" lon="3.06537">
        <ele>16.3</ele>
        <time>2024-05-10T08:53:43Z</time>
      </trkpt>
      <trkpt lat="43.18684" lon="3.06532">
        <ele>16.2</ele>
        <time>2024-05-10T08:53:44Z</time>
      </trkpt>
      <trkpt lat="43.18672" lon="3.06526">
        <ele>15.9</ele>
        <time>2024-05-10T08:53:45Z</time>
      </trkpt>
      <trkpt lat="43.1866" lon="3.06522">
        <ele>16</ele>
        <time>2024-05-10T08:53:46Z</time>
      </trkpt>
      <trkpt lat="43.18648" lon="3.06516">
        <ele>16</ele>
        <time>2024-05-10T08:53:47Z</time>
      </trkpt>
      <trkpt lat="43.18637" lon="3.0651">
        <ele>15.8</ele>
        <time>2024-05-10T08:53:48Z</time>
      </trkpt>
      <trkpt lat="43.18627" lon="3.06506">
        <ele>15.9</ele>
        <time>2024-05-10T08:53:49Z</time>
      </trkpt>
      <trkpt lat="43.18616" lon="3.06501">
        <ele>15.9</ele>
        <time>2024-05-10T08:53:50Z</time>
      </trkpt>
      <trkpt lat="43.18606" lon="3.06497">
        <ele>16.1</ele>
        <time>2024-05-10T08:53:51Z</time>
      </trkpt>
      <trkpt lat="43.18596" lon="3.06492">
        <ele>16.1</ele>
        <time>2024-05-10T08:53:52Z</time>
      </trkpt>
      <trkpt lat="43.18586" lon="3.06489">
        <ele>16.2</ele>
        <time>2024-05-10T08:53:53Z</time>
      </trkpt>
      <trkpt lat="43.18576" lon="3.06486">
        <ele>16.1</ele>
        <time>2024-05-10T08:53:54Z</time>
      </trkpt>
      <trkpt lat="43.18567" lon="3.06481">
        <ele>16</ele>
        <time>2024-05-10T08:53:55Z</time>
      </trkpt>
      <trkpt lat="43.18557" lon="3.06476">
        <ele>16.1</ele>
        <time>2024-05-10T08:53:56Z</time>
      </trkpt>
      <trkpt lat="43.18548" lon="3.06471">
        <ele>16.2</ele>
        <time>2024-05-10T08:53:57Z</time>
      </trkpt>
      <trkpt lat="43.18539" lon="3.06466">
        <ele>16</ele>
        <time>2024-05-10T08:53:58Z</time>
      </trkpt>
      <trkpt lat="43.18529" lon="3.06461">
        <ele>15.8</ele>
        <time>2024-05-10T08:53:59Z</time>
      </trkpt>
      <trkpt lat="43.18518" lon="3.06455">
        <ele>15.4</ele>
        <time>2024-05-10T08:54:00Z</time>
      </trkpt>
      <trkpt lat="43.18507" lon="3.06448">
        <ele>15</ele>
        <time>2024-05-10T08:54:01Z</time>
      </trkpt>
      <trkpt lat="43.18496" lon="3.0644">
        <ele>14.8</ele>
        <time>2024-05-10T08:54:02Z</time>
      </trkpt>
      <trkpt lat="43.18484" lon="3.06431">
        <ele>14.6</ele>
        <time>2024-05-10T08:54:03Z</time>
      </trkpt>
      <trkpt lat="43.18472" lon="3.06422">
        <ele>14.4</ele>
        <time>2024-05-10T08:54:04Z</time>
      </trkpt>
      <trkpt lat="43.18459" lon="3.06413">
        <ele>14.7</ele>
        <time>2024-05-10T08:54:05Z</time>
      </trkpt>
      <trkpt lat="43.18445" lon="3.06403">
        <ele>15</ele>
        <time>2024-05-10T08:54:06Z</time>
      </trkpt>
      <trkpt lat="43.1843" lon="3.06393">
        <ele>14.7</ele>
        <time>2024-05-10T08:54:07Z</time>
      </trkpt>
      <trkpt lat="43.18415" lon="3.06385">
        <ele>14.7</ele>
        <time>2024-05-10T08:54:08Z</time>
      </trkpt>
      <trkpt lat="43.184" lon="3.06377">
        <ele>14.1</ele>
        <time>2024-05-10T08:54:09Z</time>
      </trkpt>
      <trkpt lat="43.18384" lon="3.06371">
        <ele>13.8</ele>
        <time>2024-05-10T08:54:10Z</time>
      </trkpt>
      <trkpt lat="43.18367" lon="3.06366">
        <ele>14</ele>
        <time>2024-05-10T08:54:11Z</time>
      </trkpt>
      <trkpt lat="43.18349" lon="3.06361">
        <ele>14.4</ele>
        <time>2024-05-10T08:54:12Z</time>
      </trkpt>
      <trkpt lat="43.18331" lon="3.06356">
        <ele>14.4</ele>
        <time>2024-05-10T08:54:13Z</time>
      </trkpt>
      <trkpt lat="43.18312" lon="3.0635">
        <ele>13.8</ele>
        <time>2024-05-10T08:54:14Z</time>
      </trkpt>
      <trkpt lat="43.18294" lon="3.06344">
        <ele>13.8</ele>
        <time>2024-05-10T08:54:15Z</time>
      </trkpt>
      <trkpt lat="43.18275" lon="3.06337">
        <ele>14.4</ele>
        <time>2024-05-10T08:54:16Z</time>
      </trkpt>
      <trkpt lat="43.18256" lon="3.0633">
        <ele>14.5</ele>
        <time>2024-05-10T08:54:17Z</time>
      </trkpt>
      <trkpt lat="43.18236" lon="3.06323">
        <ele>14.8</ele>
        <time>2024-05-10T08:54:18Z</time>
      </trkpt>
      <trkpt lat="43.18216" lon="3.06315">
        <ele>14.8</ele>
        <time>2024-05-10T08:54:19Z</time>
      </trkpt>
      <trkpt lat="43.18195" lon="3.06308">
        <ele>15.1</ele>
        <time>2024-05-10T08:54:20Z</time>
      </trkpt>
      <trkpt lat="43.18174" lon="3.06299">
        <ele>15.1</ele>
        <time>2024-05-10T08:54:21Z</time>
      </trkpt>
      <trkpt lat="43.18153" lon="3.06291">
        <ele>14.9</ele>
        <time>2024-05-10T08:54:22Z</time>
      </trkpt>
      <trkpt lat="43.18132" lon="3.06284">
        <ele>14.9</ele>
        <time>2024-05-10T08:54:23Z</time>
      </trkpt>
      <trkpt lat="43.18112" lon="3.06276">
        <ele>14.9</ele>
        <time>2024-05-10T08:54:24Z</time>
      </trkpt>
      <trkpt lat="43.18092" lon="3.06269">
        <ele>15.6</ele>
        <time>2024-05-10T08:54:25Z</time>
      </trkpt>
      <trkpt lat="43.18072" lon="3.06263">
        <ele>15.8</ele>
        <time>2024-05-10T08:54:26Z</time>
      </trkpt>
      <trkpt lat="43.18053" lon="3.06258">
        <ele>15.9</ele>
        <time>2024-05-10T08:54:27Z</time>
      </trkpt>
      <trkpt lat="43.18034" lon="3.06255">
        <ele>15.5</ele>
        <time>2024-05-10T08:54:28Z</time>
      </trkpt>
      <trkpt lat="43.18015" lon="3.06254">
        <ele>15.3</ele>
        <time>2024-05-10T08:54:29Z</time>
      </trkpt>
      <trkpt lat="43.17996" lon="3.06253">
        <ele>15.1</ele>
        <time>2024-05-10T08:54:30Z</time>
      </trkpt>
      <trkpt lat="43.17976" lon="3.06252">
        <ele>15.1</ele>
        <time>2024-05-10T08:54:31Z</time>
      </trkpt>
      <trkpt lat="43.17957" lon="3.06252">
        <ele>15.1</ele>
        <time>2024-05-10T08:54:32Z</time>
      </trkpt>
      <trkpt lat="43.17937" lon="3.06251">
        <ele>15.1</ele>
        <time>2024-05-10T08:54:33Z</time>
      </trkpt>
      <trkpt lat="43.17917" lon="3.06251">
        <ele>15.1</ele>
        <time>2024-05-10T08:54:34Z</time>
      </trkpt>
      <trkpt lat="43.17897" lon="3.0625">
        <ele>15</ele>
        <time>2024-05-10T08:54:35Z</time>
      </trkpt>
      <trkpt lat="43.17877" lon="3.06247">
        <ele>15.2</ele>
        <time>2024-05-10T08:54:36Z</time>
      </trkpt>
      <trkpt lat="43.17858" lon="3.06242">
        <ele>15.6</ele>
        <time>2024-05-10T08:54:37Z</time>
      </trkpt>
      <trkpt lat="43.17839" lon="3.06235">
        <ele>16.1</ele>
        <time>2024-05-10T08:54:38Z</time>
      </trkpt>
      <trkpt lat="43.17819" lon="3.06228">
        <ele>16.2</ele>
        <time>2024-05-10T08:54:39Z</time>
      </trkpt>
      <trkpt lat="43.17798" lon="3.06223">
        <ele>16.3</ele>
        <time>2024-05-10T08:54:40Z</time>
      </trkpt>
      <trkpt lat="43.17777" lon="3.06219">
        <ele>16.7</ele>
        <time>2024-05-10T08:54:41Z</time>
      </trkpt>
      <trkpt lat="43.17757" lon="3.06216">
        <ele>16</ele>
        <time>2024-05-10T08:54:42Z</time>
      </trkpt>
      <trkpt lat="43.17737" lon="3.06213">
        <ele>16</ele>
        <time>2024-05-10T08:54:43Z</time>
      </trkpt>
      <trkpt lat="43.17717" lon="3.06209">
        <ele>16</ele>
        <time>2024-05-10T08:54:44Z</time>
      </trkpt>
      <trkpt lat="43.17697" lon="3.06206">
        <ele>15.8</ele>
        <time>2024-05-10T08:54:45Z</time>
      </trkpt>
      <trkpt lat="43.17678" lon="3.06202">
        <ele>15.5</ele>
        <time>2024-05-10T08:54:46Z</time>
      </trkpt>
      <trkpt lat="43.17658" lon="3.06197">
        <ele>15.2</ele>
        <time>2024-05-10T08:54:47Z</time>
      </trkpt>
      <trkpt lat="43.17636" lon="3.06194">
        <ele>15</ele>
        <time>2024-05-10T08:54:48Z</time>
      </trkpt>
      <trkpt lat="43.17612" lon="3.06189">
        <ele>14.6</ele>
        <time>2024-05-10T08:54:49Z</time>
      </trkpt>
      <trkpt lat="43.17587" lon="3.06184">
        <ele>13.9</ele>
        <time>2024-05-10T08:54:50Z</time>
      </trkpt>
      <trkpt lat="43.17559" lon="3.06178">
        <ele>13.2</ele>
        <time>2024-05-10T08:54:51Z</time>
      </trkpt>
      <trkpt lat="43.17532" lon="3.06172">
        <ele>13.3</ele>
        <time>2024-05-10T08:54:52Z</time>
      </trkpt>
      <trkpt lat="43.17507" lon="3.06166">
        <ele>13.7</ele>
        <time>2024-05-10T08:54:53Z</time>
      </trkpt>
      <trkpt lat="43.17485" lon="3.06161">
        <ele>13.3</ele>
        <time>2024-05-10T08:54:54Z</time>
      </trkpt>
      <trkpt lat="43.17466" lon="3.06157">
        <ele>12.5</ele>
        <time>2024-05-10T08:54:55Z</time>
      </trkpt>
      <trkpt lat="43.1745" lon="3.06154">
        <ele>12.1</ele>
        <time>2024-05-10T08:54:56Z</time>
      </trkpt>
      <trkpt lat="43.17435" lon="3.06153">
        <ele>11.8</ele>
        <time>2024-05-10T08:54:57Z</time>
      </trkpt>
      <trkpt lat="43.17421" lon="3.06153">
        <ele>11.6</ele>
        <time>2024-05-10T08:54:58Z</time>
      </trkpt>
      <trkpt lat="43.17409" lon="3.06154">
        <ele>11.3</ele>
        <time>2024-05-10T08:54:59Z</time>
      </trkpt>
      <trkpt lat="43.17398" lon="3.06154">
        <ele>10.9</ele>
        <time>2024-05-10T08:55:00Z</time>
      </trkpt>
      <trkpt lat="43.1739" lon="3.06152">
        <ele>10.5</ele>
        <time>2024-05-10T08:55:01Z</time>
      </trkpt>
      <trkpt lat="43.17383" lon="3.0615">
        <ele>10.4</ele>
        <time>2024-05-10T08:55:02Z</time>
      </trkpt>
      <trkpt lat="43.17378" lon="3.06147">
        <ele>10.5</ele>
        <time>2024-05-10T08:55:03Z</time>
      </trkpt>
      <trkpt lat="43.17374" lon="3.06144">
        <ele>10.5</ele>
        <time>2024-05-10T08:55:04Z</time>
      </trkpt>
      <trkpt lat="43.17372" lon="3.06142">
        <ele>10.6</ele>
        <time>2024-05-10T08:55:05Z</time>
      </trkpt>
      <trkpt lat="43.17371" lon="3.06141">
        <ele>10.6</ele>
        <time>2024-05-10T08:55:06Z</time>
      </trkpt>
      <trkpt lat="43.1737" lon="3.0614">
        <ele>10.7</ele>
        <time>2024-05-10T08:55:07Z</time>
      </trkpt>
      <trkpt lat="43.1737" lon="3.0614">
        <ele>10.7</ele>
        <time>2024-05-10T08:55:08Z</time>
      </trkpt>
      <trkpt lat="43.1737" lon="3.0614">
        <ele>10.7</ele>
        <time>2024-05-10T08:55:09Z</time>
      </trkpt>
      <trkpt lat="43.17371" lon="3.0614">
        <ele>10.6</ele>
        <time>2024-05-10T08:55:10Z</time>
      </trkpt>
      <trkpt lat="43.17371" lon="3.0614">
        <ele>10.6</ele>
        <time>2024-05-10T08:55:11Z</time>
      </trkpt>
      <trkpt lat="43.17371" lon="3.0614">
        <ele>10.6</ele>
        <time>2024-05-10T08:55:12Z</time>
      </trkpt>
      <trkpt lat="43.1737" lon="3.0614">
        <ele>10.7</ele>
        <time>2024-05-10T08:55:13Z</time>
      </trkpt>
      <trkpt lat="43.17369" lon="3.06137">
        <ele>10.6</ele>
        <time>2024-05-10T08:55:14Z</time>
      </trkpt>
      <trkpt lat="43.17367" lon="3.06131">
        <ele>10.5</ele>
        <time>2024-05-10T08:55:15Z</time>
      </trkpt>
      <trkpt lat="43.17364" lon="3.06122">
        <ele>10.3</ele>
        <time>2024-05-10T08:55:16Z</time>
      </trkpt>
      <trkpt lat="43.17359" lon="3.06115">
        <ele>10.1</ele>
        <time>2024-05-10T08:55:17Z</time>
      </trkpt>
      <trkpt lat="43.17352" lon="3.0611">
        <ele>9.6</ele>
        <time>2024-05-10T08:55:18Z</time>
      </trkpt>
      <trkpt lat="43.17345" lon="3.06109">
        <ele>9.3</ele>
        <time>2024-05-10T08:55:19Z</time>
      </trkpt>
      <trkpt lat="43.1734" lon="3.0611">
        <ele>9.2</ele>
        <time>2024-05-10T08:55:20Z</time>
      </trkpt>
      <trkpt lat="43.17335" lon="3.06114">
        <ele>9.3</ele>
        <time>2024-05-10T08:55:21Z</time>
      </trkpt>
      <trkpt lat="43.17331" lon="3.06119">
        <ele>9.3</ele>
        <time>2024-05-10T08:55:22Z</time>
      </trkpt>
      <trkpt lat="43.17328" lon="3.06126">
        <ele>9.5</ele>
        <time>2024-05-10T08:55:23Z</time>
      </trkpt>
      <trkpt lat="43.17327" lon="3.06134">
        <ele>10</ele>
        <time>2024-05-10T08:55:24Z</time>
      </trkpt>
      <trkpt lat="43.17328" lon="3.06143">
        <ele>10.3</ele>
        <time>2024-05-10T08:55:25Z</time>
      </trkpt>
      <trkpt lat="43.17332" lon="3.06152">
        <ele>10.4</ele>
        <time>2024-05-10T08:55:26Z</time>
      </trkpt>
      <trkpt lat="43.17337" lon="3.06159">
        <ele>10.3</ele>
        <time>2024-05-10T08:55:27Z</time>
      </trkpt>
      <trkpt lat="43.17344" lon="3.06167">
        <ele>10</ele>
        <time>2024-05-10T08:55:28Z</time>
      </trkpt>
      <trkpt lat="43.1735" lon="3.06177">
        <ele>10.2</ele>
        <time>2024-05-10T08:55:29Z</time>
      </trkpt>
      <trkpt lat="43.17355" lon="3.06189">
        <ele>10.6</ele>
        <time>2024-05-10T08:55:30Z</time>
      </trkpt>
      <trkpt lat="43.17357" lon="3.06203">
        <ele>11.2</ele>
        <time>2024-05-10T08:55:31Z</time>
      </trkpt>
      <trkpt lat="43.17358" lon="3.06221">
        <ele>11.8</ele>
        <time>2024-05-10T08:55:32Z</time>
      </trkpt>
      <trkpt lat="43.17358" lon="3.06241">
        <ele>12.6</ele>
        <time>2024-05-10T08:55:33Z</time>
      </trkpt>
      <trkpt lat="43.17358" lon="3.06263">
        <ele>13.4</ele>
        <time>2024-05-10T08:55:34Z</time>
      </trkpt>
      <trkpt lat="43.17358" lon="3.06287">
        <ele>13.9</ele>
        <time>2024-05-10T08:55:35Z</time>
      </trkpt>
      <trkpt lat="43.17356" lon="3.06311">
        <ele>14.2</ele>
        <time>2024-05-10T08:55:36Z</time>
      </trkpt>
      <trkpt lat="43.17356" lon="3.06334">
        <ele>15</ele>
        <time>2024-05-10T08:55:37Z</time>
      </trkpt>
      <trkpt lat="43.17355" lon="3.06359">
        <ele>15.9</ele>
        <time>2024-05-10T08:55:38Z</time>
      </trkpt>
      <trkpt lat="43.17353" lon="3.06383">
        <ele>16.8</ele>
        <time>2024-05-10T08:55:39Z</time>
      </trkpt>
      <trkpt lat="43.17352" lon="3.06408">
        <ele>17.7</ele>
        <time>2024-05-10T08:55:40Z</time>
      </trkpt>
      <trkpt lat="43.17349" lon="3.06432">
        <ele>18.1</ele>
        <time>2024-05-10T08:55:41Z</time>
      </trkpt>
      <trkpt lat="43.17345" lon="3.06455">
        <ele>18.2</ele>
        <time>2024-05-10T08:55:42Z</time>
      </trkpt>
      <trkpt lat="43.17339" lon="3.06478">
        <ele>18.6</ele>
        <time>2024-05-10T08:55:43Z</time>
      </trkpt>
      <trkpt lat="43.17332" lon="3.06502">
        <ele>19</ele>
        <time>2024-05-10T08:55:44Z</time>
      </trkpt>
      <trkpt lat="43.17325" lon="3.06525">
        <ele>20.2</ele>
        <time>2024-05-10T08:55:45Z</time>
      </trkpt>
      <trkpt lat="43.17318" lon="3.06549">
        <ele>21.1</ele>
        <time>2024-05-10T08:55:46Z</time>
      </trkpt>
      <trkpt lat="43.17311" lon="3.06572">
        <ele>21.9</ele>
        <time>2024-05-10T08:55:47Z</time>
      </trkpt>
      <trkpt lat="43.17303" lon="3.06594">
        <ele>22.6</ele>
        <time>2024-05-10T08:55:48Z</time>
      </trkpt>
      <trkpt lat="43.17295" lon="3.06615">
        <ele>23.4</ele>
        <time>2024-05-10T08:55:49Z</time>
      </trkpt>
      <trkpt lat="43.17286" lon="3.06635">
        <ele>23.5</ele>
        <time>2024-05-10T08:55:50Z</time>
      </trkpt>
      <trkpt lat="43.17277" lon="3.06655">
        <ele>24.1</ele>
        <time>2024-05-10T08:55:51Z</time>
      </trkpt>
      <trkpt lat="43.17268" lon="3.06673">
        <ele>24</ele>
        <time>2024-05-10T08:55:52Z</time>
      </trkpt>
      <trkpt lat="43.17259" lon="3.06691">
        <ele>24</ele>
        <time>2024-05-10T08:55:53Z</time>
      </trkpt>
      <trkpt lat="43.17251" lon="3.06709">
        <ele>24.2</ele>
        <time>2024-05-10T08:55:54Z</time>
      </trkpt>
      <trkpt lat="43.17243" lon="3.06726">
        <ele>24.2</ele>
        <time>2024-05-10T08:55:55Z</time>
      </trkpt>
      <trkpt lat="43.17236" lon="3.06743">
        <ele>24.7</ele>
        <time>2024-05-10T08:55:56Z</time>
      </trkpt>
      <trkpt lat="43.1723" lon="3.06762">
        <ele>24.8</ele>
        <time>2024-05-10T08:55:57Z</time>
      </trkpt>
      <trkpt lat="43.17225" lon="3.06783">
        <ele>24.9</ele>
        <time>2024-05-10T08:55:58Z</time>
      </trkpt>
      <trkpt lat="43.17219" lon="3.06805">
        <ele>24.4</ele>
        <time>2024-05-10T08:55:59Z</time>
      </trkpt>
      <trkpt lat="43.17214" lon="3.06829">
        <ele>23.5</ele>
        <time>2024-05-10T08:56:00Z</time>
      </trkpt>
      <trkpt lat="43.17209" lon="3.06853">
        <ele>23.7</ele>
        <time>2024-05-10T08:56:01Z</time>
      </trkpt>
      <trkpt lat="43.17204" lon="3.06878">
        <ele>25</ele>
        <time>2024-05-10T08:56:02Z</time>
      </trkpt>
      <trkpt lat="43.17199" lon="3.06903">
        <ele>25.6</ele>
        <time>2024-05-10T08:56:03Z</time>
      </trkpt>
      <trkpt lat="43.17195" lon="3.06928">
        <ele>25.6</ele>
        <time>2024-05-10T08:56:04Z</time>
      </trkpt>
      <trkpt lat="43.17192" lon="3.06952">
        <ele>25.9</ele>
        <time>2024-05-10T08:56:05Z</time>
      </trkpt>
      <trkpt lat="43.17189" lon="3.06975">
        <ele>26.2</ele>
        <time>2024-05-10T08:56:06Z</time>
      </trkpt>
      <trkpt lat="43.17189" lon="3.06999">
        <ele>26.4</ele>
        <time>2024-05-10T08:56:07Z</time>
      </trkpt>
      <trkpt lat="43.17189" lon="3.07025">
        <ele>26.6</ele>
        <time>2024-05-10T08:56:08Z</time>
      </trkpt>
      <trkpt lat="43.17189" lon="3.07052">
        <ele>26.6</ele>
        <time>2024-05-10T08:56:09Z</time>
      </trkpt>
      <trkpt lat="43.1719" lon="3.07082">
        <ele>26.7</ele>
        <time>2024-05-10T08:56:10Z</time>
      </trkpt>
      <trkpt lat="43.17191" lon="3.07114">
        <ele>27.6</ele>
        <time>2024-05-10T08:56:11Z</time>
      </trkpt>
      <trkpt lat="43.17192" lon="3.07148">
        <ele>28.1</ele>
        <time>2024-05-10T08:56:12Z</time>
      </trkpt>
      <trkpt lat="43.17194" lon="3.07186">
        <ele>28.3</ele>
        <time>2024-05-10T08:56:13Z</time>
      </trkpt>
      <trkpt lat="43.17195" lon="3.07221">
        <ele>29.1</ele>
        <time>2024-05-10T08:56:14Z</time>
      </trkpt>
      <trkpt lat="43.17197" lon="3.07258">
        <ele>30.6</ele>
        <time>2024-05-10T08:56:15Z</time>
      </trkpt>
      <trkpt lat="43.17199" lon="3.07294">
        <ele>31</ele>
        <time>2024-05-10T08:56:16Z</time>
      </trkpt>
      <trkpt lat="43.17201" lon="3.0733">
        <ele>31</ele>
        <time>2024-05-10T08:56:17Z</time>
      </trkpt>
      <trkpt lat="43.17203" lon="3.07366">
        <ele>31.9</ele>
        <time>2024-05-10T08:56:18Z</time>
      </trkpt>
      <trkpt lat="43.17205" lon="3.074">
        <ele>32.4</ele>
        <time>2024-05-10T08:56:19Z</time>
      </trkpt>
      <trkpt lat="43.17206" lon="3.07432">
        <ele>32.5</ele>
        <time>2024-05-10T08:56:20Z</time>
      </trkpt>
      <trkpt lat="43.17208" lon="3.07464">
        <ele>33.2</ele>
        <time>2024-05-10T08:56:21Z</time>
      </trkpt>
      <trkpt lat="43.17211" lon="3.07492">
        <ele>33.8</ele>
        <time>2024-05-10T08:56:22Z</time>
      </trkpt>
      <trkpt lat="43.17215" lon="3.0752">
        <ele>34.2</ele>
        <time>2024-05-10T08:56:23Z</time>
      </trkpt>
      <trkpt lat="43.17222" lon="3.07546">
        <ele>35</ele>
        <time>2024-05-10T08:56:24Z</time>
      </trkpt>
      <trkpt lat="43.17231" lon="3.0757">
        <ele>36.1</ele>
        <time>2024-05-10T08:56:25Z</time>
      </trkpt>
      <trkpt lat="43.17242" lon="3.0759">
        <ele>37</ele>
        <time>2024-05-10T08:56:26Z</time>
      </trkpt>
      <trkpt lat="43.17256" lon="3.07605">
        <ele>37</ele>
        <time>2024-05-10T08:56:27Z</time>
      </trkpt>
      <trkpt lat="43.17271" lon="3.07617">
        <ele>37.1</ele>
        <time>2024-05-10T08:56:28Z</time>
      </trkpt>
      <trkpt lat="43.17287" lon="3.07629">
        <ele>37.1</ele>
        <time>2024-05-10T08:56:29Z</time>
      </trkpt>
      <trkpt lat="43.17303" lon="3.07641">
        <ele>37.8</ele>
        <time>2024-05-10T08:56:30Z</time>
      </trkpt>
      <trkpt lat="43.17319" lon="3.07653">
        <ele>37.7</ele>
        <time>2024-05-10T08:56:31Z</time>
      </trkpt>
      <trkpt lat="43.17334" lon="3.07665">
        <ele>38</ele>
        <time>2024-05-10T08:56:32Z</time>
      </trkpt>
      <trkpt lat="43.17348" lon="3.07678">
        <ele>38.7</ele>
        <time>2024-05-10T08:56:33Z</time>
      </trkpt>
      <trkpt lat="43.17359" lon="3.07692">
        <ele>39</ele>
        <time>2024-05-10T08:56:34Z</time>
      </trkpt>
      <trkpt lat="43.17368" lon="3.07708">
        <ele>39.6</ele>
        <time>2024-05-10T08:56:35Z</time>
      </trkpt>
      <trkpt lat="43.17375" lon="3.07727">
        <ele>40.3</ele>
        <time>2024-05-10T08:56:36Z</time>
      </trkpt>
      <trkpt lat="43.17382" lon="3.07748">
        <ele>41.4</ele>
        <time>2024-05-10T08:56:37Z</time>
      </trkpt>
      <trkpt lat="43.17387" lon="3.07771">
        <ele>42</ele>
        <time>2024-05-10T08:56:38Z</time>
      </trkpt>
      <trkpt lat="43.17392" lon="3.07795">
        <ele>42.6</ele>
        <time>2024-05-10T08:56:39Z</time>
      </trkpt>
      <trkpt lat="43.17395" lon="3.0782">
        <ele>43.7</ele>
        <time>2024-05-10T08:56:40Z</time>
      </trkpt>
      <trkpt lat="43.17398" lon="3.07843">
        <ele>44.6</ele>
        <time>2024-05-10T08:56:41Z</time>
      </trkpt>
      <trkpt lat="43.17402" lon="3.07865">
        <ele>44.7</ele>
        <time>2024-05-10T08:56:42Z</time>
      </trkpt>
      <trkpt lat="43.17409" lon="3.07886">
        <ele>45.1</ele>
        <time>2024-05-10T08:56:43Z</time>
      </trkpt>
      <trkpt lat="43.17419" lon="3.07906">
        <ele>45.1</ele>
        <time>2024-05-10T08:56:44Z</time>
      </trkpt>
      <trkpt lat="43.1743" lon="3.07928">
        <ele>45.7</ele>
        <time>2024-05-10T08:56:45Z</time>
      </trkpt>
      <trkpt lat="43.17441" lon="3.07949">
        <ele>46.8</ele>
        <time>2024-05-10T08:56:46Z</time>
      </trkpt>
      <trkpt lat="43.17453" lon="3.07972">
        <ele>48.5</ele>
        <time>2024-05-10T08:56:47Z</time>
      </trkpt>
      <trkpt lat="43.17463" lon="3.07993">
        <ele>49.3</ele>
        <time>2024-05-10T08:56:48Z</time>
      </trkpt>
      <trkpt lat="43.17472" lon="3.08015">
        <ele>49.4</ele>
        <time>2024-05-10T08:56:49Z</time>
      </trkpt>
      <trkpt lat="43.17478" lon="3.08038">
        <ele>50.1</ele>
        <time>2024-05-10T08:56:50Z</time>
      </trkpt>
      <trkpt lat="43.17483" lon="3.08061">
        <ele>51.9</ele>
        <time>2024-05-10T08:56:51Z</time>
      </trkpt>
      <trkpt lat="43.17487" lon="3.08085">
        <ele>52.7</ele>
        <time>2024-05-10T08:56:52Z</time>
      </trkpt>
      <trkpt lat="43.17491" lon="3.08109">
        <ele>53.7</ele>
        <time>2024-05-10T08:56:53Z</time>
      </trkpt>
      <trkpt lat="43.17493" lon="3.08134">
        <ele>54.8</ele>
        <time>2024-05-10T08:56:54Z</time>
      </trkpt>
      <trkpt lat="43.17494" lon="3.08157">
        <ele>55.3</ele>
        <time>2024-05-10T08:56:55Z</time>
      </trkpt>
      <trkpt lat="43.17494" lon="3.0818">
        <ele>55.5</ele>
        <time>2024-05-10T08:56:56Z</time>
      </trkpt>
      <trkpt lat="43.1749" lon="3.08202">
        <ele>56</ele>
        <time>2024-05-10T08:56:57Z</time>
      </trkpt>
      <trkpt lat="43.17485" lon="3.08222">
        <ele>57.4</ele>
        <time>2024-05-10T08:56:58Z</time>
      </trkpt>
      <trkpt lat="43.1748" lon="3.0824">
        <ele>58.3</ele>
        <time>2024-05-10T08:56:59Z</time>
      </trkpt>
      <trkpt lat="43.17476" lon="3.08258">
        <ele>59.7</ele>
        <time>2024-05-10T08:57:00Z</time>
      </trkpt>
      <trkpt lat="43.17474" lon="3.08275">
        <ele>61.9</ele>
        <time>2024-05-10T08:57:01Z</time>
      </trkpt>
      <trkpt lat="43.17473" lon="3.0829">
        <ele>63</ele>
        <time>2024-05-10T08:57:02Z</time>
      </trkpt>
      <trkpt lat="43.17473" lon="3.08305">
        <ele>64.1</ele>
        <time>2024-05-10T08:57:03Z</time>
      </trkpt>
      <trkpt lat="43.17475" lon="3.08321">
        <ele>64.3</ele>
        <time>2024-05-10T08:57:04Z</time>
      </trkpt>
      <trkpt lat="43.17477" lon="3.08338">
        <ele>65</ele>
        <time>2024-05-10T08:57:05Z</time>
      </trkpt>
      <trkpt lat="43.17479" lon="3.08356">
        <ele>66.3</ele>
        <time>2024-05-10T08:57:06Z</time>
      </trkpt>
      <trkpt lat="43.1748" lon="3.08375">
        <ele>67.5</ele>
        <time>2024-05-10T08:57:07Z</time>
      </trkpt>
      <trkpt lat="43.17479" lon="3.08394">
        <ele>68.1</ele>
        <time>2024-05-10T08:57:08Z</time>
      </trkpt>
      <trkpt lat="43.17478" lon="3.08413">
        <ele>68.7</ele>
        <time>2024-05-10T08:57:09Z</time>
      </trkpt>
      <trkpt lat="43.17474" lon="3.0843">
        <ele>68.6</ele>
        <time>2024-05-10T08:57:10Z</time>
      </trkpt>
      <trkpt lat="43.17468" lon="3.08447">
        <ele>68.1</ele>
        <time>2024-05-10T08:57:11Z</time>
      </trkpt>
      <trkpt lat="43.17463" lon="3.08464">
        <ele>68.3</ele>
        <time>2024-05-10T08:57:12Z</time>
      </trkpt>
      <trkpt lat="43.17458" lon="3.08483">
        <ele>70.8</ele>
        <time>2024-05-10T08:57:13Z</time>
      </trkpt>
      <trkpt lat="43.17455" lon="3.08505">
        <ele>74.9</ele>
        <time>2024-05-10T08:57:14Z</time>
      </trkpt>
      <trkpt lat="43.17454" lon="3.0853">
        <ele>77.7</ele>
        <time>2024-05-10T08:57:15Z</time>
      </trkpt>
      <trkpt lat="43.17456" lon="3.08558">
        <ele>77.6</ele>
        <time>2024-05-10T08:57:16Z</time>
      </trkpt>
      <trkpt lat="43.1746" lon="3.0859">
        <ele>77.4</ele>
        <time>2024-05-10T08:57:17Z</time>
      </trkpt>
      <trkpt lat="43.17463" lon="3.08625">
        <ele>79.9</ele>
        <time>2024-05-10T08:57:18Z</time>
      </trkpt>
      <trkpt lat="43.17464" lon="3.08657">
        <ele>81.8</ele>
        <time>2024-05-10T08:57:19Z</time>
      </trkpt>
      <trkpt lat="43.17466" lon="3.08688">
        <ele>83.4</ele>
        <time>2024-05-10T08:57:20Z</time>
      </trkpt>
      <trkpt lat="43.17471" lon="3.0872">
        <ele>85.6</ele>
        <time>2024-05-10T08:57:21Z</time>
      </trkpt>
      <trkpt lat="43.17477" lon="3.08752">
        <ele>88.4</ele>
        <time>2024-05-10T08:57:22Z</time>
      </trkpt>
      <trkpt lat="43.17487" lon="3.08787">
        <ele>89.9</ele>
        <time>2024-05-10T08:57:23Z</time>
      </trkpt>
      <trkpt lat="43.17498" lon="3.08823">
        <ele>91</ele>
        <time>2024-05-10T08:57:24Z</time>
      </trkpt>
      <trkpt lat="43.17509" lon="3.0886">
        <ele>94.3</ele>
        <time>2024-05-10T08:57:25Z</time>
      </trkpt>
      <trkpt lat="43.17519" lon="3.08895">
        <ele>94.8</ele>
        <time>2024-05-10T08:57:26Z</time>
      </trkpt>
      <trkpt lat="43.17529" lon="3.08928">
        <ele>97.4</ele>
        <time>2024-05-10T08:57:27Z</time>
      </trkpt>
      <trkpt lat="43.17538" lon="3.0896">
        <ele>100.5</ele>
        <time>2024-05-10T08:57:28Z</time>
      </trkpt>
      <trkpt lat="43.17547" lon="3.08991">
        <ele>101.3</ele>
        <time>2024-05-10T08:57:29Z</time>
      </trkpt>
      <trkpt lat="43.17558" lon="3.09021">
        <ele>103</ele>
        <time>2024-05-10T08:57:30Z</time>
      </trkpt>
      <trkpt lat="43.17569" lon="3.09048">
        <ele>104.5</ele>
        <time>2024-05-10T08:57:31Z</time>
      </trkpt>
      <trkpt lat="43.17579" lon="3.09072">
        <ele>105</ele>
        <time>2024-05-10T08:57:32Z</time>
      </trkpt>
      <trkpt lat="43.17588" lon="3.09093">
        <ele>106.4</ele>
        <time>2024-05-10T08:57:33Z</time>
      </trkpt>
      <trkpt lat="43.17597" lon="3.09113">
        <ele>107.8</ele>
        <time>2024-05-10T08:57:34Z</time>
      </trkpt>
      <trkpt lat="43.17604" lon="3.09133">
        <ele>107.6</ele>
        <time>2024-05-10T08:57:35Z</time>
      </trkpt>
      <trkpt lat="43.1761" lon="3.09152">
        <ele>107.9</ele>
        <time>2024-05-10T08:57:36Z</time>
      </trkpt>
      <trkpt lat="43.17613" lon="3.09174">
        <ele>108.8</ele>
        <time>2024-05-10T08:57:37Z</time>
      </trkpt>
      <trkpt lat="43.17615" lon="3.09196">
        <ele>109.7</ele>
        <time>2024-05-10T08:57:38Z</time>
      </trkpt>
      <trkpt lat="43.17617" lon="3.09219">
        <ele>109.8</ele>
        <time>2024-05-10T08:57:39Z</time>
      </trkpt>
      <trkpt lat="43.17619" lon="3.09241">
        <ele>109.6</ele>
        <time>2024-05-10T08:57:40Z</time>
      </trkpt>
      <trkpt lat="43.17619" lon="3.09262">
        <ele>109.3</ele>
        <time>2024-05-10T08:57:41Z</time>
      </trkpt>
      <trkpt lat="43.17621" lon="3.09281">
        <ele>108.4</ele>
        <time>2024-05-10T08:57:42Z</time>
      </trkpt>
      <trkpt lat="43.17622" lon="3.093">
        <ele>107.6</ele>
        <time>2024-05-10T08:57:43Z</time>
      </trkpt>
      <trkpt lat="43.17625" lon="3.09319">
        <ele>107</ele>
        <time>2024-05-10T08:57:44Z</time>
      </trkpt>
      <trkpt lat="43.17628" lon="3.09339">
        <ele>106.7</ele>
        <time>2024-05-10T08:57:45Z</time>
      </trkpt>
      <trkpt lat="43.17631" lon="3.0936">
        <ele>106.6</ele>
        <time>2024-05-10T08:57:46Z</time>
      </trkpt>
      <trkpt lat="43.17635" lon="3.09383">
        <ele>104.9</ele>
        <time>2024-05-10T08:57:47Z</time>
      </trkpt>
      <trkpt lat="43.17639" lon="3.09408">
        <ele>102.3</ele>
        <time>2024-05-10T08:57:48Z</time>
      </trkpt>
      <trkpt lat="43.17644" lon="3.09433">
        <ele>100.7</ele>
        <time>2024-05-10T08:57:49Z</time>
      </trkpt>
      <trkpt lat="43.17648" lon="3.09457">
        <ele>100.1</ele>
        <time>2024-05-10T08:57:50Z</time>
      </trkpt>
      <trkpt lat="43.17652" lon="3.09483">
        <ele>99.9</ele>
        <time>2024-05-10T08:57:51Z</time>
      </trkpt>
      <trkpt lat="43.17656" lon="3.09509">
        <ele>99.5</ele>
        <time>2024-05-10T08:57:52Z</time>
      </trkpt>
      <trkpt lat="43.17659" lon="3.09534">
        <ele>98.8</ele>
        <time>2024-05-10T08:57:53Z</time>
      </trkpt>
      <trkpt lat="43.17662" lon="3.09559">
        <ele>96.2</ele>
        <time>2024-05-10T08:57:54Z</time>
      </trkpt>
      <trkpt lat="43.17667" lon="3.09583">
        <ele>94.9</ele>
        <time>2024-05-10T08:57:55Z</time>
      </trkpt>
      <trkpt lat="43.17674" lon="3.09606">
        <ele>93.2</ele>
        <time>2024-05-10T08:57:56Z</time>
      </trkpt>
      <trkpt lat="43.17682" lon="3.09627">
        <ele>95.1</ele>
        <time>2024-05-10T08:57:57Z</time>
      </trkpt>
      <trkpt lat="43.17692" lon="3.09648">
        <ele>96.2</ele>
        <time>2024-05-10T08:57:58Z</time>
      </trkpt>
      <trkpt lat="43.17701" lon="3.0967">
        <ele>96.5</ele>
        <time>2024-05-10T08:57:59Z</time>
      </trkpt>
      <trkpt lat="43.17708" lon="3.09693">
        <ele>97.9</ele>
        <time>2024-05-10T08:58:00Z</time>
      </trkpt>
      <trkpt lat="43.17713" lon="3.09716">
        <ele>99.3</ele>
        <time>2024-05-10T08:58:01Z</time>
      </trkpt>
      <trkpt lat="43.17717" lon="3.09739">
        <ele>100.4</ele>
        <time>2024-05-10T08:58:02Z</time>
      </trkpt>
      <trkpt lat="43.17721" lon="3.09761">
        <ele>100.5</ele>
        <time>2024-05-10T08:58:03Z</time>
      </trkpt>
      <trkpt lat="43.17723" lon="3.09784">
        <ele>100.9</ele>
        <time>2024-05-10T08:58:04Z</time>
      </trkpt>
      <trkpt lat="43.17723" lon="3.09807">
        <ele>101.8</ele>
        <time>2024-05-10T08:58:05Z</time>
      </trkpt>
      <trkpt lat="43.1772" lon="3.0983">
        <ele>104.2</ele>
        <time>2024-05-10T08:58:06Z</time>
      </trkpt>
      <trkpt lat="43.17715" lon="3.09853">
        <ele>106.5</ele>
        <time>2024-05-10T08:58:07Z</time>
      </trkpt>
      <trkpt lat="43.1771" lon="3.09875">
        <ele>105.4</ele>
        <time>2024-05-10T08:58:08Z</time>
      </trkpt>
      <trkpt lat="43.17706" lon="3.09899">
        <ele>104.1</ele>
        <time>2024-05-10T08:58:09Z</time>
      </trkpt>
      <trkpt lat="43.17705" lon="3.09924">
        <ele>105.4</ele>
        <time>2024-05-10T08:58:10Z</time>
      </trkpt>
      <trkpt lat="43.17707" lon="3.09949">
        <ele>107.4</ele>
        <time>2024-05-10T08:58:11Z</time>
      </trkpt>
      <trkpt lat="43.17711" lon="3.09975">
        <ele>109.1</ele>
        <time>2024-05-10T08:58:12Z</time>
      </trkpt>
      <trkpt lat="43.17717" lon="3.09999">
        <ele>109.4</ele>
        <time>2024-05-10T08:58:13Z</time>
      </trkpt>
      <trkpt lat="43.17725" lon="3.10022">
        <ele>108.4</ele>
        <time>2024-05-10T08:58:14Z</time>
      </trkpt>
      <trkpt lat="43.17731" lon="3.10046">
        <ele>110.6</ele>
        <time>2024-05-10T08:58:15Z</time>
      </trkpt>
      <trkpt lat="43.17736" lon="3.10071">
        <ele>111.9</ele>
        <time>2024-05-10T08:58:16Z</time>
      </trkpt>
      <trkpt lat="43.17737" lon="3.10096">
        <ele>112.5</ele>
        <time>2024-05-10T08:58:17Z</time>
      </trkpt>
      <trkpt lat="43.17736" lon="3.10121">
        <ele>113.2</ele>
        <time>2024-05-10T08:58:18Z</time>
      </trkpt>
      <trkpt lat="43.17731" lon="3.10142">
        <ele>114.2</ele>
        <time>2024-05-10T08:58:19Z</time>
      </trkpt>
      <trkpt lat="43.17724" lon="3.10159">
        <ele>114.3</ele>
        <time>2024-05-10T08:58:20Z</time>
      </trkpt>
      <trkpt lat="43.17714" lon="3.10173">
        <ele>114.7</ele>
        <time>2024-05-10T08:58:21Z</time>
      </trkpt>
      <trkpt lat="43.17703" lon="3.10184">
        <ele>115.2</ele>
        <time>2024-05-10T08:58:22Z</time>
      </trkpt>
      <trkpt lat="43.17694" lon="3.10192">
        <ele>115.4</ele>
        <time>2024-05-10T08:58:23Z</time>
      </trkpt>
      <trkpt lat="43.17686" lon="3.102">
        <ele>115.3</ele>
        <time>2024-05-10T08:58:24Z</time>
      </trkpt>
      <trkpt lat="43.17678" lon="3.10208">
        <ele>115.5</ele>
        <time>2024-05-10T08:58:25Z</time>
      </trkpt>
      <trkpt lat="43.17673" lon="3.10217">
        <ele>115.5</ele>
        <time>2024-05-10T08:58:26Z</time>
      </trkpt>
      <trkpt lat="43.17667" lon="3.10227">
        <ele>116</ele>
        <time>2024-05-10T08:58:27Z</time>
      </trkpt>
      <trkpt lat="43.17664" lon="3.10237">
        <ele>115.8</ele>
        <time>2024-05-10T08:58:28Z</time>
      </trkpt>
      <trkpt lat="43.1766" lon="3.10249">
        <ele>115.3</ele>
        <time>2024-05-10T08:58:29Z</time>
      </trkpt>
      <trkpt lat="43.17657" lon="3.10261">
        <ele>116</ele>
        <time>2024-05-10T08:58:30Z</time>
      </trkpt>
      <trkpt lat="43.17655" lon="3.10277">
        <ele>117.5</ele>
        <time>2024-05-10T08:58:31Z</time>
      </trkpt>
      <trkpt lat="43.17654" lon="3.10294">
        <ele>118.4</ele>
        <time>2024-05-10T08:58:32Z</time>
      </trkpt>
      <trkpt lat="43.17653" lon="3.10313">
        <ele>119.3</ele>
        <time>2024-05-10T08:58:33Z</time>
      </trkpt>
      <trkpt lat="43.17654" lon="3.10335">
        <ele>120.1</ele>
        <time>2024-05-10T08:58:34Z</time>
      </trkpt>
      <trkpt lat="43.17656" lon="3.10361">
        <ele>121</ele>
        <time>2024-05-10T08:58:35Z</time>
      </trkpt>
      <trkpt lat="43.17658" lon="3.10389">
        <ele>120.9</ele>
        <time>2024-05-10T08:58:36Z</time>
      </trkpt>
      <trkpt lat="43.1766" lon="3.1042">
        <ele>120.7</ele>
        <time>2024-05-10T08:58:37Z</time>
      </trkpt>
      <trkpt lat="43.17662" lon="3.1045">
        <ele>120.5</ele>
        <time>2024-05-10T08:58:38Z</time>
      </trkpt>
      <trkpt lat="43.17664" lon="3.10482">
        <ele>120.5</ele>
        <time>2024-05-10T08:58:39Z</time>
      </trkpt>
      <trkpt lat="43.17666" lon="3.10516">
        <ele>121.6</ele>
        <time>2024-05-10T08:58:40Z</time>
      </trkpt>
      <trkpt lat="43.17668" lon="3.10551">
        <ele>122.5</ele>
        <time>2024-05-10T08:58:41Z</time>
      </trkpt>
      <trkpt lat="43.1767" lon="3.10584">
        <ele>122.8</ele>
        <time>2024-05-10T08:58:42Z</time>
      </trkpt>
      <trkpt lat="43.17671" lon="3.10616">
        <ele>123.1</ele>
        <time>2024-05-10T08:58:43Z</time>
      </trkpt>
      <trkpt lat="43.17672" lon="3.10645">
        <ele>123.8</ele>
        <time>2024-05-10T08:58:44Z</time>
      </trkpt>
      <trkpt lat="43.17672" lon="3.10671">
        <ele>123.7</ele>
        <time>2024-05-10T08:58:45Z</time>
      </trkpt>
      <trkpt lat="43.17671" lon="3.10693">
        <ele>123.5</ele>
        <time>2024-05-10T08:58:46Z</time>
      </trkpt>
      <trkpt lat="43.17667" lon="3.10713">
        <ele>123.9</ele>
        <time>2024-05-10T08:58:47Z</time>
      </trkpt>
      <trkpt lat="43.1766" lon="3.10731">
        <ele>124.6</ele>
        <time>2024-05-10T08:58:48Z</time>
      </trkpt>
      <trkpt lat="43.17652" lon="3.10747">
        <ele>124.6</ele>
        <time>2024-05-10T08:58:49Z</time>
      </trkpt>
      <trkpt lat="43.17642" lon="3.10763">
        <ele>125</ele>
        <time>2024-05-10T08:58:50Z</time>
      </trkpt>
      <trkpt lat="43.1763" lon="3.10776">
        <ele>125.3</ele>
        <time>2024-05-10T08:58:51Z</time>
      </trkpt>
      <trkpt lat="43.17617" lon="3.10786">
        <ele>125.6</ele>
        <time>2024-05-10T08:58:52Z</time>
      </trkpt>
      <trkpt lat="43.17604" lon="3.10794">
        <ele>125.5</ele>
        <time>2024-05-10T08:58:53Z</time>
      </trkpt>
      <trkpt lat="43.17591" lon="3.10802">
        <ele>125.2</ele>
        <time>2024-05-10T08:58:54Z</time>
      </trkpt>
      <trkpt lat="43.17578" lon="3.10809">
        <ele>125</ele>
        <time>2024-05-10T08:58:55Z</time>
      </trkpt>
      <trkpt lat="43.17565" lon="3.10817">
        <ele>125.1</ele>
        <time>2024-05-10T08:58:56Z</time>
      </trkpt>
      <trkpt lat="43.17553" lon="3.10825">
        <ele>125.4</ele>
        <time>2024-05-10T08:58:57Z</time>
      </trkpt>
      <trkpt lat="43.1754" lon="3.10833">
        <ele>125.6</ele>
        <time>2024-05-10T08:58:58Z</time>
      </trkpt>
      <trkpt lat="43.17529" lon="3.10842">
        <ele>125.6</ele>
        <time>2024-05-10T08:58:59Z</time>
      </trkpt>
      <trkpt lat="43.17518" lon="3.10851">
        <ele>126.1</ele>
        <time>2024-05-10T08:59:00Z</time>
      </trkpt>
      <trkpt lat="43.17509" lon="3.10861">
        <ele>126.4</ele>
        <time>2024-05-10T08:59:01Z</time>
      </trkpt>
      <trkpt lat="43.175" lon="3.10874">
        <ele>126.1</ele>
        <time>2024-05-10T08:59:02Z</time>
      </trkpt>
      <trkpt lat="43.17494" lon="3.10889">
        <ele>125.6</ele>
        <time>2024-05-10T08:59:03Z</time>
      </trkpt>
      <trkpt lat="43.17489" lon="3.10906">
        <ele>125.6</ele>
        <time>2024-05-10T08:59:04Z</time>
      </trkpt>
      <trkpt lat="43.17486" lon="3.10924">
        <ele>125.4</ele>
        <time>2024-05-10T08:59:05Z</time>
      </trkpt>
      <trkpt lat="43.17484" lon="3.10943">
        <ele>125.2</ele>
        <time>2024-05-10T08:59:06Z</time>
      </trkpt>
      <trkpt lat="43.17483" lon="3.10964">
        <ele>124.5</ele>
        <time>2024-05-10T08:59:07Z</time>
      </trkpt>
      <trkpt lat="43.17482" lon="3.10984">
        <ele>124.6</ele>
        <time>2024-05-10T08:59:08Z</time>
      </trkpt>
      <trkpt lat="43.17481" lon="3.11004">
        <ele>125</ele>
        <time>2024-05-10T08:59:09Z</time>
      </trkpt>
      <trkpt lat="43.17479" lon="3.11023">
        <ele>124.6</ele>
        <time>2024-05-10T08:59:10Z</time>
      </trkpt>
      <trkpt lat="43.17476" lon="3.11043">
        <ele>125.4</ele>
        <time>2024-05-10T08:59:11Z</time>
      </trkpt>
      <trkpt lat="43.17472" lon="3.11062">
        <ele>126.2</ele>
        <time>2024-05-10T08:59:12Z</time>
      </trkpt>
      <trkpt lat="43.17466" lon="3.11079">
        <ele>126.9</ele>
        <time>2024-05-10T08:59:13Z</time>
      </trkpt>
      <trkpt lat="43.17457" lon="3.11094">
        <ele>127</ele>
        <time>2024-05-10T08:59:14Z</time>
      </trkpt>
      <trkpt lat="43.17446" lon="3.11108">
        <ele>127.8</ele>
        <time>2024-05-10T08:59:15Z</time>
      </trkpt>
      <trkpt lat="43.17435" lon="3.11119">
        <ele>128.3</ele>
        <time>2024-05-10T08:59:16Z</time>
      </trkpt>
      <trkpt lat="43.17422" lon="3.1113">
        <ele>128.8</ele>
        <time>2024-05-10T08:59:17Z</time>
      </trkpt>
      <trkpt lat="43.17408" lon="3.1114">
        <ele>129.7</ele>
        <time>2024-05-10T08:59:18Z</time>
      </trkpt>
      <trkpt lat="43.17395" lon="3.1115">
        <ele>130.4</ele>
        <time>2024-05-10T08:59:19Z</time>
      </trkpt>
      <trkpt lat="43.1738" lon="3.11158">
        <ele>131.1</ele>
        <time>2024-05-10T08:59:20Z</time>
      </trkpt>
      <trkpt lat="43.17365" lon="3.11164">
        <ele>132.5</ele>
        <time>2024-05-10T08:59:21Z</time>
      </trkpt>
      <trkpt lat="43.17349" lon="3.1117">
        <ele>133.6</ele>
        <time>2024-05-10T08:59:22Z</time>
      </trkpt>
      <trkpt lat="43.17332" lon="3.11176">
        <ele>134.4</ele>
        <time>2024-05-10T08:59:23Z</time>
      </trkpt>
      <trkpt lat="43.17314" lon="3.11183">
        <ele>135</ele>
        <time>2024-05-10T08:59:24Z</time>
      </trkpt>
      <trkpt lat="43.17297" lon="3.11189">
        <ele>135.4</ele>
        <time>2024-05-10T08:59:25Z</time>
      </trkpt>
      <trkpt lat="43.1728" lon="3.11197">
        <ele>135.3</ele>
        <time>2024-05-10T08:59:26Z</time>
      </trkpt>
      <trkpt lat="43.17264" lon="3.11207">
        <ele>135.7</ele>
        <time>2024-05-10T08:59:27Z</time>
      </trkpt>
      <trkpt lat="43.17247" lon="3.11218">
        <ele>135.8</ele>
        <time>2024-05-10T08:59:28Z</time>
      </trkpt>
      <trkpt lat="43.17233" lon="3.11229">
        <ele>136.5</ele>
        <time>2024-05-10T08:59:29Z</time>
      </trkpt>
      <trkpt lat="43.17219" lon="3.11241">
        <ele>137</ele>
        <time>2024-05-10T08:59:30Z</time>
      </trkpt>
      <trkpt lat="43.17206" lon="3.11254">
        <ele>136.6</ele>
        <time>2024-05-10T08:59:31Z</time>
      </trkpt>
      <trkpt lat="43.17193" lon="3.11267">
        <ele>136.7</ele>
        <time>2024-05-10T08:59:32Z</time>
      </trkpt>
      <trkpt lat="43.1718" lon="3.11281">
        <ele>136.8</ele>
        <time>2024-05-10T08:59:33Z</time>
      </trkpt>
      <trkpt lat="43.17166" lon="3.11295">
        <ele>137.4</ele>
        <time>2024-05-10T08:59:34Z</time>
      </trkpt>
      <trkpt lat="43.17152" lon="3.11309">
        <ele>137.3</ele>
        <time>2024-05-10T08:59:35Z</time>
      </trkpt>
      <trkpt lat="43.17137" lon="3.11324">
        <ele>137.5</ele>
        <time>2024-05-10T08:59:36Z</time>
      </trkpt>
      <trkpt lat="43.17122" lon="3.11339">
        <ele>137.8</ele>
        <time>2024-05-10T08:59:37Z</time>
      </trkpt>
      <trkpt lat="43.17107" lon="3.11354">
        <ele>138.6</ele>
        <time>2024-05-10T08:59:38Z</time>
      </trkpt>
      <trkpt lat="43.17093" lon="3.11369">
        <ele>138.5</ele>
        <time>2024-05-10T08:59:39Z</time>
      </trkpt>
      <trkpt lat="43.1708" lon="3.11384">
        <ele>138.3</ele>
        <time>2024-05-10T08:59:40Z</time>
      </trkpt>
      <trkpt lat="43.17067" lon="3.11398">
        <ele>138.1</ele>
        <time>2024-05-10T08:59:41Z</time>
      </trkpt>
      <trkpt lat="43.17055" lon="3.11412">
        <ele>138.4</ele>
        <time>2024-05-10T08:59:42Z</time>
      </trkpt>
      <trkpt lat="43.17043" lon="3.11425">
        <ele>138.4</ele>
        <time>2024-05-10T08:59:43Z</time>
      </trkpt>
      <trkpt lat="43.17033" lon="3.11437">
        <ele>138.6</ele>
        <time>2024-05-10T08:59:44Z</time>
      </trkpt>
      <trkpt lat="43.17023" lon="3.11449">
        <ele>139</ele>
        <time>2024-05-10T08:59:45Z</time>
      </trkpt>
      <trkpt lat="43.17013" lon="3.11459">
        <ele>139</ele>
        <time>2024-05-10T08:59:46Z</time>
      </trkpt>
      <trkpt lat="43.17002" lon="3.11471">
        <ele>139.1</ele>
        <time>2024-05-10T08:59:47Z</time>
      </trkpt>
      <trkpt lat="43.16992" lon="3.11484">
        <ele>139.6</ele>
        <time>2024-05-10T08:59:48Z</time>
      </trkpt>
      <trkpt lat="43.16981" lon="3.11498">
        <ele>139.8</ele>
        <time>2024-05-10T08:59:49Z</time>
      </trkpt>
      <trkpt lat="43.16971" lon="3.11514">
        <ele>139.3</ele>
        <time>2024-05-10T08:59:50Z</time>
      </trkpt>
      <trkpt lat="43.16961" lon="3.11532">
        <ele>138.7</ele>
        <time>2024-05-10T08:59:51Z</time>
      </trkpt>
      <trkpt lat="43.16951" lon="3.11552">
        <ele>138.7</ele>
        <time>2024-05-10T08:59:52Z</time>
      </trkpt>
      <trkpt lat="43.16941" lon="3.11574">
        <ele>138.1</ele>
        <time>2024-05-10T08:59:53Z</time>
      </trkpt>
      <trkpt lat="43.1693" lon="3.11596">
        <ele>138.3</ele>
        <time>2024-05-10T08:59:54Z</time>
      </trkpt>
      <trkpt lat="43.16919" lon="3.11618">
        <ele>138</ele>
        <time>2024-05-10T08:59:55Z</time>
      </trkpt>
      <trkpt lat="43.1691" lon="3.1164">
        <ele>137.6</ele>
        <time>2024-05-10T08:59:56Z</time>
      </trkpt>
      <trkpt lat="43.16902" lon="3.11662">
        <ele>137.5</ele>
        <time>2024-05-10T08:59:57Z</time>
      </trkpt>
      <trkpt lat="43.16896" lon="3.11684">
        <ele>137.6</ele>
        <time>2024-05-10T08:59:58Z</time>
      </trkpt>
      <trkpt lat="43.16893" lon="3.11708">
        <ele>138.2</ele>
        <time>2024-05-10T08:59:59Z</time>
      </trkpt>
      <trkpt lat="43.16893" lon="3.11732">
        <ele>138.8</ele>
        <time>2024-05-10T09:00:00Z</time>
      </trkpt>
      <trkpt lat="43.16894" lon="3.11755">
        <ele>139.4</ele>
        <time>2024-05-10T09:00:01Z</time>
      </trkpt>
      <trkpt lat="43.16895" lon="3.11778">
        <ele>140.3</ele>
        <time>2024-05-10T09:00:02Z</time>
      </trkpt>
      <trkpt lat="43.16898" lon="3.118">
        <ele>140.7</ele>
        <time>2024-05-10T09:00:03Z</time>
      </trkpt>
      <trkpt lat="43.16901" lon="3.1182">
        <ele>141.8</ele>
        <time>2024-05-10T09:00:04Z</time>
      </trkpt>
      <trkpt lat="43.16904" lon="3.11838">
        <ele>142.7</ele>
        <time>2024-05-10T09:00:05Z</time>
      </trkpt>
      <trkpt lat="43.16908" lon="3.11855">
        <ele>143.3</ele>
        <time>2024-05-10T09:00:06Z</time>
      </trkpt>
      <trkpt lat="43.16913" lon="3.11871">
        <ele>143.8</ele>
        <time>2024-05-10T09:00:07Z</time>
      </trkpt>
      <trkpt lat="43.16917" lon="3.11886">
        <ele>144.2</ele>
        <time>2024-05-10T09:00:08Z</time>
      </trkpt>
      <trkpt lat="43.16922" lon="3.11903">
        <ele>144.6</ele>
        <time>2024-05-10T09:00:09Z</time>
      </trkpt>
      <trkpt lat="43.16928" lon="3.1192">
        <ele>145.1</ele>
        <time>2024-05-10T09:00:10Z</time>
      </trkpt>
      <trkpt lat="43.16934" lon="3.11937">
        <ele>145.8</ele>
        <time>2024-05-10T09:00:11Z</time>
      </trkpt>
      <trkpt lat="43.16942" lon="3.11955">
        <ele>146.7</ele>
        <time>2024-05-10T09:00:12Z</time>
      </trkpt>
      <trkpt lat="43.16949" lon="3.11974">
        <ele>147.1</ele>
        <time>2024-05-10T09:00:13Z</time>
      </trkpt>
      <trkpt lat="43.16956" lon="3.11994">
        <ele>146.6</ele>
        <time>2024-05-10T09:00:14Z</time>
      </trkpt>
      <trkpt lat="43.16963" lon="3.12012">
        <ele>146.8</ele>
        <time>2024-05-10T09:00:15Z</time>
      </trkpt>
      <trkpt lat="43.16968" lon="3.12031">
        <ele>146.9</ele>
        <time>2024-05-10T09:00:16Z</time>
      </trkpt>
      <trkpt lat="43.16973" lon="3.12051">
        <ele>147.3</ele>
        <time>2024-05-10T09:00:17Z</time>
      </trkpt>
      <trkpt lat="43.16978" lon="3.12071">
        <ele>147.4</ele>
        <time>2024-05-10T09:00:18Z</time>
      </trkpt>
      <trkpt lat="43.16982" lon="3.12092">
        <ele>147.2</ele>
        <time>2024-05-10T09:00:19Z</time>
      </trkpt>
      <trkpt lat="43.16986" lon="3.12113">
        <ele>146.9</ele>
        <time>2024-05-10T09:00:20Z</time>
      </trkpt>
      <trkpt lat="43.1699" lon="3.12135">
        <ele>146.4</ele>
        <time>2024-05-10T09:00:21Z</time>
      </trkpt>
      <trkpt lat="43.16994" lon="3.12157">
        <ele>146.1</ele>
        <time>2024-05-10T09:00:22Z</time>
      </trkpt>
      <trkpt lat="43.16997" lon="3.12179">
        <ele>145.9</ele>
        <time>2024-05-10T09:00:23Z</time>
      </trkpt>
      <trkpt lat="43.16999" lon="3.122">
        <ele>146.2</ele>
        <time>2024-05-10T09:00:24Z</time>
      </trkpt>
      <trkpt lat="43.16999" lon="3.12222">
        <ele>147</ele>
        <time>2024-05-10T09:00:25Z</time>
      </trkpt>
      <trkpt lat="43.16999" lon="3.12245">
        <ele>147.8</ele>
        <time>2024-05-10T09:00:26Z</time>
      </trkpt>
      <trkpt lat="43.16999" lon="3.12268">
        <ele>148.6</ele>
        <time>2024-05-10T09:00:27Z</time>
      </trkpt>
      <trkpt lat="43.16998" lon="3.12291">
        <ele>149.5</ele>
        <time>2024-05-10T09:00:28Z</time>
      </trkpt>
      <trkpt lat="43.16997" lon="3.12315">
        <ele>150.3</ele>
        <time>2024-05-10T09:00:29Z</time>
      </trkpt>
      <trkpt lat="43.16996" lon="3.12338">
        <ele>151.2</ele>
        <time>2024-05-10T09:00:30Z</time>
      </trkpt>
      <trkpt lat="43.16996" lon="3.12361">
        <ele>152</ele>
        <time>2024-05-10T09:00:31Z</time>
      </trkpt>
      <trkpt lat="43.16995" lon="3.12382">
        <ele>152.8</ele>
        <time>2024-05-10T09:00:32Z</time>
      </trkpt>
      <trkpt lat="43.16993" lon="3.12402">
        <ele>153.5</ele>
        <time>2024-05-10T09:00:33Z</time>
      </trkpt>
      <trkpt lat="43.16992" lon="3.1242">
        <ele>154</ele>
        <time>2024-05-10T09:00:34Z</time>
      </trkpt>
      <trkpt lat="43.16989" lon="3.12439">
        <ele>154</ele>
        <time>2024-05-10T09:00:35Z</time>
      </trkpt>
      <trkpt lat="43.16987" lon="3.12458">
        <ele>154</ele>
        <time>2024-05-10T09:00:36Z</time>
      </trkpt>
      <trkpt lat="43.16984" lon="3.12476">
        <ele>154</ele>
        <time>2024-05-10T09:00:37Z</time>
      </trkpt>
      <trkpt lat="43.16981" lon="3.12494">
        <ele>154</ele>
        <time>2024-05-10T09:00:38Z</time>
      </trkpt>
      <trkpt lat="43.16978" lon="3.12511">
        <ele>154</ele>
        <time>2024-05-10T09:00:39Z</time>
      </trkpt>
      <trkpt lat="43.16974" lon="3.12527">
        <ele>154</ele>
        <time>2024-05-10T09:00:40Z</time>
      </trkpt>
      <trkpt lat="43.16971" lon="3.12544">
        <ele>154</ele>
        <time>2024-05-10T09:00:41Z</time>
      </trkpt>
      <trkpt lat="43.16967" lon="3.12562">
        <ele>153.8</ele>
        <time>2024-05-10T09:00:42Z</time>
      </trkpt>
      <trkpt lat="43.16963" lon="3.1258">
        <ele>153.1</ele>
        <time>2024-05-10T09:00:43Z</time>
      </trkpt>
      <trkpt lat="43.16959" lon="3.12599">
        <ele>153</ele>
        <time>2024-05-10T09:00:44Z</time>
      </trkpt>
      <trkpt lat="43.16956" lon="3.12619">
        <ele>152.7</ele>
        <time>2024-05-10T09:00:45Z</time>
      </trkpt>
      <trkpt lat="43.16952" lon="3.12638">
        <ele>152</ele>
        <time>2024-05-10T09:00:46Z</time>
      </trkpt>
      <trkpt lat="43.16949" lon="3.12658">
        <ele>151.9</ele>
        <time>2024-05-10T09:00:47Z</time>
      </trkpt>
      <trkpt lat="43.16947" lon="3.12678">
        <ele>151.5</ele>
        <time>2024-05-10T09:00:48Z</time>
      </trkpt>
      <trkpt lat="43.16944" lon="3.12699">
        <ele>151</ele>
        <time>2024-05-10T09:00:49Z</time>
      </trkpt>
      <trkpt lat="43.16943" lon="3.12719">
        <ele>151.1</ele>
        <time>2024-05-10T09:00:50Z</time>
      </trkpt>
      <trkpt lat="43.16941" lon="3.1274">
        <ele>151.2</ele>
        <time>2024-05-10T09:00:51Z</time>
      </trkpt>
      <trkpt lat="43.1694" lon="3.1276">
        <ele>151</ele>
        <time>2024-05-10T09:00:52Z</time>
      </trkpt>
      <trkpt lat="43.16939" lon="3.12778">
        <ele>150.4</ele>
        <time>2024-05-10T09:00:53Z</time>
      </trkpt>
      <trkpt lat="43.16938" lon="3.12795">
        <ele>149.8</ele>
        <time>2024-05-10T09:00:54Z</time>
      </trkpt>
      <trkpt lat="43.16937" lon="3.12811">
        <ele>149.3</ele>
        <time>2024-05-10T09:00:55Z</time>
      </trkpt>
      <trkpt lat="43.16937" lon="3.12826">
        <ele>148.8</ele>
        <time>2024-05-10T09:00:56Z</time>
      </trkpt>
      <trkpt lat="43.16936" lon="3.12839">
        <ele>148.5</ele>
        <time>2024-05-10T09:00:57Z</time>
      </trkpt>
      <trkpt lat="43.16935" lon="3.12852">
        <ele>148.5</ele>
        <time>2024-05-10T09:00:58Z</time>
      </trkpt>
      <trkpt lat="43.16935" lon="3.12863">
        <ele>148.3</ele>
        <time>2024-05-10T09:00:59Z</time>
      </trkpt>
      <trkpt lat="43.16934" lon="3.12872">
        <ele>148.4</ele>
        <time>2024-05-10T09:01:00Z</time>
      </trkpt>
      <trkpt lat="43.16934" lon="3.12879">
        <ele>148.4</ele>
        <time>2024-05-10T09:01:01Z</time>
      </trkpt>
      <trkpt lat="43.16934" lon="3.12886">
        <ele>148.4</ele>
        <time>2024-05-10T09:01:02Z</time>
      </trkpt>
      <trkpt lat="43.16934" lon="3.12891">
        <ele>148.4</ele>
        <time>2024-05-10T09:01:03Z</time>
      </trkpt>
      <trkpt lat="43.16934" lon="3.12897">
        <ele>148.4</ele>
        <time>2024-05-10T09:01:04Z</time>
      </trkpt>
      <trkpt lat="43.16934" lon="3.12901">
        <ele>148.4</ele>
        <time>2024-05-10T09:01:05Z</time>
      </trkpt>
      <trkpt lat="43.16934" lon="3.12905">
        <ele>148.4</ele>
        <time>2024-05-10T09:01:06Z</time>
      </trkpt>
      <trkpt lat="43.16934" lon="3.12909">
        <ele>148.4</ele>
        <time>2024-05-10T09:01:07Z</time>
      </trkpt>
      <trkpt lat="43.16933" lon="3.12912">
        <ele>148.4</ele>
        <time>2024-05-10T09:01:08Z</time>
      </trkpt>
      <trkpt lat="43.16933" lon="3.12914">
        <ele>148.4</ele>
        <time>2024-05-10T09:01:09Z</time>
      </trkpt>
      <trkpt lat="43.16932" lon="3.12915">
        <ele>148.4</ele>
        <time>2024-05-10T09:01:10Z</time>
      </trkpt>
      <trkpt lat="43.16932" lon="3.12916">
        <ele>148.4</ele>
        <time>2024-05-10T09:01:11Z</time>
      </trkpt>
      <trkpt lat="43.16932" lon="3.12915">
        <ele>148.4</ele>
        <time>2024-05-10T09:01:12Z</time>
      </trkpt>
      <trkpt lat="43.16932" lon="3.12915">
        <ele>148.4</ele>
        <time>2024-05-10T09:01:13Z</time>
      </trkpt>
      <trkpt lat="43.16933" lon="3.12915">
        <ele>148.4</ele>
        <time>2024-05-10T09:01:14Z</time>
      </trkpt>
      <trkpt lat="43.16933" lon="3.12915">
        <ele>148.4</ele>
        <time>2024-05-10T09:01:15Z</time>
      </trkpt>
      <trkpt lat="43.16933" lon="3.12915">
        <ele>148.4</ele>
        <time>2024-05-10T09:01:16Z</time>
      </trkpt>
      <trkpt lat="43.16933" lon="3.12915">
        <ele>148.4</ele>
        <time>2024-05-10T09:01:17Z</time>
      </trkpt>
      <trkpt lat="43.16932" lon="3.12917">
        <ele>148.4</ele>
        <time>2024-05-10T09:01:18Z</time>
      </trkpt>
      <trkpt lat="43.16932" lon="3.1292">
        <ele>148.4</ele>
        <time>2024-05-10T09:01:19Z</time>
      </trkpt>
      <trkpt lat="43.16932" lon="3.12924">
        <ele>148.4</ele>
        <time>2024-05-10T09:01:20Z</time>
      </trkpt>
      <trkpt lat="43.16931" lon="3.12929">
        <ele>148.5</ele>
        <time>2024-05-10T09:01:21Z</time>
      </trkpt>
      <trkpt lat="43.1693" lon="3.12934">
        <ele>148.5</ele>
        <time>2024-05-10T09:01:22Z</time>
      </trkpt>
      <trkpt lat="43.1693" lon="3.12938">
        <ele>148.5</ele>
        <time>2024-05-10T09:01:23Z</time>
      </trkpt>
      <trkpt lat="43.16929" lon="3.1294">
        <ele>148.6</ele>
        <time>2024-05-10T09:01:24Z</time>
      </trkpt>
      <trkpt lat="43.16929" lon="3.12943">
        <ele>148.6</ele>
        <time>2024-05-10T09:01:25Z</time>
      </trkpt>
      <trkpt lat="43.16929" lon="3.12944">
        <ele>148.6</ele>
        <time>2024-05-10T09:01:26Z</time>
      </trkpt>
      <trkpt lat="43.16929" lon="3.12945">
        <ele>148.6</ele>
        <time>2024-05-10T09:01:27Z</time>
      </trkpt>
      <trkpt lat="43.16929" lon="3.12944">
        <ele>148.6</ele>
        <time>2024-05-10T09:01:28Z</time>
      </trkpt>
      <trkpt lat="43.16929" lon="3.12944">
        <ele>148.6</ele>
        <time>2024-05-10T09:01:29Z</time>
      </trkpt>
      <trkpt lat="43.16929" lon="3.12944">
        <ele>148.6</ele>
        <time>2024-05-10T09:01:30Z</time>
      </trkpt>
      <trkpt lat="43.16929" lon="3.12944">
        <ele>148.6</ele>
        <time>2024-05-10T09:01:31Z</time>
      </trkpt>
      <trkpt lat="43.16929" lon="3.12944">
        <ele>148.6</ele>
        <time>2024-05-10T09:01:32Z</time>
      </trkpt>
      <trkpt lat="43.16929" lon="3.12944">
        <ele>148.6</ele>
        <time>2024-05-10T09:01:33Z</time>
      </trkpt>
      <trkpt lat="43.16929" lon="3.12944">
        <ele>148.6</ele>
        <time>2024-05-10T09:01:34Z</time>
      </trkpt>
      <trkpt lat="43.16929" lon="3.12944">
        <ele>148.6</ele>
        <time>2024-05-10T09:01:35Z</time>
      </trkpt>
      <trkpt lat="43.16929" lon="3.12944">
        <ele>148.6</ele>
        <time>2024-05-10T09:01:36Z</time>
      </trkpt>
      <trkpt lat="43.16929" lon="3.12944">
        <ele>148.6</ele>
        <time>2024-05-10T09:01:37Z</time>
      </trkpt>
      <trkpt lat="43.16929" lon="3.12944">
        <ele>148.6</ele>
        <time>2024-05-10T09:01:38Z</time>
      </trkpt>
      <trkpt lat="43.16929" lon="3.12944">
        <ele>148.6</ele>
        <time>2024-05-10T09:01:39Z</time>
      </trkpt>
      <trkpt lat="43.16929" lon="3.12943">
        <ele>148.6</ele>
        <time>2024-05-10T09:01:40Z</time>
      </trkpt>
      <trkpt lat="43.16929" lon="3.12943">
        <ele>148.6</ele>
        <time>2024-05-10T09:01:41Z</time>
      </trkpt>
      <trkpt lat="43.16929" lon="3.12943">
        <ele>148.6</ele>
        <time>2024-05-10T09:01:42Z</time>
      </trkpt>
      <trkpt lat="43.16929" lon="3.12943">
        <ele>148.6</ele>
        <time>2024-05-10T09:01:43Z</time>
      </trkpt>
      <trkpt lat="43.16929" lon="3.12943">
        <ele>148.6</ele>
        <time>2024-05-10T09:01:44Z</time>
      </trkpt>
      <trkpt lat="43.16929" lon="3.12943">
        <ele>148.6</ele>
        <time>2024-05-10T09:01:45Z</time>
      </trkpt>
      <trkpt lat="43.16929" lon="3.12943">
        <ele>148.6</ele>
        <time>2024-05-10T09:01:46Z</time>
      </trkpt>
      <trkpt lat="43.16929" lon="3.12943">
        <ele>148.6</ele>
        <time>2024-05-10T09:01:47Z</time>
      </trkpt>
      <trkpt lat="43.16929" lon="3.12943">
        <ele>148.6</ele>
        <time>2024-05-10T09:01:48Z</time>
      </trkpt>
      <trkpt lat="43.16929" lon="3.12943">
        <ele>148.6</ele>
        <time>2024-05-10T09:01:49Z</time>
      </trkpt>
      <trkpt lat="43.16929" lon="3.12943">
        <ele>148.6</ele>
        <time>2024-05-10T09:01:50Z</time>
      </trkpt>
      <trkpt lat="43.16929" lon="3.12943">
        <ele>148.6</ele>
        <time>2024-05-10T09:01:51Z</time>
      </trkpt>
      <trkpt lat="43.16926" lon="3.12944">
        <ele>148.7</ele>
        <time>2024-05-10T09:25:06Z</time>
      </trkpt>
      <trkpt lat="43.16927" lon="3.12943">
        <ele>148.6</ele>
        <time>2024-05-10T09:25:07Z</time>
      </trkpt>
      <trkpt lat="43.1693" lon="3.12941">
        <ele>148.5</ele>
        <time>2024-05-10T09:25:08Z</time>
      </trkpt>
      <trkpt lat="43.16932" lon="3.1294">
        <ele>148.4</ele>
        <time>2024-05-10T09:25:09Z</time>
      </trkpt>
      <trkpt lat="43.16931" lon="3.12939">
        <ele>148.5</ele>
        <time>2024-05-10T09:25:10Z</time>
      </trkpt>
      <trkpt lat="43.16932" lon="3.12937">
        <ele>148.4</ele>
        <time>2024-05-10T09:25:11Z</time>
      </trkpt>
      <trkpt lat="43.1693" lon="3.1294">
        <ele>148.5</ele>
        <time>2024-05-10T09:25:12Z</time>
      </trkpt>
      <trkpt lat="43.16925" lon="3.12943">
        <ele>148.7</ele>
        <time>2024-05-10T09:25:13Z</time>
      </trkpt>
      <trkpt lat="43.16927" lon="3.12944">
        <ele>148.6</ele>
        <time>2024-05-10T09:25:14Z</time>
      </trkpt>
      <trkpt lat="43.16928" lon="3.12944">
        <ele>148.6</ele>
        <time>2024-05-10T09:25:15Z</time>
      </trkpt>
      <trkpt lat="43.16928" lon="3.12944">
        <ele>148.6</ele>
        <time>2024-05-10T09:25:16Z</time>
      </trkpt>
      <trkpt lat="43.16928" lon="3.12944">
        <ele>148.6</ele>
        <time>2024-05-10T09:25:17Z</time>
      </trkpt>
      <trkpt lat="43.16928" lon="3.12944">
        <ele>148.6</ele>
        <time>2024-05-10T09:25:18Z</time>
      </trkpt>
      <trkpt lat="43.16928" lon="3.12944">
        <ele>148.6</ele>
        <time>2024-05-10T09:25:19Z</time>
      </trkpt>
      <trkpt lat="43.16927" lon="3.12944">
        <ele>148.6</ele>
        <time>2024-05-10T09:25:20Z</time>
      </trkpt>
      <trkpt lat="43.16927" lon="3.12944">
        <ele>148.6</ele>
        <time>2024-05-10T09:25:21Z</time>
      </trkpt>
      <trkpt lat="43.16928" lon="3.12944">
        <ele>148.6</ele>
        <time>2024-05-10T09:25:22Z</time>
      </trkpt>
      <trkpt lat="43.16928" lon="3.12944">
        <ele>148.6</ele>
        <time>2024-05-10T09:25:23Z</time>
      </trkpt>
      <trkpt lat="43.16928" lon="3.12944">
        <ele>148.6</ele>
        <time>2024-05-10T09:25:24Z</time>
      </trkpt>
      <trkpt lat="43.16928" lon="3.12944">
        <ele>148.6</ele>
        <time>2024-05-10T09:25:25Z</time>
      </trkpt>
      <trkpt lat="43.16928" lon="3.12944">
        <ele>148.6</ele>
        <time>2024-05-10T09:25:26Z</time>
      </trkpt>
      <trkpt lat="43.16928" lon="3.12944">
        <ele>148.6</ele>
        <time>2024-05-10T09:25:27Z</time>
      </trkpt>
      <trkpt lat="43.16928" lon="3.12944">
        <ele>148.6</ele>
        <time>2024-05-10T09:25:28Z</time>
      </trkpt>
      <trkpt lat="43.16928" lon="3.12944">
        <ele>148.6</ele>
        <time>2024-05-10T09:25:29Z</time>
      </trkpt>
      <trkpt lat="43.16928" lon="3.12944">
        <ele>148.6</ele>
        <time>2024-05-10T09:25:30Z</time>
      </trkpt>
      <trkpt lat="43.16928" lon="3.12944">
        <ele>148.6</ele>
        <time>2024-05-10T09:25:31Z</time>
      </trkpt>
      <trkpt lat="43.16928" lon="3.12944">
        <ele>148.6</ele>
        <time>2024-05-10T09:25:32Z</time>
      </trkpt>
      <trkpt lat="43.16929" lon="3.12945">
        <ele>148.6</ele>
        <time>2024-05-10T09:25:33Z</time>
      </trkpt>
      <trkpt lat="43.16929" lon="3.12946">
        <ele>148.6</ele>
        <time>2024-05-10T09:25:34Z</time>
      </trkpt>
      <trkpt lat="43.1693" lon="3.12946">
        <ele>148.5</ele>
        <time>2024-05-10T09:25:35Z</time>
      </trkpt>
      <trkpt lat="43.16931" lon="3.12947">
        <ele>148.5</ele>
        <time>2024-05-10T09:25:36Z</time>
      </trkpt>
      <trkpt lat="43.16932" lon="3.12947">
        <ele>148.4</ele>
        <time>2024-05-10T09:25:37Z</time>
      </trkpt>
      <trkpt lat="43.16932" lon="3.12948">
        <ele>148.4</ele>
        <time>2024-05-10T09:25:38Z</time>
      </trkpt>
      <trkpt lat="43.16932" lon="3.12948">
        <ele>148.4</ele>
        <time>2024-05-10T09:25:39Z</time>
      </trkpt>
      <trkpt lat="43.16932" lon="3.12948">
        <ele>148.4</ele>
        <time>2024-05-10T09:25:40Z</time>
      </trkpt>
      <trkpt lat="43.16932" lon="3.12948">
        <ele>148.4</ele>
        <time>2024-05-10T09:25:41Z</time>
      </trkpt>
      <trkpt lat="43.16932" lon="3.12947">
        <ele>148.4</ele>
        <time>2024-05-10T09:25:42Z</time>
      </trkpt>
      <trkpt lat="43.16932" lon="3.12947">
        <ele>148.4</ele>
        <time>2024-05-10T09:25:43Z</time>
      </trkpt>
      <trkpt lat="43.16932" lon="3.12947">
        <ele>148.4</ele>
        <time>2024-05-10T09:25:44Z</time>
      </trkpt>
      <trkpt lat="43.16932" lon="3.12947">
        <ele>148.4</ele>
        <time>2024-05-10T09:25:45Z</time>
      </trkpt>
      <trkpt lat="43.16932" lon="3.12947">
        <ele>148.4</ele>
        <time>2024-05-10T09:25:46Z</time>
      </trkpt>
      <trkpt lat="43.16932" lon="3.12947">
        <ele>148.4</ele>
        <time>2024-05-10T09:25:47Z</time>
      </trkpt>
      <trkpt lat="43.16932" lon="3.12947">
        <ele>148.4</ele>
        <time>2024-05-10T09:25:48Z</time>
      </trkpt>
      <trkpt lat="43.16932" lon="3.12947">
        <ele>148.4</ele>
        <time>2024-05-10T09:25:49Z</time>
      </trkpt>
      <trkpt lat="43.16932" lon="3.12947">
        <ele>148.4</ele>
        <time>2024-05-10T09:25:50Z</time>
      </trkpt>
      <trkpt lat="43.16932" lon="3.12947">
        <ele>148.4</ele>
        <time>2024-05-10T09:25:51Z</time>
      </trkpt>
      <trkpt lat="43.16932" lon="3.12947">
        <ele>148.4</ele>
        <time>2024-05-10T09:25:52Z</time>
      </trkpt>
      <trkpt lat="43.16932" lon="3.12947">
        <ele>148.4</ele>
        <time>2024-05-10T09:25:53Z</time>
      </trkpt>
      <trkpt lat="43.16932" lon="3.12947">
        <ele>148.4</ele>
        <time>2024-05-10T09:25:54Z</time>
      </trkpt>
      <trkpt lat="43.16932" lon="3.12947">
        <ele>148.4</ele>
        <time>2024-05-10T09:25:55Z</time>
      </trkpt>
      <trkpt lat="43.16932" lon="3.12947">
        <ele>148.4</ele>
        <time>2024-05-10T09:25:56Z</time>
      </trkpt>
      <trkpt lat="43.16932" lon="3.12947">
        <ele>148.4</ele>
        <time>2024-05-10T09:25:57Z</time>
      </trkpt>
      <trkpt lat="43.16932" lon="3.12947">
        <ele>148.4</ele>
        <time>2024-05-10T09:25:58Z</time>
      </trkpt>
      <trkpt lat="43.16933" lon="3.12949">
        <ele>148.4</ele>
        <time>2024-05-10T09:25:59Z</time>
      </trkpt>
      <trkpt lat="43.16933" lon="3.12953">
        <ele>148.4</ele>
        <time>2024-05-10T09:26:00Z</time>
      </trkpt>
      <trkpt lat="43.16933" lon="3.12959">
        <ele>148.4</ele>
        <time>2024-05-10T09:26:01Z</time>
      </trkpt>
      <trkpt lat="43.16935" lon="3.12967">
        <ele>148.3</ele>
        <time>2024-05-10T09:26:02Z</time>
      </trkpt>
      <trkpt lat="43.16937" lon="3.12978">
        <ele>148.3</ele>
        <time>2024-05-10T09:26:03Z</time>
      </trkpt>
      <trkpt lat="43.1694" lon="3.12989">
        <ele>148.2</ele>
        <time>2024-05-10T09:26:04Z</time>
      </trkpt>
      <trkpt lat="43.16946" lon="3.13003">
        <ele>147.8</ele>
        <time>2024-05-10T09:26:05Z</time>
      </trkpt>
      <trkpt lat="43.16953" lon="3.13017">
        <ele>147</ele>
        <time>2024-05-10T09:26:06Z</time>
      </trkpt>
      <trkpt lat="43.16961" lon="3.13031">
        <ele>146.4</ele>
        <time>2024-05-10T09:26:07Z</time>
      </trkpt>
      <trkpt lat="43.16969" lon="3.13046">
        <ele>146.1</ele>
        <time>2024-05-10T09:26:08Z</time>
      </trkpt>
      <trkpt lat="43.16977" lon="3.13062">
        <ele>145.3</ele>
        <time>2024-05-10T09:26:09Z</time>
      </trkpt>
      <trkpt lat="43.16987" lon="3.13079">
        <ele>144.5</ele>
        <time>2024-05-10T09:26:10Z</time>
      </trkpt>
      <trkpt lat="43.16997" lon="3.13099">
        <ele>143.5</ele>
        <time>2024-05-10T09:26:11Z</time>
      </trkpt>
      <trkpt lat="43.17008" lon="3.13118">
        <ele>142.2</ele>
        <time>2024-05-10T09:26:12Z</time>
      </trkpt>
      <trkpt lat="43.17018" lon="3.13138">
        <ele>141.4</ele>
        <time>2024-05-10T09:26:13Z</time>
      </trkpt>
      <trkpt lat="43.17028" lon="3.13158">
        <ele>141</ele>
        <time>2024-05-10T09:26:14Z</time>
      </trkpt>
      <trkpt lat="43.17037" lon="3.13177">
        <ele>139.5</ele>
        <time>2024-05-10T09:26:15Z</time>
      </trkpt>
      <trkpt lat="43.17043" lon="3.13193">
        <ele>138.5</ele>
        <time>2024-05-10T09:26:16Z</time>
      </trkpt>
      <trkpt lat="43.17048" lon="3.13208">
        <ele>137.8</ele>
        <time>2024-05-10T09:26:17Z</time>
      </trkpt>
      <trkpt lat="43.17055" lon="3.13226">
        <ele>136.9</ele>
        <time>2024-05-10T09:26:18Z</time>
      </trkpt>
      <trkpt lat="43.17062" lon="3.13248">
        <ele>135.6</ele>
        <time>2024-05-10T09:26:19Z</time>
      </trkpt>
      <trkpt lat="43.1707" lon="3.13272">
        <ele>134.2</ele>
        <time>2024-05-10T09:26:20Z</time>
      </trkpt>
      <trkpt lat="43.17078" lon="3.13295">
        <ele>132.6</ele>
        <time>2024-05-10T09:26:21Z</time>
      </trkpt>
      <trkpt lat="43.17087" lon="3.13319">
        <ele>130.7</ele>
        <time>2024-05-10T09:26:22Z</time>
      </trkpt>
      <trkpt lat="43.17094" lon="3.13341">
        <ele>129</ele>
        <time>2024-05-10T09:26:23Z</time>
      </trkpt>
      <trkpt lat="43.171" lon="3.13362">
        <ele>127.7</ele>
        <time>2024-05-10T09:26:24Z</time>
      </trkpt>
      <trkpt lat="43.17104" lon="3.13382">
        <ele>126</ele>
        <time>2024-05-10T09:26:25Z</time>
      </trkpt>
      <trkpt lat="43.17105" lon="3.13403">
        <ele>124.8</ele>
        <time>2024-05-10T09:26:26Z</time>
      </trkpt>
      <trkpt lat="43.17104" lon="3.13422">
        <ele>123.9</ele>
        <time>2024-05-10T09:26:27Z</time>
      </trkpt>
      <trkpt lat="43.17099" lon="3.13437">
        <ele>123</ele>
        <time>2024-05-10T09:26:28Z</time>
      </trkpt>
      <trkpt lat="43.17093" lon="3.13448">
        <ele>122.4</ele>
        <time>2024-05-10T09:26:29Z</time>
      </trkpt>
      <trkpt lat="43.17083" lon="3.13455">
        <ele>122.2</ele>
        <time>2024-05-10T09:26:30Z</time>
      </trkpt>
      <trkpt lat="43.17073" lon="3.13458">
        <ele>122</ele>
        <time>2024-05-10T09:26:31Z</time>
      </trkpt>
      <trkpt lat="43.1706" lon="3.13458">
        <ele>122</ele>
        <time>2024-05-10T09:26:32Z</time>
      </trkpt>
      <trkpt lat="43.17045" lon="3.13454">
        <ele>121.6</ele>
        <time>2024-05-10T09:26:33Z</time>
      </trkpt>
      <trkpt lat="43.17029" lon="3.13447">
        <ele>120.9</ele>
        <time>2024-05-10T09:26:34Z</time>
      </trkpt>
      <trkpt lat="43.17015" lon="3.13437">
        <ele>120.5</ele>
        <time>2024-05-10T09:26:35Z</time>
      </trkpt>
      <trkpt lat="43.16999" lon="3.13426">
        <ele>119.6</ele>
        <time>2024-05-10T09:26:36Z</time>
      </trkpt>
      <trkpt lat="43.16983" lon="3.13411">
        <ele>119</ele>
        <time>2024-05-10T09:26:37Z</time>
      </trkpt>
      <trkpt lat="43.16967" lon="3.13396">
        <ele>117.9</ele>
        <time>2024-05-10T09:26:38Z</time>
      </trkpt>
      <trkpt lat="43.16951" lon="3.13381">
        <ele>117.4</ele>
        <time>2024-05-10T09:26:39Z</time>
      </trkpt>
      <trkpt lat="43.16933" lon="3.13367">
        <ele>116.8</ele>
        <time>2024-05-10T09:26:40Z</time>
      </trkpt>
      <trkpt lat="43.16914" lon="3.13351">
        <ele>115.4</ele>
        <time>2024-05-10T09:26:41Z</time>
      </trkpt>
      <trkpt lat="43.16897" lon="3.13337">
        <ele>115</ele>
        <time>2024-05-10T09:26:42Z</time>
      </trkpt>
      <trkpt lat="43.16879" lon="3.13328">
        <ele>114.3</ele>
        <time>2024-05-10T09:26:43Z</time>
      </trkpt>
      <trkpt lat="43.1686" lon="3.13325">
        <ele>113.4</ele>
        <time>2024-05-10T09:26:44Z</time>
      </trkpt>
      <trkpt lat="43.16841" lon="3.13325">
        <ele>112.7</ele>
        <time>2024-05-10T09:26:45Z</time>
      </trkpt>
      <trkpt lat="43.16823" lon="3.13326">
        <ele>111.9</ele>
        <time>2024-05-10T09:26:46Z</time>
      </trkpt>
      <trkpt lat="43.16807" lon="3.13326">
        <ele>111.1</ele>
        <time>2024-05-10T09:26:47Z</time>
      </trkpt>
      <trkpt lat="43.16794" lon="3.13326">
        <ele>110.6</ele>
        <time>2024-05-10T09:26:48Z</time>
      </trkpt>
      <trkpt lat="43.1678" lon="3.13323">
        <ele>110.1</ele>
        <time>2024-05-10T09:26:49Z</time>
      </trkpt>
      <trkpt lat="43.16765" lon="3.13317">
        <ele>109.3</ele>
        <time>2024-05-10T09:26:50Z</time>
      </trkpt>
      <trkpt lat="43.16749" lon="3.13306">
        <ele>108.1</ele>
        <time>2024-05-10T09:26:51Z</time>
      </trkpt>
      <trkpt lat="43.16735" lon="3.13293">
        <ele>107.6</ele>
        <time>2024-05-10T09:26:52Z</time>
      </trkpt>
      <trkpt lat="43.16722" lon="3.13283">
        <ele>106.6</ele>
        <time>2024-05-10T09:26:53Z</time>
      </trkpt>
      <trkpt lat="43.16708" lon="3.13277">
        <ele>106</ele>
        <time>2024-05-10T09:26:54Z</time>
      </trkpt>
      <trkpt lat="43.16692" lon="3.13271">
        <ele>105.7</ele>
        <time>2024-05-10T09:26:55Z</time>
      </trkpt>
      <trkpt lat="43.16675" lon="3.13267">
        <ele>105.3</ele>
        <time>2024-05-10T09:26:56Z</time>
      </trkpt>
      <trkpt lat="43.16656" lon="3.13263">
        <ele>104.7</ele>
        <time>2024-05-10T09:26:57Z</time>
      </trkpt>
      <trkpt lat="43.16634" lon="3.1326">
        <ele>103.9</ele>
        <time>2024-05-10T09:26:58Z</time>
      </trkpt>
      <trkpt lat="43.1661" lon="3.13257">
        <ele>102.7</ele>
        <time>2024-05-10T09:26:59Z</time>
      </trkpt>
      <trkpt lat="43.16586" lon="3.13256">
        <ele>101.2</ele>
        <time>2024-05-10T09:27:00Z</time>
      </trkpt>
      <trkpt lat="43.16564" lon="3.13255">
        <ele>102.2</ele>
        <time>2024-05-10T09:27:01Z</time>
      </trkpt>
      <trkpt lat="43.16542" lon="3.13254">
        <ele>103.1</ele>
        <time>2024-05-10T09:27:02Z</time>
      </trkpt>
      <trkpt lat="43.16521" lon="3.13254">
        <ele>103.7</ele>
        <time>2024-05-10T09:27:03Z</time>
      </trkpt>
      <trkpt lat="43.16504" lon="3.13255">
        <ele>104.3</ele>
        <time>2024-05-10T09:27:04Z</time>
      </trkpt>
      <trkpt lat="43.16488" lon="3.1326">
        <ele>105.2</ele>
        <time>2024-05-10T09:27:05Z</time>
      </trkpt>
      <trkpt lat="43.16477" lon="3.1327">
        <ele>106.3</ele>
        <time>2024-05-10T09:27:06Z</time>
      </trkpt>
      <trkpt lat="43.16468" lon="3.13283">
        <ele>107</ele>
        <time>2024-05-10T09:27:07Z</time>
      </trkpt>
      <trkpt lat="43.16461" lon="3.13297">
        <ele>107</ele>
        <time>2024-05-10T09:27:08Z</time>
      </trkpt>
      <trkpt lat="43.16453" lon="3.13312">
        <ele>106.9</ele>
        <time>2024-05-10T09:27:09Z</time>
      </trkpt>
      <trkpt lat="43.16443" lon="3.13328">
        <ele>107</ele>
        <time>2024-05-10T09:27:10Z</time>
      </trkpt>
      <trkpt lat="43.16432" lon="3.13346">
        <ele>105.8</ele>
        <time>2024-05-10T09:27:11Z</time>
      </trkpt>
      <trkpt lat="43.16422" lon="3.13362">
        <ele>105</ele>
        <time>2024-05-10T09:27:12Z</time>
      </trkpt>
      <trkpt lat="43.16413" lon="3.13377">
        <ele>104.8</ele>
        <time>2024-05-10T09:27:13Z</time>
      </trkpt>
      <trkpt lat="43.16403" lon="3.1339">
        <ele>104.5</ele>
        <time>2024-05-10T09:27:14Z</time>
      </trkpt>
      <trkpt lat="43.16393" lon="3.13402">
        <ele>104.1</ele>
        <time>2024-05-10T09:27:15Z</time>
      </trkpt>
      <trkpt lat="43.16381" lon="3.13413">
        <ele>103.4</ele>
        <time>2024-05-10T09:27:16Z</time>
      </trkpt>
      <trkpt lat="43.16366" lon="3.13424">
        <ele>102.3</ele>
        <time>2024-05-10T09:27:17Z</time>
      </trkpt>
      <trkpt lat="43.1635" lon="3.13432">
        <ele>101.4</ele>
        <time>2024-05-10T09:27:18Z</time>
      </trkpt>
      <trkpt lat="43.16333" lon="3.13439">
        <ele>100.2</ele>
        <time>2024-05-10T09:27:19Z</time>
      </trkpt>
      <trkpt lat="43.16317" lon="3.13449">
        <ele>99.3</ele>
        <time>2024-05-10T09:27:20Z</time>
      </trkpt>
      <trkpt lat="43.16302" lon="3.13461">
        <ele>98.3</ele>
        <time>2024-05-10T09:27:21Z</time>
      </trkpt>
      <trkpt lat="43.16288" lon="3.13476">
        <ele>97.2</ele>
        <time>2024-05-10T09:27:22Z</time>
      </trkpt>
      <trkpt lat="43.16275" lon="3.13494">
        <ele>96.2</ele>
        <time>2024-05-10T09:27:23Z</time>
      </trkpt>
      <trkpt lat="43.16261" lon="3.13512">
        <ele>95.6</ele>
        <time>2024-05-10T09:27:24Z</time>
      </trkpt>
      <trkpt lat="43.16248" lon="3.13531">
        <ele>94.9</ele>
        <time>2024-05-10T09:27:25Z</time>
      </trkpt>
      <trkpt lat="43.16234" lon="3.1355">
        <ele>94.7</ele>
        <time>2024-05-10T09:27:26Z</time>
      </trkpt>
      <trkpt lat="43.16221" lon="3.13568">
        <ele>95</ele>
        <time>2024-05-10T09:27:27Z</time>
      </trkpt>
      <trkpt lat="43.16208" lon="3.13584">
        <ele>95</ele>
        <time>2024-05-10T09:27:28Z</time>
      </trkpt>
      <trkpt lat="43.16197" lon="3.136">
        <ele>94.9</ele>
        <time>2024-05-10T09:27:29Z</time>
      </trkpt>
      <trkpt lat="43.16187" lon="3.13617">
        <ele>94.6</ele>
        <time>2024-05-10T09:27:30Z</time>
      </trkpt>
      <trkpt lat="43.16178" lon="3.13634">
        <ele>93.8</ele>
        <time>2024-05-10T09:27:31Z</time>
      </trkpt>
      <trkpt lat="43.16169" lon="3.13653">
        <ele>93.9</ele>
        <time>2024-05-10T09:27:32Z</time>
      </trkpt>
      <trkpt lat="43.16161" lon="3.13673">
        <ele>93.4</ele>
        <time>2024-05-10T09:27:33Z</time>
      </trkpt>
      <trkpt lat="43.16154" lon="3.13694">
        <ele>92</ele>
        <time>2024-05-10T09:27:34Z</time>
      </trkpt>
      <trkpt lat="43.16147" lon="3.13716">
        <ele>91</ele>
        <time>2024-05-10T09:27:35Z</time>
      </trkpt>
      <trkpt lat="43.16139" lon="3.13738">
        <ele>89.9</ele>
        <time>2024-05-10T09:27:36Z</time>
      </trkpt>
      <trkpt lat="43.16132" lon="3.1376">
        <ele>88.3</ele>
        <time>2024-05-10T09:27:37Z</time>
      </trkpt>
      <trkpt lat="43.16126" lon="3.13786">
        <ele>86.7</ele>
        <time>2024-05-10T09:27:38Z</time>
      </trkpt>
      <trkpt lat="43.16118" lon="3.13815">
        <ele>85.6</ele>
        <time>2024-05-10T09:27:39Z</time>
      </trkpt>
      <trkpt lat="43.1611" lon="3.13846">
        <ele>84.1</ele>
        <time>2024-05-10T09:27:40Z</time>
      </trkpt>
      <trkpt lat="43.16102" lon="3.13876">
        <ele>82.1</ele>
        <time>2024-05-10T09:27:41Z</time>
      </trkpt>
      <trkpt lat="43.16095" lon="3.13906">
        <ele>80.6</ele>
        <time>2024-05-10T09:27:42Z</time>
      </trkpt>
      <trkpt lat="43.16087" lon="3.13935">
        <ele>79.3</ele>
        <time>2024-05-10T09:27:43Z</time>
      </trkpt>
      <trkpt lat="43.16079" lon="3.13963">
        <ele>77.8</ele>
        <time>2024-05-10T09:27:44Z</time>
      </trkpt>
      <trkpt lat="43.16073" lon="3.13987">
        <ele>76.3</ele>
        <time>2024-05-10T09:27:45Z</time>
      </trkpt>
      <trkpt lat="43.16068" lon="3.14008">
        <ele>75.3</ele>
        <time>2024-05-10T09:27:46Z</time>
      </trkpt>
      <trkpt lat="43.16063" lon="3.14029">
        <ele>74.6</ele>
        <time>2024-05-10T09:27:47Z</time>
      </trkpt>
      <trkpt lat="43.16058" lon="3.14049">
        <ele>73.4</ele>
        <time>2024-05-10T09:27:48Z</time>
      </trkpt>
      <trkpt lat="43.16053" lon="3.14068">
        <ele>72.1</ele>
        <time>2024-05-10T09:27:49Z</time>
      </trkpt>
      <trkpt lat="43.16048" lon="3.14089">
        <ele>70.6</ele>
        <time>2024-05-10T09:27:50Z</time>
      </trkpt>
      <trkpt lat="43.16043" lon="3.1411">
        <ele>69.1</ele>
        <time>2024-05-10T09:27:51Z</time>
      </trkpt>
      <trkpt lat="43.16039" lon="3.14131">
        <ele>67.6</ele>
        <time>2024-05-10T09:27:52Z</time>
      </trkpt>
      <trkpt lat="43.16039" lon="3.14149">
        <ele>66.5</ele>
        <time>2024-05-10T09:27:53Z</time>
      </trkpt>
      <trkpt lat="43.16041" lon="3.14167">
        <ele>65.5</ele>
        <time>2024-05-10T09:27:54Z</time>
      </trkpt>
      <trkpt lat="43.16045" lon="3.14186">
        <ele>64</ele>
        <time>2024-05-10T09:27:55Z</time>
      </trkpt>
      <trkpt lat="43.1605" lon="3.14203">
        <ele>62.9</ele>
        <time>2024-05-10T09:27:56Z</time>
      </trkpt>
      <trkpt lat="43.16054" lon="3.1422">
        <ele>62.1</ele>
        <time>2024-05-10T09:27:57Z</time>
      </trkpt>
      <trkpt lat="43.16059" lon="3.14233">
        <ele>61</ele>
        <time>2024-05-10T09:27:58Z</time>
      </trkpt>
      <trkpt lat="43.16064" lon="3.14244">
        <ele>59.8</ele>
        <time>2024-05-10T09:27:59Z</time>
      </trkpt>
      <trkpt lat="43.16071" lon="3.14252">
        <ele>58.8</ele>
        <time>2024-05-10T09:28:00Z</time>
      </trkpt>
      <trkpt lat="43.16081" lon="3.14258">
        <ele>57.8</ele>
        <time>2024-05-10T09:28:01Z</time>
      </trkpt>
      <trkpt lat="43.16091" lon="3.1426">
        <ele>57.3</ele>
        <time>2024-05-10T09:28:02Z</time>
      </trkpt>
      <trkpt lat="43.16102" lon="3.14262">
        <ele>56.6</ele>
        <time>2024-05-10T09:28:03Z</time>
      </trkpt>
      <trkpt lat="43.16112" lon="3.1426">
        <ele>56.2</ele>
        <time>2024-05-10T09:28:04Z</time>
      </trkpt>
      <trkpt lat="43.16123" lon="3.14257">
        <ele>55.6</ele>
        <time>2024-05-10T09:28:05Z</time>
      </trkpt>
      <trkpt lat="43.16134" lon="3.14252">
        <ele>55.2</ele>
        <time>2024-05-10T09:28:06Z</time>
      </trkpt>
      <trkpt lat="43.16146" lon="3.14247">
        <ele>54.7</ele>
        <time>2024-05-10T09:28:07Z</time>
      </trkpt>
      <trkpt lat="43.16156" lon="3.14242">
        <ele>54.3</ele>
        <time>2024-05-10T09:28:08Z</time>
      </trkpt>
      <trkpt lat="43.16167" lon="3.14237">
        <ele>53.9</ele>
        <time>2024-05-10T09:28:09Z</time>
      </trkpt>
      <trkpt lat="43.16177" lon="3.14233">
        <ele>53.1</ele>
        <time>2024-05-10T09:28:10Z</time>
      </trkpt>
      <trkpt lat="43.16187" lon="3.14228">
        <ele>52.4</ele>
        <time>2024-05-10T09:28:11Z</time>
      </trkpt>
      <trkpt lat="43.16197" lon="3.14224">
        <ele>51.7</ele>
        <time>2024-05-10T09:28:12Z</time>
      </trkpt>
      <trkpt lat="43.16208" lon="3.14219">
        <ele>51.3</ele>
        <time>2024-05-10T09:28:13Z</time>
      </trkpt>
      <trkpt lat="43.16219" lon="3.14215">
        <ele>50.8</ele>
        <time>2024-05-10T09:28:14Z</time>
      </trkpt>
      <trkpt lat="43.1623" lon="3.14213">
        <ele>50.5</ele>
        <time>2024-05-10T09:28:15Z</time>
      </trkpt>
      <trkpt lat="43.16241" lon="3.14216">
        <ele>50.1</ele>
        <time>2024-05-10T09:28:16Z</time>
      </trkpt>
      <trkpt lat="43.16251" lon="3.14223">
        <ele>50</ele>
        <time>2024-05-10T09:28:17Z</time>
      </trkpt>
      <trkpt lat="43.16257" lon="3.14234">
        <ele>50</ele>
        <time>2024-05-10T09:28:18Z</time>
      </trkpt>
      <trkpt lat="43.16261" lon="3.14247">
        <ele>49.5</ele>
        <time>2024-05-10T09:28:19Z</time>
      </trkpt>
      <trkpt lat="43.16262" lon="3.14263">
        <ele>48.7</ele>
        <time>2024-05-10T09:28:20Z</time>
      </trkpt>
      <trkpt lat="43.16261" lon="3.14281">
        <ele>47.7</ele>
        <time>2024-05-10T09:28:21Z</time>
      </trkpt>
      <trkpt lat="43.16258" lon="3.14302">
        <ele>46.7</ele>
        <time>2024-05-10T09:28:22Z</time>
      </trkpt>
      <trkpt lat="43.16252" lon="3.14321">
        <ele>45.6</ele>
        <time>2024-05-10T09:28:23Z</time>
      </trkpt>
      <trkpt lat="43.16245" lon="3.1434">
        <ele>44.7</ele>
        <time>2024-05-10T09:28:24Z</time>
      </trkpt>
      <trkpt lat="43.16238" lon="3.14361">
        <ele>43.7</ele>
        <time>2024-05-10T09:28:25Z</time>
      </trkpt>
      <trkpt lat="43.16228" lon="3.14383">
        <ele>42.6</ele>
        <time>2024-05-10T09:28:26Z</time>
      </trkpt>
      <trkpt lat="43.16218" lon="3.14404">
        <ele>42.3</ele>
        <time>2024-05-10T09:28:27Z</time>
      </trkpt>
      <trkpt lat="43.16207" lon="3.14424">
        <ele>42</ele>
        <time>2024-05-10T09:28:28Z</time>
      </trkpt>
      <trkpt lat="43.16194" lon="3.14443">
        <ele>41</ele>
        <time>2024-05-10T09:28:29Z</time>
      </trkpt>
      <trkpt lat="43.16181" lon="3.14462">
        <ele>40.9</ele>
        <time>2024-05-10T09:28:30Z</time>
      </trkpt>
      <trkpt lat="43.16168" lon="3.14482">
        <ele>39.9</ele>
        <time>2024-05-10T09:28:31Z</time>
      </trkpt>
      <trkpt lat="43.16154" lon="3.14503">
        <ele>38.4</ele>
        <time>2024-05-10T09:28:32Z</time>
      </trkpt>
      <trkpt lat="43.1614" lon="3.14524">
        <ele>36.9</ele>
        <time>2024-05-10T09:28:33Z</time>
      </trkpt>
      <trkpt lat="43.16128" lon="3.14545">
        <ele>36.4</ele>
        <time>2024-05-10T09:28:34Z</time>
      </trkpt>
      <trkpt lat="43.16116" lon="3.14567">
        <ele>35.1</ele>
        <time>2024-05-10T09:28:35Z</time>
      </trkpt>
      <trkpt lat="43.16105" lon="3.14588">
        <ele>34</ele>
        <time>2024-05-10T09:28:36Z</time>
      </trkpt>
      <trkpt lat="43.16095" lon="3.14609">
        <ele>32.8</ele>
        <time>2024-05-10T09:28:37Z</time>
      </trkpt>
      <trkpt lat="43.16085" lon="3.1463">
        <ele>31.8</ele>
        <time>2024-05-10T09:28:38Z</time>
      </trkpt>
      <trkpt lat="43.16075" lon="3.14651">
        <ele>31.3</ele>
        <time>2024-05-10T09:28:39Z</time>
      </trkpt>
      <trkpt lat="43.16066" lon="3.14672">
        <ele>30.1</ele>
        <time>2024-05-10T09:28:40Z</time>
      </trkpt>
      <trkpt lat="43.16056" lon="3.14692">
        <ele>29.8</ele>
        <time>2024-05-10T09:28:41Z</time>
      </trkpt>
      <trkpt lat="43.16046" lon="3.14712">
        <ele>28.6</ele>
        <time>2024-05-10T09:28:42Z</time>
      </trkpt>
      <trkpt lat="43.16037" lon="3.14733">
        <ele>27.5</ele>
        <time>2024-05-10T09:28:43Z</time>
      </trkpt>
      <trkpt lat="43.16028" lon="3.14754">
        <ele>26</ele>
        <time>2024-05-10T09:28:44Z</time>
      </trkpt>
      <trkpt lat="43.1602" lon="3.14775">
        <ele>25.2</ele>
        <time>2024-05-10T09:28:45Z</time>
      </trkpt>
      <trkpt lat="43.16011" lon="3.14796">
        <ele>25</ele>
        <time>2024-05-10T09:28:46Z</time>
      </trkpt>
      <trkpt lat="43.16002" lon="3.14817">
        <ele>23.9</ele>
        <time>2024-05-10T09:28:47Z</time>
      </trkpt>
      <trkpt lat="43.15993" lon="3.1484">
        <ele>23.2</ele>
        <time>2024-05-10T09:28:48Z</time>
      </trkpt>
      <trkpt lat="43.15984" lon="3.14863">
        <ele>21.7</ele>
        <time>2024-05-10T09:28:49Z</time>
      </trkpt>
      <trkpt lat="43.15975" lon="3.14886">
        <ele>21</ele>
        <time>2024-05-10T09:28:50Z</time>
      </trkpt>
      <trkpt lat="43.15964" lon="3.14908">
        <ele>19.9</ele>
        <time>2024-05-10T09:28:51Z</time>
      </trkpt>
      <trkpt lat="43.15953" lon="3.1493">
        <ele>19.3</ele>
        <time>2024-05-10T09:28:52Z</time>
      </trkpt>
      <trkpt lat="43.15943" lon="3.14951">
        <ele>18.9</ele>
        <time>2024-05-10T09:28:53Z</time>
      </trkpt>
      <trkpt lat="43.15932" lon="3.14971">
        <ele>18.6</ele>
        <time>2024-05-10T09:28:54Z</time>
      </trkpt>
      <trkpt lat="43.15921" lon="3.14992">
        <ele>18.2</ele>
        <time>2024-05-10T09:28:55Z</time>
      </trkpt>
      <trkpt lat="43.1591" lon="3.15013">
        <ele>17.8</ele>
        <time>2024-05-10T09:28:56Z</time>
      </trkpt>
      <trkpt lat="43.15898" lon="3.15034">
        <ele>17.3</ele>
        <time>2024-05-10T09:28:57Z</time>
      </trkpt>
      <trkpt lat="43.15886" lon="3.15054">
        <ele>17</ele>
        <time>2024-05-10T09:28:58Z</time>
      </trkpt>
      <trkpt lat="43.15874" lon="3.15071">
        <ele>16.7</ele>
        <time>2024-05-10T09:28:59Z</time>
      </trkpt>
      <trkpt lat="43.1586" lon="3.15087">
        <ele>16.8</ele>
        <time>2024-05-10T09:29:00Z</time>
      </trkpt>
      <trkpt lat="43.15845" lon="3.15102">
        <ele>16.1</ele>
        <time>2024-05-10T09:29:01Z</time>
      </trkpt>
      <trkpt lat="43.15829" lon="3.15117">
        <ele>15.3</ele>
        <time>2024-05-10T09:29:02Z</time>
      </trkpt>
      <trkpt lat="43.15813" lon="3.15132">
        <ele>14.1</ele>
        <time>2024-05-10T09:29:03Z</time>
      </trkpt>
      <trkpt lat="43.15797" lon="3.15145">
        <ele>12.9</ele>
        <time>2024-05-10T09:29:04Z</time>
      </trkpt>
      <trkpt lat="43.15781" lon="3.15158">
        <ele>11.6</ele>
        <time>2024-05-10T09:29:05Z</time>
      </trkpt>
      <trkpt lat="43.15766" lon="3.15169">
        <ele>11.5</ele>
        <time>2024-05-10T09:29:06Z</time>
      </trkpt>
      <trkpt lat="43.1575" lon="3.1518">
        <ele>10.6</ele>
        <time>2024-05-10T09:29:07Z</time>
      </trkpt>
      <trkpt lat="43.15733" lon="3.15189">
        <ele>9.4</ele>
        <time>2024-05-10T09:29:08Z</time>
      </trkpt>
      <trkpt lat="43.15717" lon="3.15197">
        <ele>8.1</ele>
        <time>2024-05-10T09:29:09Z</time>
      </trkpt>
      <trkpt lat="43.157" lon="3.15203">
        <ele>6.1</ele>
        <time>2024-05-10T09:29:10Z</time>
      </trkpt>
      <trkpt lat="43.15685" lon="3.15212">
        <ele>5.9</ele>
        <time>2024-05-10T09:29:11Z</time>
      </trkpt>
      <trkpt lat="43.15671" lon="3.15224">
        <ele>5</ele>
        <time>2024-05-10T09:29:12Z</time>
      </trkpt>
      <trkpt lat="43.15659" lon="3.1524">
        <ele>6.6</ele>
        <time>2024-05-10T09:29:13Z</time>
      </trkpt>
      <trkpt lat="43.1565" lon="3.15258">
        <ele>6.6</ele>
        <time>2024-05-10T09:29:14Z</time>
      </trkpt>
      <trkpt lat="43.15641" lon="3.15278">
        <ele>4.9</ele>
        <time>2024-05-10T09:29:15Z</time>
      </trkpt>
      <trkpt lat="43.15634" lon="3.15297">
        <ele>5.8</ele>
        <time>2024-05-10T09:29:16Z</time>
      </trkpt>
      <trkpt lat="43.15628" lon="3.15316">
        <ele>6.4</ele>
        <time>2024-05-10T09:29:17Z</time>
      </trkpt>
      <trkpt lat="43.15624" lon="3.15336">
        <ele>5.4</ele>
        <time>2024-05-10T09:29:18Z</time>
      </trkpt>
      <trkpt lat="43.15621" lon="3.15355">
        <ele>4.4</ele>
        <time>2024-05-10T09:29:19Z</time>
      </trkpt>
      <trkpt lat="43.15619" lon="3.15373">
        <ele>3.9</ele>
        <time>2024-05-10T09:29:20Z</time>
      </trkpt>
      <trkpt lat="43.15617" lon="3.15389">
        <ele>3.4</ele>
        <time>2024-05-10T09:29:21Z</time>
      </trkpt>
      <trkpt lat="43.15616" lon="3.15404">
        <ele>3.8</ele>
        <time>2024-05-10T09:29:22Z</time>
      </trkpt>
      <trkpt lat="43.15614" lon="3.15419">
        <ele>4.1</ele>
        <time>2024-05-10T09:29:23Z</time>
      </trkpt>
      <trkpt lat="43.15611" lon="3.15432">
        <ele>4</ele>
        <time>2024-05-10T09:29:24Z</time>
      </trkpt>
      <trkpt lat="43.15608" lon="3.15446">
        <ele>4</ele>
        <time>2024-05-10T09:29:25Z</time>
      </trkpt>
      <trkpt lat="43.15603" lon="3.15459">
        <ele>3.7</ele>
        <time>2024-05-10T09:29:26Z</time>
      </trkpt>
      <trkpt lat="43.15598" lon="3.15471">
        <ele>3.1</ele>
        <time>2024-05-10T09:29:27Z</time>
      </trkpt>
      <trkpt lat="43.15593" lon="3.15481">
        <ele>3.1</ele>
        <time>2024-05-10T09:29:28Z</time>
      </trkpt>
      <trkpt lat="43.15588" lon="3.15491">
        <ele>3.5</ele>
        <time>2024-05-10T09:29:29Z</time>
      </trkpt>
      <trkpt lat="43.15583" lon="3.15499">
        <ele>3.9</ele>
        <time>2024-05-10T09:29:30Z</time>
      </trkpt>
      <trkpt lat="43.15577" lon="3.15507">
        <ele>3.5</ele>
        <time>2024-05-10T09:29:31Z</time>
      </trkpt>
      <trkpt lat="43.15573" lon="3.15515">
        <ele>3.1</ele>
        <time>2024-05-10T09:29:32Z</time>
      </trkpt>
      <trkpt lat="43.15571" lon="3.15524">
        <ele>2.7</ele>
        <time>2024-05-10T09:29:33Z</time>
      </trkpt>
      <trkpt lat="43.15569" lon="3.15534">
        <ele>2.6</ele>
        <time>2024-05-10T09:29:34Z</time>
      </trkpt>
      <trkpt lat="43.15569" lon="3.15543">
        <ele>2.8</ele>
        <time>2024-05-10T09:29:35Z</time>
      </trkpt>
      <trkpt lat="43.1557" lon="3.1555">
        <ele>2.9</ele>
        <time>2024-05-10T09:29:36Z</time>
      </trkpt>
      <trkpt lat="43.15571" lon="3.15557">
        <ele>3</ele>
        <time>2024-05-10T09:29:37Z</time>
      </trkpt>
      <trkpt lat="43.15572" lon="3.15563">
        <ele>3.2</ele>
        <time>2024-05-10T09:29:38Z</time>
      </trkpt>
      <trkpt lat="43.15572" lon="3.15566">
        <ele>3.2</ele>
        <time>2024-05-10T09:29:39Z</time>
      </trkpt>
      <trkpt lat="43.15572" lon="3.15569">
        <ele>3.3</ele>
        <time>2024-05-10T09:29:40Z</time>
      </trkpt>
      <trkpt lat="43.15572" lon="3.15571">
        <ele>3.3</ele>
        <time>2024-05-10T09:29:41Z</time>
      </trkpt>
      <trkpt lat="43.15571" lon="3.15573">
        <ele>3.3</ele>
        <time>2024-05-10T09:29:42Z</time>
      </trkpt>
      <trkpt lat="43.15571" lon="3.15573">
        <ele>3.3</ele>
        <time>2024-05-10T09:29:43Z</time>
      </trkpt>
      <trkpt lat="43.15571" lon="3.15572">
        <ele>3.3</ele>
        <time>2024-05-10T09:29:44Z</time>
      </trkpt>
      <trkpt lat="43.15571" lon="3.15572">
        <ele>3.3</ele>
        <time>2024-05-10T09:29:45Z</time>
      </trkpt>
      <trkpt lat="43.15572" lon="3.15572">
        <ele>3.4</ele>
        <time>2024-05-10T09:29:46Z</time>
      </trkpt>
      <trkpt lat="43.15572" lon="3.15572">
        <ele>3.4</ele>
        <time>2024-05-10T09:29:47Z</time>
      </trkpt>
      <trkpt lat="43.15572" lon="3.15572">
        <ele>3.4</ele>
        <time>2024-05-10T09:29:48Z</time>
      </trkpt>
      <trkpt lat="43.15572" lon="3.15572">
        <ele>3.4</ele>
        <time>2024-05-10T09:29:49Z</time>
      </trkpt>
      <trkpt lat="43.15571" lon="3.15575">
        <ele>3.4</ele>
        <time>2024-05-10T09:29:50Z</time>
      </trkpt>
      <trkpt lat="43.15569" lon="3.1558">
        <ele>3.4</ele>
        <time>2024-05-10T09:29:51Z</time>
      </trkpt>
      <trkpt lat="43.15564" lon="3.15588">
        <ele>3.3</ele>
        <time>2024-05-10T09:29:52Z</time>
      </trkpt>
      <trkpt lat="43.15561" lon="3.15598">
        <ele>3.2</ele>
        <time>2024-05-10T09:29:53Z</time>
      </trkpt>
      <trkpt lat="43.15559" lon="3.1561">
        <ele>3.1</ele>
        <time>2024-05-10T09:29:54Z</time>
      </trkpt>
      <trkpt lat="43.15556" lon="3.15623">
        <ele>3.4</ele>
        <time>2024-05-10T09:29:55Z</time>
      </trkpt>
      <trkpt lat="43.1555" lon="3.15634">
        <ele>3.3</ele>
        <time>2024-05-10T09:29:56Z</time>
      </trkpt>
      <trkpt lat="43.15542" lon="3.15643">
        <ele>2.5</ele>
        <time>2024-05-10T09:29:57Z</time>
      </trkpt>
      <trkpt lat="43.15532" lon="3.15653">
        <ele>2.2</ele>
        <time>2024-05-10T09:29:58Z</time>
      </trkpt>
      <trkpt lat="43.1552" lon="3.15664">
        <ele>2.4</ele>
        <time>2024-05-10T09:29:59Z</time>
      </trkpt>
      <trkpt lat="43.15507" lon="3.15676">
        <ele>2</ele>
        <time>2024-05-10T09:30:00Z</time>
      </trkpt>
      <trkpt lat="43.15492" lon="3.15689">
        <ele>2.7</ele>
        <time>2024-05-10T09:30:01Z</time>
      </trkpt>
      <trkpt lat="43.15477" lon="3.15702">
        <ele>3</ele>
        <time>2024-05-10T09:30:02Z</time>
      </trkpt>
      <trkpt lat="43.15461" lon="3.15716">
        <ele>2.9</ele>
        <time>2024-05-10T09:30:03Z</time>
      </trkpt>
      <trkpt lat="43.15444" lon="3.15729">
        <ele>2.7</ele>
        <time>2024-05-10T09:30:04Z</time>
      </trkpt>
      <trkpt lat="43.15426" lon="3.15741">
        <ele>2.6</ele>
        <time>2024-05-10T09:30:05Z</time>
      </trkpt>
      <trkpt lat="43.15408" lon="3.15753">
        <ele>2.6</ele>
        <time>2024-05-10T09:30:06Z</time>
      </trkpt>
      <trkpt lat="43.1539" lon="3.15763">
        <ele>2.5</ele>
        <time>2024-05-10T09:30:07Z</time>
      </trkpt>
      <trkpt lat="43.15372" lon="3.15772">
        <ele>2.8</ele>
        <time>2024-05-10T09:30:08Z</time>
      </trkpt>
      <trkpt lat="43.15354" lon="3.15779">
        <ele>2.8</ele>
        <time>2024-05-10T09:30:09Z</time>
      </trkpt>
      <trkpt lat="43.15337" lon="3.15784">
        <ele>2.3</ele>
        <time>2024-05-10T09:30:10Z</time>
      </trkpt>
      <trkpt lat="43.15319" lon="3.15789">
        <ele>2.4</ele>
        <time>2024-05-10T09:30:11Z</time>
      </trkpt>
      <trkpt lat="43.15302" lon="3.15792">
        <ele>2.5</ele>
        <time>2024-05-10T09:30:12Z</time>
      </trkpt>
      <trkpt lat="43.15285" lon="3.15795">
        <ele>2.6</ele>
        <time>2024-05-10T09:30:13Z</time>
      </trkpt>
      <trkpt lat="43.15269" lon="3.15797">
        <ele>2.5</ele>
        <time>2024-05-10T09:30:14Z</time>
      </trkpt>
      <trkpt lat="43.15253" lon="3.15798">
        <ele>2.1</ele>
        <time>2024-05-10T09:30:15Z</time>
      </trkpt>
      <trkpt lat="43.15238" lon="3.15797">
        <ele>1.9</ele>
        <time>2024-05-10T09:30:16Z</time>
      </trkpt>
      <trkpt lat="43.15221" lon="3.15796">
        <ele>1.7</ele>
        <time>2024-05-10T09:30:17Z</time>
      </trkpt>
      <trkpt lat="43.15203" lon="3.15795">
        <ele>1.9</ele>
        <time>2024-05-10T09:30:18Z</time>
      </trkpt>
      <trkpt lat="43.15184" lon="3.15791">
        <ele>2</ele>
        <time>2024-05-10T09:30:19Z</time>
      </trkpt>
      <trkpt lat="43.15163" lon="3.15786">
        <ele>2</ele>
        <time>2024-05-10T09:30:20Z</time>
      </trkpt>
      <trkpt lat="43.15141" lon="3.15778">
        <ele>2</ele>
        <time>2024-05-10T09:30:21Z</time>
      </trkpt>
      <trkpt lat="43.15119" lon="3.15769">
        <ele>1.9</ele>
        <time>2024-05-10T09:30:22Z</time>
      </trkpt>
      <trkpt lat="43.15099" lon="3.15759">
        <ele>1.9</ele>
        <time>2024-05-10T09:30:23Z</time>
      </trkpt>
      <trkpt lat="43.1508" lon="3.15748">
        <ele>1.9</ele>
        <time>2024-05-10T09:30:24Z</time>
      </trkpt>
      <trkpt lat="43.15062" lon="3.15736">
        <ele>1.9</ele>
        <time>2024-05-10T09:30:25Z</time>
      </trkpt>
      <trkpt lat="43.15045" lon="3.15723">
        <ele>2</ele>
        <time>2024-05-10T09:30:26Z</time>
      </trkpt>
      <trkpt lat="43.15029" lon="3.15709">
        <ele>2</ele>
        <time>2024-05-10T09:30:27Z</time>
      </trkpt>
      <trkpt lat="43.15012" lon="3.15692">
        <ele>2</ele>
        <time>2024-05-10T09:30:28Z</time>
      </trkpt>
      <trkpt lat="43.14996" lon="3.15672">
        <ele>1.3</ele>
        <time>2024-05-10T09:30:29Z</time>
      </trkpt>
      <trkpt lat="43.14979" lon="3.15651">
        <ele>1.8</ele>
        <time>2024-05-10T09:30:30Z</time>
      </trkpt>
      <trkpt lat="43.14962" lon="3.15628">
        <ele>1.8</ele>
        <time>2024-05-10T09:30:31Z</time>
      </trkpt>
      <trkpt lat="43.14947" lon="3.15604">
        <ele>1.9</ele>
        <time>2024-05-10T09:30:32Z</time>
      </trkpt>
      <trkpt lat="43.14932" lon="3.15581">
        <ele>1.5</ele>
        <time>2024-05-10T09:30:33Z</time>
      </trkpt>
      <trkpt lat="43.14919" lon="3.15557">
        <ele>1.9</ele>
        <time>2024-05-10T09:30:34Z</time>
      </trkpt>
      <trkpt lat="43.14906" lon="3.15534">
        <ele>1.4</ele>
        <time>2024-05-10T09:30:35Z</time>
      </trkpt>
      <trkpt lat="43.14893" lon="3.15512">
        <ele>1.9</ele>
        <time>2024-05-10T09:30:36Z</time>
      </trkpt>
      <trkpt lat="43.14881" lon="3.15491">
        <ele>2</ele>
        <time>2024-05-10T09:30:37Z</time>
      </trkpt>
      <trkpt lat="43.1487" lon="3.15472">
        <ele>2</ele>
        <time>2024-05-10T09:30:38Z</time>
      </trkpt>
      <trkpt lat="43.1486" lon="3.15455">
        <ele>2</ele>
        <time>2024-05-10T09:30:39Z</time>
      </trkpt>
      <trkpt lat="43.1485" lon="3.15438">
        <ele>1.9</ele>
        <time>2024-05-10T09:30:40Z</time>
      </trkpt>
      <trkpt lat="43.1484" lon="3.15421">
        <ele>1.8</ele>
        <time>2024-05-10T09:30:41Z</time>
      </trkpt>
      <trkpt lat="43.14831" lon="3.15405">
        <ele>1.6</ele>
        <time>2024-05-10T09:30:42Z</time>
      </trkpt>
      <trkpt lat="43.14822" lon="3.1539">
        <ele>1.4</ele>
        <time>2024-05-10T09:30:43Z</time>
      </trkpt>
      <trkpt lat="43.14814" lon="3.15375">
        <ele>1.7</ele>
        <time>2024-05-10T09:30:44Z</time>
      </trkpt>
      <trkpt lat="43.14806" lon="3.1536">
        <ele>1.9</ele>
        <time>2024-05-10T09:30:45Z</time>
      </trkpt>
      <trkpt lat="43.14797" lon="3.15346">
        <ele>1.6</ele>
        <time>2024-05-10T09:30:46Z</time>
      </trkpt>
      <trkpt lat="43.14789" lon="3.15331">
        <ele>1.6</ele>
        <time>2024-05-10T09:30:47Z</time>
      </trkpt>
      <trkpt lat="43.14779" lon="3.15316">
        <ele>2</ele>
        <time>2024-05-10T09:30:48Z</time>
      </trkpt>
      <trkpt lat="43.1477" lon="3.153">
        <ele>1.6</ele>
        <time>2024-05-10T09:30:49Z</time>
      </trkpt>
      <trkpt lat="43.1476" lon="3.15283">
        <ele>1.6</ele>
        <time>2024-05-10T09:30:50Z</time>
      </trkpt>
      <trkpt lat="43.1475" lon="3.15267">
        <ele>1.6</ele>
        <time>2024-05-10T09:30:51Z</time>
      </trkpt>
      <trkpt lat="43.14741" lon="3.15251">
        <ele>1.3</ele>
        <time>2024-05-10T09:30:52Z</time>
      </trkpt>
      <trkpt lat="43.14732" lon="3.15235">
        <ele>1.6</ele>
        <time>2024-05-10T09:30:53Z</time>
      </trkpt>
      <trkpt lat="43.14723" lon="3.1522">
        <ele>1.9</ele>
        <time>2024-05-10T09:30:54Z</time>
      </trkpt>
      <trkpt lat="43.14715" lon="3.15205">
        <ele>1.5</ele>
        <time>2024-05-10T09:30:55Z</time>
      </trkpt>
      <trkpt lat="43.14706" lon="3.1519">
        <ele>1.6</ele>
        <time>2024-05-10T09:30:56Z</time>
      </trkpt>
      <trkpt lat="43.14697" lon="3.15174">
        <ele>1.9</ele>
        <time>2024-05-10T09:30:57Z</time>
      </trkpt>
      <trkpt lat="43.14687" lon="3.15157">
        <ele>1.7</ele>
        <time>2024-05-10T09:30:58Z</time>
      </trkpt>
      <trkpt lat="43.14678" lon="3.15141">
        <ele>1.6</ele>
        <time>2024-05-10T09:30:59Z</time>
      </trkpt>
      <trkpt lat="43.14669" lon="3.15124">
        <ele>1.4</ele>
        <time>2024-05-10T09:31:00Z</time>
      </trkpt>
      <trkpt lat="43.14659" lon="3.15108">
        <ele>1</ele>
        <time>2024-05-10T09:31:01Z</time>
      </trkpt>
      <trkpt lat="43.14651" lon="3.15092">
        <ele>1.4</ele>
        <time>2024-05-10T09:31:02Z</time>
      </trkpt>
      <trkpt lat="43.14642" lon="3.15076">
        <ele>1.7</ele>
        <time>2024-05-10T09:31:03Z</time>
      </trkpt>
      <trkpt lat="43.14633" lon="3.15059">
        <ele>1.1</ele>
        <time>2024-05-10T09:31:04Z</time>
      </trkpt>
      <trkpt lat="43.14624" lon="3.15039">
        <ele>1.3</ele>
        <time>2024-05-10T09:31:05Z</time>
      </trkpt>
      <trkpt lat="43.14615" lon="3.1502">
        <ele>1.6</ele>
        <time>2024-05-10T09:31:06Z</time>
      </trkpt>
      <trkpt lat="43.14607" lon="3.14999">
        <ele>1</ele>
        <time>2024-05-10T09:31:07Z</time>
      </trkpt>
      <trkpt lat="43.146" lon="3.14977">
        <ele>1.3</ele>
        <time>2024-05-10T09:31:08Z</time>
      </trkpt>
      <trkpt lat="43.14593" lon="3.14955">
        <ele>1.7</ele>
        <time>2024-05-10T09:31:09Z</time>
      </trkpt>
      <trkpt lat="43.14587" lon="3.14932">
        <ele>1.9</ele>
        <time>2024-05-10T09:31:10Z</time>
      </trkpt>
      <trkpt lat="43.14582" lon="3.14909">
        <ele>1.7</ele>
        <time>2024-05-10T09:31:11Z</time>
      </trkpt>
      <trkpt lat="43.14577" lon="3.14886">
        <ele>1</ele>
        <time>2024-05-10T09:31:12Z</time>
      </trkpt>
      <trkpt lat="43.14573" lon="3.14864">
        <ele>1</ele>
        <time>2024-05-10T09:31:13Z</time>
      </trkpt>
      <trkpt lat="43.1457" lon="3.14842">
        <ele>1.3</ele>
        <time>2024-05-10T09:31:14Z</time>
      </trkpt>
      <trkpt lat="43.14569" lon="3.1482">
        <ele>1.5</ele>
        <time>2024-05-10T09:31:15Z</time>
      </trkpt>
      <trkpt lat="43.14567" lon="3.14798">
        <ele>1.6</ele>
        <time>2024-05-10T09:31:16Z</time>
      </trkpt>
      <trkpt lat="43.14566" lon="3.14776">
        <ele>1.6</ele>
        <time>2024-05-10T09:31:17Z</time>
      </trkpt>
      <trkpt lat="43.14565" lon="3.14754">
        <ele>1.7</ele>
        <time>2024-05-10T09:31:18Z</time>
      </trkpt>
      <trkpt lat="43.14564" lon="3.14731">
        <ele>1.9</ele>
        <time>2024-05-10T09:31:19Z</time>
      </trkpt>
      <trkpt lat="43.14564" lon="3.1471">
        <ele>2</ele>
        <time>2024-05-10T09:31:20Z</time>
      </trkpt>
      <trkpt lat="43.14564" lon="3.14689">
        <ele>1.9</ele>
        <time>2024-05-10T09:31:21Z</time>
      </trkpt>
      <trkpt lat="43.14564" lon="3.14669">
        <ele>1.7</ele>
        <time>2024-05-10T09:31:22Z</time>
      </trkpt>
      <trkpt lat="43.14563" lon="3.1465">
        <ele>1.7</ele>
        <time>2024-05-10T09:31:23Z</time>
      </trkpt>
      <trkpt lat="43.14563" lon="3.14632">
        <ele>1.7</ele>
        <time>2024-05-10T09:31:24Z</time>
      </trkpt>
      <trkpt lat="43.14563" lon="3.14616">
        <ele>1.7</ele>
        <time>2024-05-10T09:31:25Z</time>
      </trkpt>
      <trkpt lat="43.14563" lon="3.14601">
        <ele>1.7</ele>
        <time>2024-05-10T09:31:26Z</time>
      </trkpt>
      <trkpt lat="43.14562" lon="3.14586">
        <ele>1.8</ele>
        <time>2024-05-10T09:31:27Z</time>
      </trkpt>
      <trkpt lat="43.14561" lon="3.14573">
        <ele>1.8</ele>
        <time>2024-05-10T09:31:28Z</time>
      </trkpt>
      <trkpt lat="43.14561" lon="3.1456">
        <ele>1.8</ele>
        <time>2024-05-10T09:31:29Z</time>
      </trkpt>
      <trkpt lat="43.14559" lon="3.14549">
        <ele>1.9</ele>
        <time>2024-05-10T09:31:30Z</time>
      </trkpt>
      <trkpt lat="43.14558" lon="3.14539">
        <ele>1.9</ele>
        <time>2024-05-10T09:31:31Z</time>
      </trkpt>
      <trkpt lat="43.14558" lon="3.14532">
        <ele>1.9</ele>
        <time>2024-05-10T09:31:32Z</time>
      </trkpt>
      <trkpt lat="43.14557" lon="3.14524">
        <ele>1.9</ele>
        <time>2024-05-10T09:31:33Z</time>
      </trkpt>
      <trkpt lat="43.14557" lon="3.14518">
        <ele>1.9</ele>
        <time>2024-05-10T09:31:34Z</time>
      </trkpt>
      <trkpt lat="43.14557" lon="3.14512">
        <ele>1.9</ele>
        <time>2024-05-10T09:31:35Z</time>
      </trkpt>
      <trkpt lat="43.14558" lon="3.14506">
        <ele>1.9</ele>
        <time>2024-05-10T09:31:36Z</time>
      </trkpt>
      <trkpt lat="43.14559" lon="3.14499">
        <ele>1.9</ele>
        <time>2024-05-10T09:31:37Z</time>
      </trkpt>
      <trkpt lat="43.14559" lon="3.14491">
        <ele>1.9</ele>
        <time>2024-05-10T09:31:38Z</time>
      </trkpt>
      <trkpt lat="43.14558" lon="3.14483">
        <ele>1.9</ele>
        <time>2024-05-10T09:31:39Z</time>
      </trkpt>
      <trkpt lat="43.14553" lon="3.14475">
        <ele>2</ele>
        <time>2024-05-10T09:31:40Z</time>
      </trkpt>
      <trkpt lat="43.14549" lon="3.14465">
        <ele>2</ele>
        <time>2024-05-10T09:31:41Z</time>
      </trkpt>
      <trkpt lat="43.14545" lon="3.14452">
        <ele>2</ele>
        <time>2024-05-10T09:31:42Z</time>
      </trkpt>
      <trkpt lat="43.14541" lon="3.14437">
        <ele>1.9</ele>
        <time>2024-05-10T09:31:43Z</time>
      </trkpt>
      <trkpt lat="43.14537" lon="3.14419">
        <ele>1.7</ele>
        <time>2024-05-10T09:31:44Z</time>
      </trkpt>
      <trkpt lat="43.14532" lon="3.14402">
        <ele>1.8</ele>
        <time>2024-05-10T09:31:45Z</time>
      </trkpt>
      <trkpt lat="43.14525" lon="3.14382">
        <ele>2</ele>
        <time>2024-05-10T09:31:46Z</time>
      </trkpt>
      <trkpt lat="43.14517" lon="3.14363">
        <ele>2</ele>
        <time>2024-05-10T09:31:47Z</time>
      </trkpt>
      <trkpt lat="43.14509" lon="3.14343">
        <ele>1.8</ele>
        <time>2024-05-10T09:31:48Z</time>
      </trkpt>
      <trkpt lat="43.145" lon="3.14324">
        <ele>2</ele>
        <time>2024-05-10T09:31:49Z</time>
      </trkpt>
      <trkpt lat="43.1449" lon="3.14304">
        <ele>2</ele>
        <time>2024-05-10T09:31:50Z</time>
      </trkpt>
      <trkpt lat="43.14479" lon="3.14285">
        <ele>1.8</ele>
        <time>2024-05-10T09:31:51Z</time>
      </trkpt>
      <trkpt lat="43.14467" lon="3.14266">
        <ele>2</ele>
        <time>2024-05-10T09:31:52Z</time>
      </trkpt>
      <trkpt lat="43.14455" lon="3.14247">
        <ele>2</ele>
        <time>2024-05-10T09:31:53Z</time>
      </trkpt>
      <trkpt lat="43.14441" lon="3.14229">
        <ele>2</ele>
        <time>2024-05-10T09:31:54Z</time>
      </trkpt>
      <trkpt lat="43.14427" lon="3.14212">
        <ele>1.9</ele>
        <time>2024-05-10T09:31:55Z</time>
      </trkpt>
      <trkpt lat="43.14413" lon="3.14196">
        <ele>2</ele>
        <time>2024-05-10T09:31:56Z</time>
      </trkpt>
      <trkpt lat="43.14398" lon="3.14181">
        <ele>1.8</ele>
        <time>2024-05-10T09:31:57Z</time>
      </trkpt>
      <trkpt lat="43.14383" lon="3.14167">
        <ele>2</ele>
        <time>2024-05-10T09:31:58Z</time>
      </trkpt>
      <trkpt lat="43.14367" lon="3.14152">
        <ele>1.9</ele>
        <time>2024-05-10T09:31:59Z</time>
      </trkpt>
      <trkpt lat="43.14352" lon="3.14137">
        <ele>2.3</ele>
        <time>2024-05-10T09:32:00Z</time>
      </trkpt>
      <trkpt lat="43.14336" lon="3.14122">
        <ele>2.4</ele>
        <time>2024-05-10T09:32:01Z</time>
      </trkpt>
      <trkpt lat="43.1432" lon="3.14106">
        <ele>2.4</ele>
        <time>2024-05-10T09:32:02Z</time>
      </trkpt>
      <trkpt lat="43.14304" lon="3.14089">
        <ele>2.2</ele>
        <time>2024-05-10T09:32:03Z</time>
      </trkpt>
      <trkpt lat="43.14288" lon="3.14074">
        <ele>2</ele>
        <time>2024-05-10T09:32:04Z</time>
      </trkpt>
      <trkpt lat="43.14273" lon="3.14058">
        <ele>2</ele>
        <time>2024-05-10T09:32:05Z</time>
      </trkpt>
      <trkpt lat="43.14258" lon="3.14044">
        <ele>2</ele>
        <time>2024-05-10T09:32:06Z</time>
      </trkpt>
      <trkpt lat="43.14243" lon="3.14031">
        <ele>2</ele>
        <time>2024-05-10T09:32:07Z</time>
      </trkpt>
      <trkpt lat="43.14229" lon="3.14017">
        <ele>2</ele>
        <time>2024-05-10T09:32:08Z</time>
      </trkpt>
      <trkpt lat="43.14216" lon="3.14004">
        <ele>2.2</ele>
        <time>2024-05-10T09:32:09Z</time>
      </trkpt>
      <trkpt lat="43.14203" lon="3.13991">
        <ele>2.4</ele>
        <time>2024-05-10T09:32:10Z</time>
      </trkpt>
      <trkpt lat="43.1419" lon="3.13979">
        <ele>2.2</ele>
        <time>2024-05-10T09:32:11Z</time>
      </trkpt>
      <trkpt lat="43.14176" lon="3.13966">
        <ele>1.9</ele>
        <time>2024-05-10T09:32:12Z</time>
      </trkpt>
      <trkpt lat="43.14163" lon="3.13954">
        <ele>2</ele>
        <time>2024-05-10T09:32:13Z</time>
      </trkpt>
      <trkpt lat="43.14149" lon="3.1394">
        <ele>1.9</ele>
        <time>2024-05-10T09:32:14Z</time>
      </trkpt>
      <trkpt lat="43.14134" lon="3.13927">
        <ele>2.1</ele>
        <time>2024-05-10T09:32:15Z</time>
      </trkpt>
      <trkpt lat="43.1412" lon="3.13914">
        <ele>1.9</ele>
        <time>2024-05-10T09:32:16Z</time>
      </trkpt>
      <trkpt lat="43.14106" lon="3.13902">
        <ele>1.7</ele>
        <time>2024-05-10T09:32:17Z</time>
      </trkpt>
      <trkpt lat="43.14092" lon="3.13889">
        <ele>1.7</ele>
        <time>2024-05-10T09:32:18Z</time>
      </trkpt>
      <trkpt lat="43.14078" lon="3.13876">
        <ele>2.1</ele>
        <time>2024-05-10T09:32:19Z</time>
      </trkpt>
      <trkpt lat="43.14064" lon="3.13862">
        <ele>2</ele>
        <time>2024-05-10T09:32:20Z</time>
      </trkpt>
      <trkpt lat="43.14049" lon="3.13847">
        <ele>2.1</ele>
        <time>2024-05-10T09:32:21Z</time>
      </trkpt>
      <trkpt lat="43.14035" lon="3.13832">
        <ele>2</ele>
        <time>2024-05-10T09:32:22Z</time>
      </trkpt>
      <trkpt lat="43.1402" lon="3.13817">
        <ele>1.7</ele>
        <time>2024-05-10T09:32:23Z</time>
      </trkpt>
      <trkpt lat="43.14005" lon="3.13802">
        <ele>1.8</ele>
        <time>2024-05-10T09:32:24Z</time>
      </trkpt>
      <trkpt lat="43.13989" lon="3.13787">
        <ele>2.1</ele>
        <time>2024-05-10T09:32:25Z</time>
      </trkpt>
      <trkpt lat="43.13973" lon="3.13772">
        <ele>2</ele>
        <time>2024-05-10T09:32:26Z</time>
      </trkpt>
      <trkpt lat="43.13957" lon="3.13756">
        <ele>2.1</ele>
        <time>2024-05-10T09:32:27Z</time>
      </trkpt>
      <trkpt lat="43.13941" lon="3.13741">
        <ele>1.8</ele>
        <time>2024-05-10T09:32:28Z</time>
      </trkpt>
      <trkpt lat="43.13925" lon="3.13725">
        <ele>1.8</ele>
        <time>2024-05-10T09:32:29Z</time>
      </trkpt>
      <trkpt lat="43.1391" lon="3.13711">
        <ele>1.8</ele>
        <time>2024-05-10T09:32:30Z</time>
      </trkpt>
      <trkpt lat="43.13895" lon="3.13696">
        <ele>1.8</ele>
        <time>2024-05-10T09:32:31Z</time>
      </trkpt>
      <trkpt lat="43.1388" lon="3.13682">
        <ele>1.9</ele>
        <time>2024-05-10T09:32:32Z</time>
      </trkpt>
      <trkpt lat="43.13866" lon="3.13669">
        <ele>1.9</ele>
        <time>2024-05-10T09:32:33Z</time>
      </trkpt>
      <trkpt lat="43.13852" lon="3.13655">
        <ele>1.7</ele>
        <time>2024-05-10T09:32:34Z</time>
      </trkpt>
      <trkpt lat="43.13839" lon="3.13643">
        <ele>1.8</ele>
        <time>2024-05-10T09:32:35Z</time>
      </trkpt>
      <trkpt lat="43.13826" lon="3.13631">
        <ele>1.8</ele>
        <time>2024-05-10T09:32:36Z</time>
      </trkpt>
      <trkpt lat="43.13815" lon="3.1362">
        <ele>1.8</ele>
        <time>2024-05-10T09:32:37Z</time>
      </trkpt>
      <trkpt lat="43.13805" lon="3.1361">
        <ele>2</ele>
        <time>2024-05-10T09:32:38Z</time>
      </trkpt>
      <trkpt lat="43.13795" lon="3.13601">
        <ele>2.2</ele>
        <time>2024-05-10T09:32:39Z</time>
      </trkpt>
      <trkpt lat="43.13785" lon="3.13593">
        <ele>2.3</ele>
        <time>2024-05-10T09:32:40Z</time>
      </trkpt>
      <trkpt lat="43.13776" lon="3.13584">
        <ele>2.1</ele>
        <time>2024-05-10T09:32:41Z</time>
      </trkpt>
      <trkpt lat="43.13767" lon="3.13575">
        <ele>2.3</ele>
        <time>2024-05-10T09:32:42Z</time>
      </trkpt>
      <trkpt lat="43.13758" lon="3.13567">
        <ele>2.3</ele>
        <time>2024-05-10T09:32:43Z</time>
      </trkpt>
      <trkpt lat="43.13748" lon="3.13558">
        <ele>2.2</ele>
        <time>2024-05-10T09:32:44Z</time>
      </trkpt>
      <trkpt lat="43.13739" lon="3.1355">
        <ele>2.3</ele>
        <time>2024-05-10T09:32:45Z</time>
      </trkpt>
      <trkpt lat="43.13729" lon="3.13541">
        <ele>2.4</ele>
        <time>2024-05-10T09:32:46Z</time>
      </trkpt>
      <trkpt lat="43.13719" lon="3.13531">
        <ele>2.1</ele>
        <time>2024-05-10T09:32:47Z</time>
      </trkpt>
      <trkpt lat="43.13708" lon="3.1352">
        <ele>2</ele>
        <time>2024-05-10T09:32:48Z</time>
      </trkpt>
      <trkpt lat="43.13697" lon="3.13509">
        <ele>2</ele>
        <time>2024-05-10T09:32:49Z</time>
      </trkpt>
      <trkpt lat="43.13686" lon="3.13497">
        <ele>1.9</ele>
        <time>2024-05-10T09:32:50Z</time>
      </trkpt>
      <trkpt lat="43.13677" lon="3.13484">
        <ele>1.8</ele>
        <time>2024-05-10T09:32:51Z</time>
      </trkpt>
      <trkpt lat="43.13667" lon="3.13471">
        <ele>2</ele>
        <time>2024-05-10T09:32:52Z</time>
      </trkpt>
      <trkpt lat="43.13659" lon="3.13459">
        <ele>2</ele>
        <time>2024-05-10T09:32:53Z</time>
      </trkpt>
      <trkpt lat="43.13651" lon="3.13448">
        <ele>2</ele>
        <time>2024-05-10T09:32:54Z</time>
      </trkpt>
      <trkpt lat="43.13644" lon="3.13439">
        <ele>2</ele>
        <time>2024-05-10T09:32:55Z</time>
      </trkpt>
      <trkpt lat="43.13639" lon="3.13431">
        <ele>2</ele>
        <time>2024-05-10T09:32:56Z</time>
      </trkpt>
      <trkpt lat="43.13635" lon="3.13424">
        <ele>2</ele>
        <time>2024-05-10T09:32:57Z</time>
      </trkpt>
      <trkpt lat="43.13633" lon="3.13419">
        <ele>2</ele>
        <time>2024-05-10T09:32:58Z</time>
      </trkpt>
      <trkpt lat="43.13631" lon="3.13414">
        <ele>2</ele>
        <time>2024-05-10T09:32:59Z</time>
      </trkpt>
      <trkpt lat="43.13629" lon="3.13409">
        <ele>2.1</ele>
        <time>2024-05-10T09:33:00Z</time>
      </trkpt>
      <trkpt lat="43.13629" lon="3.13405">
        <ele>2.1</ele>
        <time>2024-05-10T09:33:01Z</time>
      </trkpt>
      <trkpt lat="43.13628" lon="3.13399">
        <ele>2.2</ele>
        <time>2024-05-10T09:33:02Z</time>
      </trkpt>
      <trkpt lat="43.13626" lon="3.1339">
        <ele>2.4</ele>
        <time>2024-05-10T09:33:03Z</time>
      </trkpt>
      <trkpt lat="43.13623" lon="3.13382">
        <ele>2.4</ele>
        <time>2024-05-10T09:33:04Z</time>
      </trkpt>
      <trkpt lat="43.13619" lon="3.13378">
        <ele>2.4</ele>
        <time>2024-05-10T09:33:05Z</time>
      </trkpt>
      <trkpt lat="43.13614" lon="3.13377">
        <ele>2.5</ele>
        <time>2024-05-10T09:33:06Z</time>
      </trkpt>
      <trkpt lat="43.13606" lon="3.13378">
        <ele>2.5</ele>
        <time>2024-05-10T09:33:07Z</time>
      </trkpt>
      <trkpt lat="43.13595" lon="3.13376">
        <ele>2.2</ele>
        <time>2024-05-10T09:33:08Z</time>
      </trkpt>
      <trkpt lat="43.13583" lon="3.13372">
        <ele>2</ele>
        <time>2024-05-10T09:33:09Z</time>
      </trkpt>
      <trkpt lat="43.13569" lon="3.13365">
        <ele>2</ele>
        <time>2024-05-10T09:33:10Z</time>
      </trkpt>
      <trkpt lat="43.13557" lon="3.13359">
        <ele>2</ele>
        <time>2024-05-10T09:33:11Z</time>
      </trkpt>
      <trkpt lat="43.13544" lon="3.13351">
        <ele>2</ele>
        <time>2024-05-10T09:33:12Z</time>
      </trkpt>
      <trkpt lat="43.1353" lon="3.13343">
        <ele>2</ele>
        <time>2024-05-10T09:33:13Z</time>
      </trkpt>
      <trkpt lat="43.13515" lon="3.13333">
        <ele>2</ele>
        <time>2024-05-10T09:33:14Z</time>
      </trkpt>
      <trkpt lat="43.13501" lon="3.13321">
        <ele>2</ele>
        <time>2024-05-10T09:33:15Z</time>
      </trkpt>
      <trkpt lat="43.13486" lon="3.13307">
        <ele>2</ele>
        <time>2024-05-10T09:33:16Z</time>
      </trkpt>
      <trkpt lat="43.1347" lon="3.13293">
        <ele>1.6</ele>
        <time>2024-05-10T09:33:17Z</time>
      </trkpt>
      <trkpt lat="43.13454" lon="3.13278">
        <ele>1.7</ele>
        <time>2024-05-10T09:33:18Z</time>
      </trkpt>
      <trkpt lat="43.13438" lon="3.13262">
        <ele>1.7</ele>
        <time>2024-05-10T09:33:19Z</time>
      </trkpt>
      <trkpt lat="43.13421" lon="3.13246">
        <ele>1.7</ele>
        <time>2024-05-10T09:33:20Z</time>
      </trkpt>
      <trkpt lat="43.13405" lon="3.1323">
        <ele>1.7</ele>
        <time>2024-05-10T09:33:21Z</time>
      </trkpt>
      <trkpt lat="43.13388" lon="3.13213">
        <ele>1.7</ele>
        <time>2024-05-10T09:33:22Z</time>
      </trkpt>
      <trkpt lat="43.1337" lon="3.13196">
        <ele>1.7</ele>
        <time>2024-05-10T09:33:23Z</time>
      </trkpt>
      <trkpt lat="43.13352" lon="3.13179">
        <ele>1.8</ele>
        <time>2024-05-10T09:33:24Z</time>
      </trkpt>
      <trkpt lat="43.13334" lon="3.13161">
        <ele>1.8</ele>
        <time>2024-05-10T09:33:25Z</time>
      </trkpt>
      <trkpt lat="43.13316" lon="3.13144">
        <ele>1.8</ele>
        <time>2024-05-10T09:33:26Z</time>
      </trkpt>
      <trkpt lat="43.13298" lon="3.13127">
        <ele>1.8</ele>
        <time>2024-05-10T09:33:27Z</time>
      </trkpt>
      <trkpt lat="43.13281" lon="3.13111">
        <ele>1.9</ele>
        <time>2024-05-10T09:33:28Z</time>
      </trkpt>
      <trkpt lat="43.13264" lon="3.13094">
        <ele>1.9</ele>
        <time>2024-05-10T09:33:29Z</time>
      </trkpt>
      <trkpt lat="43.13247" lon="3.13078">
        <ele>1.8</ele>
        <time>2024-05-10T09:33:30Z</time>
      </trkpt>
      <trkpt lat="43.13229" lon="3.13061">
        <ele>1.8</ele>
        <time>2024-05-10T09:33:31Z</time>
      </trkpt>
      <trkpt lat="43.13211" lon="3.13044">
        <ele>2</ele>
        <time>2024-05-10T09:33:32Z</time>
      </trkpt>
      <trkpt lat="43.13194" lon="3.13028">
        <ele>2</ele>
        <time>2024-05-10T09:33:33Z</time>
      </trkpt>
      <trkpt lat="43.13177" lon="3.13012">
        <ele>2.1</ele>
        <time>2024-05-10T09:33:34Z</time>
      </trkpt>
      <trkpt lat="43.13161" lon="3.12996">
        <ele>2.2</ele>
        <time>2024-05-10T09:33:35Z</time>
      </trkpt>
      <trkpt lat="43.13146" lon="3.12981">
        <ele>2.2</ele>
        <time>2024-05-10T09:33:36Z</time>
      </trkpt>
      <trkpt lat="43.13131" lon="3.12966">
        <ele>2.3</ele>
        <time>2024-05-10T09:33:37Z</time>
      </trkpt>
      <trkpt lat="43.13117" lon="3.12952">
        <ele>2.8</ele>
        <time>2024-05-10T09:33:38Z</time>
      </trkpt>
      <trkpt lat="43.13103" lon="3.12938">
        <ele>2.8</ele>
        <time>2024-05-10T09:33:39Z</time>
      </trkpt>
      <trkpt lat="43.1309" lon="3.12925">
        <ele>2.8</ele>
        <time>2024-05-10T09:33:40Z</time>
      </trkpt>
      <trkpt lat="43.13077" lon="3.12911">
        <ele>3</ele>
        <time>2024-05-10T09:33:41Z</time>
      </trkpt>
      <trkpt lat="43.13064" lon="3.12898">
        <ele>3</ele>
        <time>2024-05-10T09:33:42Z</time>
      </trkpt>
      <trkpt lat="43.13052" lon="3.12884">
        <ele>3</ele>
        <time>2024-05-10T09:33:43Z</time>
      </trkpt>
      <trkpt lat="43.1304" lon="3.12872">
        <ele>3.3</ele>
        <time>2024-05-10T09:33:44Z</time>
      </trkpt>
      <trkpt lat="43.13029" lon="3.1286">
        <ele>3.9</ele>
        <time>2024-05-10T09:33:45Z</time>
      </trkpt>
      <trkpt lat="43.1302" lon="3.12849">
        <ele>3.5</ele>
        <time>2024-05-10T09:33:46Z</time>
      </trkpt>
      <trkpt lat="43.13012" lon="3.12839">
        <ele>3.5</ele>
        <time>2024-05-10T09:33:47Z</time>
      </trkpt>
      <trkpt lat="43.13005" lon="3.1283">
        <ele>3.8</ele>
        <time>2024-05-10T09:33:48Z</time>
      </trkpt>
      <trkpt lat="43.13" lon="3.12822">
        <ele>4</ele>
        <time>2024-05-10T09:33:49Z</time>
      </trkpt>
      <trkpt lat="43.12996" lon="3.12815">
        <ele>4</ele>
        <time>2024-05-10T09:33:50Z</time>
      </trkpt>
      <trkpt lat="43.12993" lon="3.1281">
        <ele>4</ele>
        <time>2024-05-10T09:33:51Z</time>
      </trkpt>
      <trkpt lat="43.12992" lon="3.12806">
        <ele>4</ele>
        <time>2024-05-10T09:33:52Z</time>
      </trkpt>
      <trkpt lat="43.12991" lon="3.12803">
        <ele>3.9</ele>
        <time>2024-05-10T09:33:53Z</time>
      </trkpt>
      <trkpt lat="43.1299" lon="3.12801">
        <ele>3.9</ele>
        <time>2024-05-10T09:33:54Z</time>
      </trkpt>
      <trkpt lat="43.1299" lon="3.12801">
        <ele>3.9</ele>
        <time>2024-05-10T09:33:55Z</time>
      </trkpt>
      <trkpt lat="43.1299" lon="3.12801">
        <ele>3.9</ele>
        <time>2024-05-10T09:33:56Z</time>
      </trkpt>
      <trkpt lat="43.1299" lon="3.12801">
        <ele>3.9</ele>
        <time>2024-05-10T09:33:57Z</time>
      </trkpt>
      <trkpt lat="43.1299" lon="3.12801">
        <ele>3.9</ele>
        <time>2024-05-10T09:33:58Z</time>
      </trkpt>
      <trkpt lat="43.1299" lon="3.12801">
        <ele>3.9</ele>
        <time>2024-05-10T09:33:59Z</time>
      </trkpt>
      <trkpt lat="43.12991" lon="3.12801">
        <ele>3.9</ele>
        <time>2024-05-10T09:34:00Z</time>
      </trkpt>
      <trkpt lat="43.1299" lon="3.12799">
        <ele>3.8</ele>
        <time>2024-05-10T09:34:01Z</time>
      </trkpt>
      <trkpt lat="43.12989" lon="3.12793">
        <ele>3.7</ele>
        <time>2024-05-10T09:34:02Z</time>
      </trkpt>
      <trkpt lat="43.12987" lon="3.12784">
        <ele>3.6</ele>
        <time>2024-05-10T09:34:03Z</time>
      </trkpt>
      <trkpt lat="43.12983" lon="3.12778">
        <ele>3.6</ele>
        <time>2024-05-10T09:34:04Z</time>
      </trkpt>
      <trkpt lat="43.12976" lon="3.12774">
        <ele>3.7</ele>
        <time>2024-05-10T09:34:05Z</time>
      </trkpt>
      <trkpt lat="43.12967" lon="3.1277">
        <ele>3.8</ele>
        <time>2024-05-10T09:34:06Z</time>
      </trkpt>
      <trkpt lat="43.12957" lon="3.12761">
        <ele>3.7</ele>
        <time>2024-05-10T09:34:07Z</time>
      </trkpt>
      <trkpt lat="43.12945" lon="3.12748">
        <ele>3.9</ele>
        <time>2024-05-10T09:34:08Z</time>
      </trkpt>
      <trkpt lat="43.12934" lon="3.12732">
        <ele>3.3</ele>
        <time>2024-05-10T09:34:09Z</time>
      </trkpt>
      <trkpt lat="43.12922" lon="3.12715">
        <ele>3.5</ele>
        <time>2024-05-10T09:34:10Z</time>
      </trkpt>
      <trkpt lat="43.12909" lon="3.12695">
        <ele>3</ele>
        <time>2024-05-10T09:34:11Z</time>
      </trkpt>
      <trkpt lat="43.12896" lon="3.12676">
        <ele>3.3</ele>
        <time>2024-05-10T09:34:12Z</time>
      </trkpt>
      <trkpt lat="43.12882" lon="3.12656">
        <ele>3.2</ele>
        <time>2024-05-10T09:34:13Z</time>
      </trkpt>
      <trkpt lat="43.12868" lon="3.12635">
        <ele>2.9</ele>
        <time>2024-05-10T09:34:14Z</time>
      </trkpt>
      <trkpt lat="43.12853" lon="3.12614">
        <ele>2.7</ele>
        <time>2024-05-10T09:34:15Z</time>
      </trkpt>
      <trkpt lat="43.12839" lon="3.12593">
        <ele>2.6</ele>
        <time>2024-05-10T09:34:16Z</time>
      </trkpt>
      <trkpt lat="43.12824" lon="3.12571">
        <ele>2.3</ele>
        <time>2024-05-10T09:34:17Z</time>
      </trkpt>
      <trkpt lat="43.12809" lon="3.12549">
        <ele>2.7</ele>
        <time>2024-05-10T09:34:18Z</time>
      </trkpt>
      <trkpt lat="43.12794" lon="3.12526">
        <ele>2</ele>
        <time>2024-05-10T09:34:19Z</time>
      </trkpt>
      <trkpt lat="43.12778" lon="3.12502">
        <ele>2.9</ele>
        <time>2024-05-10T09:34:20Z</time>
      </trkpt>
      <trkpt lat="43.12763" lon="3.12479">
        <ele>2</ele>
        <time>2024-05-10T09:34:21Z</time>
      </trkpt>
      <trkpt lat="43.12747" lon="3.12455">
        <ele>2.3</ele>
        <time>2024-05-10T09:34:22Z</time>
      </trkpt>
      <trkpt lat="43.12731" lon="3.12431">
        <ele>1.8</ele>
        <time>2024-05-10T09:34:23Z</time>
      </trkpt>
      <trkpt lat="43.12715" lon="3.12407">
        <ele>2.1</ele>
        <time>2024-05-10T09:34:24Z</time>
      </trkpt>
      <trkpt lat="43.12699" lon="3.12383">
        <ele>2.6</ele>
        <time>2024-05-10T09:34:25Z</time>
      </trkpt>
      <trkpt lat="43.12682" lon="3.12358">
        <ele>1.9</ele>
        <time>2024-05-10T09:34:26Z</time>
      </trkpt>
      <trkpt lat="43.12666" lon="3.12333">
        <ele>2</ele>
        <time>2024-05-10T09:34:27Z</time>
      </trkpt>
      <trkpt lat="43.12649" lon="3.12309">
        <ele>2.2</ele>
        <time>2024-05-10T09:34:28Z</time>
      </trkpt>
      <trkpt lat="43.12633" lon="3.12284">
        <ele>1.5</ele>
        <time>2024-05-10T09:34:29Z</time>
      </trkpt>
      <trkpt lat="43.12616" lon="3.12259">
        <ele>1.8</ele>
        <time>2024-05-10T09:34:30Z</time>
      </trkpt>
      <trkpt lat="43.126" lon="3.12235">
        <ele>1.5</ele>
        <time>2024-05-10T09:34:31Z</time>
      </trkpt>
      <trkpt lat="43.12585" lon="3.12212">
        <ele>1.9</ele>
        <time>2024-05-10T09:34:32Z</time>
      </trkpt>
      <trkpt lat="43.12571" lon="3.1219">
        <ele>1.9</ele>
        <time>2024-05-10T09:34:33Z</time>
      </trkpt>
      <trkpt lat="43.12557" lon="3.12169">
        <ele>2</ele>
        <time>2024-05-10T09:34:34Z</time>
      </trkpt>
      <trkpt lat="43.12544" lon="3.1215">
        <ele>2</ele>
        <time>2024-05-10T09:34:35Z</time>
      </trkpt>
      <trkpt lat="43.12532" lon="3.12131">
        <ele>2</ele>
        <time>2024-05-10T09:34:36Z</time>
      </trkpt>
      <trkpt lat="43.12519" lon="3.12112">
        <ele>2</ele>
        <time>2024-05-10T09:34:37Z</time>
      </trkpt>
      <trkpt lat="43.12507" lon="3.12093">
        <ele>2.3</ele>
        <time>2024-05-10T09:34:38Z</time>
      </trkpt>
      <trkpt lat="43.12494" lon="3.12074">
        <ele>2.4</ele>
        <time>2024-05-10T09:34:39Z</time>
      </trkpt>
      <trkpt lat="43.12482" lon="3.12056">
        <ele>2</ele>
        <time>2024-05-10T09:34:40Z</time>
      </trkpt>
      <trkpt lat="43.12471" lon="3.12039">
        <ele>2</ele>
        <time>2024-05-10T09:34:41Z</time>
      </trkpt>
      <trkpt lat="43.1246" lon="3.12023">
        <ele>2</ele>
        <time>2024-05-10T09:34:42Z</time>
      </trkpt>
      <trkpt lat="43.12449" lon="3.12007">
        <ele>2</ele>
        <time>2024-05-10T09:34:43Z</time>
      </trkpt>
      <trkpt lat="43.12437" lon="3.1199">
        <ele>1.8</ele>
        <time>2024-05-10T09:34:44Z</time>
      </trkpt>
      <trkpt lat="43.12425" lon="3.11972">
        <ele>2</ele>
        <time>2024-05-10T09:34:45Z</time>
      </trkpt>
      <trkpt lat="43.12414" lon="3.11954">
        <ele>2</ele>
        <time>2024-05-10T09:34:46Z</time>
      </trkpt>
      <trkpt lat="43.12402" lon="3.11936">
        <ele>2</ele>
        <time>2024-05-10T09:34:47Z</time>
      </trkpt>
      <trkpt lat="43.12391" lon="3.11919">
        <ele>2</ele>
        <time>2024-05-10T09:34:48Z</time>
      </trkpt>
      <trkpt lat="43.1238" lon="3.11902">
        <ele>1.6</ele>
        <time>2024-05-10T09:34:49Z</time>
      </trkpt>
      <trkpt lat="43.12368" lon="3.11884">
        <ele>1.8</ele>
        <time>2024-05-10T09:34:50Z</time>
      </trkpt>
      <trkpt lat="43.12356" lon="3.11865">
        <ele>2</ele>
        <time>2024-05-10T09:34:51Z</time>
      </trkpt>
      <trkpt lat="43.12343" lon="3.11847">
        <ele>1.8</ele>
        <time>2024-05-10T09:34:52Z</time>
      </trkpt>
      <trkpt lat="43.12331" lon="3.11828">
        <ele>2</ele>
        <time>2024-05-10T09:34:53Z</time>
      </trkpt>
      <trkpt lat="43.12319" lon="3.1181">
        <ele>2</ele>
        <time>2024-05-10T09:34:54Z</time>
      </trkpt>
      <trkpt lat="43.12308" lon="3.11794">
        <ele>2</ele>
        <time>2024-05-10T09:34:55Z</time>
      </trkpt>
      <trkpt lat="43.12297" lon="3.11777">
        <ele>2</ele>
        <time>2024-05-10T09:34:56Z</time>
      </trkpt>
      <trkpt lat="43.12286" lon="3.11761">
        <ele>1.4</ele>
        <time>2024-05-10T09:34:57Z</time>
      </trkpt>
      <trkpt lat="43.12276" lon="3.11745">
        <ele>1.2</ele>
        <time>2024-05-10T09:34:58Z</time>
      </trkpt>
      <trkpt lat="43.12264" lon="3.11727">
        <ele>1.9</ele>
        <time>2024-05-10T09:34:59Z</time>
      </trkpt>
      <trkpt lat="43.12252" lon="3.1171">
        <ele>2</ele>
        <time>2024-05-10T09:35:00Z</time>
      </trkpt>
      <trkpt lat="43.12241" lon="3.11693">
        <ele>2</ele>
        <time>2024-05-10T09:35:01Z</time>
      </trkpt>
      <trkpt lat="43.1223" lon="3.11676">
        <ele>2.5</ele>
        <time>2024-05-10T09:35:02Z</time>
      </trkpt>
      <trkpt lat="43.12219" lon="3.1166">
        <ele>2.7</ele>
        <time>2024-05-10T09:35:03Z</time>
      </trkpt>
      <trkpt lat="43.12208" lon="3.11644">
        <ele>2.1</ele>
        <time>2024-05-10T09:35:04Z</time>
      </trkpt>
      <trkpt lat="43.12196" lon="3.11627">
        <ele>2</ele>
        <time>2024-05-10T09:35:05Z</time>
      </trkpt>
      <trkpt lat="43.12185" lon="3.11611">
        <ele>2</ele>
        <time>2024-05-10T09:35:06Z</time>
      </trkpt>
      <trkpt lat="43.12175" lon="3.11596">
        <ele>2.4</ele>
        <time>2024-05-10T09:35:07Z</time>
      </trkpt>
      <trkpt lat="43.12165" lon="3.1158">
        <ele>2.8</ele>
        <time>2024-05-10T09:35:08Z</time>
      </trkpt>
      <trkpt lat="43.12154" lon="3.11564">
        <ele>2.5</ele>
        <time>2024-05-10T09:35:09Z</time>
      </trkpt>
      <trkpt lat="43.12143" lon="3.11547">
        <ele>2.5</ele>
        <time>2024-05-10T09:35:10Z</time>
      </trkpt>
      <trkpt lat="43.12131" lon="3.1153">
        <ele>2.1</ele>
        <time>2024-05-10T09:35:11Z</time>
      </trkpt>
      <trkpt lat="43.1212" lon="3.11514">
        <ele>2.3</ele>
        <time>2024-05-10T09:35:12Z</time>
      </trkpt>
      <trkpt lat="43.12109" lon="3.11497">
        <ele>2.8</ele>
        <time>2024-05-10T09:35:13Z</time>
      </trkpt>
      <trkpt lat="43.12097" lon="3.11479">
        <ele>2.5</ele>
        <time>2024-05-10T09:35:14Z</time>
      </trkpt>
      <trkpt lat="43.12084" lon="3.11461">
        <ele>2.6</ele>
        <time>2024-05-10T09:35:15Z</time>
      </trkpt>
      <trkpt lat="43.1207" lon="3.1144">
        <ele>2.1</ele>
        <time>2024-05-10T09:35:16Z</time>
      </trkpt>
      <trkpt lat="43.12056" lon="3.11419">
        <ele>2.9</ele>
        <time>2024-05-10T09:35:17Z</time>
      </trkpt>
      <trkpt lat="43.12042" lon="3.11398">
        <ele>2.5</ele>
        <time>2024-05-10T09:35:18Z</time>
      </trkpt>
      <trkpt lat="43.12029" lon="3.11378">
        <ele>2.9</ele>
        <time>2024-05-10T09:35:19Z</time>
      </trkpt>
      <trkpt lat="43.12017" lon="3.11358">
        <ele>2.6</ele>
        <time>2024-05-10T09:35:20Z</time>
      </trkpt>
      <trkpt lat="43.12006" lon="3.1134">
        <ele>2.6</ele>
        <time>2024-05-10T09:35:21Z</time>
      </trkpt>
      <trkpt lat="43.11995" lon="3.11323">
        <ele>2.7</ele>
        <time>2024-05-10T09:35:22Z</time>
      </trkpt>
      <trkpt lat="43.11985" lon="3.11307">
        <ele>2.6</ele>
        <time>2024-05-10T09:35:23Z</time>
      </trkpt>
      <trkpt lat="43.11975" lon="3.11293">
        <ele>2.9</ele>
        <time>2024-05-10T09:35:24Z</time>
      </trkpt>
      <trkpt lat="43.11966" lon="3.11279">
        <ele>3</ele>
        <time>2024-05-10T09:35:25Z</time>
      </trkpt>
      <trkpt lat="43.11959" lon="3.11268">
        <ele>2.8</ele>
        <time>2024-05-10T09:35:26Z</time>
      </trkpt>
      <trkpt lat="43.11953" lon="3.11259">
        <ele>2.8</ele>
        <time>2024-05-10T09:35:27Z</time>
      </trkpt>
      <trkpt lat="43.11948" lon="3.11251">
        <ele>2.9</ele>
        <time>2024-05-10T09:35:28Z</time>
      </trkpt>
      <trkpt lat="43.11943" lon="3.11244">
        <ele>2.8</ele>
        <time>2024-05-10T09:35:29Z</time>
      </trkpt>
      <trkpt lat="43.11939" lon="3.11238">
        <ele>2.7</ele>
        <time>2024-05-10T09:35:30Z</time>
      </trkpt>
      <trkpt lat="43.11936" lon="3.11232">
        <ele>2.5</ele>
        <time>2024-05-10T09:35:31Z</time>
      </trkpt>
      <trkpt lat="43.11933" lon="3.11226">
        <ele>2.5</ele>
        <time>2024-05-10T09:35:32Z</time>
      </trkpt>
      <trkpt lat="43.1193" lon="3.11221">
        <ele>2.5</ele>
        <time>2024-05-10T09:35:33Z</time>
      </trkpt>
      <trkpt lat="43.11927" lon="3.11216">
        <ele>2.8</ele>
        <time>2024-05-10T09:35:34Z</time>
      </trkpt>
      <trkpt lat="43.11925" lon="3.11211">
        <ele>3</ele>
        <time>2024-05-10T09:35:35Z</time>
      </trkpt>
      <trkpt lat="43.11923" lon="3.11207">
        <ele>3.2</ele>
        <time>2024-05-10T09:35:36Z</time>
      </trkpt>
      <trkpt lat="43.11922" lon="3.11204">
        <ele>3.3</ele>
        <time>2024-05-10T09:35:37Z</time>
      </trkpt>
      <trkpt lat="43.11921" lon="3.11203">
        <ele>3.4</ele>
        <time>2024-05-10T09:35:38Z</time>
      </trkpt>
      <trkpt lat="43.11921" lon="3.11202">
        <ele>3.5</ele>
        <time>2024-05-10T09:35:39Z</time>
      </trkpt>
      <trkpt lat="43.11921" lon="3.11203">
        <ele>3.4</ele>
        <time>2024-05-10T09:35:40Z</time>
      </trkpt>
      <trkpt lat="43.11921" lon="3.11203">
        <ele>3.4</ele>
        <time>2024-05-10T09:35:41Z</time>
      </trkpt>
      <trkpt lat="43.11921" lon="3.11203">
        <ele>3.4</ele>
        <time>2024-05-10T09:35:42Z</time>
      </trkpt>
      <trkpt lat="43.11921" lon="3.11203">
        <ele>3.4</ele>
        <time>2024-05-10T09:35:43Z</time>
      </trkpt>
      <trkpt lat="43.11921" lon="3.11203">
        <ele>3.4</ele>
        <time>2024-05-10T09:35:44Z</time>
      </trkpt>
      <trkpt lat="43.1192" lon="3.11202">
        <ele>3.5</ele>
        <time>2024-05-10T09:35:45Z</time>
      </trkpt>
      <trkpt lat="43.1192" lon="3.11199">
        <ele>3.6</ele>
        <time>2024-05-10T09:35:46Z</time>
      </trkpt>
      <trkpt lat="43.11919" lon="3.11192">
        <ele>3.7</ele>
        <time>2024-05-10T09:35:47Z</time>
      </trkpt>
      <trkpt lat="43.11918" lon="3.11184">
        <ele>3.5</ele>
        <time>2024-05-10T09:35:48Z</time>
      </trkpt>
      <trkpt lat="43.11915" lon="3.11177">
        <ele>3.4</ele>
        <time>2024-05-10T09:35:49Z</time>
      </trkpt>
      <trkpt lat="43.11909" lon="3.11172">
        <ele>3.4</ele>
        <time>2024-05-10T09:35:50Z</time>
      </trkpt>
      <trkpt lat="43.11901" lon="3.11166">
        <ele>3.5</ele>
        <time>2024-05-10T09:35:51Z</time>
      </trkpt>
      <trkpt lat="43.11893" lon="3.11158">
        <ele>3.5</ele>
        <time>2024-05-10T09:35:52Z</time>
      </trkpt>
      <trkpt lat="43.11885" lon="3.11145">
        <ele>3.2</ele>
        <time>2024-05-10T09:35:53Z</time>
      </trkpt>
      <trkpt lat="43.11878" lon="3.11131">
        <ele>2.8</ele>
        <time>2024-05-10T09:35:54Z</time>
      </trkpt>
      <trkpt lat="43.11871" lon="3.11117">
        <ele>2.7</ele>
        <time>2024-05-10T09:35:55Z</time>
      </trkpt>
      <trkpt lat="43.11863" lon="3.111">
        <ele>2.9</ele>
        <time>2024-05-10T09:35:56Z</time>
      </trkpt>
      <trkpt lat="43.11855" lon="3.11082">
        <ele>3</ele>
        <time>2024-05-10T09:35:57Z</time>
      </trkpt>
      <trkpt lat="43.11847" lon="3.11061">
        <ele>3</ele>
        <time>2024-05-10T09:35:58Z</time>
      </trkpt>
      <trkpt lat="43.11839" lon="3.11038">
        <ele>2.7</ele>
        <time>2024-05-10T09:35:59Z</time>
      </trkpt>
      <trkpt lat="43.11832" lon="3.11016">
        <ele>3</ele>
        <time>2024-05-10T09:36:00Z</time>
      </trkpt>
      <trkpt lat="43.11826" lon="3.10993">
        <ele>3</ele>
        <time>2024-05-10T09:36:01Z</time>
      </trkpt>
      <trkpt lat="43.11819" lon="3.10968">
        <ele>2.9</ele>
        <time>2024-05-10T09:36:02Z</time>
      </trkpt>
      <trkpt lat="43.11814" lon="3.10941">
        <ele>2.7</ele>
        <time>2024-05-10T09:36:03Z</time>
      </trkpt>
      <trkpt lat="43.1181" lon="3.10915">
        <ele>2.7</ele>
        <time>2024-05-10T09:36:04Z</time>
      </trkpt>
      <trkpt lat="43.11806" lon="3.1089">
        <ele>3</ele>
        <time>2024-05-10T09:36:05Z</time>
      </trkpt>
      <trkpt lat="43.11803" lon="3.10866">
        <ele>3</ele>
        <time>2024-05-10T09:36:06Z</time>
      </trkpt>
      <trkpt lat="43.11801" lon="3.10842">
        <ele>3.1</ele>
        <time>2024-05-10T09:36:07Z</time>
      </trkpt>
      <trkpt lat="43.11801" lon="3.10818">
        <ele>3.1</ele>
        <time>2024-05-10T09:36:08Z</time>
      </trkpt>
      <trkpt lat="43.11801" lon="3.10796">
        <ele>3</ele>
        <time>2024-05-10T09:36:09Z</time>
      </trkpt>
      <trkpt lat="43.11801" lon="3.10774">
        <ele>3</ele>
        <time>2024-05-10T09:36:10Z</time>
      </trkpt>
      <trkpt lat="43.11802" lon="3.10753">
        <ele>3</ele>
        <time>2024-05-10T09:36:11Z</time>
      </trkpt>
      <trkpt lat="43.11803" lon="3.10731">
        <ele>3.7</ele>
        <time>2024-05-10T09:36:12Z</time>
      </trkpt>
      <trkpt lat="43.11804" lon="3.10707">
        <ele>4</ele>
        <time>2024-05-10T09:36:13Z</time>
      </trkpt>
      <trkpt lat="43.11807" lon="3.10682">
        <ele>4.3</ele>
        <time>2024-05-10T09:36:14Z</time>
      </trkpt>
      <trkpt lat="43.11811" lon="3.10658">
        <ele>4.7</ele>
        <time>2024-05-10T09:36:15Z</time>
      </trkpt>
      <trkpt lat="43.11815" lon="3.10633">
        <ele>4.2</ele>
        <time>2024-05-10T09:36:16Z</time>
      </trkpt>
      <trkpt lat="43.11819" lon="3.1061">
        <ele>3.6</ele>
        <time>2024-05-10T09:36:17Z</time>
      </trkpt>
      <trkpt lat="43.11825" lon="3.10587">
        <ele>4.1</ele>
        <time>2024-05-10T09:36:18Z</time>
      </trkpt>
      <trkpt lat="43.1183" lon="3.10565">
        <ele>5.2</ele>
        <time>2024-05-10T09:36:19Z</time>
      </trkpt>
      <trkpt lat="43.11837" lon="3.10543">
        <ele>5.7</ele>
        <time>2024-05-10T09:36:20Z</time>
      </trkpt>
      <trkpt lat="43.11844" lon="3.10521">
        <ele>4.3</ele>
        <time>2024-05-10T09:36:21Z</time>
      </trkpt>
      <trkpt lat="43.11852" lon="3.10498">
        <ele>3</ele>
        <time>2024-05-10T09:36:22Z</time>
      </trkpt>
      <trkpt lat="43.1186" lon="3.10476">
        <ele>3</ele>
        <time>2024-05-10T09:36:23Z</time>
      </trkpt>
      <trkpt lat="43.1187" lon="3.10454">
        <ele>3.5</ele>
        <time>2024-05-10T09:36:24Z</time>
      </trkpt>
      <trkpt lat="43.11881" lon="3.10432">
        <ele>4.1</ele>
        <time>2024-05-10T09:36:25Z</time>
      </trkpt>
      <trkpt lat="43.11892" lon="3.10412">
        <ele>5.9</ele>
        <time>2024-05-10T09:36:26Z</time>
      </trkpt>
      <trkpt lat="43.11903" lon="3.10391">
        <ele>3.1</ele>
        <time>2024-05-10T09:36:27Z</time>
      </trkpt>
      <trkpt lat="43.11914" lon="3.1037">
        <ele>5.1</ele>
        <time>2024-05-10T09:36:28Z</time>
      </trkpt>
      <trkpt lat="43.11926" lon="3.1035">
        <ele>4.9</ele>
        <time>2024-05-10T09:36:29Z</time>
      </trkpt>
      <trkpt lat="43.11939" lon="3.1033">
        <ele>4.9</ele>
        <time>2024-05-10T09:36:30Z</time>
      </trkpt>
      <trkpt lat="43.11951" lon="3.1031">
        <ele>5.6</ele>
        <time>2024-05-10T09:36:31Z</time>
      </trkpt>
      <trkpt lat="43.11963" lon="3.10289">
        <ele>4.9</ele>
        <time>2024-05-10T09:36:32Z</time>
      </trkpt>
      <trkpt lat="43.11975" lon="3.10268">
        <ele>6</ele>
        <time>2024-05-10T09:36:33Z</time>
      </trkpt>
      <trkpt lat="43.11987" lon="3.10248">
        <ele>4.5</ele>
        <time>2024-05-10T09:36:34Z</time>
      </trkpt>
      <trkpt lat="43.12" lon="3.10227">
        <ele>6.5</ele>
        <time>2024-05-10T09:36:35Z</time>
      </trkpt>
      <trkpt lat="43.12013" lon="3.10205">
        <ele>5.2</ele>
        <time>2024-05-10T09:36:36Z</time>
      </trkpt>
      <trkpt lat="43.12025" lon="3.10184">
        <ele>5.8</ele>
        <time>2024-05-10T09:36:37Z</time>
      </trkpt>
      <trkpt lat="43.12036" lon="3.10164">
        <ele>5.7</ele>
        <time>2024-05-10T09:36:38Z</time>
      </trkpt>
      <trkpt lat="43.12048" lon="3.10144">
        <ele>5.6</ele>
        <time>2024-05-10T09:36:39Z</time>
      </trkpt>
      <trkpt lat="43.12059" lon="3.10124">
        <ele>6</ele>
        <time>2024-05-10T09:36:40Z</time>
      </trkpt>
      <trkpt lat="43.12069" lon="3.10103">
        <ele>6.1</ele>
        <time>2024-05-10T09:36:41Z</time>
      </trkpt>
      <trkpt lat="43.12079" lon="3.10081">
        <ele>6.8</ele>
        <time>2024-05-10T09:36:42Z</time>
      </trkpt>
      <trkpt lat="43.12088" lon="3.10058">
        <ele>6.2</ele>
        <time>2024-05-10T09:36:43Z</time>
      </trkpt>
      <trkpt lat="43.12096" lon="3.10035">
        <ele>6.9</ele>
        <time>2024-05-10T09:36:44Z</time>
      </trkpt>
      <trkpt lat="43.12104" lon="3.1001">
        <ele>7.5</ele>
        <time>2024-05-10T09:36:45Z</time>
      </trkpt>
      <trkpt lat="43.1211" lon="3.09983">
        <ele>8</ele>
        <time>2024-05-10T09:36:46Z</time>
      </trkpt>
      <trkpt lat="43.12116" lon="3.09956">
        <ele>8.2</ele>
        <time>2024-05-10T09:36:47Z</time>
      </trkpt>
      <trkpt lat="43.12121" lon="3.09929">
        <ele>8.5</ele>
        <time>2024-05-10T09:36:48Z</time>
      </trkpt>
      <trkpt lat="43.12124" lon="3.099">
        <ele>8.8</ele>
        <time>2024-05-10T09:36:49Z</time>
      </trkpt>
      <trkpt lat="43.12127" lon="3.09871">
        <ele>9</ele>
        <time>2024-05-10T09:36:50Z</time>
      </trkpt>
      <trkpt lat="43.12129" lon="3.09841">
        <ele>9.7</ele>
        <time>2024-05-10T09:36:51Z</time>
      </trkpt>
      <trkpt lat="43.12129" lon="3.09811">
        <ele>10</ele>
        <time>2024-05-10T09:36:52Z</time>
      </trkpt>
      <trkpt lat="43.12128" lon="3.0978">
        <ele>10.6</ele>
        <time>2024-05-10T09:36:53Z</time>
      </trkpt>
      <trkpt lat="43.12125" lon="3.09748">
        <ele>10.5</ele>
        <time>2024-05-10T09:36:54Z</time>
      </trkpt>
      <trkpt lat="43.12121" lon="3.09717">
        <ele>10.5</ele>
        <time>2024-05-10T09:36:55Z</time>
      </trkpt>
      <trkpt lat="43.12116" lon="3.09687">
        <ele>11</ele>
        <time>2024-05-10T09:36:56Z</time>
      </trkpt>
      <trkpt lat="43.1211" lon="3.09657">
        <ele>11</ele>
        <time>2024-05-10T09:36:57Z</time>
      </trkpt>
      <trkpt lat="43.12103" lon="3.0963">
        <ele>10.5</ele>
        <time>2024-05-10T09:36:58Z</time>
      </trkpt>
      <trkpt lat="43.12095" lon="3.09604">
        <ele>10.1</ele>
        <time>2024-05-10T09:36:59Z</time>
      </trkpt>
      <trkpt lat="43.12086" lon="3.09579">
        <ele>10.9</ele>
        <time>2024-05-10T09:37:00Z</time>
      </trkpt>
      <trkpt lat="43.12076" lon="3.09556">
        <ele>10.7</ele>
        <time>2024-05-10T09:37:01Z</time>
      </trkpt>
      <trkpt lat="43.12066" lon="3.09534">
        <ele>10.4</ele>
        <time>2024-05-10T09:37:02Z</time>
      </trkpt>
      <trkpt lat="43.12056" lon="3.09513">
        <ele>10</ele>
        <time>2024-05-10T09:37:03Z</time>
      </trkpt>
      <trkpt lat="43.12045" lon="3.09493">
        <ele>9.7</ele>
        <time>2024-05-10T09:37:04Z</time>
      </trkpt>
      <trkpt lat="43.12034" lon="3.09474">
        <ele>10</ele>
        <time>2024-05-10T09:37:05Z</time>
      </trkpt>
      <trkpt lat="43.12022" lon="3.09453">
        <ele>9.8</ele>
        <time>2024-05-10T09:37:06Z</time>
      </trkpt>
      <trkpt lat="43.12009" lon="3.09431">
        <ele>9.3</ele>
        <time>2024-05-10T09:37:07Z</time>
      </trkpt>
      <trkpt lat="43.11995" lon="3.09408">
        <ele>8.9</ele>
        <time>2024-05-10T09:37:08Z</time>
      </trkpt>
      <trkpt lat="43.11981" lon="3.09384">
        <ele>8.9</ele>
        <time>2024-05-10T09:37:09Z</time>
      </trkpt>
      <trkpt lat="43.11968" lon="3.09361">
        <ele>8</ele>
        <time>2024-05-10T09:37:10Z</time>
      </trkpt>
      <trkpt lat="43.11954" lon="3.09338">
        <ele>8</ele>
        <time>2024-05-10T09:37:11Z</time>
      </trkpt>
      <trkpt lat="43.11941" lon="3.09316">
        <ele>7.9</ele>
        <time>2024-05-10T09:37:12Z</time>
      </trkpt>
      <trkpt lat="43.11928" lon="3.09295">
        <ele>7.4</ele>
        <time>2024-05-10T09:37:13Z</time>
      </trkpt>
      <trkpt lat="43.11916" lon="3.09274">
        <ele>7</ele>
        <time>2024-05-10T09:37:14Z</time>
      </trkpt>
      <trkpt lat="43.11906" lon="3.09252">
        <ele>7</ele>
        <time>2024-05-10T09:37:15Z</time>
      </trkpt>
      <trkpt lat="43.11896" lon="3.09231">
        <ele>7</ele>
        <time>2024-05-10T09:37:16Z</time>
      </trkpt>
      <trkpt lat="43.11886" lon="3.09209">
        <ele>6.9</ele>
        <time>2024-05-10T09:37:17Z</time>
      </trkpt>
      <trkpt lat="43.11877" lon="3.09187">
        <ele>6.6</ele>
        <time>2024-05-10T09:37:18Z</time>
      </trkpt>
      <trkpt lat="43.11868" lon="3.09164">
        <ele>6.3</ele>
        <time>2024-05-10T09:37:19Z</time>
      </trkpt>
      <trkpt lat="43.11859" lon="3.09142">
        <ele>6.8</ele>
        <time>2024-05-10T09:37:20Z</time>
      </trkpt>
      <trkpt lat="43.11851" lon="3.0912">
        <ele>6.5</ele>
        <time>2024-05-10T09:37:21Z</time>
      </trkpt>
      <trkpt lat="43.11842" lon="3.09098">
        <ele>6.6</ele>
        <time>2024-05-10T09:37:22Z</time>
      </trkpt>
      <trkpt lat="43.11833" lon="3.09076">
        <ele>6</ele>
        <time>2024-05-10T09:37:23Z</time>
      </trkpt>
      <trkpt lat="43.11823" lon="3.09054">
        <ele>5.7</ele>
        <time>2024-05-10T09:37:24Z</time>
      </trkpt>
      <trkpt lat="43.11811" lon="3.09033">
        <ele>5.5</ele>
        <time>2024-05-10T09:37:25Z</time>
      </trkpt>
      <trkpt lat="43.11798" lon="3.09009">
        <ele>4.5</ele>
        <time>2024-05-10T09:37:26Z</time>
      </trkpt>
      <trkpt lat="43.11784" lon="3.08986">
        <ele>3.8</ele>
        <time>2024-05-10T09:37:27Z</time>
      </trkpt>
      <trkpt lat="43.11772" lon="3.08965">
        <ele>3.4</ele>
        <time>2024-05-10T09:37:28Z</time>
      </trkpt>
      <trkpt lat="43.11761" lon="3.08948">
        <ele>2.4</ele>
        <time>2024-05-10T09:37:29Z</time>
      </trkpt>
      <trkpt lat="43.11752" lon="3.08936">
        <ele>2.1</ele>
        <time>2024-05-10T09:37:30Z</time>
      </trkpt>
      <trkpt lat="43.11743" lon="3.08923">
        <ele>1.9</ele>
        <time>2024-05-10T09:37:31Z</time>
      </trkpt>
      <trkpt lat="43.11736" lon="3.08912">
        <ele>2</ele>
        <time>2024-05-10T09:37:32Z</time>
      </trkpt>
      <trkpt lat="43.11732" lon="3.08904">
        <ele>2</ele>
        <time>2024-05-10T09:37:33Z</time>
      </trkpt>
      <trkpt lat="43.11729" lon="3.08898">
        <ele>2</ele>
        <time>2024-05-10T09:37:34Z</time>
      </trkpt>
      <trkpt lat="43.11728" lon="3.08894">
        <ele>2</ele>
        <time>2024-05-10T09:37:35Z</time>
      </trkpt>
      <trkpt lat="43.11728" lon="3.08892">
        <ele>2</ele>
        <time>2024-05-10T09:37:36Z</time>
      </trkpt>
      <trkpt lat="43.11727" lon="3.0889">
        <ele>2</ele>
        <time>2024-05-10T09:37:37Z</time>
      </trkpt>
      <trkpt lat="43.11727" lon="3.0889">
        <ele>2</ele>
        <time>2024-05-10T09:37:38Z</time>
      </trkpt>
      <trkpt lat="43.11727" lon="3.0889">
        <ele>2</ele>
        <time>2024-05-10T09:37:39Z</time>
      </trkpt>
      <trkpt lat="43.11727" lon="3.08889">
        <ele>2</ele>
        <time>2024-05-10T09:37:40Z</time>
      </trkpt>
      <trkpt lat="43.11727" lon="3.08889">
        <ele>2</ele>
        <time>2024-05-10T09:37:41Z</time>
      </trkpt>
      <trkpt lat="43.11727" lon="3.08889">
        <ele>2</ele>
        <time>2024-05-10T09:37:42Z</time>
      </trkpt>
      <trkpt lat="43.11727" lon="3.08889">
        <ele>2</ele>
        <time>2024-05-10T09:37:43Z</time>
      </trkpt>
      <trkpt lat="43.11727" lon="3.08889">
        <ele>2</ele>
        <time>2024-05-10T09:37:44Z</time>
      </trkpt>
      <trkpt lat="43.11727" lon="3.0889">
        <ele>2</ele>
        <time>2024-05-10T09:37:45Z</time>
      </trkpt>
      <trkpt lat="43.11727" lon="3.08889">
        <ele>2</ele>
        <time>2024-05-10T09:37:46Z</time>
      </trkpt>
      <trkpt lat="43.11728" lon="3.08888">
        <ele>2</ele>
        <time>2024-05-10T09:37:47Z</time>
      </trkpt>
      <trkpt lat="43.11728" lon="3.08886">
        <ele>2</ele>
        <time>2024-05-10T09:37:48Z</time>
      </trkpt>
      <trkpt lat="43.11729" lon="3.08878">
        <ele>2</ele>
        <time>2024-05-10T09:37:49Z</time>
      </trkpt>
      <trkpt lat="43.11731" lon="3.08868">
        <ele>2</ele>
        <time>2024-05-10T09:37:50Z</time>
      </trkpt>
      <trkpt lat="43.11732" lon="3.08853">
        <ele>2</ele>
        <time>2024-05-10T09:37:51Z</time>
      </trkpt>
      <trkpt lat="43.11729" lon="3.08839">
        <ele>2</ele>
        <time>2024-05-10T09:37:52Z</time>
      </trkpt>
      <trkpt lat="43.11722" lon="3.08827">
        <ele>2</ele>
        <time>2024-05-10T09:37:53Z</time>
      </trkpt>
      <trkpt lat="43.11714" lon="3.08818">
        <ele>2.1</ele>
        <time>2024-05-10T09:37:54Z</time>
      </trkpt>
      <trkpt lat="43.11706" lon="3.08813">
        <ele>2.2</ele>
        <time>2024-05-10T09:37:55Z</time>
      </trkpt>
      <trkpt lat="43.11698" lon="3.08811">
        <ele>2.2</ele>
        <time>2024-05-10T09:37:56Z</time>
      </trkpt>
      <trkpt lat="43.1169" lon="3.08811">
        <ele>2.2</ele>
        <time>2024-05-10T09:37:57Z</time>
      </trkpt>
      <trkpt lat="43.11683" lon="3.08813">
        <ele>2.2</ele>
        <time>2024-05-10T09:37:58Z</time>
      </trkpt>
      <trkpt lat="43.11678" lon="3.08816">
        <ele>2.2</ele>
        <time>2024-05-10T09:37:59Z</time>
      </trkpt>
      <trkpt lat="43.11673" lon="3.0882">
        <ele>2.1</ele>
        <time>2024-05-10T09:38:00Z</time>
      </trkpt>
      <trkpt lat="43.11669" lon="3.08825">
        <ele>2.1</ele>
        <time>2024-05-10T09:38:01Z</time>
      </trkpt>
      <trkpt lat="43.11665" lon="3.0883">
        <ele>2</ele>
        <time>2024-05-10T09:38:02Z</time>
      </trkpt>
      <trkpt lat="43.11662" lon="3.08837">
        <ele>2</ele>
        <time>2024-05-10T09:38:03Z</time>
      </trkpt>
      <trkpt lat="43.1166" lon="3.08844">
        <ele>1.9</ele>
        <time>2024-05-10T09:38:04Z</time>
      </trkpt>
      <trkpt lat="43.11659" lon="3.08851">
        <ele>1.8</ele>
        <time>2024-05-10T09:38:05Z</time>
      </trkpt>
      <trkpt lat="43.11658" lon="3.08858">
        <ele>1.7</ele>
        <time>2024-05-10T09:38:06Z</time>
      </trkpt>
      <trkpt lat="43.11658" lon="3.08864">
        <ele>1.7</ele>
        <time>2024-05-10T09:38:07Z</time>
      </trkpt>
      <trkpt lat="43.11658" lon="3.0887">
        <ele>1.8</ele>
        <time>2024-05-10T09:38:08Z</time>
      </trkpt>
      <trkpt lat="43.11659" lon="3.08875">
        <ele>1.9</ele>
        <time>2024-05-10T09:38:09Z</time>
      </trkpt>
      <trkpt lat="43.11659" lon="3.08879">
        <ele>1.9</ele>
        <time>2024-05-10T09:38:10Z</time>
      </trkpt>
      <trkpt lat="43.11659" lon="3.08882">
        <ele>1.9</ele>
        <time>2024-05-10T09:38:11Z</time>
      </trkpt>
      <trkpt lat="43.11658" lon="3.08885">
        <ele>2</ele>
        <time>2024-05-10T09:38:12Z</time>
      </trkpt>
      <trkpt lat="43.11658" lon="3.08887">
        <ele>2</ele>
        <time>2024-05-10T09:38:13Z</time>
      </trkpt>
      <trkpt lat="43.11658" lon="3.0889">
        <ele>2</ele>
        <time>2024-05-10T09:38:14Z</time>
      </trkpt>
      <trkpt lat="43.11657" lon="3.08893">
        <ele>2</ele>
        <time>2024-05-10T09:38:15Z</time>
      </trkpt>
      <trkpt lat="43.11657" lon="3.08895">
        <ele>2</ele>
        <time>2024-05-10T09:38:16Z</time>
      </trkpt>
      <trkpt lat="43.11656" lon="3.08898">
        <ele>2</ele>
        <time>2024-05-10T09:38:17Z</time>
      </trkpt>
      <trkpt lat="43.11656" lon="3.08901">
        <ele>2</ele>
        <time>2024-05-10T09:38:18Z</time>
      </trkpt>
      <trkpt lat="43.11655" lon="3.08904">
        <ele>2</ele>
        <time>2024-05-10T09:38:19Z</time>
      </trkpt>
      <trkpt lat="43.11654" lon="3.08906">
        <ele>2</ele>
        <time>2024-05-10T09:38:20Z</time>
      </trkpt>
      <trkpt lat="43.11653" lon="3.08909">
        <ele>2</ele>
        <time>2024-05-10T09:38:21Z</time>
      </trkpt>
      <trkpt lat="43.11652" lon="3.08911">
        <ele>2</ele>
        <time>2024-05-10T09:38:22Z</time>
      </trkpt>
      <trkpt lat="43.11651" lon="3.08913">
        <ele>2</ele>
        <time>2024-05-10T09:38:23Z</time>
      </trkpt>
      <trkpt lat="43.1165" lon="3.08915">
        <ele>2</ele>
        <time>2024-05-10T09:38:24Z</time>
      </trkpt>
      <trkpt lat="43.11649" lon="3.08918">
        <ele>2</ele>
        <time>2024-05-10T09:38:25Z</time>
      </trkpt>
      <trkpt lat="43.11647" lon="3.08921">
        <ele>2</ele>
        <time>2024-05-10T09:38:26Z</time>
      </trkpt>
      <trkpt lat="43.11645" lon="3.08925">
        <ele>1.9</ele>
        <time>2024-05-10T09:38:27Z</time>
      </trkpt>
      <trkpt lat="43.11642" lon="3.08929">
        <ele>2</ele>
        <time>2024-05-10T09:38:28Z</time>
      </trkpt>
      <trkpt lat="43.11638" lon="3.08936">
        <ele>2</ele>
        <time>2024-05-10T09:38:29Z</time>
      </trkpt>
      <trkpt lat="43.11634" lon="3.08942">
        <ele>2</ele>
        <time>2024-05-10T09:38:30Z</time>
      </trkpt>
      <trkpt lat="43.1163" lon="3.08949">
        <ele>1.9</ele>
        <time>2024-05-10T09:38:31Z</time>
      </trkpt>
      <trkpt lat="43.11625" lon="3.08955">
        <ele>1.8</ele>
        <time>2024-05-10T09:38:32Z</time>
      </trkpt>
      <trkpt lat="43.11622" lon="3.08961">
        <ele>1.8</ele>
        <time>2024-05-10T09:38:33Z</time>
      </trkpt>
      <trkpt lat="43.11619" lon="3.08966">
        <ele>1.8</ele>
        <time>2024-05-10T09:38:34Z</time>
      </trkpt>
      <trkpt lat="43.11615" lon="3.08971">
        <ele>1.9</ele>
        <time>2024-05-10T09:38:35Z</time>
      </trkpt>
      <trkpt lat="43.11613" lon="3.08976">
        <ele>1.8</ele>
        <time>2024-05-10T09:38:36Z</time>
      </trkpt>
      <trkpt lat="43.1161" lon="3.0898">
        <ele>1.7</ele>
        <time>2024-05-10T09:38:37Z</time>
      </trkpt>
      <trkpt lat="43.11608" lon="3.08983">
        <ele>1.6</ele>
        <time>2024-05-10T09:38:38Z</time>
      </trkpt>
      <trkpt lat="43.11606" lon="3.08987">
        <ele>1.5</ele>
        <time>2024-05-10T09:38:39Z</time>
      </trkpt>
      <trkpt lat="43.11603" lon="3.08991">
        <ele>1.3</ele>
        <time>2024-05-10T09:38:40Z</time>
      </trkpt>
      <trkpt lat="43.116" lon="3.08996">
        <ele>1.1</ele>
        <time>2024-05-10T09:38:41Z</time>
      </trkpt>
      <trkpt lat="43.11598" lon="3.09">
        <ele>1</ele>
        <time>2024-05-10T09:38:42Z</time>
      </trkpt>
      <trkpt lat="43.11595" lon="3.09004">
        <ele>1.1</ele>
        <time>2024-05-10T09:38:43Z</time>
      </trkpt>
      <trkpt lat="43.11593" lon="3.09009">
        <ele>1.2</ele>
        <time>2024-05-10T09:38:44Z</time>
      </trkpt>
      <trkpt lat="43.11591" lon="3.09012">
        <ele>1.3</ele>
        <time>2024-05-10T09:38:45Z</time>
      </trkpt>
      <trkpt lat="43.11589" lon="3.09016">
        <ele>1.5</ele>
        <time>2024-05-10T09:38:46Z</time>
      </trkpt>
      <trkpt lat="43.11587" lon="3.09019">
        <ele>1.6</ele>
        <time>2024-05-10T09:38:47Z</time>
      </trkpt>
      <trkpt lat="43.11584" lon="3.09022">
        <ele>1.8</ele>
        <time>2024-05-10T09:38:48Z</time>
      </trkpt>
      <trkpt lat="43.11582" lon="3.09027">
        <ele>2</ele>
        <time>2024-05-10T09:38:49Z</time>
      </trkpt>
      <trkpt lat="43.11579" lon="3.09031">
        <ele>1.9</ele>
        <time>2024-05-10T09:38:50Z</time>
      </trkpt>
      <trkpt lat="43.11576" lon="3.09035">
        <ele>1.8</ele>
        <time>2024-05-10T09:38:51Z</time>
      </trkpt>
      <trkpt lat="43.11574" lon="3.09039">
        <ele>1.7</ele>
        <time>2024-05-10T09:38:52Z</time>
      </trkpt>
      <trkpt lat="43.11572" lon="3.09043">
        <ele>1.7</ele>
        <time>2024-05-10T09:38:53Z</time>
      </trkpt>
      <trkpt lat="43.1157" lon="3.09046">
        <ele>1.7</ele>
        <time>2024-05-10T09:38:54Z</time>
      </trkpt>
      <trkpt lat="43.11568" lon="3.0905">
        <ele>1.6</ele>
        <time>2024-05-10T09:38:55Z</time>
      </trkpt>
      <trkpt lat="43.11566" lon="3.09053">
        <ele>1.7</ele>
        <time>2024-05-10T09:38:56Z</time>
      </trkpt>
      <trkpt lat="43.11564" lon="3.09055">
        <ele>1.7</ele>
        <time>2024-05-10T09:38:57Z</time>
      </trkpt>
      <trkpt lat="43.11562" lon="3.09057">
        <ele>1.7</ele>
        <time>2024-05-10T09:38:58Z</time>
      </trkpt>
      <trkpt lat="43.11561" lon="3.09059">
        <ele>1.7</ele>
        <time>2024-05-10T09:38:59Z</time>
      </trkpt>
      <trkpt lat="43.11561" lon="3.09059">
        <ele>1.7</ele>
        <time>2024-05-10T09:39:00Z</time>
      </trkpt>
      <trkpt lat="43.11561" lon="3.09059">
        <ele>1.7</ele>
        <time>2024-05-10T09:39:01Z</time>
      </trkpt>
      <trkpt lat="43.11561" lon="3.09058">
        <ele>1.7</ele>
        <time>2024-05-10T09:39:02Z</time>
      </trkpt>
      <trkpt lat="43.11561" lon="3.09058">
        <ele>1.7</ele>
        <time>2024-05-10T09:39:03Z</time>
      </trkpt>
      <trkpt lat="43.11561" lon="3.09058">
        <ele>1.7</ele>
        <time>2024-05-10T09:39:04Z</time>
      </trkpt>
      <trkpt lat="43.11561" lon="3.09058">
        <ele>1.7</ele>
        <time>2024-05-10T09:39:05Z</time>
      </trkpt>
      <trkpt lat="43.11561" lon="3.09058">
        <ele>1.7</ele>
        <time>2024-05-10T09:39:06Z</time>
      </trkpt>
      <trkpt lat="43.11561" lon="3.09058">
        <ele>1.7</ele>
        <time>2024-05-10T09:39:07Z</time>
      </trkpt>
      <trkpt lat="43.11561" lon="3.09058">
        <ele>1.7</ele>
        <time>2024-05-10T09:39:08Z</time>
      </trkpt>
      <trkpt lat="43.11561" lon="3.09058">
        <ele>1.7</ele>
        <time>2024-05-10T09:39:09Z</time>
      </trkpt>
      <trkpt lat="43.11561" lon="3.09058">
        <ele>1.7</ele>
        <time>2024-05-10T09:39:10Z</time>
      </trkpt>
      <trkpt lat="43.11561" lon="3.09058">
        <ele>1.7</ele>
        <time>2024-05-10T09:39:11Z</time>
      </trkpt>
      <trkpt lat="43.11561" lon="3.09058">
        <ele>1.7</ele>
        <time>2024-05-10T09:39:12Z</time>
      </trkpt>
      <trkpt lat="43.11561" lon="3.09058">
        <ele>1.7</ele>
        <time>2024-05-10T09:39:13Z</time>
      </trkpt>
      <trkpt lat="43.11561" lon="3.09058">
        <ele>1.7</ele>
        <time>2024-05-10T09:39:14Z</time>
      </trkpt>
      <trkpt lat="43.11561" lon="3.09058">
        <ele>1.7</ele>
        <time>2024-05-10T09:39:15Z</time>
      </trkpt>
      <trkpt lat="43.11561" lon="3.09058">
        <ele>1.7</ele>
        <time>2024-05-10T09:39:16Z</time>
      </trkpt>
      <trkpt lat="43.11561" lon="3.09058">
        <ele>1.7</ele>
        <time>2024-05-10T09:39:17Z</time>
      </trkpt>
      <trkpt lat="43.11561" lon="3.09058">
        <ele>1.7</ele>
        <time>2024-05-10T09:39:18Z</time>
      </trkpt>
      <trkpt lat="43.11561" lon="3.09058">
        <ele>1.7</ele>
        <time>2024-05-10T09:39:19Z</time>
      </trkpt>
      <trkpt lat="43.11561" lon="3.09058">
        <ele>1.7</ele>
        <time>2024-05-10T09:39:20Z</time>
      </trkpt>
      <trkpt lat="43.11561" lon="3.09058">
        <ele>1.7</ele>
        <time>2024-05-10T09:39:21Z</time>
      </trkpt>
      <trkpt lat="43.11561" lon="3.09058">
        <ele>1.7</ele>
        <time>2024-05-10T09:39:22Z</time>
      </trkpt>
      <trkpt lat="43.11561" lon="3.09058">
        <ele>1.7</ele>
        <time>2024-05-10T09:39:23Z</time>
      </trkpt>
      <trkpt lat="43.11561" lon="3.09058">
        <ele>1.7</ele>
        <time>2024-05-10T09:39:24Z</time>
      </trkpt>
      <trkpt lat="43.11561" lon="3.09058">
        <ele>1.7</ele>
        <time>2024-05-10T09:39:25Z</time>
      </trkpt>
      <trkpt lat="43.11561" lon="3.09058">
        <ele>1.7</ele>
        <time>2024-05-10T09:39:26Z</time>
      </trkpt>
      <trkpt lat="43.11561" lon="3.09058">
        <ele>1.7</ele>
        <time>2024-05-10T09:39:27Z</time>
      </trkpt>
      <trkpt lat="43.11561" lon="3.09058">
        <ele>1.7</ele>
        <time>2024-05-10T09:39:28Z</time>
      </trkpt>
      <trkpt lat="43.11561" lon="3.09058">
        <ele>1.7</ele>
        <time>2024-05-10T09:39:29Z</time>
      </trkpt>
      <trkpt lat="43.11561" lon="3.09058">
        <ele>1.7</ele>
        <time>2024-05-10T09:39:30Z</time>
      </trkpt>
      <trkpt lat="43.11561" lon="3.09058">
        <ele>1.7</ele>
        <time>2024-05-10T09:39:31Z</time>
      </trkpt>
      <trkpt lat="43.1156" lon="3.09061">
        <ele>1.7</ele>
        <time>2024-05-10T09:39:32Z</time>
      </trkpt>
      <trkpt lat="43.11556" lon="3.09068">
        <ele>1.5</ele>
        <time>2024-05-10T09:39:33Z</time>
      </trkpt>
      <trkpt lat="43.11552" lon="3.09076">
        <ele>1.3</ele>
        <time>2024-05-10T09:39:34Z</time>
      </trkpt>
      <trkpt lat="43.11547" lon="3.09084">
        <ele>1</ele>
        <time>2024-05-10T09:39:35Z</time>
      </trkpt>
      <trkpt lat="43.11543" lon="3.09091">
        <ele>1.1</ele>
        <time>2024-05-10T09:39:36Z</time>
      </trkpt>
      <trkpt lat="43.11539" lon="3.09097">
        <ele>1.3</ele>
        <time>2024-05-10T09:39:37Z</time>
      </trkpt>
      <trkpt lat="43.11536" lon="3.09102">
        <ele>1.5</ele>
        <time>2024-05-10T09:39:38Z</time>
      </trkpt>
      <trkpt lat="43.11533" lon="3.09106">
        <ele>1.7</ele>
        <time>2024-05-10T09:39:39Z</time>
      </trkpt>
      <trkpt lat="43.11531" lon="3.09109">
        <ele>1.8</ele>
        <time>2024-05-10T09:39:40Z</time>
      </trkpt>
      <trkpt lat="43.11529" lon="3.09112">
        <ele>2</ele>
        <time>2024-05-10T09:39:41Z</time>
      </trkpt>
      <trkpt lat="43.11527" lon="3.09115">
        <ele>2</ele>
        <time>2024-05-10T09:39:42Z</time>
      </trkpt>
      <trkpt lat="43.11525" lon="3.09119">
        <ele>1.9</ele>
        <time>2024-05-10T09:39:43Z</time>
      </trkpt>
      <trkpt lat="43.11524" lon="3.09122">
        <ele>1.9</ele>
        <time>2024-05-10T09:39:44Z</time>
      </trkpt>
      <trkpt lat="43.11522" lon="3.09126">
        <ele>1.8</ele>
        <time>2024-05-10T09:39:45Z</time>
      </trkpt>
      <trkpt lat="43.11519" lon="3.0913">
        <ele>1.7</ele>
        <time>2024-05-10T09:39:46Z</time>
      </trkpt>
      <trkpt lat="43.11517" lon="3.09134">
        <ele>1.6</ele>
        <time>2024-05-10T09:39:47Z</time>
      </trkpt>
      <trkpt lat="43.11515" lon="3.09137">
        <ele>1.5</ele>
        <time>2024-05-10T09:39:48Z</time>
      </trkpt>
      <trkpt lat="43.11512" lon="3.09141">
        <ele>1.5</ele>
        <time>2024-05-10T09:39:49Z</time>
      </trkpt>
      <trkpt lat="43.1151" lon="3.09144">
        <ele>1.5</ele>
        <time>2024-05-10T09:39:50Z</time>
      </trkpt>
      <trkpt lat="43.11508" lon="3.09148">
        <ele>1.5</ele>
        <time>2024-05-10T09:39:51Z</time>
      </trkpt>
      <trkpt lat="43.11505" lon="3.09152">
        <ele>1.6</ele>
        <time>2024-05-10T09:39:52Z</time>
      </trkpt>
      <trkpt lat="43.11503" lon="3.09156">
        <ele>1.7</ele>
        <time>2024-05-10T09:39:53Z</time>
      </trkpt>
      <trkpt lat="43.11501" lon="3.09159">
        <ele>1.7</ele>
        <time>2024-05-10T09:39:54Z</time>
      </trkpt>
      <trkpt lat="43.11498" lon="3.09162">
        <ele>1.8</ele>
        <time>2024-05-10T09:39:55Z</time>
      </trkpt>
      <trkpt lat="43.11497" lon="3.09164">
        <ele>1.8</ele>
        <time>2024-05-10T09:39:56Z</time>
      </trkpt>
      <trkpt lat="43.11496" lon="3.09166">
        <ele>1.8</ele>
        <time>2024-05-10T09:39:57Z</time>
      </trkpt>
      <trkpt lat="43.11495" lon="3.09168">
        <ele>1.8</ele>
        <time>2024-05-10T09:39:58Z</time>
      </trkpt>
      <trkpt lat="43.11494" lon="3.0917">
        <ele>1.8</ele>
        <time>2024-05-10T09:39:59Z</time>
      </trkpt>
      <trkpt lat="43.11492" lon="3.09172">
        <ele>1.8</ele>
        <time>2024-05-10T09:40:00Z</time>
      </trkpt>
      <trkpt lat="43.11491" lon="3.09174">
        <ele>1.8</ele>
        <time>2024-05-10T09:40:01Z</time>
      </trkpt>
      <trkpt lat="43.1149" lon="3.09175">
        <ele>1.7</ele>
        <time>2024-05-10T09:40:02Z</time>
      </trkpt>
      <trkpt lat="43.11489" lon="3.09176">
        <ele>1.7</ele>
        <time>2024-05-10T09:40:03Z</time>
      </trkpt>
      <trkpt lat="43.11489" lon="3.09177">
        <ele>1.8</ele>
        <time>2024-05-10T09:40:04Z</time>
      </trkpt>
      <trkpt lat="43.11488" lon="3.09178">
        <ele>1.7</ele>
        <time>2024-05-10T09:40:05Z</time>
      </trkpt>
      <trkpt lat="43.11488" lon="3.09179">
        <ele>1.8</ele>
        <time>2024-05-10T09:40:06Z</time>
      </trkpt>
      <trkpt lat="43.11487" lon="3.09181">
        <ele>1.8</ele>
        <time>2024-05-10T09:40:07Z</time>
      </trkpt>
      <trkpt lat="43.11485" lon="3.09183">
        <ele>1.8</ele>
        <time>2024-05-10T09:40:08Z</time>
      </trkpt>
      <trkpt lat="43.11484" lon="3.09186">
        <ele>1.8</ele>
        <time>2024-05-10T09:40:09Z</time>
      </trkpt>
      <trkpt lat="43.11482" lon="3.09188">
        <ele>1.8</ele>
        <time>2024-05-10T09:40:10Z</time>
      </trkpt>
      <trkpt lat="43.11481" lon="3.0919">
        <ele>1.9</ele>
        <time>2024-05-10T09:40:11Z</time>
      </trkpt>
      <trkpt lat="43.1148" lon="3.09191">
        <ele>1.9</ele>
        <time>2024-05-10T09:40:12Z</time>
      </trkpt>
      <trkpt lat="43.1148" lon="3.09191">
        <ele>1.9</ele>
        <time>2024-05-10T09:40:13Z</time>
      </trkpt>
      <trkpt lat="43.1148" lon="3.09191">
        <ele>1.9</ele>
        <time>2024-05-10T09:40:14Z</time>
      </trkpt>
      <trkpt lat="43.11481" lon="3.09191">
        <ele>1.9</ele>
        <time>2024-05-10T09:40:15Z</time>
      </trkpt>
      <trkpt lat="43.11481" lon="3.09191">
        <ele>1.9</ele>
        <time>2024-05-10T09:40:16Z</time>
      </trkpt>
      <trkpt lat="43.1148" lon="3.09192">
        <ele>1.9</ele>
        <time>2024-05-10T09:40:17Z</time>
      </trkpt>
      <trkpt lat="43.11479" lon="3.09194">
        <ele>2</ele>
        <time>2024-05-10T09:40:18Z</time>
      </trkpt>
      <trkpt lat="43.11477" lon="3.09196">
        <ele>2</ele>
        <time>2024-05-10T09:40:19Z</time>
      </trkpt>
      <trkpt lat="43.11476" lon="3.09198">
        <ele>1.9</ele>
        <time>2024-05-10T09:40:20Z</time>
      </trkpt>
      <trkpt lat="43.11474" lon="3.092">
        <ele>1.8</ele>
        <time>2024-05-10T09:40:21Z</time>
      </trkpt>
      <trkpt lat="43.11473" lon="3.09201">
        <ele>1.8</ele>
        <time>2024-05-10T09:40:22Z</time>
      </trkpt>
      <trkpt lat="43.11473" lon="3.09202">
        <ele>1.7</ele>
        <time>2024-05-10T09:40:23Z</time>
      </trkpt>
      <trkpt lat="43.11473" lon="3.09202">
        <ele>1.7</ele>
        <time>2024-05-10T09:40:24Z</time>
      </trkpt>
      <trkpt lat="43.11473" lon="3.09202">
        <ele>1.7</ele>
        <time>2024-05-10T09:40:25Z</time>
      </trkpt>
      <trkpt lat="43.11473" lon="3.09202">
        <ele>1.7</ele>
        <time>2024-05-10T09:40:26Z</time>
      </trkpt>
      <trkpt lat="43.11471" lon="3.09204">
        <ele>1.6</ele>
        <time>2024-05-10T09:40:27Z</time>
      </trkpt>
      <trkpt lat="43.1147" lon="3.09206">
        <ele>1.6</ele>
        <time>2024-05-10T09:40:28Z</time>
      </trkpt>
      <trkpt lat="43.11468" lon="3.09208">
        <ele>1.5</ele>
        <time>2024-05-10T09:40:29Z</time>
      </trkpt>
      <trkpt lat="43.11468" lon="3.09208">
        <ele>1.5</ele>
        <time>2024-05-10T09:40:30Z</time>
      </trkpt>
      <trkpt lat="43.11468" lon="3.09208">
        <ele>1.5</ele>
        <time>2024-05-10T09:40:31Z</time>
      </trkpt>
      <trkpt lat="43.11468" lon="3.09208">
        <ele>1.5</ele>
        <time>2024-05-10T09:40:32Z</time>
      </trkpt>
      <trkpt lat="43.11468" lon="3.09209">
        <ele>1.5</ele>
        <time>2024-05-10T09:40:33Z</time>
      </trkpt>
      <trkpt lat="43.11467" lon="3.09209">
        <ele>1.5</ele>
        <time>2024-05-10T09:40:34Z</time>
      </trkpt>
      <trkpt lat="43.11467" lon="3.0921">
        <ele>1.5</ele>
        <time>2024-05-10T09:40:35Z</time>
      </trkpt>
      <trkpt lat="43.11466" lon="3.09211">
        <ele>1.4</ele>
        <time>2024-05-10T09:40:36Z</time>
      </trkpt>
      <trkpt lat="43.11466" lon="3.09211">
        <ele>1.4</ele>
        <time>2024-05-10T09:40:37Z</time>
      </trkpt>
      <trkpt lat="43.11466" lon="3.09211">
        <ele>1.4</ele>
        <time>2024-05-10T09:40:38Z</time>
      </trkpt>
      <trkpt lat="43.11465" lon="3.09212">
        <ele>1.4</ele>
        <time>2024-05-10T09:40:39Z</time>
      </trkpt>
      <trkpt lat="43.11464" lon="3.09214">
        <ele>1.4</ele>
        <time>2024-05-10T09:40:40Z</time>
      </trkpt>
      <trkpt lat="43.11462" lon="3.09217">
        <ele>1.4</ele>
        <time>2024-05-10T09:40:41Z</time>
      </trkpt>
      <trkpt lat="43.11457" lon="3.09223">
        <ele>1.6</ele>
        <time>2024-05-10T09:40:42Z</time>
      </trkpt>
      <trkpt lat="43.11454" lon="3.09228">
        <ele>1.7</ele>
        <time>2024-05-10T09:40:43Z</time>
      </trkpt>
      <trkpt lat="43.11451" lon="3.09232">
        <ele>1.8</ele>
        <time>2024-05-10T09:40:44Z</time>
      </trkpt>
      <trkpt lat="43.11448" lon="3.09236">
        <ele>1.9</ele>
        <time>2024-05-10T09:40:45Z</time>
      </trkpt>
      <trkpt lat="43.11445" lon="3.09239">
        <ele>2</ele>
        <time>2024-05-10T09:40:46Z</time>
      </trkpt>
      <trkpt lat="43.11442" lon="3.09244">
        <ele>2</ele>
        <time>2024-05-10T09:40:47Z</time>
      </trkpt>
      <trkpt lat="43.11438" lon="3.0925">
        <ele>2</ele>
        <time>2024-05-10T09:40:48Z</time>
      </trkpt>
      <trkpt lat="43.11431" lon="3.09258">
        <ele>2</ele>
        <time>2024-05-10T09:40:49Z</time>
      </trkpt>
      <trkpt lat="43.11425" lon="3.09265">
        <ele>2</ele>
        <time>2024-05-10T09:40:50Z</time>
      </trkpt>
      <trkpt lat="43.11417" lon="3.0927">
        <ele>2</ele>
        <time>2024-05-10T09:40:51Z</time>
      </trkpt>
      <trkpt lat="43.11408" lon="3.09275">
        <ele>2</ele>
        <time>2024-05-10T09:40:52Z</time>
      </trkpt>
      <trkpt lat="43.11398" lon="3.09279">
        <ele>2</ele>
        <time>2024-05-10T09:40:53Z</time>
      </trkpt>
      <trkpt lat="43.11388" lon="3.09282">
        <ele>2</ele>
        <time>2024-05-10T09:40:54Z</time>
      </trkpt>
      <trkpt lat="43.11378" lon="3.09286">
        <ele>2.1</ele>
        <time>2024-05-10T09:40:55Z</time>
      </trkpt>
      <trkpt lat="43.1137" lon="3.09289">
        <ele>2.3</ele>
        <time>2024-05-10T09:40:56Z</time>
      </trkpt>
      <trkpt lat="43.11362" lon="3.09292">
        <ele>2.5</ele>
        <time>2024-05-10T09:40:57Z</time>
      </trkpt>
      <trkpt lat="43.11354" lon="3.09295">
        <ele>2.7</ele>
        <time>2024-05-10T09:40:58Z</time>
      </trkpt>
      <trkpt lat="43.11346" lon="3.09298">
        <ele>2.9</ele>
        <time>2024-05-10T09:40:59Z</time>
      </trkpt>
      <trkpt lat="43.11338" lon="3.09301">
        <ele>3</ele>
        <time>2024-05-10T09:41:00Z</time>
      </trkpt>
      <trkpt lat="43.11331" lon="3.09303">
        <ele>3</ele>
        <time>2024-05-10T09:41:01Z</time>
      </trkpt>
      <trkpt lat="43.11324" lon="3.09306">
        <ele>3</ele>
        <time>2024-05-10T09:41:02Z</time>
      </trkpt>
      <trkpt lat="43.11317" lon="3.09309">
        <ele>2.9</ele>
        <time>2024-05-10T09:41:03Z</time>
      </trkpt>
      <trkpt lat="43.11311" lon="3.09311">
        <ele>3</ele>
        <time>2024-05-10T09:41:04Z</time>
      </trkpt>
      <trkpt lat="43.11306" lon="3.09313">
        <ele>3</ele>
        <time>2024-05-10T09:41:05Z</time>
      </trkpt>
      <trkpt lat="43.11301" lon="3.09316">
        <ele>3</ele>
        <time>2024-05-10T09:41:06Z</time>
      </trkpt>
      <trkpt lat="43.11295" lon="3.09318">
        <ele>3</ele>
        <time>2024-05-10T09:41:07Z</time>
      </trkpt>
      <trkpt lat="43.1129" lon="3.09319">
        <ele>3</ele>
        <time>2024-05-10T09:41:08Z</time>
      </trkpt>
      <trkpt lat="43.11286" lon="3.0932">
        <ele>3</ele>
        <time>2024-05-10T09:41:09Z</time>
      </trkpt>
      <trkpt lat="43.11284" lon="3.09321">
        <ele>3</ele>
        <time>2024-05-10T09:41:10Z</time>
      </trkpt>
      <trkpt lat="43.11283" lon="3.09322">
        <ele>3</ele>
        <time>2024-05-10T09:41:11Z</time>
      </trkpt>
      <trkpt lat="43.11282" lon="3.09322">
        <ele>3</ele>
        <time>2024-05-10T09:41:12Z</time>
      </trkpt>
      <trkpt lat="43.11282" lon="3.09322">
        <ele>3</ele>
        <time>2024-05-10T09:41:13Z</time>
      </trkpt>
      <trkpt lat="43.11281" lon="3.09323">
        <ele>3</ele>
        <time>2024-05-10T09:41:14Z</time>
      </trkpt>
      <trkpt lat="43.11278" lon="3.09324">
        <ele>3</ele>
        <time>2024-05-10T09:41:15Z</time>
      </trkpt>
      <trkpt lat="43.11273" lon="3.09325">
        <ele>3.1</ele>
        <time>2024-05-10T09:41:16Z</time>
      </trkpt>
      <trkpt lat="43.11268" lon="3.09326">
        <ele>3.3</ele>
        <time>2024-05-10T09:41:17Z</time>
      </trkpt>
      <trkpt lat="43.11262" lon="3.09328">
        <ele>3.5</ele>
        <time>2024-05-10T09:41:18Z</time>
      </trkpt>
      <trkpt lat="43.11257" lon="3.09329">
        <ele>3.6</ele>
        <time>2024-05-10T09:41:19Z</time>
      </trkpt>
      <trkpt lat="43.11252" lon="3.0933">
        <ele>3.8</ele>
        <time>2024-05-10T09:41:20Z</time>
      </trkpt>
      <trkpt lat="43.11247" lon="3.0933">
        <ele>3.9</ele>
        <time>2024-05-10T09:41:21Z</time>
      </trkpt>
      <trkpt lat="43.11243" lon="3.09329">
        <ele>3.8</ele>
        <time>2024-05-10T09:41:22Z</time>
      </trkpt>
      <trkpt lat="43.11238" lon="3.09328">
        <ele>3.8</ele>
        <time>2024-05-10T09:41:23Z</time>
      </trkpt>
      <trkpt lat="43.11233" lon="3.09326">
        <ele>3.7</ele>
        <time>2024-05-10T09:41:24Z</time>
      </trkpt>
      <trkpt lat="43.11229" lon="3.09323">
        <ele>3.6</ele>
        <time>2024-05-10T09:41:25Z</time>
      </trkpt>
      <trkpt lat="43.11225" lon="3.0932">
        <ele>3.5</ele>
        <time>2024-05-10T09:41:26Z</time>
      </trkpt>
      <trkpt lat="43.11221" lon="3.09318">
        <ele>3.4</ele>
        <time>2024-05-10T09:41:27Z</time>
      </trkpt>
      <trkpt lat="43.11219" lon="3.09316">
        <ele>3.3</ele>
        <time>2024-05-10T09:41:28Z</time>
      </trkpt>
      <trkpt lat="43.11217" lon="3.09315">
        <ele>3.3</ele>
        <time>2024-05-10T09:41:29Z</time>
      </trkpt>
      <trkpt lat="43.11216" lon="3.09314">
        <ele>3.2</ele>
        <time>2024-05-10T09:41:30Z</time>
      </trkpt>
      <trkpt lat="43.11216" lon="3.09314">
        <ele>3.2</ele>
        <time>2024-05-10T09:41:31Z</time>
      </trkpt>
      <trkpt lat="43.11215" lon="3.09313">
        <ele>3.2</ele>
        <time>2024-05-10T09:41:32Z</time>
      </trkpt>
      <trkpt lat="43.11215" lon="3.09313">
        <ele>3.2</ele>
        <time>2024-05-10T09:41:33Z</time>
      </trkpt>
      <trkpt lat="43.11215" lon="3.09313">
        <ele>3.2</ele>
        <time>2024-05-10T09:41:34Z</time>
      </trkpt>
      <trkpt lat="43.11215" lon="3.09313">
        <ele>3.2</ele>
        <time>2024-05-10T09:41:35Z</time>
      </trkpt>
      <trkpt lat="43.11214" lon="3.09313">
        <ele>3.2</ele>
        <time>2024-05-10T09:41:36Z</time>
      </trkpt>
      <trkpt lat="43.11214" lon="3.09312">
        <ele>3.2</ele>
        <time>2024-05-10T09:41:37Z</time>
      </trkpt>
      <trkpt lat="43.11212" lon="3.09309">
        <ele>3.1</ele>
        <time>2024-05-10T09:41:38Z</time>
      </trkpt>
      <trkpt lat="43.11209" lon="3.09305">
        <ele>3</ele>
        <time>2024-05-10T09:41:39Z</time>
      </trkpt>
      <trkpt lat="43.11207" lon="3.093">
        <ele>3.1</ele>
        <time>2024-05-10T09:41:40Z</time>
      </trkpt>
      <trkpt lat="43.11205" lon="3.09295">
        <ele>3.2</ele>
        <time>2024-05-10T09:41:41Z</time>
      </trkpt>
      <trkpt lat="43.11203" lon="3.0929">
        <ele>3.4</ele>
        <time>2024-05-10T09:41:42Z</time>
      </trkpt>
      <trkpt lat="43.112" lon="3.09283">
        <ele>3.6</ele>
        <time>2024-05-10T09:41:43Z</time>
      </trkpt>
      <trkpt lat="43.11198" lon="3.09277">
        <ele>3.9</ele>
        <time>2024-05-10T09:41:44Z</time>
      </trkpt>
      <trkpt lat="43.11196" lon="3.0927">
        <ele>3.9</ele>
        <time>2024-05-10T09:41:45Z</time>
      </trkpt>
      <trkpt lat="43.11193" lon="3.09264">
        <ele>4</ele>
        <time>2024-05-10T09:41:46Z</time>
      </trkpt>
      <trkpt lat="43.11189" lon="3.09259">
        <ele>4</ele>
        <time>2024-05-10T09:41:47Z</time>
      </trkpt>
      <trkpt lat="43.11186" lon="3.09254">
        <ele>4</ele>
        <time>2024-05-10T09:41:48Z</time>
      </trkpt>
      <trkpt lat="43.11183" lon="3.0925">
        <ele>4</ele>
        <time>2024-05-10T09:41:49Z</time>
      </trkpt>
      <trkpt lat="43.1118" lon="3.09247">
        <ele>4</ele>
        <time>2024-05-10T09:41:50Z</time>
      </trkpt>
      <trkpt lat="43.11177" lon="3.09244">
        <ele>4</ele>
        <time>2024-05-10T09:41:51Z</time>
      </trkpt>
      <trkpt lat="43.11174" lon="3.09242">
        <ele>4</ele>
        <time>2024-05-10T09:41:52Z</time>
      </trkpt>
      <trkpt lat="43.11171" lon="3.0924">
        <ele>4</ele>
        <time>2024-05-10T09:41:53Z</time>
      </trkpt>
      <trkpt lat="43.11167" lon="3.09238">
        <ele>4</ele>
        <time>2024-05-10T09:41:54Z</time>
      </trkpt>
      <trkpt lat="43.11164" lon="3.09236">
        <ele>4</ele>
        <time>2024-05-10T09:41:55Z</time>
      </trkpt>
      <trkpt lat="43.11159" lon="3.09234">
        <ele>4</ele>
        <time>2024-05-10T09:41:56Z</time>
      </trkpt>
      <trkpt lat="43.11155" lon="3.09233">
        <ele>4</ele>
        <time>2024-05-10T09:41:57Z</time>
      </trkpt>
      <trkpt lat="43.11151" lon="3.09232">
        <ele>4</ele>
        <time>2024-05-10T09:41:58Z</time>
      </trkpt>
      <trkpt lat="43.11146" lon="3.09231">
        <ele>4</ele>
        <time>2024-05-10T09:41:59Z</time>
      </trkpt>
      <trkpt lat="43.1114" lon="3.0923">
        <ele>4</ele>
        <time>2024-05-10T09:42:00Z</time>
      </trkpt>
      <trkpt lat="43.11132" lon="3.0923">
        <ele>4.2</ele>
        <time>2024-05-10T09:42:01Z</time>
      </trkpt>
      <trkpt lat="43.11125" lon="3.09229">
        <ele>4.4</ele>
        <time>2024-05-10T09:42:02Z</time>
      </trkpt>
      <trkpt lat="43.11116" lon="3.09228">
        <ele>4.7</ele>
        <time>2024-05-10T09:42:03Z</time>
      </trkpt>
      <trkpt lat="43.11108" lon="3.09226">
        <ele>4.9</ele>
        <time>2024-05-10T09:42:04Z</time>
      </trkpt>
      <trkpt lat="43.11099" lon="3.09225">
        <ele>4.9</ele>
        <time>2024-05-10T09:42:05Z</time>
      </trkpt>
      <trkpt lat="43.1109" lon="3.09224">
        <ele>5</ele>
        <time>2024-05-10T09:42:06Z</time>
      </trkpt>
      <trkpt lat="43.11083" lon="3.09223">
        <ele>5</ele>
        <time>2024-05-10T09:42:07Z</time>
      </trkpt>
      <trkpt lat="43.11076" lon="3.09222">
        <ele>5</ele>
        <time>2024-05-10T09:42:08Z</time>
      </trkpt>
      <trkpt lat="43.11069" lon="3.0922">
        <ele>4.9</ele>
        <time>2024-05-10T09:42:09Z</time>
      </trkpt>
      <trkpt lat="43.1106" lon="3.0922">
        <ele>4.9</ele>
        <time>2024-05-10T09:42:10Z</time>
      </trkpt>
      <trkpt lat="43.11053" lon="3.09218">
        <ele>4.9</ele>
        <time>2024-05-10T09:42:11Z</time>
      </trkpt>
      <trkpt lat="43.11046" lon="3.09218">
        <ele>5.1</ele>
        <time>2024-05-10T09:42:12Z</time>
      </trkpt>
      <trkpt lat="43.1104" lon="3.09216">
        <ele>5.2</ele>
        <time>2024-05-10T09:42:13Z</time>
      </trkpt>
      <trkpt lat="43.11034" lon="3.09215">
        <ele>5.3</ele>
        <time>2024-05-10T09:42:14Z</time>
      </trkpt>
      <trkpt lat="43.11028" lon="3.09214">
        <ele>5.4</ele>
        <time>2024-05-10T09:42:15Z</time>
      </trkpt>
      <trkpt lat="43.11021" lon="3.09213">
        <ele>4.8</ele>
        <time>2024-05-10T09:42:16Z</time>
      </trkpt>
      <trkpt lat="43.11015" lon="3.09213">
        <ele>4.3</ele>
        <time>2024-05-10T09:42:17Z</time>
      </trkpt>
      <trkpt lat="43.1101" lon="3.09211">
        <ele>3.7</ele>
        <time>2024-05-10T09:42:18Z</time>
      </trkpt>
      <trkpt lat="43.11006" lon="3.0921">
        <ele>3.2</ele>
        <time>2024-05-10T09:42:19Z</time>
      </trkpt>
      <trkpt lat="43.11" lon="3.09208">
        <ele>2.5</ele>
        <time>2024-05-10T09:42:20Z</time>
      </trkpt>
      <trkpt lat="43.10994" lon="3.09207">
        <ele>2.4</ele>
        <time>2024-05-10T09:42:21Z</time>
      </trkpt>
      <trkpt lat="43.10988" lon="3.09206">
        <ele>2.5</ele>
        <time>2024-05-10T09:42:22Z</time>
      </trkpt>
      <trkpt lat="43.10983" lon="3.09206">
        <ele>2.6</ele>
        <time>2024-05-10T09:42:23Z</time>
      </trkpt>
      <trkpt lat="43.10978" lon="3.09205">
        <ele>2.7</ele>
        <time>2024-05-10T09:42:24Z</time>
      </trkpt>
      <trkpt lat="43.10974" lon="3.09205">
        <ele>2.8</ele>
        <time>2024-05-10T09:42:25Z</time>
      </trkpt>
      <trkpt lat="43.10967" lon="3.09204">
        <ele>3.2</ele>
        <time>2024-05-10T09:42:26Z</time>
      </trkpt>
      <trkpt lat="43.10959" lon="3.09204">
        <ele>3.4</ele>
        <time>2024-05-10T09:42:27Z</time>
      </trkpt>
      <trkpt lat="43.10951" lon="3.09202">
        <ele>3.9</ele>
        <time>2024-05-10T09:42:28Z</time>
      </trkpt>
      <trkpt lat="43.10944" lon="3.09201">
        <ele>4.3</ele>
        <time>2024-05-10T09:42:29Z</time>
      </trkpt>
      <trkpt lat="43.10941" lon="3.092">
        <ele>4.4</ele>
        <time>2024-05-10T09:42:30Z</time>
      </trkpt>
      <trkpt lat="43.10938" lon="3.092">
        <ele>4.4</ele>
        <time>2024-05-10T09:42:31Z</time>
      </trkpt>
      <trkpt lat="43.10936" lon="3.09199">
        <ele>4.5</ele>
        <time>2024-05-10T09:42:32Z</time>
      </trkpt>
      <trkpt lat="43.10933" lon="3.09199">
        <ele>4.5</ele>
        <time>2024-05-10T09:42:33Z</time>
      </trkpt>
      <trkpt lat="43.1093" lon="3.09198">
        <ele>4.6</ele>
        <time>2024-05-10T09:42:34Z</time>
      </trkpt>
      <trkpt lat="43.10925" lon="3.09198">
        <ele>4.6</ele>
        <time>2024-05-10T09:42:35Z</time>
      </trkpt>
      <trkpt lat="43.1092" lon="3.09197">
        <ele>4.7</ele>
        <time>2024-05-10T09:42:36Z</time>
      </trkpt>
      <trkpt lat="43.10915" lon="3.09196">
        <ele>4.8</ele>
        <time>2024-05-10T09:42:37Z</time>
      </trkpt>
      <trkpt lat="43.10909" lon="3.09195">
        <ele>4.7</ele>
        <time>2024-05-10T09:42:38Z</time>
      </trkpt>
      <trkpt lat="43.10904" lon="3.09195">
        <ele>4.5</ele>
        <time>2024-05-10T09:42:39Z</time>
      </trkpt>
      <trkpt lat="43.109" lon="3.09194">
        <ele>4.4</ele>
        <time>2024-05-10T09:42:40Z</time>
      </trkpt>
      <trkpt lat="43.10895" lon="3.09193">
        <ele>4.1</ele>
        <time>2024-05-10T09:42:41Z</time>
      </trkpt>
      <trkpt lat="43.10891" lon="3.09193">
        <ele>4</ele>
        <time>2024-05-10T09:42:42Z</time>
      </trkpt>
      <trkpt lat="43.10886" lon="3.09192">
        <ele>3.7</ele>
        <time>2024-05-10T09:42:43Z</time>
      </trkpt>
      <trkpt lat="43.10881" lon="3.09191">
        <ele>3.5</ele>
        <time>2024-05-10T09:42:44Z</time>
      </trkpt>
      <trkpt lat="43.10877" lon="3.0919">
        <ele>3.4</ele>
        <time>2024-05-10T09:42:45Z</time>
      </trkpt>
      <trkpt lat="43.10873" lon="3.09189">
        <ele>3.3</ele>
        <time>2024-05-10T09:42:46Z</time>
      </trkpt>
      <trkpt lat="43.10869" lon="3.09187">
        <ele>3.1</ele>
        <time>2024-05-10T09:42:47Z</time>
      </trkpt>
      <trkpt lat="43.10866" lon="3.09184">
        <ele>3</ele>
        <time>2024-05-10T09:42:48Z</time>
      </trkpt>
      <trkpt lat="43.10864" lon="3.09182">
        <ele>3</ele>
        <time>2024-05-10T09:42:49Z</time>
      </trkpt>
      <trkpt lat="43.10863" lon="3.09181">
        <ele>3</ele>
        <time>2024-05-10T09:42:50Z</time>
      </trkpt>
      <trkpt lat="43.10862" lon="3.09179">
        <ele>3</ele>
        <time>2024-05-10T09:42:51Z</time>
      </trkpt>
      <trkpt lat="43.10861" lon="3.09177">
        <ele>3</ele>
        <time>2024-05-10T09:42:52Z</time>
      </trkpt>
      <trkpt lat="43.1086" lon="3.09176">
        <ele>3</ele>
        <time>2024-05-10T09:42:53Z</time>
      </trkpt>
      <trkpt lat="43.1086" lon="3.09177">
        <ele>3</ele>
        <time>2024-05-10T09:42:54Z</time>
      </trkpt>
      <trkpt lat="43.10861" lon="3.09177">
        <ele>3</ele>
        <time>2024-05-10T09:42:55Z</time>
      </trkpt>
      <trkpt lat="43.10861" lon="3.09177">
        <ele>3</ele>
        <time>2024-05-10T09:42:56Z</time>
      </trkpt>
      <trkpt lat="43.10861" lon="3.09177">
        <ele>3</ele>
        <time>2024-05-10T09:42:57Z</time>
      </trkpt>
      <trkpt lat="43.10861" lon="3.09177">
        <ele>3</ele>
        <time>2024-05-10T09:42:58Z</time>
      </trkpt>
      <trkpt lat="43.10862" lon="3.09177">
        <ele>3</ele>
        <time>2024-05-10T09:42:59Z</time>
      </trkpt>
      <trkpt lat="43.10862" lon="3.09176">
        <ele>3</ele>
        <time>2024-05-10T09:43:00Z</time>
      </trkpt>
      <trkpt lat="43.10862" lon="3.09176">
        <ele>3</ele>
        <time>2024-05-10T09:43:01Z</time>
      </trkpt>
      <trkpt lat="43.10862" lon="3.09176">
        <ele>3</ele>
        <time>2024-05-10T09:43:02Z</time>
      </trkpt>
      <trkpt lat="43.10861" lon="3.09175">
        <ele>3</ele>
        <time>2024-05-10T09:43:03Z</time>
      </trkpt>
      <trkpt lat="43.1086" lon="3.09173">
        <ele>3</ele>
        <time>2024-05-10T09:43:04Z</time>
      </trkpt>
      <trkpt lat="43.10857" lon="3.09165">
        <ele>2.9</ele>
        <time>2024-05-10T09:43:05Z</time>
      </trkpt>
      <trkpt lat="43.10853" lon="3.09159">
        <ele>2.7</ele>
        <time>2024-05-10T09:43:06Z</time>
      </trkpt>
      <trkpt lat="43.10848" lon="3.09154">
        <ele>2.5</ele>
        <time>2024-05-10T09:43:07Z</time>
      </trkpt>
      <trkpt lat="43.10844" lon="3.0915">
        <ele>2.4</ele>
        <time>2024-05-10T09:43:08Z</time>
      </trkpt>
      <trkpt lat="43.10841" lon="3.09146">
        <ele>2.3</ele>
        <time>2024-05-10T09:43:09Z</time>
      </trkpt>
      <trkpt lat="43.10839" lon="3.09143">
        <ele>2.1</ele>
        <time>2024-05-10T09:43:10Z</time>
      </trkpt>
      <trkpt lat="43.10839" lon="3.0914">
        <ele>2</ele>
        <time>2024-05-10T09:43:11Z</time>
      </trkpt>
      <trkpt lat="43.10838" lon="3.09139">
        <ele>2</ele>
        <time>2024-05-10T09:43:12Z</time>
      </trkpt>
      <trkpt lat="43.10838" lon="3.09139">
        <ele>2</ele>
        <time>2024-05-10T09:43:13Z</time>
      </trkpt>
      <trkpt lat="43.10838" lon="3.09138">
        <ele>2</ele>
        <time>2024-05-10T09:43:14Z</time>
      </trkpt>
      <trkpt lat="43.10838" lon="3.09138">
        <ele>2</ele>
        <time>2024-05-10T09:43:15Z</time>
      </trkpt>
      <trkpt lat="43.10838" lon="3.09137">
        <ele>2</ele>
        <time>2024-05-10T09:43:16Z</time>
      </trkpt>
      <trkpt lat="43.10838" lon="3.09134">
        <ele>2</ele>
        <time>2024-05-10T09:43:17Z</time>
      </trkpt>
      <trkpt lat="43.10837" lon="3.09128">
        <ele>2</ele>
        <time>2024-05-10T09:43:18Z</time>
      </trkpt>
      <trkpt lat="43.10837" lon="3.09119">
        <ele>2</ele>
        <time>2024-05-10T09:43:19Z</time>
      </trkpt>
      <trkpt lat="43.10837" lon="3.09107">
        <ele>2</ele>
        <time>2024-05-10T09:43:20Z</time>
      </trkpt>
      <trkpt lat="43.10837" lon="3.09096">
        <ele>1.9</ele>
        <time>2024-05-10T09:43:21Z</time>
      </trkpt>
      <trkpt lat="43.10837" lon="3.09085">
        <ele>1.9</ele>
        <time>2024-05-10T09:43:22Z</time>
      </trkpt>
      <trkpt lat="43.10836" lon="3.09074">
        <ele>1.9</ele>
        <time>2024-05-10T09:43:23Z</time>
      </trkpt>
      <trkpt lat="43.10835" lon="3.09063">
        <ele>2</ele>
        <time>2024-05-10T09:43:24Z</time>
      </trkpt>
      <trkpt lat="43.10834" lon="3.09052">
        <ele>2</ele>
        <time>2024-05-10T09:43:25Z</time>
      </trkpt>
      <trkpt lat="43.10833" lon="3.09042">
        <ele>2</ele>
        <time>2024-05-10T09:43:26Z</time>
      </trkpt>
      <trkpt lat="43.10831" lon="3.09032">
        <ele>2</ele>
        <time>2024-05-10T09:43:27Z</time>
      </trkpt>
      <trkpt lat="43.10831" lon="3.09023">
        <ele>1.8</ele>
        <time>2024-05-10T09:43:28Z</time>
      </trkpt>
      <trkpt lat="43.10831" lon="3.09017">
        <ele>1.6</ele>
        <time>2024-05-10T09:43:29Z</time>
      </trkpt>
      <trkpt lat="43.10831" lon="3.09011">
        <ele>1.4</ele>
        <time>2024-05-10T09:43:30Z</time>
      </trkpt>
      <trkpt lat="43.10832" lon="3.09007">
        <ele>1.3</ele>
        <time>2024-05-10T09:43:31Z</time>
      </trkpt>
      <trkpt lat="43.10833" lon="3.09003">
        <ele>1.1</ele>
        <time>2024-05-10T09:43:32Z</time>
      </trkpt>
      <trkpt lat="43.10835" lon="3.08999">
        <ele>1.1</ele>
        <time>2024-05-10T09:43:33Z</time>
      </trkpt>
      <trkpt lat="43.10837" lon="3.08994">
        <ele>1.1</ele>
        <time>2024-05-10T09:43:34Z</time>
      </trkpt>
      <trkpt lat="43.10837" lon="3.08989">
        <ele>1.1</ele>
        <time>2024-05-10T09:43:35Z</time>
      </trkpt>
      <trkpt lat="43.10834" lon="3.08984">
        <ele>1</ele>
        <time>2024-05-10T09:43:36Z</time>
      </trkpt>
      <trkpt lat="43.1083" lon="3.08982">
        <ele>1.1</ele>
        <time>2024-05-10T09:43:37Z</time>
      </trkpt>
      <trkpt lat="43.10824" lon="3.08978">
        <ele>1.3</ele>
        <time>2024-05-10T09:43:38Z</time>
      </trkpt>
      <trkpt lat="43.10818" lon="3.08973">
        <ele>1.6</ele>
        <time>2024-05-10T09:43:39Z</time>
      </trkpt>
      <trkpt lat="43.10814" lon="3.08968">
        <ele>1.7</ele>
        <time>2024-05-10T09:43:40Z</time>
      </trkpt>
      <trkpt lat="43.1081" lon="3.08962">
        <ele>1.9</ele>
        <time>2024-05-10T09:43:41Z</time>
      </trkpt>
      <trkpt lat="43.10806" lon="3.08955">
        <ele>2</ele>
        <time>2024-05-10T09:43:42Z</time>
      </trkpt>
      <trkpt lat="43.10803" lon="3.08948">
        <ele>2</ele>
        <time>2024-05-10T09:43:43Z</time>
      </trkpt>
      <trkpt lat="43.10799" lon="3.08941">
        <ele>2</ele>
        <time>2024-05-10T09:43:44Z</time>
      </trkpt>
      <trkpt lat="43.10795" lon="3.08934">
        <ele>1.9</ele>
        <time>2024-05-10T09:43:45Z</time>
      </trkpt>
      <trkpt lat="43.10791" lon="3.08926">
        <ele>1.7</ele>
        <time>2024-05-10T09:43:46Z</time>
      </trkpt>
      <trkpt lat="43.10786" lon="3.08918">
        <ele>1.3</ele>
        <time>2024-05-10T09:43:47Z</time>
      </trkpt>
      <trkpt lat="43.10782" lon="3.0891">
        <ele>1.2</ele>
        <time>2024-05-10T09:43:48Z</time>
      </trkpt>
      <trkpt lat="43.10778" lon="3.08903">
        <ele>1</ele>
        <time>2024-05-10T09:43:49Z</time>
      </trkpt>
      <trkpt lat="43.10774" lon="3.08895">
        <ele>1</ele>
        <time>2024-05-10T09:43:50Z</time>
      </trkpt>
      <trkpt lat="43.1077" lon="3.08886">
        <ele>1</ele>
        <time>2024-05-10T09:43:51Z</time>
      </trkpt>
      <trkpt lat="43.10766" lon="3.08877">
        <ele>1</ele>
        <time>2024-05-10T09:43:52Z</time>
      </trkpt>
      <trkpt lat="43.10761" lon="3.08868">
        <ele>1</ele>
        <time>2024-05-10T09:43:53Z</time>
      </trkpt>
      <trkpt lat="43.10756" lon="3.08859">
        <ele>1.1</ele>
        <time>2024-05-10T09:43:54Z</time>
      </trkpt>
      <trkpt lat="43.10752" lon="3.0885">
        <ele>1.4</ele>
        <time>2024-05-10T09:43:55Z</time>
      </trkpt>
      <trkpt lat="43.10748" lon="3.08841">
        <ele>1.7</ele>
        <time>2024-05-10T09:43:56Z</time>
      </trkpt>
      <trkpt lat="43.10743" lon="3.08833">
        <ele>2</ele>
        <time>2024-05-10T09:43:57Z</time>
      </trkpt>
      <trkpt lat="43.10739" lon="3.08825">
        <ele>1.7</ele>
        <time>2024-05-10T09:43:58Z</time>
      </trkpt>
      <trkpt lat="43.10735" lon="3.08817">
        <ele>1.4</ele>
        <time>2024-05-10T09:43:59Z</time>
      </trkpt>
      <trkpt lat="43.1073" lon="3.08809">
        <ele>1.1</ele>
        <time>2024-05-10T09:44:00Z</time>
      </trkpt>
      <trkpt lat="43.10726" lon="3.08802">
        <ele>1</ele>
        <time>2024-05-10T09:44:01Z</time>
      </trkpt>
      <trkpt lat="43.10722" lon="3.08795">
        <ele>1</ele>
        <time>2024-05-10T09:44:02Z</time>
      </trkpt>
      <trkpt lat="43.10719" lon="3.08788">
        <ele>1.5</ele>
        <time>2024-05-10T09:44:03Z</time>
      </trkpt>
      <trkpt lat="43.10715" lon="3.0878">
        <ele>1.4</ele>
        <time>2024-05-10T09:44:04Z</time>
      </trkpt>
      <trkpt lat="43.10711" lon="3.08774">
        <ele>1.4</ele>
        <time>2024-05-10T09:44:05Z</time>
      </trkpt>
      <trkpt lat="43.10709" lon="3.08769">
        <ele>1.5</ele>
        <time>2024-05-10T09:44:06Z</time>
      </trkpt>
      <trkpt lat="43.10706" lon="3.08766">
        <ele>1.6</ele>
        <time>2024-05-10T09:44:07Z</time>
      </trkpt>
      <trkpt lat="43.10704" lon="3.08762">
        <ele>1.7</ele>
        <time>2024-05-10T09:44:08Z</time>
      </trkpt>
      <trkpt lat="43.10702" lon="3.08759">
        <ele>1.7</ele>
        <time>2024-05-10T09:44:09Z</time>
      </trkpt>
      <trkpt lat="43.107" lon="3.08756">
        <ele>1.8</ele>
        <time>2024-05-10T09:44:10Z</time>
      </trkpt>
      <trkpt lat="43.10699" lon="3.08753">
        <ele>1.8</ele>
        <time>2024-05-10T09:44:11Z</time>
      </trkpt>
      <trkpt lat="43.10698" lon="3.08751">
        <ele>1.9</ele>
        <time>2024-05-10T09:44:12Z</time>
      </trkpt>
      <trkpt lat="43.10697" lon="3.08749">
        <ele>1.9</ele>
        <time>2024-05-10T09:44:13Z</time>
      </trkpt>
      <trkpt lat="43.10696" lon="3.08746">
        <ele>1.8</ele>
        <time>2024-05-10T09:44:14Z</time>
      </trkpt>
      <trkpt lat="43.10695" lon="3.08743">
        <ele>1.7</ele>
        <time>2024-05-10T09:44:15Z</time>
      </trkpt>
      <trkpt lat="43.10695" lon="3.08741">
        <ele>1.7</ele>
        <time>2024-05-10T09:44:16Z</time>
      </trkpt>
      <trkpt lat="43.10695" lon="3.08738">
        <ele>1.6</ele>
        <time>2024-05-10T09:44:17Z</time>
      </trkpt>
      <trkpt lat="43.10695" lon="3.08735">
        <ele>1.5</ele>
        <time>2024-05-10T09:44:18Z</time>
      </trkpt>
      <trkpt lat="43.10695" lon="3.08731">
        <ele>1.3</ele>
        <time>2024-05-10T09:44:19Z</time>
      </trkpt>
      <trkpt lat="43.10695" lon="3.08728">
        <ele>1.2</ele>
        <time>2024-05-10T09:44:20Z</time>
      </trkpt>
      <trkpt lat="43.10695" lon="3.08726">
        <ele>1.1</ele>
        <time>2024-05-10T09:44:21Z</time>
      </trkpt>
      <trkpt lat="43.10695" lon="3.08726">
        <ele>1.1</ele>
        <time>2024-05-10T09:44:22Z</time>
      </trkpt>
      <trkpt lat="43.10695" lon="3.08726">
        <ele>1.1</ele>
        <time>2024-05-10T09:44:23Z</time>
      </trkpt>
      <trkpt lat="43.10694" lon="3.08726">
        <ele>1.1</ele>
        <time>2024-05-10T09:44:24Z</time>
      </trkpt>
      <trkpt lat="43.10694" lon="3.08727">
        <ele>1.2</ele>
        <time>2024-05-10T09:44:25Z</time>
      </trkpt>
      <trkpt lat="43.10694" lon="3.08727">
        <ele>1.2</ele>
        <time>2024-05-10T09:44:26Z</time>
      </trkpt>
      <trkpt lat="43.10694" lon="3.08727">
        <ele>1.2</ele>
        <time>2024-05-10T09:44:27Z</time>
      </trkpt>
      <trkpt lat="43.10694" lon="3.08727">
        <ele>1.2</ele>
        <time>2024-05-10T09:44:28Z</time>
      </trkpt>
      <trkpt lat="43.10694" lon="3.08727">
        <ele>1.2</ele>
        <time>2024-05-10T09:44:29Z</time>
      </trkpt>
      <trkpt lat="43.10694" lon="3.08727">
        <ele>1.2</ele>
        <time>2024-05-10T09:44:30Z</time>
      </trkpt>
      <trkpt lat="43.10694" lon="3.08726">
        <ele>1.1</ele>
        <time>2024-05-10T09:44:31Z</time>
      </trkpt>
      <trkpt lat="43.10694" lon="3.08724">
        <ele>1.1</ele>
        <time>2024-05-10T09:44:32Z</time>
      </trkpt>
      <trkpt lat="43.10694" lon="3.08721">
        <ele>1</ele>
        <time>2024-05-10T09:44:33Z</time>
      </trkpt>
      <trkpt lat="43.10694" lon="3.08718">
        <ele>1</ele>
        <time>2024-05-10T09:44:34Z</time>
      </trkpt>
      <trkpt lat="43.10695" lon="3.08715">
        <ele>1</ele>
        <time>2024-05-10T09:44:35Z</time>
      </trkpt>
      <trkpt lat="43.10695" lon="3.08713">
        <ele>1</ele>
        <time>2024-05-10T09:44:36Z</time>
      </trkpt>
      <trkpt lat="43.10696" lon="3.08711">
        <ele>1</ele>
        <time>2024-05-10T09:44:37Z</time>
      </trkpt>
      <trkpt lat="43.10696" lon="3.0871">
        <ele>1</ele>
        <time>2024-05-10T09:44:38Z</time>
      </trkpt>
      <trkpt lat="43.10696" lon="3.0871">
        <ele>1</ele>
        <time>2024-05-10T09:44:39Z</time>
      </trkpt>
      <trkpt lat="43.10696" lon="3.0871">
        <ele>1</ele>
        <time>2024-05-10T09:44:40Z</time>
      </trkpt>
      <trkpt lat="43.10697" lon="3.0871">
        <ele>1</ele>
        <time>2024-05-10T09:44:41Z</time>
      </trkpt>
      <trkpt lat="43.10697" lon="3.0871">
        <ele>1</ele>
        <time>2024-05-10T09:44:42Z</time>
      </trkpt>
      <trkpt lat="43.10697" lon="3.0871">
        <ele>1</ele>
        <time>2024-05-10T09:44:43Z</time>
      </trkpt>
      <trkpt lat="43.10697" lon="3.08709">
        <ele>1</ele>
        <time>2024-05-10T09:44:44Z</time>
      </trkpt>
      <trkpt lat="43.10697" lon="3.08708">
        <ele>1</ele>
        <time>2024-05-10T09:44:45Z</time>
      </trkpt>
      <trkpt lat="43.10698" lon="3.08705">
        <ele>1.1</ele>
        <time>2024-05-10T09:44:46Z</time>
      </trkpt>
      <trkpt lat="43.10698" lon="3.08702">
        <ele>1.1</ele>
        <time>2024-05-10T09:44:47Z</time>
      </trkpt>
      <trkpt lat="43.10699" lon="3.087">
        <ele>1.1</ele>
        <time>2024-05-10T09:44:48Z</time>
      </trkpt>
      <trkpt lat="43.10699" lon="3.08698">
        <ele>1.1</ele>
        <time>2024-05-10T09:44:49Z</time>
      </trkpt>
      <trkpt lat="43.107" lon="3.08697">
        <ele>1.2</ele>
        <time>2024-05-10T09:44:50Z</time>
      </trkpt>
      <trkpt lat="43.107" lon="3.08697">
        <ele>1.2</ele>
        <time>2024-05-10T09:44:51Z</time>
      </trkpt>
      <trkpt lat="43.107" lon="3.08697">
        <ele>1.2</ele>
        <time>2024-05-10T09:44:52Z</time>
      </trkpt>
      <trkpt lat="43.107" lon="3.08697">
        <ele>1.2</ele>
        <time>2024-05-10T09:44:53Z</time>
      </trkpt>
      <trkpt lat="43.107" lon="3.08696">
        <ele>1.2</ele>
        <time>2024-05-10T09:44:54Z</time>
      </trkpt>
      <trkpt lat="43.10701" lon="3.08694">
        <ele>1.2</ele>
        <time>2024-05-10T09:44:55Z</time>
      </trkpt>
      <trkpt lat="43.10701" lon="3.08691">
        <ele>1.2</ele>
        <time>2024-05-10T09:44:56Z</time>
      </trkpt>
      <trkpt lat="43.10701" lon="3.08689">
        <ele>1.2</ele>
        <time>2024-05-10T09:44:57Z</time>
      </trkpt>
      <trkpt lat="43.10702" lon="3.08686">
        <ele>1.2</ele>
        <time>2024-05-10T09:44:58Z</time>
      </trkpt>
      <trkpt lat="43.10703" lon="3.08684">
        <ele>1.2</ele>
        <time>2024-05-10T09:44:59Z</time>
      </trkpt>
      <trkpt lat="43.10703" lon="3.08684">
        <ele>1.2</ele>
        <time>2024-05-10T09:45:00Z</time>
      </trkpt>
      <trkpt lat="43.10703" lon="3.08685">
        <ele>1.2</ele>
        <time>2024-05-10T09:45:01Z</time>
      </trkpt>
      <trkpt lat="43.10702" lon="3.08684">
        <ele>1.2</ele>
        <time>2024-05-10T09:45:02Z</time>
      </trkpt>
      <trkpt lat="43.10702" lon="3.08684">
        <ele>1.2</ele>
        <time>2024-05-10T09:45:03Z</time>
      </trkpt>
      <trkpt lat="43.10702" lon="3.08684">
        <ele>1.2</ele>
        <time>2024-05-10T09:45:04Z</time>
      </trkpt>
      <trkpt lat="43.10701" lon="3.08684">
        <ele>1.1</ele>
        <time>2024-05-10T09:45:05Z</time>
      </trkpt>
      <trkpt lat="43.10701" lon="3.08684">
        <ele>1.1</ele>
        <time>2024-05-10T09:45:06Z</time>
      </trkpt>
      <trkpt lat="43.10701" lon="3.08684">
        <ele>1.1</ele>
        <time>2024-05-10T09:45:07Z</time>
      </trkpt>
      <trkpt lat="43.10701" lon="3.08684">
        <ele>1.1</ele>
        <time>2024-05-10T09:45:08Z</time>
      </trkpt>
      <trkpt lat="43.10701" lon="3.08683">
        <ele>1.1</ele>
        <time>2024-05-10T09:45:09Z</time>
      </trkpt>
      <trkpt lat="43.10701" lon="3.08682">
        <ele>1.1</ele>
        <time>2024-05-10T09:45:10Z</time>
      </trkpt>
      <trkpt lat="43.10702" lon="3.08679">
        <ele>1.1</ele>
        <time>2024-05-10T09:45:11Z</time>
      </trkpt>
      <trkpt lat="43.10702" lon="3.08676">
        <ele>1.1</ele>
        <time>2024-05-10T09:45:12Z</time>
      </trkpt>
      <trkpt lat="43.10703" lon="3.08674">
        <ele>1.1</ele>
        <time>2024-05-10T09:45:13Z</time>
      </trkpt>
      <trkpt lat="43.10703" lon="3.08671">
        <ele>1</ele>
        <time>2024-05-10T09:45:14Z</time>
      </trkpt>
      <trkpt lat="43.10704" lon="3.08668">
        <ele>1</ele>
        <time>2024-05-10T09:45:15Z</time>
      </trkpt>
      <trkpt lat="43.10705" lon="3.08666">
        <ele>1</ele>
        <time>2024-05-10T09:45:16Z</time>
      </trkpt>
      <trkpt lat="43.10706" lon="3.08663">
        <ele>1.1</ele>
        <time>2024-05-10T09:45:17Z</time>
      </trkpt>
      <trkpt lat="43.10708" lon="3.0866">
        <ele>1.1</ele>
        <time>2024-05-10T09:45:18Z</time>
      </trkpt>
      <trkpt lat="43.10709" lon="3.08657">
        <ele>1.2</ele>
        <time>2024-05-10T09:45:19Z</time>
      </trkpt>
      <trkpt lat="43.10709" lon="3.08655">
        <ele>1.2</ele>
        <time>2024-05-10T09:45:20Z</time>
      </trkpt>
      <trkpt lat="43.10708" lon="3.08653">
        <ele>1.2</ele>
        <time>2024-05-10T09:45:21Z</time>
      </trkpt>
      <trkpt lat="43.10707" lon="3.08651">
        <ele>1.3</ele>
        <time>2024-05-10T09:45:22Z</time>
      </trkpt>
      <trkpt lat="43.10704" lon="3.08649">
        <ele>1.2</ele>
        <time>2024-05-10T09:45:23Z</time>
      </trkpt>
      <trkpt lat="43.107" lon="3.08648">
        <ele>1.1</ele>
        <time>2024-05-10T09:45:24Z</time>
      </trkpt>
      <trkpt lat="43.10697" lon="3.08646">
        <ele>1.1</ele>
        <time>2024-05-10T09:45:25Z</time>
      </trkpt>
      <trkpt lat="43.10694" lon="3.08644">
        <ele>1</ele>
        <time>2024-05-10T09:45:26Z</time>
      </trkpt>
      <trkpt lat="43.10692" lon="3.0864">
        <ele>1</ele>
        <time>2024-05-10T09:45:27Z</time>
      </trkpt>
      <trkpt lat="43.10691" lon="3.08635">
        <ele>1.1</ele>
        <time>2024-05-10T09:45:28Z</time>
      </trkpt>
      <trkpt lat="43.10689" lon="3.0863">
        <ele>1.3</ele>
        <time>2024-05-10T09:45:29Z</time>
      </trkpt>
      <trkpt lat="43.10688" lon="3.08625">
        <ele>1.5</ele>
        <time>2024-05-10T09:45:30Z</time>
      </trkpt>
      <trkpt lat="43.10686" lon="3.08619">
        <ele>1.7</ele>
        <time>2024-05-10T09:45:31Z</time>
      </trkpt>
      <trkpt lat="43.10685" lon="3.08614">
        <ele>1.9</ele>
        <time>2024-05-10T09:45:32Z</time>
      </trkpt>
      <trkpt lat="43.10683" lon="3.08609">
        <ele>2</ele>
        <time>2024-05-10T09:45:33Z</time>
      </trkpt>
      <trkpt lat="43.10682" lon="3.08604">
        <ele>2</ele>
        <time>2024-05-10T09:45:34Z</time>
      </trkpt>
      <trkpt lat="43.1068" lon="3.086">
        <ele>2</ele>
        <time>2024-05-10T09:45:35Z</time>
      </trkpt>
      <trkpt lat="43.10678" lon="3.08595">
        <ele>2</ele>
        <time>2024-05-10T09:45:36Z</time>
      </trkpt>
      <trkpt lat="43.10676" lon="3.08589">
        <ele>2</ele>
        <time>2024-05-10T09:45:37Z</time>
      </trkpt>
      <trkpt lat="43.10675" lon="3.08584">
        <ele>2</ele>
        <time>2024-05-10T09:45:38Z</time>
      </trkpt>
      <trkpt lat="43.10673" lon="3.08578">
        <ele>1.9</ele>
        <time>2024-05-10T09:45:39Z</time>
      </trkpt>
      <trkpt lat="43.10671" lon="3.08573">
        <ele>1.7</ele>
        <time>2024-05-10T09:45:40Z</time>
      </trkpt>
      <trkpt lat="43.1067" lon="3.08567">
        <ele>1.5</ele>
        <time>2024-05-10T09:45:41Z</time>
      </trkpt>
      <trkpt lat="43.10668" lon="3.08561">
        <ele>1.2</ele>
        <time>2024-05-10T09:45:42Z</time>
      </trkpt>
      <trkpt lat="43.10666" lon="3.08554">
        <ele>1</ele>
        <time>2024-05-10T09:45:43Z</time>
      </trkpt>
      <trkpt lat="43.10665" lon="3.08547">
        <ele>1</ele>
        <time>2024-05-10T09:45:44Z</time>
      </trkpt>
      <trkpt lat="43.10664" lon="3.08541">
        <ele>1</ele>
        <time>2024-05-10T09:45:45Z</time>
      </trkpt>
      <trkpt lat="43.10662" lon="3.08536">
        <ele>1</ele>
        <time>2024-05-10T09:45:46Z</time>
      </trkpt>
      <trkpt lat="43.10662" lon="3.0853">
        <ele>1</ele>
        <time>2024-05-10T09:45:47Z</time>
      </trkpt>
      <trkpt lat="43.10661" lon="3.08526">
        <ele>1.1</ele>
        <time>2024-05-10T09:45:48Z</time>
      </trkpt>
      <trkpt lat="43.10661" lon="3.08522">
        <ele>1.2</ele>
        <time>2024-05-10T09:45:49Z</time>
      </trkpt>
      <trkpt lat="43.10661" lon="3.08518">
        <ele>1.3</ele>
        <time>2024-05-10T09:45:50Z</time>
      </trkpt>
      <trkpt lat="43.10662" lon="3.08514">
        <ele>1.4</ele>
        <time>2024-05-10T09:45:51Z</time>
      </trkpt>
      <trkpt lat="43.10662" lon="3.08511">
        <ele>1.5</ele>
        <time>2024-05-10T09:45:52Z</time>
      </trkpt>
      <trkpt lat="43.1066" lon="3.08508">
        <ele>1.5</ele>
        <time>2024-05-10T09:45:53Z</time>
      </trkpt>
      <trkpt lat="43.10658" lon="3.08505">
        <ele>1.6</ele>
        <time>2024-05-10T09:45:54Z</time>
      </trkpt>
      <trkpt lat="43.10654" lon="3.08502">
        <ele>1.5</ele>
        <time>2024-05-10T09:45:55Z</time>
      </trkpt>
      <trkpt lat="43.1065" lon="3.085">
        <ele>1.4</ele>
        <time>2024-05-10T09:45:56Z</time>
      </trkpt>
      <trkpt lat="43.10643" lon="3.08501">
        <ele>1.1</ele>
        <time>2024-05-10T09:45:57Z</time>
      </trkpt>
      <trkpt lat="43.10636" lon="3.085">
        <ele>1</ele>
        <time>2024-05-10T09:45:58Z</time>
      </trkpt>
      <trkpt lat="43.10628" lon="3.085">
        <ele>1</ele>
        <time>2024-05-10T09:45:59Z</time>
      </trkpt>
      <trkpt lat="43.10621" lon="3.08498">
        <ele>1</ele>
        <time>2024-05-10T09:46:00Z</time>
      </trkpt>
      <trkpt lat="43.10614" lon="3.08498">
        <ele>1</ele>
        <time>2024-05-10T09:46:01Z</time>
      </trkpt>
      <trkpt lat="43.10606" lon="3.08497">
        <ele>1</ele>
        <time>2024-05-10T09:46:02Z</time>
      </trkpt>
      <trkpt lat="43.10598" lon="3.08497">
        <ele>1.1</ele>
        <time>2024-05-10T09:46:03Z</time>
      </trkpt>
      <trkpt lat="43.10591" lon="3.08496">
        <ele>1.1</ele>
        <time>2024-05-10T09:46:04Z</time>
      </trkpt>
      <trkpt lat="43.10584" lon="3.08496">
        <ele>1.1</ele>
        <time>2024-05-10T09:46:05Z</time>
      </trkpt>
      <trkpt lat="43.10578" lon="3.08494">
        <ele>1.4</ele>
        <time>2024-05-10T09:46:06Z</time>
      </trkpt>
      <trkpt lat="43.10573" lon="3.08493">
        <ele>1.5</ele>
        <time>2024-05-10T09:46:07Z</time>
      </trkpt>
      <trkpt lat="43.10569" lon="3.08491">
        <ele>1.7</ele>
        <time>2024-05-10T09:46:08Z</time>
      </trkpt>
      <trkpt lat="43.10566" lon="3.08489">
        <ele>1.8</ele>
        <time>2024-05-10T09:46:09Z</time>
      </trkpt>
      <trkpt lat="43.10564" lon="3.08488">
        <ele>1.8</ele>
        <time>2024-05-10T09:46:10Z</time>
      </trkpt>
      <trkpt lat="43.10562" lon="3.08487">
        <ele>1.9</ele>
        <time>2024-05-10T09:46:11Z</time>
      </trkpt>
      <trkpt lat="43.10561" lon="3.08486">
        <ele>1.9</ele>
        <time>2024-05-10T09:46:12Z</time>
      </trkpt>
      <trkpt lat="43.10561" lon="3.08486">
        <ele>1.9</ele>
        <time>2024-05-10T09:46:13Z</time>
      </trkpt>
      <trkpt lat="43.10561" lon="3.08486">
        <ele>1.9</ele>
        <time>2024-05-10T09:46:14Z</time>
      </trkpt>
      <trkpt lat="43.10561" lon="3.08486">
        <ele>1.9</ele>
        <time>2024-05-10T09:46:15Z</time>
      </trkpt>
      <trkpt lat="43.10562" lon="3.08485">
        <ele>1.9</ele>
        <time>2024-05-10T09:46:16Z</time>
      </trkpt>
      <trkpt lat="43.10562" lon="3.08485">
        <ele>1.9</ele>
        <time>2024-05-10T09:46:17Z</time>
      </trkpt>
      <trkpt lat="43.10562" lon="3.08485">
        <ele>1.9</ele>
        <time>2024-05-10T09:46:18Z</time>
      </trkpt>
      <trkpt lat="43.10562" lon="3.08485">
        <ele>1.9</ele>
        <time>2024-05-10T09:46:19Z</time>
      </trkpt>
      <trkpt lat="43.10562" lon="3.08485">
        <ele>1.9</ele>
        <time>2024-05-10T09:46:20Z</time>
      </trkpt>
      <trkpt lat="43.10562" lon="3.08485">
        <ele>1.9</ele>
        <time>2024-05-10T09:46:21Z</time>
      </trkpt>
      <trkpt lat="43.10563" lon="3.08484">
        <ele>1.9</ele>
        <time>2024-05-10T09:46:22Z</time>
      </trkpt>
      <trkpt lat="43.10563" lon="3.08484">
        <ele>1.9</ele>
        <time>2024-05-10T09:46:23Z</time>
      </trkpt>
      <trkpt lat="43.10563" lon="3.08484">
        <ele>1.9</ele>
        <time>2024-05-10T09:46:24Z</time>
      </trkpt>
      <trkpt lat="43.10563" lon="3.08484">
        <ele>1.9</ele>
        <time>2024-05-10T09:46:25Z</time>
      </trkpt>
      <trkpt lat="43.10563" lon="3.08484">
        <ele>1.9</ele>
        <time>2024-05-10T09:46:26Z</time>
      </trkpt>
      <trkpt lat="43.10563" lon="3.08484">
        <ele>1.9</ele>
        <time>2024-05-10T09:46:27Z</time>
      </trkpt>
      <trkpt lat="43.10563" lon="3.08484">
        <ele>1.9</ele>
        <time>2024-05-10T09:46:28Z</time>
      </trkpt>
      <trkpt lat="43.10563" lon="3.08484">
        <ele>1.9</ele>
        <time>2024-05-10T09:46:29Z</time>
      </trkpt>
      <trkpt lat="43.10563" lon="3.08484">
        <ele>1.9</ele>
        <time>2024-05-10T09:46:30Z</time>
      </trkpt>
      <trkpt lat="43.10563" lon="3.08484">
        <ele>1.9</ele>
        <time>2024-05-10T09:46:31Z</time>
      </trkpt>
      <trkpt lat="43.10563" lon="3.08484">
        <ele>1.9</ele>
        <time>2024-05-10T09:46:32Z</time>
      </trkpt>
      <trkpt lat="43.10562" lon="3.08484">
        <ele>1.9</ele>
        <time>2024-05-10T09:46:33Z</time>
      </trkpt>
      <trkpt lat="43.1056" lon="3.08483">
        <ele>1.9</ele>
        <time>2024-05-10T09:46:34Z</time>
      </trkpt>
      <trkpt lat="43.10557" lon="3.08482">
        <ele>2</ele>
        <time>2024-05-10T09:46:35Z</time>
      </trkpt>
      <trkpt lat="43.10554" lon="3.0848">
        <ele>2</ele>
        <time>2024-05-10T09:46:36Z</time>
      </trkpt>
      <trkpt lat="43.1055" lon="3.08478">
        <ele>2</ele>
        <time>2024-05-10T09:46:37Z</time>
      </trkpt>
      <trkpt lat="43.10547" lon="3.08476">
        <ele>2</ele>
        <time>2024-05-10T09:46:38Z</time>
      </trkpt>
      <trkpt lat="43.10545" lon="3.08475">
        <ele>2</ele>
        <time>2024-05-10T09:46:39Z</time>
      </trkpt>
      <trkpt lat="43.10544" lon="3.08473">
        <ele>2</ele>
        <time>2024-05-10T09:46:40Z</time>
      </trkpt>
      <trkpt lat="43.10544" lon="3.08473">
        <ele>2</ele>
        <time>2024-05-10T09:46:41Z</time>
      </trkpt>
      <trkpt lat="43.10545" lon="3.08472">
        <ele>2</ele>
        <time>2024-05-10T09:46:42Z</time>
      </trkpt>
      <trkpt lat="43.10545" lon="3.08472">
        <ele>2</ele>
        <time>2024-05-10T09:46:43Z</time>
      </trkpt>
      <trkpt lat="43.10545" lon="3.08472">
        <ele>2</ele>
        <time>2024-05-10T09:46:44Z</time>
      </trkpt>
      <trkpt lat="43.10545" lon="3.08472">
        <ele>2</ele>
        <time>2024-05-10T09:46:45Z</time>
      </trkpt>
      <trkpt lat="43.10545" lon="3.08472">
        <ele>2</ele>
        <time>2024-05-10T09:46:46Z</time>
      </trkpt>
      <trkpt lat="43.10545" lon="3.08472">
        <ele>2</ele>
        <time>2024-05-10T09:46:47Z</time>
      </trkpt>
      <trkpt lat="43.10545" lon="3.08472">
        <ele>2</ele>
        <time>2024-05-10T09:46:48Z</time>
      </trkpt>
      <trkpt lat="43.10546" lon="3.08472">
        <ele>2</ele>
        <time>2024-05-10T09:46:49Z</time>
      </trkpt>
      <trkpt lat="43.10545" lon="3.08472">
        <ele>2</ele>
        <time>2024-05-10T09:46:50Z</time>
      </trkpt>
      <trkpt lat="43.10545" lon="3.08472">
        <ele>2</ele>
        <time>2024-05-10T09:46:51Z</time>
      </trkpt>
      <trkpt lat="43.10545" lon="3.08472">
        <ele>2</ele>
        <time>2024-05-10T09:46:52Z</time>
      </trkpt>
      <trkpt lat="43.10545" lon="3.08473">
        <ele>2</ele>
        <time>2024-05-10T09:46:53Z</time>
      </trkpt>
      <trkpt lat="43.10545" lon="3.08473">
        <ele>2</ele>
        <time>2024-05-10T09:46:54Z</time>
      </trkpt>
      <trkpt lat="43.10545" lon="3.08473">
        <ele>2</ele>
        <time>2024-05-10T09:46:55Z</time>
      </trkpt>
      <trkpt lat="43.10545" lon="3.08473">
        <ele>2</ele>
        <time>2024-05-10T09:46:56Z</time>
      </trkpt>
      <trkpt lat="43.10545" lon="3.08473">
        <ele>2</ele>
        <time>2024-05-10T09:46:57Z</time>
      </trkpt>
      <trkpt lat="43.10545" lon="3.08473">
        <ele>2</ele>
        <time>2024-05-10T09:46:58Z</time>
      </trkpt>
      <trkpt lat="43.10545" lon="3.08473">
        <ele>2</ele>
        <time>2024-05-10T09:46:59Z</time>
      </trkpt>
      <trkpt lat="43.10545" lon="3.08473">
        <ele>2</ele>
        <time>2024-05-10T09:47:00Z</time>
      </trkpt>
      <trkpt lat="43.10545" lon="3.08473">
        <ele>2</ele>
        <time>2024-05-10T09:47:01Z</time>
      </trkpt>
      <trkpt lat="43.10545" lon="3.08473">
        <ele>2</ele>
        <time>2024-05-10T09:47:02Z</time>
      </trkpt>
      <trkpt lat="43.10545" lon="3.08473">
        <ele>2</ele>
        <time>2024-05-10T09:47:03Z</time>
      </trkpt>
      <trkpt lat="43.10545" lon="3.08473">
        <ele>2</ele>
        <time>2024-05-10T09:47:04Z</time>
      </trkpt>
      <trkpt lat="43.10545" lon="3.08472">
        <ele>2</ele>
        <time>2024-05-10T09:47:05Z</time>
      </trkpt>
      <trkpt lat="43.10544" lon="3.08471">
        <ele>2</ele>
        <time>2024-05-10T09:47:06Z</time>
      </trkpt>
      <trkpt lat="43.10542" lon="3.08468">
        <ele>2</ele>
        <time>2024-05-10T09:47:07Z</time>
      </trkpt>
      <trkpt lat="43.10536" lon="3.08462">
        <ele>2</ele>
        <time>2024-05-10T09:47:08Z</time>
      </trkpt>
      <trkpt lat="43.10529" lon="3.08458">
        <ele>2</ele>
        <time>2024-05-10T09:47:09Z</time>
      </trkpt>
      <trkpt lat="43.10522" lon="3.08454">
        <ele>2.1</ele>
        <time>2024-05-10T09:47:10Z</time>
      </trkpt>
      <trkpt lat="43.10515" lon="3.08451">
        <ele>2.2</ele>
        <time>2024-05-10T09:47:11Z</time>
      </trkpt>
      <trkpt lat="43.10509" lon="3.08447">
        <ele>2.6</ele>
        <time>2024-05-10T09:47:12Z</time>
      </trkpt>
      <trkpt lat="43.10501" lon="3.08444">
        <ele>2.9</ele>
        <time>2024-05-10T09:47:13Z</time>
      </trkpt>
      <trkpt lat="43.10494" lon="3.0844">
        <ele>2.5</ele>
        <time>2024-05-10T09:47:14Z</time>
      </trkpt>
      <trkpt lat="43.10486" lon="3.08436">
        <ele>2</ele>
        <time>2024-05-10T09:47:15Z</time>
      </trkpt>
      <trkpt lat="43.10479" lon="3.08432">
        <ele>1.7</ele>
        <time>2024-05-10T09:47:16Z</time>
      </trkpt>
      <trkpt lat="43.10472" lon="3.08428">
        <ele>1.6</ele>
        <time>2024-05-10T09:47:17Z</time>
      </trkpt>
      <trkpt lat="43.10465" lon="3.08424">
        <ele>1.7</ele>
        <time>2024-05-10T09:47:18Z</time>
      </trkpt>
      <trkpt lat="43.10458" lon="3.08421">
        <ele>1.8</ele>
        <time>2024-05-10T09:47:19Z</time>
      </trkpt>
      <trkpt lat="43.10451" lon="3.08417">
        <ele>2</ele>
        <time>2024-05-10T09:47:20Z</time>
      </trkpt>
      <trkpt lat="43.10445" lon="3.08414">
        <ele>2</ele>
        <time>2024-05-10T09:47:21Z</time>
      </trkpt>
      <trkpt lat="43.10441" lon="3.08412">
        <ele>1.9</ele>
        <time>2024-05-10T09:47:22Z</time>
      </trkpt>
      <trkpt lat="43.10437" lon="3.0841">
        <ele>1.8</ele>
        <time>2024-05-10T09:47:23Z</time>
      </trkpt>
      <trkpt lat="43.10433" lon="3.08408">
        <ele>1.7</ele>
        <time>2024-05-10T09:47:24Z</time>
      </trkpt>
      <trkpt lat="43.10428" lon="3.08406">
        <ele>1.6</ele>
        <time>2024-05-10T09:47:25Z</time>
      </trkpt>
      <trkpt lat="43.10424" lon="3.08404">
        <ele>1.6</ele>
        <time>2024-05-10T09:47:26Z</time>
      </trkpt>
      <trkpt lat="43.10421" lon="3.08402">
        <ele>1.6</ele>
        <time>2024-05-10T09:47:27Z</time>
      </trkpt>
      <trkpt lat="43.10418" lon="3.084">
        <ele>1.6</ele>
        <time>2024-05-10T09:47:28Z</time>
      </trkpt>
      <trkpt lat="43.10416" lon="3.08399">
        <ele>1.6</ele>
        <time>2024-05-10T09:47:29Z</time>
      </trkpt>
      <trkpt lat="43.10413" lon="3.08398">
        <ele>1.6</ele>
        <time>2024-05-10T09:47:30Z</time>
      </trkpt>
      <trkpt lat="43.10409" lon="3.08396">
        <ele>1.6</ele>
        <time>2024-05-10T09:47:31Z</time>
      </trkpt>
      <trkpt lat="43.10405" lon="3.08394">
        <ele>1.6</ele>
        <time>2024-05-10T09:47:32Z</time>
      </trkpt>
      <trkpt lat="43.104" lon="3.08391">
        <ele>1.4</ele>
        <time>2024-05-10T09:47:33Z</time>
      </trkpt>
      <trkpt lat="43.10395" lon="3.08389">
        <ele>1.2</ele>
        <time>2024-05-10T09:47:34Z</time>
      </trkpt>
      <trkpt lat="43.10391" lon="3.08386">
        <ele>1.1</ele>
        <time>2024-05-10T09:47:35Z</time>
      </trkpt>
      <trkpt lat="43.10387" lon="3.08384">
        <ele>1</ele>
        <time>2024-05-10T09:47:36Z</time>
      </trkpt>
      <trkpt lat="43.10383" lon="3.08381">
        <ele>1</ele>
        <time>2024-05-10T09:47:37Z</time>
      </trkpt>
      <trkpt lat="43.10379" lon="3.08379">
        <ele>1</ele>
        <time>2024-05-10T09:47:38Z</time>
      </trkpt>
      <trkpt lat="43.10377" lon="3.08377">
        <ele>1</ele>
        <time>2024-05-10T09:47:39Z</time>
      </trkpt>
      <trkpt lat="43.10375" lon="3.08376">
        <ele>1</ele>
        <time>2024-05-10T09:47:40Z</time>
      </trkpt>
      <trkpt lat="43.10374" lon="3.08375">
        <ele>1</ele>
        <time>2024-05-10T09:47:41Z</time>
      </trkpt>
      <trkpt lat="43.10374" lon="3.08375">
        <ele>1</ele>
        <time>2024-05-10T09:47:42Z</time>
      </trkpt>
      <trkpt lat="43.10374" lon="3.08375">
        <ele>1</ele>
        <time>2024-05-10T09:47:43Z</time>
      </trkpt>
      <trkpt lat="43.10374" lon="3.08375">
        <ele>1</ele>
        <time>2024-05-10T09:47:44Z</time>
      </trkpt>
      <trkpt lat="43.10374" lon="3.08375">
        <ele>1</ele>
        <time>2024-05-10T09:47:45Z</time>
      </trkpt>
      <trkpt lat="43.10373" lon="3.08374">
        <ele>1</ele>
        <time>2024-05-10T09:47:46Z</time>
      </trkpt>
      <trkpt lat="43.1037" lon="3.08374">
        <ele>1</ele>
        <time>2024-05-10T09:47:47Z</time>
      </trkpt>
      <trkpt lat="43.10367" lon="3.08376">
        <ele>1</ele>
        <time>2024-05-10T09:47:48Z</time>
      </trkpt>
      <trkpt lat="43.10363" lon="3.08381">
        <ele>1</ele>
        <time>2024-05-10T09:47:49Z</time>
      </trkpt>
      <trkpt lat="43.10358" lon="3.08388">
        <ele>1.1</ele>
        <time>2024-05-10T09:47:50Z</time>
      </trkpt>
      <trkpt lat="43.10354" lon="3.08395">
        <ele>1.3</ele>
        <time>2024-05-10T09:47:51Z</time>
      </trkpt>
      <trkpt lat="43.10349" lon="3.08402">
        <ele>1.4</ele>
        <time>2024-05-10T09:47:52Z</time>
      </trkpt>
      <trkpt lat="43.10344" lon="3.08408">
        <ele>1.6</ele>
        <time>2024-05-10T09:47:53Z</time>
      </trkpt>
      <trkpt lat="43.1034" lon="3.08414">
        <ele>1.8</ele>
        <time>2024-05-10T09:47:54Z</time>
      </trkpt>
      <trkpt lat="43.10336" lon="3.08421">
        <ele>1.8</ele>
        <time>2024-05-10T09:47:55Z</time>
      </trkpt>
      <trkpt lat="43.10332" lon="3.08426">
        <ele>1.7</ele>
        <time>2024-05-10T09:47:56Z</time>
      </trkpt>
      <trkpt lat="43.10327" lon="3.08431">
        <ele>1.6</ele>
        <time>2024-05-10T09:47:57Z</time>
      </trkpt>
      <trkpt lat="43.10324" lon="3.08436">
        <ele>1.5</ele>
        <time>2024-05-10T09:47:58Z</time>
      </trkpt>
      <trkpt lat="43.10319" lon="3.0844">
        <ele>1.6</ele>
        <time>2024-05-10T09:47:59Z</time>
      </trkpt>
      <trkpt lat="43.10316" lon="3.08443">
        <ele>1.6</ele>
        <time>2024-05-10T09:48:00Z</time>
      </trkpt>
      <trkpt lat="43.10313" lon="3.08445">
        <ele>1.7</ele>
        <time>2024-05-10T09:48:01Z</time>
      </trkpt>
      <trkpt lat="43.10311" lon="3.08447">
        <ele>1.7</ele>
        <time>2024-05-10T09:48:02Z</time>
      </trkpt>
      <trkpt lat="43.10308" lon="3.08449">
        <ele>1.8</ele>
        <time>2024-05-10T09:48:03Z</time>
      </trkpt>
      <trkpt lat="43.10305" lon="3.0845">
        <ele>1.8</ele>
        <time>2024-05-10T09:48:04Z</time>
      </trkpt>
      <trkpt lat="43.10302" lon="3.08452">
        <ele>1.7</ele>
        <time>2024-05-10T09:48:05Z</time>
      </trkpt>
      <trkpt lat="43.10298" lon="3.08455">
        <ele>1.6</ele>
        <time>2024-05-10T09:48:06Z</time>
      </trkpt>
      <trkpt lat="43.10292" lon="3.08458">
        <ele>1.5</ele>
        <time>2024-05-10T09:48:07Z</time>
      </trkpt>
      <trkpt lat="43.10286" lon="3.08461">
        <ele>1.4</ele>
        <time>2024-05-10T09:48:08Z</time>
      </trkpt>
      <trkpt lat="43.10281" lon="3.08463">
        <ele>1.3</ele>
        <time>2024-05-10T09:48:09Z</time>
      </trkpt>
      <trkpt lat="43.10275" lon="3.08464">
        <ele>1.3</ele>
        <time>2024-05-10T09:48:10Z</time>
      </trkpt>
      <trkpt lat="43.1027" lon="3.08466">
        <ele>1.2</ele>
        <time>2024-05-10T09:48:11Z</time>
      </trkpt>
      <trkpt lat="43.10267" lon="3.08467">
        <ele>1.2</ele>
        <time>2024-05-10T09:48:12Z</time>
      </trkpt>
      <trkpt lat="43.10263" lon="3.08468">
        <ele>1.2</ele>
        <time>2024-05-10T09:48:13Z</time>
      </trkpt>
      <trkpt lat="43.1026" lon="3.08469">
        <ele>1.1</ele>
        <time>2024-05-10T09:48:14Z</time>
      </trkpt>
      <trkpt lat="43.10256" lon="3.08469">
        <ele>1.1</ele>
        <time>2024-05-10T09:48:15Z</time>
      </trkpt>
      <trkpt lat="43.10253" lon="3.08471">
        <ele>1</ele>
        <time>2024-05-10T09:48:16Z</time>
      </trkpt>
      <trkpt lat="43.1025" lon="3.08471">
        <ele>1</ele>
        <time>2024-05-10T09:48:17Z</time>
      </trkpt>
      <trkpt lat="43.10245" lon="3.08472">
        <ele>1</ele>
        <time>2024-05-10T09:48:18Z</time>
      </trkpt>
      <trkpt lat="43.10239" lon="3.08473">
        <ele>1</ele>
        <time>2024-05-10T09:48:19Z</time>
      </trkpt>
      <trkpt lat="43.10231" lon="3.08474">
        <ele>1</ele>
        <time>2024-05-10T09:48:20Z</time>
      </trkpt>
      <trkpt lat="43.10224" lon="3.08474">
        <ele>1</ele>
        <time>2024-05-10T09:48:21Z</time>
      </trkpt>
      <trkpt lat="43.10218" lon="3.08476">
        <ele>1</ele>
        <time>2024-05-10T09:48:22Z</time>
      </trkpt>
      <trkpt lat="43.10211" lon="3.08477">
        <ele>1</ele>
        <time>2024-05-10T09:48:23Z</time>
      </trkpt>
      <trkpt lat="43.10205" lon="3.0848">
        <ele>1</ele>
        <time>2024-05-10T09:48:24Z</time>
      </trkpt>
      <trkpt lat="43.10197" lon="3.08483">
        <ele>1</ele>
        <time>2024-05-10T09:48:25Z</time>
      </trkpt>
      <trkpt lat="43.10187" lon="3.08487">
        <ele>1</ele>
        <time>2024-05-10T09:48:26Z</time>
      </trkpt>
      <trkpt lat="43.10175" lon="3.08492">
        <ele>1</ele>
        <time>2024-05-10T09:48:27Z</time>
      </trkpt>
      <trkpt lat="43.10163" lon="3.08496">
        <ele>1</ele>
        <time>2024-05-10T09:48:28Z</time>
      </trkpt>
      <trkpt lat="43.1015" lon="3.085">
        <ele>1</ele>
        <time>2024-05-10T09:48:29Z</time>
      </trkpt>
      <trkpt lat="43.10137" lon="3.08504">
        <ele>1</ele>
        <time>2024-05-10T09:48:30Z</time>
      </trkpt>
      <trkpt lat="43.10122" lon="3.08509">
        <ele>1</ele>
        <time>2024-05-10T09:48:31Z</time>
      </trkpt>
      <trkpt lat="43.10107" lon="3.08513">
        <ele>1</ele>
        <time>2024-05-10T09:48:32Z</time>
      </trkpt>
      <trkpt lat="43.10092" lon="3.08518">
        <ele>1</ele>
        <time>2024-05-10T09:48:33Z</time>
      </trkpt>
      <trkpt lat="43.10076" lon="3.08523">
        <ele>1</ele>
        <time>2024-05-10T09:48:34Z</time>
      </trkpt>
      <trkpt lat="43.10059" lon="3.08528">
        <ele>1</ele>
        <time>2024-05-10T09:48:35Z</time>
      </trkpt>
      <trkpt lat="43.1004" lon="3.08534">
        <ele>1</ele>
        <time>2024-05-10T09:48:36Z</time>
      </trkpt>
      <trkpt lat="43.10023" lon="3.0854">
        <ele>1</ele>
        <time>2024-05-10T09:48:37Z</time>
      </trkpt>
      <trkpt lat="43.10006" lon="3.08546">
        <ele>1</ele>
        <time>2024-05-10T09:48:38Z</time>
      </trkpt>
      <trkpt lat="43.09993" lon="3.08549">
        <ele>1</ele>
        <time>2024-05-10T09:48:39Z</time>
      </trkpt>
      <trkpt lat="43.09981" lon="3.08548">
        <ele>1</ele>
        <time>2024-05-10T09:48:40Z</time>
      </trkpt>
      <trkpt lat="43.09969" lon="3.08546">
        <ele>1</ele>
        <time>2024-05-10T09:48:41Z</time>
      </trkpt>
      <trkpt lat="43.09957" lon="3.08541">
        <ele>1</ele>
        <time>2024-05-10T09:48:42Z</time>
      </trkpt>
      <trkpt lat="43.09944" lon="3.08537">
        <ele>1</ele>
        <time>2024-05-10T09:48:43Z</time>
      </trkpt>
      <trkpt lat="43.0993" lon="3.08532">
        <ele>1</ele>
        <time>2024-05-10T09:48:44Z</time>
      </trkpt>
      <trkpt lat="43.09916" lon="3.08527">
        <ele>1</ele>
        <time>2024-05-10T09:48:45Z</time>
      </trkpt>
      <trkpt lat="43.09902" lon="3.08521">
        <ele>1.1</ele>
        <time>2024-05-10T09:48:46Z</time>
      </trkpt>
      <trkpt lat="43.09891" lon="3.08515">
        <ele>1</ele>
        <time>2024-05-10T09:48:47Z</time>
      </trkpt>
      <trkpt lat="43.09882" lon="3.0851">
        <ele>1</ele>
        <time>2024-05-10T09:48:48Z</time>
      </trkpt>
      <trkpt lat="43.09874" lon="3.08506">
        <ele>1</ele>
        <time>2024-05-10T09:48:49Z</time>
      </trkpt>
      <trkpt lat="43.09865" lon="3.08502">
        <ele>1</ele>
        <time>2024-05-10T09:48:50Z</time>
      </trkpt>
      <trkpt lat="43.09857" lon="3.08498">
        <ele>1</ele>
        <time>2024-05-10T09:48:51Z</time>
      </trkpt>
      <trkpt lat="43.09848" lon="3.08494">
        <ele>1</ele>
        <time>2024-05-10T09:48:52Z</time>
      </trkpt>
      <trkpt lat="43.09838" lon="3.0849">
        <ele>1</ele>
        <time>2024-05-10T09:48:53Z</time>
      </trkpt>
      <trkpt lat="43.09827" lon="3.08485">
        <ele>1</ele>
        <time>2024-05-10T09:48:54Z</time>
      </trkpt>
      <trkpt lat="43.09816" lon="3.08479">
        <ele>1</ele>
        <time>2024-05-10T09:48:55Z</time>
      </trkpt>
      <trkpt lat="43.09803" lon="3.08473">
        <ele>1</ele>
        <time>2024-05-10T09:48:56Z</time>
      </trkpt>
      <trkpt lat="43.09791" lon="3.08468">
        <ele>1</ele>
        <time>2024-05-10T09:48:57Z</time>
      </trkpt>
      <trkpt lat="43.0978" lon="3.08463">
        <ele>1</ele>
        <time>2024-05-10T09:48:58Z</time>
      </trkpt>
      <trkpt lat="43.09773" lon="3.08461">
        <ele>1</ele>
        <time>2024-05-10T09:48:59Z</time>
      </trkpt>
      <trkpt lat="43.09766" lon="3.08458">
        <ele>1</ele>
        <time>2024-05-10T09:49:00Z</time>
      </trkpt>
      <trkpt lat="43.0976" lon="3.08456">
        <ele>1</ele>
        <time>2024-05-10T09:49:01Z</time>
      </trkpt>
      <trkpt lat="43.09754" lon="3.08454">
        <ele>1</ele>
        <time>2024-05-10T09:49:02Z</time>
      </trkpt>
      <trkpt lat="43.09749" lon="3.08452">
        <ele>1</ele>
        <time>2024-05-10T09:49:03Z</time>
      </trkpt>
      <trkpt lat="43.09746" lon="3.08451">
        <ele>1</ele>
        <time>2024-05-10T09:49:04Z</time>
      </trkpt>
      <trkpt lat="43.09744" lon="3.08451">
        <ele>1</ele>
        <time>2024-05-10T09:49:05Z</time>
      </trkpt>
      <trkpt lat="43.09741" lon="3.0845">
        <ele>1</ele>
        <time>2024-05-10T09:49:06Z</time>
      </trkpt>
      <trkpt lat="43.09739" lon="3.08449">
        <ele>1</ele>
        <time>2024-05-10T09:49:07Z</time>
      </trkpt>
      <trkpt lat="43.09737" lon="3.08448">
        <ele>1</ele>
        <time>2024-05-10T09:49:08Z</time>
      </trkpt>
      <trkpt lat="43.09734" lon="3.08447">
        <ele>1</ele>
        <time>2024-05-10T09:49:09Z</time>
      </trkpt>
      <trkpt lat="43.09732" lon="3.08446">
        <ele>1</ele>
        <time>2024-05-10T09:49:10Z</time>
      </trkpt>
      <trkpt lat="43.09729" lon="3.08445">
        <ele>1</ele>
        <time>2024-05-10T09:49:11Z</time>
      </trkpt>
      <trkpt lat="43.09728" lon="3.08444">
        <ele>1</ele>
        <time>2024-05-10T09:49:12Z</time>
      </trkpt>
      <trkpt lat="43.09726" lon="3.08443">
        <ele>1</ele>
        <time>2024-05-10T09:49:13Z</time>
      </trkpt>
      <trkpt lat="43.09725" lon="3.08442">
        <ele>1</ele>
        <time>2024-05-10T09:49:14Z</time>
      </trkpt>
      <trkpt lat="43.09723" lon="3.08441">
        <ele>1</ele>
        <time>2024-05-10T09:49:15Z</time>
      </trkpt>
      <trkpt lat="43.09721" lon="3.08441">
        <ele>1</ele>
        <time>2024-05-10T09:49:16Z</time>
      </trkpt>
      <trkpt lat="43.0972" lon="3.08441">
        <ele>1</ele>
        <time>2024-05-10T09:49:17Z</time>
      </trkpt>
      <trkpt lat="43.09719" lon="3.08442">
        <ele>1</ele>
        <time>2024-05-10T09:49:18Z</time>
      </trkpt>
      <trkpt lat="43.0972" lon="3.08442">
        <ele>1</ele>
        <time>2024-05-10T09:49:19Z</time>
      </trkpt>
      <trkpt lat="43.0972" lon="3.08442">
        <ele>1</ele>
        <time>2024-05-10T09:49:20Z</time>
      </trkpt>
      <trkpt lat="43.0972" lon="3.08442">
        <ele>1</ele>
        <time>2024-05-10T09:49:21Z</time>
      </trkpt>
      <trkpt lat="43.0972" lon="3.08443">
        <ele>1</ele>
        <time>2024-05-10T09:49:22Z</time>
      </trkpt>
      <trkpt lat="43.09719" lon="3.08443">
        <ele>1</ele>
        <time>2024-05-10T09:49:23Z</time>
      </trkpt>
      <trkpt lat="43.09719" lon="3.08444">
        <ele>1</ele>
        <time>2024-05-10T09:49:24Z</time>
      </trkpt>
      <trkpt lat="43.09718" lon="3.08445">
        <ele>1</ele>
        <time>2024-05-10T09:49:25Z</time>
      </trkpt>
      <trkpt lat="43.09717" lon="3.08447">
        <ele>1</ele>
        <time>2024-05-10T09:49:26Z</time>
      </trkpt>
      <trkpt lat="43.09716" lon="3.08448">
        <ele>1</ele>
        <time>2024-05-10T09:49:27Z</time>
      </trkpt>
      <trkpt lat="43.09715" lon="3.08449">
        <ele>1</ele>
        <time>2024-05-10T09:49:28Z</time>
      </trkpt>
      <trkpt lat="43.09715" lon="3.0845">
        <ele>1</ele>
        <time>2024-05-10T09:49:29Z</time>
      </trkpt>
      <trkpt lat="43.09715" lon="3.0845">
        <ele>1</ele>
        <time>2024-05-10T09:49:30Z</time>
      </trkpt>
      <trkpt lat="43.09714" lon="3.08451">
        <ele>1</ele>
        <time>2024-05-10T09:49:31Z</time>
      </trkpt>
      <trkpt lat="43.09713" lon="3.08452">
        <ele>1</ele>
        <time>2024-05-10T09:49:32Z</time>
      </trkpt>
      <trkpt lat="43.09713" lon="3.08452">
        <ele>1</ele>
        <time>2024-05-10T09:49:33Z</time>
      </trkpt>
      <trkpt lat="43.09712" lon="3.08453">
        <ele>1</ele>
        <time>2024-05-10T09:49:34Z</time>
      </trkpt>
      <trkpt lat="43.09711" lon="3.08453">
        <ele>1</ele>
        <time>2024-05-10T09:49:35Z</time>
      </trkpt>
      <trkpt lat="43.0971" lon="3.08453">
        <ele>1</ele>
        <time>2024-05-10T09:49:36Z</time>
      </trkpt>
      <trkpt lat="43.0971" lon="3.08453">
        <ele>1</ele>
        <time>2024-05-10T09:49:37Z</time>
      </trkpt>
      <trkpt lat="43.09709" lon="3.08453">
        <ele>1</ele>
        <time>2024-05-10T09:49:38Z</time>
      </trkpt>
      <trkpt lat="43.09709" lon="3.08452">
        <ele>1</ele>
        <time>2024-05-10T09:49:39Z</time>
      </trkpt>
      <trkpt lat="43.09709" lon="3.08452">
        <ele>1</ele>
        <time>2024-05-10T09:49:40Z</time>
      </trkpt>
      <trkpt lat="43.09709" lon="3.08452">
        <ele>1</ele>
        <time>2024-05-10T09:49:41Z</time>
      </trkpt>
      <trkpt lat="43.09708" lon="3.08452">
        <ele>1</ele>
        <time>2024-05-10T09:49:42Z</time>
      </trkpt>
      <trkpt lat="43.09707" lon="3.08452">
        <ele>1</ele>
        <time>2024-05-10T09:49:43Z</time>
      </trkpt>
      <trkpt lat="43.09705" lon="3.08451">
        <ele>1</ele>
        <time>2024-05-10T09:49:44Z</time>
      </trkpt>
      <trkpt lat="43.09703" lon="3.08451">
        <ele>1</ele>
        <time>2024-05-10T09:49:45Z</time>
      </trkpt>
      <trkpt lat="43.09702" lon="3.0845">
        <ele>1</ele>
        <time>2024-05-10T09:49:46Z</time>
      </trkpt>
      <trkpt lat="43.09701" lon="3.0845">
        <ele>1</ele>
        <time>2024-05-10T09:49:47Z</time>
      </trkpt>
      <trkpt lat="43.09699" lon="3.08449">
        <ele>1</ele>
        <time>2024-05-10T09:49:48Z</time>
      </trkpt>
      <trkpt lat="43.09699" lon="3.08449">
        <ele>1</ele>
        <time>2024-05-10T09:49:49Z</time>
      </trkpt>
      <trkpt lat="43.09698" lon="3.08448">
        <ele>1</ele>
        <time>2024-05-10T09:49:50Z</time>
      </trkpt>
      <trkpt lat="43.09698" lon="3.08448">
        <ele>1</ele>
        <time>2024-05-10T09:49:51Z</time>
      </trkpt>
      <trkpt lat="43.09697" lon="3.08448">
        <ele>1</ele>
        <time>2024-05-10T09:49:52Z</time>
      </trkpt>
      <trkpt lat="43.09696" lon="3.08448">
        <ele>1</ele>
        <time>2024-05-10T09:49:53Z</time>
      </trkpt>
      <trkpt lat="43.09694" lon="3.08447">
        <ele>1</ele>
        <time>2024-05-10T09:49:54Z</time>
      </trkpt>
      <trkpt lat="43.09692" lon="3.08446">
        <ele>1</ele>
        <time>2024-05-10T09:49:55Z</time>
      </trkpt>
      <trkpt lat="43.09691" lon="3.08446">
        <ele>1</ele>
        <time>2024-05-10T09:49:56Z</time>
      </trkpt>
      <trkpt lat="43.0969" lon="3.08445">
        <ele>1</ele>
        <time>2024-05-10T09:49:57Z</time>
      </trkpt>
      <trkpt lat="43.09689" lon="3.08445">
        <ele>1</ele>
        <time>2024-05-10T09:49:58Z</time>
      </trkpt>
      <trkpt lat="43.09688" lon="3.08444">
        <ele>1</ele>
        <time>2024-05-10T09:49:59Z</time>
      </trkpt>
      <trkpt lat="43.09687" lon="3.08444">
        <ele>1</ele>
        <time>2024-05-10T09:50:00Z</time>
      </trkpt>
      <trkpt lat="43.09687" lon="3.08444">
        <ele>1</ele>
        <time>2024-05-10T09:50:01Z</time>
      </trkpt>
      <trkpt lat="43.09687" lon="3.08444">
        <ele>1</ele>
        <time>2024-05-10T09:50:02Z</time>
      </trkpt>
      <trkpt lat="43.09687" lon="3.08444">
        <ele>1</ele>
        <time>2024-05-10T09:50:03Z</time>
      </trkpt>
      <trkpt lat="43.09687" lon="3.08444">
        <ele>1</ele>
        <time>2024-05-10T09:50:04Z</time>
      </trkpt>
      <trkpt lat="43.09687" lon="3.08444">
        <ele>1</ele>
        <time>2024-05-10T09:50:05Z</time>
      </trkpt>
      <trkpt lat="43.09687" lon="3.08444">
        <ele>1</ele>
        <time>2024-05-10T09:50:06Z</time>
      </trkpt>
      <trkpt lat="43.09687" lon="3.08443">
        <ele>1</ele>
        <time>2024-05-10T09:50:07Z</time>
      </trkpt>
      <trkpt lat="43.09687" lon="3.08443">
        <ele>1</ele>
        <time>2024-05-10T09:50:08Z</time>
      </trkpt>
      <trkpt lat="43.09687" lon="3.08443">
        <ele>1</ele>
        <time>2024-05-10T09:50:09Z</time>
      </trkpt>
      <trkpt lat="43.09687" lon="3.08443">
        <ele>1</ele>
        <time>2024-05-10T09:50:10Z</time>
      </trkpt>
      <trkpt lat="43.09687" lon="3.08443">
        <ele>1</ele>
        <time>2024-05-10T09:50:11Z</time>
      </trkpt>
      <trkpt lat="43.09687" lon="3.08443">
        <ele>1</ele>
        <time>2024-05-10T09:50:12Z</time>
      </trkpt>
      <trkpt lat="43.09687" lon="3.08443">
        <ele>1</ele>
        <time>2024-05-10T09:50:13Z</time>
      </trkpt>
      <trkpt lat="43.09687" lon="3.08443">
        <ele>1</ele>
        <time>2024-05-10T09:50:14Z</time>
      </trkpt>
      <trkpt lat="43.09687" lon="3.08443">
        <ele>1</ele>
        <time>2024-05-10T09:50:15Z</time>
      </trkpt>
      <trkpt lat="43.09687" lon="3.08443">
        <ele>1</ele>
        <time>2024-05-10T09:50:16Z</time>
      </trkpt>
      <trkpt lat="43.09687" lon="3.08443">
        <ele>1</ele>
        <time>2024-05-10T09:50:17Z</time>
      </trkpt>
      <trkpt lat="43.09687" lon="3.08443">
        <ele>1</ele>
        <time>2024-05-10T09:50:18Z</time>
      </trkpt>
      <trkpt lat="43.09687" lon="3.08443">
        <ele>1</ele>
        <time>2024-05-10T09:50:19Z</time>
      </trkpt>
      <trkpt lat="43.09687" lon="3.08443">
        <ele>1</ele>
        <time>2024-05-10T09:50:20Z</time>
      </trkpt>
      <trkpt lat="43.09686" lon="3.08443">
        <ele>1</ele>
        <time>2024-05-10T09:50:21Z</time>
      </trkpt>
      <trkpt lat="43.09686" lon="3.08443">
        <ele>1</ele>
        <time>2024-05-10T09:50:22Z</time>
      </trkpt>
      <trkpt lat="43.09685" lon="3.08443">
        <ele>1</ele>
        <time>2024-05-10T09:50:23Z</time>
      </trkpt>
      <trkpt lat="43.09682" lon="3.08443">
        <ele>1</ele>
        <time>2024-05-10T09:50:24Z</time>
      </trkpt>
      <trkpt lat="43.0968" lon="3.08442">
        <ele>1</ele>
        <time>2024-05-10T09:50:25Z</time>
      </trkpt>
      <trkpt lat="43.09677" lon="3.08441">
        <ele>1</ele>
        <time>2024-05-10T09:50:26Z</time>
      </trkpt>
      <trkpt lat="43.09675" lon="3.08441">
        <ele>1</ele>
        <time>2024-05-10T09:50:27Z</time>
      </trkpt>
      <trkpt lat="43.09673" lon="3.0844">
        <ele>1</ele>
        <time>2024-05-10T09:50:28Z</time>
      </trkpt>
      <trkpt lat="43.09671" lon="3.0844">
        <ele>1</ele>
        <time>2024-05-10T09:50:29Z</time>
      </trkpt>
      <trkpt lat="43.09671" lon="3.08439">
        <ele>1</ele>
        <time>2024-05-10T09:50:30Z</time>
      </trkpt>
      <trkpt lat="43.0967" lon="3.08439">
        <ele>1</ele>
        <time>2024-05-10T09:50:31Z</time>
      </trkpt>
      <trkpt lat="43.0967" lon="3.08439">
        <ele>1</ele>
        <time>2024-05-10T09:50:32Z</time>
      </trkpt>
      <trkpt lat="43.0967" lon="3.08439">
        <ele>1</ele>
        <time>2024-05-10T09:50:33Z</time>
      </trkpt>
      <trkpt lat="43.09669" lon="3.08439">
        <ele>1</ele>
        <time>2024-05-10T09:50:34Z</time>
      </trkpt>
      <trkpt lat="43.09669" lon="3.08439">
        <ele>1</ele>
        <time>2024-05-10T09:50:35Z</time>
      </trkpt>
      <trkpt lat="43.09668" lon="3.08438">
        <ele>1</ele>
        <time>2024-05-10T09:50:36Z</time>
      </trkpt>
      <trkpt lat="43.09667" lon="3.08438">
        <ele>1</ele>
        <time>2024-05-10T09:50:37Z</time>
      </trkpt>
      <trkpt lat="43.09667" lon="3.08437">
        <ele>1</ele>
        <time>2024-05-10T09:50:38Z</time>
      </trkpt>
      <trkpt lat="43.09667" lon="3.08436">
        <ele>1</ele>
        <time>2024-05-10T09:50:39Z</time>
      </trkpt>
      <trkpt lat="43.09667" lon="3.08436">
        <ele>1</ele>
        <time>2024-05-10T09:50:40Z</time>
      </trkpt>
      <trkpt lat="43.09667" lon="3.08436">
        <ele>1</ele>
        <time>2024-05-10T09:50:41Z</time>
      </trkpt>
      <trkpt lat="43.09667" lon="3.08436">
        <ele>1</ele>
        <time>2024-05-10T09:50:42Z</time>
      </trkpt>
      <trkpt lat="43.09667" lon="3.08436">
        <ele>1</ele>
        <time>2024-05-10T09:50:43Z</time>
      </trkpt>
      <trkpt lat="43.09667" lon="3.08436">
        <ele>1</ele>
        <time>2024-05-10T09:50:44Z</time>
      </trkpt>
      <trkpt lat="43.09667" lon="3.08436">
        <ele>1</ele>
        <time>2024-05-10T09:50:45Z</time>
      </trkpt>
      <trkpt lat="43.09667" lon="3.08436">
        <ele>1</ele>
        <time>2024-05-10T09:50:46Z</time>
      </trkpt>
      <trkpt lat="43.09667" lon="3.08436">
        <ele>1</ele>
        <time>2024-05-10T09:50:47Z</time>
      </trkpt>
      <trkpt lat="43.09666" lon="3.08436">
        <ele>1</ele>
        <time>2024-05-10T09:50:48Z</time>
      </trkpt>
      <trkpt lat="43.09666" lon="3.08436">
        <ele>1</ele>
        <time>2024-05-10T09:50:49Z</time>
      </trkpt>
      <trkpt lat="43.09666" lon="3.08436">
        <ele>1</ele>
        <time>2024-05-10T09:50:50Z</time>
      </trkpt>
      <trkpt lat="43.09666" lon="3.08435">
        <ele>1</ele>
        <time>2024-05-10T09:50:51Z</time>
      </trkpt>
      <trkpt lat="43.09666" lon="3.08436">
        <ele>1</ele>
        <time>2024-05-10T09:50:52Z</time>
      </trkpt>
      <trkpt lat="43.09666" lon="3.08435">
        <ele>1</ele>
        <time>2024-05-10T09:50:53Z</time>
      </trkpt>
      <trkpt lat="43.09666" lon="3.08435">
        <ele>1</ele>
        <time>2024-05-10T09:50:54Z</time>
      </trkpt>
      <trkpt lat="43.09667" lon="3.08435">
        <ele>1</ele>
        <time>2024-05-10T09:50:55Z</time>
      </trkpt>
      <trkpt lat="43.09667" lon="3.08435">
        <ele>1</ele>
        <time>2024-05-10T09:50:56Z</time>
      </trkpt>
      <trkpt lat="43.09667" lon="3.08435">
        <ele>1</ele>
        <time>2024-05-10T09:50:57Z</time>
      </trkpt>
      <trkpt lat="43.09666" lon="3.08435">
        <ele>1</ele>
        <time>2024-05-10T09:50:58Z</time>
      </trkpt>
      <trkpt lat="43.09666" lon="3.08435">
        <ele>1</ele>
        <time>2024-05-10T09:50:59Z</time>
      </trkpt>
      <trkpt lat="43.09666" lon="3.08435">
        <ele>1</ele>
        <time>2024-05-10T09:51:00Z</time>
      </trkpt>
      <trkpt lat="43.09666" lon="3.08435">
        <ele>1</ele>
        <time>2024-05-10T09:51:01Z</time>
      </trkpt>
      <trkpt lat="43.09666" lon="3.08435">
        <ele>1</ele>
        <time>2024-05-10T09:51:02Z</time>
      </trkpt>
      <trkpt lat="43.09666" lon="3.08435">
        <ele>1</ele>
        <time>2024-05-10T09:51:03Z</time>
      </trkpt>
      <trkpt lat="43.09666" lon="3.08435">
        <ele>1</ele>
        <time>2024-05-10T09:51:04Z</time>
      </trkpt>
      <trkpt lat="43.09666" lon="3.08435">
        <ele>1</ele>
        <time>2024-05-10T09:51:05Z</time>
      </trkpt>
      <trkpt lat="43.09666" lon="3.08435">
        <ele>1</ele>
        <time>2024-05-10T09:51:06Z</time>
      </trkpt>
      <trkpt lat="43.09667" lon="3.08435">
        <ele>1</ele>
        <time>2024-05-10T09:51:07Z</time>
      </trkpt>
      <trkpt lat="43.09667" lon="3.08435">
        <ele>1</ele>
        <time>2024-05-10T09:51:08Z</time>
      </trkpt>
      <trkpt lat="43.09667" lon="3.08435">
        <ele>1</ele>
        <time>2024-05-10T09:51:09Z</time>
      </trkpt>
      <trkpt lat="43.09667" lon="3.08435">
        <ele>1</ele>
        <time>2024-05-10T09:51:10Z</time>
      </trkpt>
      <trkpt lat="43.09667" lon="3.08435">
        <ele>1</ele>
        <time>2024-05-10T09:51:11Z</time>
      </trkpt>
      <trkpt lat="43.09667" lon="3.08435">
        <ele>1</ele>
        <time>2024-05-10T09:51:12Z</time>
      </trkpt>
      <trkpt lat="43.09667" lon="3.08435">
        <ele>1</ele>
        <time>2024-05-10T09:51:13Z</time>
      </trkpt>
      <trkpt lat="43.09666" lon="3.08435">
        <ele>1</ele>
        <time>2024-05-10T09:51:14Z</time>
      </trkpt>
      <trkpt lat="43.09666" lon="3.08435">
        <ele>1</ele>
        <time>2024-05-10T09:51:15Z</time>
      </trkpt>
      <trkpt lat="43.09666" lon="3.08435">
        <ele>1</ele>
        <time>2024-05-10T09:51:16Z</time>
      </trkpt>
      <trkpt lat="43.09666" lon="3.08435">
        <ele>1</ele>
        <time>2024-05-10T09:51:17Z</time>
      </trkpt>
      <trkpt lat="43.09666" lon="3.08435">
        <ele>1</ele>
        <time>2024-05-10T09:51:18Z</time>
      </trkpt>
      <trkpt lat="43.09666" lon="3.08435">
        <ele>1</ele>
        <time>2024-05-10T09:51:19Z</time>
      </trkpt>
      <trkpt lat="43.09666" lon="3.08435">
        <ele>1</ele>
        <time>2024-05-10T09:51:20Z</time>
      </trkpt>
      <trkpt lat="43.09666" lon="3.08435">
        <ele>1</ele>
        <time>2024-05-10T09:51:21Z</time>
      </trkpt>
      <trkpt lat="43.09666" lon="3.08435">
        <ele>1</ele>
        <time>2024-05-10T09:51:22Z</time>
      </trkpt>
      <trkpt lat="43.09666" lon="3.08435">
        <ele>1</ele>
        <time>2024-05-10T09:51:23Z</time>
      </trkpt>
      <trkpt lat="43.09666" lon="3.08435">
        <ele>1</ele>
        <time>2024-05-10T09:51:24Z</time>
      </trkpt>
      <trkpt lat="43.09666" lon="3.08435">
        <ele>1</ele>
        <time>2024-05-10T09:51:25Z</time>
      </trkpt>
      <trkpt lat="43.09666" lon="3.08435">
        <ele>1</ele>
        <time>2024-05-10T09:51:26Z</time>
      </trkpt>
      <trkpt lat="43.09666" lon="3.08435">
        <ele>1</ele>
        <time>2024-05-10T09:51:27Z</time>
      </trkpt>
      <trkpt lat="43.09666" lon="3.08435">
        <ele>1</ele>
        <time>2024-05-10T09:51:28Z</time>
      </trkpt>
      <trkpt lat="43.09666" lon="3.08435">
        <ele>1</ele>
        <time>2024-05-10T09:51:29Z</time>
      </trkpt>
      <trkpt lat="43.09666" lon="3.08435">
        <ele>1</ele>
        <time>2024-05-10T09:51:30Z</time>
      </trkpt>
      <trkpt lat="43.09666" lon="3.08435">
        <ele>1</ele>
        <time>2024-05-10T09:51:31Z</time>
      </trkpt>
      <trkpt lat="43.09666" lon="3.08435">
        <ele>1</ele>
        <time>2024-05-10T09:51:32Z</time>
      </trkpt>
      <trkpt lat="43.09666" lon="3.08435">
        <ele>1</ele>
        <time>2024-05-10T09:51:33Z</time>
      </trkpt>
      <trkpt lat="43.09666" lon="3.08435">
        <ele>1</ele>
        <time>2024-05-10T09:51:34Z</time>
      </trkpt>
      <trkpt lat="43.09666" lon="3.08435">
        <ele>1</ele>
        <time>2024-05-10T09:51:35Z</time>
      </trkpt>
      <trkpt lat="43.09666" lon="3.08435">
        <ele>1</ele>
        <time>2024-05-10T09:51:36Z</time>
      </trkpt>
      <trkpt lat="43.09666" lon="3.08435">
        <ele>1</ele>
        <time>2024-05-10T09:51:37Z</time>
      </trkpt>
      <trkpt lat="43.09666" lon="3.08435">
        <ele>1</ele>
        <time>2024-05-10T09:51:38Z</time>
      </trkpt>
      <trkpt lat="43.09666" lon="3.08435">
        <ele>1</ele>
        <time>2024-05-10T09:51:39Z</time>
      </trkpt>
      <trkpt lat="43.09666" lon="3.08435">
        <ele>1</ele>
        <time>2024-05-10T09:51:40Z</time>
      </trkpt>
      <trkpt lat="43.09666" lon="3.08435">
        <ele>1</ele>
        <time>2024-05-10T09:51:41Z</time>
      </trkpt>
      <trkpt lat="43.09666" lon="3.08435">
        <ele>1</ele>
        <time>2024-05-10T09:51:42Z</time>
      </trkpt>
      <trkpt lat="43.09666" lon="3.08435">
        <ele>1</ele>
        <time>2024-05-10T09:51:43Z</time>
      </trkpt>
      <trkpt lat="43.0967" lon="3.08433">
        <ele>1</ele>
        <time>2024-05-10T11:56:03Z</time>
      </trkpt>
      <trkpt lat="43.09668" lon="3.08433">
        <ele>1</ele>
        <time>2024-05-10T11:56:04Z</time>
      </trkpt>
      <trkpt lat="43.09668" lon="3.08434">
        <ele>1</ele>
        <time>2024-05-10T11:56:05Z</time>
      </trkpt>
      <trkpt lat="43.09668" lon="3.08434">
        <ele>1</ele>
        <time>2024-05-10T11:56:06Z</time>
      </trkpt>
      <trkpt lat="43.09669" lon="3.08434">
        <ele>1</ele>
        <time>2024-05-10T11:56:07Z</time>
      </trkpt>
      <trkpt lat="43.09669" lon="3.08435">
        <ele>1</ele>
        <time>2024-05-10T11:56:08Z</time>
      </trkpt>
      <trkpt lat="43.09668" lon="3.08435">
        <ele>1</ele>
        <time>2024-05-10T11:56:09Z</time>
      </trkpt>
      <trkpt lat="43.09668" lon="3.08435">
        <ele>1</ele>
        <time>2024-05-10T11:56:10Z</time>
      </trkpt>
      <trkpt lat="43.09668" lon="3.08435">
        <ele>1</ele>
        <time>2024-05-10T11:56:11Z</time>
      </trkpt>
      <trkpt lat="43.09668" lon="3.08435">
        <ele>1</ele>
        <time>2024-05-10T11:56:12Z</time>
      </trkpt>
      <trkpt lat="43.09668" lon="3.08435">
        <ele>1</ele>
        <time>2024-05-10T11:56:13Z</time>
      </trkpt>
      <trkpt lat="43.09667" lon="3.08435">
        <ele>1</ele>
        <time>2024-05-10T11:56:14Z</time>
      </trkpt>
      <trkpt lat="43.09667" lon="3.08435">
        <ele>1</ele>
        <time>2024-05-10T11:56:15Z</time>
      </trkpt>
      <trkpt lat="43.09667" lon="3.08435">
        <ele>1</ele>
        <time>2024-05-10T11:56:16Z</time>
      </trkpt>
      <trkpt lat="43.09667" lon="3.08435">
        <ele>1</ele>
        <time>2024-05-10T11:56:17Z</time>
      </trkpt>
      <trkpt lat="43.09667" lon="3.08435">
        <ele>1</ele>
        <time>2024-05-10T11:56:18Z</time>
      </trkpt>
      <trkpt lat="43.09667" lon="3.08435">
        <ele>1</ele>
        <time>2024-05-10T11:56:19Z</time>
      </trkpt>
      <trkpt lat="43.09667" lon="3.08435">
        <ele>1</ele>
        <time>2024-05-10T11:56:20Z</time>
      </trkpt>
      <trkpt lat="43.09667" lon="3.08435">
        <ele>1</ele>
        <time>2024-05-10T11:56:21Z</time>
      </trkpt>
      <trkpt lat="43.09667" lon="3.08435">
        <ele>1</ele>
        <time>2024-05-10T11:56:22Z</time>
      </trkpt>
      <trkpt lat="43.09667" lon="3.08435">
        <ele>1</ele>
        <time>2024-05-10T11:56:23Z</time>
      </trkpt>
      <trkpt lat="43.09667" lon="3.08435">
        <ele>1</ele>
        <time>2024-05-10T11:56:24Z</time>
      </trkpt>
      <trkpt lat="43.09667" lon="3.08435">
        <ele>1</ele>
        <time>2024-05-10T11:56:25Z</time>
      </trkpt>
      <trkpt lat="43.09667" lon="3.08435">
        <ele>1</ele>
        <time>2024-05-10T11:56:26Z</time>
      </trkpt>
      <trkpt lat="43.09667" lon="3.08435">
        <ele>1</ele>
        <time>2024-05-10T11:56:27Z</time>
      </trkpt>
      <trkpt lat="43.09667" lon="3.08435">
        <ele>1</ele>
        <time>2024-05-10T11:56:28Z</time>
      </trkpt>
      <trkpt lat="43.09667" lon="3.08435">
        <ele>1</ele>
        <time>2024-05-10T11:56:29Z</time>
      </trkpt>
      <trkpt lat="43.09667" lon="3.08434">
        <ele>1</ele>
        <time>2024-05-10T11:56:30Z</time>
      </trkpt>
      <trkpt lat="43.09667" lon="3.08433">
        <ele>1</ele>
        <time>2024-05-10T11:56:31Z</time>
      </trkpt>
      <trkpt lat="43.09667" lon="3.08431">
        <ele>1</ele>
        <time>2024-05-10T11:56:32Z</time>
      </trkpt>
      <trkpt lat="43.09668" lon="3.08429">
        <ele>1</ele>
        <time>2024-05-10T11:56:33Z</time>
      </trkpt>
      <trkpt lat="43.09669" lon="3.08427">
        <ele>1</ele>
        <time>2024-05-10T11:56:34Z</time>
      </trkpt>
      <trkpt lat="43.0967" lon="3.08426">
        <ele>1</ele>
        <time>2024-05-10T11:56:35Z</time>
      </trkpt>
      <trkpt lat="43.09672" lon="3.08425">
        <ele>1</ele>
        <time>2024-05-10T11:56:36Z</time>
      </trkpt>
      <trkpt lat="43.09674" lon="3.08425">
        <ele>1</ele>
        <time>2024-05-10T11:56:37Z</time>
      </trkpt>
      <trkpt lat="43.09676" lon="3.08426">
        <ele>1</ele>
        <time>2024-05-10T11:56:38Z</time>
      </trkpt>
      <trkpt lat="43.09678" lon="3.08427">
        <ele>1</ele>
        <time>2024-05-10T11:56:39Z</time>
      </trkpt>
      <trkpt lat="43.0968" lon="3.08429">
        <ele>1</ele>
        <time>2024-05-10T11:56:40Z</time>
      </trkpt>
      <trkpt lat="43.09681" lon="3.0843">
        <ele>1</ele>
        <time>2024-05-10T11:56:41Z</time>
      </trkpt>
      <trkpt lat="43.09683" lon="3.08431">
        <ele>1</ele>
        <time>2024-05-10T11:56:42Z</time>
      </trkpt>
      <trkpt lat="43.09685" lon="3.08431">
        <ele>1</ele>
        <time>2024-05-10T11:56:43Z</time>
      </trkpt>
      <trkpt lat="43.09687" lon="3.08431">
        <ele>1</ele>
        <time>2024-05-10T11:56:44Z</time>
      </trkpt>
      <trkpt lat="43.09688" lon="3.0843">
        <ele>1</ele>
        <time>2024-05-10T11:56:45Z</time>
      </trkpt>
      <trkpt lat="43.0969" lon="3.0843">
        <ele>1</ele>
        <time>2024-05-10T11:56:46Z</time>
      </trkpt>
      <trkpt lat="43.09692" lon="3.08429">
        <ele>1</ele>
        <time>2024-05-10T11:56:47Z</time>
      </trkpt>
      <trkpt lat="43.09694" lon="3.08429">
        <ele>1</ele>
        <time>2024-05-10T11:56:48Z</time>
      </trkpt>
      <trkpt lat="43.09696" lon="3.0843">
        <ele>1</ele>
        <time>2024-05-10T11:56:49Z</time>
      </trkpt>
      <trkpt lat="43.09697" lon="3.08431">
        <ele>1</ele>
        <time>2024-05-10T11:56:50Z</time>
      </trkpt>
      <trkpt lat="43.09699" lon="3.08432">
        <ele>1</ele>
        <time>2024-05-10T11:56:51Z</time>
      </trkpt>
      <trkpt lat="43.09701" lon="3.08433">
        <ele>1</ele>
        <time>2024-05-10T11:56:52Z</time>
      </trkpt>
      <trkpt lat="43.09703" lon="3.08434">
        <ele>1</ele>
        <time>2024-05-10T11:56:53Z</time>
      </trkpt>
      <trkpt lat="43.09704" lon="3.08435">
        <ele>1</ele>
        <time>2024-05-10T11:56:54Z</time>
      </trkpt>
      <trkpt lat="43.09705" lon="3.08436">
        <ele>1</ele>
        <time>2024-05-10T11:56:55Z</time>
      </trkpt>
      <trkpt lat="43.09706" lon="3.08436">
        <ele>1</ele>
        <time>2024-05-10T11:56:56Z</time>
      </trkpt>
      <trkpt lat="43.09706" lon="3.08437">
        <ele>1</ele>
        <time>2024-05-10T11:56:57Z</time>
      </trkpt>
      <trkpt lat="43.09706" lon="3.08437">
        <ele>1</ele>
        <time>2024-05-10T11:56:58Z</time>
      </trkpt>
      <trkpt lat="43.09705" lon="3.08437">
        <ele>1</ele>
        <time>2024-05-10T11:56:59Z</time>
      </trkpt>
      <trkpt lat="43.09705" lon="3.08437">
        <ele>1</ele>
        <time>2024-05-10T11:57:00Z</time>
      </trkpt>
      <trkpt lat="43.09705" lon="3.08437">
        <ele>1</ele>
        <time>2024-05-10T11:57:01Z</time>
      </trkpt>
      <trkpt lat="43.09705" lon="3.08437">
        <ele>1</ele>
        <time>2024-05-10T11:57:02Z</time>
      </trkpt>
      <trkpt lat="43.09706" lon="3.08437">
        <ele>1</ele>
        <time>2024-05-10T11:57:03Z</time>
      </trkpt>
      <trkpt lat="43.09705" lon="3.08437">
        <ele>1</ele>
        <time>2024-05-10T11:57:04Z</time>
      </trkpt>
      <trkpt lat="43.09705" lon="3.08437">
        <ele>1</ele>
        <time>2024-05-10T11:57:05Z</time>
      </trkpt>
      <trkpt lat="43.09705" lon="3.08437">
        <ele>1</ele>
        <time>2024-05-10T11:57:06Z</time>
      </trkpt>
      <trkpt lat="43.09705" lon="3.08437">
        <ele>1</ele>
        <time>2024-05-10T11:57:07Z</time>
      </trkpt>
      <trkpt lat="43.09705" lon="3.08437">
        <ele>1</ele>
        <time>2024-05-10T11:57:08Z</time>
      </trkpt>
      <trkpt lat="43.09705" lon="3.08437">
        <ele>1</ele>
        <time>2024-05-10T11:57:09Z</time>
      </trkpt>
      <trkpt lat="43.09705" lon="3.08437">
        <ele>1</ele>
        <time>2024-05-10T11:57:10Z</time>
      </trkpt>
      <trkpt lat="43.09705" lon="3.08437">
        <ele>1</ele>
        <time>2024-05-10T11:57:11Z</time>
      </trkpt>
      <trkpt lat="43.09705" lon="3.08437">
        <ele>1</ele>
        <time>2024-05-10T11:57:12Z</time>
      </trkpt>
      <trkpt lat="43.09705" lon="3.08437">
        <ele>1</ele>
        <time>2024-05-10T11:57:13Z</time>
      </trkpt>
      <trkpt lat="43.09705" lon="3.08437">
        <ele>1</ele>
        <time>2024-05-10T11:57:14Z</time>
      </trkpt>
      <trkpt lat="43.09705" lon="3.08437">
        <ele>1</ele>
        <time>2024-05-10T11:57:15Z</time>
      </trkpt>
      <trkpt lat="43.09705" lon="3.08437">
        <ele>1</ele>
        <time>2024-05-10T11:57:16Z</time>
      </trkpt>
      <trkpt lat="43.09705" lon="3.08437">
        <ele>1</ele>
        <time>2024-05-10T11:57:17Z</time>
      </trkpt>
      <trkpt lat="43.09705" lon="3.08437">
        <ele>1</ele>
        <time>2024-05-10T11:57:18Z</time>
      </trkpt>
      <trkpt lat="43.09705" lon="3.08437">
        <ele>1</ele>
        <time>2024-05-10T11:57:19Z</time>
      </trkpt>
      <trkpt lat="43.09701" lon="3.08437">
        <ele>1</ele>
        <time>2024-05-10T12:02:38Z</time>
      </trkpt>
      <trkpt lat="43.09702" lon="3.08434">
        <ele>1</ele>
        <time>2024-05-10T12:02:39Z</time>
      </trkpt>
      <trkpt lat="43.09704" lon="3.08432">
        <ele>1</ele>
        <time>2024-05-10T12:02:40Z</time>
      </trkpt>
      <trkpt lat="43.09704" lon="3.08434">
        <ele>1</ele>
        <time>2024-05-10T12:02:41Z</time>
      </trkpt>
      <trkpt lat="43.09706" lon="3.08436">
        <ele>1</ele>
        <time>2024-05-10T12:02:42Z</time>
      </trkpt>
      <trkpt lat="43.0971" lon="3.08438">
        <ele>1</ele>
        <time>2024-05-10T12:02:43Z</time>
      </trkpt>
      <trkpt lat="43.09714" lon="3.08441">
        <ele>1</ele>
        <time>2024-05-10T12:02:44Z</time>
      </trkpt>
      <trkpt lat="43.09714" lon="3.08441">
        <ele>1</ele>
        <time>2024-05-10T12:02:45Z</time>
      </trkpt>
      <trkpt lat="43.09719" lon="3.08442">
        <ele>1</ele>
        <time>2024-05-10T12:02:46Z</time>
      </trkpt>
      <trkpt lat="43.09725" lon="3.08444">
        <ele>1</ele>
        <time>2024-05-10T12:02:47Z</time>
      </trkpt>
      <trkpt lat="43.09731" lon="3.08447">
        <ele>1</ele>
        <time>2024-05-10T12:02:48Z</time>
      </trkpt>
      <trkpt lat="43.09736" lon="3.0845">
        <ele>1</ele>
        <time>2024-05-10T12:02:49Z</time>
      </trkpt>
      <trkpt lat="43.09742" lon="3.08451">
        <ele>1</ele>
        <time>2024-05-10T12:02:50Z</time>
      </trkpt>
      <trkpt lat="43.09747" lon="3.08453">
        <ele>1</ele>
        <time>2024-05-10T12:02:51Z</time>
      </trkpt>
      <trkpt lat="43.09751" lon="3.08455">
        <ele>1</ele>
        <time>2024-05-10T12:02:52Z</time>
      </trkpt>
      <trkpt lat="43.09755" lon="3.08456">
        <ele>1</ele>
        <time>2024-05-10T12:02:53Z</time>
      </trkpt>
      <trkpt lat="43.0976" lon="3.08458">
        <ele>1</ele>
        <time>2024-05-10T12:02:54Z</time>
      </trkpt>
      <trkpt lat="43.09765" lon="3.0846">
        <ele>1</ele>
        <time>2024-05-10T12:02:55Z</time>
      </trkpt>
      <trkpt lat="43.09771" lon="3.08462">
        <ele>1</ele>
        <time>2024-05-10T12:02:56Z</time>
      </trkpt>
      <trkpt lat="43.09777" lon="3.08464">
        <ele>1</ele>
        <time>2024-05-10T12:02:57Z</time>
      </trkpt>
      <trkpt lat="43.09782" lon="3.08466">
        <ele>1</ele>
        <time>2024-05-10T12:02:58Z</time>
      </trkpt>
      <trkpt lat="43.09787" lon="3.08468">
        <ele>1</ele>
        <time>2024-05-10T12:02:59Z</time>
      </trkpt>
      <trkpt lat="43.09792" lon="3.0847">
        <ele>1</ele>
        <time>2024-05-10T12:03:00Z</time>
      </trkpt>
      <trkpt lat="43.09796" lon="3.08472">
        <ele>1</ele>
        <time>2024-05-10T12:03:01Z</time>
      </trkpt>
      <trkpt lat="43.098" lon="3.08473">
        <ele>1</ele>
        <time>2024-05-10T12:03:02Z</time>
      </trkpt>
      <trkpt lat="43.09804" lon="3.08475">
        <ele>1</ele>
        <time>2024-05-10T12:03:03Z</time>
      </trkpt>
      <trkpt lat="43.09807" lon="3.08476">
        <ele>1</ele>
        <time>2024-05-10T12:03:04Z</time>
      </trkpt>
      <trkpt lat="43.09809" lon="3.08477">
        <ele>1</ele>
        <time>2024-05-10T12:03:05Z</time>
      </trkpt>
      <trkpt lat="43.09811" lon="3.08479">
        <ele>1</ele>
        <time>2024-05-10T12:03:06Z</time>
      </trkpt>
      <trkpt lat="43.09813" lon="3.0848">
        <ele>1</ele>
        <time>2024-05-10T12:03:07Z</time>
      </trkpt>
      <trkpt lat="43.09815" lon="3.0848">
        <ele>1</ele>
        <time>2024-05-10T12:03:08Z</time>
      </trkpt>
      <trkpt lat="43.09816" lon="3.08481">
        <ele>1</ele>
        <time>2024-05-10T12:03:09Z</time>
      </trkpt>
      <trkpt lat="43.09816" lon="3.08481">
        <ele>1</ele>
        <time>2024-05-10T12:03:10Z</time>
      </trkpt>
      <trkpt lat="43.09817" lon="3.08481">
        <ele>1</ele>
        <time>2024-05-10T12:03:11Z</time>
      </trkpt>
      <trkpt lat="43.09817" lon="3.08481">
        <ele>1</ele>
        <time>2024-05-10T12:03:12Z</time>
      </trkpt>
      <trkpt lat="43.09817" lon="3.08481">
        <ele>1</ele>
        <time>2024-05-10T12:03:13Z</time>
      </trkpt>
      <trkpt lat="43.09817" lon="3.08481">
        <ele>1</ele>
        <time>2024-05-10T12:03:14Z</time>
      </trkpt>
      <trkpt lat="43.09817" lon="3.08482">
        <ele>1</ele>
        <time>2024-05-10T12:03:15Z</time>
      </trkpt>
      <trkpt lat="43.09817" lon="3.08482">
        <ele>1</ele>
        <time>2024-05-10T12:03:16Z</time>
      </trkpt>
      <trkpt lat="43.09817" lon="3.08482">
        <ele>1</ele>
        <time>2024-05-10T12:03:17Z</time>
      </trkpt>
      <trkpt lat="43.09817" lon="3.08482">
        <ele>1</ele>
        <time>2024-05-10T12:03:18Z</time>
      </trkpt>
      <trkpt lat="43.09817" lon="3.08481">
        <ele>1</ele>
        <time>2024-05-10T12:03:19Z</time>
      </trkpt>
      <trkpt lat="43.09817" lon="3.08482">
        <ele>1</ele>
        <time>2024-05-10T12:03:20Z</time>
      </trkpt>
      <trkpt lat="43.09819" lon="3.08482">
        <ele>1</ele>
        <time>2024-05-10T12:03:21Z</time>
      </trkpt>
      <trkpt lat="43.09823" lon="3.08484">
        <ele>1</ele>
        <time>2024-05-10T12:03:22Z</time>
      </trkpt>
      <trkpt lat="43.0983" lon="3.08486">
        <ele>1</ele>
        <time>2024-05-10T12:03:23Z</time>
      </trkpt>
      <trkpt lat="43.09835" lon="3.08489">
        <ele>1</ele>
        <time>2024-05-10T12:03:24Z</time>
      </trkpt>
      <trkpt lat="43.09841" lon="3.08492">
        <ele>1</ele>
        <time>2024-05-10T12:03:25Z</time>
      </trkpt>
      <trkpt lat="43.09846" lon="3.08495">
        <ele>1</ele>
        <time>2024-05-10T12:03:26Z</time>
      </trkpt>
      <trkpt lat="43.09852" lon="3.08498">
        <ele>1</ele>
        <time>2024-05-10T12:03:27Z</time>
      </trkpt>
      <trkpt lat="43.09859" lon="3.08501">
        <ele>1</ele>
        <time>2024-05-10T12:03:28Z</time>
      </trkpt>
      <trkpt lat="43.09866" lon="3.08505">
        <ele>1</ele>
        <time>2024-05-10T12:03:29Z</time>
      </trkpt>
      <trkpt lat="43.09874" lon="3.08509">
        <ele>1</ele>
        <time>2024-05-10T12:03:30Z</time>
      </trkpt>
      <trkpt lat="43.09883" lon="3.08513">
        <ele>1</ele>
        <time>2024-05-10T12:03:31Z</time>
      </trkpt>
      <trkpt lat="43.09892" lon="3.08517">
        <ele>1</ele>
        <time>2024-05-10T12:03:32Z</time>
      </trkpt>
      <trkpt lat="43.099" lon="3.08521">
        <ele>1.1</ele>
        <time>2024-05-10T12:03:33Z</time>
      </trkpt>
      <trkpt lat="43.09909" lon="3.08525">
        <ele>1.1</ele>
        <time>2024-05-10T12:03:34Z</time>
      </trkpt>
      <trkpt lat="43.09918" lon="3.08529">
        <ele>1</ele>
        <time>2024-05-10T12:03:35Z</time>
      </trkpt>
      <trkpt lat="43.09928" lon="3.08533">
        <ele>1</ele>
        <time>2024-05-10T12:03:36Z</time>
      </trkpt>
      <trkpt lat="43.09938" lon="3.08537">
        <ele>1</ele>
        <time>2024-05-10T12:03:37Z</time>
      </trkpt>
      <trkpt lat="43.09948" lon="3.08541">
        <ele>1</ele>
        <time>2024-05-10T12:03:38Z</time>
      </trkpt>
      <trkpt lat="43.09957" lon="3.08545">
        <ele>1</ele>
        <time>2024-05-10T12:03:39Z</time>
      </trkpt>
      <trkpt lat="43.09965" lon="3.08547">
        <ele>1</ele>
        <time>2024-05-10T12:03:40Z</time>
      </trkpt>
      <trkpt lat="43.09973" lon="3.08549">
        <ele>1</ele>
        <time>2024-05-10T12:03:41Z</time>
      </trkpt>
      <trkpt lat="43.09982" lon="3.0855">
        <ele>1</ele>
        <time>2024-05-10T12:03:42Z</time>
      </trkpt>
      <trkpt lat="43.09991" lon="3.08549">
        <ele>1</ele>
        <time>2024-05-10T12:03:43Z</time>
      </trkpt>
      <trkpt lat="43.10001" lon="3.08548">
        <ele>1</ele>
        <time>2024-05-10T12:03:44Z</time>
      </trkpt>
      <trkpt lat="43.10012" lon="3.08544">
        <ele>1</ele>
        <time>2024-05-10T12:03:45Z</time>
      </trkpt>
      <trkpt lat="43.10024" lon="3.0854">
        <ele>1</ele>
        <time>2024-05-10T12:03:46Z</time>
      </trkpt>
      <trkpt lat="43.10035" lon="3.08535">
        <ele>1</ele>
        <time>2024-05-10T12:03:47Z</time>
      </trkpt>
      <trkpt lat="43.10046" lon="3.08531">
        <ele>1</ele>
        <time>2024-05-10T12:03:48Z</time>
      </trkpt>
      <trkpt lat="43.10058" lon="3.08527">
        <ele>1</ele>
        <time>2024-05-10T12:03:49Z</time>
      </trkpt>
      <trkpt lat="43.1007" lon="3.08523">
        <ele>1</ele>
        <time>2024-05-10T12:03:50Z</time>
      </trkpt>
      <trkpt lat="43.10082" lon="3.0852">
        <ele>1</ele>
        <time>2024-05-10T12:03:51Z</time>
      </trkpt>
      <trkpt lat="43.10093" lon="3.08516">
        <ele>1</ele>
        <time>2024-05-10T12:03:52Z</time>
      </trkpt>
      <trkpt lat="43.10104" lon="3.08513">
        <ele>1</ele>
        <time>2024-05-10T12:03:53Z</time>
      </trkpt>
      <trkpt lat="43.10116" lon="3.08509">
        <ele>1</ele>
        <time>2024-05-10T12:03:54Z</time>
      </trkpt>
      <trkpt lat="43.10127" lon="3.08505">
        <ele>1</ele>
        <time>2024-05-10T12:03:55Z</time>
      </trkpt>
      <trkpt lat="43.10139" lon="3.08502">
        <ele>1</ele>
        <time>2024-05-10T12:03:56Z</time>
      </trkpt>
      <trkpt lat="43.10151" lon="3.08498">
        <ele>1</ele>
        <time>2024-05-10T12:03:57Z</time>
      </trkpt>
      <trkpt lat="43.10162" lon="3.08494">
        <ele>1</ele>
        <time>2024-05-10T12:03:58Z</time>
      </trkpt>
      <trkpt lat="43.10174" lon="3.0849">
        <ele>1</ele>
        <time>2024-05-10T12:03:59Z</time>
      </trkpt>
      <trkpt lat="43.10185" lon="3.08486">
        <ele>1</ele>
        <time>2024-05-10T12:04:00Z</time>
      </trkpt>
      <trkpt lat="43.10196" lon="3.08483">
        <ele>1</ele>
        <time>2024-05-10T12:04:01Z</time>
      </trkpt>
      <trkpt lat="43.10206" lon="3.08481">
        <ele>1</ele>
        <time>2024-05-10T12:04:02Z</time>
      </trkpt>
      <trkpt lat="43.10215" lon="3.08479">
        <ele>1</ele>
        <time>2024-05-10T12:04:03Z</time>
      </trkpt>
      <trkpt lat="43.10223" lon="3.08477">
        <ele>1</ele>
        <time>2024-05-10T12:04:04Z</time>
      </trkpt>
      <trkpt lat="43.1023" lon="3.08475">
        <ele>1</ele>
        <time>2024-05-10T12:04:05Z</time>
      </trkpt>
      <trkpt lat="43.10239" lon="3.08474">
        <ele>1</ele>
        <time>2024-05-10T12:04:06Z</time>
      </trkpt>
      <trkpt lat="43.10246" lon="3.08473">
        <ele>1</ele>
        <time>2024-05-10T12:04:07Z</time>
      </trkpt>
      <trkpt lat="43.10254" lon="3.08472">
        <ele>1</ele>
        <time>2024-05-10T12:04:08Z</time>
      </trkpt>
      <trkpt lat="43.10261" lon="3.0847">
        <ele>1.1</ele>
        <time>2024-05-10T12:04:09Z</time>
      </trkpt>
      <trkpt lat="43.10266" lon="3.08469">
        <ele>1.1</ele>
        <time>2024-05-10T12:04:10Z</time>
      </trkpt>
      <trkpt lat="43.10271" lon="3.08468">
        <ele>1.2</ele>
        <time>2024-05-10T12:04:11Z</time>
      </trkpt>
      <trkpt lat="43.10277" lon="3.08467">
        <ele>1.2</ele>
        <time>2024-05-10T12:04:12Z</time>
      </trkpt>
      <trkpt lat="43.10282" lon="3.08467">
        <ele>1.2</ele>
        <time>2024-05-10T12:04:13Z</time>
      </trkpt>
      <trkpt lat="43.10288" lon="3.08466">
        <ele>1.2</ele>
        <time>2024-05-10T12:04:14Z</time>
      </trkpt>
      <trkpt lat="43.10293" lon="3.08463">
        <ele>1.3</ele>
        <time>2024-05-10T12:04:15Z</time>
      </trkpt>
      <trkpt lat="43.10298" lon="3.08459">
        <ele>1.5</ele>
        <time>2024-05-10T12:04:16Z</time>
      </trkpt>
      <trkpt lat="43.10303" lon="3.08454">
        <ele>1.7</ele>
        <time>2024-05-10T12:04:17Z</time>
      </trkpt>
      <trkpt lat="43.10308" lon="3.08451">
        <ele>1.7</ele>
        <time>2024-05-10T12:04:18Z</time>
      </trkpt>
      <trkpt lat="43.10314" lon="3.08448">
        <ele>1.6</ele>
        <time>2024-05-10T12:04:19Z</time>
      </trkpt>
      <trkpt lat="43.10318" lon="3.08444">
        <ele>1.6</ele>
        <time>2024-05-10T12:04:20Z</time>
      </trkpt>
      <trkpt lat="43.10322" lon="3.08441">
        <ele>1.5</ele>
        <time>2024-05-10T12:04:21Z</time>
      </trkpt>
      <trkpt lat="43.10325" lon="3.08438">
        <ele>1.5</ele>
        <time>2024-05-10T12:04:22Z</time>
      </trkpt>
      <trkpt lat="43.10328" lon="3.08434">
        <ele>1.5</ele>
        <time>2024-05-10T12:04:23Z</time>
      </trkpt>
      <trkpt lat="43.1033" lon="3.0843">
        <ele>1.6</ele>
        <time>2024-05-10T12:04:24Z</time>
      </trkpt>
      <trkpt lat="43.10333" lon="3.08426">
        <ele>1.7</ele>
        <time>2024-05-10T12:04:25Z</time>
      </trkpt>
      <trkpt lat="43.10335" lon="3.08422">
        <ele>1.8</ele>
        <time>2024-05-10T12:04:26Z</time>
      </trkpt>
      <trkpt lat="43.10338" lon="3.08417">
        <ele>1.8</ele>
        <time>2024-05-10T12:04:27Z</time>
      </trkpt>
      <trkpt lat="43.10342" lon="3.08411">
        <ele>1.7</ele>
        <time>2024-05-10T12:04:28Z</time>
      </trkpt>
      <trkpt lat="43.10346" lon="3.08405">
        <ele>1.5</ele>
        <time>2024-05-10T12:04:29Z</time>
      </trkpt>
      <trkpt lat="43.1035" lon="3.08399">
        <ele>1.4</ele>
        <time>2024-05-10T12:04:30Z</time>
      </trkpt>
      <trkpt lat="43.10354" lon="3.08393">
        <ele>1.3</ele>
        <time>2024-05-10T12:04:31Z</time>
      </trkpt>
      <trkpt lat="43.10358" lon="3.08387">
        <ele>1.1</ele>
        <time>2024-05-10T12:04:32Z</time>
      </trkpt>
      <trkpt lat="43.1036" lon="3.08383">
        <ele>1.1</ele>
        <time>2024-05-10T12:04:33Z</time>
      </trkpt>
      <trkpt lat="43.10363" lon="3.08379">
        <ele>1</ele>
        <time>2024-05-10T12:04:34Z</time>
      </trkpt>
      <trkpt lat="43.10365" lon="3.08375">
        <ele>1</ele>
        <time>2024-05-10T12:04:35Z</time>
      </trkpt>
      <trkpt lat="43.10366" lon="3.08374">
        <ele>1</ele>
        <time>2024-05-10T12:04:36Z</time>
      </trkpt>
      <trkpt lat="43.10367" lon="3.08373">
        <ele>1</ele>
        <time>2024-05-10T12:04:37Z</time>
      </trkpt>
      <trkpt lat="43.10367" lon="3.08373">
        <ele>1</ele>
        <time>2024-05-10T12:04:38Z</time>
      </trkpt>
      <trkpt lat="43.10367" lon="3.08373">
        <ele>1</ele>
        <time>2024-05-10T12:04:39Z</time>
      </trkpt>
      <trkpt lat="43.10367" lon="3.08373">
        <ele>1</ele>
        <time>2024-05-10T12:04:40Z</time>
      </trkpt>
      <trkpt lat="43.10367" lon="3.08373">
        <ele>1</ele>
        <time>2024-05-10T12:04:41Z</time>
      </trkpt>
      <trkpt lat="43.10367" lon="3.08373">
        <ele>1</ele>
        <time>2024-05-10T12:04:42Z</time>
      </trkpt>
      <trkpt lat="43.10367" lon="3.08373">
        <ele>1</ele>
        <time>2024-05-10T12:04:43Z</time>
      </trkpt>
      <trkpt lat="43.10367" lon="3.08373">
        <ele>1</ele>
        <time>2024-05-10T12:04:44Z</time>
      </trkpt>
      <trkpt lat="43.10367" lon="3.08373">
        <ele>1</ele>
        <time>2024-05-10T12:04:45Z</time>
      </trkpt>
      <trkpt lat="43.10367" lon="3.08374">
        <ele>1</ele>
        <time>2024-05-10T12:04:46Z</time>
      </trkpt>
      <trkpt lat="43.10367" lon="3.08374">
        <ele>1</ele>
        <time>2024-05-10T12:04:47Z</time>
      </trkpt>
      <trkpt lat="43.10367" lon="3.08374">
        <ele>1</ele>
        <time>2024-05-10T12:04:48Z</time>
      </trkpt>
      <trkpt lat="43.10367" lon="3.08374">
        <ele>1</ele>
        <time>2024-05-10T12:04:49Z</time>
      </trkpt>
      <trkpt lat="43.10367" lon="3.08374">
        <ele>1</ele>
        <time>2024-05-10T12:04:50Z</time>
      </trkpt>
      <trkpt lat="43.10367" lon="3.08374">
        <ele>1</ele>
        <time>2024-05-10T12:04:51Z</time>
      </trkpt>
      <trkpt lat="43.10367" lon="3.08374">
        <ele>1</ele>
        <time>2024-05-10T12:04:52Z</time>
      </trkpt>
      <trkpt lat="43.10367" lon="3.08374">
        <ele>1</ele>
        <time>2024-05-10T12:04:53Z</time>
      </trkpt>
      <trkpt lat="43.10367" lon="3.08374">
        <ele>1</ele>
        <time>2024-05-10T12:04:54Z</time>
      </trkpt>
      <trkpt lat="43.10367" lon="3.08374">
        <ele>1</ele>
        <time>2024-05-10T12:04:55Z</time>
      </trkpt>
      <trkpt lat="43.10367" lon="3.08373">
        <ele>1</ele>
        <time>2024-05-10T12:04:56Z</time>
      </trkpt>
      <trkpt lat="43.10369" lon="3.08368">
        <ele>1</ele>
        <time>2024-05-10T12:04:57Z</time>
      </trkpt>
      <trkpt lat="43.10372" lon="3.08361">
        <ele>1</ele>
        <time>2024-05-10T12:04:58Z</time>
      </trkpt>
      <trkpt lat="43.10376" lon="3.08351">
        <ele>1.2</ele>
        <time>2024-05-10T12:04:59Z</time>
      </trkpt>
      <trkpt lat="43.1038" lon="3.08344">
        <ele>1.2</ele>
        <time>2024-05-10T12:05:00Z</time>
      </trkpt>
      <trkpt lat="43.10385" lon="3.08335">
        <ele>1.1</ele>
        <time>2024-05-10T12:05:01Z</time>
      </trkpt>
      <trkpt lat="43.1039" lon="3.08326">
        <ele>1.3</ele>
        <time>2024-05-10T12:05:02Z</time>
      </trkpt>
      <trkpt lat="43.10396" lon="3.08315">
        <ele>1.5</ele>
        <time>2024-05-10T12:05:03Z</time>
      </trkpt>
      <trkpt lat="43.10403" lon="3.08303">
        <ele>1.5</ele>
        <time>2024-05-10T12:05:04Z</time>
      </trkpt>
      <trkpt lat="43.1041" lon="3.08292">
        <ele>1.2</ele>
        <time>2024-05-10T12:05:05Z</time>
      </trkpt>
      <trkpt lat="43.10417" lon="3.0828">
        <ele>1</ele>
        <time>2024-05-10T12:05:06Z</time>
      </trkpt>
      <trkpt lat="43.10424" lon="3.08265">
        <ele>1</ele>
        <time>2024-05-10T12:05:07Z</time>
      </trkpt>
      <trkpt lat="43.1043" lon="3.0825">
        <ele>1</ele>
        <time>2024-05-10T12:05:08Z</time>
      </trkpt>
      <trkpt lat="43.10437" lon="3.08234">
        <ele>1.3</ele>
        <time>2024-05-10T12:05:09Z</time>
      </trkpt>
      <trkpt lat="43.10444" lon="3.08218">
        <ele>1.2</ele>
        <time>2024-05-10T12:05:10Z</time>
      </trkpt>
      <trkpt lat="43.10452" lon="3.08202">
        <ele>1.5</ele>
        <time>2024-05-10T12:05:11Z</time>
      </trkpt>
      <trkpt lat="43.10461" lon="3.08184">
        <ele>1.6</ele>
        <time>2024-05-10T12:05:12Z</time>
      </trkpt>
      <trkpt lat="43.1047" lon="3.08166">
        <ele>1.2</ele>
        <time>2024-05-10T12:05:13Z</time>
      </trkpt>
      <trkpt lat="43.10481" lon="3.08147">
        <ele>2.4</ele>
        <time>2024-05-10T12:05:14Z</time>
      </trkpt>
      <trkpt lat="43.10493" lon="3.08128">
        <ele>2.9</ele>
        <time>2024-05-10T12:05:15Z</time>
      </trkpt>
      <trkpt lat="43.10506" lon="3.0811">
        <ele>2.1</ele>
        <time>2024-05-10T12:05:16Z</time>
      </trkpt>
      <trkpt lat="43.10519" lon="3.08094">
        <ele>2</ele>
        <time>2024-05-10T12:05:17Z</time>
      </trkpt>
      <trkpt lat="43.10531" lon="3.08076">
        <ele>1.3</ele>
        <time>2024-05-10T12:05:18Z</time>
      </trkpt>
      <trkpt lat="43.10542" lon="3.08057">
        <ele>1.9</ele>
        <time>2024-05-10T12:05:19Z</time>
      </trkpt>
      <trkpt lat="43.10553" lon="3.08037">
        <ele>1.6</ele>
        <time>2024-05-10T12:05:20Z</time>
      </trkpt>
      <trkpt lat="43.10563" lon="3.08018">
        <ele>1.5</ele>
        <time>2024-05-10T12:05:21Z</time>
      </trkpt>
      <trkpt lat="43.10573" lon="3.08">
        <ele>1.7</ele>
        <time>2024-05-10T12:05:22Z</time>
      </trkpt>
      <trkpt lat="43.10584" lon="3.07982">
        <ele>1.6</ele>
        <time>2024-05-10T12:05:23Z</time>
      </trkpt>
      <trkpt lat="43.10594" lon="3.07965">
        <ele>2.5</ele>
        <time>2024-05-10T12:05:24Z</time>
      </trkpt>
      <trkpt lat="43.10605" lon="3.07948">
        <ele>2.1</ele>
        <time>2024-05-10T12:05:25Z</time>
      </trkpt>
      <trkpt lat="43.10616" lon="3.07932">
        <ele>1.4</ele>
        <time>2024-05-10T12:05:26Z</time>
      </trkpt>
      <trkpt lat="43.10626" lon="3.07919">
        <ele>1.4</ele>
        <time>2024-05-10T12:05:27Z</time>
      </trkpt>
      <trkpt lat="43.10634" lon="3.07907">
        <ele>1.3</ele>
        <time>2024-05-10T12:05:28Z</time>
      </trkpt>
      <trkpt lat="43.1064" lon="3.07894">
        <ele>1</ele>
        <time>2024-05-10T12:05:29Z</time>
      </trkpt>
      <trkpt lat="43.10644" lon="3.07883">
        <ele>1.2</ele>
        <time>2024-05-10T12:05:30Z</time>
      </trkpt>
      <trkpt lat="43.10645" lon="3.0787">
        <ele>1.7</ele>
        <time>2024-05-10T12:05:31Z</time>
      </trkpt>
      <trkpt lat="43.10645" lon="3.07855">
        <ele>2</ele>
        <time>2024-05-10T12:05:32Z</time>
      </trkpt>
      <trkpt lat="43.10644" lon="3.07838">
        <ele>2</ele>
        <time>2024-05-10T12:05:33Z</time>
      </trkpt>
      <trkpt lat="43.10644" lon="3.0782">
        <ele>2</ele>
        <time>2024-05-10T12:05:34Z</time>
      </trkpt>
      <trkpt lat="43.10646" lon="3.078">
        <ele>2</ele>
        <time>2024-05-10T12:05:35Z</time>
      </trkpt>
      <trkpt lat="43.10649" lon="3.0778">
        <ele>2</ele>
        <time>2024-05-10T12:05:36Z</time>
      </trkpt>
      <trkpt lat="43.10653" lon="3.07758">
        <ele>2.7</ele>
        <time>2024-05-10T12:05:37Z</time>
      </trkpt>
      <trkpt lat="43.10658" lon="3.07737">
        <ele>2.4</ele>
        <time>2024-05-10T12:05:38Z</time>
      </trkpt>
      <trkpt lat="43.10664" lon="3.07716">
        <ele>1.2</ele>
        <time>2024-05-10T12:05:39Z</time>
      </trkpt>
      <trkpt lat="43.10669" lon="3.07695">
        <ele>1</ele>
        <time>2024-05-10T12:05:40Z</time>
      </trkpt>
      <trkpt lat="43.10673" lon="3.07675">
        <ele>1.7</ele>
        <time>2024-05-10T12:05:41Z</time>
      </trkpt>
      <trkpt lat="43.10676" lon="3.07654">
        <ele>1.5</ele>
        <time>2024-05-10T12:05:42Z</time>
      </trkpt>
      <trkpt lat="43.10679" lon="3.07633">
        <ele>1</ele>
        <time>2024-05-10T12:05:43Z</time>
      </trkpt>
      <trkpt lat="43.10683" lon="3.07612">
        <ele>1</ele>
        <time>2024-05-10T12:05:44Z</time>
      </trkpt>
      <trkpt lat="43.10687" lon="3.07591">
        <ele>1</ele>
        <time>2024-05-10T12:05:45Z</time>
      </trkpt>
      <trkpt lat="43.10692" lon="3.0757">
        <ele>1</ele>
        <time>2024-05-10T12:05:46Z</time>
      </trkpt>
      <trkpt lat="43.10698" lon="3.0755">
        <ele>1</ele>
        <time>2024-05-10T12:05:47Z</time>
      </trkpt>
      <trkpt lat="43.10706" lon="3.0753">
        <ele>1</ele>
        <time>2024-05-10T12:05:48Z</time>
      </trkpt>
      <trkpt lat="43.10713" lon="3.07512">
        <ele>1</ele>
        <time>2024-05-10T12:05:49Z</time>
      </trkpt>
      <trkpt lat="43.1072" lon="3.07492">
        <ele>1</ele>
        <time>2024-05-10T12:05:50Z</time>
      </trkpt>
      <trkpt lat="43.10725" lon="3.0747">
        <ele>1.1</ele>
        <time>2024-05-10T12:05:51Z</time>
      </trkpt>
      <trkpt lat="43.1073" lon="3.07446">
        <ele>1.9</ele>
        <time>2024-05-10T12:05:52Z</time>
      </trkpt>
      <trkpt lat="43.10734" lon="3.0742">
        <ele>2</ele>
        <time>2024-05-10T12:05:53Z</time>
      </trkpt>
      <trkpt lat="43.1074" lon="3.07393">
        <ele>2.9</ele>
        <time>2024-05-10T12:05:54Z</time>
      </trkpt>
      <trkpt lat="43.10747" lon="3.07366">
        <ele>3.8</ele>
        <time>2024-05-10T12:05:55Z</time>
      </trkpt>
      <trkpt lat="43.10753" lon="3.07341">
        <ele>5.9</ele>
        <time>2024-05-10T12:05:56Z</time>
      </trkpt>
      <trkpt lat="43.1076" lon="3.07318">
        <ele>8.7</ele>
        <time>2024-05-10T12:05:57Z</time>
      </trkpt>
      <trkpt lat="43.10766" lon="3.07298">
        <ele>10.5</ele>
        <time>2024-05-10T12:05:58Z</time>
      </trkpt>
      <trkpt lat="43.10773" lon="3.0728">
        <ele>10.5</ele>
        <time>2024-05-10T12:05:59Z</time>
      </trkpt>
      <trkpt lat="43.10779" lon="3.07263">
        <ele>10.2</ele>
        <time>2024-05-10T12:06:00Z</time>
      </trkpt>
      <trkpt lat="43.10784" lon="3.07247">
        <ele>10.4</ele>
        <time>2024-05-10T12:06:01Z</time>
      </trkpt>
      <trkpt lat="43.10791" lon="3.07231">
        <ele>10.3</ele>
        <time>2024-05-10T12:06:02Z</time>
      </trkpt>
      <trkpt lat="43.10797" lon="3.07214">
        <ele>9.4</ele>
        <time>2024-05-10T12:06:03Z</time>
      </trkpt>
      <trkpt lat="43.10804" lon="3.07199">
        <ele>7.6</ele>
        <time>2024-05-10T12:06:04Z</time>
      </trkpt>
      <trkpt lat="43.10813" lon="3.07186">
        <ele>7.7</ele>
        <time>2024-05-10T12:06:05Z</time>
      </trkpt>
      <trkpt lat="43.10822" lon="3.07175">
        <ele>7.2</ele>
        <time>2024-05-10T12:06:06Z</time>
      </trkpt>
      <trkpt lat="43.10832" lon="3.07166">
        <ele>5.3</ele>
        <time>2024-05-10T12:06:07Z</time>
      </trkpt>
      <trkpt lat="43.10842" lon="3.07155">
        <ele>4.4</ele>
        <time>2024-05-10T12:06:08Z</time>
      </trkpt>
      <trkpt lat="43.1085" lon="3.07142">
        <ele>3.6</ele>
        <time>2024-05-10T12:06:09Z</time>
      </trkpt>
      <trkpt lat="43.10856" lon="3.07128">
        <ele>2.5</ele>
        <time>2024-05-10T12:06:10Z</time>
      </trkpt>
      <trkpt lat="43.10862" lon="3.07111">
        <ele>2</ele>
        <time>2024-05-10T12:06:11Z</time>
      </trkpt>
      <trkpt lat="43.10868" lon="3.07092">
        <ele>1.2</ele>
        <time>2024-05-10T12:06:12Z</time>
      </trkpt>
      <trkpt lat="43.10875" lon="3.0707">
        <ele>1</ele>
        <time>2024-05-10T12:06:13Z</time>
      </trkpt>
      <trkpt lat="43.10883" lon="3.07045">
        <ele>1</ele>
        <time>2024-05-10T12:06:14Z</time>
      </trkpt>
      <trkpt lat="43.10891" lon="3.07018">
        <ele>1</ele>
        <time>2024-05-10T12:06:15Z</time>
      </trkpt>
      <trkpt lat="43.109" lon="3.06992">
        <ele>1</ele>
        <time>2024-05-10T12:06:16Z</time>
      </trkpt>
      <trkpt lat="43.10908" lon="3.06967">
        <ele>1</ele>
        <time>2024-05-10T12:06:17Z</time>
      </trkpt>
      <trkpt lat="43.10917" lon="3.06943">
        <ele>1</ele>
        <time>2024-05-10T12:06:18Z</time>
      </trkpt>
      <trkpt lat="43.10925" lon="3.0692">
        <ele>1</ele>
        <time>2024-05-10T12:06:19Z</time>
      </trkpt>
      <trkpt lat="43.10932" lon="3.06899">
        <ele>1</ele>
        <time>2024-05-10T12:06:20Z</time>
      </trkpt>
      <trkpt lat="43.10938" lon="3.06879">
        <ele>1</ele>
        <time>2024-05-10T12:06:21Z</time>
      </trkpt>
      <trkpt lat="43.10943" lon="3.06859">
        <ele>1</ele>
        <time>2024-05-10T12:06:22Z</time>
      </trkpt>
      <trkpt lat="43.10946" lon="3.06836">
        <ele>1</ele>
        <time>2024-05-10T12:06:23Z</time>
      </trkpt>
      <trkpt lat="43.1095" lon="3.06811">
        <ele>1</ele>
        <time>2024-05-10T12:06:24Z</time>
      </trkpt>
      <trkpt lat="43.10953" lon="3.06785">
        <ele>1</ele>
        <time>2024-05-10T12:06:25Z</time>
      </trkpt>
      <trkpt lat="43.10955" lon="3.0676">
        <ele>1</ele>
        <time>2024-05-10T12:06:26Z</time>
      </trkpt>
      <trkpt lat="43.10957" lon="3.06737">
        <ele>1</ele>
        <time>2024-05-10T12:06:27Z</time>
      </trkpt>
      <trkpt lat="43.10959" lon="3.06716">
        <ele>1</ele>
        <time>2024-05-10T12:06:28Z</time>
      </trkpt>
      <trkpt lat="43.10961" lon="3.06697">
        <ele>1</ele>
        <time>2024-05-10T12:06:29Z</time>
      </trkpt>
      <trkpt lat="43.10963" lon="3.06678">
        <ele>1</ele>
        <time>2024-05-10T12:06:30Z</time>
      </trkpt>
      <trkpt lat="43.10964" lon="3.06661">
        <ele>1</ele>
        <time>2024-05-10T12:06:31Z</time>
      </trkpt>
      <trkpt lat="43.10966" lon="3.06644">
        <ele>1</ele>
        <time>2024-05-10T12:06:32Z</time>
      </trkpt>
      <trkpt lat="43.10967" lon="3.06627">
        <ele>1</ele>
        <time>2024-05-10T12:06:33Z</time>
      </trkpt>
      <trkpt lat="43.10968" lon="3.06611">
        <ele>1</ele>
        <time>2024-05-10T12:06:34Z</time>
      </trkpt>
      <trkpt lat="43.10969" lon="3.06593">
        <ele>1</ele>
        <time>2024-05-10T12:06:35Z</time>
      </trkpt>
      <trkpt lat="43.10971" lon="3.06574">
        <ele>1</ele>
        <time>2024-05-10T12:06:36Z</time>
      </trkpt>
      <trkpt lat="43.10973" lon="3.06556">
        <ele>1</ele>
        <time>2024-05-10T12:06:37Z</time>
      </trkpt>
      <trkpt lat="43.10974" lon="3.06536">
        <ele>1</ele>
        <time>2024-05-10T12:06:38Z</time>
      </trkpt>
      <trkpt lat="43.10976" lon="3.06516">
        <ele>1</ele>
        <time>2024-05-10T12:06:39Z</time>
      </trkpt>
      <trkpt lat="43.10977" lon="3.06493">
        <ele>1</ele>
        <time>2024-05-10T12:06:40Z</time>
      </trkpt>
      <trkpt lat="43.10979" lon="3.0647">
        <ele>1</ele>
        <time>2024-05-10T12:06:41Z</time>
      </trkpt>
      <trkpt lat="43.10981" lon="3.06445">
        <ele>1</ele>
        <time>2024-05-10T12:06:42Z</time>
      </trkpt>
      <trkpt lat="43.10983" lon="3.06421">
        <ele>1</ele>
        <time>2024-05-10T12:06:43Z</time>
      </trkpt>
      <trkpt lat="43.10986" lon="3.06398">
        <ele>1</ele>
        <time>2024-05-10T12:06:44Z</time>
      </trkpt>
      <trkpt lat="43.10988" lon="3.06375">
        <ele>1</ele>
        <time>2024-05-10T12:06:45Z</time>
      </trkpt>
      <trkpt lat="43.1099" lon="3.06353">
        <ele>1</ele>
        <time>2024-05-10T12:06:46Z</time>
      </trkpt>
      <trkpt lat="43.10992" lon="3.06332">
        <ele>1</ele>
        <time>2024-05-10T12:06:47Z</time>
      </trkpt>
      <trkpt lat="43.10994" lon="3.0631">
        <ele>1</ele>
        <time>2024-05-10T12:06:48Z</time>
      </trkpt>
      <trkpt lat="43.10996" lon="3.0629">
        <ele>1</ele>
        <time>2024-05-10T12:06:49Z</time>
      </trkpt>
      <trkpt lat="43.10997" lon="3.06269">
        <ele>1</ele>
        <time>2024-05-10T12:06:50Z</time>
      </trkpt>
      <trkpt lat="43.10999" lon="3.06248">
        <ele>1</ele>
        <time>2024-05-10T12:06:51Z</time>
      </trkpt>
      <trkpt lat="43.11001" lon="3.06229">
        <ele>1</ele>
        <time>2024-05-10T12:06:52Z</time>
      </trkpt>
      <trkpt lat="43.11002" lon="3.06209">
        <ele>1</ele>
        <time>2024-05-10T12:06:53Z</time>
      </trkpt>
      <trkpt lat="43.11004" lon="3.06191">
        <ele>1</ele>
        <time>2024-05-10T12:06:54Z</time>
      </trkpt>
      <trkpt lat="43.11005" lon="3.06173">
        <ele>1</ele>
        <time>2024-05-10T12:06:55Z</time>
      </trkpt>
      <trkpt lat="43.11007" lon="3.06156">
        <ele>1</ele>
        <time>2024-05-10T12:06:56Z</time>
      </trkpt>
      <trkpt lat="43.11009" lon="3.06139">
        <ele>1</ele>
        <time>2024-05-10T12:06:57Z</time>
      </trkpt>
      <trkpt lat="43.1101" lon="3.06124">
        <time>2024-05-10T12:06:58Z</time>
      </trkpt>
      <trkpt lat="43.11012" lon="3.06107">
        <time>2024-05-10T12:06:59Z</time>
      </trkpt>
      <trkpt lat="43.11013" lon="3.06091">
        <time>2024-05-10T12:07:00Z</time>
      </trkpt>
      <trkpt lat="43.11015" lon="3.06076">
        <time>2024-05-10T12:07:01Z</time>
      </trkpt>
      <trkpt lat="43.11016" lon="3.0606">
        <time>2024-05-10T12:07:02Z</time>
      </trkpt>
      <trkpt lat="43.11017" lon="3.06044">
        <time>2024-05-10T12:07:03Z</time>
      </trkpt>
      <trkpt lat="43.11019" lon="3.06027">
        <time>2024-05-10T12:07:04Z</time>
      </trkpt>
      <trkpt lat="43.1102" lon="3.06009">
        <time>2024-05-10T12:07:05Z</time>
      </trkpt>
      <trkpt lat="43.11021" lon="3.05991">
        <time>2024-05-10T12:07:06Z</time>
      </trkpt>
      <trkpt lat="43.11023" lon="3.05972">
        <time>2024-05-10T12:07:07Z</time>
      </trkpt>
      <trkpt lat="43.11025" lon="3.05953">
        <time>2024-05-10T12:07:08Z</time>
      </trkpt>
      <trkpt lat="43.11026" lon="3.05933">
        <ele>1</ele>
        <time>2024-05-10T12:07:09Z</time>
      </trkpt>
      <trkpt lat="43.11028" lon="3.05914">
        <ele>1</ele>
        <time>2024-05-10T12:07:10Z</time>
      </trkpt>
      <trkpt lat="43.11029" lon="3.05896">
        <ele>1</ele>
        <time>2024-05-10T12:07:11Z</time>
      </trkpt>
      <trkpt lat="43.11031" lon="3.05879">
        <time>2024-05-10T12:07:12Z</time>
      </trkpt>
      <trkpt lat="43.11032" lon="3.05862">
        <time>2024-05-10T12:07:13Z</time>
      </trkpt>
      <trkpt lat="43.11034" lon="3.05845">
        <ele>1</ele>
        <time>2024-05-10T12:07:14Z</time>
      </trkpt>
      <trkpt lat="43.11035" lon="3.05828">
        <ele>1</ele>
        <time>2024-05-10T12:07:15Z</time>
      </trkpt>
      <trkpt lat="43.11037" lon="3.0581">
        <ele>1</ele>
        <time>2024-05-10T12:07:16Z</time>
      </trkpt>
      <trkpt lat="43.11039" lon="3.05792">
        <ele>1</ele>
        <time>2024-05-10T12:07:17Z</time>
      </trkpt>
      <trkpt lat="43.1104" lon="3.05773">
        <ele>1</ele>
        <time>2024-05-10T12:07:18Z</time>
      </trkpt>
      <trkpt lat="43.11041" lon="3.05756">
        <ele>1</ele>
        <time>2024-05-10T12:07:19Z</time>
      </trkpt>
      <trkpt lat="43.11042" lon="3.05741">
        <ele>1</ele>
        <time>2024-05-10T12:07:20Z</time>
      </trkpt>
      <trkpt lat="43.11044" lon="3.05727">
        <ele>1</ele>
        <time>2024-05-10T12:07:21Z</time>
      </trkpt>
      <trkpt lat="43.11045" lon="3.05715">
        <ele>1</ele>
        <time>2024-05-10T12:07:22Z</time>
      </trkpt>
      <trkpt lat="43.11045" lon="3.05705">
        <ele>1</ele>
        <time>2024-05-10T12:07:23Z</time>
      </trkpt>
      <trkpt lat="43.11046" lon="3.05693">
        <ele>1.1</ele>
        <time>2024-05-10T12:07:24Z</time>
      </trkpt>
      <trkpt lat="43.11047" lon="3.05681">
        <ele>1.5</ele>
        <time>2024-05-10T12:07:25Z</time>
      </trkpt>
      <trkpt lat="43.11048" lon="3.05668">
        <ele>2</ele>
        <time>2024-05-10T12:07:26Z</time>
      </trkpt>
      <trkpt lat="43.1105" lon="3.05654">
        <ele>1.5</ele>
        <time>2024-05-10T12:07:27Z</time>
      </trkpt>
      <trkpt lat="43.11051" lon="3.0564">
        <ele>1</ele>
        <time>2024-05-10T12:07:28Z</time>
      </trkpt>
      <trkpt lat="43.11052" lon="3.05626">
        <ele>1</ele>
        <time>2024-05-10T12:07:29Z</time>
      </trkpt>
      <trkpt lat="43.11053" lon="3.05612">
        <ele>1</ele>
        <time>2024-05-10T12:07:30Z</time>
      </trkpt>
      <trkpt lat="43.11054" lon="3.05598">
        <ele>1</ele>
        <time>2024-05-10T12:07:31Z</time>
      </trkpt>
      <trkpt lat="43.11055" lon="3.05585">
        <ele>1</ele>
        <time>2024-05-10T12:07:32Z</time>
      </trkpt>
      <trkpt lat="43.11056" lon="3.05572">
        <ele>1</ele>
        <time>2024-05-10T12:07:33Z</time>
      </trkpt>
      <trkpt lat="43.11057" lon="3.05559">
        <ele>1</ele>
        <time>2024-05-10T12:07:34Z</time>
      </trkpt>
      <trkpt lat="43.11058" lon="3.05545">
        <ele>1</ele>
        <time>2024-05-10T12:07:35Z</time>
      </trkpt>
      <trkpt lat="43.11059" lon="3.05531">
        <ele>1</ele>
        <time>2024-05-10T12:07:36Z</time>
      </trkpt>
      <trkpt lat="43.11061" lon="3.05516">
        <ele>1</ele>
        <time>2024-05-10T12:07:37Z</time>
      </trkpt>
      <trkpt lat="43.11062" lon="3.055">
        <ele>1</ele>
        <time>2024-05-10T12:07:38Z</time>
      </trkpt>
      <trkpt lat="43.11063" lon="3.05484">
        <ele>1</ele>
        <time>2024-05-10T12:07:39Z</time>
      </trkpt>
      <trkpt lat="43.11065" lon="3.0547">
        <time>2024-05-10T12:07:40Z</time>
      </trkpt>
      <trkpt lat="43.11066" lon="3.05455">
        <time>2024-05-10T12:07:41Z</time>
      </trkpt>
      <trkpt lat="43.11069" lon="3.05439">
        <time>2024-05-10T12:07:42Z</time>
      </trkpt>
      <trkpt lat="43.11072" lon="3.05422">
        <time>2024-05-10T12:07:43Z</time>
      </trkpt>
      <trkpt lat="43.11076" lon="3.05406">
        <ele>1</ele>
        <time>2024-05-10T12:07:44Z</time>
      </trkpt>
      <trkpt lat="43.1108" lon="3.0539">
        <ele>1</ele>
        <time>2024-05-10T12:07:45Z</time>
      </trkpt>
      <trkpt lat="43.11084" lon="3.05374">
        <ele>1</ele>
        <time>2024-05-10T12:07:46Z</time>
      </trkpt>
      <trkpt lat="43.11089" lon="3.05358">
        <ele>1</ele>
        <time>2024-05-10T12:07:47Z</time>
      </trkpt>
      <trkpt lat="43.11093" lon="3.05341">
        <ele>1</ele>
        <time>2024-05-10T12:07:48Z</time>
      </trkpt>
      <trkpt lat="43.11098" lon="3.05324">
        <time>2024-05-10T12:07:49Z</time>
      </trkpt>
      <trkpt lat="43.11102" lon="3.05307">
        <time>2024-05-10T12:07:50Z</time>
      </trkpt>
      <trkpt lat="43.11107" lon="3.05289">
        <time>2024-05-10T12:07:51Z</time>
      </trkpt>
      <trkpt lat="43.11112" lon="3.0527">
        <ele>1</ele>
        <time>2024-05-10T12:07:52Z</time>
      </trkpt>
      <trkpt lat="43.11117" lon="3.05249">
        <ele>1</ele>
        <time>2024-05-10T12:07:53Z</time>
      </trkpt>
      <trkpt lat="43.11123" lon="3.05229">
        <ele>1</ele>
        <time>2024-05-10T12:07:54Z</time>
      </trkpt>
      <trkpt lat="43.11128" lon="3.0521">
        <time>2024-05-10T12:07:55Z</time>
      </trkpt>
      <trkpt lat="43.11134" lon="3.05189">
        <ele>1</ele>
        <time>2024-05-10T12:07:56Z</time>
      </trkpt>
      <trkpt lat="43.1114" lon="3.05168">
        <ele>1</ele>
        <time>2024-05-10T12:07:57Z</time>
      </trkpt>
      <trkpt lat="43.11146" lon="3.05146">
        <ele>1</ele>
        <time>2024-05-10T12:07:58Z</time>
      </trkpt>
      <trkpt lat="43.11151" lon="3.05123">
        <time>2024-05-10T12:07:59Z</time>
      </trkpt>
      <trkpt lat="43.11158" lon="3.05099">
        <time>2024-05-10T12:08:00Z</time>
      </trkpt>
      <trkpt lat="43.11164" lon="3.05074">
        <ele>1</ele>
        <time>2024-05-10T12:08:01Z</time>
      </trkpt>
      <trkpt lat="43.11171" lon="3.0505">
        <ele>1</ele>
        <time>2024-05-10T12:08:02Z</time>
      </trkpt>
      <trkpt lat="43.11178" lon="3.05025">
        <time>2024-05-10T12:08:03Z</time>
      </trkpt>
      <trkpt lat="43.11184" lon="3.05">
        <time>2024-05-10T12:08:04Z</time>
      </trkpt>
      <trkpt lat="43.11191" lon="3.04974">
        <time>2024-05-10T12:08:05Z</time>
      </trkpt>
      <trkpt lat="43.11198" lon="3.04948">
        <time>2024-05-10T12:08:06Z</time>
      </trkpt>
      <trkpt lat="43.11205" lon="3.04923">
        <time>2024-05-10T12:08:07Z</time>
      </trkpt>
      <trkpt lat="43.11211" lon="3.04899">
        <ele>1</ele>
        <time>2024-05-10T12:08:08Z</time>
      </trkpt>
      <trkpt lat="43.11217" lon="3.04875">
        <ele>1</ele>
        <time>2024-05-10T12:08:09Z</time>
      </trkpt>
      <trkpt lat="43.11223" lon="3.04852">
        <ele>1</ele>
        <time>2024-05-10T12:08:10Z</time>
      </trkpt>
      <trkpt lat="43.11229" lon="3.0483">
        <ele>1</ele>
        <time>2024-05-10T12:08:11Z</time>
      </trkpt>
      <trkpt lat="43.11235" lon="3.04809">
        <ele>1</ele>
        <time>2024-05-10T12:08:12Z</time>
      </trkpt>
      <trkpt lat="43.1124" lon="3.0479">
        <ele>1</ele>
        <time>2024-05-10T12:08:13Z</time>
      </trkpt>
      <trkpt lat="43.11245" lon="3.04771">
        <ele>1</ele>
        <time>2024-05-10T12:08:14Z</time>
      </trkpt>
      <trkpt lat="43.1125" lon="3.04753">
        <ele>1</ele>
        <time>2024-05-10T12:08:15Z</time>
      </trkpt>
      <trkpt lat="43.11255" lon="3.04735">
        <ele>1</ele>
        <time>2024-05-10T12:08:16Z</time>
      </trkpt>
      <trkpt lat="43.11259" lon="3.04718">
        <ele>1</ele>
        <time>2024-05-10T12:08:17Z</time>
      </trkpt>
      <trkpt lat="43.11264" lon="3.047">
        <ele>1</ele>
        <time>2024-05-10T12:08:18Z</time>
      </trkpt>
      <trkpt lat="43.11269" lon="3.04682">
        <ele>1</ele>
        <time>2024-05-10T12:08:19Z</time>
      </trkpt>
      <trkpt lat="43.11273" lon="3.04665">
        <ele>1</ele>
        <time>2024-05-10T12:08:20Z</time>
      </trkpt>
      <trkpt lat="43.11278" lon="3.04647">
        <ele>1.7</ele>
        <time>2024-05-10T12:08:21Z</time>
      </trkpt>
      <trkpt lat="43.11283" lon="3.04629">
        <ele>1.6</ele>
        <time>2024-05-10T12:08:22Z</time>
      </trkpt>
      <trkpt lat="43.11288" lon="3.0461">
        <ele>1</ele>
        <time>2024-05-10T12:08:23Z</time>
      </trkpt>
      <trkpt lat="43.11295" lon="3.04591">
        <ele>1</ele>
        <time>2024-05-10T12:08:24Z</time>
      </trkpt>
      <trkpt lat="43.11305" lon="3.04573">
        <ele>1.8</ele>
        <time>2024-05-10T12:08:25Z</time>
      </trkpt>
      <trkpt lat="43.11315" lon="3.04554">
        <ele>2.4</ele>
        <time>2024-05-10T12:08:26Z</time>
      </trkpt>
      <trkpt lat="43.11323" lon="3.04535">
        <ele>2</ele>
        <time>2024-05-10T12:08:27Z</time>
      </trkpt>
      <trkpt lat="43.1133" lon="3.04515">
        <ele>1.7</ele>
        <time>2024-05-10T12:08:28Z</time>
      </trkpt>
      <trkpt lat="43.11336" lon="3.04495">
        <ele>1.9</ele>
        <time>2024-05-10T12:08:29Z</time>
      </trkpt>
      <trkpt lat="43.11341" lon="3.04476">
        <ele>1.7</ele>
        <time>2024-05-10T12:08:30Z</time>
      </trkpt>
      <trkpt lat="43.11349" lon="3.04456">
        <ele>3</ele>
        <time>2024-05-10T12:08:31Z</time>
      </trkpt>
      <trkpt lat="43.11357" lon="3.04435">
        <ele>2.3</ele>
        <time>2024-05-10T12:08:32Z</time>
      </trkpt>
      <trkpt lat="43.11365" lon="3.04414">
        <ele>1.8</ele>
        <time>2024-05-10T12:08:33Z</time>
      </trkpt>
      <trkpt lat="43.11373" lon="3.04392">
        <ele>1.1</ele>
        <time>2024-05-10T12:08:34Z</time>
      </trkpt>
      <trkpt lat="43.11381" lon="3.04371">
        <ele>1</ele>
        <time>2024-05-10T12:08:35Z</time>
      </trkpt>
      <trkpt lat="43.11388" lon="3.04351">
        <ele>1.4</ele>
        <time>2024-05-10T12:08:36Z</time>
      </trkpt>
      <trkpt lat="43.11396" lon="3.04332">
        <ele>1.7</ele>
        <time>2024-05-10T12:08:37Z</time>
      </trkpt>
      <trkpt lat="43.11403" lon="3.04313">
        <ele>1.1</ele>
        <time>2024-05-10T12:08:38Z</time>
      </trkpt>
      <trkpt lat="43.1141" lon="3.04294">
        <ele>1</ele>
        <time>2024-05-10T12:08:39Z</time>
      </trkpt>
      <trkpt lat="43.11417" lon="3.04276">
        <ele>1</ele>
        <time>2024-05-10T12:08:40Z</time>
      </trkpt>
      <trkpt lat="43.11424" lon="3.04258">
        <ele>1</ele>
        <time>2024-05-10T12:08:41Z</time>
      </trkpt>
      <trkpt lat="43.11431" lon="3.04242">
        <ele>1</ele>
        <time>2024-05-10T12:08:42Z</time>
      </trkpt>
      <trkpt lat="43.11436" lon="3.04228">
        <ele>1</ele>
        <time>2024-05-10T12:08:43Z</time>
      </trkpt>
      <trkpt lat="43.1144" lon="3.04217">
        <ele>1.2</ele>
        <time>2024-05-10T12:08:44Z</time>
      </trkpt>
      <trkpt lat="43.11445" lon="3.04205">
        <ele>1.6</ele>
        <time>2024-05-10T12:08:45Z</time>
      </trkpt>
      <trkpt lat="43.11449" lon="3.04194">
        <ele>1.8</ele>
        <time>2024-05-10T12:08:46Z</time>
      </trkpt>
      <trkpt lat="43.11453" lon="3.04184">
        <ele>1.4</ele>
        <time>2024-05-10T12:08:47Z</time>
      </trkpt>
      <trkpt lat="43.11457" lon="3.04174">
        <ele>1.1</ele>
        <time>2024-05-10T12:08:48Z</time>
      </trkpt>
      <trkpt lat="43.11461" lon="3.04164">
        <ele>1.1</ele>
        <time>2024-05-10T12:08:49Z</time>
      </trkpt>
      <trkpt lat="43.11464" lon="3.04155">
        <ele>1.3</ele>
        <time>2024-05-10T12:08:50Z</time>
      </trkpt>
      <trkpt lat="43.11467" lon="3.04146">
        <ele>1.6</ele>
        <time>2024-05-10T12:08:51Z</time>
      </trkpt>
      <trkpt lat="43.11471" lon="3.04137">
        <ele>2</ele>
        <time>2024-05-10T12:08:52Z</time>
      </trkpt>
      <trkpt lat="43.11475" lon="3.04127">
        <ele>1.9</ele>
        <time>2024-05-10T12:08:53Z</time>
      </trkpt>
      <trkpt lat="43.11479" lon="3.04117">
        <ele>1.8</ele>
        <time>2024-05-10T12:08:54Z</time>
      </trkpt>
      <trkpt lat="43.11482" lon="3.04107">
        <ele>1.6</ele>
        <time>2024-05-10T12:08:55Z</time>
      </trkpt>
      <trkpt lat="43.11487" lon="3.04096">
        <ele>1.2</ele>
        <time>2024-05-10T12:08:56Z</time>
      </trkpt>
      <trkpt lat="43.11491" lon="3.04085">
        <ele>1</ele>
        <time>2024-05-10T12:08:57Z</time>
      </trkpt>
      <trkpt lat="43.11496" lon="3.04073">
        <ele>1.3</ele>
        <time>2024-05-10T12:08:58Z</time>
      </trkpt>
      <trkpt lat="43.11501" lon="3.04062">
        <ele>1.8</ele>
        <time>2024-05-10T12:08:59Z</time>
      </trkpt>
      <trkpt lat="43.11506" lon="3.04052">
        <ele>1.9</ele>
        <time>2024-05-10T12:09:00Z</time>
      </trkpt>
      <trkpt lat="43.11512" lon="3.04042">
        <ele>1.7</ele>
        <time>2024-05-10T12:09:01Z</time>
      </trkpt>
      <trkpt lat="43.11518" lon="3.04033">
        <ele>1.7</ele>
        <time>2024-05-10T12:09:02Z</time>
      </trkpt>
      <trkpt lat="43.11524" lon="3.04024">
        <ele>1.8</ele>
        <time>2024-05-10T12:09:03Z</time>
      </trkpt>
      <trkpt lat="43.11531" lon="3.04016">
        <ele>1.6</ele>
        <time>2024-05-10T12:09:04Z</time>
      </trkpt>
      <trkpt lat="43.11539" lon="3.04007">
        <ele>1.6</ele>
        <time>2024-05-10T12:09:05Z</time>
      </trkpt>
      <trkpt lat="43.11547" lon="3.03996">
        <ele>1.7</ele>
        <time>2024-05-10T12:09:06Z</time>
      </trkpt>
      <trkpt lat="43.11556" lon="3.03986">
        <ele>2</ele>
        <time>2024-05-10T12:09:07Z</time>
      </trkpt>
      <trkpt lat="43.11565" lon="3.03976">
        <ele>1.7</ele>
        <time>2024-05-10T12:09:08Z</time>
      </trkpt>
      <trkpt lat="43.11573" lon="3.03966">
        <ele>1.4</ele>
        <time>2024-05-10T12:09:09Z</time>
      </trkpt>
      <trkpt lat="43.1158" lon="3.03956">
        <ele>1.6</ele>
        <time>2024-05-10T12:09:10Z</time>
      </trkpt>
      <trkpt lat="43.11588" lon="3.03948">
        <ele>1.7</ele>
        <time>2024-05-10T12:09:11Z</time>
      </trkpt>
      <trkpt lat="43.11596" lon="3.03938">
        <ele>1.5</ele>
        <time>2024-05-10T12:09:12Z</time>
      </trkpt>
      <trkpt lat="43.11604" lon="3.03928">
        <ele>1.5</ele>
        <time>2024-05-10T12:09:13Z</time>
      </trkpt>
      <trkpt lat="43.11613" lon="3.03918">
        <ele>1.9</ele>
        <time>2024-05-10T12:09:14Z</time>
      </trkpt>
      <trkpt lat="43.11622" lon="3.03906">
        <ele>1.5</ele>
        <time>2024-05-10T12:09:15Z</time>
      </trkpt>
      <trkpt lat="43.11632" lon="3.03895">
        <ele>1.6</ele>
        <time>2024-05-10T12:09:16Z</time>
      </trkpt>
      <trkpt lat="43.11642" lon="3.03882">
        <ele>1.8</ele>
        <time>2024-05-10T12:09:17Z</time>
      </trkpt>
      <trkpt lat="43.11653" lon="3.03869">
        <ele>1.6</ele>
        <time>2024-05-10T12:09:18Z</time>
      </trkpt>
      <trkpt lat="43.11664" lon="3.03856">
        <ele>1.9</ele>
        <time>2024-05-10T12:09:19Z</time>
      </trkpt>
      <trkpt lat="43.11675" lon="3.03842">
        <ele>2</ele>
        <time>2024-05-10T12:09:20Z</time>
      </trkpt>
      <trkpt lat="43.11687" lon="3.03827">
        <ele>1.9</ele>
        <time>2024-05-10T12:09:21Z</time>
      </trkpt>
      <trkpt lat="43.11698" lon="3.03814">
        <ele>1.9</ele>
        <time>2024-05-10T12:09:22Z</time>
      </trkpt>
      <trkpt lat="43.11709" lon="3.038">
        <ele>1.5</ele>
        <time>2024-05-10T12:09:23Z</time>
      </trkpt>
      <trkpt lat="43.1172" lon="3.03787">
        <ele>1.6</ele>
        <time>2024-05-10T12:09:24Z</time>
      </trkpt>
      <trkpt lat="43.11732" lon="3.03773">
        <ele>1.6</ele>
        <time>2024-05-10T12:09:25Z</time>
      </trkpt>
      <trkpt lat="43.11743" lon="3.03759">
        <ele>1.6</ele>
        <time>2024-05-10T12:09:26Z</time>
      </trkpt>
      <trkpt lat="43.11755" lon="3.03745">
        <ele>1.7</ele>
        <time>2024-05-10T12:09:27Z</time>
      </trkpt>
      <trkpt lat="43.11767" lon="3.0373">
        <ele>1.1</ele>
        <time>2024-05-10T12:09:28Z</time>
      </trkpt>
      <trkpt lat="43.11778" lon="3.03716">
        <ele>1</ele>
        <time>2024-05-10T12:09:29Z</time>
      </trkpt>
      <trkpt lat="43.11789" lon="3.03703">
        <ele>1</ele>
        <time>2024-05-10T12:09:30Z</time>
      </trkpt>
      <trkpt lat="43.118" lon="3.0369">
        <ele>1.1</ele>
        <time>2024-05-10T12:09:31Z</time>
      </trkpt>
      <trkpt lat="43.1181" lon="3.03678">
        <ele>1.5</ele>
        <time>2024-05-10T12:09:32Z</time>
      </trkpt>
      <trkpt lat="43.1182" lon="3.03666">
        <ele>1.5</ele>
        <time>2024-05-10T12:09:33Z</time>
      </trkpt>
      <trkpt lat="43.11829" lon="3.03655">
        <ele>1.4</ele>
        <time>2024-05-10T12:09:34Z</time>
      </trkpt>
      <trkpt lat="43.11838" lon="3.03644">
        <ele>1.8</ele>
        <time>2024-05-10T12:09:35Z</time>
      </trkpt>
      <trkpt lat="43.11846" lon="3.03634">
        <ele>1.9</ele>
        <time>2024-05-10T12:09:36Z</time>
      </trkpt>
      <trkpt lat="43.11855" lon="3.03623">
        <ele>1.9</ele>
        <time>2024-05-10T12:09:37Z</time>
      </trkpt>
      <trkpt lat="43.11864" lon="3.03612">
        <ele>2</ele>
        <time>2024-05-10T12:09:38Z</time>
      </trkpt>
      <trkpt lat="43.11873" lon="3.03601">
        <ele>1.8</ele>
        <time>2024-05-10T12:09:39Z</time>
      </trkpt>
      <trkpt lat="43.11882" lon="3.03589">
        <ele>1.8</ele>
        <time>2024-05-10T12:09:40Z</time>
      </trkpt>
      <trkpt lat="43.11891" lon="3.03579">
        <ele>1.9</ele>
        <time>2024-05-10T12:09:41Z</time>
      </trkpt>
      <trkpt lat="43.11899" lon="3.03568">
        <ele>1.6</ele>
        <time>2024-05-10T12:09:42Z</time>
      </trkpt>
      <trkpt lat="43.11908" lon="3.03558">
        <ele>1.7</ele>
        <time>2024-05-10T12:09:43Z</time>
      </trkpt>
      <trkpt lat="43.11917" lon="3.03547">
        <ele>2</ele>
        <time>2024-05-10T12:09:44Z</time>
      </trkpt>
      <trkpt lat="43.11926" lon="3.03535">
        <ele>2</ele>
        <time>2024-05-10T12:09:45Z</time>
      </trkpt>
      <trkpt lat="43.11935" lon="3.03523">
        <ele>1.9</ele>
        <time>2024-05-10T12:09:46Z</time>
      </trkpt>
      <trkpt lat="43.11945" lon="3.03512">
        <ele>2</ele>
        <time>2024-05-10T12:09:47Z</time>
      </trkpt>
      <trkpt lat="43.11956" lon="3.03501">
        <ele>2</ele>
        <time>2024-05-10T12:09:48Z</time>
      </trkpt>
      <trkpt lat="43.11967" lon="3.03489">
        <ele>1.9</ele>
        <time>2024-05-10T12:09:49Z</time>
      </trkpt>
      <trkpt lat="43.11977" lon="3.03477">
        <ele>2</ele>
        <time>2024-05-10T12:09:50Z</time>
      </trkpt>
      <trkpt lat="43.11987" lon="3.03466">
        <ele>1.9</ele>
        <time>2024-05-10T12:09:51Z</time>
      </trkpt>
      <trkpt lat="43.11996" lon="3.03454">
        <ele>1.9</ele>
        <time>2024-05-10T12:09:52Z</time>
      </trkpt>
      <trkpt lat="43.12005" lon="3.03443">
        <ele>1.8</ele>
        <time>2024-05-10T12:09:53Z</time>
      </trkpt>
      <trkpt lat="43.12014" lon="3.03432">
        <ele>1.7</ele>
        <time>2024-05-10T12:09:54Z</time>
      </trkpt>
      <trkpt lat="43.12023" lon="3.0342">
        <ele>1.9</ele>
        <time>2024-05-10T12:09:55Z</time>
      </trkpt>
      <trkpt lat="43.12032" lon="3.03408">
        <ele>1.9</ele>
        <time>2024-05-10T12:09:56Z</time>
      </trkpt>
      <trkpt lat="43.12042" lon="3.03397">
        <ele>1.9</ele>
        <time>2024-05-10T12:09:57Z</time>
      </trkpt>
      <trkpt lat="43.12052" lon="3.03385">
        <ele>2</ele>
        <time>2024-05-10T12:09:58Z</time>
      </trkpt>
      <trkpt lat="43.12061" lon="3.03373">
        <ele>1.9</ele>
        <time>2024-05-10T12:09:59Z</time>
      </trkpt>
      <trkpt lat="43.12071" lon="3.03362">
        <ele>2</ele>
        <time>2024-05-10T12:10:00Z</time>
      </trkpt>
      <trkpt lat="43.1208" lon="3.03349">
        <ele>2</ele>
        <time>2024-05-10T12:10:01Z</time>
      </trkpt>
      <trkpt lat="43.1209" lon="3.03338">
        <ele>1.8</ele>
        <time>2024-05-10T12:10:02Z</time>
      </trkpt>
      <trkpt lat="43.12099" lon="3.03327">
        <ele>1.6</ele>
        <time>2024-05-10T12:10:03Z</time>
      </trkpt>
      <trkpt lat="43.12108" lon="3.03316">
        <ele>1.7</ele>
        <time>2024-05-10T12:10:04Z</time>
      </trkpt>
      <trkpt lat="43.12116" lon="3.03305">
        <ele>1.8</ele>
        <time>2024-05-10T12:10:05Z</time>
      </trkpt>
      <trkpt lat="43.12125" lon="3.03295">
        <ele>1.7</ele>
        <time>2024-05-10T12:10:06Z</time>
      </trkpt>
      <trkpt lat="43.12133" lon="3.03284">
        <ele>1.8</ele>
        <time>2024-05-10T12:10:07Z</time>
      </trkpt>
      <trkpt lat="43.12142" lon="3.03274">
        <ele>1.9</ele>
        <time>2024-05-10T12:10:08Z</time>
      </trkpt>
      <trkpt lat="43.1215" lon="3.03264">
        <ele>1.8</ele>
        <time>2024-05-10T12:10:09Z</time>
      </trkpt>
      <trkpt lat="43.12158" lon="3.03255">
        <ele>1.9</ele>
        <time>2024-05-10T12:10:10Z</time>
      </trkpt>
      <trkpt lat="43.12166" lon="3.03246">
        <ele>2</ele>
        <time>2024-05-10T12:10:11Z</time>
      </trkpt>
      <trkpt lat="43.12172" lon="3.03237">
        <ele>2</ele>
        <time>2024-05-10T12:10:12Z</time>
      </trkpt>
      <trkpt lat="43.12177" lon="3.0323">
        <ele>2</ele>
        <time>2024-05-10T12:10:13Z</time>
      </trkpt>
      <trkpt lat="43.12181" lon="3.03223">
        <ele>2</ele>
        <time>2024-05-10T12:10:14Z</time>
      </trkpt>
      <trkpt lat="43.12183" lon="3.03216">
        <ele>2.1</ele>
        <time>2024-05-10T12:10:15Z</time>
      </trkpt>
      <trkpt lat="43.12184" lon="3.0321">
        <ele>2.3</ele>
        <time>2024-05-10T12:10:16Z</time>
      </trkpt>
      <trkpt lat="43.12184" lon="3.03204">
        <ele>2.4</ele>
        <time>2024-05-10T12:10:17Z</time>
      </trkpt>
      <trkpt lat="43.12185" lon="3.03198">
        <ele>2.6</ele>
        <time>2024-05-10T12:10:18Z</time>
      </trkpt>
      <trkpt lat="43.12185" lon="3.03192">
        <ele>2.6</ele>
        <time>2024-05-10T12:10:19Z</time>
      </trkpt>
      <trkpt lat="43.12185" lon="3.03186">
        <ele>2.5</ele>
        <time>2024-05-10T12:10:20Z</time>
      </trkpt>
      <trkpt lat="43.12185" lon="3.03181">
        <ele>2.3</ele>
        <time>2024-05-10T12:10:21Z</time>
      </trkpt>
      <trkpt lat="43.12186" lon="3.03177">
        <ele>2.3</ele>
        <time>2024-05-10T12:10:22Z</time>
      </trkpt>
      <trkpt lat="43.12186" lon="3.03173">
        <ele>2.2</ele>
        <time>2024-05-10T12:10:23Z</time>
      </trkpt>
      <trkpt lat="43.12186" lon="3.0317">
        <ele>2.1</ele>
        <time>2024-05-10T12:10:24Z</time>
      </trkpt>
      <trkpt lat="43.12187" lon="3.03167">
        <ele>2</ele>
        <time>2024-05-10T12:10:25Z</time>
      </trkpt>
      <trkpt lat="43.12187" lon="3.03163">
        <ele>2</ele>
        <time>2024-05-10T12:10:26Z</time>
      </trkpt>
      <trkpt lat="43.12187" lon="3.0316">
        <ele>2</ele>
        <time>2024-05-10T12:10:27Z</time>
      </trkpt>
      <trkpt lat="43.12187" lon="3.03156">
        <ele>2</ele>
        <time>2024-05-10T12:10:28Z</time>
      </trkpt>
      <trkpt lat="43.12187" lon="3.03152">
        <ele>2</ele>
        <time>2024-05-10T12:10:29Z</time>
      </trkpt>
      <trkpt lat="43.12188" lon="3.03146">
        <ele>2</ele>
        <time>2024-05-10T12:10:30Z</time>
      </trkpt>
      <trkpt lat="43.12188" lon="3.03141">
        <ele>2</ele>
        <time>2024-05-10T12:10:31Z</time>
      </trkpt>
      <trkpt lat="43.12188" lon="3.03136">
        <ele>2.2</ele>
        <time>2024-05-10T12:10:32Z</time>
      </trkpt>
      <trkpt lat="43.12188" lon="3.0313">
        <ele>2.5</ele>
        <time>2024-05-10T12:10:33Z</time>
      </trkpt>
      <trkpt lat="43.12188" lon="3.03124">
        <ele>2.8</ele>
        <time>2024-05-10T12:10:34Z</time>
      </trkpt>
      <trkpt lat="43.12188" lon="3.03118">
        <ele>3.2</ele>
        <time>2024-05-10T12:10:35Z</time>
      </trkpt>
      <trkpt lat="43.12188" lon="3.03112">
        <ele>3.5</ele>
        <time>2024-05-10T12:10:36Z</time>
      </trkpt>
      <trkpt lat="43.12188" lon="3.03106">
        <ele>3.6</ele>
        <time>2024-05-10T12:10:37Z</time>
      </trkpt>
      <trkpt lat="43.12188" lon="3.03101">
        <ele>3.7</ele>
        <time>2024-05-10T12:10:38Z</time>
      </trkpt>
      <trkpt lat="43.12188" lon="3.03097">
        <ele>3.8</ele>
        <time>2024-05-10T12:10:39Z</time>
      </trkpt>
      <trkpt lat="43.12189" lon="3.03093">
        <ele>3.9</ele>
        <time>2024-05-10T12:10:40Z</time>
      </trkpt>
      <trkpt lat="43.12189" lon="3.03088">
        <ele>3.9</ele>
        <time>2024-05-10T12:10:41Z</time>
      </trkpt>
      <trkpt lat="43.12189" lon="3.03084">
        <ele>4</ele>
        <time>2024-05-10T12:10:42Z</time>
      </trkpt>
      <trkpt lat="43.12189" lon="3.03081">
        <ele>3.8</ele>
        <time>2024-05-10T12:10:43Z</time>
      </trkpt>
      <trkpt lat="43.1219" lon="3.03079">
        <ele>3.7</ele>
        <time>2024-05-10T12:10:44Z</time>
      </trkpt>
      <trkpt lat="43.12191" lon="3.03076">
        <ele>3.5</ele>
        <time>2024-05-10T12:10:45Z</time>
      </trkpt>
      <trkpt lat="43.12192" lon="3.03075">
        <ele>3.4</ele>
        <time>2024-05-10T12:10:46Z</time>
      </trkpt>
      <trkpt lat="43.12192" lon="3.03074">
        <ele>3.4</ele>
        <time>2024-05-10T12:10:47Z</time>
      </trkpt>
      <trkpt lat="43.12192" lon="3.03075">
        <ele>3.4</ele>
        <time>2024-05-10T12:10:48Z</time>
      </trkpt>
      <trkpt lat="43.12193" lon="3.03076">
        <ele>3.5</ele>
        <time>2024-05-10T12:10:49Z</time>
      </trkpt>
      <trkpt lat="43.12193" lon="3.03076">
        <ele>3.5</ele>
        <time>2024-05-10T12:10:50Z</time>
      </trkpt>
      <trkpt lat="43.12193" lon="3.03076">
        <ele>3.5</ele>
        <time>2024-05-10T12:10:51Z</time>
      </trkpt>
      <trkpt lat="43.12193" lon="3.03076">
        <ele>3.5</ele>
        <time>2024-05-10T12:10:52Z</time>
      </trkpt>
      <trkpt lat="43.12193" lon="3.03076">
        <ele>3.5</ele>
        <time>2024-05-10T12:10:53Z</time>
      </trkpt>
      <trkpt lat="43.12193" lon="3.03076">
        <ele>3.5</ele>
        <time>2024-05-10T12:10:54Z</time>
      </trkpt>
      <trkpt lat="43.12193" lon="3.03076">
        <ele>3.5</ele>
        <time>2024-05-10T12:10:55Z</time>
      </trkpt>
      <trkpt lat="43.12193" lon="3.03076">
        <ele>3.5</ele>
        <time>2024-05-10T12:10:56Z</time>
      </trkpt>
      <trkpt lat="43.12194" lon="3.03076">
        <ele>3.5</ele>
        <time>2024-05-10T12:10:57Z</time>
      </trkpt>
      <trkpt lat="43.12194" lon="3.03076">
        <ele>3.5</ele>
        <time>2024-05-10T12:10:58Z</time>
      </trkpt>
      <trkpt lat="43.12194" lon="3.03076">
        <ele>3.5</ele>
        <time>2024-05-10T12:10:59Z</time>
      </trkpt>
      <trkpt lat="43.12194" lon="3.03075">
        <ele>3.4</ele>
        <time>2024-05-10T12:11:00Z</time>
      </trkpt>
      <trkpt lat="43.12194" lon="3.03075">
        <ele>3.4</ele>
        <time>2024-05-10T12:11:01Z</time>
      </trkpt>
      <trkpt lat="43.12194" lon="3.03075">
        <ele>3.4</ele>
        <time>2024-05-10T12:11:02Z</time>
      </trkpt>
      <trkpt lat="43.12194" lon="3.03075">
        <ele>3.4</ele>
        <time>2024-05-10T12:11:03Z</time>
      </trkpt>
      <trkpt lat="43.12196" lon="3.03074">
        <ele>3.3</ele>
        <time>2024-05-10T12:11:04Z</time>
      </trkpt>
      <trkpt lat="43.12199" lon="3.03074">
        <ele>3.2</ele>
        <time>2024-05-10T12:11:05Z</time>
      </trkpt>
      <trkpt lat="43.12207" lon="3.03077">
        <ele>3.2</ele>
        <time>2024-05-10T12:11:06Z</time>
      </trkpt>
      <trkpt lat="43.12214" lon="3.03078">
        <ele>3</ele>
        <time>2024-05-10T12:11:07Z</time>
      </trkpt>
      <trkpt lat="43.12221" lon="3.03079">
        <ele>2.9</ele>
        <time>2024-05-10T12:11:08Z</time>
      </trkpt>
      <trkpt lat="43.1223" lon="3.0308">
        <ele>2.7</ele>
        <time>2024-05-10T12:11:09Z</time>
      </trkpt>
      <trkpt lat="43.1224" lon="3.03081">
        <ele>2.4</ele>
        <time>2024-05-10T12:11:10Z</time>
      </trkpt>
      <trkpt lat="43.12249" lon="3.03081">
        <ele>2.1</ele>
        <time>2024-05-10T12:11:11Z</time>
      </trkpt>
      <trkpt lat="43.12259" lon="3.03082">
        <ele>2.4</ele>
        <time>2024-05-10T12:11:12Z</time>
      </trkpt>
      <trkpt lat="43.12269" lon="3.03082">
        <ele>2.7</ele>
        <time>2024-05-10T12:11:13Z</time>
      </trkpt>
      <trkpt lat="43.12279" lon="3.03083">
        <ele>3</ele>
        <time>2024-05-10T12:11:14Z</time>
      </trkpt>
      <trkpt lat="43.12291" lon="3.03084">
        <ele>3</ele>
        <time>2024-05-10T12:11:15Z</time>
      </trkpt>
      <trkpt lat="43.12304" lon="3.03086">
        <ele>2.8</ele>
        <time>2024-05-10T12:11:16Z</time>
      </trkpt>
      <trkpt lat="43.12317" lon="3.03088">
        <ele>2.7</ele>
        <time>2024-05-10T12:11:17Z</time>
      </trkpt>
      <trkpt lat="43.1233" lon="3.03089">
        <ele>2.6</ele>
        <time>2024-05-10T12:11:18Z</time>
      </trkpt>
      <trkpt lat="43.12343" lon="3.03091">
        <ele>2.4</ele>
        <time>2024-05-10T12:11:19Z</time>
      </trkpt>
      <trkpt lat="43.12357" lon="3.03093">
        <ele>2.3</ele>
        <time>2024-05-10T12:11:20Z</time>
      </trkpt>
      <trkpt lat="43.12371" lon="3.03094">
        <ele>2.2</ele>
        <time>2024-05-10T12:11:21Z</time>
      </trkpt>
      <trkpt lat="43.12386" lon="3.03095">
        <ele>2.2</ele>
        <time>2024-05-10T12:11:22Z</time>
      </trkpt>
      <trkpt lat="43.12402" lon="3.03096">
        <ele>2.1</ele>
        <time>2024-05-10T12:11:23Z</time>
      </trkpt>
      <trkpt lat="43.12418" lon="3.03098">
        <ele>2</ele>
        <time>2024-05-10T12:11:24Z</time>
      </trkpt>
      <trkpt lat="43.12435" lon="3.03098">
        <ele>2.3</ele>
        <time>2024-05-10T12:11:25Z</time>
      </trkpt>
      <trkpt lat="43.12452" lon="3.031">
        <ele>2.4</ele>
        <time>2024-05-10T12:11:26Z</time>
      </trkpt>
      <trkpt lat="43.1247" lon="3.03101">
        <ele>2.4</ele>
        <time>2024-05-10T12:11:27Z</time>
      </trkpt>
      <trkpt lat="43.12489" lon="3.03102">
        <ele>2.3</ele>
        <time>2024-05-10T12:11:28Z</time>
      </trkpt>
      <trkpt lat="43.12508" lon="3.03104">
        <ele>2.2</ele>
        <time>2024-05-10T12:11:29Z</time>
      </trkpt>
      <trkpt lat="43.12528" lon="3.03105">
        <ele>2</ele>
        <time>2024-05-10T12:11:30Z</time>
      </trkpt>
      <trkpt lat="43.12547" lon="3.03107">
        <ele>2.1</ele>
        <time>2024-05-10T12:11:31Z</time>
      </trkpt>
      <trkpt lat="43.12568" lon="3.0311">
        <ele>2.5</ele>
        <time>2024-05-10T12:11:32Z</time>
      </trkpt>
      <trkpt lat="43.12588" lon="3.03112">
        <ele>3</ele>
        <time>2024-05-10T12:11:33Z</time>
      </trkpt>
      <trkpt lat="43.12608" lon="3.03114">
        <ele>2.9</ele>
        <time>2024-05-10T12:11:34Z</time>
      </trkpt>
      <trkpt lat="43.12628" lon="3.03116">
        <ele>2.8</ele>
        <time>2024-05-10T12:11:35Z</time>
      </trkpt>
      <trkpt lat="43.12646" lon="3.03117">
        <ele>2.7</ele>
        <time>2024-05-10T12:11:36Z</time>
      </trkpt>
      <trkpt lat="43.12665" lon="3.03119">
        <ele>2.4</ele>
        <time>2024-05-10T12:11:37Z</time>
      </trkpt>
      <trkpt lat="43.12683" lon="3.0312">
        <ele>2.4</ele>
        <time>2024-05-10T12:11:38Z</time>
      </trkpt>
      <trkpt lat="43.12698" lon="3.03121">
        <ele>2.3</ele>
        <time>2024-05-10T12:11:39Z</time>
      </trkpt>
      <trkpt lat="43.12713" lon="3.03122">
        <ele>2.2</ele>
        <time>2024-05-10T12:11:40Z</time>
      </trkpt>
      <trkpt lat="43.12728" lon="3.03123">
        <ele>2.1</ele>
        <time>2024-05-10T12:11:41Z</time>
      </trkpt>
      <trkpt lat="43.12741" lon="3.03124">
        <ele>2.1</ele>
        <time>2024-05-10T12:11:42Z</time>
      </trkpt>
      <trkpt lat="43.12755" lon="3.03125">
        <ele>2</ele>
        <time>2024-05-10T12:11:43Z</time>
      </trkpt>
      <trkpt lat="43.12769" lon="3.03127">
        <ele>1.9</ele>
        <time>2024-05-10T12:11:44Z</time>
      </trkpt>
      <trkpt lat="43.12785" lon="3.03129">
        <ele>1.9</ele>
        <time>2024-05-10T12:11:45Z</time>
      </trkpt>
      <trkpt lat="43.128" lon="3.0313">
        <ele>2.2</ele>
        <time>2024-05-10T12:11:46Z</time>
      </trkpt>
      <trkpt lat="43.12815" lon="3.03131">
        <ele>2.4</ele>
        <time>2024-05-10T12:11:47Z</time>
      </trkpt>
      <trkpt lat="43.1283" lon="3.03132">
        <ele>2.7</ele>
        <time>2024-05-10T12:11:48Z</time>
      </trkpt>
      <trkpt lat="43.12843" lon="3.03132">
        <ele>2.8</ele>
        <time>2024-05-10T12:11:49Z</time>
      </trkpt>
      <trkpt lat="43.12857" lon="3.03133">
        <ele>2.8</ele>
        <time>2024-05-10T12:11:50Z</time>
      </trkpt>
      <trkpt lat="43.1287" lon="3.03133">
        <ele>2.8</ele>
        <time>2024-05-10T12:11:51Z</time>
      </trkpt>
      <trkpt lat="43.12884" lon="3.03134">
        <ele>2.8</ele>
        <time>2024-05-10T12:11:52Z</time>
      </trkpt>
      <trkpt lat="43.12897" lon="3.03134">
        <ele>2.8</ele>
        <time>2024-05-10T12:11:53Z</time>
      </trkpt>
      <trkpt lat="43.1291" lon="3.03135">
        <ele>2.9</ele>
        <time>2024-05-10T12:11:54Z</time>
      </trkpt>
      <trkpt lat="43.12923" lon="3.03135">
        <ele>2.9</ele>
        <time>2024-05-10T12:11:55Z</time>
      </trkpt>
      <trkpt lat="43.12936" lon="3.03136">
        <ele>2.9</ele>
        <time>2024-05-10T12:11:56Z</time>
      </trkpt>
      <trkpt lat="43.12948" lon="3.03137">
        <ele>2.9</ele>
        <time>2024-05-10T12:11:57Z</time>
      </trkpt>
      <trkpt lat="43.12958" lon="3.03138">
        <ele>3</ele>
        <time>2024-05-10T12:11:58Z</time>
      </trkpt>
      <trkpt lat="43.12968" lon="3.03138">
        <ele>3</ele>
        <time>2024-05-10T12:11:59Z</time>
      </trkpt>
      <trkpt lat="43.12976" lon="3.03136">
        <ele>2.9</ele>
        <time>2024-05-10T12:12:00Z</time>
      </trkpt>
      <trkpt lat="43.12985" lon="3.03133">
        <ele>2.8</ele>
        <time>2024-05-10T12:12:01Z</time>
      </trkpt>
      <trkpt lat="43.12993" lon="3.03127">
        <ele>2.6</ele>
        <time>2024-05-10T12:12:02Z</time>
      </trkpt>
      <trkpt lat="43.13" lon="3.0312">
        <ele>2.3</ele>
        <time>2024-05-10T12:12:03Z</time>
      </trkpt>
      <trkpt lat="43.13007" lon="3.03111">
        <ele>2</ele>
        <time>2024-05-10T12:12:04Z</time>
      </trkpt>
      <trkpt lat="43.13012" lon="3.031">
        <ele>2</ele>
        <time>2024-05-10T12:12:05Z</time>
      </trkpt>
      <trkpt lat="43.13016" lon="3.03088">
        <ele>2</ele>
        <time>2024-05-10T12:12:06Z</time>
      </trkpt>
      <trkpt lat="43.13019" lon="3.03076">
        <ele>2</ele>
        <time>2024-05-10T12:12:07Z</time>
      </trkpt>
      <trkpt lat="43.13021" lon="3.03064">
        <ele>2</ele>
        <time>2024-05-10T12:12:08Z</time>
      </trkpt>
      <trkpt lat="43.13022" lon="3.03052">
        <ele>2.1</ele>
        <time>2024-05-10T12:12:09Z</time>
      </trkpt>
      <trkpt lat="43.13022" lon="3.03041">
        <ele>2.5</ele>
        <time>2024-05-10T12:12:10Z</time>
      </trkpt>
      <trkpt lat="43.13021" lon="3.0303">
        <ele>2.9</ele>
        <time>2024-05-10T12:12:11Z</time>
      </trkpt>
      <trkpt lat="43.13021" lon="3.03018">
        <ele>2.9</ele>
        <time>2024-05-10T12:12:12Z</time>
      </trkpt>
      <trkpt lat="43.13021" lon="3.03008">
        <ele>2.8</ele>
        <time>2024-05-10T12:12:13Z</time>
      </trkpt>
      <trkpt lat="43.13021" lon="3.02997">
        <ele>2.7</ele>
        <time>2024-05-10T12:12:14Z</time>
      </trkpt>
      <trkpt lat="43.13021" lon="3.02986">
        <ele>2.4</ele>
        <time>2024-05-10T12:12:15Z</time>
      </trkpt>
      <trkpt lat="43.13021" lon="3.02974">
        <ele>2</ele>
        <time>2024-05-10T12:12:16Z</time>
      </trkpt>
      <trkpt lat="43.13022" lon="3.02962">
        <ele>1.9</ele>
        <time>2024-05-10T12:12:17Z</time>
      </trkpt>
      <trkpt lat="43.13022" lon="3.02948">
        <ele>1.8</ele>
        <time>2024-05-10T12:12:18Z</time>
      </trkpt>
      <trkpt lat="43.13023" lon="3.02935">
        <ele>1.8</ele>
        <time>2024-05-10T12:12:19Z</time>
      </trkpt>
      <trkpt lat="43.13023" lon="3.02919">
        <ele>1.8</ele>
        <time>2024-05-10T12:12:20Z</time>
      </trkpt>
      <trkpt lat="43.13023" lon="3.02903">
        <ele>1.8</ele>
        <time>2024-05-10T12:12:21Z</time>
      </trkpt>
      <trkpt lat="43.13024" lon="3.02886">
        <ele>1.9</ele>
        <time>2024-05-10T12:12:22Z</time>
      </trkpt>
      <trkpt lat="43.13025" lon="3.02871">
        <ele>1.9</ele>
        <time>2024-05-10T12:12:23Z</time>
      </trkpt>
      <trkpt lat="43.13026" lon="3.02854">
        <ele>1.7</ele>
        <time>2024-05-10T12:12:24Z</time>
      </trkpt>
      <trkpt lat="43.13026" lon="3.02836">
        <ele>1.1</ele>
        <time>2024-05-10T12:12:25Z</time>
      </trkpt>
      <trkpt lat="43.13026" lon="3.02815">
        <ele>1.6</ele>
        <time>2024-05-10T12:12:26Z</time>
      </trkpt>
      <trkpt lat="43.13027" lon="3.02792">
        <ele>2</ele>
        <time>2024-05-10T12:12:27Z</time>
      </trkpt>
      <trkpt lat="43.13027" lon="3.02768">
        <ele>2</ele>
        <time>2024-05-10T12:12:28Z</time>
      </trkpt>
      <trkpt lat="43.13028" lon="3.02742">
        <ele>2</ele>
        <time>2024-05-10T12:12:29Z</time>
      </trkpt>
      <trkpt lat="43.13029" lon="3.02715">
        <ele>2</ele>
        <time>2024-05-10T12:12:30Z</time>
      </trkpt>
      <trkpt lat="43.1303" lon="3.02689">
        <ele>1.9</ele>
        <time>2024-05-10T12:12:31Z</time>
      </trkpt>
      <trkpt lat="43.13031" lon="3.02664">
        <ele>1.8</ele>
        <time>2024-05-10T12:12:32Z</time>
      </trkpt>
      <trkpt lat="43.13033" lon="3.02639">
        <ele>1</ele>
        <time>2024-05-10T12:12:33Z</time>
      </trkpt>
      <trkpt lat="43.13034" lon="3.02616">
        <ele>1</ele>
        <time>2024-05-10T12:12:34Z</time>
      </trkpt>
      <trkpt lat="43.13035" lon="3.02597">
        <ele>1</ele>
        <time>2024-05-10T12:12:35Z</time>
      </trkpt>
      <trkpt lat="43.13036" lon="3.0258">
        <ele>1</ele>
        <time>2024-05-10T12:12:36Z</time>
      </trkpt>
      <trkpt lat="43.13036" lon="3.02566">
        <ele>1</ele>
        <time>2024-05-10T12:12:37Z</time>
      </trkpt>
      <trkpt lat="43.13036" lon="3.02554">
        <ele>1</ele>
        <time>2024-05-10T12:12:38Z</time>
      </trkpt>
      <trkpt lat="43.13037" lon="3.02545">
        <ele>1</ele>
        <time>2024-05-10T12:12:39Z</time>
      </trkpt>
      <trkpt lat="43.13037" lon="3.02538">
        <ele>1</ele>
        <time>2024-05-10T12:12:40Z</time>
      </trkpt>
      <trkpt lat="43.13037" lon="3.0253">
        <ele>1</ele>
        <time>2024-05-10T12:12:41Z</time>
      </trkpt>
      <trkpt lat="43.13037" lon="3.02524">
        <ele>1</ele>
        <time>2024-05-10T12:12:42Z</time>
      </trkpt>
      <trkpt lat="43.13037" lon="3.02517">
        <ele>1</ele>
        <time>2024-05-10T12:12:43Z</time>
      </trkpt>
      <trkpt lat="43.13037" lon="3.0251">
        <ele>1</ele>
        <time>2024-05-10T12:12:44Z</time>
      </trkpt>
      <trkpt lat="43.13038" lon="3.02503">
        <ele>1</ele>
        <time>2024-05-10T12:12:45Z</time>
      </trkpt>
      <trkpt lat="43.1304" lon="3.02498">
        <ele>1</ele>
        <time>2024-05-10T12:12:46Z</time>
      </trkpt>
      <trkpt lat="43.13044" lon="3.02495">
        <ele>1</ele>
        <time>2024-05-10T12:12:47Z</time>
      </trkpt>
      <trkpt lat="43.13049" lon="3.02494">
        <ele>1</ele>
        <time>2024-05-10T12:12:48Z</time>
      </trkpt>
      <trkpt lat="43.13056" lon="3.02496">
        <ele>1</ele>
        <time>2024-05-10T12:12:49Z</time>
      </trkpt>
      <trkpt lat="43.13063" lon="3.02496">
        <ele>1</ele>
        <time>2024-05-10T12:12:50Z</time>
      </trkpt>
      <trkpt lat="43.13072" lon="3.02497">
        <ele>1</ele>
        <time>2024-05-10T12:12:51Z</time>
      </trkpt>
      <trkpt lat="43.13082" lon="3.02498">
        <ele>1</ele>
        <time>2024-05-10T12:12:52Z</time>
      </trkpt>
      <trkpt lat="43.13092" lon="3.02498">
        <ele>1.3</ele>
        <time>2024-05-10T12:12:53Z</time>
      </trkpt>
      <trkpt lat="43.13103" lon="3.02499">
        <ele>1.7</ele>
        <time>2024-05-10T12:12:54Z</time>
      </trkpt>
      <trkpt lat="43.13116" lon="3.025">
        <ele>1.8</ele>
        <time>2024-05-10T12:12:55Z</time>
      </trkpt>
      <trkpt lat="43.13129" lon="3.025">
        <ele>1.4</ele>
        <time>2024-05-10T12:12:56Z</time>
      </trkpt>
      <trkpt lat="43.13142" lon="3.02502">
        <ele>1.1</ele>
        <time>2024-05-10T12:12:57Z</time>
      </trkpt>
      <trkpt lat="43.13156" lon="3.02503">
        <ele>1.6</ele>
        <time>2024-05-10T12:12:58Z</time>
      </trkpt>
      <trkpt lat="43.13169" lon="3.02503">
        <ele>2</ele>
        <time>2024-05-10T12:12:59Z</time>
      </trkpt>
      <trkpt lat="43.13182" lon="3.02505">
        <ele>1.9</ele>
        <time>2024-05-10T12:13:00Z</time>
      </trkpt>
      <trkpt lat="43.13195" lon="3.02506">
        <ele>1.8</ele>
        <time>2024-05-10T12:13:01Z</time>
      </trkpt>
      <trkpt lat="43.13208" lon="3.02506">
        <ele>1.4</ele>
        <time>2024-05-10T12:13:02Z</time>
      </trkpt>
      <trkpt lat="43.1322" lon="3.02508">
        <ele>1.1</ele>
        <time>2024-05-10T12:13:03Z</time>
      </trkpt>
      <trkpt lat="43.13233" lon="3.02509">
        <ele>1</ele>
        <time>2024-05-10T12:13:04Z</time>
      </trkpt>
      <trkpt lat="43.13246" lon="3.02511">
        <ele>1</ele>
        <time>2024-05-10T12:13:05Z</time>
      </trkpt>
      <trkpt lat="43.1326" lon="3.02513">
        <ele>1</ele>
        <time>2024-05-10T12:13:06Z</time>
      </trkpt>
      <trkpt lat="43.13273" lon="3.02513">
        <ele>1</ele>
        <time>2024-05-10T12:13:07Z</time>
      </trkpt>
      <trkpt lat="43.13286" lon="3.02514">
        <ele>1.1</ele>
        <time>2024-05-10T12:13:08Z</time>
      </trkpt>
      <trkpt lat="43.13298" lon="3.02515">
        <ele>1.3</ele>
        <time>2024-05-10T12:13:09Z</time>
      </trkpt>
      <trkpt lat="43.13311" lon="3.02516">
        <ele>1.3</ele>
        <time>2024-05-10T12:13:10Z</time>
      </trkpt>
      <trkpt lat="43.13324" lon="3.02517">
        <ele>1.1</ele>
        <time>2024-05-10T12:13:11Z</time>
      </trkpt>
      <trkpt lat="43.13337" lon="3.02517">
        <ele>1</ele>
        <time>2024-05-10T12:13:12Z</time>
      </trkpt>
      <trkpt lat="43.13351" lon="3.02518">
        <ele>1</ele>
        <time>2024-05-10T12:13:13Z</time>
      </trkpt>
      <trkpt lat="43.13365" lon="3.02519">
        <ele>1</ele>
        <time>2024-05-10T12:13:14Z</time>
      </trkpt>
      <trkpt lat="43.13379" lon="3.02521">
        <ele>1.2</ele>
        <time>2024-05-10T12:13:15Z</time>
      </trkpt>
      <trkpt lat="43.13393" lon="3.02523">
        <ele>1.3</ele>
        <time>2024-05-10T12:13:16Z</time>
      </trkpt>
      <trkpt lat="43.13407" lon="3.02524">
        <ele>1.7</ele>
        <time>2024-05-10T12:13:17Z</time>
      </trkpt>
      <trkpt lat="43.13421" lon="3.02525">
        <ele>2</ele>
        <time>2024-05-10T12:13:18Z</time>
      </trkpt>
      <trkpt lat="43.13434" lon="3.02526">
        <ele>2</ele>
        <time>2024-05-10T12:13:19Z</time>
      </trkpt>
      <trkpt lat="43.13446" lon="3.02526">
        <ele>1.9</ele>
        <time>2024-05-10T12:13:20Z</time>
      </trkpt>
      <trkpt lat="43.13458" lon="3.02527">
        <ele>1.5</ele>
        <time>2024-05-10T12:13:21Z</time>
      </trkpt>
      <trkpt lat="43.13471" lon="3.02527">
        <ele>1.1</ele>
        <time>2024-05-10T12:13:22Z</time>
      </trkpt>
      <trkpt lat="43.13485" lon="3.02529">
        <ele>1.4</ele>
        <time>2024-05-10T12:13:23Z</time>
      </trkpt>
      <trkpt lat="43.13498" lon="3.02529">
        <ele>1.9</ele>
        <time>2024-05-10T12:13:24Z</time>
      </trkpt>
      <trkpt lat="43.13512" lon="3.0253">
        <ele>1.9</ele>
        <time>2024-05-10T12:13:25Z</time>
      </trkpt>
      <trkpt lat="43.13525" lon="3.02531">
        <ele>1.9</ele>
        <time>2024-05-10T12:13:26Z</time>
      </trkpt>
      <trkpt lat="43.13538" lon="3.02532">
        <ele>1.8</ele>
        <time>2024-05-10T12:13:27Z</time>
      </trkpt>
      <trkpt lat="43.1355" lon="3.02533">
        <ele>1.8</ele>
        <time>2024-05-10T12:13:28Z</time>
      </trkpt>
      <trkpt lat="43.13562" lon="3.02534">
        <ele>1.8</ele>
        <time>2024-05-10T12:13:29Z</time>
      </trkpt>
      <trkpt lat="43.13574" lon="3.02537">
        <ele>1.7</ele>
        <time>2024-05-10T12:13:30Z</time>
      </trkpt>
      <trkpt lat="43.13587" lon="3.02542">
        <ele>1.4</ele>
        <time>2024-05-10T12:13:31Z</time>
      </trkpt>
      <trkpt lat="43.136" lon="3.02549">
        <ele>1.1</ele>
        <time>2024-05-10T12:13:32Z</time>
      </trkpt>
      <trkpt lat="43.13612" lon="3.02559">
        <ele>1</ele>
        <time>2024-05-10T12:13:33Z</time>
      </trkpt>
      <trkpt lat="43.13623" lon="3.0257">
        <ele>1.2</ele>
        <time>2024-05-10T12:13:34Z</time>
      </trkpt>
      <trkpt lat="43.13633" lon="3.02583">
        <ele>1</ele>
        <time>2024-05-10T12:13:35Z</time>
      </trkpt>
      <trkpt lat="43.13643" lon="3.02595">
        <ele>1</ele>
        <time>2024-05-10T12:13:36Z</time>
      </trkpt>
      <trkpt lat="43.13653" lon="3.02607">
        <ele>1</ele>
        <time>2024-05-10T12:13:37Z</time>
      </trkpt>
      <trkpt lat="43.13662" lon="3.02618">
        <ele>1</ele>
        <time>2024-05-10T12:13:38Z</time>
      </trkpt>
      <trkpt lat="43.13671" lon="3.02628">
        <ele>1.1</ele>
        <time>2024-05-10T12:13:39Z</time>
      </trkpt>
      <trkpt lat="43.1368" lon="3.02638">
        <ele>1.5</ele>
        <time>2024-05-10T12:13:40Z</time>
      </trkpt>
      <trkpt lat="43.13688" lon="3.02647">
        <ele>1.5</ele>
        <time>2024-05-10T12:13:41Z</time>
      </trkpt>
      <trkpt lat="43.13698" lon="3.02656">
        <ele>1.3</ele>
        <time>2024-05-10T12:13:42Z</time>
      </trkpt>
      <trkpt lat="43.13708" lon="3.02664">
        <ele>1</ele>
        <time>2024-05-10T12:13:43Z</time>
      </trkpt>
      <trkpt lat="43.13719" lon="3.02669">
        <ele>1</ele>
        <time>2024-05-10T12:13:44Z</time>
      </trkpt>
      <trkpt lat="43.13732" lon="3.02672">
        <ele>1.3</ele>
        <time>2024-05-10T12:13:45Z</time>
      </trkpt>
      <trkpt lat="43.13745" lon="3.02673">
        <ele>1.6</ele>
        <time>2024-05-10T12:13:46Z</time>
      </trkpt>
      <trkpt lat="43.13757" lon="3.02674">
        <ele>1.7</ele>
        <time>2024-05-10T12:13:47Z</time>
      </trkpt>
      <trkpt lat="43.13769" lon="3.02675">
        <ele>1.7</ele>
        <time>2024-05-10T12:13:48Z</time>
      </trkpt>
      <trkpt lat="43.1378" lon="3.02676">
        <ele>1.6</ele>
        <time>2024-05-10T12:13:49Z</time>
      </trkpt>
      <trkpt lat="43.1379" lon="3.02677">
        <ele>1.4</ele>
        <time>2024-05-10T12:13:50Z</time>
      </trkpt>
      <trkpt lat="43.13799" lon="3.02678">
        <ele>1.1</ele>
        <time>2024-05-10T12:13:51Z</time>
      </trkpt>
      <trkpt lat="43.13807" lon="3.02679">
        <ele>1</ele>
        <time>2024-05-10T12:13:52Z</time>
      </trkpt>
      <trkpt lat="43.13814" lon="3.02679">
        <ele>1</ele>
        <time>2024-05-10T12:13:53Z</time>
      </trkpt>
      <trkpt lat="43.13821" lon="3.02679">
        <ele>1</ele>
        <time>2024-05-10T12:13:54Z</time>
      </trkpt>
      <trkpt lat="43.13827" lon="3.0268">
        <ele>1</ele>
        <time>2024-05-10T12:13:55Z</time>
      </trkpt>
      <trkpt lat="43.13834" lon="3.02681">
        <ele>1</ele>
        <time>2024-05-10T12:13:56Z</time>
      </trkpt>
      <trkpt lat="43.13842" lon="3.02681">
        <ele>1</ele>
        <time>2024-05-10T12:13:57Z</time>
      </trkpt>
      <trkpt lat="43.13851" lon="3.02682">
        <ele>1</ele>
        <time>2024-05-10T12:13:58Z</time>
      </trkpt>
      <trkpt lat="43.1386" lon="3.02683">
        <ele>1</ele>
        <time>2024-05-10T12:13:59Z</time>
      </trkpt>
      <trkpt lat="43.13869" lon="3.02683">
        <ele>1.2</ele>
        <time>2024-05-10T12:14:00Z</time>
      </trkpt>
      <trkpt lat="43.13878" lon="3.02684">
        <ele>1.4</ele>
        <time>2024-05-10T12:14:01Z</time>
      </trkpt>
      <trkpt lat="43.13888" lon="3.02685">
        <ele>1.6</ele>
        <time>2024-05-10T12:14:02Z</time>
      </trkpt>
      <trkpt lat="43.13899" lon="3.02686">
        <ele>1.7</ele>
        <time>2024-05-10T12:14:03Z</time>
      </trkpt>
      <trkpt lat="43.13911" lon="3.02686">
        <ele>1.7</ele>
        <time>2024-05-10T12:14:04Z</time>
      </trkpt>
      <trkpt lat="43.13923" lon="3.02688">
        <ele>1.8</ele>
        <time>2024-05-10T12:14:05Z</time>
      </trkpt>
      <trkpt lat="43.13936" lon="3.02688">
        <ele>1.9</ele>
        <time>2024-05-10T12:14:06Z</time>
      </trkpt>
      <trkpt lat="43.13948" lon="3.02689">
        <ele>2</ele>
        <time>2024-05-10T12:14:07Z</time>
      </trkpt>
      <trkpt lat="43.13962" lon="3.0269">
        <ele>1.9</ele>
        <time>2024-05-10T12:14:08Z</time>
      </trkpt>
      <trkpt lat="43.13976" lon="3.02691">
        <ele>1.9</ele>
        <time>2024-05-10T12:14:09Z</time>
      </trkpt>
      <trkpt lat="43.1399" lon="3.02692">
        <ele>1.9</ele>
        <time>2024-05-10T12:14:10Z</time>
      </trkpt>
      <trkpt lat="43.14004" lon="3.02693">
        <ele>1.9</ele>
        <time>2024-05-10T12:14:11Z</time>
      </trkpt>
      <trkpt lat="43.14017" lon="3.02693">
        <ele>1.9</ele>
        <time>2024-05-10T12:14:12Z</time>
      </trkpt>
      <trkpt lat="43.14029" lon="3.0269">
        <ele>1.8</ele>
        <time>2024-05-10T12:14:13Z</time>
      </trkpt>
      <trkpt lat="43.1404" lon="3.02685">
        <ele>1.4</ele>
        <time>2024-05-10T12:14:14Z</time>
      </trkpt>
      <trkpt lat="43.1405" lon="3.02676">
        <ele>1.1</ele>
        <time>2024-05-10T12:14:15Z</time>
      </trkpt>
      <trkpt lat="43.1406" lon="3.02664">
        <ele>1</ele>
        <time>2024-05-10T12:14:16Z</time>
      </trkpt>
      <trkpt lat="43.14068" lon="3.02652">
        <ele>1</ele>
        <time>2024-05-10T12:14:17Z</time>
      </trkpt>
      <trkpt lat="43.14076" lon="3.02641">
        <ele>1</ele>
        <time>2024-05-10T12:14:18Z</time>
      </trkpt>
      <trkpt lat="43.14083" lon="3.02629">
        <ele>1</ele>
        <time>2024-05-10T12:14:19Z</time>
      </trkpt>
      <trkpt lat="43.14089" lon="3.0262">
        <ele>1</ele>
        <time>2024-05-10T12:14:20Z</time>
      </trkpt>
      <trkpt lat="43.14096" lon="3.02612">
        <ele>1</ele>
        <time>2024-05-10T12:14:21Z</time>
      </trkpt>
      <trkpt lat="43.14101" lon="3.02603">
        <ele>1</ele>
        <time>2024-05-10T12:14:22Z</time>
      </trkpt>
      <trkpt lat="43.14107" lon="3.02594">
        <ele>1</ele>
        <time>2024-05-10T12:14:23Z</time>
      </trkpt>
      <trkpt lat="43.14114" lon="3.02584">
        <ele>1</ele>
        <time>2024-05-10T12:14:24Z</time>
      </trkpt>
      <trkpt lat="43.14121" lon="3.02574">
        <ele>1</ele>
        <time>2024-05-10T12:14:25Z</time>
      </trkpt>
      <trkpt lat="43.14128" lon="3.02562">
        <ele>1</ele>
        <time>2024-05-10T12:14:26Z</time>
      </trkpt>
      <trkpt lat="43.14137" lon="3.0255">
        <ele>1.2</ele>
        <time>2024-05-10T12:14:27Z</time>
      </trkpt>
      <trkpt lat="43.14145" lon="3.02537">
        <ele>1.5</ele>
        <time>2024-05-10T12:14:28Z</time>
      </trkpt>
      <trkpt lat="43.14154" lon="3.02524">
        <ele>1.5</ele>
        <time>2024-05-10T12:14:29Z</time>
      </trkpt>
      <trkpt lat="43.14161" lon="3.02513">
        <ele>1.5</ele>
        <time>2024-05-10T12:14:30Z</time>
      </trkpt>
      <trkpt lat="43.14169" lon="3.02501">
        <ele>1.9</ele>
        <time>2024-05-10T12:14:31Z</time>
      </trkpt>
      <trkpt lat="43.14177" lon="3.02489">
        <ele>1.8</ele>
        <time>2024-05-10T12:14:32Z</time>
      </trkpt>
      <trkpt lat="43.14185" lon="3.02476">
        <ele>1.9</ele>
        <time>2024-05-10T12:14:33Z</time>
      </trkpt>
      <trkpt lat="43.14192" lon="3.02464">
        <ele>2</ele>
        <time>2024-05-10T12:14:34Z</time>
      </trkpt>
      <trkpt lat="43.14198" lon="3.02451">
        <ele>2.2</ele>
        <time>2024-05-10T12:14:35Z</time>
      </trkpt>
      <trkpt lat="43.14202" lon="3.02438">
        <ele>2.5</ele>
        <time>2024-05-10T12:14:36Z</time>
      </trkpt>
      <trkpt lat="43.14205" lon="3.02425">
        <ele>2.8</ele>
        <time>2024-05-10T12:14:37Z</time>
      </trkpt>
      <trkpt lat="43.14206" lon="3.02411">
        <ele>2.8</ele>
        <time>2024-05-10T12:14:38Z</time>
      </trkpt>
      <trkpt lat="43.14207" lon="3.02396">
        <ele>2.8</ele>
        <time>2024-05-10T12:14:39Z</time>
      </trkpt>
      <trkpt lat="43.14209" lon="3.0238">
        <ele>3.2</ele>
        <time>2024-05-10T12:14:40Z</time>
      </trkpt>
      <trkpt lat="43.1421" lon="3.02364">
        <ele>3.6</ele>
        <time>2024-05-10T12:14:41Z</time>
      </trkpt>
      <trkpt lat="43.14213" lon="3.0235">
        <ele>4</ele>
        <time>2024-05-10T12:14:42Z</time>
      </trkpt>
      <trkpt lat="43.14215" lon="3.02337">
        <ele>4.2</ele>
        <time>2024-05-10T12:14:43Z</time>
      </trkpt>
      <trkpt lat="43.14217" lon="3.02325">
        <ele>4.7</ele>
        <time>2024-05-10T12:14:44Z</time>
      </trkpt>
      <trkpt lat="43.14219" lon="3.02315">
        <ele>5.2</ele>
        <time>2024-05-10T12:14:45Z</time>
      </trkpt>
      <trkpt lat="43.14219" lon="3.02305">
        <ele>5.5</ele>
        <time>2024-05-10T12:14:46Z</time>
      </trkpt>
      <trkpt lat="43.1422" lon="3.02296">
        <ele>5.7</ele>
        <time>2024-05-10T12:14:47Z</time>
      </trkpt>
      <trkpt lat="43.1422" lon="3.02287">
        <ele>5.6</ele>
        <time>2024-05-10T12:14:48Z</time>
      </trkpt>
      <trkpt lat="43.1422" lon="3.02278">
        <ele>5.6</ele>
        <time>2024-05-10T12:14:49Z</time>
      </trkpt>
      <trkpt lat="43.14221" lon="3.02269">
        <ele>6.1</ele>
        <time>2024-05-10T12:14:50Z</time>
      </trkpt>
      <trkpt lat="43.14221" lon="3.02261">
        <ele>6.4</ele>
        <time>2024-05-10T12:14:51Z</time>
      </trkpt>
      <trkpt lat="43.14221" lon="3.02252">
        <ele>6.7</ele>
        <time>2024-05-10T12:14:52Z</time>
      </trkpt>
      <trkpt lat="43.14221" lon="3.02243">
        <ele>6.5</ele>
        <time>2024-05-10T12:14:53Z</time>
      </trkpt>
      <trkpt lat="43.14222" lon="3.02232">
        <ele>6.3</ele>
        <time>2024-05-10T12:14:54Z</time>
      </trkpt>
      <trkpt lat="43.14223" lon="3.02221">
        <ele>6</ele>
        <time>2024-05-10T12:14:55Z</time>
      </trkpt>
      <trkpt lat="43.14224" lon="3.02208">
        <ele>5.6</ele>
        <time>2024-05-10T12:14:56Z</time>
      </trkpt>
      <trkpt lat="43.14226" lon="3.02196">
        <ele>5.5</ele>
        <time>2024-05-10T12:14:57Z</time>
      </trkpt>
      <trkpt lat="43.14227" lon="3.02183">
        <ele>5.5</ele>
        <time>2024-05-10T12:14:58Z</time>
      </trkpt>
      <trkpt lat="43.14228" lon="3.02172">
        <ele>5.6</ele>
        <time>2024-05-10T12:14:59Z</time>
      </trkpt>
      <trkpt lat="43.14229" lon="3.02161">
        <ele>5.8</ele>
        <time>2024-05-10T12:15:00Z</time>
      </trkpt>
      <trkpt lat="43.1423" lon="3.0215">
        <ele>6</ele>
        <time>2024-05-10T12:15:01Z</time>
      </trkpt>
      <trkpt lat="43.14231" lon="3.0214">
        <ele>6.3</ele>
        <time>2024-05-10T12:15:02Z</time>
      </trkpt>
      <trkpt lat="43.14232" lon="3.02128">
        <ele>6.4</ele>
        <time>2024-05-10T12:15:03Z</time>
      </trkpt>
      <trkpt lat="43.14234" lon="3.02117">
        <ele>6.7</ele>
        <time>2024-05-10T12:15:04Z</time>
      </trkpt>
      <trkpt lat="43.14235" lon="3.02104">
        <ele>6.7</ele>
        <time>2024-05-10T12:15:05Z</time>
      </trkpt>
      <trkpt lat="43.14237" lon="3.02092">
        <ele>6.8</ele>
        <time>2024-05-10T12:15:06Z</time>
      </trkpt>
      <trkpt lat="43.14239" lon="3.0208">
        <ele>6.8</ele>
        <time>2024-05-10T12:15:07Z</time>
      </trkpt>
      <trkpt lat="43.14241" lon="3.02067">
        <ele>6.8</ele>
        <time>2024-05-10T12:15:08Z</time>
      </trkpt>
      <trkpt lat="43.14243" lon="3.02056">
        <ele>7</ele>
        <time>2024-05-10T12:15:09Z</time>
      </trkpt>
      <trkpt lat="43.14245" lon="3.02044">
        <ele>7.3</ele>
        <time>2024-05-10T12:15:10Z</time>
      </trkpt>
      <trkpt lat="43.14247" lon="3.02033">
        <ele>7.6</ele>
        <time>2024-05-10T12:15:11Z</time>
      </trkpt>
      <trkpt lat="43.14248" lon="3.02022">
        <ele>7.7</ele>
        <time>2024-05-10T12:15:12Z</time>
      </trkpt>
      <trkpt lat="43.1425" lon="3.02012">
        <ele>8</ele>
        <time>2024-05-10T12:15:13Z</time>
      </trkpt>
      <trkpt lat="43.14253" lon="3.02002">
        <ele>8</ele>
        <time>2024-05-10T12:15:14Z</time>
      </trkpt>
      <trkpt lat="43.14257" lon="3.01992">
        <ele>7.8</ele>
        <time>2024-05-10T12:15:15Z</time>
      </trkpt>
      <trkpt lat="43.14262" lon="3.01983">
        <ele>7.7</ele>
        <time>2024-05-10T12:15:16Z</time>
      </trkpt>
      <trkpt lat="43.14269" lon="3.01972">
        <ele>7.7</ele>
        <time>2024-05-10T12:15:17Z</time>
      </trkpt>
      <trkpt lat="43.14275" lon="3.01962">
        <ele>7.9</ele>
        <time>2024-05-10T12:15:18Z</time>
      </trkpt>
      <trkpt lat="43.14281" lon="3.01952">
        <ele>7.8</ele>
        <time>2024-05-10T12:15:19Z</time>
      </trkpt>
      <trkpt lat="43.14286" lon="3.01942">
        <ele>7.4</ele>
        <time>2024-05-10T12:15:20Z</time>
      </trkpt>
      <trkpt lat="43.1429" lon="3.0193">
        <ele>6.7</ele>
        <time>2024-05-10T12:15:21Z</time>
      </trkpt>
      <trkpt lat="43.14293" lon="3.01918">
        <ele>5.8</ele>
        <time>2024-05-10T12:15:22Z</time>
      </trkpt>
      <trkpt lat="43.14296" lon="3.01905">
        <ele>6.7</ele>
        <time>2024-05-10T12:15:23Z</time>
      </trkpt>
      <trkpt lat="43.143" lon="3.01892">
        <ele>8.5</ele>
        <time>2024-05-10T12:15:24Z</time>
      </trkpt>
      <trkpt lat="43.14303" lon="3.01879">
        <ele>9</ele>
        <time>2024-05-10T12:15:25Z</time>
      </trkpt>
      <trkpt lat="43.14306" lon="3.01866">
        <ele>9</ele>
        <time>2024-05-10T12:15:26Z</time>
      </trkpt>
      <trkpt lat="43.1431" lon="3.01852">
        <ele>8.9</ele>
        <time>2024-05-10T12:15:27Z</time>
      </trkpt>
      <trkpt lat="43.14314" lon="3.01837">
        <ele>9</ele>
        <time>2024-05-10T12:15:28Z</time>
      </trkpt>
      <trkpt lat="43.14318" lon="3.01821">
        <ele>8.8</ele>
        <time>2024-05-10T12:15:29Z</time>
      </trkpt>
      <trkpt lat="43.14322" lon="3.01805">
        <ele>8.4</ele>
        <time>2024-05-10T12:15:30Z</time>
      </trkpt>
      <trkpt lat="43.14326" lon="3.01789">
        <ele>8.7</ele>
        <time>2024-05-10T12:15:31Z</time>
      </trkpt>
      <trkpt lat="43.1433" lon="3.01774">
        <ele>8.9</ele>
        <time>2024-05-10T12:15:32Z</time>
      </trkpt>
      <trkpt lat="43.14334" lon="3.01759">
        <ele>8.1</ele>
        <time>2024-05-10T12:15:33Z</time>
      </trkpt>
      <trkpt lat="43.14338" lon="3.01745">
        <ele>7</ele>
        <time>2024-05-10T12:15:34Z</time>
      </trkpt>
      <trkpt lat="43.14341" lon="3.01733">
        <ele>6.7</ele>
        <time>2024-05-10T12:15:35Z</time>
      </trkpt>
      <trkpt lat="43.14345" lon="3.01721">
        <ele>6.1</ele>
        <time>2024-05-10T12:15:36Z</time>
      </trkpt>
      <trkpt lat="43.14348" lon="3.01709">
        <ele>5.8</ele>
        <time>2024-05-10T12:15:37Z</time>
      </trkpt>
      <trkpt lat="43.14352" lon="3.01698">
        <ele>5.5</ele>
        <time>2024-05-10T12:15:38Z</time>
      </trkpt>
      <trkpt lat="43.14355" lon="3.01686">
        <ele>5.3</ele>
        <time>2024-05-10T12:15:39Z</time>
      </trkpt>
      <trkpt lat="43.14358" lon="3.01676">
        <ele>5.1</ele>
        <time>2024-05-10T12:15:40Z</time>
      </trkpt>
      <trkpt lat="43.14362" lon="3.01665">
        <ele>5</ele>
        <time>2024-05-10T12:15:41Z</time>
      </trkpt>
      <trkpt lat="43.14365" lon="3.01655">
        <ele>5.2</ele>
        <time>2024-05-10T12:15:42Z</time>
      </trkpt>
      <trkpt lat="43.14369" lon="3.01645">
        <ele>5.2</ele>
        <time>2024-05-10T12:15:43Z</time>
      </trkpt>
      <trkpt lat="43.14373" lon="3.01635">
        <ele>4.9</ele>
        <time>2024-05-10T12:15:44Z</time>
      </trkpt>
      <trkpt lat="43.14379" lon="3.01624">
        <ele>4.1</ele>
        <time>2024-05-10T12:15:45Z</time>
      </trkpt>
      <trkpt lat="43.14385" lon="3.01612">
        <ele>3.5</ele>
        <time>2024-05-10T12:15:46Z</time>
      </trkpt>
      <trkpt lat="43.14392" lon="3.016">
        <ele>3.5</ele>
        <time>2024-05-10T12:15:47Z</time>
      </trkpt>
      <trkpt lat="43.14399" lon="3.01587">
        <ele>3.4</ele>
        <time>2024-05-10T12:15:48Z</time>
      </trkpt>
      <trkpt lat="43.14407" lon="3.01573">
        <ele>3</ele>
        <time>2024-05-10T12:15:49Z</time>
      </trkpt>
      <trkpt lat="43.14415" lon="3.01559">
        <ele>2.9</ele>
        <time>2024-05-10T12:15:50Z</time>
      </trkpt>
      <trkpt lat="43.14423" lon="3.01545">
        <ele>3.1</ele>
        <time>2024-05-10T12:15:51Z</time>
      </trkpt>
      <trkpt lat="43.14431" lon="3.01532">
        <ele>2.8</ele>
        <time>2024-05-10T12:15:52Z</time>
      </trkpt>
      <trkpt lat="43.14439" lon="3.01518">
        <ele>2.6</ele>
        <time>2024-05-10T12:15:53Z</time>
      </trkpt>
      <trkpt lat="43.14447" lon="3.01507">
        <ele>3</ele>
        <time>2024-05-10T12:15:54Z</time>
      </trkpt>
      <trkpt lat="43.14458" lon="3.01496">
        <ele>2.7</ele>
        <time>2024-05-10T12:15:55Z</time>
      </trkpt>
      <trkpt lat="43.14469" lon="3.01486">
        <ele>2.7</ele>
        <time>2024-05-10T12:15:56Z</time>
      </trkpt>
      <trkpt lat="43.1448" lon="3.01477">
        <ele>3</ele>
        <time>2024-05-10T12:15:57Z</time>
      </trkpt>
      <trkpt lat="43.14493" lon="3.01468">
        <ele>2.7</ele>
        <time>2024-05-10T12:15:58Z</time>
      </trkpt>
      <trkpt lat="43.14506" lon="3.01459">
        <ele>2.7</ele>
        <time>2024-05-10T12:15:59Z</time>
      </trkpt>
      <trkpt lat="43.1452" lon="3.01451">
        <ele>2.8</ele>
        <time>2024-05-10T12:16:00Z</time>
      </trkpt>
      <trkpt lat="43.14535" lon="3.01442">
        <ele>2.6</ele>
        <time>2024-05-10T12:16:01Z</time>
      </trkpt>
      <trkpt lat="43.1455" lon="3.01434">
        <ele>2.1</ele>
        <time>2024-05-10T12:16:02Z</time>
      </trkpt>
      <trkpt lat="43.14565" lon="3.01427">
        <ele>2.3</ele>
        <time>2024-05-10T12:16:03Z</time>
      </trkpt>
      <trkpt lat="43.14581" lon="3.01422">
        <ele>2.6</ele>
        <time>2024-05-10T12:16:04Z</time>
      </trkpt>
      <trkpt lat="43.14596" lon="3.01417">
        <ele>3</ele>
        <time>2024-05-10T12:16:05Z</time>
      </trkpt>
      <trkpt lat="43.14612" lon="3.01415">
        <ele>3</ele>
        <time>2024-05-10T12:16:06Z</time>
      </trkpt>
      <trkpt lat="43.14628" lon="3.01413">
        <ele>3.6</ele>
        <time>2024-05-10T12:16:07Z</time>
      </trkpt>
      <trkpt lat="43.14645" lon="3.01413">
        <ele>4.1</ele>
        <time>2024-05-10T12:16:08Z</time>
      </trkpt>
      <trkpt lat="43.14661" lon="3.01416">
        <ele>4</ele>
        <time>2024-05-10T12:16:09Z</time>
      </trkpt>
      <trkpt lat="43.14677" lon="3.01421">
        <ele>4.7</ele>
        <time>2024-05-10T12:16:10Z</time>
      </trkpt>
      <trkpt lat="43.14693" lon="3.01428">
        <ele>5.5</ele>
        <time>2024-05-10T12:16:11Z</time>
      </trkpt>
      <trkpt lat="43.1471" lon="3.01437">
        <ele>5.8</ele>
        <time>2024-05-10T12:16:12Z</time>
      </trkpt>
      <trkpt lat="43.14727" lon="3.01445">
        <ele>6.1</ele>
        <time>2024-05-10T12:16:13Z</time>
      </trkpt>
      <trkpt lat="43.14745" lon="3.01452">
        <ele>6.3</ele>
        <time>2024-05-10T12:16:14Z</time>
      </trkpt>
      <trkpt lat="43.14762" lon="3.01459">
        <ele>6.2</ele>
        <time>2024-05-10T12:16:15Z</time>
      </trkpt>
      <trkpt lat="43.1478" lon="3.01465">
        <ele>6.3</ele>
        <time>2024-05-10T12:16:16Z</time>
      </trkpt>
      <trkpt lat="43.14798" lon="3.01472">
        <ele>6.7</ele>
        <time>2024-05-10T12:16:17Z</time>
      </trkpt>
      <trkpt lat="43.14816" lon="3.01479">
        <ele>7</ele>
        <time>2024-05-10T12:16:18Z</time>
      </trkpt>
      <trkpt lat="43.14832" lon="3.01484">
        <ele>7.1</ele>
        <time>2024-05-10T12:16:19Z</time>
      </trkpt>
      <trkpt lat="43.14848" lon="3.0149">
        <ele>7.1</ele>
        <time>2024-05-10T12:16:20Z</time>
      </trkpt>
      <trkpt lat="43.14864" lon="3.01495">
        <ele>7.3</ele>
        <time>2024-05-10T12:16:21Z</time>
      </trkpt>
      <trkpt lat="43.1488" lon="3.01501">
        <ele>7.6</ele>
        <time>2024-05-10T12:16:22Z</time>
      </trkpt>
      <trkpt lat="43.14895" lon="3.01506">
        <ele>7.6</ele>
        <time>2024-05-10T12:16:23Z</time>
      </trkpt>
      <trkpt lat="43.14911" lon="3.01511">
        <ele>7.5</ele>
        <time>2024-05-10T12:16:24Z</time>
      </trkpt>
      <trkpt lat="43.14926" lon="3.01517">
        <ele>7.9</ele>
        <time>2024-05-10T12:16:25Z</time>
      </trkpt>
      <trkpt lat="43.14941" lon="3.01522">
        <ele>8.8</ele>
        <time>2024-05-10T12:16:26Z</time>
      </trkpt>
      <trkpt lat="43.14955" lon="3.01528">
        <ele>9.4</ele>
        <time>2024-05-10T12:16:27Z</time>
      </trkpt>
      <trkpt lat="43.14971" lon="3.01533">
        <ele>10</ele>
        <time>2024-05-10T12:16:28Z</time>
      </trkpt>
      <trkpt lat="43.14986" lon="3.01538">
        <ele>10</ele>
        <time>2024-05-10T12:16:29Z</time>
      </trkpt>
      <trkpt lat="43.15001" lon="3.01544">
        <ele>10</ele>
        <time>2024-05-10T12:16:30Z</time>
      </trkpt>
      <trkpt lat="43.15016" lon="3.01549">
        <ele>10.6</ele>
        <time>2024-05-10T12:16:31Z</time>
      </trkpt>
      <trkpt lat="43.15031" lon="3.01554">
        <ele>11</ele>
        <time>2024-05-10T12:16:32Z</time>
      </trkpt>
      <trkpt lat="43.15046" lon="3.01559">
        <ele>11</ele>
        <time>2024-05-10T12:16:33Z</time>
      </trkpt>
      <trkpt lat="43.1506" lon="3.01563">
        <ele>11</ele>
        <time>2024-05-10T12:16:34Z</time>
      </trkpt>
      <trkpt lat="43.15073" lon="3.01567">
        <ele>11</ele>
        <time>2024-05-10T12:16:35Z</time>
      </trkpt>
      <trkpt lat="43.15086" lon="3.0157">
        <ele>11</ele>
        <time>2024-05-10T12:16:36Z</time>
      </trkpt>
      <trkpt lat="43.15098" lon="3.01573">
        <ele>11</ele>
        <time>2024-05-10T12:16:37Z</time>
      </trkpt>
      <trkpt lat="43.1511" lon="3.01575">
        <ele>11</ele>
        <time>2024-05-10T12:16:38Z</time>
      </trkpt>
      <trkpt lat="43.15122" lon="3.01577">
        <ele>11</ele>
        <time>2024-05-10T12:16:39Z</time>
      </trkpt>
      <trkpt lat="43.15134" lon="3.01579">
        <ele>11</ele>
        <time>2024-05-10T12:16:40Z</time>
      </trkpt>
      <trkpt lat="43.15145" lon="3.01582">
        <ele>11</ele>
        <time>2024-05-10T12:16:41Z</time>
      </trkpt>
      <trkpt lat="43.15156" lon="3.01583">
        <ele>11</ele>
        <time>2024-05-10T12:16:42Z</time>
      </trkpt>
      <trkpt lat="43.15165" lon="3.01586">
        <ele>11</ele>
        <time>2024-05-10T12:16:43Z</time>
      </trkpt>
      <trkpt lat="43.15174" lon="3.01588">
        <ele>11</ele>
        <time>2024-05-10T12:16:44Z</time>
      </trkpt>
      <trkpt lat="43.15182" lon="3.0159">
        <ele>11</ele>
        <time>2024-05-10T12:16:45Z</time>
      </trkpt>
      <trkpt lat="43.15189" lon="3.01592">
        <ele>11</ele>
        <time>2024-05-10T12:16:46Z</time>
      </trkpt>
      <trkpt lat="43.15197" lon="3.01594">
        <ele>11</ele>
        <time>2024-05-10T12:16:47Z</time>
      </trkpt>
      <trkpt lat="43.15206" lon="3.01596">
        <ele>10.8</ele>
        <time>2024-05-10T12:16:48Z</time>
      </trkpt>
      <trkpt lat="43.15216" lon="3.01599">
        <ele>10.6</ele>
        <time>2024-05-10T12:16:49Z</time>
      </trkpt>
      <trkpt lat="43.15227" lon="3.01601">
        <ele>10.2</ele>
        <time>2024-05-10T12:16:50Z</time>
      </trkpt>
      <trkpt lat="43.15239" lon="3.01604">
        <ele>9.7</ele>
        <time>2024-05-10T12:16:51Z</time>
      </trkpt>
      <trkpt lat="43.1525" lon="3.01605">
        <ele>9.2</ele>
        <time>2024-05-10T12:16:52Z</time>
      </trkpt>
      <trkpt lat="43.15262" lon="3.01604">
        <ele>8.3</ele>
        <time>2024-05-10T12:16:53Z</time>
      </trkpt>
      <trkpt lat="43.15273" lon="3.01601">
        <ele>7.4</ele>
        <time>2024-05-10T12:16:54Z</time>
      </trkpt>
      <trkpt lat="43.15284" lon="3.01596">
        <ele>6.7</ele>
        <time>2024-05-10T12:16:55Z</time>
      </trkpt>
      <trkpt lat="43.15295" lon="3.01591">
        <ele>6.2</ele>
        <time>2024-05-10T12:16:56Z</time>
      </trkpt>
      <trkpt lat="43.15306" lon="3.01587">
        <ele>5.9</ele>
        <time>2024-05-10T12:16:57Z</time>
      </trkpt>
      <trkpt lat="43.15318" lon="3.01582">
        <ele>5.5</ele>
        <time>2024-05-10T12:16:58Z</time>
      </trkpt>
      <trkpt lat="43.1533" lon="3.01578">
        <ele>4.9</ele>
        <time>2024-05-10T12:16:59Z</time>
      </trkpt>
      <trkpt lat="43.15343" lon="3.01576">
        <ele>4.6</ele>
        <time>2024-05-10T12:17:00Z</time>
      </trkpt>
      <trkpt lat="43.15357" lon="3.01575">
        <ele>4.4</ele>
        <time>2024-05-10T12:17:01Z</time>
      </trkpt>
      <trkpt lat="43.1537" lon="3.01574">
        <ele>4.4</ele>
        <time>2024-05-10T12:17:02Z</time>
      </trkpt>
      <trkpt lat="43.15385" lon="3.01573">
        <ele>4.7</ele>
        <time>2024-05-10T12:17:03Z</time>
      </trkpt>
      <trkpt lat="43.15399" lon="3.01572">
        <ele>5</ele>
        <time>2024-05-10T12:17:04Z</time>
      </trkpt>
      <trkpt lat="43.15413" lon="3.01572">
        <ele>5.3</ele>
        <time>2024-05-10T12:17:05Z</time>
      </trkpt>
      <trkpt lat="43.15426" lon="3.01569">
        <ele>5.3</ele>
        <time>2024-05-10T12:17:06Z</time>
      </trkpt>
      <trkpt lat="43.15439" lon="3.01564">
        <ele>5.1</ele>
        <time>2024-05-10T12:17:07Z</time>
      </trkpt>
      <trkpt lat="43.15451" lon="3.01555">
        <ele>5</ele>
        <time>2024-05-10T12:17:08Z</time>
      </trkpt>
      <trkpt lat="43.15462" lon="3.01544">
        <ele>5.2</ele>
        <time>2024-05-10T12:17:09Z</time>
      </trkpt>
      <trkpt lat="43.15474" lon="3.01532">
        <ele>5</ele>
        <time>2024-05-10T12:17:10Z</time>
      </trkpt>
      <trkpt lat="43.15487" lon="3.01518">
        <ele>5.5</ele>
        <time>2024-05-10T12:17:11Z</time>
      </trkpt>
      <trkpt lat="43.15499" lon="3.01503">
        <ele>5.9</ele>
        <time>2024-05-10T12:17:12Z</time>
      </trkpt>
      <trkpt lat="43.15512" lon="3.01488">
        <ele>5.8</ele>
        <time>2024-05-10T12:17:13Z</time>
      </trkpt>
      <trkpt lat="43.15525" lon="3.01473">
        <ele>5.2</ele>
        <time>2024-05-10T12:17:14Z</time>
      </trkpt>
      <trkpt lat="43.15537" lon="3.01457">
        <ele>5.9</ele>
        <time>2024-05-10T12:17:15Z</time>
      </trkpt>
      <trkpt lat="43.1555" lon="3.01441">
        <ele>6.4</ele>
        <time>2024-05-10T12:17:16Z</time>
      </trkpt>
      <trkpt lat="43.15563" lon="3.01425">
        <ele>6.8</ele>
        <time>2024-05-10T12:17:17Z</time>
      </trkpt>
      <trkpt lat="43.15574" lon="3.0141">
        <ele>6.4</ele>
        <time>2024-05-10T12:17:18Z</time>
      </trkpt>
      <trkpt lat="43.15586" lon="3.01395">
        <ele>6.5</ele>
        <time>2024-05-10T12:17:19Z</time>
      </trkpt>
      <trkpt lat="43.15597" lon="3.0138">
        <ele>7</ele>
        <time>2024-05-10T12:17:20Z</time>
      </trkpt>
      <trkpt lat="43.15607" lon="3.01366">
        <ele>7.1</ele>
        <time>2024-05-10T12:17:21Z</time>
      </trkpt>
      <trkpt lat="43.15618" lon="3.01352">
        <ele>7.2</ele>
        <time>2024-05-10T12:17:22Z</time>
      </trkpt>
      <trkpt lat="43.15628" lon="3.01339">
        <ele>7</ele>
        <time>2024-05-10T12:17:23Z</time>
      </trkpt>
      <trkpt lat="43.15637" lon="3.01326">
        <ele>6.7</ele>
        <time>2024-05-10T12:17:24Z</time>
      </trkpt>
      <trkpt lat="43.15647" lon="3.01314">
        <ele>7</ele>
        <time>2024-05-10T12:17:25Z</time>
      </trkpt>
      <trkpt lat="43.15657" lon="3.01302">
        <ele>6.8</ele>
        <time>2024-05-10T12:17:26Z</time>
      </trkpt>
      <trkpt lat="43.15666" lon="3.0129">
        <ele>6.6</ele>
        <time>2024-05-10T12:17:27Z</time>
      </trkpt>
      <trkpt lat="43.15674" lon="3.01278">
        <ele>6.7</ele>
        <time>2024-05-10T12:17:28Z</time>
      </trkpt>
      <trkpt lat="43.15683" lon="3.01267">
        <ele>6.6</ele>
        <time>2024-05-10T12:17:29Z</time>
      </trkpt>
      <trkpt lat="43.15691" lon="3.01257">
        <ele>6.8</ele>
        <time>2024-05-10T12:17:30Z</time>
      </trkpt>
      <trkpt lat="43.15698" lon="3.01248">
        <ele>6.8</ele>
        <time>2024-05-10T12:17:31Z</time>
      </trkpt>
      <trkpt lat="43.15704" lon="3.01239">
        <ele>6.4</ele>
        <time>2024-05-10T12:17:32Z</time>
      </trkpt>
      <trkpt lat="43.15711" lon="3.01231">
        <ele>6.1</ele>
        <time>2024-05-10T12:17:33Z</time>
      </trkpt>
      <trkpt lat="43.15717" lon="3.01224">
        <ele>6</ele>
        <time>2024-05-10T12:17:34Z</time>
      </trkpt>
      <trkpt lat="43.15723" lon="3.01216">
        <ele>6</ele>
        <time>2024-05-10T12:17:35Z</time>
      </trkpt>
      <trkpt lat="43.15728" lon="3.01208">
        <ele>5.9</ele>
        <time>2024-05-10T12:17:36Z</time>
      </trkpt>
      <trkpt lat="43.15735" lon="3.012">
        <ele>5.9</ele>
        <time>2024-05-10T12:17:37Z</time>
      </trkpt>
      <trkpt lat="43.15741" lon="3.01192">
        <ele>6</ele>
        <time>2024-05-10T12:17:38Z</time>
      </trkpt>
      <trkpt lat="43.15747" lon="3.01184">
        <ele>6</ele>
        <time>2024-05-10T12:17:39Z</time>
      </trkpt>
      <trkpt lat="43.15753" lon="3.01176">
        <ele>6</ele>
        <time>2024-05-10T12:17:40Z</time>
      </trkpt>
      <trkpt lat="43.15758" lon="3.01169">
        <ele>6</ele>
        <time>2024-05-10T12:17:41Z</time>
      </trkpt>
      <trkpt lat="43.15764" lon="3.01162">
        <ele>6</ele>
        <time>2024-05-10T12:17:42Z</time>
      </trkpt>
      <trkpt lat="43.1577" lon="3.01154">
        <ele>6</ele>
        <time>2024-05-10T12:17:43Z</time>
      </trkpt>
      <trkpt lat="43.15775" lon="3.01147">
        <ele>6</ele>
        <time>2024-05-10T12:17:44Z</time>
      </trkpt>
      <trkpt lat="43.15781" lon="3.0114">
        <ele>6</ele>
        <time>2024-05-10T12:17:45Z</time>
      </trkpt>
      <trkpt lat="43.15786" lon="3.01133">
        <ele>6</ele>
        <time>2024-05-10T12:17:46Z</time>
      </trkpt>
      <trkpt lat="43.15792" lon="3.01128">
        <ele>6</ele>
        <time>2024-05-10T12:17:47Z</time>
      </trkpt>
      <trkpt lat="43.15797" lon="3.0112">
        <ele>6</ele>
        <time>2024-05-10T12:17:48Z</time>
      </trkpt>
      <trkpt lat="43.15803" lon="3.01113">
        <ele>6</ele>
        <time>2024-05-10T12:17:49Z</time>
      </trkpt>
      <trkpt lat="43.15809" lon="3.01106">
        <ele>6</ele>
        <time>2024-05-10T12:17:50Z</time>
      </trkpt>
      <trkpt lat="43.15813" lon="3.01101">
        <ele>6</ele>
        <time>2024-05-10T12:17:51Z</time>
      </trkpt>
      <trkpt lat="43.15816" lon="3.01097">
        <ele>6</ele>
        <time>2024-05-10T12:17:52Z</time>
      </trkpt>
      <trkpt lat="43.15818" lon="3.01093">
        <ele>6</ele>
        <time>2024-05-10T12:17:53Z</time>
      </trkpt>
      <trkpt lat="43.15819" lon="3.0109">
        <ele>6</ele>
        <time>2024-05-10T12:17:54Z</time>
      </trkpt>
      <trkpt lat="43.15818" lon="3.01087">
        <ele>6</ele>
        <time>2024-05-10T12:17:55Z</time>
      </trkpt>
      <trkpt lat="43.15818" lon="3.01085">
        <ele>6</ele>
        <time>2024-05-10T12:17:56Z</time>
      </trkpt>
      <trkpt lat="43.15817" lon="3.01084">
        <ele>6</ele>
        <time>2024-05-10T12:17:57Z</time>
      </trkpt>
      <trkpt lat="43.15817" lon="3.01084">
        <ele>6</ele>
        <time>2024-05-10T12:17:58Z</time>
      </trkpt>
      <trkpt lat="43.15816" lon="3.01084">
        <ele>6</ele>
        <time>2024-05-10T12:17:59Z</time>
      </trkpt>
      <trkpt lat="43.15816" lon="3.01083">
        <ele>6</ele>
        <time>2024-05-10T12:18:00Z</time>
      </trkpt>
      <trkpt lat="43.15816" lon="3.01083">
        <ele>6</ele>
        <time>2024-05-10T12:18:01Z</time>
      </trkpt>
      <trkpt lat="43.15814" lon="3.01082">
        <ele>6</ele>
        <time>2024-05-10T12:18:02Z</time>
      </trkpt>
      <trkpt lat="43.15809" lon="3.01079">
        <ele>6</ele>
        <time>2024-05-10T12:18:03Z</time>
      </trkpt>
      <trkpt lat="43.15802" lon="3.01076">
        <ele>6</ele>
        <time>2024-05-10T12:18:04Z</time>
      </trkpt>
      <trkpt lat="43.15795" lon="3.01073">
        <ele>6</ele>
        <time>2024-05-10T12:18:05Z</time>
      </trkpt>
      <trkpt lat="43.15786" lon="3.0107">
        <ele>6</ele>
        <time>2024-05-10T12:18:06Z</time>
      </trkpt>
      <trkpt lat="43.15776" lon="3.01065">
        <ele>6.1</ele>
        <time>2024-05-10T12:18:07Z</time>
      </trkpt>
      <trkpt lat="43.15764" lon="3.01061">
        <ele>6.5</ele>
        <time>2024-05-10T12:18:08Z</time>
      </trkpt>
      <trkpt lat="43.15754" lon="3.01056">
        <ele>6.9</ele>
        <time>2024-05-10T12:18:09Z</time>
      </trkpt>
      <trkpt lat="43.15744" lon="3.01053">
        <ele>7.2</ele>
        <time>2024-05-10T12:18:10Z</time>
      </trkpt>
      <trkpt lat="43.15733" lon="3.01049">
        <ele>7.6</ele>
        <time>2024-05-10T12:18:11Z</time>
      </trkpt>
      <trkpt lat="43.15722" lon="3.01044">
        <ele>8</ele>
        <time>2024-05-10T12:18:12Z</time>
      </trkpt>
      <trkpt lat="43.15711" lon="3.01039">
        <ele>8.4</ele>
        <time>2024-05-10T12:18:13Z</time>
      </trkpt>
      <trkpt lat="43.157" lon="3.01034">
        <ele>8.8</ele>
        <time>2024-05-10T12:18:14Z</time>
      </trkpt>
      <trkpt lat="43.1569" lon="3.01029">
        <ele>9.2</ele>
        <time>2024-05-10T12:18:15Z</time>
      </trkpt>
      <trkpt lat="43.15678" lon="3.01025">
        <ele>9.7</ele>
        <time>2024-05-10T12:18:16Z</time>
      </trkpt>
      <trkpt lat="43.15667" lon="3.0102">
        <ele>10.3</ele>
        <time>2024-05-10T12:18:17Z</time>
      </trkpt>
      <trkpt lat="43.15655" lon="3.01016">
        <ele>11.3</ele>
        <time>2024-05-10T12:18:18Z</time>
      </trkpt>
      <trkpt lat="43.15643" lon="3.01011">
        <ele>12.3</ele>
        <time>2024-05-10T12:18:19Z</time>
      </trkpt>
      <trkpt lat="43.15631" lon="3.01006">
        <ele>12.9</ele>
        <time>2024-05-10T12:18:20Z</time>
      </trkpt>
      <trkpt lat="43.15619" lon="3.00999">
        <ele>13</ele>
        <time>2024-05-10T12:18:21Z</time>
      </trkpt>
      <trkpt lat="43.15607" lon="3.00993">
        <ele>13.4</ele>
        <time>2024-05-10T12:18:22Z</time>
      </trkpt>
      <trkpt lat="43.15594" lon="3.00987">
        <ele>13.8</ele>
        <time>2024-05-10T12:18:23Z</time>
      </trkpt>
      <trkpt lat="43.15581" lon="3.00981">
        <ele>13.9</ele>
        <time>2024-05-10T12:18:24Z</time>
      </trkpt>
      <trkpt lat="43.15568" lon="3.00976">
        <ele>13.5</ele>
        <time>2024-05-10T12:18:25Z</time>
      </trkpt>
      <trkpt lat="43.15555" lon="3.00969">
        <ele>13.1</ele>
        <time>2024-05-10T12:18:26Z</time>
      </trkpt>
      <trkpt lat="43.15542" lon="3.00964">
        <ele>13.2</ele>
        <time>2024-05-10T12:18:27Z</time>
      </trkpt>
      <trkpt lat="43.15528" lon="3.00959">
        <ele>13</ele>
        <time>2024-05-10T12:18:28Z</time>
      </trkpt>
      <trkpt lat="43.15514" lon="3.00953">
        <ele>13</ele>
        <time>2024-05-10T12:18:29Z</time>
      </trkpt>
      <trkpt lat="43.155" lon="3.00948">
        <ele>13</ele>
        <time>2024-05-10T12:18:30Z</time>
      </trkpt>
      <trkpt lat="43.15486" lon="3.00943">
        <ele>12.5</ele>
        <time>2024-05-10T12:18:31Z</time>
      </trkpt>
      <trkpt lat="43.15471" lon="3.00938">
        <ele>12.2</ele>
        <time>2024-05-10T12:18:32Z</time>
      </trkpt>
      <trkpt lat="43.15456" lon="3.00932">
        <ele>12.2</ele>
        <time>2024-05-10T12:18:33Z</time>
      </trkpt>
      <trkpt lat="43.1544" lon="3.00926">
        <ele>11.8</ele>
        <time>2024-05-10T12:18:34Z</time>
      </trkpt>
      <trkpt lat="43.15424" lon="3.0092">
        <ele>11.3</ele>
        <time>2024-05-10T12:18:35Z</time>
      </trkpt>
      <trkpt lat="43.15409" lon="3.00914">
        <ele>10.8</ele>
        <time>2024-05-10T12:18:36Z</time>
      </trkpt>
      <trkpt lat="43.15393" lon="3.00909">
        <ele>10.4</ele>
        <time>2024-05-10T12:18:37Z</time>
      </trkpt>
      <trkpt lat="43.15377" lon="3.00904">
        <ele>10.7</ele>
        <time>2024-05-10T12:18:38Z</time>
      </trkpt>
      <trkpt lat="43.15361" lon="3.009">
        <ele>11</ele>
        <time>2024-05-10T12:18:39Z</time>
      </trkpt>
      <trkpt lat="43.15345" lon="3.00896">
        <ele>11.6</ele>
        <time>2024-05-10T12:18:40Z</time>
      </trkpt>
      <trkpt lat="43.15329" lon="3.00891">
        <ele>12</ele>
        <time>2024-05-10T12:18:41Z</time>
      </trkpt>
      <trkpt lat="43.15314" lon="3.00887">
        <ele>12</ele>
        <time>2024-05-10T12:18:42Z</time>
      </trkpt>
      <trkpt lat="43.153" lon="3.00883">
        <ele>12.4</ele>
        <time>2024-05-10T12:18:43Z</time>
      </trkpt>
      <trkpt lat="43.15286" lon="3.00879">
        <ele>12.8</ele>
        <time>2024-05-10T12:18:44Z</time>
      </trkpt>
      <trkpt lat="43.15273" lon="3.00875">
        <ele>12.9</ele>
        <time>2024-05-10T12:18:45Z</time>
      </trkpt>
      <trkpt lat="43.1526" lon="3.00871">
        <ele>12.8</ele>
        <time>2024-05-10T12:18:46Z</time>
      </trkpt>
      <trkpt lat="43.15245" lon="3.00868">
        <ele>12.8</ele>
        <time>2024-05-10T12:18:47Z</time>
      </trkpt>
      <trkpt lat="43.15231" lon="3.00864">
        <ele>12.9</ele>
        <time>2024-05-10T12:18:48Z</time>
      </trkpt>
      <trkpt lat="43.15216" lon="3.0086">
        <ele>12.8</ele>
        <time>2024-05-10T12:18:49Z</time>
      </trkpt>
      <trkpt lat="43.15202" lon="3.00856">
        <ele>12.4</ele>
        <time>2024-05-10T12:18:50Z</time>
      </trkpt>
      <trkpt lat="43.15186" lon="3.00852">
        <ele>12.3</ele>
        <time>2024-05-10T12:18:51Z</time>
      </trkpt>
      <trkpt lat="43.15171" lon="3.00847">
        <ele>12.5</ele>
        <time>2024-05-10T12:18:52Z</time>
      </trkpt>
      <trkpt lat="43.15155" lon="3.00842">
        <ele>12.7</ele>
        <time>2024-05-10T12:18:53Z</time>
      </trkpt>
      <trkpt lat="43.1514" lon="3.00836">
        <ele>12.9</ele>
        <time>2024-05-10T12:18:54Z</time>
      </trkpt>
      <trkpt lat="43.15126" lon="3.00831">
        <ele>12.5</ele>
        <time>2024-05-10T12:18:55Z</time>
      </trkpt>
      <trkpt lat="43.15111" lon="3.00826">
        <ele>12</ele>
        <time>2024-05-10T12:18:56Z</time>
      </trkpt>
      <trkpt lat="43.15096" lon="3.00821">
        <ele>12</ele>
        <time>2024-05-10T12:18:57Z</time>
      </trkpt>
      <trkpt lat="43.15082" lon="3.00815">
        <ele>12</ele>
        <time>2024-05-10T12:18:58Z</time>
      </trkpt>
      <trkpt lat="43.15069" lon="3.00811">
        <ele>12</ele>
        <time>2024-05-10T12:18:59Z</time>
      </trkpt>
      <trkpt lat="43.15055" lon="3.00805">
        <ele>12</ele>
        <time>2024-05-10T12:19:00Z</time>
      </trkpt>
      <trkpt lat="43.1504" lon="3.00801">
        <ele>12</ele>
        <time>2024-05-10T12:19:01Z</time>
      </trkpt>
      <trkpt lat="43.15026" lon="3.00796">
        <ele>12</ele>
        <time>2024-05-10T12:19:02Z</time>
      </trkpt>
      <trkpt lat="43.15013" lon="3.00792">
        <ele>12</ele>
        <time>2024-05-10T12:19:03Z</time>
      </trkpt>
      <trkpt lat="43.15" lon="3.00789">
        <ele>12</ele>
        <time>2024-05-10T12:19:04Z</time>
      </trkpt>
      <trkpt lat="43.14987" lon="3.00786">
        <ele>12</ele>
        <time>2024-05-10T12:19:05Z</time>
      </trkpt>
      <trkpt lat="43.14975" lon="3.00783">
        <ele>12</ele>
        <time>2024-05-10T12:19:06Z</time>
      </trkpt>
      <trkpt lat="43.14962" lon="3.00779">
        <ele>12</ele>
        <time>2024-05-10T12:19:07Z</time>
      </trkpt>
      <trkpt lat="43.14947" lon="3.00775">
        <ele>12</ele>
        <time>2024-05-10T12:19:08Z</time>
      </trkpt>
      <trkpt lat="43.14932" lon="3.00771">
        <ele>12</ele>
        <time>2024-05-10T12:19:09Z</time>
      </trkpt>
      <trkpt lat="43.14915" lon="3.00766">
        <ele>12</ele>
        <time>2024-05-10T12:19:10Z</time>
      </trkpt>
      <trkpt lat="43.14897" lon="3.00761">
        <ele>12</ele>
        <time>2024-05-10T12:19:11Z</time>
      </trkpt>
      <trkpt lat="43.14879" lon="3.00755">
        <ele>12</ele>
        <time>2024-05-10T12:19:12Z</time>
      </trkpt>
      <trkpt lat="43.14861" lon="3.00749">
        <ele>12</ele>
        <time>2024-05-10T12:19:13Z</time>
      </trkpt>
      <trkpt lat="43.14842" lon="3.00743">
        <ele>11.3</ele>
        <time>2024-05-10T12:19:14Z</time>
      </trkpt>
      <trkpt lat="43.14824" lon="3.00738">
        <ele>11.1</ele>
        <time>2024-05-10T12:19:15Z</time>
      </trkpt>
      <trkpt lat="43.14809" lon="3.00735">
        <ele>11.5</ele>
        <time>2024-05-10T12:19:16Z</time>
      </trkpt>
      <trkpt lat="43.14796" lon="3.00732">
        <ele>11.6</ele>
        <time>2024-05-10T12:19:17Z</time>
      </trkpt>
      <trkpt lat="43.14782" lon="3.00729">
        <ele>11.8</ele>
        <time>2024-05-10T12:19:18Z</time>
      </trkpt>
      <trkpt lat="43.14766" lon="3.00725">
        <ele>11.9</ele>
        <time>2024-05-10T12:19:19Z</time>
      </trkpt>
      <trkpt lat="43.14751" lon="3.00721">
        <ele>12</ele>
        <time>2024-05-10T12:19:20Z</time>
      </trkpt>
      <trkpt lat="43.14734" lon="3.00716">
        <ele>12</ele>
        <time>2024-05-10T12:19:21Z</time>
      </trkpt>
      <trkpt lat="43.14717" lon="3.00711">
        <ele>12</ele>
        <time>2024-05-10T12:19:22Z</time>
      </trkpt>
      <trkpt lat="43.14702" lon="3.00706">
        <ele>12</ele>
        <time>2024-05-10T12:19:23Z</time>
      </trkpt>
      <trkpt lat="43.14687" lon="3.00701">
        <ele>12.2</ele>
        <time>2024-05-10T12:19:24Z</time>
      </trkpt>
      <trkpt lat="43.14676" lon="3.00697">
        <ele>12.6</ele>
        <time>2024-05-10T12:19:25Z</time>
      </trkpt>
      <trkpt lat="43.14666" lon="3.00693">
        <ele>13</ele>
        <time>2024-05-10T12:19:26Z</time>
      </trkpt>
      <trkpt lat="43.14657" lon="3.00687">
        <ele>12.7</ele>
        <time>2024-05-10T12:19:27Z</time>
      </trkpt>
      <trkpt lat="43.14651" lon="3.00679">
        <ele>12.4</ele>
        <time>2024-05-10T12:19:28Z</time>
      </trkpt>
      <trkpt lat="43.14648" lon="3.00667">
        <ele>12.3</ele>
        <time>2024-05-10T12:19:29Z</time>
      </trkpt>
      <trkpt lat="43.1465" lon="3.00653">
        <ele>12.4</ele>
        <time>2024-05-10T12:19:30Z</time>
      </trkpt>
      <trkpt lat="43.14652" lon="3.00638">
        <ele>12.5</ele>
        <time>2024-05-10T12:19:31Z</time>
      </trkpt>
      <trkpt lat="43.14654" lon="3.00621">
        <ele>12.2</ele>
        <time>2024-05-10T12:19:32Z</time>
      </trkpt>
      <trkpt lat="43.14657" lon="3.00604">
        <ele>12</ele>
        <time>2024-05-10T12:19:33Z</time>
      </trkpt>
      <trkpt lat="43.14659" lon="3.00589">
        <ele>12</ele>
        <time>2024-05-10T12:19:34Z</time>
      </trkpt>
      <trkpt lat="43.14661" lon="3.00576">
        <ele>12</ele>
        <time>2024-05-10T12:19:35Z</time>
      </trkpt>
      <trkpt lat="43.14663" lon="3.00564">
        <ele>12</ele>
        <time>2024-05-10T12:19:36Z</time>
      </trkpt>
      <trkpt lat="43.14665" lon="3.00552">
        <ele>11.9</ele>
        <time>2024-05-10T12:19:37Z</time>
      </trkpt>
      <trkpt lat="43.14667" lon="3.0054">
        <ele>11.4</ele>
        <time>2024-05-10T12:19:38Z</time>
      </trkpt>
      <trkpt lat="43.14669" lon="3.00529">
        <ele>11</ele>
        <time>2024-05-10T12:19:39Z</time>
      </trkpt>
      <trkpt lat="43.14671" lon="3.00518">
        <ele>11</ele>
        <time>2024-05-10T12:19:40Z</time>
      </trkpt>
      <trkpt lat="43.14672" lon="3.00508">
        <ele>11</ele>
        <time>2024-05-10T12:19:41Z</time>
      </trkpt>
      <trkpt lat="43.14673" lon="3.00499">
        <ele>11</ele>
        <time>2024-05-10T12:19:42Z</time>
      </trkpt>
      <trkpt lat="43.14675" lon="3.0049">
        <ele>11</ele>
        <time>2024-05-10T12:19:43Z</time>
      </trkpt>
      <trkpt lat="43.14677" lon="3.00481">
        <ele>11</ele>
        <time>2024-05-10T12:19:44Z</time>
      </trkpt>
      <trkpt lat="43.14679" lon="3.00472">
        <ele>11</ele>
        <time>2024-05-10T12:19:45Z</time>
      </trkpt>
      <trkpt lat="43.14681" lon="3.00462">
        <ele>11</ele>
        <time>2024-05-10T12:19:46Z</time>
      </trkpt>
      <trkpt lat="43.14683" lon="3.00454">
        <ele>11</ele>
        <time>2024-05-10T12:19:47Z</time>
      </trkpt>
      <trkpt lat="43.14686" lon="3.00449">
        <ele>11</ele>
        <time>2024-05-10T12:19:48Z</time>
      </trkpt>
      <trkpt lat="43.14689" lon="3.00445">
        <ele>11</ele>
        <time>2024-05-10T12:19:49Z</time>
      </trkpt>
      <trkpt lat="43.14692" lon="3.00444">
        <ele>11</ele>
        <time>2024-05-10T12:19:50Z</time>
      </trkpt>
      <trkpt lat="43.14694" lon="3.00444">
        <ele>11</ele>
        <time>2024-05-10T12:19:51Z</time>
      </trkpt>
      <trkpt lat="43.14694" lon="3.00444">
        <ele>11</ele>
        <time>2024-05-10T12:19:52Z</time>
      </trkpt>
      <trkpt lat="43.14694" lon="3.00444">
        <ele>11</ele>
        <time>2024-05-10T12:19:53Z</time>
      </trkpt>
      <trkpt lat="43.14694" lon="3.00444">
        <ele>11</ele>
        <time>2024-05-10T12:19:54Z</time>
      </trkpt>
      <trkpt lat="43.14693" lon="3.00444">
        <ele>11</ele>
        <time>2024-05-10T12:19:55Z</time>
      </trkpt>
      <trkpt lat="43.14696" lon="3.00444">
        <ele>11.1</ele>
        <time>2024-05-10T12:19:56Z</time>
      </trkpt>
      <trkpt lat="43.14701" lon="3.00445">
        <ele>11.2</ele>
        <time>2024-05-10T12:19:57Z</time>
      </trkpt>
      <trkpt lat="43.14709" lon="3.00448">
        <ele>11.5</ele>
        <time>2024-05-10T12:19:58Z</time>
      </trkpt>
      <trkpt lat="43.14717" lon="3.00452">
        <ele>11.6</ele>
        <time>2024-05-10T12:19:59Z</time>
      </trkpt>
      <trkpt lat="43.14728" lon="3.00458">
        <ele>11.6</ele>
        <time>2024-05-10T12:20:00Z</time>
      </trkpt>
      <trkpt lat="43.1474" lon="3.00465">
        <ele>11.7</ele>
        <time>2024-05-10T12:20:01Z</time>
      </trkpt>
      <trkpt lat="43.14752" lon="3.00471">
        <ele>12</ele>
        <time>2024-05-10T12:20:02Z</time>
      </trkpt>
      <trkpt lat="43.14764" lon="3.00476">
        <ele>12</ele>
        <time>2024-05-10T12:20:03Z</time>
      </trkpt>
      <trkpt lat="43.14775" lon="3.0048">
        <ele>12</ele>
        <time>2024-05-10T12:20:04Z</time>
      </trkpt>
      <trkpt lat="43.14786" lon="3.00478">
        <ele>12.3</ele>
        <time>2024-05-10T12:20:05Z</time>
      </trkpt>
      <trkpt lat="43.14796" lon="3.00471">
        <ele>12.7</ele>
        <time>2024-05-10T12:20:06Z</time>
      </trkpt>
      <trkpt lat="43.14803" lon="3.00459">
        <ele>12.9</ele>
        <time>2024-05-10T12:20:07Z</time>
      </trkpt>
      <trkpt lat="43.14809" lon="3.00443">
        <ele>13</ele>
        <time>2024-05-10T12:20:08Z</time>
      </trkpt>
      <trkpt lat="43.14814" lon="3.00424">
        <ele>13</ele>
        <time>2024-05-10T12:20:09Z</time>
      </trkpt>
      <trkpt lat="43.1482" lon="3.00403">
        <ele>13</ele>
        <time>2024-05-10T12:20:10Z</time>
      </trkpt>
      <trkpt lat="43.14827" lon="3.00382">
        <ele>13</ele>
        <time>2024-05-10T12:20:11Z</time>
      </trkpt>
      <trkpt lat="43.14834" lon="3.00361">
        <ele>13</ele>
        <time>2024-05-10T12:20:12Z</time>
      </trkpt>
      <trkpt lat="43.14842" lon="3.00339">
        <ele>13</ele>
        <time>2024-05-10T12:20:13Z</time>
      </trkpt>
      <trkpt lat="43.14851" lon="3.00317">
        <ele>13</ele>
        <time>2024-05-10T12:20:14Z</time>
      </trkpt>
      <trkpt lat="43.14861" lon="3.00294">
        <ele>13</ele>
        <time>2024-05-10T12:20:15Z</time>
      </trkpt>
      <trkpt lat="43.14872" lon="3.00271">
        <ele>12.9</ele>
        <time>2024-05-10T12:20:16Z</time>
      </trkpt>
      <trkpt lat="43.14885" lon="3.00247">
        <ele>12.7</ele>
        <time>2024-05-10T12:20:17Z</time>
      </trkpt>
      <trkpt lat="43.14898" lon="3.00221">
        <ele>12.3</ele>
        <time>2024-05-10T12:20:18Z</time>
      </trkpt>
      <trkpt lat="43.14912" lon="3.00197">
        <ele>11.8</ele>
        <time>2024-05-10T12:20:19Z</time>
      </trkpt>
      <trkpt lat="43.14926" lon="3.00171">
        <ele>11.8</ele>
        <time>2024-05-10T12:20:20Z</time>
      </trkpt>
      <trkpt lat="43.14941" lon="3.00146">
        <ele>12.6</ele>
        <time>2024-05-10T12:20:21Z</time>
      </trkpt>
      <trkpt lat="43.14955" lon="3.00121">
        <ele>13</ele>
        <time>2024-05-10T12:20:22Z</time>
      </trkpt>
      <trkpt lat="43.1497" lon="3.00096">
        <ele>13.7</ele>
        <time>2024-05-10T12:20:23Z</time>
      </trkpt>
      <trkpt lat="43.14985" lon="3.00072">
        <ele>13.8</ele>
        <time>2024-05-10T12:20:24Z</time>
      </trkpt>
      <trkpt lat="43.15" lon="3.00047">
        <ele>14</ele>
        <time>2024-05-10T12:20:25Z</time>
      </trkpt>
      <trkpt lat="43.15015" lon="3.00023">
        <ele>14.5</ele>
        <time>2024-05-10T12:20:26Z</time>
      </trkpt>
      <trkpt lat="43.15031" lon="2.99997">
        <ele>15</ele>
        <time>2024-05-10T12:20:27Z</time>
      </trkpt>
      <trkpt lat="43.15046" lon="2.99972">
        <ele>15</ele>
        <time>2024-05-10T12:20:28Z</time>
      </trkpt>
      <trkpt lat="43.15063" lon="2.99947">
        <ele>15</ele>
        <time>2024-05-10T12:20:29Z</time>
      </trkpt>
      <trkpt lat="43.1508" lon="2.99924">
        <ele>14.9</ele>
        <time>2024-05-10T12:20:30Z</time>
      </trkpt>
      <trkpt lat="43.15099" lon="2.99901">
        <ele>14.8</ele>
        <time>2024-05-10T12:20:31Z</time>
      </trkpt>
      <trkpt lat="43.15117" lon="2.9988">
        <ele>14.7</ele>
        <time>2024-05-10T12:20:32Z</time>
      </trkpt>
      <trkpt lat="43.15136" lon="2.99861">
        <ele>14.9</ele>
        <time>2024-05-10T12:20:33Z</time>
      </trkpt>
      <trkpt lat="43.15155" lon="2.99845">
        <ele>14.8</ele>
        <time>2024-05-10T12:20:34Z</time>
      </trkpt>
      <trkpt lat="43.15174" lon="2.9983">
        <ele>15</ele>
        <time>2024-05-10T12:20:35Z</time>
      </trkpt>
      <trkpt lat="43.15194" lon="2.99816">
        <ele>15</ele>
        <time>2024-05-10T12:20:36Z</time>
      </trkpt>
      <trkpt lat="43.15214" lon="2.99803">
        <ele>15</ele>
        <time>2024-05-10T12:20:37Z</time>
      </trkpt>
      <trkpt lat="43.15235" lon="2.99791">
        <ele>15.2</ele>
        <time>2024-05-10T12:20:38Z</time>
      </trkpt>
      <trkpt lat="43.15257" lon="2.9978">
        <ele>15.1</ele>
        <time>2024-05-10T12:20:39Z</time>
      </trkpt>
      <trkpt lat="43.1528" lon="2.9977">
        <ele>15</ele>
        <time>2024-05-10T12:20:40Z</time>
      </trkpt>
      <trkpt lat="43.15303" lon="2.9976">
        <ele>15</ele>
        <time>2024-05-10T12:20:41Z</time>
      </trkpt>
      <trkpt lat="43.15325" lon="2.99751">
        <ele>15</ele>
        <time>2024-05-10T12:20:42Z</time>
      </trkpt>
      <trkpt lat="43.15346" lon="2.99742">
        <ele>14.7</ele>
        <time>2024-05-10T12:20:43Z</time>
      </trkpt>
      <trkpt lat="43.15367" lon="2.99733">
        <ele>14.6</ele>
        <time>2024-05-10T12:20:44Z</time>
      </trkpt>
      <trkpt lat="43.15387" lon="2.99723">
        <ele>15</ele>
        <time>2024-05-10T12:20:45Z</time>
      </trkpt>
      <trkpt lat="43.15407" lon="2.99715">
        <ele>14.3</ele>
        <time>2024-05-10T12:20:46Z</time>
      </trkpt>
      <trkpt lat="43.15426" lon="2.99706">
        <ele>14.4</ele>
        <time>2024-05-10T12:20:47Z</time>
      </trkpt>
      <trkpt lat="43.15445" lon="2.99697">
        <ele>14.8</ele>
        <time>2024-05-10T12:20:48Z</time>
      </trkpt>
      <trkpt lat="43.15464" lon="2.99686">
        <ele>14.5</ele>
        <time>2024-05-10T12:20:49Z</time>
      </trkpt>
      <trkpt lat="43.15485" lon="2.99674">
        <ele>15</ele>
        <time>2024-05-10T12:20:50Z</time>
      </trkpt>
      <trkpt lat="43.15506" lon="2.99663">
        <ele>15.1</ele>
        <time>2024-05-10T12:20:51Z</time>
      </trkpt>
      <trkpt lat="43.15528" lon="2.99651">
        <ele>15.6</ele>
        <time>2024-05-10T12:20:52Z</time>
      </trkpt>
      <trkpt lat="43.15551" lon="2.99639">
        <ele>15.2</ele>
        <time>2024-05-10T12:20:53Z</time>
      </trkpt>
      <trkpt lat="43.15573" lon="2.99625">
        <ele>15.5</ele>
        <time>2024-05-10T12:20:54Z</time>
      </trkpt>
      <trkpt lat="43.15595" lon="2.99611">
        <ele>15.6</ele>
        <time>2024-05-10T12:20:55Z</time>
      </trkpt>
      <trkpt lat="43.15616" lon="2.99597">
        <ele>15.6</ele>
        <time>2024-05-10T12:20:56Z</time>
      </trkpt>
      <trkpt lat="43.15636" lon="2.99584">
        <ele>16</ele>
        <time>2024-05-10T12:20:57Z</time>
      </trkpt>
      <trkpt lat="43.15654" lon="2.99572">
        <ele>15.9</ele>
        <time>2024-05-10T12:20:58Z</time>
      </trkpt>
      <trkpt lat="43.1567" lon="2.99561">
        <ele>15.8</ele>
        <time>2024-05-10T12:20:59Z</time>
      </trkpt>
      <trkpt lat="43.15683" lon="2.9955">
        <ele>15.6</ele>
        <time>2024-05-10T12:21:00Z</time>
      </trkpt>
      <trkpt lat="43.15695" lon="2.99541">
        <ele>15.5</ele>
        <time>2024-05-10T12:21:01Z</time>
      </trkpt>
      <trkpt lat="43.15705" lon="2.99532">
        <ele>16</ele>
        <time>2024-05-10T12:21:02Z</time>
      </trkpt>
      <trkpt lat="43.15715" lon="2.99524">
        <ele>16.1</ele>
        <time>2024-05-10T12:21:03Z</time>
      </trkpt>
      <trkpt lat="43.15725" lon="2.99516">
        <ele>16.5</ele>
        <time>2024-05-10T12:21:04Z</time>
      </trkpt>
      <trkpt lat="43.15735" lon="2.99508">
        <ele>16.8</ele>
        <time>2024-05-10T12:21:05Z</time>
      </trkpt>
      <trkpt lat="43.15744" lon="2.99501">
        <ele>17</ele>
        <time>2024-05-10T12:21:06Z</time>
      </trkpt>
      <trkpt lat="43.15752" lon="2.99495">
        <ele>17</ele>
        <time>2024-05-10T12:21:07Z</time>
      </trkpt>
      <trkpt lat="43.15758" lon="2.9949">
        <ele>17.1</ele>
        <time>2024-05-10T12:21:08Z</time>
      </trkpt>
      <trkpt lat="43.15761" lon="2.99488">
        <ele>17.2</ele>
        <time>2024-05-10T12:21:09Z</time>
      </trkpt>
      <trkpt lat="43.15764" lon="2.99487">
        <ele>17.2</ele>
        <time>2024-05-10T12:21:10Z</time>
      </trkpt>
      <trkpt lat="43.15765" lon="2.99487">
        <ele>17.3</ele>
        <time>2024-05-10T12:21:11Z</time>
      </trkpt>
      <trkpt lat="43.15766" lon="2.99487">
        <ele>17.3</ele>
        <time>2024-05-10T12:21:12Z</time>
      </trkpt>
      <trkpt lat="43.15766" lon="2.99487">
        <ele>17.3</ele>
        <time>2024-05-10T12:21:13Z</time>
      </trkpt>
      <trkpt lat="43.15765" lon="2.99487">
        <ele>17.3</ele>
        <time>2024-05-10T12:21:14Z</time>
      </trkpt>
      <trkpt lat="43.15765" lon="2.99488">
        <ele>17.2</ele>
        <time>2024-05-10T12:21:15Z</time>
      </trkpt>
      <trkpt lat="43.15766" lon="2.99488">
        <ele>17.2</ele>
        <time>2024-05-10T12:21:16Z</time>
      </trkpt>
      <trkpt lat="43.1577" lon="2.99488">
        <ele>17.3</ele>
        <time>2024-05-10T12:21:17Z</time>
      </trkpt>
      <trkpt lat="43.15776" lon="2.99488">
        <ele>17.4</ele>
        <time>2024-05-10T12:21:18Z</time>
      </trkpt>
      <trkpt lat="43.15784" lon="2.99485">
        <ele>17.5</ele>
        <time>2024-05-10T12:21:19Z</time>
      </trkpt>
      <trkpt lat="43.1579" lon="2.9948">
        <ele>17.7</ele>
        <time>2024-05-10T12:21:20Z</time>
      </trkpt>
      <trkpt lat="43.15796" lon="2.99471">
        <ele>18</ele>
        <time>2024-05-10T12:21:21Z</time>
      </trkpt>
      <trkpt lat="43.15799" lon="2.99459">
        <ele>17.6</ele>
        <time>2024-05-10T12:21:22Z</time>
      </trkpt>
      <trkpt lat="43.158" lon="2.99445">
        <ele>17.2</ele>
        <time>2024-05-10T12:21:23Z</time>
      </trkpt>
      <trkpt lat="43.15801" lon="2.99431">
        <ele>17.1</ele>
        <time>2024-05-10T12:21:24Z</time>
      </trkpt>
      <trkpt lat="43.15805" lon="2.99417">
        <ele>17</ele>
        <time>2024-05-10T12:21:25Z</time>
      </trkpt>
      <trkpt lat="43.15812" lon="2.99402">
        <ele>17</ele>
        <time>2024-05-10T12:21:26Z</time>
      </trkpt>
      <trkpt lat="43.15819" lon="2.99387">
        <ele>17</ele>
        <time>2024-05-10T12:21:27Z</time>
      </trkpt>
      <trkpt lat="43.15828" lon="2.99369">
        <ele>17.1</ele>
        <time>2024-05-10T12:21:28Z</time>
      </trkpt>
      <trkpt lat="43.15836" lon="2.99351">
        <ele>17.4</ele>
        <time>2024-05-10T12:21:29Z</time>
      </trkpt>
      <trkpt lat="43.15844" lon="2.9933">
        <ele>18</ele>
        <time>2024-05-10T12:21:30Z</time>
      </trkpt>
      <trkpt lat="43.15852" lon="2.99307">
        <ele>18</ele>
        <time>2024-05-10T12:21:31Z</time>
      </trkpt>
      <trkpt lat="43.1586" lon="2.99281">
        <ele>18.8</ele>
        <time>2024-05-10T12:21:32Z</time>
      </trkpt>
      <trkpt lat="43.15867" lon="2.99257">
        <ele>18.4</ele>
        <time>2024-05-10T12:21:33Z</time>
      </trkpt>
      <trkpt lat="43.15873" lon="2.99233">
        <ele>18.4</ele>
        <time>2024-05-10T12:21:34Z</time>
      </trkpt>
      <trkpt lat="43.1588" lon="2.99209">
        <ele>18.8</ele>
        <time>2024-05-10T12:21:35Z</time>
      </trkpt>
      <trkpt lat="43.15887" lon="2.99184">
        <ele>19</ele>
        <time>2024-05-10T12:21:36Z</time>
      </trkpt>
      <trkpt lat="43.15895" lon="2.9916">
        <ele>19.1</ele>
        <time>2024-05-10T12:21:37Z</time>
      </trkpt>
      <trkpt lat="43.15904" lon="2.99137">
        <ele>20</ele>
        <time>2024-05-10T12:21:38Z</time>
      </trkpt>
      <trkpt lat="43.15913" lon="2.99115">
        <ele>19.2</ele>
        <time>2024-05-10T12:21:39Z</time>
      </trkpt>
      <trkpt lat="43.15922" lon="2.99095">
        <ele>19.2</ele>
        <time>2024-05-10T12:21:40Z</time>
      </trkpt>
      <trkpt lat="43.15932" lon="2.99075">
        <ele>19.8</ele>
        <time>2024-05-10T12:21:41Z</time>
      </trkpt>
      <trkpt lat="43.15942" lon="2.99057">
        <ele>19.1</ele>
        <time>2024-05-10T12:21:42Z</time>
      </trkpt>
      <trkpt lat="43.15952" lon="2.99041">
        <ele>19.1</ele>
        <time>2024-05-10T12:21:43Z</time>
      </trkpt>
      <trkpt lat="43.15963" lon="2.99026">
        <ele>16.6</ele>
        <time>2024-05-10T12:21:44Z</time>
      </trkpt>
      <trkpt lat="43.15973" lon="2.99011">
        <ele>15</ele>
        <time>2024-05-10T12:21:45Z</time>
      </trkpt>
      <trkpt lat="43.15984" lon="2.98997">
        <ele>15.6</ele>
        <time>2024-05-10T12:21:46Z</time>
      </trkpt>
      <trkpt lat="43.15995" lon="2.98984">
        <ele>17.2</ele>
        <time>2024-05-10T12:21:47Z</time>
      </trkpt>
      <trkpt lat="43.16007" lon="2.98972">
        <ele>19.8</ele>
        <time>2024-05-10T12:21:48Z</time>
      </trkpt>
      <trkpt lat="43.16019" lon="2.98961">
        <ele>21</ele>
        <time>2024-05-10T12:21:49Z</time>
      </trkpt>
      <trkpt lat="43.1603" lon="2.98951">
        <ele>21.2</ele>
        <time>2024-05-10T12:21:50Z</time>
      </trkpt>
      <trkpt lat="43.16042" lon="2.98942">
        <ele>21</ele>
        <time>2024-05-10T12:21:51Z</time>
      </trkpt>
      <trkpt lat="43.16052" lon="2.98935">
        <ele>20.7</ele>
        <time>2024-05-10T12:21:52Z</time>
      </trkpt>
      <trkpt lat="43.1606" lon="2.98929">
        <ele>20.4</ele>
        <time>2024-05-10T12:21:53Z</time>
      </trkpt>
      <trkpt lat="43.16068" lon="2.98924">
        <ele>20.4</ele>
        <time>2024-05-10T12:21:54Z</time>
      </trkpt>
      <trkpt lat="43.16076" lon="2.9892">
        <ele>20.6</ele>
        <time>2024-05-10T12:21:55Z</time>
      </trkpt>
      <trkpt lat="43.16085" lon="2.98915">
        <ele>20.9</ele>
        <time>2024-05-10T12:21:56Z</time>
      </trkpt>
      <trkpt lat="43.16094" lon="2.9891">
        <ele>20.5</ele>
        <time>2024-05-10T12:21:57Z</time>
      </trkpt>
      <trkpt lat="43.16105" lon="2.98905">
        <ele>20.1</ele>
        <time>2024-05-10T12:21:58Z</time>
      </trkpt>
      <trkpt lat="43.16117" lon="2.989">
        <ele>19.9</ele>
        <time>2024-05-10T12:21:59Z</time>
      </trkpt>
      <trkpt lat="43.16129" lon="2.98897">
        <ele>19.8</ele>
        <time>2024-05-10T12:22:00Z</time>
      </trkpt>
      <trkpt lat="43.16141" lon="2.98894">
        <ele>19.7</ele>
        <time>2024-05-10T12:22:01Z</time>
      </trkpt>
      <trkpt lat="43.16153" lon="2.9889">
        <ele>19.5</ele>
        <time>2024-05-10T12:22:02Z</time>
      </trkpt>
      <trkpt lat="43.16165" lon="2.98888">
        <ele>19.1</ele>
        <time>2024-05-10T12:22:03Z</time>
      </trkpt>
      <trkpt lat="43.16177" lon="2.98885">
        <ele>19.1</ele>
        <time>2024-05-10T12:22:04Z</time>
      </trkpt>
      <trkpt lat="43.16187" lon="2.98884">
        <ele>19</ele>
        <time>2024-05-10T12:22:05Z</time>
      </trkpt>
      <trkpt lat="43.16196" lon="2.98884">
        <ele>19</ele>
        <time>2024-05-10T12:22:06Z</time>
      </trkpt>
      <trkpt lat="43.16203" lon="2.98884">
        <ele>19</ele>
        <time>2024-05-10T12:22:07Z</time>
      </trkpt>
      <trkpt lat="43.16208" lon="2.98884">
        <ele>19</ele>
        <time>2024-05-10T12:22:08Z</time>
      </trkpt>
      <trkpt lat="43.16213" lon="2.98884">
        <ele>19</ele>
        <time>2024-05-10T12:22:09Z</time>
      </trkpt>
      <trkpt lat="43.16218" lon="2.98885">
        <ele>19</ele>
        <time>2024-05-10T12:22:10Z</time>
      </trkpt>
      <trkpt lat="43.16223" lon="2.98885">
        <ele>19</ele>
        <time>2024-05-10T12:22:11Z</time>
      </trkpt>
      <trkpt lat="43.16227" lon="2.98886">
        <ele>18.8</ele>
        <time>2024-05-10T12:22:12Z</time>
      </trkpt>
      <trkpt lat="43.1623" lon="2.98888">
        <ele>18.7</ele>
        <time>2024-05-10T12:22:13Z</time>
      </trkpt>
      <trkpt lat="43.16232" lon="2.98889">
        <ele>18.6</ele>
        <time>2024-05-10T12:22:14Z</time>
      </trkpt>
      <trkpt lat="43.16234" lon="2.98891">
        <ele>18.6</ele>
        <time>2024-05-10T12:22:15Z</time>
      </trkpt>
      <trkpt lat="43.16236" lon="2.98892">
        <ele>18.6</ele>
        <time>2024-05-10T12:22:16Z</time>
      </trkpt>
      <trkpt lat="43.16236" lon="2.98892">
        <ele>18.6</ele>
        <time>2024-05-10T12:22:17Z</time>
      </trkpt>
      <trkpt lat="43.16236" lon="2.98892">
        <ele>18.6</ele>
        <time>2024-05-10T12:22:18Z</time>
      </trkpt>
      <trkpt lat="43.16236" lon="2.98892">
        <ele>18.6</ele>
        <time>2024-05-10T12:22:19Z</time>
      </trkpt>
      <trkpt lat="43.16237" lon="2.98892">
        <ele>18.5</ele>
        <time>2024-05-10T12:22:20Z</time>
      </trkpt>
      <trkpt lat="43.1624" lon="2.98896">
        <ele>18.5</ele>
        <time>2024-05-10T12:22:21Z</time>
      </trkpt>
      <trkpt lat="43.16245" lon="2.989">
        <ele>18.5</ele>
        <time>2024-05-10T12:22:22Z</time>
      </trkpt>
      <trkpt lat="43.16251" lon="2.98904">
        <ele>18.5</ele>
        <time>2024-05-10T12:22:23Z</time>
      </trkpt>
      <trkpt lat="43.16258" lon="2.98905">
        <ele>18.6</ele>
        <time>2024-05-10T12:22:24Z</time>
      </trkpt>
      <trkpt lat="43.16264" lon="2.98904">
        <ele>18.5</ele>
        <time>2024-05-10T12:22:25Z</time>
      </trkpt>
      <trkpt lat="43.16269" lon="2.98903">
        <ele>18.5</ele>
        <time>2024-05-10T12:22:26Z</time>
      </trkpt>
      <trkpt lat="43.16274" lon="2.989">
        <ele>18.4</ele>
        <time>2024-05-10T12:22:27Z</time>
      </trkpt>
      <trkpt lat="43.16278" lon="2.98897">
        <ele>18.3</ele>
        <time>2024-05-10T12:22:28Z</time>
      </trkpt>
      <trkpt lat="43.16283" lon="2.98897">
        <ele>18.3</ele>
        <time>2024-05-10T12:22:29Z</time>
      </trkpt>
      <trkpt lat="43.16287" lon="2.98896">
        <ele>18.3</ele>
        <time>2024-05-10T12:22:30Z</time>
      </trkpt>
      <trkpt lat="43.16292" lon="2.98897">
        <ele>18.3</ele>
        <time>2024-05-10T12:22:31Z</time>
      </trkpt>
      <trkpt lat="43.16296" lon="2.98899">
        <ele>18.4</ele>
        <time>2024-05-10T12:22:32Z</time>
      </trkpt>
      <trkpt lat="43.16299" lon="2.98902">
        <ele>18.5</ele>
        <time>2024-05-10T12:22:33Z</time>
      </trkpt>
      <trkpt lat="43.16302" lon="2.98907">
        <ele>18.7</ele>
        <time>2024-05-10T12:22:34Z</time>
      </trkpt>
      <trkpt lat="43.16303" lon="2.98912">
        <ele>18.8</ele>
        <time>2024-05-10T12:22:35Z</time>
      </trkpt>
      <trkpt lat="43.16304" lon="2.98917">
        <ele>19</ele>
        <time>2024-05-10T12:22:36Z</time>
      </trkpt>
      <trkpt lat="43.16305" lon="2.98923">
        <ele>19</ele>
        <time>2024-05-10T12:22:37Z</time>
      </trkpt>
      <trkpt lat="43.16304" lon="2.98929">
        <ele>19</ele>
        <time>2024-05-10T12:22:38Z</time>
      </trkpt>
      <trkpt lat="43.16304" lon="2.98934">
        <ele>19</ele>
        <time>2024-05-10T12:22:39Z</time>
      </trkpt>
      <trkpt lat="43.16303" lon="2.98939">
        <ele>19</ele>
        <time>2024-05-10T12:22:40Z</time>
      </trkpt>
      <trkpt lat="43.16302" lon="2.98944">
        <ele>19</ele>
        <time>2024-05-10T12:22:41Z</time>
      </trkpt>
      <trkpt lat="43.163" lon="2.98949">
        <ele>19</ele>
        <time>2024-05-10T12:22:42Z</time>
      </trkpt>
      <trkpt lat="43.16298" lon="2.98954">
        <ele>19</ele>
        <time>2024-05-10T12:22:43Z</time>
      </trkpt>
      <trkpt lat="43.16295" lon="2.98959">
        <ele>19</ele>
        <time>2024-05-10T12:22:44Z</time>
      </trkpt>
      <trkpt lat="43.16291" lon="2.98962">
        <ele>19</ele>
        <time>2024-05-10T12:22:45Z</time>
      </trkpt>
      <trkpt lat="43.16287" lon="2.98965">
        <ele>19</ele>
        <time>2024-05-10T12:22:46Z</time>
      </trkpt>
      <trkpt lat="43.16283" lon="2.98966">
        <ele>19</ele>
        <time>2024-05-10T12:22:47Z</time>
      </trkpt>
      <trkpt lat="43.16278" lon="2.98967">
        <ele>19</ele>
        <time>2024-05-10T12:22:48Z</time>
      </trkpt>
      <trkpt lat="43.16274" lon="2.98968">
        <ele>18.9</ele>
        <time>2024-05-10T12:22:49Z</time>
      </trkpt>
      <trkpt lat="43.16267" lon="2.98967">
        <ele>18.7</ele>
        <time>2024-05-10T12:22:50Z</time>
      </trkpt>
      <trkpt lat="43.16263" lon="2.98967">
        <ele>18.6</ele>
        <time>2024-05-10T12:22:51Z</time>
      </trkpt>
      <trkpt lat="43.16258" lon="2.98968">
        <ele>18.4</ele>
        <time>2024-05-10T12:22:52Z</time>
      </trkpt>
      <trkpt lat="43.16253" lon="2.98969">
        <ele>18.2</ele>
        <time>2024-05-10T12:22:53Z</time>
      </trkpt>
      <trkpt lat="43.16248" lon="2.9897">
        <ele>18.1</ele>
        <time>2024-05-10T12:22:54Z</time>
      </trkpt>
      <trkpt lat="43.16242" lon="2.98971">
        <ele>18.3</ele>
        <time>2024-05-10T12:22:55Z</time>
      </trkpt>
      <trkpt lat="43.16236" lon="2.9897">
        <ele>18.5</ele>
        <time>2024-05-10T12:22:56Z</time>
      </trkpt>
      <trkpt lat="43.1623" lon="2.98969">
        <ele>18.8</ele>
        <time>2024-05-10T12:22:57Z</time>
      </trkpt>
      <trkpt lat="43.16225" lon="2.98966">
        <ele>18.9</ele>
        <time>2024-05-10T12:22:58Z</time>
      </trkpt>
      <trkpt lat="43.16222" lon="2.98961">
        <ele>19</ele>
        <time>2024-05-10T12:22:59Z</time>
      </trkpt>
      <trkpt lat="43.16219" lon="2.98956">
        <ele>19</ele>
        <time>2024-05-10T12:23:00Z</time>
      </trkpt>
      <trkpt lat="43.16218" lon="2.9895">
        <ele>19</ele>
        <time>2024-05-10T12:23:01Z</time>
      </trkpt>
      <trkpt lat="43.16217" lon="2.98945">
        <ele>19</ele>
        <time>2024-05-10T12:23:02Z</time>
      </trkpt>
      <trkpt lat="43.16218" lon="2.98942">
        <ele>19</ele>
        <time>2024-05-10T12:23:03Z</time>
      </trkpt>
      <trkpt lat="43.16218" lon="2.98939">
        <ele>19</ele>
        <time>2024-05-10T12:23:04Z</time>
      </trkpt>
      <trkpt lat="43.16219" lon="2.98936">
        <ele>19</ele>
        <time>2024-05-10T12:23:05Z</time>
      </trkpt>
      <trkpt lat="43.16219" lon="2.98933">
        <ele>19</ele>
        <time>2024-05-10T12:23:06Z</time>
      </trkpt>
      <trkpt lat="43.1622" lon="2.9893">
        <ele>19</ele>
        <time>2024-05-10T12:23:07Z</time>
      </trkpt>
      <trkpt lat="43.16221" lon="2.98926">
        <ele>19</ele>
        <time>2024-05-10T12:23:08Z</time>
      </trkpt>
      <trkpt lat="43.16222" lon="2.98924">
        <ele>19</ele>
        <time>2024-05-10T12:23:09Z</time>
      </trkpt>
      <trkpt lat="43.16223" lon="2.98921">
        <ele>19</ele>
        <time>2024-05-10T12:23:10Z</time>
      </trkpt>
      <trkpt lat="43.16225" lon="2.98919">
        <ele>19</ele>
        <time>2024-05-10T12:23:11Z</time>
      </trkpt>
      <trkpt lat="43.16227" lon="2.98916">
        <ele>19</ele>
        <time>2024-05-10T12:23:12Z</time>
      </trkpt>
      <trkpt lat="43.16229" lon="2.98914">
        <ele>19</ele>
        <time>2024-05-10T12:23:13Z</time>
      </trkpt>
      <trkpt lat="43.16231" lon="2.98912">
        <ele>18.9</ele>
        <time>2024-05-10T12:23:14Z</time>
      </trkpt>
      <trkpt lat="43.16235" lon="2.98908">
        <ele>18.9</ele>
        <time>2024-05-10T12:23:15Z</time>
      </trkpt>
      <trkpt lat="43.1624" lon="2.98906">
        <ele>18.8</ele>
        <time>2024-05-10T12:23:16Z</time>
      </trkpt>
      <trkpt lat="43.16246" lon="2.98906">
        <ele>18.7</ele>
        <time>2024-05-10T12:23:17Z</time>
      </trkpt>
      <trkpt lat="43.16253" lon="2.98907">
        <ele>18.7</ele>
        <time>2024-05-10T12:23:18Z</time>
      </trkpt>
      <trkpt lat="43.1626" lon="2.98906">
        <ele>18.6</ele>
        <time>2024-05-10T12:23:19Z</time>
      </trkpt>
      <trkpt lat="43.16267" lon="2.98903">
        <ele>18.5</ele>
        <time>2024-05-10T12:23:20Z</time>
      </trkpt>
      <trkpt lat="43.16273" lon="2.98898">
        <ele>18.3</ele>
        <time>2024-05-10T12:23:21Z</time>
      </trkpt>
      <trkpt lat="43.16279" lon="2.9889">
        <ele>18</ele>
        <time>2024-05-10T12:23:22Z</time>
      </trkpt>
      <trkpt lat="43.16286" lon="2.98883">
        <ele>18</ele>
        <time>2024-05-10T12:23:23Z</time>
      </trkpt>
      <trkpt lat="43.16294" lon="2.98878">
        <ele>18</ele>
        <time>2024-05-10T12:23:24Z</time>
      </trkpt>
      <trkpt lat="43.16304" lon="2.98874">
        <ele>18</ele>
        <time>2024-05-10T12:23:25Z</time>
      </trkpt>
      <trkpt lat="43.16316" lon="2.98872">
        <ele>17.8</ele>
        <time>2024-05-10T12:23:26Z</time>
      </trkpt>
      <trkpt lat="43.16327" lon="2.98872">
        <ele>17.5</ele>
        <time>2024-05-10T12:23:27Z</time>
      </trkpt>
      <trkpt lat="43.16339" lon="2.98872">
        <ele>17.4</ele>
        <time>2024-05-10T12:23:28Z</time>
      </trkpt>
      <trkpt lat="43.16351" lon="2.98872">
        <ele>17.4</ele>
        <time>2024-05-10T12:23:29Z</time>
      </trkpt>
      <trkpt lat="43.16363" lon="2.98871">
        <ele>17.3</ele>
        <time>2024-05-10T12:23:30Z</time>
      </trkpt>
      <trkpt lat="43.16375" lon="2.98871">
        <ele>17.2</ele>
        <time>2024-05-10T12:23:31Z</time>
      </trkpt>
      <trkpt lat="43.16384" lon="2.98871">
        <ele>17.1</ele>
        <time>2024-05-10T12:23:32Z</time>
      </trkpt>
      <trkpt lat="43.16392" lon="2.98871">
        <ele>17</ele>
        <time>2024-05-10T12:23:33Z</time>
      </trkpt>
      <trkpt lat="43.16398" lon="2.98871">
        <ele>17</ele>
        <time>2024-05-10T12:23:34Z</time>
      </trkpt>
      <trkpt lat="43.16404" lon="2.9887">
        <ele>16.8</ele>
        <time>2024-05-10T12:23:35Z</time>
      </trkpt>
      <trkpt lat="43.16409" lon="2.9887">
        <ele>16.7</ele>
        <time>2024-05-10T12:23:36Z</time>
      </trkpt>
      <trkpt lat="43.16412" lon="2.9887">
        <ele>16.7</ele>
        <time>2024-05-10T12:23:37Z</time>
      </trkpt>
      <trkpt lat="43.16415" lon="2.9887">
        <ele>16.7</ele>
        <time>2024-05-10T12:23:38Z</time>
      </trkpt>
      <trkpt lat="43.16418" lon="2.98869">
        <ele>16.6</ele>
        <time>2024-05-10T12:23:39Z</time>
      </trkpt>
      <trkpt lat="43.16422" lon="2.98869">
        <ele>16.5</ele>
        <time>2024-05-10T12:23:40Z</time>
      </trkpt>
      <trkpt lat="43.16426" lon="2.98869">
        <ele>16.5</ele>
        <time>2024-05-10T12:23:41Z</time>
      </trkpt>
      <trkpt lat="43.16431" lon="2.98869">
        <ele>16.4</ele>
        <time>2024-05-10T12:23:42Z</time>
      </trkpt>
      <trkpt lat="43.16437" lon="2.98869">
        <ele>16.4</ele>
        <time>2024-05-10T12:23:43Z</time>
      </trkpt>
      <trkpt lat="43.16443" lon="2.9887">
        <ele>16.3</ele>
        <time>2024-05-10T12:23:44Z</time>
      </trkpt>
      <trkpt lat="43.1645" lon="2.98873">
        <ele>16.6</ele>
        <time>2024-05-10T12:23:45Z</time>
      </trkpt>
      <trkpt lat="43.16455" lon="2.98876">
        <ele>16.9</ele>
        <time>2024-05-10T12:23:46Z</time>
      </trkpt>
      <trkpt lat="43.16459" lon="2.98881">
        <ele>17.2</ele>
        <time>2024-05-10T12:23:47Z</time>
      </trkpt>
      <trkpt lat="43.16461" lon="2.98885">
        <ele>17.5</ele>
        <time>2024-05-10T12:23:48Z</time>
      </trkpt>
      <trkpt lat="43.16462" lon="2.98888">
        <ele>17.6</ele>
        <time>2024-05-10T12:23:49Z</time>
      </trkpt>
      <trkpt lat="43.16463" lon="2.9889">
        <ele>17.7</ele>
        <time>2024-05-10T12:23:50Z</time>
      </trkpt>
      <trkpt lat="43.16463" lon="2.98891">
        <ele>17.6</ele>
        <time>2024-05-10T12:23:51Z</time>
      </trkpt>
      <trkpt lat="43.16463" lon="2.98891">
        <ele>17.6</ele>
        <time>2024-05-10T12:23:52Z</time>
      </trkpt>
      <trkpt lat="43.16463" lon="2.98891">
        <ele>17.6</ele>
        <time>2024-05-10T12:23:53Z</time>
      </trkpt>
      <trkpt lat="43.16463" lon="2.98891">
        <ele>17.6</ele>
        <time>2024-05-10T12:23:54Z</time>
      </trkpt>
      <trkpt lat="43.16462" lon="2.98891">
        <ele>17.6</ele>
        <time>2024-05-10T12:23:55Z</time>
      </trkpt>
      <trkpt lat="43.16462" lon="2.98892">
        <ele>17.6</ele>
        <time>2024-05-10T12:23:56Z</time>
      </trkpt>
      <trkpt lat="43.16462" lon="2.98892">
        <ele>17.6</ele>
        <time>2024-05-10T12:23:57Z</time>
      </trkpt>
      <trkpt lat="43.16462" lon="2.98892">
        <ele>17.6</ele>
        <time>2024-05-10T12:23:58Z</time>
      </trkpt>
      <trkpt lat="43.16462" lon="2.98891">
        <ele>17.6</ele>
        <time>2024-05-10T12:23:59Z</time>
      </trkpt>
      <trkpt lat="43.16462" lon="2.98891">
        <ele>17.6</ele>
        <time>2024-05-10T12:24:00Z</time>
      </trkpt>
      <trkpt lat="43.16462" lon="2.98891">
        <ele>17.6</ele>
        <time>2024-05-10T12:24:01Z</time>
      </trkpt>
      <trkpt lat="43.16462" lon="2.98893">
        <ele>17.6</ele>
        <time>2024-05-10T12:24:02Z</time>
      </trkpt>
      <trkpt lat="43.16463" lon="2.98897">
        <ele>17.6</ele>
        <time>2024-05-10T12:24:03Z</time>
      </trkpt>
      <trkpt lat="43.16463" lon="2.98904">
        <ele>17.5</ele>
        <time>2024-05-10T12:24:04Z</time>
      </trkpt>
      <trkpt lat="43.16464" lon="2.98912">
        <ele>17.4</ele>
        <time>2024-05-10T12:24:05Z</time>
      </trkpt>
      <trkpt lat="43.16465" lon="2.98921">
        <ele>17.4</ele>
        <time>2024-05-10T12:24:06Z</time>
      </trkpt>
      <trkpt lat="43.16466" lon="2.9893">
        <ele>17.7</ele>
        <time>2024-05-10T12:24:07Z</time>
      </trkpt>
      <trkpt lat="43.16467" lon="2.98937">
        <ele>17.9</ele>
        <time>2024-05-10T12:24:08Z</time>
      </trkpt>
      <trkpt lat="43.1647" lon="2.98943">
        <ele>18</ele>
        <time>2024-05-10T12:24:09Z</time>
      </trkpt>
      <trkpt lat="43.16472" lon="2.98948">
        <ele>18</ele>
        <time>2024-05-10T12:24:10Z</time>
      </trkpt>
      <trkpt lat="43.16476" lon="2.98953">
        <ele>18</ele>
        <time>2024-05-10T12:24:11Z</time>
      </trkpt>
      <trkpt lat="43.16481" lon="2.98956">
        <ele>18</ele>
        <time>2024-05-10T12:24:12Z</time>
      </trkpt>
      <trkpt lat="43.16486" lon="2.98959">
        <ele>18</ele>
        <time>2024-05-10T12:24:13Z</time>
      </trkpt>
      <trkpt lat="43.16491" lon="2.9896">
        <ele>18</ele>
        <time>2024-05-10T12:24:14Z</time>
      </trkpt>
      <trkpt lat="43.16497" lon="2.9896">
        <ele>18</ele>
        <time>2024-05-10T12:24:15Z</time>
      </trkpt>
      <trkpt lat="43.16504" lon="2.98957">
        <ele>17.9</ele>
        <time>2024-05-10T12:24:16Z</time>
      </trkpt>
      <trkpt lat="43.16511" lon="2.98953">
        <ele>17.9</ele>
        <time>2024-05-10T12:24:17Z</time>
      </trkpt>
      <trkpt lat="43.1652" lon="2.98945">
        <ele>18</ele>
        <time>2024-05-10T12:24:18Z</time>
      </trkpt>
      <trkpt lat="43.16528" lon="2.98932">
        <ele>17.5</ele>
        <time>2024-05-10T12:24:19Z</time>
      </trkpt>
      <trkpt lat="43.16537" lon="2.98915">
        <ele>16.1</ele>
        <time>2024-05-10T12:24:20Z</time>
      </trkpt>
      <trkpt lat="43.16544" lon="2.98896">
        <ele>16.9</ele>
        <time>2024-05-10T12:24:21Z</time>
      </trkpt>
      <trkpt lat="43.16548" lon="2.98874">
        <ele>17.1</ele>
        <time>2024-05-10T12:24:22Z</time>
      </trkpt>
      <trkpt lat="43.16549" lon="2.98851">
        <ele>17.1</ele>
        <time>2024-05-10T12:24:23Z</time>
      </trkpt>
      <trkpt lat="43.1655" lon="2.98828">
        <ele>17</ele>
        <time>2024-05-10T12:24:24Z</time>
      </trkpt>
      <trkpt lat="43.16552" lon="2.98804">
        <ele>16.2</ele>
        <time>2024-05-10T12:24:25Z</time>
      </trkpt>
      <trkpt lat="43.16558" lon="2.9878">
        <ele>16.8</ele>
        <time>2024-05-10T12:24:26Z</time>
      </trkpt>
      <trkpt lat="43.16566" lon="2.98757">
        <ele>16.2</ele>
        <time>2024-05-10T12:24:27Z</time>
      </trkpt>
      <trkpt lat="43.16576" lon="2.98735">
        <ele>15.2</ele>
        <time>2024-05-10T12:24:28Z</time>
      </trkpt>
      <trkpt lat="43.16586" lon="2.98714">
        <ele>15.4</ele>
        <time>2024-05-10T12:24:29Z</time>
      </trkpt>
      <trkpt lat="43.16595" lon="2.98696">
        <ele>13.5</ele>
        <time>2024-05-10T12:24:30Z</time>
      </trkpt>
      <trkpt lat="43.16603" lon="2.98681">
        <ele>10.9</ele>
        <time>2024-05-10T12:24:31Z</time>
      </trkpt>
      <trkpt lat="43.1661" lon="2.98668">
        <ele>10</ele>
        <time>2024-05-10T12:24:32Z</time>
      </trkpt>
      <trkpt lat="43.16616" lon="2.98656">
        <ele>11.6</ele>
        <time>2024-05-10T12:24:33Z</time>
      </trkpt>
      <trkpt lat="43.16622" lon="2.98645">
        <ele>12.9</ele>
        <time>2024-05-10T12:24:34Z</time>
      </trkpt>
      <trkpt lat="43.16629" lon="2.98634">
        <ele>13.3</ele>
        <time>2024-05-10T12:24:35Z</time>
      </trkpt>
      <trkpt lat="43.16635" lon="2.98625">
        <ele>13.9</ele>
        <time>2024-05-10T12:24:36Z</time>
      </trkpt>
      <trkpt lat="43.1664" lon="2.98617">
        <ele>15</ele>
        <time>2024-05-10T12:24:37Z</time>
      </trkpt>
      <trkpt lat="43.16645" lon="2.98611">
        <ele>15.3</ele>
        <time>2024-05-10T12:24:38Z</time>
      </trkpt>
      <trkpt lat="43.16648" lon="2.98606">
        <ele>15</ele>
        <time>2024-05-10T12:24:39Z</time>
      </trkpt>
      <trkpt lat="43.16651" lon="2.98603">
        <ele>14.8</ele>
        <time>2024-05-10T12:24:40Z</time>
      </trkpt>
      <trkpt lat="43.16653" lon="2.98601">
        <ele>14.7</ele>
        <time>2024-05-10T12:24:41Z</time>
      </trkpt>
      <trkpt lat="43.16654" lon="2.986">
        <ele>14.6</ele>
        <time>2024-05-10T12:24:42Z</time>
      </trkpt>
      <trkpt lat="43.16655" lon="2.98599">
        <ele>14.6</ele>
        <time>2024-05-10T12:24:43Z</time>
      </trkpt>
      <trkpt lat="43.16657" lon="2.98598">
        <ele>14.5</ele>
        <time>2024-05-10T12:24:44Z</time>
      </trkpt>
      <trkpt lat="43.16658" lon="2.98598">
        <ele>14.4</ele>
        <time>2024-05-10T12:24:45Z</time>
      </trkpt>
      <trkpt lat="43.16659" lon="2.98597">
        <ele>14.4</ele>
        <time>2024-05-10T12:24:46Z</time>
      </trkpt>
      <trkpt lat="43.16661" lon="2.98596">
        <ele>14.4</ele>
        <time>2024-05-10T12:24:47Z</time>
      </trkpt>
      <trkpt lat="43.16663" lon="2.98595">
        <ele>14.3</ele>
        <time>2024-05-10T12:24:48Z</time>
      </trkpt>
      <trkpt lat="43.16665" lon="2.98595">
        <ele>14.2</ele>
        <time>2024-05-10T12:24:49Z</time>
      </trkpt>
      <trkpt lat="43.16667" lon="2.98595">
        <ele>14.2</ele>
        <time>2024-05-10T12:24:50Z</time>
      </trkpt>
      <trkpt lat="43.1667" lon="2.98595">
        <ele>14.1</ele>
        <time>2024-05-10T12:24:51Z</time>
      </trkpt>
      <trkpt lat="43.16673" lon="2.98594">
        <ele>14.1</ele>
        <time>2024-05-10T12:24:52Z</time>
      </trkpt>
      <trkpt lat="43.16675" lon="2.98594">
        <ele>14</ele>
        <time>2024-05-10T12:24:53Z</time>
      </trkpt>
      <trkpt lat="43.16678" lon="2.98594">
        <ele>14</ele>
        <time>2024-05-10T12:24:54Z</time>
      </trkpt>
      <trkpt lat="43.16681" lon="2.98595">
        <ele>13.9</ele>
        <time>2024-05-10T12:24:55Z</time>
      </trkpt>
      <trkpt lat="43.16684" lon="2.98597">
        <ele>13.7</ele>
        <time>2024-05-10T12:24:56Z</time>
      </trkpt>
      <trkpt lat="43.16691" lon="2.98603">
        <ele>13.3</ele>
        <time>2024-05-10T12:24:57Z</time>
      </trkpt>
      <trkpt lat="43.16697" lon="2.98609">
        <ele>12.7</ele>
        <time>2024-05-10T12:24:58Z</time>
      </trkpt>
      <trkpt lat="43.16702" lon="2.98618">
        <ele>11.4</ele>
        <time>2024-05-10T12:24:59Z</time>
      </trkpt>
      <trkpt lat="43.16707" lon="2.98628">
        <ele>10.5</ele>
        <time>2024-05-10T12:25:00Z</time>
      </trkpt>
      <trkpt lat="43.1671" lon="2.98641">
        <ele>9.9</ele>
        <time>2024-05-10T12:25:01Z</time>
      </trkpt>
      <trkpt lat="43.1671" lon="2.98655">
        <ele>9.4</ele>
        <time>2024-05-10T12:25:02Z</time>
      </trkpt>
      <trkpt lat="43.16707" lon="2.98668">
        <ele>9</ele>
        <time>2024-05-10T12:25:03Z</time>
      </trkpt>
      <trkpt lat="43.16702" lon="2.98679">
        <ele>9.3</ele>
        <time>2024-05-10T12:25:04Z</time>
      </trkpt>
      <trkpt lat="43.16696" lon="2.98688">
        <ele>9.7</ele>
        <time>2024-05-10T12:25:05Z</time>
      </trkpt>
      <trkpt lat="43.16688" lon="2.98695">
        <ele>9.8</ele>
        <time>2024-05-10T12:25:06Z</time>
      </trkpt>
      <trkpt lat="43.16679" lon="2.987">
        <ele>9.5</ele>
        <time>2024-05-10T12:25:07Z</time>
      </trkpt>
      <trkpt lat="43.16669" lon="2.987">
        <ele>9.3</ele>
        <time>2024-05-10T12:25:08Z</time>
      </trkpt>
      <trkpt lat="43.16658" lon="2.98698">
        <ele>9.4</ele>
        <time>2024-05-10T12:25:09Z</time>
      </trkpt>
      <trkpt lat="43.16646" lon="2.98693">
        <ele>9.7</ele>
        <time>2024-05-10T12:25:10Z</time>
      </trkpt>
      <trkpt lat="43.16635" lon="2.98686">
        <ele>9.7</ele>
        <time>2024-05-10T12:25:11Z</time>
      </trkpt>
      <trkpt lat="43.16624" lon="2.98678">
        <ele>9.7</ele>
        <time>2024-05-10T12:25:12Z</time>
      </trkpt>
      <trkpt lat="43.16613" lon="2.98672">
        <ele>9.9</ele>
        <time>2024-05-10T12:25:13Z</time>
      </trkpt>
      <trkpt lat="43.16601" lon="2.98663">
        <ele>10.4</ele>
        <time>2024-05-10T12:25:14Z</time>
      </trkpt>
      <trkpt lat="43.16588" lon="2.98655">
        <ele>10.4</ele>
        <time>2024-05-10T12:25:15Z</time>
      </trkpt>
      <trkpt lat="43.16576" lon="2.98647">
        <ele>9.9</ele>
        <time>2024-05-10T12:25:16Z</time>
      </trkpt>
      <trkpt lat="43.16563" lon="2.98638">
        <ele>10</ele>
        <time>2024-05-10T12:25:17Z</time>
      </trkpt>
      <trkpt lat="43.1655" lon="2.98629">
        <ele>10</ele>
        <time>2024-05-10T12:25:18Z</time>
      </trkpt>
      <trkpt lat="43.16537" lon="2.9862">
        <ele>10</ele>
        <time>2024-05-10T12:25:19Z</time>
      </trkpt>
      <trkpt lat="43.16525" lon="2.98611">
        <ele>10</ele>
        <time>2024-05-10T12:25:20Z</time>
      </trkpt>
      <trkpt lat="43.16514" lon="2.98603">
        <ele>10</ele>
        <time>2024-05-10T12:25:21Z</time>
      </trkpt>
      <trkpt lat="43.16502" lon="2.98595">
        <ele>10</ele>
        <time>2024-05-10T12:25:22Z</time>
      </trkpt>
      <trkpt lat="43.1649" lon="2.98586">
        <ele>10</ele>
        <time>2024-05-10T12:25:23Z</time>
      </trkpt>
      <trkpt lat="43.16478" lon="2.98578">
        <ele>10.2</ele>
        <time>2024-05-10T12:25:24Z</time>
      </trkpt>
      <trkpt lat="43.16465" lon="2.98569">
        <ele>10.5</ele>
        <time>2024-05-10T12:25:25Z</time>
      </trkpt>
      <trkpt lat="43.16452" lon="2.98559">
        <ele>10.9</ele>
        <time>2024-05-10T12:25:26Z</time>
      </trkpt>
      <trkpt lat="43.16437" lon="2.98549">
        <ele>10.7</ele>
        <time>2024-05-10T12:25:27Z</time>
      </trkpt>
      <trkpt lat="43.16421" lon="2.98537">
        <ele>10.2</ele>
        <time>2024-05-10T12:25:28Z</time>
      </trkpt>
      <trkpt lat="43.16403" lon="2.98525">
        <ele>10.2</ele>
        <time>2024-05-10T12:25:29Z</time>
      </trkpt>
      <trkpt lat="43.16386" lon="2.98513">
        <ele>10.5</ele>
        <time>2024-05-10T12:25:30Z</time>
      </trkpt>
      <trkpt lat="43.16369" lon="2.98501">
        <ele>10.3</ele>
        <time>2024-05-10T12:25:31Z</time>
      </trkpt>
      <trkpt lat="43.16351" lon="2.98489">
        <ele>10.2</ele>
        <time>2024-05-10T12:25:32Z</time>
      </trkpt>
      <trkpt lat="43.16335" lon="2.98477">
        <ele>10.2</ele>
        <time>2024-05-10T12:25:33Z</time>
      </trkpt>
      <trkpt lat="43.16319" lon="2.98466">
        <ele>10</ele>
        <time>2024-05-10T12:25:34Z</time>
      </trkpt>
      <trkpt lat="43.16304" lon="2.98454">
        <ele>10</ele>
        <time>2024-05-10T12:25:35Z</time>
      </trkpt>
      <trkpt lat="43.16289" lon="2.98444">
        <ele>10</ele>
        <time>2024-05-10T12:25:36Z</time>
      </trkpt>
      <trkpt lat="43.16273" lon="2.98433">
        <ele>10</ele>
        <time>2024-05-10T12:25:37Z</time>
      </trkpt>
      <trkpt lat="43.16258" lon="2.98422">
        <ele>10</ele>
        <time>2024-05-10T12:25:38Z</time>
      </trkpt>
      <trkpt lat="43.16243" lon="2.98411">
        <ele>9.9</ele>
        <time>2024-05-10T12:25:39Z</time>
      </trkpt>
      <trkpt lat="43.16228" lon="2.98401">
        <ele>9.6</ele>
        <time>2024-05-10T12:25:40Z</time>
      </trkpt>
      <trkpt lat="43.16214" lon="2.9839">
        <ele>9.1</ele>
        <time>2024-05-10T12:25:41Z</time>
      </trkpt>
      <trkpt lat="43.16202" lon="2.98381">
        <ele>9.1</ele>
        <time>2024-05-10T12:25:42Z</time>
      </trkpt>
      <trkpt lat="43.1619" lon="2.98371">
        <ele>9.1</ele>
        <time>2024-05-10T12:25:43Z</time>
      </trkpt>
      <trkpt lat="43.16178" lon="2.98362">
        <ele>9</ele>
        <time>2024-05-10T12:25:44Z</time>
      </trkpt>
      <trkpt lat="43.16166" lon="2.98353">
        <ele>8.7</ele>
        <time>2024-05-10T12:25:45Z</time>
      </trkpt>
      <trkpt lat="43.16155" lon="2.98345">
        <ele>8.7</ele>
        <time>2024-05-10T12:25:46Z</time>
      </trkpt>
      <trkpt lat="43.16144" lon="2.98338">
        <ele>8.8</ele>
        <time>2024-05-10T12:25:47Z</time>
      </trkpt>
      <trkpt lat="43.16133" lon="2.98331">
        <ele>8.8</ele>
        <time>2024-05-10T12:25:48Z</time>
      </trkpt>
      <trkpt lat="43.16123" lon="2.98324">
        <ele>8.6</ele>
        <time>2024-05-10T12:25:49Z</time>
      </trkpt>
      <trkpt lat="43.16113" lon="2.98318">
        <ele>8.6</ele>
        <time>2024-05-10T12:25:50Z</time>
      </trkpt>
      <trkpt lat="43.16103" lon="2.98312">
        <ele>8.8</ele>
        <time>2024-05-10T12:25:51Z</time>
      </trkpt>
      <trkpt lat="43.16096" lon="2.98307">
        <ele>8.9</ele>
        <time>2024-05-10T12:25:52Z</time>
      </trkpt>
      <trkpt lat="43.1609" lon="2.98303">
        <ele>9</ele>
        <time>2024-05-10T12:25:53Z</time>
      </trkpt>
      <trkpt lat="43.16086" lon="2.983">
        <ele>9</ele>
        <time>2024-05-10T12:25:54Z</time>
      </trkpt>
      <trkpt lat="43.16082" lon="2.98297">
        <ele>9</ele>
        <time>2024-05-10T12:25:55Z</time>
      </trkpt>
      <trkpt lat="43.16079" lon="2.98295">
        <ele>8.8</ele>
        <time>2024-05-10T12:25:56Z</time>
      </trkpt>
      <trkpt lat="43.16075" lon="2.98293">
        <ele>8.7</ele>
        <time>2024-05-10T12:25:57Z</time>
      </trkpt>
      <trkpt lat="43.16072" lon="2.98291">
        <ele>8.6</ele>
        <time>2024-05-10T12:25:58Z</time>
      </trkpt>
      <trkpt lat="43.16069" lon="2.98289">
        <ele>8.5</ele>
        <time>2024-05-10T12:25:59Z</time>
      </trkpt>
      <trkpt lat="43.16066" lon="2.98287">
        <ele>8.4</ele>
        <time>2024-05-10T12:26:00Z</time>
      </trkpt>
      <trkpt lat="43.16063" lon="2.98285">
        <ele>8.3</ele>
        <time>2024-05-10T12:26:01Z</time>
      </trkpt>
      <trkpt lat="43.1606" lon="2.98283">
        <ele>8.2</ele>
        <time>2024-05-10T12:26:02Z</time>
      </trkpt>
      <trkpt lat="43.16058" lon="2.98281">
        <ele>8.1</ele>
        <time>2024-05-10T12:26:03Z</time>
      </trkpt>
      <trkpt lat="43.16055" lon="2.98279">
        <ele>8</ele>
        <time>2024-05-10T12:26:04Z</time>
      </trkpt>
      <trkpt lat="43.16053" lon="2.98277">
        <ele>8</ele>
        <time>2024-05-10T12:26:05Z</time>
      </trkpt>
      <trkpt lat="43.16051" lon="2.98274">
        <ele>8.1</ele>
        <time>2024-05-10T12:26:06Z</time>
      </trkpt>
      <trkpt lat="43.16049" lon="2.98272">
        <ele>8.2</ele>
        <time>2024-05-10T12:26:07Z</time>
      </trkpt>
      <trkpt lat="43.16047" lon="2.98271">
        <ele>8.2</ele>
        <time>2024-05-10T12:26:08Z</time>
      </trkpt>
      <trkpt lat="43.16046" lon="2.98269">
        <ele>8.2</ele>
        <time>2024-05-10T12:26:09Z</time>
      </trkpt>
      <trkpt lat="43.16044" lon="2.98267">
        <ele>8.2</ele>
        <time>2024-05-10T12:26:10Z</time>
      </trkpt>
      <trkpt lat="43.16043" lon="2.98265">
        <ele>8.3</ele>
        <time>2024-05-10T12:26:11Z</time>
      </trkpt>
      <trkpt lat="43.16042" lon="2.98264">
        <ele>8.3</ele>
        <time>2024-05-10T12:26:12Z</time>
      </trkpt>
      <trkpt lat="43.16042" lon="2.98263">
        <ele>8.3</ele>
        <time>2024-05-10T12:26:13Z</time>
      </trkpt>
      <trkpt lat="43.16042" lon="2.98262">
        <ele>8.3</ele>
        <time>2024-05-10T12:26:14Z</time>
      </trkpt>
      <trkpt lat="43.16042" lon="2.98262">
        <ele>8.3</ele>
        <time>2024-05-10T12:26:15Z</time>
      </trkpt>
      <trkpt lat="43.16043" lon="2.98261">
        <ele>8.3</ele>
        <time>2024-05-10T12:26:16Z</time>
      </trkpt>
      <trkpt lat="43.16043" lon="2.98261">
        <ele>8.3</ele>
        <time>2024-05-10T12:26:17Z</time>
      </trkpt>
      <trkpt lat="43.16043" lon="2.98261">
        <ele>8.3</ele>
        <time>2024-05-10T12:26:18Z</time>
      </trkpt>
      <trkpt lat="43.16043" lon="2.98261">
        <ele>8.3</ele>
        <time>2024-05-10T12:26:19Z</time>
      </trkpt>
      <trkpt lat="43.16043" lon="2.98261">
        <ele>8.3</ele>
        <time>2024-05-10T12:26:20Z</time>
      </trkpt>
      <trkpt lat="43.16043" lon="2.98261">
        <ele>8.3</ele>
        <time>2024-05-10T12:26:21Z</time>
      </trkpt>
      <trkpt lat="43.16043" lon="2.98261">
        <ele>8.3</ele>
        <time>2024-05-10T12:26:22Z</time>
      </trkpt>
      <trkpt lat="43.16043" lon="2.98262">
        <ele>8.3</ele>
        <time>2024-05-10T12:26:23Z</time>
      </trkpt>
      <trkpt lat="43.16043" lon="2.98262">
        <ele>8.3</ele>
        <time>2024-05-10T12:26:24Z</time>
      </trkpt>
      <trkpt lat="43.16043" lon="2.98262">
        <ele>8.3</ele>
        <time>2024-05-10T12:26:25Z</time>
      </trkpt>
      <trkpt lat="43.16043" lon="2.98261">
        <ele>8.3</ele>
        <time>2024-05-10T12:26:26Z</time>
      </trkpt>
      <trkpt lat="43.16042" lon="2.98261">
        <ele>8.3</ele>
        <time>2024-05-10T12:26:27Z</time>
      </trkpt>
      <trkpt lat="43.16042" lon="2.98262">
        <ele>8.3</ele>
        <time>2024-05-10T12:26:28Z</time>
      </trkpt>
      <trkpt lat="43.16041" lon="2.98262">
        <ele>8.3</ele>
        <time>2024-05-10T12:26:29Z</time>
      </trkpt>
      <trkpt lat="43.16041" lon="2.98263">
        <ele>8.3</ele>
        <time>2024-05-10T12:26:30Z</time>
      </trkpt>
      <trkpt lat="43.16041" lon="2.98263">
        <ele>8.3</ele>
        <time>2024-05-10T12:26:31Z</time>
      </trkpt>
      <trkpt lat="43.16041" lon="2.98263">
        <ele>8.3</ele>
        <time>2024-05-10T12:26:32Z</time>
      </trkpt>
      <trkpt lat="43.1604" lon="2.98263">
        <ele>8.2</ele>
        <time>2024-05-10T12:26:33Z</time>
      </trkpt>
      <trkpt lat="43.1604" lon="2.98264">
        <ele>8.2</ele>
        <time>2024-05-10T12:26:34Z</time>
      </trkpt>
      <trkpt lat="43.1604" lon="2.98264">
        <ele>8.2</ele>
        <time>2024-05-10T12:26:35Z</time>
      </trkpt>
      <trkpt lat="43.1604" lon="2.98264">
        <ele>8.2</ele>
        <time>2024-05-10T12:26:36Z</time>
      </trkpt>
      <trkpt lat="43.1604" lon="2.98264">
        <ele>8.2</ele>
        <time>2024-05-10T12:26:37Z</time>
      </trkpt>
      <trkpt lat="43.1604" lon="2.98264">
        <ele>8.2</ele>
        <time>2024-05-10T12:26:38Z</time>
      </trkpt>
      <trkpt lat="43.16039" lon="2.98264">
        <ele>8.2</ele>
        <time>2024-05-10T12:26:39Z</time>
      </trkpt>
      <trkpt lat="43.16039" lon="2.98264">
        <ele>8.2</ele>
        <time>2024-05-10T12:26:40Z</time>
      </trkpt>
      <trkpt lat="43.16039" lon="2.98264">
        <ele>8.2</ele>
        <time>2024-05-10T12:26:41Z</time>
      </trkpt>
      <trkpt lat="43.16039" lon="2.98265">
        <ele>8.2</ele>
        <time>2024-05-10T12:26:42Z</time>
      </trkpt>
      <trkpt lat="43.16039" lon="2.98265">
        <ele>8.2</ele>
        <time>2024-05-10T12:26:43Z</time>
      </trkpt>
      <trkpt lat="43.16039" lon="2.98265">
        <ele>8.2</ele>
        <time>2024-05-10T12:26:44Z</time>
      </trkpt>
      <trkpt lat="43.16039" lon="2.98265">
        <ele>8.2</ele>
        <time>2024-05-10T12:26:45Z</time>
      </trkpt>
      <trkpt lat="43.16039" lon="2.98265">
        <ele>8.2</ele>
        <time>2024-05-10T12:26:46Z</time>
      </trkpt>
      <trkpt lat="43.16039" lon="2.98265">
        <ele>8.2</ele>
        <time>2024-05-10T12:26:47Z</time>
      </trkpt>
      <trkpt lat="43.16039" lon="2.98265">
        <ele>8.2</ele>
        <time>2024-05-10T12:26:48Z</time>
      </trkpt>
      <trkpt lat="43.16039" lon="2.98265">
        <ele>8.2</ele>
        <time>2024-05-10T12:26:49Z</time>
      </trkpt>
      <trkpt lat="43.16039" lon="2.98264">
        <ele>8.2</ele>
        <time>2024-05-10T12:26:50Z</time>
      </trkpt>
      <trkpt lat="43.16039" lon="2.98264">
        <ele>8.2</ele>
        <time>2024-05-10T12:26:51Z</time>
      </trkpt>
      <trkpt lat="43.16039" lon="2.98264">
        <ele>8.2</ele>
        <time>2024-05-10T12:26:52Z</time>
      </trkpt>
      <trkpt lat="43.16039" lon="2.98264">
        <ele>8.2</ele>
        <time>2024-05-10T12:26:53Z</time>
      </trkpt>
      <trkpt lat="43.16039" lon="2.98264">
        <ele>8.2</ele>
        <time>2024-05-10T12:26:54Z</time>
      </trkpt>
      <trkpt lat="43.16039" lon="2.98264">
        <ele>8.2</ele>
        <time>2024-05-10T12:26:55Z</time>
      </trkpt>
      <trkpt lat="43.16039" lon="2.98264">
        <ele>8.2</ele>
        <time>2024-05-10T12:26:56Z</time>
      </trkpt>
      <trkpt lat="43.16039" lon="2.98264">
        <ele>8.2</ele>
        <time>2024-05-10T12:26:57Z</time>
      </trkpt>
      <trkpt lat="43.16039" lon="2.98264">
        <ele>8.2</ele>
        <time>2024-05-10T12:26:58Z</time>
      </trkpt>
      <trkpt lat="43.16038" lon="2.98264">
        <ele>8.2</ele>
        <time>2024-05-10T12:26:59Z</time>
      </trkpt>
      <trkpt lat="43.16037" lon="2.98263">
        <ele>8.2</ele>
        <time>2024-05-10T12:27:00Z</time>
      </trkpt>
      <trkpt lat="43.16035" lon="2.98262">
        <ele>8.1</ele>
        <time>2024-05-10T12:27:01Z</time>
      </trkpt>
      <trkpt lat="43.16033" lon="2.98261">
        <ele>8.1</ele>
        <time>2024-05-10T12:27:02Z</time>
      </trkpt>
      <trkpt lat="43.16033" lon="2.98261">
        <ele>8.1</ele>
        <time>2024-05-10T12:27:03Z</time>
      </trkpt>
      <trkpt lat="43.16033" lon="2.9826">
        <ele>8.1</ele>
        <time>2024-05-10T12:27:04Z</time>
      </trkpt>
      <trkpt lat="43.16033" lon="2.9826">
        <ele>8.1</ele>
        <time>2024-05-10T12:27:05Z</time>
      </trkpt>
      <trkpt lat="43.16034" lon="2.9826">
        <ele>8.1</ele>
        <time>2024-05-10T12:27:06Z</time>
      </trkpt>
      <trkpt lat="43.16034" lon="2.9826">
        <ele>8.1</ele>
        <time>2024-05-10T12:27:07Z</time>
      </trkpt>
      <trkpt lat="43.16034" lon="2.9826">
        <ele>8.1</ele>
        <time>2024-05-10T12:27:08Z</time>
      </trkpt>
      <trkpt lat="43.16034" lon="2.9826">
        <ele>8.1</ele>
        <time>2024-05-10T12:27:09Z</time>
      </trkpt>
      <trkpt lat="43.16034" lon="2.9826">
        <ele>8.1</ele>
        <time>2024-05-10T12:27:10Z</time>
      </trkpt>
      <trkpt lat="43.16034" lon="2.98259">
        <ele>8.2</ele>
        <time>2024-05-10T12:27:11Z</time>
      </trkpt>
      <trkpt lat="43.16034" lon="2.98259">
        <ele>8.2</ele>
        <time>2024-05-10T12:27:12Z</time>
      </trkpt>
      <trkpt lat="43.16034" lon="2.98259">
        <ele>8.2</ele>
        <time>2024-05-10T12:27:13Z</time>
      </trkpt>
      <trkpt lat="43.16034" lon="2.98259">
        <ele>8.2</ele>
        <time>2024-05-10T12:27:14Z</time>
      </trkpt>
      <trkpt lat="43.16034" lon="2.98259">
        <ele>8.2</ele>
        <time>2024-05-10T12:27:15Z</time>
      </trkpt>
      <trkpt lat="43.16034" lon="2.98259">
        <ele>8.2</ele>
        <time>2024-05-10T12:27:16Z</time>
      </trkpt>
      <trkpt lat="43.16035" lon="2.98259">
        <ele>8.2</ele>
        <time>2024-05-10T12:27:17Z</time>
      </trkpt>
      <trkpt lat="43.16035" lon="2.98259">
        <ele>8.2</ele>
        <time>2024-05-10T12:27:18Z</time>
      </trkpt>
      <trkpt lat="43.16035" lon="2.98259">
        <ele>8.2</ele>
        <time>2024-05-10T12:27:19Z</time>
      </trkpt>
      <trkpt lat="43.16035" lon="2.98259">
        <ele>8.2</ele>
        <time>2024-05-10T12:27:20Z</time>
      </trkpt>
      <trkpt lat="43.16034" lon="2.98259">
        <ele>8.2</ele>
        <time>2024-05-10T12:27:21Z</time>
      </trkpt>
      <trkpt lat="43.16034" lon="2.98259">
        <ele>8.2</ele>
        <time>2024-05-10T12:27:22Z</time>
      </trkpt>
      <trkpt lat="43.16034" lon="2.98259">
        <ele>8.2</ele>
        <time>2024-05-10T12:27:23Z</time>
      </trkpt>
      <trkpt lat="43.16034" lon="2.98259">
        <ele>8.2</ele>
        <time>2024-05-10T12:27:24Z</time>
      </trkpt>
      <trkpt lat="43.16034" lon="2.98259">
        <ele>8.2</ele>
        <time>2024-05-10T12:27:25Z</time>
      </trkpt>
      <trkpt lat="43.16034" lon="2.98259">
        <ele>8.2</ele>
        <time>2024-05-10T12:27:26Z</time>
      </trkpt>
      <trkpt lat="43.16034" lon="2.98259">
        <ele>8.2</ele>
        <time>2024-05-10T12:27:27Z</time>
      </trkpt>
      <trkpt lat="43.16034" lon="2.98259">
        <ele>8.2</ele>
        <time>2024-05-10T12:27:28Z</time>
      </trkpt>
      <trkpt lat="43.16034" lon="2.98259">
        <ele>8.2</ele>
        <time>2024-05-10T12:27:29Z</time>
      </trkpt>
      <trkpt lat="43.16034" lon="2.98259">
        <ele>8.2</ele>
        <time>2024-05-10T12:27:30Z</time>
      </trkpt>
      <trkpt lat="43.16034" lon="2.98259">
        <ele>8.2</ele>
        <time>2024-05-10T12:27:31Z</time>
      </trkpt>
      <trkpt lat="43.16034" lon="2.98259">
        <ele>8.2</ele>
        <time>2024-05-10T12:27:32Z</time>
      </trkpt>
      <trkpt lat="43.16034" lon="2.98259">
        <ele>8.2</ele>
        <time>2024-05-10T12:27:33Z</time>
      </trkpt>
      <trkpt lat="43.16034" lon="2.98259">
        <ele>8.2</ele>
        <time>2024-05-10T12:27:34Z</time>
      </trkpt>
      <trkpt lat="43.16034" lon="2.98259">
        <ele>8.2</ele>
        <time>2024-05-10T12:27:35Z</time>
      </trkpt>
      <trkpt lat="43.16034" lon="2.98259">
        <ele>8.2</ele>
        <time>2024-05-10T12:27:36Z</time>
      </trkpt>
      <trkpt lat="43.16034" lon="2.98259">
        <ele>8.2</ele>
        <time>2024-05-10T12:27:37Z</time>
      </trkpt>
      <trkpt lat="43.16034" lon="2.98259">
        <ele>8.2</ele>
        <time>2024-05-10T12:27:38Z</time>
      </trkpt>
      <trkpt lat="43.16034" lon="2.98259">
        <ele>8.2</ele>
        <time>2024-05-10T12:27:39Z</time>
      </trkpt>
      <trkpt lat="43.16034" lon="2.98259">
        <ele>8.2</ele>
        <time>2024-05-10T12:27:40Z</time>
      </trkpt>
      <trkpt lat="43.16034" lon="2.98259">
        <ele>8.2</ele>
        <time>2024-05-10T12:27:41Z</time>
      </trkpt>
      <trkpt lat="43.16034" lon="2.98259">
        <ele>8.2</ele>
        <time>2024-05-10T12:27:42Z</time>
      </trkpt>
      <trkpt lat="43.16034" lon="2.98259">
        <ele>8.2</ele>
        <time>2024-05-10T12:27:43Z</time>
      </trkpt>
      <trkpt lat="43.16034" lon="2.98259">
        <ele>8.2</ele>
        <time>2024-05-10T12:27:44Z</time>
      </trkpt>
      <trkpt lat="43.16034" lon="2.98259">
        <ele>8.2</ele>
        <time>2024-05-10T12:27:45Z</time>
      </trkpt>
      <trkpt lat="43.16034" lon="2.98259">
        <ele>8.2</ele>
        <time>2024-05-10T12:27:46Z</time>
      </trkpt>
      <trkpt lat="43.16034" lon="2.98259">
        <ele>8.2</ele>
        <time>2024-05-10T12:27:47Z</time>
      </trkpt>
      <trkpt lat="43.16034" lon="2.98259">
        <ele>8.2</ele>
        <time>2024-05-10T12:27:48Z</time>
      </trkpt>
      <trkpt lat="43.16034" lon="2.98259">
        <ele>8.2</ele>
        <time>2024-05-10T12:27:49Z</time>
      </trkpt>
      <trkpt lat="43.16034" lon="2.98259">
        <ele>8.2</ele>
        <time>2024-05-10T12:27:50Z</time>
      </trkpt>
      <trkpt lat="43.16034" lon="2.98259">
        <ele>8.2</ele>
        <time>2024-05-10T12:27:51Z</time>
      </trkpt>
      <trkpt lat="43.16034" lon="2.98259">
        <ele>8.2</ele>
        <time>2024-05-10T12:27:52Z</time>
      </trkpt>
      <trkpt lat="43.16034" lon="2.98259">
        <ele>8.2</ele>
        <time>2024-05-10T12:27:53Z</time>
      </trkpt>
      <trkpt lat="43.16034" lon="2.98259">
        <ele>8.2</ele>
        <time>2024-05-10T12:27:54Z</time>
      </trkpt>
      <trkpt lat="43.16034" lon="2.98259">
        <ele>8.2</ele>
        <time>2024-05-10T12:27:55Z</time>
      </trkpt>
      <trkpt lat="43.16034" lon="2.98259">
        <ele>8.2</ele>
        <time>2024-05-10T12:27:56Z</time>
      </trkpt>
      <trkpt lat="43.16034" lon="2.98259">
        <ele>8.2</ele>
        <time>2024-05-10T12:27:57Z</time>
      </trkpt>
      <trkpt lat="43.16034" lon="2.98259">
        <ele>8.2</ele>
        <time>2024-05-10T12:27:58Z</time>
      </trkpt>
      <trkpt lat="43.16034" lon="2.98259">
        <ele>8.2</ele>
        <time>2024-05-10T12:27:59Z</time>
      </trkpt>
      <trkpt lat="43.16034" lon="2.98259">
        <ele>8.2</ele>
        <time>2024-05-10T12:28:00Z</time>
      </trkpt>
      <trkpt lat="43.16034" lon="2.98259">
        <ele>8.2</ele>
        <time>2024-05-10T12:28:01Z</time>
      </trkpt>
      <trkpt lat="43.16034" lon="2.98259">
        <ele>8.2</ele>
        <time>2024-05-10T12:28:02Z</time>
      </trkpt>
      <trkpt lat="43.16034" lon="2.98259">
        <ele>8.2</ele>
        <time>2024-05-10T12:28:03Z</time>
      </trkpt>
      <trkpt lat="43.16034" lon="2.98259">
        <ele>8.2</ele>
        <time>2024-05-10T12:28:04Z</time>
      </trkpt>
      <trkpt lat="43.16034" lon="2.98259">
        <ele>8.2</ele>
        <time>2024-05-10T12:28:05Z</time>
      </trkpt>
      <trkpt lat="43.16034" lon="2.98259">
        <ele>8.2</ele>
        <time>2024-05-10T12:28:06Z</time>
      </trkpt>
      <trkpt lat="43.16034" lon="2.98259">
        <ele>8.2</ele>
        <time>2024-05-10T12:28:07Z</time>
      </trkpt>
      <trkpt lat="43.16034" lon="2.98259">
        <ele>8.2</ele>
        <time>2024-05-10T12:28:08Z</time>
      </trkpt>
      <trkpt lat="43.16034" lon="2.98259">
        <ele>8.2</ele>
        <time>2024-05-10T12:28:09Z</time>
      </trkpt>
      <trkpt lat="43.16034" lon="2.98259">
        <ele>8.2</ele>
        <time>2024-05-10T12:28:10Z</time>
      </trkpt>
      <trkpt lat="43.16034" lon="2.98259">
        <ele>8.2</ele>
        <time>2024-05-10T12:28:11Z</time>
      </trkpt>
      <trkpt lat="43.16034" lon="2.98259">
        <ele>8.2</ele>
        <time>2024-05-10T12:28:12Z</time>
      </trkpt>
      <trkpt lat="43.16034" lon="2.98259">
        <ele>8.2</ele>
        <time>2024-05-10T12:28:13Z</time>
      </trkpt>
      <trkpt lat="43.16034" lon="2.98259">
        <ele>8.2</ele>
        <time>2024-05-10T12:28:14Z</time>
      </trkpt>
      <trkpt lat="43.16034" lon="2.98259">
        <ele>8.2</ele>
        <time>2024-05-10T12:28:15Z</time>
      </trkpt>
      <trkpt lat="43.16034" lon="2.98259">
        <ele>8.2</ele>
        <time>2024-05-10T12:28:16Z</time>
      </trkpt>
      <trkpt lat="43.16034" lon="2.98259">
        <ele>8.2</ele>
        <time>2024-05-10T12:28:17Z</time>
      </trkpt>
      <trkpt lat="43.16034" lon="2.98259">
        <ele>8.2</ele>
        <time>2024-05-10T12:28:18Z</time>
      </trkpt>
      <trkpt lat="43.16034" lon="2.98259">
        <ele>8.2</ele>
        <time>2024-05-10T12:28:19Z</time>
      </trkpt>
      <trkpt lat="43.16034" lon="2.98259">
        <ele>8.2</ele>
        <time>2024-05-10T12:28:20Z</time>
      </trkpt>
      <trkpt lat="43.16034" lon="2.98259">
        <ele>8.2</ele>
        <time>2024-05-10T12:28:21Z</time>
      </trkpt>
      <trkpt lat="43.16034" lon="2.98259">
        <ele>8.2</ele>
        <time>2024-05-10T12:28:22Z</time>
      </trkpt>
      <trkpt lat="43.16034" lon="2.98259">
        <ele>8.2</ele>
        <time>2024-05-10T12:28:23Z</time>
      </trkpt>
      <trkpt lat="43.16034" lon="2.98259">
        <ele>8.2</ele>
        <time>2024-05-10T12:28:24Z</time>
      </trkpt>
      <trkpt lat="43.16034" lon="2.98259">
        <ele>8.2</ele>
        <time>2024-05-10T12:28:25Z</time>
      </trkpt>
      <trkpt lat="43.16034" lon="2.98259">
        <ele>8.2</ele>
        <time>2024-05-10T12:28:26Z</time>
      </trkpt>
      <trkpt lat="43.16034" lon="2.98259">
        <ele>8.2</ele>
        <time>2024-05-10T12:28:27Z</time>
      </trkpt>
      <trkpt lat="43.16034" lon="2.98259">
        <ele>8.2</ele>
        <time>2024-05-10T12:28:28Z</time>
      </trkpt>
      <trkpt lat="43.16034" lon="2.98259">
        <ele>8.2</ele>
        <time>2024-05-10T12:28:29Z</time>
      </trkpt>
      <trkpt lat="43.16034" lon="2.98259">
        <ele>8.2</ele>
        <time>2024-05-10T12:28:30Z</time>
      </trkpt>
      <trkpt lat="43.16034" lon="2.98259">
        <ele>8.2</ele>
        <time>2024-05-10T12:28:31Z</time>
      </trkpt>
      <trkpt lat="43.16034" lon="2.98259">
        <ele>8.2</ele>
        <time>2024-05-10T12:28:32Z</time>
      </trkpt>
      <trkpt lat="43.16034" lon="2.98259">
        <ele>8.2</ele>
        <time>2024-05-10T12:28:33Z</time>
      </trkpt>
      <trkpt lat="43.16034" lon="2.98259">
        <ele>8.2</ele>
        <time>2024-05-10T12:28:34Z</time>
      </trkpt>
      <trkpt lat="43.16034" lon="2.98259">
        <ele>8.2</ele>
        <time>2024-05-10T12:28:35Z</time>
      </trkpt>
      <trkpt lat="43.16034" lon="2.98259">
        <ele>8.2</ele>
        <time>2024-05-10T12:28:36Z</time>
      </trkpt>
      <trkpt lat="43.16034" lon="2.98259">
        <ele>8.2</ele>
        <time>2024-05-10T12:28:37Z</time>
      </trkpt>
      <trkpt lat="43.16034" lon="2.98259">
        <ele>8.2</ele>
        <time>2024-05-10T12:28:38Z</time>
      </trkpt>
      <trkpt lat="43.16034" lon="2.98259">
        <ele>8.2</ele>
        <time>2024-05-10T12:28:39Z</time>
      </trkpt>
      <trkpt lat="43.16034" lon="2.98259">
        <ele>8.2</ele>
        <time>2024-05-10T12:28:40Z</time>
      </trkpt>
      <trkpt lat="43.16034" lon="2.98259">
        <ele>8.2</ele>
        <time>2024-05-10T12:28:41Z</time>
      </trkpt>
      <trkpt lat="43.16034" lon="2.98259">
        <ele>8.2</ele>
        <time>2024-05-10T12:28:42Z</time>
      </trkpt>
      <trkpt lat="43.16034" lon="2.98259">
        <ele>8.2</ele>
        <time>2024-05-10T12:28:43Z</time>
      </trkpt>
      <trkpt lat="43.16034" lon="2.98259">
        <ele>8.2</ele>
        <time>2024-05-10T12:28:44Z</time>
      </trkpt>
      <trkpt lat="43.16034" lon="2.98259">
        <ele>8.2</ele>
        <time>2024-05-10T12:28:45Z</time>
      </trkpt>
      <trkpt lat="43.16034" lon="2.98259">
        <ele>8.2</ele>
        <time>2024-05-10T12:28:46Z</time>
      </trkpt>
      <trkpt lat="43.16034" lon="2.98259">
        <ele>8.2</ele>
        <time>2024-05-10T12:28:47Z</time>
      </trkpt>
      <trkpt lat="43.16034" lon="2.98259">
        <ele>8.2</ele>
        <time>2024-05-10T12:28:48Z</time>
      </trkpt>
      <trkpt lat="43.16034" lon="2.98259">
        <ele>8.2</ele>
        <time>2024-05-10T12:28:49Z</time>
      </trkpt>
      <trkpt lat="43.16034" lon="2.98259">
        <ele>8.2</ele>
        <time>2024-05-10T12:28:50Z</time>
      </trkpt>
      <trkpt lat="43.16034" lon="2.98259">
        <ele>8.2</ele>
        <time>2024-05-10T12:28:51Z</time>
      </trkpt>
      <trkpt lat="43.16034" lon="2.98259">
        <ele>8.2</ele>
        <time>2024-05-10T12:28:52Z</time>
      </trkpt>
      <trkpt lat="43.16034" lon="2.98259">
        <ele>8.2</ele>
        <time>2024-05-10T12:28:53Z</time>
      </trkpt>
      <trkpt lat="43.16034" lon="2.98259">
        <ele>8.2</ele>
        <time>2024-05-10T12:28:54Z</time>
      </trkpt>
      <trkpt lat="43.16034" lon="2.98259">
        <ele>8.2</ele>
        <time>2024-05-10T12:28:55Z</time>
      </trkpt>
      <trkpt lat="43.16034" lon="2.98259">
        <ele>8.2</ele>
        <time>2024-05-10T12:28:56Z</time>
      </trkpt>
      <trkpt lat="43.16034" lon="2.98259">
        <ele>8.2</ele>
        <time>2024-05-10T12:28:57Z</time>
      </trkpt>
      <trkpt lat="43.16034" lon="2.98259">
        <ele>8.2</ele>
        <time>2024-05-10T12:28:58Z</time>
      </trkpt>
      <trkpt lat="43.16034" lon="2.98259">
        <ele>8.2</ele>
        <time>2024-05-10T12:28:59Z</time>
      </trkpt>
      <trkpt lat="43.16034" lon="2.98259">
        <ele>8.2</ele>
        <time>2024-05-10T12:29:00Z</time>
      </trkpt>
      <trkpt lat="43.16034" lon="2.98259">
        <ele>8.2</ele>
        <time>2024-05-10T12:29:01Z</time>
      </trkpt>
      <trkpt lat="43.16034" lon="2.98259">
        <ele>8.2</ele>
        <time>2024-05-10T12:29:02Z</time>
      </trkpt>
      <trkpt lat="43.16034" lon="2.98259">
        <ele>8.2</ele>
        <time>2024-05-10T12:29:03Z</time>
      </trkpt>
      <trkpt lat="43.16034" lon="2.98259">
        <ele>8.2</ele>
        <time>2024-05-10T12:29:04Z</time>
      </trkpt>
      <trkpt lat="43.16034" lon="2.98259">
        <ele>8.2</ele>
        <time>2024-05-10T12:29:05Z</time>
      </trkpt>
      <trkpt lat="43.16034" lon="2.98259">
        <ele>8.2</ele>
        <time>2024-05-10T12:29:06Z</time>
      </trkpt>
      <trkpt lat="43.16034" lon="2.98259">
        <ele>8.2</ele>
        <time>2024-05-10T12:29:07Z</time>
      </trkpt>
      <trkpt lat="43.16034" lon="2.98259">
        <ele>8.2</ele>
        <time>2024-05-10T12:29:08Z</time>
      </trkpt>
      <trkpt lat="43.16034" lon="2.98259">
        <ele>8.2</ele>
        <time>2024-05-10T12:29:09Z</time>
      </trkpt>
      <trkpt lat="43.16034" lon="2.98259">
        <ele>8.2</ele>
        <time>2024-05-10T12:29:10Z</time>
      </trkpt>
      <trkpt lat="43.16034" lon="2.98259">
        <ele>8.2</ele>
        <time>2024-05-10T12:29:11Z</time>
      </trkpt>
      <trkpt lat="43.16034" lon="2.98259">
        <ele>8.2</ele>
        <time>2024-05-10T12:29:12Z</time>
      </trkpt>
      <trkpt lat="43.16034" lon="2.98259">
        <ele>8.2</ele>
        <time>2024-05-10T12:29:13Z</time>
      </trkpt>
      <trkpt lat="43.16034" lon="2.98259">
        <ele>8.2</ele>
        <time>2024-05-10T12:29:14Z</time>
      </trkpt>
      <trkpt lat="43.16034" lon="2.98259">
        <ele>8.2</ele>
        <time>2024-05-10T12:29:15Z</time>
      </trkpt>
      <trkpt lat="43.16034" lon="2.98259">
        <ele>8.2</ele>
        <time>2024-05-10T12:29:16Z</time>
      </trkpt>
      <trkpt lat="43.16034" lon="2.98259">
        <ele>8.2</ele>
        <time>2024-05-10T12:29:17Z</time>
      </trkpt>
      <trkpt lat="43.16034" lon="2.98259">
        <ele>8.2</ele>
        <time>2024-05-10T12:29:18Z</time>
      </trkpt>
      <trkpt lat="43.16034" lon="2.98259">
        <ele>8.2</ele>
        <time>2024-05-10T12:29:19Z</time>
      </trkpt>
      <trkpt lat="43.16034" lon="2.98259">
        <ele>8.2</ele>
        <time>2024-05-10T12:29:20Z</time>
      </trkpt>
      <trkpt lat="43.16034" lon="2.98259">
        <ele>8.2</ele>
        <time>2024-05-10T12:29:21Z</time>
      </trkpt>
      <trkpt lat="43.16034" lon="2.98259">
        <ele>8.2</ele>
        <time>2024-05-10T12:29:22Z</time>
      </trkpt>
      <trkpt lat="43.16034" lon="2.98259">
        <ele>8.2</ele>
        <time>2024-05-10T12:29:23Z</time>
      </trkpt>
      <trkpt lat="43.16034" lon="2.98259">
        <ele>8.2</ele>
        <time>2024-05-10T12:29:24Z</time>
      </trkpt>
      <trkpt lat="43.16034" lon="2.98259">
        <ele>8.2</ele>
        <time>2024-05-10T12:29:25Z</time>
      </trkpt>
      <trkpt lat="43.16034" lon="2.98259">
        <ele>8.2</ele>
        <time>2024-05-10T12:29:26Z</time>
      </trkpt>
      <trkpt lat="43.16034" lon="2.98259">
        <ele>8.2</ele>
        <time>2024-05-10T12:29:27Z</time>
      </trkpt>
      <trkpt lat="43.16034" lon="2.98259">
        <ele>8.2</ele>
        <time>2024-05-10T12:29:28Z</time>
      </trkpt>
      <trkpt lat="43.16034" lon="2.98259">
        <ele>8.2</ele>
        <time>2024-05-10T12:29:29Z</time>
      </trkpt>
      <trkpt lat="43.16034" lon="2.98259">
        <ele>8.2</ele>
        <time>2024-05-10T12:29:30Z</time>
      </trkpt>
      <trkpt lat="43.16034" lon="2.98259">
        <ele>8.2</ele>
        <time>2024-05-10T12:29:31Z</time>
      </trkpt>
      <trkpt lat="43.16034" lon="2.98259">
        <ele>8.2</ele>
        <time>2024-05-10T12:29:32Z</time>
      </trkpt>
      <trkpt lat="43.16034" lon="2.98259">
        <ele>8.2</ele>
        <time>2024-05-10T12:29:33Z</time>
      </trkpt>
      <trkpt lat="43.16034" lon="2.98259">
        <ele>8.2</ele>
        <time>2024-05-10T12:29:34Z</time>
      </trkpt>
      <trkpt lat="43.16034" lon="2.98259">
        <ele>8.2</ele>
        <time>2024-05-10T12:29:35Z</time>
      </trkpt>
      <trkpt lat="43.16034" lon="2.98259">
        <ele>8.2</ele>
        <time>2024-05-10T12:29:36Z</time>
      </trkpt>
      <trkpt lat="43.16034" lon="2.98259">
        <ele>8.2</ele>
        <time>2024-05-10T12:29:37Z</time>
      </trkpt>
      <trkpt lat="43.16034" lon="2.98259">
        <ele>8.2</ele>
        <time>2024-05-10T12:29:38Z</time>
      </trkpt>
      <trkpt lat="43.16034" lon="2.98259">
        <ele>8.2</ele>
        <time>2024-05-10T12:29:39Z</time>
      </trkpt>
      <trkpt lat="43.16034" lon="2.98259">
        <ele>8.2</ele>
        <time>2024-05-10T12:29:40Z</time>
      </trkpt>
      <trkpt lat="43.16034" lon="2.98259">
        <ele>8.2</ele>
        <time>2024-05-10T12:29:41Z</time>
      </trkpt>
      <trkpt lat="43.16034" lon="2.98259">
        <ele>8.2</ele>
        <time>2024-05-10T12:29:42Z</time>
      </trkpt>
      <trkpt lat="43.16034" lon="2.98259">
        <ele>8.2</ele>
        <time>2024-05-10T12:29:43Z</time>
      </trkpt>
      <trkpt lat="43.16034" lon="2.98259">
        <ele>8.2</ele>
        <time>2024-05-10T12:29:44Z</time>
      </trkpt>
      <trkpt lat="43.16034" lon="2.98259">
        <ele>8.2</ele>
        <time>2024-05-10T12:29:45Z</time>
      </trkpt>
      <trkpt lat="43.16034" lon="2.98259">
        <ele>8.2</ele>
        <time>2024-05-10T12:29:46Z</time>
      </trkpt>
      <trkpt lat="43.16034" lon="2.98259">
        <ele>8.2</ele>
        <time>2024-05-10T12:29:47Z</time>
      </trkpt>
      <trkpt lat="43.16034" lon="2.98259">
        <ele>8.2</ele>
        <time>2024-05-10T12:29:48Z</time>
      </trkpt>
      <trkpt lat="43.16034" lon="2.98259">
        <ele>8.2</ele>
        <time>2024-05-10T12:29:49Z</time>
      </trkpt>
      <trkpt lat="43.16034" lon="2.98259">
        <ele>8.2</ele>
        <time>2024-05-10T12:29:50Z</time>
      </trkpt>
      <trkpt lat="43.16034" lon="2.98259">
        <ele>8.2</ele>
        <time>2024-05-10T12:29:51Z</time>
      </trkpt>
      <trkpt lat="43.16034" lon="2.98259">
        <ele>8.2</ele>
        <time>2024-05-10T12:29:52Z</time>
      </trkpt>
      <trkpt lat="43.16034" lon="2.98259">
        <ele>8.2</ele>
        <time>2024-05-10T12:29:53Z</time>
      </trkpt>
      <trkpt lat="43.16034" lon="2.98259">
        <ele>8.2</ele>
        <time>2024-05-10T12:29:54Z</time>
      </trkpt>
      <trkpt lat="43.16034" lon="2.98259">
        <ele>8.2</ele>
        <time>2024-05-10T12:29:55Z</time>
      </trkpt>
      <trkpt lat="43.16034" lon="2.98259">
        <ele>8.2</ele>
        <time>2024-05-10T12:29:56Z</time>
      </trkpt>
      <trkpt lat="43.16034" lon="2.98259">
        <ele>8.2</ele>
        <time>2024-05-10T12:29:57Z</time>
      </trkpt>
      <trkpt lat="43.16034" lon="2.98259">
        <ele>8.2</ele>
        <time>2024-05-10T12:29:58Z</time>
      </trkpt>
      <trkpt lat="43.16034" lon="2.98259">
        <ele>8.2</ele>
        <time>2024-05-10T12:29:59Z</time>
      </trkpt>
      <trkpt lat="43.16034" lon="2.98259">
        <ele>8.2</ele>
        <time>2024-05-10T12:30:00Z</time>
      </trkpt>
      <trkpt lat="43.16034" lon="2.98259">
        <ele>8.2</ele>
        <time>2024-05-10T12:30:01Z</time>
      </trkpt>
      <trkpt lat="43.16034" lon="2.98259">
        <ele>8.2</ele>
        <time>2024-05-10T12:30:02Z</time>
      </trkpt>
      <trkpt lat="43.16034" lon="2.98259">
        <ele>8.2</ele>
        <time>2024-05-10T12:30:03Z</time>
      </trkpt>
      <trkpt lat="43.16034" lon="2.98259">
        <ele>8.2</ele>
        <time>2024-05-10T12:30:04Z</time>
      </trkpt>
      <trkpt lat="43.16034" lon="2.98259">
        <ele>8.2</ele>
        <time>2024-05-10T12:30:05Z</time>
      </trkpt>
      <trkpt lat="43.16034" lon="2.98259">
        <ele>8.2</ele>
        <time>2024-05-10T12:30:06Z</time>
      </trkpt>
      <trkpt lat="43.16034" lon="2.98259">
        <ele>8.2</ele>
        <time>2024-05-10T12:30:07Z</time>
      </trkpt>
      <trkpt lat="43.16034" lon="2.98259">
        <ele>8.2</ele>
        <time>2024-05-10T12:30:08Z</time>
      </trkpt>
      <trkpt lat="43.16034" lon="2.98259">
        <ele>8.2</ele>
        <time>2024-05-10T12:30:09Z</time>
      </trkpt>
      <trkpt lat="43.16034" lon="2.98259">
        <ele>8.2</ele>
        <time>2024-05-10T12:30:10Z</time>
      </trkpt>
      <trkpt lat="43.16034" lon="2.98259">
        <ele>8.2</ele>
        <time>2024-05-10T12:30:11Z</time>
      </trkpt>
      <trkpt lat="43.16034" lon="2.98259">
        <ele>8.2</ele>
        <time>2024-05-10T12:30:12Z</time>
      </trkpt>
      <trkpt lat="43.16034" lon="2.98259">
        <ele>8.2</ele>
        <time>2024-05-10T12:30:13Z</time>
      </trkpt>
      <trkpt lat="43.16034" lon="2.98259">
        <ele>8.2</ele>
        <time>2024-05-10T12:30:14Z</time>
      </trkpt>
      <trkpt lat="43.16034" lon="2.98259">
        <ele>8.2</ele>
        <time>2024-05-10T12:30:15Z</time>
      </trkpt>
      <trkpt lat="43.16034" lon="2.98259">
        <ele>8.2</ele>
        <time>2024-05-10T12:30:16Z</time>
      </trkpt>
      <trkpt lat="43.16034" lon="2.98259">
        <ele>8.2</ele>
        <time>2024-05-10T12:30:17Z</time>
      </trkpt>
      <trkpt lat="43.16034" lon="2.98259">
        <ele>8.2</ele>
        <time>2024-05-10T12:30:18Z</time>
      </trkpt>
      <trkpt lat="43.16034" lon="2.98259">
        <ele>8.2</ele>
        <time>2024-05-10T12:30:19Z</time>
      </trkpt>
      <trkpt lat="43.16034" lon="2.98259">
        <ele>8.2</ele>
        <time>2024-05-10T12:30:20Z</time>
      </trkpt>
      <trkpt lat="43.16034" lon="2.98259">
        <ele>8.2</ele>
        <time>2024-05-10T12:30:21Z</time>
      </trkpt>
      <trkpt lat="43.16034" lon="2.98259">
        <ele>8.2</ele>
        <time>2024-05-10T12:30:22Z</time>
      </trkpt>
      <trkpt lat="43.16034" lon="2.98259">
        <ele>8.2</ele>
        <time>2024-05-10T12:30:23Z</time>
      </trkpt>
      <trkpt lat="43.16034" lon="2.98259">
        <ele>8.2</ele>
        <time>2024-05-10T12:30:24Z</time>
      </trkpt>
      <trkpt lat="43.16034" lon="2.98259">
        <ele>8.2</ele>
        <time>2024-05-10T12:30:25Z</time>
      </trkpt>
      <trkpt lat="43.16034" lon="2.98259">
        <ele>8.2</ele>
        <time>2024-05-10T12:30:26Z</time>
      </trkpt>
      <trkpt lat="43.16034" lon="2.98259">
        <ele>8.2</ele>
        <time>2024-05-10T12:30:27Z</time>
      </trkpt>
      <trkpt lat="43.16034" lon="2.98259">
        <ele>8.2</ele>
        <time>2024-05-10T12:30:28Z</time>
      </trkpt>
      <trkpt lat="43.16034" lon="2.98258">
        <ele>8.2</ele>
        <time>2024-05-10T12:30:29Z</time>
      </trkpt>
      <trkpt lat="43.16032" lon="2.98258">
        <ele>8.1</ele>
        <time>2024-05-10T12:30:30Z</time>
      </trkpt>
      <trkpt lat="43.16028" lon="2.98258">
        <ele>8</ele>
        <time>2024-05-10T12:30:31Z</time>
      </trkpt>
      <trkpt lat="43.16022" lon="2.98256">
        <ele>8</ele>
        <time>2024-05-10T12:30:32Z</time>
      </trkpt>
      <trkpt lat="43.16018" lon="2.98255">
        <ele>8</ele>
        <time>2024-05-10T12:30:33Z</time>
      </trkpt>
      <trkpt lat="43.16014" lon="2.98254">
        <ele>8</ele>
        <time>2024-05-10T12:30:34Z</time>
      </trkpt>
      <trkpt lat="43.1601" lon="2.98252">
        <ele>8</ele>
        <time>2024-05-10T12:30:35Z</time>
      </trkpt>
      <trkpt lat="43.16004" lon="2.9825">
        <ele>8</ele>
        <time>2024-05-10T12:30:36Z</time>
      </trkpt>
      <trkpt lat="43.15998" lon="2.98247">
        <ele>8</ele>
        <time>2024-05-10T12:30:37Z</time>
      </trkpt>
      <trkpt lat="43.15993" lon="2.98245">
        <ele>8</ele>
        <time>2024-05-10T12:30:38Z</time>
      </trkpt>
      <trkpt lat="43.15987" lon="2.98242">
        <ele>8</ele>
        <time>2024-05-10T12:30:39Z</time>
      </trkpt>
      <trkpt lat="43.15981" lon="2.98239">
        <ele>8</ele>
        <time>2024-05-10T12:30:40Z</time>
      </trkpt>
      <trkpt lat="43.15974" lon="2.98236">
        <ele>8</ele>
        <time>2024-05-10T12:30:41Z</time>
      </trkpt>
      <trkpt lat="43.15967" lon="2.98233">
        <ele>8</ele>
        <time>2024-05-10T12:30:42Z</time>
      </trkpt>
      <trkpt lat="43.15959" lon="2.98229">
        <ele>8</ele>
        <time>2024-05-10T12:30:43Z</time>
      </trkpt>
      <trkpt lat="43.1595" lon="2.98226">
        <ele>8</ele>
        <time>2024-05-10T12:30:44Z</time>
      </trkpt>
      <trkpt lat="43.15941" lon="2.98222">
        <ele>8</ele>
        <time>2024-05-10T12:30:45Z</time>
      </trkpt>
      <trkpt lat="43.15932" lon="2.98219">
        <ele>7.9</ele>
        <time>2024-05-10T12:30:46Z</time>
      </trkpt>
      <trkpt lat="43.15922" lon="2.98216">
        <ele>7.8</ele>
        <time>2024-05-10T12:30:47Z</time>
      </trkpt>
      <trkpt lat="43.15912" lon="2.98212">
        <ele>7.6</ele>
        <time>2024-05-10T12:30:48Z</time>
      </trkpt>
      <trkpt lat="43.159" lon="2.98209">
        <ele>7.5</ele>
        <time>2024-05-10T12:30:49Z</time>
      </trkpt>
      <trkpt lat="43.15889" lon="2.98205">
        <ele>7.6</ele>
        <time>2024-05-10T12:30:50Z</time>
      </trkpt>
      <trkpt lat="43.15876" lon="2.98201">
        <ele>7.8</ele>
        <time>2024-05-10T12:30:51Z</time>
      </trkpt>
      <trkpt lat="43.15864" lon="2.98196">
        <ele>7.9</ele>
        <time>2024-05-10T12:30:52Z</time>
      </trkpt>
      <trkpt lat="43.1585" lon="2.98191">
        <ele>8</ele>
        <time>2024-05-10T12:30:53Z</time>
      </trkpt>
      <trkpt lat="43.15836" lon="2.98186">
        <ele>8</ele>
        <time>2024-05-10T12:30:54Z</time>
      </trkpt>
      <trkpt lat="43.15824" lon="2.98181">
        <ele>8</ele>
        <time>2024-05-10T12:30:55Z</time>
      </trkpt>
      <trkpt lat="43.15812" lon="2.98176">
        <ele>8</ele>
        <time>2024-05-10T12:30:56Z</time>
      </trkpt>
      <trkpt lat="43.158" lon="2.98172">
        <ele>8</ele>
        <time>2024-05-10T12:30:57Z</time>
      </trkpt>
      <trkpt lat="43.15788" lon="2.98167">
        <ele>8</ele>
        <time>2024-05-10T12:30:58Z</time>
      </trkpt>
      <trkpt lat="43.15777" lon="2.98163">
        <ele>7.9</ele>
        <time>2024-05-10T12:30:59Z</time>
      </trkpt>
      <trkpt lat="43.15766" lon="2.98159">
        <ele>7.7</ele>
        <time>2024-05-10T12:31:00Z</time>
      </trkpt>
      <trkpt lat="43.15757" lon="2.98155">
        <ele>7.6</ele>
        <time>2024-05-10T12:31:01Z</time>
      </trkpt>
      <trkpt lat="43.15748" lon="2.9815">
        <ele>7.4</ele>
        <time>2024-05-10T12:31:02Z</time>
      </trkpt>
      <trkpt lat="43.15741" lon="2.98143">
        <ele>7.4</ele>
        <time>2024-05-10T12:31:03Z</time>
      </trkpt>
      <trkpt lat="43.15736" lon="2.98134">
        <ele>7.5</ele>
        <time>2024-05-10T12:31:04Z</time>
      </trkpt>
      <trkpt lat="43.15732" lon="2.98124">
        <ele>7.6</ele>
        <time>2024-05-10T12:31:05Z</time>
      </trkpt>
      <trkpt lat="43.15729" lon="2.98113">
        <ele>7.8</ele>
        <time>2024-05-10T12:31:06Z</time>
      </trkpt>
      <trkpt lat="43.15726" lon="2.98101">
        <ele>7.9</ele>
        <time>2024-05-10T12:31:07Z</time>
      </trkpt>
      <trkpt lat="43.15724" lon="2.9809">
        <ele>7.9</ele>
        <time>2024-05-10T12:31:08Z</time>
      </trkpt>
      <trkpt lat="43.15724" lon="2.98081">
        <ele>7.9</ele>
        <time>2024-05-10T12:31:09Z</time>
      </trkpt>
      <trkpt lat="43.15724" lon="2.98075">
        <ele>8</ele>
        <time>2024-05-10T12:31:10Z</time>
      </trkpt>
      <trkpt lat="43.15725" lon="2.9807">
        <ele>7.9</ele>
        <time>2024-05-10T12:31:11Z</time>
      </trkpt>
      <trkpt lat="43.15726" lon="2.98067">
        <ele>7.9</ele>
        <time>2024-05-10T12:31:12Z</time>
      </trkpt>
      <trkpt lat="43.15727" lon="2.98063">
        <ele>8</ele>
        <time>2024-05-10T12:31:13Z</time>
      </trkpt>
      <trkpt lat="43.15729" lon="2.98058">
        <ele>8</ele>
        <time>2024-05-10T12:31:14Z</time>
      </trkpt>
      <trkpt lat="43.1573" lon="2.98052">
        <ele>8</ele>
        <time>2024-05-10T12:31:15Z</time>
      </trkpt>
      <trkpt lat="43.15731" lon="2.98046">
        <ele>8</ele>
        <time>2024-05-10T12:31:16Z</time>
      </trkpt>
      <trkpt lat="43.15733" lon="2.98037">
        <ele>8</ele>
        <time>2024-05-10T12:31:17Z</time>
      </trkpt>
      <trkpt lat="43.15735" lon="2.98024">
        <ele>8.1</ele>
        <time>2024-05-10T12:31:18Z</time>
      </trkpt>
      <trkpt lat="43.15738" lon="2.98008">
        <ele>8.7</ele>
        <time>2024-05-10T12:31:19Z</time>
      </trkpt>
      <trkpt lat="43.15741" lon="2.97994">
        <ele>9</ele>
        <time>2024-05-10T12:31:20Z</time>
      </trkpt>
      <trkpt lat="43.15745" lon="2.97977">
        <ele>9</ele>
        <time>2024-05-10T12:31:21Z</time>
      </trkpt>
      <trkpt lat="43.1575" lon="2.97958">
        <ele>9.5</ele>
        <time>2024-05-10T12:31:22Z</time>
      </trkpt>
      <trkpt lat="43.15754" lon="2.97939">
        <ele>9.9</ele>
        <time>2024-05-10T12:31:23Z</time>
      </trkpt>
      <trkpt lat="43.15758" lon="2.9792">
        <ele>10</ele>
        <time>2024-05-10T12:31:24Z</time>
      </trkpt>
      <trkpt lat="43.15762" lon="2.97903">
        <ele>10.5</ele>
        <time>2024-05-10T12:31:25Z</time>
      </trkpt>
      <trkpt lat="43.15766" lon="2.97886">
        <ele>11.1</ele>
        <time>2024-05-10T12:31:26Z</time>
      </trkpt>
      <trkpt lat="43.1577" lon="2.9787">
        <ele>11.7</ele>
        <time>2024-05-10T12:31:27Z</time>
      </trkpt>
      <trkpt lat="43.15775" lon="2.97858">
        <ele>12</ele>
        <time>2024-05-10T12:31:28Z</time>
      </trkpt>
      <trkpt lat="43.15781" lon="2.97847">
        <ele>12</ele>
        <time>2024-05-10T12:31:29Z</time>
      </trkpt>
      <trkpt lat="43.15789" lon="2.97838">
        <ele>12</ele>
        <time>2024-05-10T12:31:30Z</time>
      </trkpt>
      <trkpt lat="43.15797" lon="2.97829">
        <ele>12</ele>
        <time>2024-05-10T12:31:31Z</time>
      </trkpt>
      <trkpt lat="43.15802" lon="2.97817">
        <ele>12</ele>
        <time>2024-05-10T12:31:32Z</time>
      </trkpt>
      <trkpt lat="43.15803" lon="2.97805">
        <ele>12</ele>
        <time>2024-05-10T12:31:33Z</time>
      </trkpt>
      <trkpt lat="43.15801" lon="2.97793">
        <ele>12</ele>
        <time>2024-05-10T12:31:34Z</time>
      </trkpt>
      <trkpt lat="43.15795" lon="2.97783">
        <ele>12</ele>
        <time>2024-05-10T12:31:35Z</time>
      </trkpt>
      <trkpt lat="43.15788" lon="2.97778">
        <ele>12</ele>
        <time>2024-05-10T12:31:36Z</time>
      </trkpt>
      <trkpt lat="43.1578" lon="2.97776">
        <ele>12.1</ele>
        <time>2024-05-10T12:31:37Z</time>
      </trkpt>
      <trkpt lat="43.15771" lon="2.97778">
        <ele>12</ele>
        <time>2024-05-10T12:31:38Z</time>
      </trkpt>
      <trkpt lat="43.15763" lon="2.97785">
        <ele>12</ele>
        <time>2024-05-10T12:31:39Z</time>
      </trkpt>
      <trkpt lat="43.15758" lon="2.97796">
        <ele>12</ele>
        <time>2024-05-10T12:31:40Z</time>
      </trkpt>
      <trkpt lat="43.15757" lon="2.9781">
        <ele>12</ele>
        <time>2024-05-10T12:31:41Z</time>
      </trkpt>
      <trkpt lat="43.15758" lon="2.97826">
        <ele>12</ele>
        <time>2024-05-10T12:31:42Z</time>
      </trkpt>
      <trkpt lat="43.15761" lon="2.97841">
        <ele>12</ele>
        <time>2024-05-10T12:31:43Z</time>
      </trkpt>
      <trkpt lat="43.15761" lon="2.97856">
        <ele>12</ele>
        <time>2024-05-10T12:31:44Z</time>
      </trkpt>
      <trkpt lat="43.15759" lon="2.97871">
        <ele>11.6</ele>
        <time>2024-05-10T12:31:45Z</time>
      </trkpt>
      <trkpt lat="43.15755" lon="2.97888">
        <ele>11</ele>
        <time>2024-05-10T12:31:46Z</time>
      </trkpt>
      <trkpt lat="43.15751" lon="2.97906">
        <ele>10.4</ele>
        <time>2024-05-10T12:31:47Z</time>
      </trkpt>
      <trkpt lat="43.15747" lon="2.97926">
        <ele>10</ele>
        <time>2024-05-10T12:31:48Z</time>
      </trkpt>
      <trkpt lat="43.15744" lon="2.97945">
        <ele>9.6</ele>
        <time>2024-05-10T12:31:49Z</time>
      </trkpt>
      <trkpt lat="43.1574" lon="2.97964">
        <ele>9.1</ele>
        <time>2024-05-10T12:31:50Z</time>
      </trkpt>
      <trkpt lat="43.15736" lon="2.97982">
        <ele>9</ele>
        <time>2024-05-10T12:31:51Z</time>
      </trkpt>
      <trkpt lat="43.15732" lon="2.97998">
        <ele>9</ele>
        <time>2024-05-10T12:31:52Z</time>
      </trkpt>
      <trkpt lat="43.15729" lon="2.98012">
        <ele>8.6</ele>
        <time>2024-05-10T12:31:53Z</time>
      </trkpt>
      <trkpt lat="43.15727" lon="2.98025">
        <ele>8.1</ele>
        <time>2024-05-10T12:31:54Z</time>
      </trkpt>
      <trkpt lat="43.15725" lon="2.98038">
        <ele>8</ele>
        <time>2024-05-10T12:31:55Z</time>
      </trkpt>
      <trkpt lat="43.15722" lon="2.98049">
        <ele>8</ele>
        <time>2024-05-10T12:31:56Z</time>
      </trkpt>
      <trkpt lat="43.1572" lon="2.9806">
        <ele>8</ele>
        <time>2024-05-10T12:31:57Z</time>
      </trkpt>
      <trkpt lat="43.15717" lon="2.98069">
        <ele>8</ele>
        <time>2024-05-10T12:31:58Z</time>
      </trkpt>
      <trkpt lat="43.15715" lon="2.98077">
        <ele>8</ele>
        <time>2024-05-10T12:31:59Z</time>
      </trkpt>
      <trkpt lat="43.15713" lon="2.98083">
        <ele>8</ele>
        <time>2024-05-10T12:32:00Z</time>
      </trkpt>
      <trkpt lat="43.15711" lon="2.98089">
        <ele>8</ele>
        <time>2024-05-10T12:32:01Z</time>
      </trkpt>
      <trkpt lat="43.15709" lon="2.98093">
        <ele>8</ele>
        <time>2024-05-10T12:32:02Z</time>
      </trkpt>
      <trkpt lat="43.15706" lon="2.98099">
        <ele>8</ele>
        <time>2024-05-10T12:32:03Z</time>
      </trkpt>
      <trkpt lat="43.15702" lon="2.98105">
        <ele>8</ele>
        <time>2024-05-10T12:32:04Z</time>
      </trkpt>
      <trkpt lat="43.15699" lon="2.98109">
        <ele>8</ele>
        <time>2024-05-10T12:32:05Z</time>
      </trkpt>
      <trkpt lat="43.15697" lon="2.98113">
        <ele>8.1</ele>
        <time>2024-05-10T12:32:06Z</time>
      </trkpt>
      <trkpt lat="43.15695" lon="2.98114">
        <ele>8.1</ele>
        <time>2024-05-10T12:32:07Z</time>
      </trkpt>
      <trkpt lat="43.15694" lon="2.98116">
        <ele>8.2</ele>
        <time>2024-05-10T12:32:08Z</time>
      </trkpt>
      <trkpt lat="43.15694" lon="2.98115">
        <ele>8.1</ele>
        <time>2024-05-10T12:32:09Z</time>
      </trkpt>
      <trkpt lat="43.15694" lon="2.98114">
        <ele>8.1</ele>
        <time>2024-05-10T12:32:10Z</time>
      </trkpt>
      <trkpt lat="43.15694" lon="2.98114">
        <ele>8.1</ele>
        <time>2024-05-10T12:32:11Z</time>
      </trkpt>
      <trkpt lat="43.15694" lon="2.98114">
        <ele>8.1</ele>
        <time>2024-05-10T12:32:12Z</time>
      </trkpt>
      <trkpt lat="43.15694" lon="2.98113">
        <ele>8.1</ele>
        <time>2024-05-10T12:32:13Z</time>
      </trkpt>
      <trkpt lat="43.15694" lon="2.98114">
        <ele>8.1</ele>
        <time>2024-05-10T12:32:14Z</time>
      </trkpt>
      <trkpt lat="43.15694" lon="2.98114">
        <ele>8.1</ele>
        <time>2024-05-10T12:32:15Z</time>
      </trkpt>
      <trkpt lat="43.15694" lon="2.98114">
        <ele>8.1</ele>
        <time>2024-05-10T12:32:16Z</time>
      </trkpt>
      <trkpt lat="43.15692" lon="2.98115">
        <ele>8.1</ele>
        <time>2024-05-10T12:32:17Z</time>
      </trkpt>
      <trkpt lat="43.15687" lon="2.98119">
        <ele>8.2</ele>
        <time>2024-05-10T12:32:18Z</time>
      </trkpt>
      <trkpt lat="43.15679" lon="2.98122">
        <ele>8.2</ele>
        <time>2024-05-10T12:32:19Z</time>
      </trkpt>
      <trkpt lat="43.1567" lon="2.98127">
        <ele>8.1</ele>
        <time>2024-05-10T12:32:20Z</time>
      </trkpt>
      <trkpt lat="43.15659" lon="2.98129">
        <ele>8</ele>
        <time>2024-05-10T12:32:21Z</time>
      </trkpt>
      <trkpt lat="43.15646" lon="2.98129">
        <ele>8</ele>
        <time>2024-05-10T12:32:22Z</time>
      </trkpt>
      <trkpt lat="43.1563" lon="2.98124">
        <ele>7.9</ele>
        <time>2024-05-10T12:32:23Z</time>
      </trkpt>
      <trkpt lat="43.15613" lon="2.98117">
        <ele>7.8</ele>
        <time>2024-05-10T12:32:24Z</time>
      </trkpt>
      <trkpt lat="43.15595" lon="2.98109">
        <ele>8</ele>
        <time>2024-05-10T12:32:25Z</time>
      </trkpt>
      <trkpt lat="43.15576" lon="2.981">
        <ele>8</ele>
        <time>2024-05-10T12:32:26Z</time>
      </trkpt>
      <trkpt lat="43.15556" lon="2.98092">
        <ele>8</ele>
        <time>2024-05-10T12:32:27Z</time>
      </trkpt>
      <trkpt lat="43.15535" lon="2.98083">
        <ele>8.7</ele>
        <time>2024-05-10T12:32:28Z</time>
      </trkpt>
      <trkpt lat="43.15513" lon="2.98074">
        <ele>8.8</ele>
        <time>2024-05-10T12:32:29Z</time>
      </trkpt>
      <trkpt lat="43.15491" lon="2.98065">
        <ele>8.6</ele>
        <time>2024-05-10T12:32:30Z</time>
      </trkpt>
      <trkpt lat="43.15467" lon="2.98056">
        <ele>9.2</ele>
        <time>2024-05-10T12:32:31Z</time>
      </trkpt>
      <trkpt lat="43.15442" lon="2.98047">
        <ele>10.2</ele>
        <time>2024-05-10T12:32:32Z</time>
      </trkpt>
      <trkpt lat="43.15417" lon="2.98038">
        <ele>10.3</ele>
        <time>2024-05-10T12:32:33Z</time>
      </trkpt>
      <trkpt lat="43.15393" lon="2.98028">
        <ele>10.1</ele>
        <time>2024-05-10T12:32:34Z</time>
      </trkpt>
      <trkpt lat="43.15367" lon="2.98019">
        <ele>10.7</ele>
        <time>2024-05-10T12:32:35Z</time>
      </trkpt>
      <trkpt lat="43.15341" lon="2.98009">
        <ele>10.6</ele>
        <time>2024-05-10T12:32:36Z</time>
      </trkpt>
      <trkpt lat="43.15315" lon="2.97997">
        <ele>11.2</ele>
        <time>2024-05-10T12:32:37Z</time>
      </trkpt>
      <trkpt lat="43.15288" lon="2.97987">
        <ele>10.3</ele>
        <time>2024-05-10T12:32:38Z</time>
      </trkpt>
      <trkpt lat="43.1526" lon="2.97975">
        <ele>10.6</ele>
        <time>2024-05-10T12:32:39Z</time>
      </trkpt>
      <trkpt lat="43.15232" lon="2.97964">
        <ele>11</ele>
        <time>2024-05-10T12:32:40Z</time>
      </trkpt>
      <trkpt lat="43.15205" lon="2.97952">
        <ele>11.8</ele>
        <time>2024-05-10T12:32:41Z</time>
      </trkpt>
      <trkpt lat="43.15178" lon="2.97938">
        <ele>12.5</ele>
        <time>2024-05-10T12:32:42Z</time>
      </trkpt>
      <trkpt lat="43.15151" lon="2.97925">
        <ele>13.3</ele>
        <time>2024-05-10T12:32:43Z</time>
      </trkpt>
      <trkpt lat="43.15123" lon="2.97909">
        <ele>12.9</ele>
        <time>2024-05-10T12:32:44Z</time>
      </trkpt>
      <trkpt lat="43.15096" lon="2.97894">
        <ele>12.9</ele>
        <time>2024-05-10T12:32:45Z</time>
      </trkpt>
      <trkpt lat="43.15069" lon="2.97879">
        <ele>13</ele>
        <time>2024-05-10T12:32:46Z</time>
      </trkpt>
      <trkpt lat="43.15042" lon="2.97864">
        <ele>13.1</ele>
        <time>2024-05-10T12:32:47Z</time>
      </trkpt>
      <trkpt lat="43.15015" lon="2.97848">
        <ele>13.5</ele>
        <time>2024-05-10T12:32:48Z</time>
      </trkpt>
      <trkpt lat="43.14989" lon="2.97833">
        <ele>14</ele>
        <time>2024-05-10T12:32:49Z</time>
      </trkpt>
      <trkpt lat="43.14964" lon="2.97819">
        <ele>14.2</ele>
        <time>2024-05-10T12:32:50Z</time>
      </trkpt>
      <trkpt lat="43.1494" lon="2.97805">
        <ele>14.8</ele>
        <time>2024-05-10T12:32:51Z</time>
      </trkpt>
      <trkpt lat="43.14917" lon="2.97792">
        <ele>14</ele>
        <time>2024-05-10T12:32:52Z</time>
      </trkpt>
      <trkpt lat="43.14894" lon="2.97779">
        <ele>14.8</ele>
        <time>2024-05-10T12:32:53Z</time>
      </trkpt>
      <trkpt lat="43.14872" lon="2.97766">
        <ele>12.8</ele>
        <time>2024-05-10T12:32:54Z</time>
      </trkpt>
      <trkpt lat="43.1485" lon="2.97754">
        <ele>13.6</ele>
        <time>2024-05-10T12:32:55Z</time>
      </trkpt>
      <trkpt lat="43.14829" lon="2.97742">
        <ele>14.5</ele>
        <time>2024-05-10T12:32:56Z</time>
      </trkpt>
      <trkpt lat="43.14808" lon="2.9773">
        <ele>13.8</ele>
        <time>2024-05-10T12:32:57Z</time>
      </trkpt>
      <trkpt lat="43.14789" lon="2.97718">
        <ele>14</ele>
        <time>2024-05-10T12:32:58Z</time>
      </trkpt>
      <trkpt lat="43.1477" lon="2.97707">
        <ele>14</ele>
        <time>2024-05-10T12:32:59Z</time>
      </trkpt>
      <trkpt lat="43.14751" lon="2.97696">
        <ele>14.9</ele>
        <time>2024-05-10T12:33:00Z</time>
      </trkpt>
      <trkpt lat="43.14731" lon="2.97685">
        <ele>14.7</ele>
        <time>2024-05-10T12:33:01Z</time>
      </trkpt>
      <trkpt lat="43.14712" lon="2.97674">
        <ele>14.6</ele>
        <time>2024-05-10T12:33:02Z</time>
      </trkpt>
      <trkpt lat="43.14693" lon="2.97663">
        <ele>15.9</ele>
        <time>2024-05-10T12:33:03Z</time>
      </trkpt>
      <trkpt lat="43.14674" lon="2.97651">
        <ele>16.3</ele>
        <time>2024-05-10T12:33:04Z</time>
      </trkpt>
      <trkpt lat="43.14656" lon="2.97641">
        <ele>17.3</ele>
        <time>2024-05-10T12:33:05Z</time>
      </trkpt>
      <trkpt lat="43.1464" lon="2.97632">
        <ele>18</ele>
        <time>2024-05-10T12:33:06Z</time>
      </trkpt>
      <trkpt lat="43.14624" lon="2.97623">
        <ele>18.5</ele>
        <time>2024-05-10T12:33:07Z</time>
      </trkpt>
      <trkpt lat="43.14609" lon="2.97614">
        <ele>19.2</ele>
        <time>2024-05-10T12:33:08Z</time>
      </trkpt>
      <trkpt lat="43.14594" lon="2.97605">
        <ele>20.3</ele>
        <time>2024-05-10T12:33:09Z</time>
      </trkpt>
      <trkpt lat="43.14579" lon="2.97597">
        <ele>21.1</ele>
        <time>2024-05-10T12:33:10Z</time>
      </trkpt>
      <trkpt lat="43.14565" lon="2.97589">
        <ele>21.5</ele>
        <time>2024-05-10T12:33:11Z</time>
      </trkpt>
      <trkpt lat="43.14553" lon="2.97581">
        <ele>22.2</ele>
        <time>2024-05-10T12:33:12Z</time>
      </trkpt>
      <trkpt lat="43.14544" lon="2.97574">
        <ele>22.8</ele>
        <time>2024-05-10T12:33:13Z</time>
      </trkpt>
      <trkpt lat="43.14538" lon="2.97569">
        <ele>23.1</ele>
        <time>2024-05-10T12:33:14Z</time>
      </trkpt>
      <trkpt lat="43.14535" lon="2.97565">
        <ele>23.4</ele>
        <time>2024-05-10T12:33:15Z</time>
      </trkpt>
      <trkpt lat="43.14533" lon="2.97563">
        <ele>23.5</ele>
        <time>2024-05-10T12:33:16Z</time>
      </trkpt>
      <trkpt lat="43.14532" lon="2.97562">
        <ele>23.6</ele>
        <time>2024-05-10T12:33:17Z</time>
      </trkpt>
      <trkpt lat="43.14531" lon="2.97561">
        <ele>23.7</ele>
        <time>2024-05-10T12:33:18Z</time>
      </trkpt>
      <trkpt lat="43.14531" lon="2.97561">
        <ele>23.7</ele>
        <time>2024-05-10T12:33:19Z</time>
      </trkpt>
      <trkpt lat="43.14531" lon="2.9756">
        <ele>23.7</ele>
        <time>2024-05-10T12:33:20Z</time>
      </trkpt>
      <trkpt lat="43.14531" lon="2.9756">
        <ele>23.7</ele>
        <time>2024-05-10T12:33:21Z</time>
      </trkpt>
      <trkpt lat="43.14531" lon="2.97561">
        <ele>23.7</ele>
        <time>2024-05-10T12:33:22Z</time>
      </trkpt>
      <trkpt lat="43.14531" lon="2.97561">
        <ele>23.7</ele>
        <time>2024-05-10T12:33:23Z</time>
      </trkpt>
      <trkpt lat="43.14531" lon="2.97561">
        <ele>23.7</ele>
        <time>2024-05-10T12:33:24Z</time>
      </trkpt>
      <trkpt lat="43.14531" lon="2.97561">
        <ele>23.7</ele>
        <time>2024-05-10T12:33:25Z</time>
      </trkpt>
      <trkpt lat="43.14531" lon="2.97561">
        <ele>23.7</ele>
        <time>2024-05-10T12:33:26Z</time>
      </trkpt>
      <trkpt lat="43.1453" lon="2.97559">
        <ele>23.8</ele>
        <time>2024-05-10T12:33:27Z</time>
      </trkpt>
      <trkpt lat="43.14528" lon="2.97555">
        <ele>24</ele>
        <time>2024-05-10T12:33:28Z</time>
      </trkpt>
      <trkpt lat="43.14525" lon="2.97548">
        <ele>24</ele>
        <time>2024-05-10T12:33:29Z</time>
      </trkpt>
      <trkpt lat="43.1452" lon="2.97539">
        <ele>24</ele>
        <time>2024-05-10T12:33:30Z</time>
      </trkpt>
      <trkpt lat="43.14512" lon="2.97532">
        <ele>24</ele>
        <time>2024-05-10T12:33:31Z</time>
      </trkpt>
      <trkpt lat="43.14503" lon="2.97532">
        <ele>24</ele>
        <time>2024-05-10T12:33:32Z</time>
      </trkpt>
      <trkpt lat="43.14493" lon="2.97535">
        <ele>23.7</ele>
        <time>2024-05-10T12:33:33Z</time>
      </trkpt>
      <trkpt lat="43.14481" lon="2.97533">
        <ele>23.3</ele>
        <time>2024-05-10T12:33:34Z</time>
      </trkpt>
      <trkpt lat="43.14467" lon="2.97528">
        <ele>23</ele>
        <time>2024-05-10T12:33:35Z</time>
      </trkpt>
      <trkpt lat="43.14452" lon="2.97519">
        <ele>23</ele>
        <time>2024-05-10T12:33:36Z</time>
      </trkpt>
      <trkpt lat="43.14435" lon="2.97508">
        <ele>22.9</ele>
        <time>2024-05-10T12:33:37Z</time>
      </trkpt>
      <trkpt lat="43.14416" lon="2.97497">
        <ele>23</ele>
        <time>2024-05-10T12:33:38Z</time>
      </trkpt>
      <trkpt lat="43.14396" lon="2.97485">
        <ele>22.3</ele>
        <time>2024-05-10T12:33:39Z</time>
      </trkpt>
      <trkpt lat="43.14376" lon="2.97472">
        <ele>22.5</ele>
        <time>2024-05-10T12:33:40Z</time>
      </trkpt>
      <trkpt lat="43.14354" lon="2.97458">
        <ele>23.3</ele>
        <time>2024-05-10T12:33:41Z</time>
      </trkpt>
      <trkpt lat="43.14332" lon="2.97444">
        <ele>25</ele>
        <time>2024-05-10T12:33:42Z</time>
      </trkpt>
      <trkpt lat="43.14309" lon="2.97431">
        <ele>24.5</ele>
        <time>2024-05-10T12:33:43Z</time>
      </trkpt>
      <trkpt lat="43.14287" lon="2.97416">
        <ele>25.7</ele>
        <time>2024-05-10T12:33:44Z</time>
      </trkpt>
      <trkpt lat="43.14263" lon="2.97401">
        <ele>25.5</ele>
        <time>2024-05-10T12:33:45Z</time>
      </trkpt>
      <trkpt lat="43.14238" lon="2.97386">
        <ele>26</ele>
        <time>2024-05-10T12:33:46Z</time>
      </trkpt>
      <trkpt lat="43.14213" lon="2.9737">
        <ele>26.1</ele>
        <time>2024-05-10T12:33:47Z</time>
      </trkpt>
      <trkpt lat="43.14188" lon="2.97354">
        <ele>26.6</ele>
        <time>2024-05-10T12:33:48Z</time>
      </trkpt>
      <trkpt lat="43.14163" lon="2.97338">
        <ele>26.9</ele>
        <time>2024-05-10T12:33:49Z</time>
      </trkpt>
      <trkpt lat="43.14138" lon="2.97323">
        <ele>28</ele>
        <time>2024-05-10T12:33:50Z</time>
      </trkpt>
      <trkpt lat="43.14112" lon="2.97307">
        <ele>28.8</ele>
        <time>2024-05-10T12:33:51Z</time>
      </trkpt>
      <trkpt lat="43.14087" lon="2.97291">
        <ele>28.6</ele>
        <time>2024-05-10T12:33:52Z</time>
      </trkpt>
      <trkpt lat="43.14061" lon="2.97276">
        <ele>29.1</ele>
        <time>2024-05-10T12:33:53Z</time>
      </trkpt>
      <trkpt lat="43.14036" lon="2.97261">
        <ele>28.9</ele>
        <time>2024-05-10T12:33:54Z</time>
      </trkpt>
      <trkpt lat="43.14013" lon="2.97247">
        <ele>29.6</ele>
        <time>2024-05-10T12:33:55Z</time>
      </trkpt>
      <trkpt lat="43.1399" lon="2.97232">
        <ele>29.7</ele>
        <time>2024-05-10T12:33:56Z</time>
      </trkpt>
      <trkpt lat="43.13969" lon="2.97216">
        <ele>30</ele>
        <time>2024-05-10T12:33:57Z</time>
      </trkpt>
      <trkpt lat="43.1395" lon="2.97199">
        <ele>29.9</ele>
        <time>2024-05-10T12:33:58Z</time>
      </trkpt>
      <trkpt lat="43.13931" lon="2.97181">
        <ele>29.3</ele>
        <time>2024-05-10T12:33:59Z</time>
      </trkpt>
      <trkpt lat="43.13914" lon="2.97162">
        <ele>29.4</ele>
        <time>2024-05-10T12:34:00Z</time>
      </trkpt>
      <trkpt lat="43.13899" lon="2.97142">
        <ele>29.1</ele>
        <time>2024-05-10T12:34:01Z</time>
      </trkpt>
      <trkpt lat="43.13884" lon="2.97123">
        <ele>29.8</ele>
        <time>2024-05-10T12:34:02Z</time>
      </trkpt>
      <trkpt lat="43.13869" lon="2.97104">
        <ele>30.2</ele>
        <time>2024-05-10T12:34:03Z</time>
      </trkpt>
      <trkpt lat="43.13855" lon="2.97085">
        <ele>30.5</ele>
        <time>2024-05-10T12:34:04Z</time>
      </trkpt>
      <trkpt lat="43.13841" lon="2.97066">
        <ele>30.6</ele>
        <time>2024-05-10T12:34:05Z</time>
      </trkpt>
      <trkpt lat="43.13826" lon="2.97046">
        <ele>30.2</ele>
        <time>2024-05-10T12:34:06Z</time>
      </trkpt>
      <trkpt lat="43.13811" lon="2.97026">
        <ele>30.3</ele>
        <time>2024-05-10T12:34:07Z</time>
      </trkpt>
      <trkpt lat="43.13797" lon="2.97006">
        <ele>30</ele>
        <time>2024-05-10T12:34:08Z</time>
      </trkpt>
      <trkpt lat="43.13783" lon="2.96986">
        <ele>29.8</ele>
        <time>2024-05-10T12:34:09Z</time>
      </trkpt>
      <trkpt lat="43.13769" lon="2.96968">
        <ele>29.9</ele>
        <time>2024-05-10T12:34:10Z</time>
      </trkpt>
      <trkpt lat="43.13756" lon="2.9695">
        <ele>30.6</ele>
        <time>2024-05-10T12:34:11Z</time>
      </trkpt>
      <trkpt lat="43.13744" lon="2.96933">
        <ele>30.6</ele>
        <time>2024-05-10T12:34:12Z</time>
      </trkpt>
      <trkpt lat="43.13732" lon="2.96916">
        <ele>31</ele>
        <time>2024-05-10T12:34:13Z</time>
      </trkpt>
      <trkpt lat="43.13721" lon="2.96901">
        <ele>30.9</ele>
        <time>2024-05-10T12:34:14Z</time>
      </trkpt>
      <trkpt lat="43.13709" lon="2.96885">
        <ele>31.3</ele>
        <time>2024-05-10T12:34:15Z</time>
      </trkpt>
      <trkpt lat="43.13697" lon="2.9687">
        <ele>31.8</ele>
        <time>2024-05-10T12:34:16Z</time>
      </trkpt>
      <trkpt lat="43.13685" lon="2.96855">
        <ele>31.6</ele>
        <time>2024-05-10T12:34:17Z</time>
      </trkpt>
      <trkpt lat="43.13673" lon="2.96839">
        <ele>31.9</ele>
        <time>2024-05-10T12:34:18Z</time>
      </trkpt>
      <trkpt lat="43.13661" lon="2.96823">
        <ele>31.9</ele>
        <time>2024-05-10T12:34:19Z</time>
      </trkpt>
      <trkpt lat="43.13648" lon="2.96808">
        <ele>32.1</ele>
        <time>2024-05-10T12:34:20Z</time>
      </trkpt>
      <trkpt lat="43.13635" lon="2.96792">
        <ele>31.7</ele>
        <time>2024-05-10T12:34:21Z</time>
      </trkpt>
      <trkpt lat="43.13621" lon="2.96778">
        <ele>31.3</ele>
        <time>2024-05-10T12:34:22Z</time>
      </trkpt>
      <trkpt lat="43.13606" lon="2.96763">
        <ele>30.6</ele>
        <time>2024-05-10T12:34:23Z</time>
      </trkpt>
      <trkpt lat="43.13591" lon="2.96748">
        <ele>30.3</ele>
        <time>2024-05-10T12:34:24Z</time>
      </trkpt>
      <trkpt lat="43.13575" lon="2.96733">
        <ele>29.7</ele>
        <time>2024-05-10T12:34:25Z</time>
      </trkpt>
      <trkpt lat="43.13559" lon="2.96718">
        <ele>30</ele>
        <time>2024-05-10T12:34:26Z</time>
      </trkpt>
      <trkpt lat="43.13542" lon="2.96702">
        <ele>29.6</ele>
        <time>2024-05-10T12:34:27Z</time>
      </trkpt>
      <trkpt lat="43.13525" lon="2.96687">
        <ele>29.5</ele>
        <time>2024-05-10T12:34:28Z</time>
      </trkpt>
      <trkpt lat="43.13509" lon="2.96671">
        <ele>29.4</ele>
        <time>2024-05-10T12:34:29Z</time>
      </trkpt>
      <trkpt lat="43.13492" lon="2.96656">
        <ele>29.1</ele>
        <time>2024-05-10T12:34:30Z</time>
      </trkpt>
      <trkpt lat="43.13475" lon="2.9664">
        <ele>28.9</ele>
        <time>2024-05-10T12:34:31Z</time>
      </trkpt>
      <trkpt lat="43.13458" lon="2.96624">
        <ele>29</ele>
        <time>2024-05-10T12:34:32Z</time>
      </trkpt>
      <trkpt lat="43.13441" lon="2.96608">
        <ele>29.7</ele>
        <time>2024-05-10T12:34:33Z</time>
      </trkpt>
      <trkpt lat="43.13423" lon="2.96591">
        <ele>29.5</ele>
        <time>2024-05-10T12:34:34Z</time>
      </trkpt>
      <trkpt lat="43.13405" lon="2.96575">
        <ele>29.7</ele>
        <time>2024-05-10T12:34:35Z</time>
      </trkpt>
      <trkpt lat="43.13388" lon="2.96559">
        <ele>30.8</ele>
        <time>2024-05-10T12:34:36Z</time>
      </trkpt>
      <trkpt lat="43.13371" lon="2.96544">
        <ele>31.4</ele>
        <time>2024-05-10T12:34:37Z</time>
      </trkpt>
      <trkpt lat="43.13356" lon="2.9653">
        <ele>30.8</ele>
        <time>2024-05-10T12:34:38Z</time>
      </trkpt>
      <trkpt lat="43.13341" lon="2.96516">
        <ele>29.3</ele>
        <time>2024-05-10T12:34:39Z</time>
      </trkpt>
      <trkpt lat="43.13326" lon="2.96502">
        <ele>27.5</ele>
        <time>2024-05-10T12:34:40Z</time>
      </trkpt>
      <trkpt lat="43.13311" lon="2.96489">
        <ele>29.8</ele>
        <time>2024-05-10T12:34:41Z</time>
      </trkpt>
      <trkpt lat="43.13296" lon="2.96475">
        <ele>30.4</ele>
        <time>2024-05-10T12:34:42Z</time>
      </trkpt>
      <trkpt lat="43.1328" lon="2.9646">
        <ele>31.4</ele>
        <time>2024-05-10T12:34:43Z</time>
      </trkpt>
      <trkpt lat="43.13264" lon="2.96446">
        <ele>32</ele>
        <time>2024-05-10T12:34:44Z</time>
      </trkpt>
      <trkpt lat="43.13249" lon="2.96432">
        <ele>32.5</ele>
        <time>2024-05-10T12:34:45Z</time>
      </trkpt>
      <trkpt lat="43.13233" lon="2.96418">
        <ele>33</ele>
        <time>2024-05-10T12:34:46Z</time>
      </trkpt>
      <trkpt lat="43.13217" lon="2.96403">
        <ele>33.5</ele>
        <time>2024-05-10T12:34:47Z</time>
      </trkpt>
      <trkpt lat="43.13201" lon="2.96388">
        <ele>34</ele>
        <time>2024-05-10T12:34:48Z</time>
      </trkpt>
      <trkpt lat="43.13184" lon="2.96373">
        <ele>33.8</ele>
        <time>2024-05-10T12:34:49Z</time>
      </trkpt>
      <trkpt lat="43.13167" lon="2.96358">
        <ele>34</ele>
        <time>2024-05-10T12:34:50Z</time>
      </trkpt>
      <trkpt lat="43.13151" lon="2.96343">
        <ele>34</ele>
        <time>2024-05-10T12:34:51Z</time>
      </trkpt>
      <trkpt lat="43.13134" lon="2.96328">
        <ele>34</ele>
        <time>2024-05-10T12:34:52Z</time>
      </trkpt>
      <trkpt lat="43.13117" lon="2.96313">
        <ele>34</ele>
        <time>2024-05-10T12:34:53Z</time>
      </trkpt>
      <trkpt lat="43.131" lon="2.96297">
        <ele>34</ele>
        <time>2024-05-10T12:34:54Z</time>
      </trkpt>
      <trkpt lat="43.13083" lon="2.96282">
        <ele>34</ele>
        <time>2024-05-10T12:34:55Z</time>
      </trkpt>
      <trkpt lat="43.13066" lon="2.96266">
        <ele>34</ele>
        <time>2024-05-10T12:34:56Z</time>
      </trkpt>
      <trkpt lat="43.13049" lon="2.96251">
        <ele>34</ele>
        <time>2024-05-10T12:34:57Z</time>
      </trkpt>
      <trkpt lat="43.13032" lon="2.96235">
        <ele>34.7</ele>
        <time>2024-05-10T12:34:58Z</time>
      </trkpt>
      <trkpt lat="43.13014" lon="2.96218">
        <ele>34.7</ele>
        <time>2024-05-10T12:34:59Z</time>
      </trkpt>
      <trkpt lat="43.12996" lon="2.96203">
        <ele>33.4</ele>
        <time>2024-05-10T12:35:00Z</time>
      </trkpt>
      <trkpt lat="43.12979" lon="2.96187">
        <ele>33.6</ele>
        <time>2024-05-10T12:35:01Z</time>
      </trkpt>
      <trkpt lat="43.12962" lon="2.96172">
        <ele>32.8</ele>
        <time>2024-05-10T12:35:02Z</time>
      </trkpt>
      <trkpt lat="43.12946" lon="2.96157">
        <ele>33.3</ele>
        <time>2024-05-10T12:35:03Z</time>
      </trkpt>
      <trkpt lat="43.1293" lon="2.96143">
        <ele>33</ele>
        <time>2024-05-10T12:35:04Z</time>
      </trkpt>
      <trkpt lat="43.12913" lon="2.96129">
        <ele>33.6</ele>
        <time>2024-05-10T12:35:05Z</time>
      </trkpt>
      <trkpt lat="43.12897" lon="2.96114">
        <ele>33.7</ele>
        <time>2024-05-10T12:35:06Z</time>
      </trkpt>
      <trkpt lat="43.1288" lon="2.961">
        <ele>34.4</ele>
        <time>2024-05-10T12:35:07Z</time>
      </trkpt>
      <trkpt lat="43.12863" lon="2.96085">
        <ele>34.9</ele>
        <time>2024-05-10T12:35:08Z</time>
      </trkpt>
      <trkpt lat="43.12847" lon="2.96072">
        <ele>35.3</ele>
        <time>2024-05-10T12:35:09Z</time>
      </trkpt>
      <trkpt lat="43.12831" lon="2.96058">
        <ele>36.2</ele>
        <time>2024-05-10T12:35:10Z</time>
      </trkpt>
      <trkpt lat="43.12814" lon="2.96043">
        <ele>36.6</ele>
        <time>2024-05-10T12:35:11Z</time>
      </trkpt>
      <trkpt lat="43.12798" lon="2.96028">
        <ele>36.6</ele>
        <time>2024-05-10T12:35:12Z</time>
      </trkpt>
      <trkpt lat="43.12782" lon="2.96015">
        <ele>36.8</ele>
        <time>2024-05-10T12:35:13Z</time>
      </trkpt>
      <trkpt lat="43.12766" lon="2.96">
        <ele>36.8</ele>
        <time>2024-05-10T12:35:14Z</time>
      </trkpt>
      <trkpt lat="43.12751" lon="2.95987">
        <ele>37</ele>
        <time>2024-05-10T12:35:15Z</time>
      </trkpt>
      <trkpt lat="43.12735" lon="2.95973">
        <ele>36.6</ele>
        <time>2024-05-10T12:35:16Z</time>
      </trkpt>
      <trkpt lat="43.12719" lon="2.95958">
        <ele>37.1</ele>
        <time>2024-05-10T12:35:17Z</time>
      </trkpt>
      <trkpt lat="43.12702" lon="2.95943">
        <ele>36.9</ele>
        <time>2024-05-10T12:35:18Z</time>
      </trkpt>
      <trkpt lat="43.12683" lon="2.95927">
        <ele>36.9</ele>
        <time>2024-05-10T12:35:19Z</time>
      </trkpt>
      <trkpt lat="43.12664" lon="2.9591">
        <ele>36.8</ele>
        <time>2024-05-10T12:35:20Z</time>
      </trkpt>
      <trkpt lat="43.12644" lon="2.95894">
        <ele>36.3</ele>
        <time>2024-05-10T12:35:21Z</time>
      </trkpt>
      <trkpt lat="43.12624" lon="2.95876">
        <ele>35.8</ele>
        <time>2024-05-10T12:35:22Z</time>
      </trkpt>
      <trkpt lat="43.12604" lon="2.95858">
        <ele>35.1</ele>
        <time>2024-05-10T12:35:23Z</time>
      </trkpt>
      <trkpt lat="43.12583" lon="2.9584">
        <ele>34.2</ele>
        <time>2024-05-10T12:35:24Z</time>
      </trkpt>
      <trkpt lat="43.12563" lon="2.95821">
        <ele>34.5</ele>
        <time>2024-05-10T12:35:25Z</time>
      </trkpt>
      <trkpt lat="43.12542" lon="2.95802">
        <ele>34.1</ele>
        <time>2024-05-10T12:35:26Z</time>
      </trkpt>
      <trkpt lat="43.12521" lon="2.95783">
        <ele>33.3</ele>
        <time>2024-05-10T12:35:27Z</time>
      </trkpt>
      <trkpt lat="43.125" lon="2.95764">
        <ele>33.5</ele>
        <time>2024-05-10T12:35:28Z</time>
      </trkpt>
      <trkpt lat="43.12479" lon="2.95745">
        <ele>33.6</ele>
        <time>2024-05-10T12:35:29Z</time>
      </trkpt>
      <trkpt lat="43.12458" lon="2.95726">
        <ele>33.4</ele>
        <time>2024-05-10T12:35:30Z</time>
      </trkpt>
      <trkpt lat="43.12436" lon="2.95708">
        <ele>33</ele>
        <time>2024-05-10T12:35:31Z</time>
      </trkpt>
      <trkpt lat="43.12416" lon="2.9569">
        <ele>33.6</ele>
        <time>2024-05-10T12:35:32Z</time>
      </trkpt>
      <trkpt lat="43.12395" lon="2.95672">
        <ele>33.3</ele>
        <time>2024-05-10T12:35:33Z</time>
      </trkpt>
      <trkpt lat="43.12375" lon="2.95653">
        <ele>33</ele>
        <time>2024-05-10T12:35:34Z</time>
      </trkpt>
      <trkpt lat="43.12354" lon="2.95635">
        <ele>32.8</ele>
        <time>2024-05-10T12:35:35Z</time>
      </trkpt>
      <trkpt lat="43.12333" lon="2.95616">
        <ele>32.8</ele>
        <time>2024-05-10T12:35:36Z</time>
      </trkpt>
      <trkpt lat="43.12312" lon="2.95598">
        <ele>32.6</ele>
        <time>2024-05-10T12:35:37Z</time>
      </trkpt>
      <trkpt lat="43.12291" lon="2.95579">
        <ele>33</ele>
        <time>2024-05-10T12:35:38Z</time>
      </trkpt>
      <trkpt lat="43.12271" lon="2.95561">
        <ele>33.1</ele>
        <time>2024-05-10T12:35:39Z</time>
      </trkpt>
      <trkpt lat="43.12252" lon="2.95544">
        <ele>33.5</ele>
        <time>2024-05-10T12:35:40Z</time>
      </trkpt>
      <trkpt lat="43.12234" lon="2.95529">
        <ele>33.5</ele>
        <time>2024-05-10T12:35:41Z</time>
      </trkpt>
      <trkpt lat="43.1222" lon="2.95516">
        <ele>33.6</ele>
        <time>2024-05-10T12:35:42Z</time>
      </trkpt>
      <trkpt lat="43.12207" lon="2.95506">
        <ele>33.5</ele>
        <time>2024-05-10T12:35:43Z</time>
      </trkpt>
      <trkpt lat="43.12195" lon="2.95497">
        <ele>34</ele>
        <time>2024-05-10T12:35:44Z</time>
      </trkpt>
      <trkpt lat="43.12182" lon="2.95488">
        <ele>33.7</ele>
        <time>2024-05-10T12:35:45Z</time>
      </trkpt>
      <trkpt lat="43.12172" lon="2.95481">
        <ele>33.7</ele>
        <time>2024-05-10T12:35:46Z</time>
      </trkpt>
      <trkpt lat="43.12164" lon="2.95476">
        <ele>33.9</ele>
        <time>2024-05-10T12:35:47Z</time>
      </trkpt>
      <trkpt lat="43.12156" lon="2.9547">
        <ele>34</ele>
        <time>2024-05-10T12:35:48Z</time>
      </trkpt>
      <trkpt lat="43.12149" lon="2.95466">
        <ele>34</ele>
        <time>2024-05-10T12:35:49Z</time>
      </trkpt>
      <trkpt lat="43.12142" lon="2.95462">
        <ele>34</ele>
        <time>2024-05-10T12:35:50Z</time>
      </trkpt>
      <trkpt lat="43.12136" lon="2.95458">
        <ele>33.9</ele>
        <time>2024-05-10T12:35:51Z</time>
      </trkpt>
      <trkpt lat="43.12131" lon="2.95455">
        <ele>33.8</ele>
        <time>2024-05-10T12:35:52Z</time>
      </trkpt>
      <trkpt lat="43.12126" lon="2.95453">
        <ele>33.7</ele>
        <time>2024-05-10T12:35:53Z</time>
      </trkpt>
      <trkpt lat="43.12121" lon="2.9545">
        <ele>33.7</ele>
        <time>2024-05-10T12:35:54Z</time>
      </trkpt>
      <trkpt lat="43.12117" lon="2.95447">
        <ele>33.9</ele>
        <time>2024-05-10T12:35:55Z</time>
      </trkpt>
      <trkpt lat="43.12113" lon="2.95444">
        <ele>34</ele>
        <time>2024-05-10T12:35:56Z</time>
      </trkpt>
      <trkpt lat="43.12109" lon="2.95442">
        <ele>33.8</ele>
        <time>2024-05-10T12:35:57Z</time>
      </trkpt>
      <trkpt lat="43.12105" lon="2.95439">
        <ele>33.7</ele>
        <time>2024-05-10T12:35:58Z</time>
      </trkpt>
      <trkpt lat="43.12102" lon="2.95437">
        <ele>33.6</ele>
        <time>2024-05-10T12:35:59Z</time>
      </trkpt>
      <trkpt lat="43.12098" lon="2.95434">
        <ele>33.5</ele>
        <time>2024-05-10T12:36:00Z</time>
      </trkpt>
      <trkpt lat="43.12094" lon="2.95431">
        <ele>33.5</ele>
        <time>2024-05-10T12:36:01Z</time>
      </trkpt>
      <trkpt lat="43.1209" lon="2.95429">
        <ele>33.5</ele>
        <time>2024-05-10T12:36:02Z</time>
      </trkpt>
      <trkpt lat="43.12086" lon="2.95427">
        <ele>33.6</ele>
        <time>2024-05-10T12:36:03Z</time>
      </trkpt>
      <trkpt lat="43.12083" lon="2.95425">
        <ele>33.7</ele>
        <time>2024-05-10T12:36:04Z</time>
      </trkpt>
      <trkpt lat="43.1208" lon="2.95423">
        <ele>33.8</ele>
        <time>2024-05-10T12:36:05Z</time>
      </trkpt>
      <trkpt lat="43.12077" lon="2.95421">
        <ele>34</ele>
        <time>2024-05-10T12:36:06Z</time>
      </trkpt>
      <trkpt lat="43.12075" lon="2.9542">
        <ele>34.1</ele>
        <time>2024-05-10T12:36:07Z</time>
      </trkpt>
      <trkpt lat="43.12072" lon="2.95418">
        <ele>34.3</ele>
        <time>2024-05-10T12:36:08Z</time>
      </trkpt>
      <trkpt lat="43.1207" lon="2.95416">
        <ele>34.5</ele>
        <time>2024-05-10T12:36:09Z</time>
      </trkpt>
      <trkpt lat="43.12067" lon="2.95414">
        <ele>34.5</ele>
        <time>2024-05-10T12:36:10Z</time>
      </trkpt>
      <trkpt lat="43.12064" lon="2.95412">
        <ele>34.5</ele>
        <time>2024-05-10T12:36:11Z</time>
      </trkpt>
      <trkpt lat="43.12061" lon="2.9541">
        <ele>34.6</ele>
        <time>2024-05-10T12:36:12Z</time>
      </trkpt>
      <trkpt lat="43.12057" lon="2.95408">
        <ele>34.6</ele>
        <time>2024-05-10T12:36:13Z</time>
      </trkpt>
      <trkpt lat="43.12054" lon="2.95406">
        <ele>34.6</ele>
        <time>2024-05-10T12:36:14Z</time>
      </trkpt>
      <trkpt lat="43.1205" lon="2.95404">
        <ele>34.4</ele>
        <time>2024-05-10T12:36:15Z</time>
      </trkpt>
      <trkpt lat="43.12047" lon="2.95402">
        <ele>34.3</ele>
        <time>2024-05-10T12:36:16Z</time>
      </trkpt>
      <trkpt lat="43.12043" lon="2.954">
        <ele>34.3</ele>
        <time>2024-05-10T12:36:17Z</time>
      </trkpt>
      <trkpt lat="43.12041" lon="2.95398">
        <ele>34.3</ele>
        <time>2024-05-10T12:36:18Z</time>
      </trkpt>
      <trkpt lat="43.12038" lon="2.95397">
        <ele>34.4</ele>
        <time>2024-05-10T12:36:19Z</time>
      </trkpt>
      <trkpt lat="43.12036" lon="2.95395">
        <ele>34.5</ele>
        <time>2024-05-10T12:36:20Z</time>
      </trkpt>
      <trkpt lat="43.12035" lon="2.95394">
        <ele>34.5</ele>
        <time>2024-05-10T12:36:21Z</time>
      </trkpt>
      <trkpt lat="43.12035" lon="2.95394">
        <ele>34.5</ele>
        <time>2024-05-10T12:36:22Z</time>
      </trkpt>
      <trkpt lat="43.12035" lon="2.95395">
        <ele>34.5</ele>
        <time>2024-05-10T12:36:23Z</time>
      </trkpt>
      <trkpt lat="43.12036" lon="2.95395">
        <ele>34.5</ele>
        <time>2024-05-10T12:36:24Z</time>
      </trkpt>
      <trkpt lat="43.12036" lon="2.95395">
        <ele>34.5</ele>
        <time>2024-05-10T12:36:25Z</time>
      </trkpt>
      <trkpt lat="43.12036" lon="2.95395">
        <ele>34.5</ele>
        <time>2024-05-10T12:36:26Z</time>
      </trkpt>
      <trkpt lat="43.12035" lon="2.95395">
        <ele>34.5</ele>
        <time>2024-05-10T12:36:27Z</time>
      </trkpt>
      <trkpt lat="43.12035" lon="2.95395">
        <ele>34.5</ele>
        <time>2024-05-10T12:36:28Z</time>
      </trkpt>
      <trkpt lat="43.12035" lon="2.95395">
        <ele>34.5</ele>
        <time>2024-05-10T12:36:29Z</time>
      </trkpt>
      <trkpt lat="43.12032" lon="2.95393">
        <ele>34.6</ele>
        <time>2024-05-10T12:36:30Z</time>
      </trkpt>
      <trkpt lat="43.12026" lon="2.95389">
        <ele>35</ele>
        <time>2024-05-10T12:36:31Z</time>
      </trkpt>
      <trkpt lat="43.1202" lon="2.95385">
        <ele>35.1</ele>
        <time>2024-05-10T12:36:32Z</time>
      </trkpt>
      <trkpt lat="43.12013" lon="2.9538">
        <ele>35.1</ele>
        <time>2024-05-10T12:36:33Z</time>
      </trkpt>
      <trkpt lat="43.12006" lon="2.95376">
        <ele>35.1</ele>
        <time>2024-05-10T12:36:34Z</time>
      </trkpt>
      <trkpt lat="43.11998" lon="2.95371">
        <ele>35.1</ele>
        <time>2024-05-10T12:36:35Z</time>
      </trkpt>
      <trkpt lat="43.11988" lon="2.95365">
        <ele>35.4</ele>
        <time>2024-05-10T12:36:36Z</time>
      </trkpt>
      <trkpt lat="43.11979" lon="2.95359">
        <ele>35.8</ele>
        <time>2024-05-10T12:36:37Z</time>
      </trkpt>
      <trkpt lat="43.1197" lon="2.95354">
        <ele>36</ele>
        <time>2024-05-10T12:36:38Z</time>
      </trkpt>
      <trkpt lat="43.1196" lon="2.95348">
        <ele>36</ele>
        <time>2024-05-10T12:36:39Z</time>
      </trkpt>
      <trkpt lat="43.11951" lon="2.95342">
        <ele>36</ele>
        <time>2024-05-10T12:36:40Z</time>
      </trkpt>
      <trkpt lat="43.11941" lon="2.95335">
        <ele>35.9</ele>
        <time>2024-05-10T12:36:41Z</time>
      </trkpt>
      <trkpt lat="43.11931" lon="2.95329">
        <ele>35.6</ele>
        <time>2024-05-10T12:36:42Z</time>
      </trkpt>
      <trkpt lat="43.11923" lon="2.95322">
        <ele>35.5</ele>
        <time>2024-05-10T12:36:43Z</time>
      </trkpt>
      <trkpt lat="43.11914" lon="2.95317">
        <ele>35.5</ele>
        <time>2024-05-10T12:36:44Z</time>
      </trkpt>
      <trkpt lat="43.11904" lon="2.95311">
        <ele>35.7</ele>
        <time>2024-05-10T12:36:45Z</time>
      </trkpt>
      <trkpt lat="43.11894" lon="2.95304">
        <ele>36</ele>
        <time>2024-05-10T12:36:46Z</time>
      </trkpt>
      <trkpt lat="43.11883" lon="2.95296">
        <ele>35.9</ele>
        <time>2024-05-10T12:36:47Z</time>
      </trkpt>
      <trkpt lat="43.11872" lon="2.95288">
        <ele>36.2</ele>
        <time>2024-05-10T12:36:48Z</time>
      </trkpt>
      <trkpt lat="43.1186" lon="2.9528">
        <ele>36.8</ele>
        <time>2024-05-10T12:36:49Z</time>
      </trkpt>
      <trkpt lat="43.11848" lon="2.95273">
        <ele>36.9</ele>
        <time>2024-05-10T12:36:50Z</time>
      </trkpt>
      <trkpt lat="43.11836" lon="2.95265">
        <ele>36.6</ele>
        <time>2024-05-10T12:36:51Z</time>
      </trkpt>
      <trkpt lat="43.11824" lon="2.95257">
        <ele>36.7</ele>
        <time>2024-05-10T12:36:52Z</time>
      </trkpt>
      <trkpt lat="43.11813" lon="2.9525">
        <ele>37.5</ele>
        <time>2024-05-10T12:36:53Z</time>
      </trkpt>
      <trkpt lat="43.11804" lon="2.95244">
        <ele>37.5</ele>
        <time>2024-05-10T12:36:54Z</time>
      </trkpt>
      <trkpt lat="43.11796" lon="2.95238">
        <ele>37</ele>
        <time>2024-05-10T12:36:55Z</time>
      </trkpt>
      <trkpt lat="43.11787" lon="2.95233">
        <ele>37.1</ele>
        <time>2024-05-10T12:36:56Z</time>
      </trkpt>
      <trkpt lat="43.11778" lon="2.95227">
        <ele>37.6</ele>
        <time>2024-05-10T12:36:57Z</time>
      </trkpt>
      <trkpt lat="43.11768" lon="2.9522">
        <ele>37.9</ele>
        <time>2024-05-10T12:36:58Z</time>
      </trkpt>
      <trkpt lat="43.11757" lon="2.95213">
        <ele>37.7</ele>
        <time>2024-05-10T12:36:59Z</time>
      </trkpt>
      <trkpt lat="43.11746" lon="2.95205">
        <ele>37.8</ele>
        <time>2024-05-10T12:37:00Z</time>
      </trkpt>
      <trkpt lat="43.11734" lon="2.95197">
        <ele>38.8</ele>
        <time>2024-05-10T12:37:01Z</time>
      </trkpt>
      <trkpt lat="43.11722" lon="2.95189">
        <ele>39.6</ele>
        <time>2024-05-10T12:37:02Z</time>
      </trkpt>
      <trkpt lat="43.1171" lon="2.95182">
        <ele>39.9</ele>
        <time>2024-05-10T12:37:03Z</time>
      </trkpt>
      <trkpt lat="43.11697" lon="2.95173">
        <ele>40.8</ele>
        <time>2024-05-10T12:37:04Z</time>
      </trkpt>
      <trkpt lat="43.11684" lon="2.95164">
        <ele>41</ele>
        <time>2024-05-10T12:37:05Z</time>
      </trkpt>
      <trkpt lat="43.11671" lon="2.95155">
        <ele>41.3</ele>
        <time>2024-05-10T12:37:06Z</time>
      </trkpt>
      <trkpt lat="43.11657" lon="2.95146">
        <ele>41.9</ele>
        <time>2024-05-10T12:37:07Z</time>
      </trkpt>
      <trkpt lat="43.11644" lon="2.95139">
        <ele>42</ele>
        <time>2024-05-10T12:37:08Z</time>
      </trkpt>
      <trkpt lat="43.11629" lon="2.95132">
        <ele>41.6</ele>
        <time>2024-05-10T12:37:09Z</time>
      </trkpt>
      <trkpt lat="43.11615" lon="2.95126">
        <ele>41.1</ele>
        <time>2024-05-10T12:37:10Z</time>
      </trkpt>
      <trkpt lat="43.11601" lon="2.95122">
        <ele>40.9</ele>
        <time>2024-05-10T12:37:11Z</time>
      </trkpt>
      <trkpt lat="43.11587" lon="2.95117">
        <ele>40.8</ele>
        <time>2024-05-10T12:37:12Z</time>
      </trkpt>
      <trkpt lat="43.11572" lon="2.95113">
        <ele>41</ele>
        <time>2024-05-10T12:37:13Z</time>
      </trkpt>
      <trkpt lat="43.11556" lon="2.95108">
        <ele>40.9</ele>
        <time>2024-05-10T12:37:14Z</time>
      </trkpt>
      <trkpt lat="43.11539" lon="2.95103">
        <ele>40.5</ele>
        <time>2024-05-10T12:37:15Z</time>
      </trkpt>
      <trkpt lat="43.11523" lon="2.95098">
        <ele>39.9</ele>
        <time>2024-05-10T12:37:16Z</time>
      </trkpt>
      <trkpt lat="43.11508" lon="2.95093">
        <ele>39</ele>
        <time>2024-05-10T12:37:17Z</time>
      </trkpt>
      <trkpt lat="43.11491" lon="2.95088">
        <ele>37.8</ele>
        <time>2024-05-10T12:37:18Z</time>
      </trkpt>
      <trkpt lat="43.11475" lon="2.95083">
        <ele>37.1</ele>
        <time>2024-05-10T12:37:19Z</time>
      </trkpt>
      <trkpt lat="43.11459" lon="2.95078">
        <ele>36.8</ele>
        <time>2024-05-10T12:37:20Z</time>
      </trkpt>
      <trkpt lat="43.11442" lon="2.95072">
        <ele>36.5</ele>
        <time>2024-05-10T12:37:21Z</time>
      </trkpt>
      <trkpt lat="43.11425" lon="2.95067">
        <ele>35.8</ele>
        <time>2024-05-10T12:37:22Z</time>
      </trkpt>
      <trkpt lat="43.11407" lon="2.95061">
        <ele>35.9</ele>
        <time>2024-05-10T12:37:23Z</time>
      </trkpt>
      <trkpt lat="43.11389" lon="2.95056">
        <ele>36.9</ele>
        <time>2024-05-10T12:37:24Z</time>
      </trkpt>
      <trkpt lat="43.11371" lon="2.9505">
        <ele>36.8</ele>
        <time>2024-05-10T12:37:25Z</time>
      </trkpt>
      <trkpt lat="43.11354" lon="2.95044">
        <ele>36.7</ele>
        <time>2024-05-10T12:37:26Z</time>
      </trkpt>
      <trkpt lat="43.11337" lon="2.95039">
        <ele>36.9</ele>
        <time>2024-05-10T12:37:27Z</time>
      </trkpt>
      <trkpt lat="43.11321" lon="2.95034">
        <ele>37.1</ele>
        <time>2024-05-10T12:37:28Z</time>
      </trkpt>
      <trkpt lat="43.11304" lon="2.95029">
        <ele>37</ele>
        <time>2024-05-10T12:37:29Z</time>
      </trkpt>
      <trkpt lat="43.11288" lon="2.95024">
        <ele>36.6</ele>
        <time>2024-05-10T12:37:30Z</time>
      </trkpt>
      <trkpt lat="43.11272" lon="2.95019">
        <ele>36.4</ele>
        <time>2024-05-10T12:37:31Z</time>
      </trkpt>
      <trkpt lat="43.11257" lon="2.95014">
        <ele>35.9</ele>
        <time>2024-05-10T12:37:32Z</time>
      </trkpt>
      <trkpt lat="43.11241" lon="2.95009">
        <ele>35.4</ele>
        <time>2024-05-10T12:37:33Z</time>
      </trkpt>
      <trkpt lat="43.11224" lon="2.95004">
        <ele>34.9</ele>
        <time>2024-05-10T12:37:34Z</time>
      </trkpt>
      <trkpt lat="43.11208" lon="2.94999">
        <ele>34.5</ele>
        <time>2024-05-10T12:37:35Z</time>
      </trkpt>
      <trkpt lat="43.11193" lon="2.94994">
        <ele>34.2</ele>
        <time>2024-05-10T12:37:36Z</time>
      </trkpt>
      <trkpt lat="43.11178" lon="2.94989">
        <ele>33.8</ele>
        <time>2024-05-10T12:37:37Z</time>
      </trkpt>
      <trkpt lat="43.11164" lon="2.94984">
        <ele>33.5</ele>
        <time>2024-05-10T12:37:38Z</time>
      </trkpt>
      <trkpt lat="43.11149" lon="2.94978">
        <ele>33.2</ele>
        <time>2024-05-10T12:37:39Z</time>
      </trkpt>
      <trkpt lat="43.11134" lon="2.94971">
        <ele>33</ele>
        <time>2024-05-10T12:37:40Z</time>
      </trkpt>
      <trkpt lat="43.11119" lon="2.94963">
        <ele>32.9</ele>
        <time>2024-05-10T12:37:41Z</time>
      </trkpt>
      <trkpt lat="43.11104" lon="2.94953">
        <ele>32.3</ele>
        <time>2024-05-10T12:37:42Z</time>
      </trkpt>
      <trkpt lat="43.1109" lon="2.94942">
        <ele>31.8</ele>
        <time>2024-05-10T12:37:43Z</time>
      </trkpt>
      <trkpt lat="43.11076" lon="2.94932">
        <ele>31.6</ele>
        <time>2024-05-10T12:37:44Z</time>
      </trkpt>
      <trkpt lat="43.11062" lon="2.94922">
        <ele>30.6</ele>
        <time>2024-05-10T12:37:45Z</time>
      </trkpt>
      <trkpt lat="43.11048" lon="2.94911">
        <ele>29.9</ele>
        <time>2024-05-10T12:37:46Z</time>
      </trkpt>
      <trkpt lat="43.11034" lon="2.94901">
        <ele>28.8</ele>
        <time>2024-05-10T12:37:47Z</time>
      </trkpt>
      <trkpt lat="43.11021" lon="2.94891">
        <ele>27.7</ele>
        <time>2024-05-10T12:37:48Z</time>
      </trkpt>
      <trkpt lat="43.11007" lon="2.94881">
        <ele>27.3</ele>
        <time>2024-05-10T12:37:49Z</time>
      </trkpt>
      <trkpt lat="43.10993" lon="2.94871">
        <ele>26.4</ele>
        <time>2024-05-10T12:37:50Z</time>
      </trkpt>
      <trkpt lat="43.10979" lon="2.9486">
        <ele>25.6</ele>
        <time>2024-05-10T12:37:51Z</time>
      </trkpt>
      <trkpt lat="43.10964" lon="2.94848">
        <ele>25.2</ele>
        <time>2024-05-10T12:37:52Z</time>
      </trkpt>
      <trkpt lat="43.10948" lon="2.94836">
        <ele>24.3</ele>
        <time>2024-05-10T12:37:53Z</time>
      </trkpt>
      <trkpt lat="43.10931" lon="2.94824">
        <ele>23.9</ele>
        <time>2024-05-10T12:37:54Z</time>
      </trkpt>
      <trkpt lat="43.10915" lon="2.94812">
        <ele>23.7</ele>
        <time>2024-05-10T12:37:55Z</time>
      </trkpt>
      <trkpt lat="43.10899" lon="2.948">
        <ele>23.5</ele>
        <time>2024-05-10T12:37:56Z</time>
      </trkpt>
      <trkpt lat="43.10883" lon="2.94788">
        <ele>23.3</ele>
        <time>2024-05-10T12:37:57Z</time>
      </trkpt>
      <trkpt lat="43.10866" lon="2.94776">
        <ele>23.2</ele>
        <time>2024-05-10T12:37:58Z</time>
      </trkpt>
      <trkpt lat="43.1085" lon="2.94763">
        <ele>22.4</ele>
        <time>2024-05-10T12:37:59Z</time>
      </trkpt>
      <trkpt lat="43.10833" lon="2.94751">
        <ele>22</ele>
        <time>2024-05-10T12:38:00Z</time>
      </trkpt>
      <trkpt lat="43.10817" lon="2.94739">
        <ele>21.6</ele>
        <time>2024-05-10T12:38:01Z</time>
      </trkpt>
      <trkpt lat="43.10801" lon="2.94727">
        <ele>21.8</ele>
        <time>2024-05-10T12:38:02Z</time>
      </trkpt>
      <trkpt lat="43.10786" lon="2.94715">
        <ele>22</ele>
        <time>2024-05-10T12:38:03Z</time>
      </trkpt>
      <trkpt lat="43.10771" lon="2.94704">
        <ele>21.8</ele>
        <time>2024-05-10T12:38:04Z</time>
      </trkpt>
      <trkpt lat="43.10756" lon="2.94693">
        <ele>22</ele>
        <time>2024-05-10T12:38:05Z</time>
      </trkpt>
      <trkpt lat="43.10742" lon="2.94682">
        <ele>21.5</ele>
        <time>2024-05-10T12:38:06Z</time>
      </trkpt>
      <trkpt lat="43.10727" lon="2.94671">
        <ele>21.7</ele>
        <time>2024-05-10T12:38:07Z</time>
      </trkpt>
      <trkpt lat="43.10713" lon="2.9466">
        <ele>21.5</ele>
        <time>2024-05-10T12:38:08Z</time>
      </trkpt>
      <trkpt lat="43.10699" lon="2.94649">
        <ele>21.1</ele>
        <time>2024-05-10T12:38:09Z</time>
      </trkpt>
      <trkpt lat="43.10685" lon="2.94639">
        <ele>20.7</ele>
        <time>2024-05-10T12:38:10Z</time>
      </trkpt>
      <trkpt lat="43.10673" lon="2.94629">
        <ele>20.2</ele>
        <time>2024-05-10T12:38:11Z</time>
      </trkpt>
      <trkpt lat="43.10661" lon="2.94619">
        <ele>20.7</ele>
        <time>2024-05-10T12:38:12Z</time>
      </trkpt>
      <trkpt lat="43.1065" lon="2.94611">
        <ele>21.8</ele>
        <time>2024-05-10T12:38:13Z</time>
      </trkpt>
      <trkpt lat="43.10639" lon="2.94602">
        <ele>22.3</ele>
        <time>2024-05-10T12:38:14Z</time>
      </trkpt>
      <trkpt lat="43.10628" lon="2.94595">
        <ele>21.7</ele>
        <time>2024-05-10T12:38:15Z</time>
      </trkpt>
      <trkpt lat="43.10617" lon="2.94588">
        <ele>21.7</ele>
        <time>2024-05-10T12:38:16Z</time>
      </trkpt>
      <trkpt lat="43.10605" lon="2.94581">
        <ele>21.9</ele>
        <time>2024-05-10T12:38:17Z</time>
      </trkpt>
      <trkpt lat="43.10593" lon="2.94574">
        <ele>21.5</ele>
        <time>2024-05-10T12:38:18Z</time>
      </trkpt>
      <trkpt lat="43.1058" lon="2.94567">
        <ele>21.5</ele>
        <time>2024-05-10T12:38:19Z</time>
      </trkpt>
      <trkpt lat="43.10565" lon="2.9456">
        <ele>21.7</ele>
        <time>2024-05-10T12:38:20Z</time>
      </trkpt>
      <trkpt lat="43.1055" lon="2.94554">
        <ele>22</ele>
        <time>2024-05-10T12:38:21Z</time>
      </trkpt>
      <trkpt lat="43.10535" lon="2.94549">
        <ele>22</ele>
        <time>2024-05-10T12:38:22Z</time>
      </trkpt>
      <trkpt lat="43.1052" lon="2.94545">
        <ele>22</ele>
        <time>2024-05-10T12:38:23Z</time>
      </trkpt>
      <trkpt lat="43.10503" lon="2.94541">
        <ele>22</ele>
        <time>2024-05-10T12:38:24Z</time>
      </trkpt>
      <trkpt lat="43.10486" lon="2.94538">
        <ele>21.8</ele>
        <time>2024-05-10T12:38:25Z</time>
      </trkpt>
      <trkpt lat="43.10468" lon="2.94536">
        <ele>21.7</ele>
        <time>2024-05-10T12:38:26Z</time>
      </trkpt>
      <trkpt lat="43.1045" lon="2.94535">
        <ele>21.9</ele>
        <time>2024-05-10T12:38:27Z</time>
      </trkpt>
      <trkpt lat="43.10432" lon="2.94536">
        <ele>22.2</ele>
        <time>2024-05-10T12:38:28Z</time>
      </trkpt>
      <trkpt lat="43.10414" lon="2.94537">
        <ele>22.1</ele>
        <time>2024-05-10T12:38:29Z</time>
      </trkpt>
      <trkpt lat="43.10397" lon="2.9454">
        <ele>20.2</ele>
        <time>2024-05-10T12:38:30Z</time>
      </trkpt>
      <trkpt lat="43.1038" lon="2.94544">
        <ele>16.9</ele>
        <time>2024-05-10T12:38:31Z</time>
      </trkpt>
      <trkpt lat="43.10363" lon="2.94548">
        <ele>13.4</ele>
        <time>2024-05-10T12:38:32Z</time>
      </trkpt>
      <trkpt lat="43.10346" lon="2.94554">
        <ele>12.1</ele>
        <time>2024-05-10T12:38:33Z</time>
      </trkpt>
      <trkpt lat="43.1033" lon="2.94561">
        <ele>13.1</ele>
        <time>2024-05-10T12:38:34Z</time>
      </trkpt>
      <trkpt lat="43.10315" lon="2.94569">
        <ele>15.3</ele>
        <time>2024-05-10T12:38:35Z</time>
      </trkpt>
      <trkpt lat="43.10299" lon="2.94577">
        <ele>16.3</ele>
        <time>2024-05-10T12:38:36Z</time>
      </trkpt>
      <trkpt lat="43.10283" lon="2.94586">
        <ele>16.1</ele>
        <time>2024-05-10T12:38:37Z</time>
      </trkpt>
      <trkpt lat="43.10266" lon="2.94598">
        <ele>15.1</ele>
        <time>2024-05-10T12:38:38Z</time>
      </trkpt>
      <trkpt lat="43.10249" lon="2.9461">
        <ele>14.9</ele>
        <time>2024-05-10T12:38:39Z</time>
      </trkpt>
      <trkpt lat="43.10232" lon="2.94624">
        <ele>13.4</ele>
        <time>2024-05-10T12:38:40Z</time>
      </trkpt>
      <trkpt lat="43.10215" lon="2.94639">
        <ele>12.5</ele>
        <time>2024-05-10T12:38:41Z</time>
      </trkpt>
      <trkpt lat="43.10198" lon="2.94654">
        <ele>11</ele>
        <time>2024-05-10T12:38:42Z</time>
      </trkpt>
      <trkpt lat="43.10181" lon="2.94668">
        <ele>10</ele>
        <time>2024-05-10T12:38:43Z</time>
      </trkpt>
      <trkpt lat="43.10163" lon="2.94682">
        <ele>8.9</ele>
        <time>2024-05-10T12:38:44Z</time>
      </trkpt>
      <trkpt lat="43.10145" lon="2.94696">
        <ele>8.2</ele>
        <time>2024-05-10T12:38:45Z</time>
      </trkpt>
      <trkpt lat="43.10126" lon="2.94708">
        <ele>7.8</ele>
        <time>2024-05-10T12:38:46Z</time>
      </trkpt>
      <trkpt lat="43.10106" lon="2.9472">
        <ele>7.7</ele>
        <time>2024-05-10T12:38:47Z</time>
      </trkpt>
      <trkpt lat="43.10086" lon="2.9473">
        <ele>7.1</ele>
        <time>2024-05-10T12:38:48Z</time>
      </trkpt>
      <trkpt lat="43.10065" lon="2.94738">
        <ele>6.7</ele>
        <time>2024-05-10T12:38:49Z</time>
      </trkpt>
      <trkpt lat="43.10044" lon="2.94745">
        <ele>6.5</ele>
        <time>2024-05-10T12:38:50Z</time>
      </trkpt>
      <trkpt lat="43.10024" lon="2.9475">
        <ele>6</ele>
        <time>2024-05-10T12:38:51Z</time>
      </trkpt>
      <trkpt lat="43.10004" lon="2.94754">
        <ele>6</ele>
        <time>2024-05-10T12:38:52Z</time>
      </trkpt>
      <trkpt lat="43.09983" lon="2.94756">
        <ele>6</ele>
        <time>2024-05-10T12:38:53Z</time>
      </trkpt>
      <trkpt lat="43.09963" lon="2.94757">
        <ele>5.9</ele>
        <time>2024-05-10T12:38:54Z</time>
      </trkpt>
      <trkpt lat="43.09943" lon="2.94758">
        <ele>5.7</ele>
        <time>2024-05-10T12:38:55Z</time>
      </trkpt>
      <trkpt lat="43.09923" lon="2.94758">
        <ele>5.2</ele>
        <time>2024-05-10T12:38:56Z</time>
      </trkpt>
      <trkpt lat="43.09903" lon="2.94758">
        <ele>5</ele>
        <time>2024-05-10T12:38:57Z</time>
      </trkpt>
      <trkpt lat="43.09882" lon="2.94758">
        <ele>5.2</ele>
        <time>2024-05-10T12:38:58Z</time>
      </trkpt>
      <trkpt lat="43.09861" lon="2.94759">
        <ele>5.7</ele>
        <time>2024-05-10T12:38:59Z</time>
      </trkpt>
      <trkpt lat="43.0984" lon="2.94759">
        <ele>5.2</ele>
        <time>2024-05-10T12:39:00Z</time>
      </trkpt>
      <trkpt lat="43.09819" lon="2.94759">
        <ele>5</ele>
        <time>2024-05-10T12:39:01Z</time>
      </trkpt>
      <trkpt lat="43.09797" lon="2.94759">
        <ele>5.2</ele>
        <time>2024-05-10T12:39:02Z</time>
      </trkpt>
      <trkpt lat="43.09775" lon="2.94759">
        <ele>5.7</ele>
        <time>2024-05-10T12:39:03Z</time>
      </trkpt>
      <trkpt lat="43.09754" lon="2.94759">
        <ele>6</ele>
        <time>2024-05-10T12:39:04Z</time>
      </trkpt>
      <trkpt lat="43.09733" lon="2.9476">
        <ele>6</ele>
        <time>2024-05-10T12:39:05Z</time>
      </trkpt>
      <trkpt lat="43.09713" lon="2.9476">
        <ele>6</ele>
        <time>2024-05-10T12:39:06Z</time>
      </trkpt>
      <trkpt lat="43.09692" lon="2.9476">
        <ele>6</ele>
        <time>2024-05-10T12:39:07Z</time>
      </trkpt>
      <trkpt lat="43.09671" lon="2.9476">
        <ele>6</ele>
        <time>2024-05-10T12:39:08Z</time>
      </trkpt>
      <trkpt lat="43.09651" lon="2.9476">
        <ele>6.2</ele>
        <time>2024-05-10T12:39:09Z</time>
      </trkpt>
      <trkpt lat="43.0963" lon="2.9476">
        <ele>6.4</ele>
        <time>2024-05-10T12:39:10Z</time>
      </trkpt>
      <trkpt lat="43.09609" lon="2.94761">
        <ele>6.4</ele>
        <time>2024-05-10T12:39:11Z</time>
      </trkpt>
      <trkpt lat="43.0959" lon="2.94761">
        <ele>6.9</ele>
        <time>2024-05-10T12:39:12Z</time>
      </trkpt>
      <trkpt lat="43.0957" lon="2.94761">
        <ele>7</ele>
        <time>2024-05-10T12:39:13Z</time>
      </trkpt>
      <trkpt lat="43.09552" lon="2.94761">
        <ele>7</ele>
        <time>2024-05-10T12:39:14Z</time>
      </trkpt>
      <trkpt lat="43.09534" lon="2.94761">
        <ele>7</ele>
        <time>2024-05-10T12:39:15Z</time>
      </trkpt>
      <trkpt lat="43.09517" lon="2.94761">
        <ele>7</ele>
        <time>2024-05-10T12:39:16Z</time>
      </trkpt>
      <trkpt lat="43.095" lon="2.94761">
        <ele>7</ele>
        <time>2024-05-10T12:39:17Z</time>
      </trkpt>
      <trkpt lat="43.09483" lon="2.94762">
        <ele>7.6</ele>
        <time>2024-05-10T12:39:18Z</time>
      </trkpt>
      <trkpt lat="43.09467" lon="2.94762">
        <ele>8.1</ele>
        <time>2024-05-10T12:39:19Z</time>
      </trkpt>
      <trkpt lat="43.09452" lon="2.94762">
        <ele>8.3</ele>
        <time>2024-05-10T12:39:20Z</time>
      </trkpt>
      <trkpt lat="43.09436" lon="2.94761">
        <ele>8.4</ele>
        <time>2024-05-10T12:39:21Z</time>
      </trkpt>
      <trkpt lat="43.09421" lon="2.9476">
        <ele>8.4</ele>
        <time>2024-05-10T12:39:22Z</time>
      </trkpt>
      <trkpt lat="43.09404" lon="2.94757">
        <ele>8.7</ele>
        <time>2024-05-10T12:39:23Z</time>
      </trkpt>
      <trkpt lat="43.09388" lon="2.94752">
        <ele>9.1</ele>
        <time>2024-05-10T12:39:24Z</time>
      </trkpt>
      <trkpt lat="43.09371" lon="2.94747">
        <ele>9.3</ele>
        <time>2024-05-10T12:39:25Z</time>
      </trkpt>
      <trkpt lat="43.09353" lon="2.9474">
        <ele>9.7</ele>
        <time>2024-05-10T12:39:26Z</time>
      </trkpt>
      <trkpt lat="43.09335" lon="2.94732">
        <ele>9.4</ele>
        <time>2024-05-10T12:39:27Z</time>
      </trkpt>
      <trkpt lat="43.09316" lon="2.94724">
        <ele>9.6</ele>
        <time>2024-05-10T12:39:28Z</time>
      </trkpt>
      <trkpt lat="43.09299" lon="2.94715">
        <ele>9.8</ele>
        <time>2024-05-10T12:39:29Z</time>
      </trkpt>
      <trkpt lat="43.09281" lon="2.94706">
        <ele>9.9</ele>
        <time>2024-05-10T12:39:30Z</time>
      </trkpt>
      <trkpt lat="43.09263" lon="2.94697">
        <ele>10.4</ele>
        <time>2024-05-10T12:39:31Z</time>
      </trkpt>
      <trkpt lat="43.09246" lon="2.94689">
        <ele>10.8</ele>
        <time>2024-05-10T12:39:32Z</time>
      </trkpt>
      <trkpt lat="43.0923" lon="2.9468">
        <ele>10.5</ele>
        <time>2024-05-10T12:39:33Z</time>
      </trkpt>
      <trkpt lat="43.09214" lon="2.94672">
        <ele>10.4</ele>
        <time>2024-05-10T12:39:34Z</time>
      </trkpt>
      <trkpt lat="43.09198" lon="2.94665">
        <ele>10.8</ele>
        <time>2024-05-10T12:39:35Z</time>
      </trkpt>
      <trkpt lat="43.09183" lon="2.94658">
        <ele>10.8</ele>
        <time>2024-05-10T12:39:36Z</time>
      </trkpt>
      <trkpt lat="43.09168" lon="2.9465">
        <ele>11</ele>
        <time>2024-05-10T12:39:37Z</time>
      </trkpt>
      <trkpt lat="43.09152" lon="2.94642">
        <ele>11.5</ele>
        <time>2024-05-10T12:39:38Z</time>
      </trkpt>
      <trkpt lat="43.09137" lon="2.94634">
        <ele>11.4</ele>
        <time>2024-05-10T12:39:39Z</time>
      </trkpt>
      <trkpt lat="43.09122" lon="2.94627">
        <ele>10.4</ele>
        <time>2024-05-10T12:39:40Z</time>
      </trkpt>
      <trkpt lat="43.09108" lon="2.9462">
        <ele>9.9</ele>
        <time>2024-05-10T12:39:41Z</time>
      </trkpt>
      <trkpt lat="43.09094" lon="2.94613">
        <ele>10.9</ele>
        <time>2024-05-10T12:39:42Z</time>
      </trkpt>
      <trkpt lat="43.0908" lon="2.94606">
        <ele>11.7</ele>
        <time>2024-05-10T12:39:43Z</time>
      </trkpt>
      <trkpt lat="43.09066" lon="2.946">
        <ele>11.4</ele>
        <time>2024-05-10T12:39:44Z</time>
      </trkpt>
      <trkpt lat="43.09053" lon="2.94593">
        <ele>11.4</ele>
        <time>2024-05-10T12:39:45Z</time>
      </trkpt>
      <trkpt lat="43.09039" lon="2.94586">
        <ele>12.1</ele>
        <time>2024-05-10T12:39:46Z</time>
      </trkpt>
      <trkpt lat="43.09026" lon="2.94579">
        <ele>12.8</ele>
        <time>2024-05-10T12:39:47Z</time>
      </trkpt>
      <trkpt lat="43.09012" lon="2.94572">
        <ele>12.6</ele>
        <time>2024-05-10T12:39:48Z</time>
      </trkpt>
      <trkpt lat="43.08999" lon="2.94565">
        <ele>12.4</ele>
        <time>2024-05-10T12:39:49Z</time>
      </trkpt>
      <trkpt lat="43.08986" lon="2.94558">
        <ele>12.5</ele>
        <time>2024-05-10T12:39:50Z</time>
      </trkpt>
      <trkpt lat="43.08973" lon="2.94552">
        <ele>12.8</ele>
        <time>2024-05-10T12:39:51Z</time>
      </trkpt>
      <trkpt lat="43.0896" lon="2.94546">
        <ele>12.9</ele>
        <time>2024-05-10T12:39:52Z</time>
      </trkpt>
      <trkpt lat="43.08948" lon="2.9454">
        <ele>12.8</ele>
        <time>2024-05-10T12:39:53Z</time>
      </trkpt>
      <trkpt lat="43.08939" lon="2.94535">
        <ele>12.7</ele>
        <time>2024-05-10T12:39:54Z</time>
      </trkpt>
      <trkpt lat="43.08931" lon="2.94532">
        <ele>13</ele>
        <time>2024-05-10T12:39:55Z</time>
      </trkpt>
      <trkpt lat="43.08924" lon="2.94527">
        <ele>13.5</ele>
        <time>2024-05-10T12:39:56Z</time>
      </trkpt>
      <trkpt lat="43.08917" lon="2.94524">
        <ele>13.8</ele>
        <time>2024-05-10T12:39:57Z</time>
      </trkpt>
      <trkpt lat="43.08911" lon="2.94521">
        <ele>13.8</ele>
        <time>2024-05-10T12:39:58Z</time>
      </trkpt>
      <trkpt lat="43.08903" lon="2.94517">
        <ele>13.6</ele>
        <time>2024-05-10T12:39:59Z</time>
      </trkpt>
      <trkpt lat="43.08894" lon="2.94512">
        <ele>13.4</ele>
        <time>2024-05-10T12:40:00Z</time>
      </trkpt>
      <trkpt lat="43.08885" lon="2.94508">
        <ele>13.4</ele>
        <time>2024-05-10T12:40:01Z</time>
      </trkpt>
      <trkpt lat="43.08876" lon="2.94503">
        <ele>13.9</ele>
        <time>2024-05-10T12:40:02Z</time>
      </trkpt>
      <trkpt lat="43.08867" lon="2.94499">
        <ele>14.5</ele>
        <time>2024-05-10T12:40:03Z</time>
      </trkpt>
      <trkpt lat="43.08858" lon="2.94494">
        <ele>14.5</ele>
        <time>2024-05-10T12:40:04Z</time>
      </trkpt>
      <trkpt lat="43.08849" lon="2.9449">
        <ele>14.2</ele>
        <time>2024-05-10T12:40:05Z</time>
      </trkpt>
      <trkpt lat="43.08839" lon="2.94485">
        <ele>14</ele>
        <time>2024-05-10T12:40:06Z</time>
      </trkpt>
      <trkpt lat="43.0883" lon="2.94481">
        <ele>14.1</ele>
        <time>2024-05-10T12:40:07Z</time>
      </trkpt>
      <trkpt lat="43.08821" lon="2.94477">
        <ele>14.4</ele>
        <time>2024-05-10T12:40:08Z</time>
      </trkpt>
      <trkpt lat="43.08812" lon="2.94472">
        <ele>14.8</ele>
        <time>2024-05-10T12:40:09Z</time>
      </trkpt>
      <trkpt lat="43.08804" lon="2.94468">
        <ele>15</ele>
        <time>2024-05-10T12:40:10Z</time>
      </trkpt>
      <trkpt lat="43.08797" lon="2.94464">
        <ele>15.2</ele>
        <time>2024-05-10T12:40:11Z</time>
      </trkpt>
      <trkpt lat="43.08788" lon="2.9446">
        <ele>15.4</ele>
        <time>2024-05-10T12:40:12Z</time>
      </trkpt>
      <trkpt lat="43.08779" lon="2.94457">
        <ele>15.4</ele>
        <time>2024-05-10T12:40:13Z</time>
      </trkpt>
      <trkpt lat="43.0877" lon="2.94454">
        <ele>15.4</ele>
        <time>2024-05-10T12:40:14Z</time>
      </trkpt>
      <trkpt lat="43.08761" lon="2.9445">
        <ele>15.6</ele>
        <time>2024-05-10T12:40:15Z</time>
      </trkpt>
      <trkpt lat="43.08751" lon="2.94447">
        <ele>15.9</ele>
        <time>2024-05-10T12:40:16Z</time>
      </trkpt>
      <trkpt lat="43.0874" lon="2.94444">
        <ele>16</ele>
        <time>2024-05-10T12:40:17Z</time>
      </trkpt>
      <trkpt lat="43.08728" lon="2.94442">
        <ele>16</ele>
        <time>2024-05-10T12:40:18Z</time>
      </trkpt>
      <trkpt lat="43.08718" lon="2.9444">
        <ele>16</ele>
        <time>2024-05-10T12:40:19Z</time>
      </trkpt>
      <trkpt lat="43.08706" lon="2.94438">
        <ele>16</ele>
        <time>2024-05-10T12:40:20Z</time>
      </trkpt>
      <trkpt lat="43.08694" lon="2.94435">
        <ele>16</ele>
        <time>2024-05-10T12:40:21Z</time>
      </trkpt>
      <trkpt lat="43.08682" lon="2.94433">
        <ele>16</ele>
        <time>2024-05-10T12:40:22Z</time>
      </trkpt>
      <trkpt lat="43.08669" lon="2.94431">
        <ele>16</ele>
        <time>2024-05-10T12:40:23Z</time>
      </trkpt>
      <trkpt lat="43.08655" lon="2.94428">
        <ele>15.8</ele>
        <time>2024-05-10T12:40:24Z</time>
      </trkpt>
      <trkpt lat="43.08642" lon="2.94425">
        <ele>15.7</ele>
        <time>2024-05-10T12:40:25Z</time>
      </trkpt>
      <trkpt lat="43.08628" lon="2.94423">
        <ele>15.7</ele>
        <time>2024-05-10T12:40:26Z</time>
      </trkpt>
      <trkpt lat="43.08615" lon="2.94421">
        <ele>15.7</ele>
        <time>2024-05-10T12:40:27Z</time>
      </trkpt>
      <trkpt lat="43.08601" lon="2.94418">
        <ele>16.3</ele>
        <time>2024-05-10T12:40:28Z</time>
      </trkpt>
      <trkpt lat="43.08586" lon="2.94416">
        <ele>16.9</ele>
        <time>2024-05-10T12:40:29Z</time>
      </trkpt>
      <trkpt lat="43.08572" lon="2.94414">
        <ele>17</ele>
        <time>2024-05-10T12:40:30Z</time>
      </trkpt>
      <trkpt lat="43.08557" lon="2.94411">
        <ele>17</ele>
        <time>2024-05-10T12:40:31Z</time>
      </trkpt>
      <trkpt lat="43.08542" lon="2.94409">
        <ele>16.9</ele>
        <time>2024-05-10T12:40:32Z</time>
      </trkpt>
      <trkpt lat="43.08528" lon="2.94406">
        <ele>16.6</ele>
        <time>2024-05-10T12:40:33Z</time>
      </trkpt>
      <trkpt lat="43.08514" lon="2.94403">
        <ele>15.8</ele>
        <time>2024-05-10T12:40:34Z</time>
      </trkpt>
      <trkpt lat="43.08501" lon="2.94402">
        <ele>15.1</ele>
        <time>2024-05-10T12:40:35Z</time>
      </trkpt>
      <trkpt lat="43.08488" lon="2.94399">
        <ele>15.3</ele>
        <time>2024-05-10T12:40:36Z</time>
      </trkpt>
      <trkpt lat="43.08476" lon="2.94397">
        <ele>15.6</ele>
        <time>2024-05-10T12:40:37Z</time>
      </trkpt>
      <trkpt lat="43.08463" lon="2.94395">
        <ele>16</ele>
        <time>2024-05-10T12:40:38Z</time>
      </trkpt>
      <trkpt lat="43.08452" lon="2.94393">
        <ele>16.4</ele>
        <time>2024-05-10T12:40:39Z</time>
      </trkpt>
      <trkpt lat="43.0844" lon="2.94391">
        <ele>16.9</ele>
        <time>2024-05-10T12:40:40Z</time>
      </trkpt>
      <trkpt lat="43.08428" lon="2.94389">
        <ele>17.6</ele>
        <time>2024-05-10T12:40:41Z</time>
      </trkpt>
      <trkpt lat="43.08416" lon="2.94387">
        <ele>18</ele>
        <time>2024-05-10T12:40:42Z</time>
      </trkpt>
      <trkpt lat="43.08404" lon="2.94384">
        <ele>18</ele>
        <time>2024-05-10T12:40:43Z</time>
      </trkpt>
      <trkpt lat="43.08392" lon="2.94382">
        <ele>18</ele>
        <time>2024-05-10T12:40:44Z</time>
      </trkpt>
      <trkpt lat="43.08379" lon="2.9438">
        <ele>18</ele>
        <time>2024-05-10T12:40:45Z</time>
      </trkpt>
      <trkpt lat="43.08366" lon="2.94378">
        <ele>18</ele>
        <time>2024-05-10T12:40:46Z</time>
      </trkpt>
      <trkpt lat="43.08353" lon="2.94376">
        <ele>17.8</ele>
        <time>2024-05-10T12:40:47Z</time>
      </trkpt>
      <trkpt lat="43.08339" lon="2.94374">
        <ele>17.6</ele>
        <time>2024-05-10T12:40:48Z</time>
      </trkpt>
      <trkpt lat="43.08325" lon="2.94371">
        <ele>17.6</ele>
        <time>2024-05-10T12:40:49Z</time>
      </trkpt>
      <trkpt lat="43.08311" lon="2.94369">
        <ele>17.7</ele>
        <time>2024-05-10T12:40:50Z</time>
      </trkpt>
      <trkpt lat="43.08297" lon="2.94366">
        <ele>18.1</ele>
        <time>2024-05-10T12:40:51Z</time>
      </trkpt>
      <trkpt lat="43.08283" lon="2.94364">
        <ele>18.7</ele>
        <time>2024-05-10T12:40:52Z</time>
      </trkpt>
      <trkpt lat="43.08268" lon="2.94361">
        <ele>19.3</ele>
        <time>2024-05-10T12:40:53Z</time>
      </trkpt>
      <trkpt lat="43.08254" lon="2.94359">
        <ele>19.6</ele>
        <time>2024-05-10T12:40:54Z</time>
      </trkpt>
      <trkpt lat="43.08239" lon="2.94356">
        <ele>19.5</ele>
        <time>2024-05-10T12:40:55Z</time>
      </trkpt>
      <trkpt lat="43.08224" lon="2.94353">
        <ele>19.4</ele>
        <time>2024-05-10T12:40:56Z</time>
      </trkpt>
      <trkpt lat="43.0821" lon="2.94351">
        <ele>19.7</ele>
        <time>2024-05-10T12:40:57Z</time>
      </trkpt>
      <trkpt lat="43.08195" lon="2.94349">
        <ele>20.1</ele>
        <time>2024-05-10T12:40:58Z</time>
      </trkpt>
      <trkpt lat="43.0818" lon="2.94346">
        <ele>19.9</ele>
        <time>2024-05-10T12:40:59Z</time>
      </trkpt>
      <trkpt lat="43.08165" lon="2.94343">
        <ele>19.7</ele>
        <time>2024-05-10T12:41:00Z</time>
      </trkpt>
      <trkpt lat="43.0815" lon="2.9434">
        <ele>19.9</ele>
        <time>2024-05-10T12:41:01Z</time>
      </trkpt>
      <trkpt lat="43.08135" lon="2.94338">
        <ele>20.4</ele>
        <time>2024-05-10T12:41:02Z</time>
      </trkpt>
      <trkpt lat="43.08118" lon="2.94335">
        <ele>21.5</ele>
        <time>2024-05-10T12:41:03Z</time>
      </trkpt>
      <trkpt lat="43.08102" lon="2.94332">
        <ele>21.9</ele>
        <time>2024-05-10T12:41:04Z</time>
      </trkpt>
      <trkpt lat="43.08085" lon="2.94329">
        <ele>21.8</ele>
        <time>2024-05-10T12:41:05Z</time>
      </trkpt>
      <trkpt lat="43.08067" lon="2.94326">
        <ele>21.6</ele>
        <time>2024-05-10T12:41:06Z</time>
      </trkpt>
      <trkpt lat="43.0805" lon="2.94323">
        <ele>21.4</ele>
        <time>2024-05-10T12:41:07Z</time>
      </trkpt>
      <trkpt lat="43.08031" lon="2.9432">
        <ele>21.9</ele>
        <time>2024-05-10T12:41:08Z</time>
      </trkpt>
      <trkpt lat="43.08013" lon="2.94317">
        <ele>22.2</ele>
        <time>2024-05-10T12:41:09Z</time>
      </trkpt>
      <trkpt lat="43.07996" lon="2.94314">
        <ele>22.4</ele>
        <time>2024-05-10T12:41:10Z</time>
      </trkpt>
      <trkpt lat="43.07978" lon="2.9431">
        <ele>23</ele>
        <time>2024-05-10T12:41:11Z</time>
      </trkpt>
      <trkpt lat="43.07961" lon="2.94308">
        <ele>23.5</ele>
        <time>2024-05-10T12:41:12Z</time>
      </trkpt>
      <trkpt lat="43.07944" lon="2.94305">
        <ele>24</ele>
        <time>2024-05-10T12:41:13Z</time>
      </trkpt>
      <trkpt lat="43.07926" lon="2.94302">
        <ele>24.1</ele>
        <time>2024-05-10T12:41:14Z</time>
      </trkpt>
      <trkpt lat="43.07909" lon="2.94299">
        <ele>24.7</ele>
        <time>2024-05-10T12:41:15Z</time>
      </trkpt>
      <trkpt lat="43.07892" lon="2.94296">
        <ele>25.6</ele>
        <time>2024-05-10T12:41:16Z</time>
      </trkpt>
      <trkpt lat="43.07876" lon="2.94293">
        <ele>25.7</ele>
        <time>2024-05-10T12:41:17Z</time>
      </trkpt>
      <trkpt lat="43.07859" lon="2.94291">
        <ele>25.5</ele>
        <time>2024-05-10T12:41:18Z</time>
      </trkpt>
      <trkpt lat="43.07843" lon="2.94288">
        <ele>25.2</ele>
        <time>2024-05-10T12:41:19Z</time>
      </trkpt>
      <trkpt lat="43.07827" lon="2.94285">
        <ele>24.9</ele>
        <time>2024-05-10T12:41:20Z</time>
      </trkpt>
      <trkpt lat="43.07812" lon="2.94283">
        <ele>24.9</ele>
        <time>2024-05-10T12:41:21Z</time>
      </trkpt>
      <trkpt lat="43.07797" lon="2.94281">
        <ele>24.9</ele>
        <time>2024-05-10T12:41:22Z</time>
      </trkpt>
      <trkpt lat="43.07783" lon="2.94278">
        <ele>24.9</ele>
        <time>2024-05-10T12:41:23Z</time>
      </trkpt>
      <trkpt lat="43.07769" lon="2.94276">
        <ele>25.1</ele>
        <time>2024-05-10T12:41:24Z</time>
      </trkpt>
      <trkpt lat="43.07755" lon="2.94274">
        <ele>25.3</ele>
        <time>2024-05-10T12:41:25Z</time>
      </trkpt>
      <trkpt lat="43.07742" lon="2.94273">
        <ele>25.4</ele>
        <time>2024-05-10T12:41:26Z</time>
      </trkpt>
      <trkpt lat="43.07728" lon="2.94272">
        <ele>25.5</ele>
        <time>2024-05-10T12:41:27Z</time>
      </trkpt>
      <trkpt lat="43.07715" lon="2.94272">
        <ele>25.7</ele>
        <time>2024-05-10T12:41:28Z</time>
      </trkpt>
      <trkpt lat="43.07702" lon="2.94272">
        <ele>25.9</ele>
        <time>2024-05-10T12:41:29Z</time>
      </trkpt>
      <trkpt lat="43.07689" lon="2.94274">
        <ele>26</ele>
        <time>2024-05-10T12:41:30Z</time>
      </trkpt>
      <trkpt lat="43.07675" lon="2.94275">
        <ele>26.1</ele>
        <time>2024-05-10T12:41:31Z</time>
      </trkpt>
      <trkpt lat="43.07661" lon="2.94278">
        <ele>26</ele>
        <time>2024-05-10T12:41:32Z</time>
      </trkpt>
      <trkpt lat="43.07647" lon="2.94282">
        <ele>26</ele>
        <time>2024-05-10T12:41:33Z</time>
      </trkpt>
      <trkpt lat="43.07632" lon="2.94287">
        <ele>26.1</ele>
        <time>2024-05-10T12:41:34Z</time>
      </trkpt>
      <trkpt lat="43.07618" lon="2.94292">
        <ele>26.4</ele>
        <time>2024-05-10T12:41:35Z</time>
      </trkpt>
      <trkpt lat="43.07603" lon="2.94299">
        <ele>26.8</ele>
        <time>2024-05-10T12:41:36Z</time>
      </trkpt>
      <trkpt lat="43.07588" lon="2.94307">
        <ele>27</ele>
        <time>2024-05-10T12:41:37Z</time>
      </trkpt>
      <trkpt lat="43.07574" lon="2.94316">
        <ele>27.2</ele>
        <time>2024-05-10T12:41:38Z</time>
      </trkpt>
      <trkpt lat="43.0756" lon="2.94325">
        <ele>27.3</ele>
        <time>2024-05-10T12:41:39Z</time>
      </trkpt>
      <trkpt lat="43.07546" lon="2.94335">
        <ele>27.3</ele>
        <time>2024-05-10T12:41:40Z</time>
      </trkpt>
      <trkpt lat="43.07534" lon="2.94343">
        <ele>27.2</ele>
        <time>2024-05-10T12:41:41Z</time>
      </trkpt>
      <trkpt lat="43.0752" lon="2.94351">
        <ele>26.7</ele>
        <time>2024-05-10T12:41:42Z</time>
      </trkpt>
      <trkpt lat="43.07506" lon="2.94359">
        <ele>26.2</ele>
        <time>2024-05-10T12:41:43Z</time>
      </trkpt>
      <trkpt lat="43.07492" lon="2.94366">
        <ele>26.1</ele>
        <time>2024-05-10T12:41:44Z</time>
      </trkpt>
      <trkpt lat="43.07477" lon="2.94372">
        <ele>26.4</ele>
        <time>2024-05-10T12:41:45Z</time>
      </trkpt>
      <trkpt lat="43.07461" lon="2.94377">
        <ele>26.6</ele>
        <time>2024-05-10T12:41:46Z</time>
      </trkpt>
      <trkpt lat="43.07445" lon="2.94381">
        <ele>26.6</ele>
        <time>2024-05-10T12:41:47Z</time>
      </trkpt>
      <trkpt lat="43.07429" lon="2.94384">
        <ele>26.1</ele>
        <time>2024-05-10T12:41:48Z</time>
      </trkpt>
      <trkpt lat="43.07414" lon="2.94385">
        <ele>25.7</ele>
        <time>2024-05-10T12:41:49Z</time>
      </trkpt>
      <trkpt lat="43.07399" lon="2.94384">
        <ele>25.9</ele>
        <time>2024-05-10T12:41:50Z</time>
      </trkpt>
      <trkpt lat="43.07384" lon="2.94384">
        <ele>25.5</ele>
        <time>2024-05-10T12:41:51Z</time>
      </trkpt>
      <trkpt lat="43.07369" lon="2.94382">
        <ele>24.6</ele>
        <time>2024-05-10T12:41:52Z</time>
      </trkpt>
      <trkpt lat="43.07354" lon="2.94379">
        <ele>24</ele>
        <time>2024-05-10T12:41:53Z</time>
      </trkpt>
      <trkpt lat="43.07339" lon="2.94374">
        <ele>23</ele>
        <time>2024-05-10T12:41:54Z</time>
      </trkpt>
      <trkpt lat="43.07324" lon="2.94368">
        <ele>21.7</ele>
        <time>2024-05-10T12:41:55Z</time>
      </trkpt>
      <trkpt lat="43.07308" lon="2.94361">
        <ele>20.2</ele>
        <time>2024-05-10T12:41:56Z</time>
      </trkpt>
      <trkpt lat="43.07293" lon="2.94352">
        <ele>19.3</ele>
        <time>2024-05-10T12:41:57Z</time>
      </trkpt>
      <trkpt lat="43.07278" lon="2.94342">
        <ele>18.6</ele>
        <time>2024-05-10T12:41:58Z</time>
      </trkpt>
      <trkpt lat="43.07264" lon="2.94332">
        <ele>17.9</ele>
        <time>2024-05-10T12:41:59Z</time>
      </trkpt>
      <trkpt lat="43.0725" lon="2.94321">
        <ele>17.1</ele>
        <time>2024-05-10T12:42:00Z</time>
      </trkpt>
      <trkpt lat="43.07236" lon="2.9431">
        <ele>16.2</ele>
        <time>2024-05-10T12:42:01Z</time>
      </trkpt>
      <trkpt lat="43.07223" lon="2.94297">
        <ele>15.7</ele>
        <time>2024-05-10T12:42:02Z</time>
      </trkpt>
      <trkpt lat="43.0721" lon="2.94286">
        <ele>14.6</ele>
        <time>2024-05-10T12:42:03Z</time>
      </trkpt>
      <trkpt lat="43.07197" lon="2.94275">
        <ele>14</ele>
        <time>2024-05-10T12:42:04Z</time>
      </trkpt>
      <trkpt lat="43.07185" lon="2.94264">
        <ele>12.8</ele>
        <time>2024-05-10T12:42:05Z</time>
      </trkpt>
      <trkpt lat="43.07172" lon="2.94253">
        <ele>12.1</ele>
        <time>2024-05-10T12:42:06Z</time>
      </trkpt>
      <trkpt lat="43.0716" lon="2.94243">
        <ele>11.9</ele>
        <time>2024-05-10T12:42:07Z</time>
      </trkpt>
      <trkpt lat="43.07147" lon="2.94232">
        <ele>11.5</ele>
        <time>2024-05-10T12:42:08Z</time>
      </trkpt>
      <trkpt lat="43.07135" lon="2.94222">
        <ele>10.9</ele>
        <time>2024-05-10T12:42:09Z</time>
      </trkpt>
      <trkpt lat="43.07122" lon="2.94211">
        <ele>10.4</ele>
        <time>2024-05-10T12:42:10Z</time>
      </trkpt>
      <trkpt lat="43.07109" lon="2.94199">
        <ele>10</ele>
        <time>2024-05-10T12:42:11Z</time>
      </trkpt>
      <trkpt lat="43.07096" lon="2.94187">
        <ele>10</ele>
        <time>2024-05-10T12:42:12Z</time>
      </trkpt>
      <trkpt lat="43.07083" lon="2.94175">
        <ele>10</ele>
        <time>2024-05-10T12:42:13Z</time>
      </trkpt>
      <trkpt lat="43.07069" lon="2.94162">
        <ele>9.5</ele>
        <time>2024-05-10T12:42:14Z</time>
      </trkpt>
      <trkpt lat="43.07055" lon="2.9415">
        <ele>9</ele>
        <time>2024-05-10T12:42:15Z</time>
      </trkpt>
      <trkpt lat="43.07041" lon="2.94138">
        <ele>9</ele>
        <time>2024-05-10T12:42:16Z</time>
      </trkpt>
      <trkpt lat="43.07026" lon="2.94125">
        <ele>8.9</ele>
        <time>2024-05-10T12:42:17Z</time>
      </trkpt>
      <trkpt lat="43.07012" lon="2.94112">
        <ele>9</ele>
        <time>2024-05-10T12:42:18Z</time>
      </trkpt>
      <trkpt lat="43.06998" lon="2.94099">
        <ele>9.4</ele>
        <time>2024-05-10T12:42:19Z</time>
      </trkpt>
      <trkpt lat="43.06985" lon="2.94087">
        <ele>9.7</ele>
        <time>2024-05-10T12:42:20Z</time>
      </trkpt>
      <trkpt lat="43.06971" lon="2.94074">
        <ele>9.6</ele>
        <time>2024-05-10T12:42:21Z</time>
      </trkpt>
      <trkpt lat="43.06958" lon="2.94062">
        <ele>9.4</ele>
        <time>2024-05-10T12:42:22Z</time>
      </trkpt>
      <trkpt lat="43.06945" lon="2.9405">
        <ele>9.8</ele>
        <time>2024-05-10T12:42:23Z</time>
      </trkpt>
      <trkpt lat="43.06932" lon="2.94038">
        <ele>9.8</ele>
        <time>2024-05-10T12:42:24Z</time>
      </trkpt>
      <trkpt lat="43.06919" lon="2.94026">
        <ele>10.8</ele>
        <time>2024-05-10T12:42:25Z</time>
      </trkpt>
      <trkpt lat="43.06907" lon="2.94015">
        <ele>10.5</ele>
        <time>2024-05-10T12:42:26Z</time>
      </trkpt>
      <trkpt lat="43.06895" lon="2.94005">
        <ele>10.7</ele>
        <time>2024-05-10T12:42:27Z</time>
      </trkpt>
      <trkpt lat="43.06885" lon="2.93997">
        <ele>11</ele>
        <time>2024-05-10T12:42:28Z</time>
      </trkpt>
      <trkpt lat="43.06877" lon="2.9399">
        <ele>11</ele>
        <time>2024-05-10T12:42:29Z</time>
      </trkpt>
      <trkpt lat="43.06869" lon="2.93983">
        <ele>11</ele>
        <time>2024-05-10T12:42:30Z</time>
      </trkpt>
      <trkpt lat="43.06862" lon="2.93978">
        <ele>11</ele>
        <time>2024-05-10T12:42:31Z</time>
      </trkpt>
      <trkpt lat="43.06856" lon="2.93973">
        <ele>11.2</ele>
        <time>2024-05-10T12:42:32Z</time>
      </trkpt>
      <trkpt lat="43.0685" lon="2.93967">
        <ele>11.4</ele>
        <time>2024-05-10T12:42:33Z</time>
      </trkpt>
      <trkpt lat="43.06845" lon="2.93962">
        <ele>11.5</ele>
        <time>2024-05-10T12:42:34Z</time>
      </trkpt>
      <trkpt lat="43.06839" lon="2.93957">
        <ele>11.5</ele>
        <time>2024-05-10T12:42:35Z</time>
      </trkpt>
      <trkpt lat="43.06834" lon="2.93952">
        <ele>11.3</ele>
        <time>2024-05-10T12:42:36Z</time>
      </trkpt>
      <trkpt lat="43.06829" lon="2.93948">
        <ele>11.1</ele>
        <time>2024-05-10T12:42:37Z</time>
      </trkpt>
      <trkpt lat="43.06825" lon="2.93944">
        <ele>11</ele>
        <time>2024-05-10T12:42:38Z</time>
      </trkpt>
      <trkpt lat="43.06822" lon="2.93941">
        <ele>11.1</ele>
        <time>2024-05-10T12:42:39Z</time>
      </trkpt>
      <trkpt lat="43.06818" lon="2.93936">
        <ele>11.3</ele>
        <time>2024-05-10T12:42:40Z</time>
      </trkpt>
      <trkpt lat="43.06815" lon="2.93932">
        <ele>11.4</ele>
        <time>2024-05-10T12:42:41Z</time>
      </trkpt>
      <trkpt lat="43.06811" lon="2.93927">
        <ele>11.6</ele>
        <time>2024-05-10T12:42:42Z</time>
      </trkpt>
      <trkpt lat="43.06809" lon="2.93924">
        <ele>11.7</ele>
        <time>2024-05-10T12:42:43Z</time>
      </trkpt>
      <trkpt lat="43.06808" lon="2.93921">
        <ele>11.8</ele>
        <time>2024-05-10T12:42:44Z</time>
      </trkpt>
      <trkpt lat="43.06807" lon="2.93919">
        <ele>11.9</ele>
        <time>2024-05-10T12:42:45Z</time>
      </trkpt>
      <trkpt lat="43.06806" lon="2.93917">
        <ele>12</ele>
        <time>2024-05-10T12:42:46Z</time>
      </trkpt>
      <trkpt lat="43.06805" lon="2.93915">
        <ele>11.9</ele>
        <time>2024-05-10T12:42:47Z</time>
      </trkpt>
      <trkpt lat="43.06805" lon="2.93915">
        <ele>11.9</ele>
        <time>2024-05-10T12:42:48Z</time>
      </trkpt>
      <trkpt lat="43.06805" lon="2.93915">
        <ele>11.9</ele>
        <time>2024-05-10T12:42:49Z</time>
      </trkpt>
      <trkpt lat="43.06805" lon="2.93916">
        <ele>12</ele>
        <time>2024-05-10T12:42:50Z</time>
      </trkpt>
      <trkpt lat="43.06805" lon="2.93915">
        <ele>11.9</ele>
        <time>2024-05-10T12:42:51Z</time>
      </trkpt>
      <trkpt lat="43.06805" lon="2.93916">
        <ele>12</ele>
        <time>2024-05-10T12:42:52Z</time>
      </trkpt>
      <trkpt lat="43.06805" lon="2.93915">
        <ele>11.9</ele>
        <time>2024-05-10T12:42:53Z</time>
      </trkpt>
      <trkpt lat="43.06805" lon="2.93913">
        <ele>11.9</ele>
        <time>2024-05-10T12:42:54Z</time>
      </trkpt>
      <trkpt lat="43.06805" lon="2.93909">
        <ele>11.7</ele>
        <time>2024-05-10T12:42:55Z</time>
      </trkpt>
      <trkpt lat="43.06805" lon="2.939">
        <ele>11.4</ele>
        <time>2024-05-10T12:42:56Z</time>
      </trkpt>
      <trkpt lat="43.06808" lon="2.93891">
        <ele>11.2</ele>
        <time>2024-05-10T12:42:57Z</time>
      </trkpt>
      <trkpt lat="43.06813" lon="2.93881">
        <ele>11.4</ele>
        <time>2024-05-10T12:42:58Z</time>
      </trkpt>
      <trkpt lat="43.06822" lon="2.9387">
        <ele>11.4</ele>
        <time>2024-05-10T12:42:59Z</time>
      </trkpt>
      <trkpt lat="43.06833" lon="2.93859">
        <ele>11</ele>
        <time>2024-05-10T12:43:00Z</time>
      </trkpt>
      <trkpt lat="43.06844" lon="2.93848">
        <ele>11</ele>
        <time>2024-05-10T12:43:01Z</time>
      </trkpt>
      <trkpt lat="43.06856" lon="2.93836">
        <ele>11</ele>
        <time>2024-05-10T12:43:02Z</time>
      </trkpt>
      <trkpt lat="43.06869" lon="2.93822">
        <ele>12.2</ele>
        <time>2024-05-10T12:43:03Z</time>
      </trkpt>
      <trkpt lat="43.0688" lon="2.93805">
        <ele>13</ele>
        <time>2024-05-10T12:43:04Z</time>
      </trkpt>
      <trkpt lat="43.06891" lon="2.93788">
        <ele>13.4</ele>
        <time>2024-05-10T12:43:05Z</time>
      </trkpt>
      <trkpt lat="43.06903" lon="2.93769">
        <ele>15.2</ele>
        <time>2024-05-10T12:43:06Z</time>
      </trkpt>
      <trkpt lat="43.06913" lon="2.93747">
        <ele>15.5</ele>
        <time>2024-05-10T12:43:07Z</time>
      </trkpt>
      <trkpt lat="43.0692" lon="2.93724">
        <ele>14.1</ele>
        <time>2024-05-10T12:43:08Z</time>
      </trkpt>
      <trkpt lat="43.06926" lon="2.937">
        <ele>14.8</ele>
        <time>2024-05-10T12:43:09Z</time>
      </trkpt>
      <trkpt lat="43.06931" lon="2.93676">
        <ele>16</ele>
        <time>2024-05-10T12:43:10Z</time>
      </trkpt>
      <trkpt lat="43.06934" lon="2.93651">
        <ele>16.3</ele>
        <time>2024-05-10T12:43:11Z</time>
      </trkpt>
      <trkpt lat="43.06935" lon="2.93626">
        <ele>16.5</ele>
        <time>2024-05-10T12:43:12Z</time>
      </trkpt>
      <trkpt lat="43.06935" lon="2.936">
        <ele>17.2</ele>
        <time>2024-05-10T12:43:13Z</time>
      </trkpt>
      <trkpt lat="43.06934" lon="2.93574">
        <ele>18.4</ele>
        <time>2024-05-10T12:43:14Z</time>
      </trkpt>
      <trkpt lat="43.06934" lon="2.93549">
        <ele>18.8</ele>
        <time>2024-05-10T12:43:15Z</time>
      </trkpt>
      <trkpt lat="43.06933" lon="2.93524">
        <ele>19.5</ele>
        <time>2024-05-10T12:43:16Z</time>
      </trkpt>
      <trkpt lat="43.0693" lon="2.935">
        <ele>20.1</ele>
        <time>2024-05-10T12:43:17Z</time>
      </trkpt>
      <trkpt lat="43.06925" lon="2.93477">
        <ele>21</ele>
        <time>2024-05-10T12:43:18Z</time>
      </trkpt>
      <trkpt lat="43.06919" lon="2.93456">
        <ele>21.8</ele>
        <time>2024-05-10T12:43:19Z</time>
      </trkpt>
      <trkpt lat="43.0691" lon="2.93435">
        <ele>23.5</ele>
        <time>2024-05-10T12:43:20Z</time>
      </trkpt>
      <trkpt lat="43.06901" lon="2.93415">
        <ele>24.2</ele>
        <time>2024-05-10T12:43:21Z</time>
      </trkpt>
      <trkpt lat="43.0689" lon="2.93396">
        <ele>24.9</ele>
        <time>2024-05-10T12:43:22Z</time>
      </trkpt>
      <trkpt lat="43.06879" lon="2.93377">
        <ele>26.1</ele>
        <time>2024-05-10T12:43:23Z</time>
      </trkpt>
      <trkpt lat="43.06868" lon="2.93357">
        <ele>27.7</ele>
        <time>2024-05-10T12:43:24Z</time>
      </trkpt>
      <trkpt lat="43.06857" lon="2.93336">
        <ele>29.5</ele>
        <time>2024-05-10T12:43:25Z</time>
      </trkpt>
      <trkpt lat="43.06846" lon="2.93315">
        <ele>31.9</ele>
        <time>2024-05-10T12:43:26Z</time>
      </trkpt>
      <trkpt lat="43.06835" lon="2.93293">
        <ele>31.2</ele>
        <time>2024-05-10T12:43:27Z</time>
      </trkpt>
      <trkpt lat="43.06825" lon="2.9327">
        <ele>31.9</ele>
        <time>2024-05-10T12:43:28Z</time>
      </trkpt>
      <trkpt lat="43.06815" lon="2.93244">
        <ele>30.9</ele>
        <time>2024-05-10T12:43:29Z</time>
      </trkpt>
      <trkpt lat="43.06808" lon="2.93218">
        <ele>30.6</ele>
        <time>2024-05-10T12:43:30Z</time>
      </trkpt>
      <trkpt lat="43.06802" lon="2.93192">
        <ele>30.4</ele>
        <time>2024-05-10T12:43:31Z</time>
      </trkpt>
      <trkpt lat="43.06795" lon="2.93166">
        <ele>29.5</ele>
        <time>2024-05-10T12:43:32Z</time>
      </trkpt>
      <trkpt lat="43.06786" lon="2.9314">
        <ele>29.1</ele>
        <time>2024-05-10T12:43:33Z</time>
      </trkpt>
      <trkpt lat="43.06774" lon="2.93114">
        <ele>29.3</ele>
        <time>2024-05-10T12:43:34Z</time>
      </trkpt>
      <trkpt lat="43.06759" lon="2.93088">
        <ele>28.7</ele>
        <time>2024-05-10T12:43:35Z</time>
      </trkpt>
      <trkpt lat="43.06744" lon="2.93061">
        <ele>28.2</ele>
        <time>2024-05-10T12:43:36Z</time>
      </trkpt>
      <trkpt lat="43.06729" lon="2.93034">
        <ele>28.1</ele>
        <time>2024-05-10T12:43:37Z</time>
      </trkpt>
      <trkpt lat="43.06713" lon="2.93007">
        <ele>28.8</ele>
        <time>2024-05-10T12:43:38Z</time>
      </trkpt>
      <trkpt lat="43.06698" lon="2.9298">
        <ele>29.1</ele>
        <time>2024-05-10T12:43:39Z</time>
      </trkpt>
      <trkpt lat="43.06685" lon="2.92954">
        <ele>30.4</ele>
        <time>2024-05-10T12:43:40Z</time>
      </trkpt>
      <trkpt lat="43.06673" lon="2.92928">
        <ele>31</ele>
        <time>2024-05-10T12:43:41Z</time>
      </trkpt>
      <trkpt lat="43.06662" lon="2.92902">
        <ele>32</ele>
        <time>2024-05-10T12:43:42Z</time>
      </trkpt>
      <trkpt lat="43.06653" lon="2.92875">
        <ele>32.5</ele>
        <time>2024-05-10T12:43:43Z</time>
      </trkpt>
      <trkpt lat="43.06646" lon="2.92846">
        <ele>33.1</ele>
        <time>2024-05-10T12:43:44Z</time>
      </trkpt>
      <trkpt lat="43.06639" lon="2.92818">
        <ele>33.6</ele>
        <time>2024-05-10T12:43:45Z</time>
      </trkpt>
      <trkpt lat="43.06631" lon="2.9279">
        <ele>33.4</ele>
        <time>2024-05-10T12:43:46Z</time>
      </trkpt>
      <trkpt lat="43.06622" lon="2.92762">
        <ele>33.3</ele>
        <time>2024-05-10T12:43:47Z</time>
      </trkpt>
      <trkpt lat="43.06611" lon="2.92735">
        <ele>33.5</ele>
        <time>2024-05-10T12:43:48Z</time>
      </trkpt>
      <trkpt lat="43.06597" lon="2.92708">
        <ele>33</ele>
        <time>2024-05-10T12:43:49Z</time>
      </trkpt>
      <trkpt lat="43.06582" lon="2.92682">
        <ele>32.4</ele>
        <time>2024-05-10T12:43:50Z</time>
      </trkpt>
      <trkpt lat="43.06566" lon="2.92657">
        <ele>32.6</ele>
        <time>2024-05-10T12:43:51Z</time>
      </trkpt>
      <trkpt lat="43.06548" lon="2.92633">
        <ele>32.4</ele>
        <time>2024-05-10T12:43:52Z</time>
      </trkpt>
      <trkpt lat="43.06531" lon="2.9261">
        <ele>32.8</ele>
        <time>2024-05-10T12:43:53Z</time>
      </trkpt>
      <trkpt lat="43.06514" lon="2.92588">
        <ele>32.6</ele>
        <time>2024-05-10T12:43:54Z</time>
      </trkpt>
      <trkpt lat="43.06499" lon="2.92567">
        <ele>34</ele>
        <time>2024-05-10T12:43:55Z</time>
      </trkpt>
      <trkpt lat="43.06483" lon="2.92547">
        <ele>34.8</ele>
        <time>2024-05-10T12:43:56Z</time>
      </trkpt>
      <trkpt lat="43.0647" lon="2.92526">
        <ele>36.2</ele>
        <time>2024-05-10T12:43:57Z</time>
      </trkpt>
      <trkpt lat="43.06458" lon="2.92504">
        <ele>37.5</ele>
        <time>2024-05-10T12:43:58Z</time>
      </trkpt>
      <trkpt lat="43.06448" lon="2.92481">
        <ele>38.7</ele>
        <time>2024-05-10T12:43:59Z</time>
      </trkpt>
      <trkpt lat="43.06439" lon="2.92456">
        <ele>39.7</ele>
        <time>2024-05-10T12:44:00Z</time>
      </trkpt>
      <trkpt lat="43.06432" lon="2.92431">
        <ele>40.3</ele>
        <time>2024-05-10T12:44:01Z</time>
      </trkpt>
      <trkpt lat="43.06423" lon="2.92406">
        <ele>41.8</ele>
        <time>2024-05-10T12:44:02Z</time>
      </trkpt>
      <trkpt lat="43.06413" lon="2.92383">
        <ele>43.7</ele>
        <time>2024-05-10T12:44:03Z</time>
      </trkpt>
      <trkpt lat="43.06401" lon="2.92363">
        <ele>44.6</ele>
        <time>2024-05-10T12:44:04Z</time>
      </trkpt>
      <trkpt lat="43.06389" lon="2.92345">
        <ele>46.2</ele>
        <time>2024-05-10T12:44:05Z</time>
      </trkpt>
      <trkpt lat="43.06374" lon="2.92326">
        <ele>47</ele>
        <time>2024-05-10T12:44:06Z</time>
      </trkpt>
      <trkpt lat="43.06359" lon="2.92307">
        <ele>46</ele>
        <time>2024-05-10T12:44:07Z</time>
      </trkpt>
      <trkpt lat="43.06345" lon="2.92287">
        <ele>46.2</ele>
        <time>2024-05-10T12:44:08Z</time>
      </trkpt>
      <trkpt lat="43.0633" lon="2.92268">
        <ele>45.3</ele>
        <time>2024-05-10T12:44:09Z</time>
      </trkpt>
      <trkpt lat="43.06315" lon="2.92249">
        <ele>44.7</ele>
        <time>2024-05-10T12:44:10Z</time>
      </trkpt>
      <trkpt lat="43.06301" lon="2.92231">
        <ele>44.4</ele>
        <time>2024-05-10T12:44:11Z</time>
      </trkpt>
      <trkpt lat="43.06288" lon="2.92212">
        <ele>43.7</ele>
        <time>2024-05-10T12:44:12Z</time>
      </trkpt>
      <trkpt lat="43.06275" lon="2.92196">
        <ele>42.9</ele>
        <time>2024-05-10T12:44:13Z</time>
      </trkpt>
      <trkpt lat="43.06265" lon="2.92181">
        <ele>42.5</ele>
        <time>2024-05-10T12:44:14Z</time>
      </trkpt>
      <trkpt lat="43.06254" lon="2.92167">
        <ele>42.1</ele>
        <time>2024-05-10T12:44:15Z</time>
      </trkpt>
      <trkpt lat="43.06244" lon="2.92152">
        <ele>41.3</ele>
        <time>2024-05-10T12:44:16Z</time>
      </trkpt>
      <trkpt lat="43.06236" lon="2.92137">
        <ele>40.5</ele>
        <time>2024-05-10T12:44:17Z</time>
      </trkpt>
      <trkpt lat="43.06228" lon="2.92125">
        <ele>40.2</ele>
        <time>2024-05-10T12:44:18Z</time>
      </trkpt>
      <trkpt lat="43.0622" lon="2.92113">
        <ele>40</ele>
        <time>2024-05-10T12:44:19Z</time>
      </trkpt>
      <trkpt lat="43.06211" lon="2.92103">
        <ele>39.7</ele>
        <time>2024-05-10T12:44:20Z</time>
      </trkpt>
      <trkpt lat="43.06202" lon="2.92094">
        <ele>39.4</ele>
        <time>2024-05-10T12:44:21Z</time>
      </trkpt>
      <trkpt lat="43.06194" lon="2.92086">
        <ele>39.1</ele>
        <time>2024-05-10T12:44:22Z</time>
      </trkpt>
      <trkpt lat="43.06188" lon="2.92079">
        <ele>39</ele>
        <time>2024-05-10T12:44:23Z</time>
      </trkpt>
      <trkpt lat="43.06182" lon="2.92073">
        <ele>38.8</ele>
        <time>2024-05-10T12:44:24Z</time>
      </trkpt>
      <trkpt lat="43.06178" lon="2.92067">
        <ele>38.7</ele>
        <time>2024-05-10T12:44:25Z</time>
      </trkpt>
      <trkpt lat="43.06173" lon="2.9206">
        <ele>38.4</ele>
        <time>2024-05-10T12:44:26Z</time>
      </trkpt>
      <trkpt lat="43.06168" lon="2.92054">
        <ele>38</ele>
        <time>2024-05-10T12:44:27Z</time>
      </trkpt>
      <trkpt lat="43.06162" lon="2.92047">
        <ele>37.9</ele>
        <time>2024-05-10T12:44:28Z</time>
      </trkpt>
      <trkpt lat="43.06155" lon="2.92039">
        <ele>37.7</ele>
        <time>2024-05-10T12:44:29Z</time>
      </trkpt>
      <trkpt lat="43.06148" lon="2.9203">
        <ele>37.4</ele>
        <time>2024-05-10T12:44:30Z</time>
      </trkpt>
      <trkpt lat="43.06139" lon="2.9202">
        <ele>37</ele>
        <time>2024-05-10T12:44:31Z</time>
      </trkpt>
      <trkpt lat="43.06131" lon="2.92009">
        <ele>36.7</ele>
        <time>2024-05-10T12:44:32Z</time>
      </trkpt>
      <trkpt lat="43.06122" lon="2.91998">
        <ele>36.4</ele>
        <time>2024-05-10T12:44:33Z</time>
      </trkpt>
      <trkpt lat="43.06114" lon="2.91987">
        <ele>36.2</ele>
        <time>2024-05-10T12:44:34Z</time>
      </trkpt>
      <trkpt lat="43.06106" lon="2.91977">
        <ele>36.2</ele>
        <time>2024-05-10T12:44:35Z</time>
      </trkpt>
      <trkpt lat="43.061" lon="2.91967">
        <ele>36.8</ele>
        <time>2024-05-10T12:44:36Z</time>
      </trkpt>
      <trkpt lat="43.06094" lon="2.9196">
        <ele>37.5</ele>
        <time>2024-05-10T12:44:37Z</time>
      </trkpt>
      <trkpt lat="43.0609" lon="2.91954">
        <ele>38.1</ele>
        <time>2024-05-10T12:44:38Z</time>
      </trkpt>
      <trkpt lat="43.06085" lon="2.91949">
        <ele>38.6</ele>
        <time>2024-05-10T12:44:39Z</time>
      </trkpt>
      <trkpt lat="43.06081" lon="2.91944">
        <ele>39</ele>
        <time>2024-05-10T12:44:40Z</time>
      </trkpt>
      <trkpt lat="43.06076" lon="2.91937">
        <ele>39.3</ele>
        <time>2024-05-10T12:44:41Z</time>
      </trkpt>
      <trkpt lat="43.0607" lon="2.91928">
        <ele>39.6</ele>
        <time>2024-05-10T12:44:42Z</time>
      </trkpt>
      <trkpt lat="43.06063" lon="2.91918">
        <ele>40</ele>
        <time>2024-05-10T12:44:43Z</time>
      </trkpt>
      <trkpt lat="43.06055" lon="2.91907">
        <ele>40.3</ele>
        <time>2024-05-10T12:44:44Z</time>
      </trkpt>
      <trkpt lat="43.06046" lon="2.91895">
        <ele>40.1</ele>
        <time>2024-05-10T12:44:45Z</time>
      </trkpt>
      <trkpt lat="43.06035" lon="2.91882">
        <ele>39.8</ele>
        <time>2024-05-10T12:44:46Z</time>
      </trkpt>
      <trkpt lat="43.06026" lon="2.91869">
        <ele>39.5</ele>
        <time>2024-05-10T12:44:47Z</time>
      </trkpt>
      <trkpt lat="43.06016" lon="2.91857">
        <ele>38.9</ele>
        <time>2024-05-10T12:44:48Z</time>
      </trkpt>
      <trkpt lat="43.06007" lon="2.91844">
        <ele>38.7</ele>
        <time>2024-05-10T12:44:49Z</time>
      </trkpt>
      <trkpt lat="43.05998" lon="2.91833">
        <ele>38.8</ele>
        <time>2024-05-10T12:44:50Z</time>
      </trkpt>
      <trkpt lat="43.05989" lon="2.91821">
        <ele>38.4</ele>
        <time>2024-05-10T12:44:51Z</time>
      </trkpt>
      <trkpt lat="43.0598" lon="2.91809">
        <ele>38.3</ele>
        <time>2024-05-10T12:44:52Z</time>
      </trkpt>
      <trkpt lat="43.05972" lon="2.91796">
        <ele>38.3</ele>
        <time>2024-05-10T12:44:53Z</time>
      </trkpt>
      <trkpt lat="43.05967" lon="2.91779">
        <ele>38.4</ele>
        <time>2024-05-10T12:44:54Z</time>
      </trkpt>
      <trkpt lat="43.05965" lon="2.91761">
        <ele>38.1</ele>
        <time>2024-05-10T12:44:55Z</time>
      </trkpt>
      <trkpt lat="43.05965" lon="2.91744">
        <ele>38</ele>
        <time>2024-05-10T12:44:56Z</time>
      </trkpt>
      <trkpt lat="43.05967" lon="2.91726">
        <ele>38.2</ele>
        <time>2024-05-10T12:44:57Z</time>
      </trkpt>
      <trkpt lat="43.0597" lon="2.91707">
        <ele>38.7</ele>
        <time>2024-05-10T12:44:58Z</time>
      </trkpt>
      <trkpt lat="43.05973" lon="2.91686">
        <ele>38.6</ele>
        <time>2024-05-10T12:44:59Z</time>
      </trkpt>
      <trkpt lat="43.05975" lon="2.91665">
        <ele>37.9</ele>
        <time>2024-05-10T12:45:00Z</time>
      </trkpt>
      <trkpt lat="43.05978" lon="2.91644">
        <ele>38.4</ele>
        <time>2024-05-10T12:45:01Z</time>
      </trkpt>
      <trkpt lat="43.05981" lon="2.91623">
        <ele>38.3</ele>
        <time>2024-05-10T12:45:02Z</time>
      </trkpt>
      <trkpt lat="43.05984" lon="2.91601">
        <ele>38.2</ele>
        <time>2024-05-10T12:45:03Z</time>
      </trkpt>
      <trkpt lat="43.05987" lon="2.91578">
        <ele>38</ele>
        <time>2024-05-10T12:45:04Z</time>
      </trkpt>
      <trkpt lat="43.05991" lon="2.91555">
        <ele>38.4</ele>
        <time>2024-05-10T12:45:05Z</time>
      </trkpt>
      <trkpt lat="43.05994" lon="2.9153">
        <ele>39.3</ele>
        <time>2024-05-10T12:45:06Z</time>
      </trkpt>
      <trkpt lat="43.05997" lon="2.91504">
        <ele>38.2</ele>
        <time>2024-05-10T12:45:07Z</time>
      </trkpt>
      <trkpt lat="43.06" lon="2.91478">
        <ele>38</ele>
        <time>2024-05-10T12:45:08Z</time>
      </trkpt>
      <trkpt lat="43.06002" lon="2.91452">
        <ele>39</ele>
        <time>2024-05-10T12:45:09Z</time>
      </trkpt>
      <trkpt lat="43.06002" lon="2.91425">
        <ele>39.3</ele>
        <time>2024-05-10T12:45:10Z</time>
      </trkpt>
      <trkpt lat="43.06002" lon="2.91397">
        <ele>39.9</ele>
        <time>2024-05-10T12:45:11Z</time>
      </trkpt>
      <trkpt lat="43.06002" lon="2.91369">
        <ele>40.2</ele>
        <time>2024-05-10T12:45:12Z</time>
      </trkpt>
      <trkpt lat="43.06001" lon="2.9134">
        <ele>40.1</ele>
        <time>2024-05-10T12:45:13Z</time>
      </trkpt>
      <trkpt lat="43.06001" lon="2.9131">
        <ele>40.1</ele>
        <time>2024-05-10T12:45:14Z</time>
      </trkpt>
      <trkpt lat="43.06001" lon="2.91279">
        <ele>41</ele>
        <time>2024-05-10T12:45:15Z</time>
      </trkpt>
      <trkpt lat="43.06" lon="2.91247">
        <ele>41</ele>
        <time>2024-05-10T12:45:16Z</time>
      </trkpt>
      <trkpt lat="43.06" lon="2.91214">
        <ele>41.3</ele>
        <time>2024-05-10T12:45:17Z</time>
      </trkpt>
      <trkpt lat="43.05999" lon="2.91181">
        <ele>42.1</ele>
        <time>2024-05-10T12:45:18Z</time>
      </trkpt>
      <trkpt lat="43.05999" lon="2.9115">
        <ele>42.1</ele>
        <time>2024-05-10T12:45:19Z</time>
      </trkpt>
      <trkpt lat="43.05999" lon="2.91119">
        <ele>42.8</ele>
        <time>2024-05-10T12:45:20Z</time>
      </trkpt>
      <trkpt lat="43.05999" lon="2.91088">
        <ele>43.9</ele>
        <time>2024-05-10T12:45:21Z</time>
      </trkpt>
      <trkpt lat="43.05999" lon="2.91056">
        <ele>44.1</ele>
        <time>2024-05-10T12:45:22Z</time>
      </trkpt>
      <trkpt lat="43.05999" lon="2.91025">
        <ele>44.1</ele>
        <time>2024-05-10T12:45:23Z</time>
      </trkpt>
      <trkpt lat="43.05998" lon="2.90995">
        <ele>45.2</ele>
        <time>2024-05-10T12:45:24Z</time>
      </trkpt>
      <trkpt lat="43.05997" lon="2.90965">
        <ele>46.2</ele>
        <time>2024-05-10T12:45:25Z</time>
      </trkpt>
      <trkpt lat="43.05993" lon="2.90935">
        <ele>47.4</ele>
        <time>2024-05-10T12:45:26Z</time>
      </trkpt>
      <trkpt lat="43.05987" lon="2.90906">
        <ele>48.5</ele>
        <time>2024-05-10T12:45:27Z</time>
      </trkpt>
      <trkpt lat="43.05979" lon="2.90877">
        <ele>48.7</ele>
        <time>2024-05-10T12:45:28Z</time>
      </trkpt>
      <trkpt lat="43.0597" lon="2.90848">
        <ele>49.5</ele>
        <time>2024-05-10T12:45:29Z</time>
      </trkpt>
      <trkpt lat="43.0596" lon="2.9082">
        <ele>50.3</ele>
        <time>2024-05-10T12:45:30Z</time>
      </trkpt>
      <trkpt lat="43.0595" lon="2.90792">
        <ele>50.7</ele>
        <time>2024-05-10T12:45:31Z</time>
      </trkpt>
      <trkpt lat="43.05939" lon="2.90763">
        <ele>51.3</ele>
        <time>2024-05-10T12:45:32Z</time>
      </trkpt>
      <trkpt lat="43.05927" lon="2.90734">
        <ele>51.4</ele>
        <time>2024-05-10T12:45:33Z</time>
      </trkpt>
      <trkpt lat="43.05915" lon="2.90704">
        <ele>51.6</ele>
        <time>2024-05-10T12:45:34Z</time>
      </trkpt>
      <trkpt lat="43.05903" lon="2.90674">
        <ele>51.9</ele>
        <time>2024-05-10T12:45:35Z</time>
      </trkpt>
      <trkpt lat="43.05891" lon="2.90643">
        <ele>52</ele>
        <time>2024-05-10T12:45:36Z</time>
      </trkpt>
      <trkpt lat="43.05879" lon="2.90612">
        <ele>52</ele>
        <time>2024-05-10T12:45:37Z</time>
      </trkpt>
      <trkpt lat="43.05866" lon="2.9058">
        <ele>52</ele>
        <time>2024-05-10T12:45:38Z</time>
      </trkpt>
      <trkpt lat="43.05854" lon="2.90549">
        <ele>52</ele>
        <time>2024-05-10T12:45:39Z</time>
      </trkpt>
      <trkpt lat="43.05841" lon="2.90517">
        <ele>52.1</ele>
        <time>2024-05-10T12:45:40Z</time>
      </trkpt>
      <trkpt lat="43.05829" lon="2.90486">
        <ele>52.4</ele>
        <time>2024-05-10T12:45:41Z</time>
      </trkpt>
      <trkpt lat="43.05817" lon="2.90454">
        <ele>52.8</ele>
        <time>2024-05-10T12:45:42Z</time>
      </trkpt>
      <trkpt lat="43.05805" lon="2.90423">
        <ele>53</ele>
        <time>2024-05-10T12:45:43Z</time>
      </trkpt>
      <trkpt lat="43.05792" lon="2.90391">
        <ele>52.5</ele>
        <time>2024-05-10T12:45:44Z</time>
      </trkpt>
      <trkpt lat="43.0578" lon="2.90359">
        <ele>52.1</ele>
        <time>2024-05-10T12:45:45Z</time>
      </trkpt>
      <trkpt lat="43.05767" lon="2.90328">
        <ele>52</ele>
        <time>2024-05-10T12:45:46Z</time>
      </trkpt>
      <trkpt lat="43.05755" lon="2.90297">
        <ele>52</ele>
        <time>2024-05-10T12:45:47Z</time>
      </trkpt>
      <trkpt lat="43.05743" lon="2.90268">
        <ele>51.7</ele>
        <time>2024-05-10T12:45:48Z</time>
      </trkpt>
      <trkpt lat="43.05732" lon="2.90239">
        <ele>51.6</ele>
        <time>2024-05-10T12:45:49Z</time>
      </trkpt>
      <trkpt lat="43.05721" lon="2.90211">
        <ele>51.9</ele>
        <time>2024-05-10T12:45:50Z</time>
      </trkpt>
      <trkpt lat="43.0571" lon="2.90184">
        <ele>52.1</ele>
        <time>2024-05-10T12:45:51Z</time>
      </trkpt>
      <trkpt lat="43.05699" lon="2.90156">
        <ele>52.4</ele>
        <time>2024-05-10T12:45:52Z</time>
      </trkpt>
      <trkpt lat="43.05689" lon="2.90128">
        <ele>52</ele>
        <time>2024-05-10T12:45:53Z</time>
      </trkpt>
      <trkpt lat="43.05678" lon="2.90101">
        <ele>52.2</ele>
        <time>2024-05-10T12:45:54Z</time>
      </trkpt>
      <trkpt lat="43.05667" lon="2.90075">
        <ele>52</ele>
        <time>2024-05-10T12:45:55Z</time>
      </trkpt>
      <trkpt lat="43.05658" lon="2.90049">
        <ele>51.8</ele>
        <time>2024-05-10T12:45:56Z</time>
      </trkpt>
      <trkpt lat="43.05648" lon="2.90026">
        <ele>52.1</ele>
        <time>2024-05-10T12:45:57Z</time>
      </trkpt>
      <trkpt lat="43.05639" lon="2.90003">
        <ele>51.9</ele>
        <time>2024-05-10T12:45:58Z</time>
      </trkpt>
      <trkpt lat="43.05631" lon="2.89981">
        <ele>52.6</ele>
        <time>2024-05-10T12:45:59Z</time>
      </trkpt>
      <trkpt lat="43.05623" lon="2.8996">
        <ele>52.7</ele>
        <time>2024-05-10T12:46:00Z</time>
      </trkpt>
      <trkpt lat="43.05615" lon="2.8994">
        <ele>52.7</ele>
        <time>2024-05-10T12:46:01Z</time>
      </trkpt>
      <trkpt lat="43.05606" lon="2.89919">
        <ele>53.3</ele>
        <time>2024-05-10T12:46:02Z</time>
      </trkpt>
      <trkpt lat="43.05598" lon="2.89898">
        <ele>52.5</ele>
        <time>2024-05-10T12:46:03Z</time>
      </trkpt>
      <trkpt lat="43.05589" lon="2.89875">
        <ele>52.1</ele>
        <time>2024-05-10T12:46:04Z</time>
      </trkpt>
      <trkpt lat="43.05581" lon="2.89852">
        <ele>51.8</ele>
        <time>2024-05-10T12:46:05Z</time>
      </trkpt>
      <trkpt lat="43.05572" lon="2.89829">
        <ele>52</ele>
        <time>2024-05-10T12:46:06Z</time>
      </trkpt>
      <trkpt lat="43.05564" lon="2.89805">
        <ele>51.4</ele>
        <time>2024-05-10T12:46:07Z</time>
      </trkpt>
      <trkpt lat="43.05555" lon="2.8978">
        <ele>50.3</ele>
        <time>2024-05-10T12:46:08Z</time>
      </trkpt>
      <trkpt lat="43.05548" lon="2.89756">
        <ele>50.5</ele>
        <time>2024-05-10T12:46:09Z</time>
      </trkpt>
      <trkpt lat="43.05541" lon="2.8973">
        <ele>49.4</ele>
        <time>2024-05-10T12:46:10Z</time>
      </trkpt>
      <trkpt lat="43.05533" lon="2.89705">
        <ele>48.4</ele>
        <time>2024-05-10T12:46:11Z</time>
      </trkpt>
      <trkpt lat="43.05525" lon="2.89679">
        <ele>48.3</ele>
        <time>2024-05-10T12:46:12Z</time>
      </trkpt>
      <trkpt lat="43.05518" lon="2.89654">
        <ele>48.1</ele>
        <time>2024-05-10T12:46:13Z</time>
      </trkpt>
      <trkpt lat="43.0551" lon="2.89629">
        <ele>47.4</ele>
        <time>2024-05-10T12:46:14Z</time>
      </trkpt>
      <trkpt lat="43.05503" lon="2.89604">
        <ele>46.8</ele>
        <time>2024-05-10T12:46:15Z</time>
      </trkpt>
      <trkpt lat="43.05496" lon="2.89579">
        <ele>46</ele>
        <time>2024-05-10T12:46:16Z</time>
      </trkpt>
      <trkpt lat="43.05488" lon="2.89553">
        <ele>45.3</ele>
        <time>2024-05-10T12:46:17Z</time>
      </trkpt>
      <trkpt lat="43.05481" lon="2.89527">
        <ele>44.7</ele>
        <time>2024-05-10T12:46:18Z</time>
      </trkpt>
      <trkpt lat="43.05473" lon="2.89502">
        <ele>44</ele>
        <time>2024-05-10T12:46:19Z</time>
      </trkpt>
      <trkpt lat="43.05465" lon="2.89476">
        <ele>43.6</ele>
        <time>2024-05-10T12:46:20Z</time>
      </trkpt>
      <trkpt lat="43.05457" lon="2.8945">
        <ele>43.2</ele>
        <time>2024-05-10T12:46:21Z</time>
      </trkpt>
      <trkpt lat="43.05449" lon="2.89424">
        <ele>42.3</ele>
        <time>2024-05-10T12:46:22Z</time>
      </trkpt>
      <trkpt lat="43.05441" lon="2.89397">
        <ele>42.1</ele>
        <time>2024-05-10T12:46:23Z</time>
      </trkpt>
      <trkpt lat="43.05433" lon="2.89371">
        <ele>42.1</ele>
        <time>2024-05-10T12:46:24Z</time>
      </trkpt>
      <trkpt lat="43.05424" lon="2.89344">
        <ele>41.1</ele>
        <time>2024-05-10T12:46:25Z</time>
      </trkpt>
      <trkpt lat="43.05416" lon="2.89317">
        <ele>40.1</ele>
        <time>2024-05-10T12:46:26Z</time>
      </trkpt>
      <trkpt lat="43.05407" lon="2.8929">
        <ele>41</ele>
        <time>2024-05-10T12:46:27Z</time>
      </trkpt>
      <trkpt lat="43.05398" lon="2.89261">
        <ele>38.6</ele>
        <time>2024-05-10T12:46:28Z</time>
      </trkpt>
      <trkpt lat="43.0539" lon="2.89233">
        <ele>35.8</ele>
        <time>2024-05-10T12:46:29Z</time>
      </trkpt>
      <trkpt lat="43.05381" lon="2.89203">
        <ele>32.3</ele>
        <time>2024-05-10T12:46:30Z</time>
      </trkpt>
      <trkpt lat="43.05372" lon="2.89175">
        <ele>33.7</ele>
        <time>2024-05-10T12:46:31Z</time>
      </trkpt>
      <trkpt lat="43.05363" lon="2.89148">
        <ele>35</ele>
        <time>2024-05-10T12:46:32Z</time>
      </trkpt>
      <trkpt lat="43.05354" lon="2.89121">
        <ele>34.9</ele>
        <time>2024-05-10T12:46:33Z</time>
      </trkpt>
      <trkpt lat="43.05344" lon="2.89095">
        <ele>35.6</ele>
        <time>2024-05-10T12:46:34Z</time>
      </trkpt>
      <trkpt lat="43.05334" lon="2.89069">
        <ele>36</ele>
        <time>2024-05-10T12:46:35Z</time>
      </trkpt>
      <trkpt lat="43.05324" lon="2.89043">
        <ele>35.7</ele>
        <time>2024-05-10T12:46:36Z</time>
      </trkpt>
      <trkpt lat="43.05315" lon="2.89019">
        <ele>35.7</ele>
        <time>2024-05-10T12:46:37Z</time>
      </trkpt>
      <trkpt lat="43.05305" lon="2.88995">
        <ele>36</ele>
        <time>2024-05-10T12:46:38Z</time>
      </trkpt>
      <trkpt lat="43.05297" lon="2.88971">
        <ele>35.4</ele>
        <time>2024-05-10T12:46:39Z</time>
      </trkpt>
      <trkpt lat="43.05288" lon="2.88949">
        <ele>35.6</ele>
        <time>2024-05-10T12:46:40Z</time>
      </trkpt>
      <trkpt lat="43.0528" lon="2.88927">
        <ele>35.9</ele>
        <time>2024-05-10T12:46:41Z</time>
      </trkpt>
      <trkpt lat="43.05271" lon="2.88906">
        <ele>35.3</ele>
        <time>2024-05-10T12:46:42Z</time>
      </trkpt>
      <trkpt lat="43.05263" lon="2.88884">
        <ele>34.6</ele>
        <time>2024-05-10T12:46:43Z</time>
      </trkpt>
      <trkpt lat="43.05254" lon="2.88861">
        <ele>35.1</ele>
        <time>2024-05-10T12:46:44Z</time>
      </trkpt>
      <trkpt lat="43.05244" lon="2.88839">
        <ele>34.6</ele>
        <time>2024-05-10T12:46:45Z</time>
      </trkpt>
      <trkpt lat="43.05235" lon="2.88816">
        <ele>34.3</ele>
        <time>2024-05-10T12:46:46Z</time>
      </trkpt>
      <trkpt lat="43.05226" lon="2.88793">
        <ele>34.5</ele>
        <time>2024-05-10T12:46:47Z</time>
      </trkpt>
      <trkpt lat="43.05217" lon="2.8877">
        <ele>34.6</ele>
        <time>2024-05-10T12:46:48Z</time>
      </trkpt>
      <trkpt lat="43.05208" lon="2.88747">
        <ele>34.1</ele>
        <time>2024-05-10T12:46:49Z</time>
      </trkpt>
      <trkpt lat="43.05198" lon="2.88723">
        <ele>35</ele>
        <time>2024-05-10T12:46:50Z</time>
      </trkpt>
      <trkpt lat="43.05189" lon="2.88699">
        <ele>34.8</ele>
        <time>2024-05-10T12:46:51Z</time>
      </trkpt>
      <trkpt lat="43.0518" lon="2.88676">
        <ele>34.8</ele>
        <time>2024-05-10T12:46:52Z</time>
      </trkpt>
      <trkpt lat="43.05171" lon="2.88654">
        <ele>35.5</ele>
        <time>2024-05-10T12:46:53Z</time>
      </trkpt>
      <trkpt lat="43.05163" lon="2.88633">
        <ele>35.6</ele>
        <time>2024-05-10T12:46:54Z</time>
      </trkpt>
      <trkpt lat="43.05155" lon="2.88612">
        <ele>34.6</ele>
        <time>2024-05-10T12:46:55Z</time>
      </trkpt>
      <trkpt lat="43.05147" lon="2.88592">
        <ele>34.8</ele>
        <time>2024-05-10T12:46:56Z</time>
      </trkpt>
      <trkpt lat="43.05139" lon="2.88573">
        <ele>35.4</ele>
        <time>2024-05-10T12:46:57Z</time>
      </trkpt>
      <trkpt lat="43.05132" lon="2.88553">
        <ele>35.8</ele>
        <time>2024-05-10T12:46:58Z</time>
      </trkpt>
      <trkpt lat="43.05125" lon="2.88535">
        <ele>35.5</ele>
        <time>2024-05-10T12:46:59Z</time>
      </trkpt>
      <trkpt lat="43.05118" lon="2.88517">
        <ele>35.5</ele>
        <time>2024-05-10T12:47:00Z</time>
      </trkpt>
      <trkpt lat="43.05111" lon="2.885">
        <ele>36</ele>
        <time>2024-05-10T12:47:01Z</time>
      </trkpt>
      <trkpt lat="43.05104" lon="2.88481">
        <ele>35.7</ele>
        <time>2024-05-10T12:47:02Z</time>
      </trkpt>
      <trkpt lat="43.05097" lon="2.88463">
        <ele>35.8</ele>
        <time>2024-05-10T12:47:03Z</time>
      </trkpt>
      <trkpt lat="43.0509" lon="2.88444">
        <ele>36.3</ele>
        <time>2024-05-10T12:47:04Z</time>
      </trkpt>
      <trkpt lat="43.05082" lon="2.88424">
        <ele>36.6</ele>
        <time>2024-05-10T12:47:05Z</time>
      </trkpt>
      <trkpt lat="43.05075" lon="2.88405">
        <ele>37</ele>
        <time>2024-05-10T12:47:06Z</time>
      </trkpt>
      <trkpt lat="43.05067" lon="2.88386">
        <ele>36.9</ele>
        <time>2024-05-10T12:47:07Z</time>
      </trkpt>
      <trkpt lat="43.0506" lon="2.88366">
        <ele>37.6</ele>
        <time>2024-05-10T12:47:08Z</time>
      </trkpt>
      <trkpt lat="43.05052" lon="2.88346">
        <ele>36.8</ele>
        <time>2024-05-10T12:47:09Z</time>
      </trkpt>
      <trkpt lat="43.05044" lon="2.88326">
        <ele>36.8</ele>
        <time>2024-05-10T12:47:10Z</time>
      </trkpt>
      <trkpt lat="43.05036" lon="2.88305">
        <ele>37.3</ele>
        <time>2024-05-10T12:47:11Z</time>
      </trkpt>
      <trkpt lat="43.05027" lon="2.88284">
        <ele>36.9</ele>
        <time>2024-05-10T12:47:12Z</time>
      </trkpt>
      <trkpt lat="43.05018" lon="2.88262">
        <ele>36.5</ele>
        <time>2024-05-10T12:47:13Z</time>
      </trkpt>
      <trkpt lat="43.0501" lon="2.8824">
        <ele>37</ele>
        <time>2024-05-10T12:47:14Z</time>
      </trkpt>
      <trkpt lat="43.05001" lon="2.88217">
        <ele>37.8</ele>
        <time>2024-05-10T12:47:15Z</time>
      </trkpt>
      <trkpt lat="43.04992" lon="2.88194">
        <ele>36.7</ele>
        <time>2024-05-10T12:47:16Z</time>
      </trkpt>
      <trkpt lat="43.04983" lon="2.8817">
        <ele>37.3</ele>
        <time>2024-05-10T12:47:17Z</time>
      </trkpt>
      <trkpt lat="43.04974" lon="2.88147">
        <ele>37.8</ele>
        <time>2024-05-10T12:47:18Z</time>
      </trkpt>
      <trkpt lat="43.04965" lon="2.88124">
        <ele>37.5</ele>
        <time>2024-05-10T12:47:19Z</time>
      </trkpt>
      <trkpt lat="43.04956" lon="2.88102">
        <ele>37.5</ele>
        <time>2024-05-10T12:47:20Z</time>
      </trkpt>
      <trkpt lat="43.04948" lon="2.88081">
        <ele>38.4</ele>
        <time>2024-05-10T12:47:21Z</time>
      </trkpt>
      <trkpt lat="43.0494" lon="2.8806">
        <ele>38.5</ele>
        <time>2024-05-10T12:47:22Z</time>
      </trkpt>
      <trkpt lat="43.04934" lon="2.88041">
        <ele>38.8</ele>
        <time>2024-05-10T12:47:23Z</time>
      </trkpt>
      <trkpt lat="43.04932" lon="2.88023">
        <ele>39</ele>
        <time>2024-05-10T12:47:24Z</time>
      </trkpt>
      <trkpt lat="43.04932" lon="2.88005">
        <ele>38.7</ele>
        <time>2024-05-10T12:47:25Z</time>
      </trkpt>
      <trkpt lat="43.04934" lon="2.87988">
        <ele>38.9</ele>
        <time>2024-05-10T12:47:26Z</time>
      </trkpt>
      <trkpt lat="43.04938" lon="2.87972">
        <ele>39.3</ele>
        <time>2024-05-10T12:47:27Z</time>
      </trkpt>
      <trkpt lat="43.04944" lon="2.87958">
        <ele>39.4</ele>
        <time>2024-05-10T12:47:28Z</time>
      </trkpt>
      <trkpt lat="43.0495" lon="2.87945">
        <ele>40.6</ele>
        <time>2024-05-10T12:47:29Z</time>
      </trkpt>
      <trkpt lat="43.04959" lon="2.87933">
        <ele>40.7</ele>
        <time>2024-05-10T12:47:30Z</time>
      </trkpt>
      <trkpt lat="43.0497" lon="2.87924">
        <ele>40.7</ele>
        <time>2024-05-10T12:47:31Z</time>
      </trkpt>
      <trkpt lat="43.04981" lon="2.87918">
        <ele>39.8</ele>
        <time>2024-05-10T12:47:32Z</time>
      </trkpt>
      <trkpt lat="43.04993" lon="2.87915">
        <ele>39.4</ele>
        <time>2024-05-10T12:47:33Z</time>
      </trkpt>
      <trkpt lat="43.05006" lon="2.87914">
        <ele>39.6</ele>
        <time>2024-05-10T12:47:34Z</time>
      </trkpt>
      <trkpt lat="43.0502" lon="2.87913">
        <ele>39.9</ele>
        <time>2024-05-10T12:47:35Z</time>
      </trkpt>
      <trkpt lat="43.05035" lon="2.87912">
        <ele>40.4</ele>
        <time>2024-05-10T12:47:36Z</time>
      </trkpt>
      <trkpt lat="43.0505" lon="2.87911">
        <ele>41</ele>
        <time>2024-05-10T12:47:37Z</time>
      </trkpt>
      <trkpt lat="43.05065" lon="2.87909">
        <ele>42</ele>
        <time>2024-05-10T12:47:38Z</time>
      </trkpt>
      <trkpt lat="43.0508" lon="2.87904">
        <ele>42.8</ele>
        <time>2024-05-10T12:47:39Z</time>
      </trkpt>
      <trkpt lat="43.05094" lon="2.87896">
        <ele>42.9</ele>
        <time>2024-05-10T12:47:40Z</time>
      </trkpt>
      <trkpt lat="43.05107" lon="2.87884">
        <ele>41</ele>
        <time>2024-05-10T12:47:41Z</time>
      </trkpt>
      <trkpt lat="43.05118" lon="2.87868">
        <ele>39.1</ele>
        <time>2024-05-10T12:47:42Z</time>
      </trkpt>
      <trkpt lat="43.05127" lon="2.87851">
        <ele>38.5</ele>
        <time>2024-05-10T12:47:43Z</time>
      </trkpt>
      <trkpt lat="43.05135" lon="2.87834">
        <ele>40.4</ele>
        <time>2024-05-10T12:47:44Z</time>
      </trkpt>
      <trkpt lat="43.0514" lon="2.87816">
        <ele>41</ele>
        <time>2024-05-10T12:47:45Z</time>
      </trkpt>
      <trkpt lat="43.05143" lon="2.87799">
        <ele>41</ele>
        <time>2024-05-10T12:47:46Z</time>
      </trkpt>
      <trkpt lat="43.05145" lon="2.8778">
        <ele>41</ele>
        <time>2024-05-10T12:47:47Z</time>
      </trkpt>
      <trkpt lat="43.05146" lon="2.8776">
        <ele>41.2</ele>
        <time>2024-05-10T12:47:48Z</time>
      </trkpt>
      <trkpt lat="43.05147" lon="2.87739">
        <ele>41.4</ele>
        <time>2024-05-10T12:47:49Z</time>
      </trkpt>
      <trkpt lat="43.05148" lon="2.87718">
        <ele>41.7</ele>
        <time>2024-05-10T12:47:50Z</time>
      </trkpt>
      <trkpt lat="43.05149" lon="2.87695">
        <ele>42.2</ele>
        <time>2024-05-10T12:47:51Z</time>
      </trkpt>
      <trkpt lat="43.05149" lon="2.87671">
        <ele>42.2</ele>
        <time>2024-05-10T12:47:52Z</time>
      </trkpt>
      <trkpt lat="43.05147" lon="2.87647">
        <ele>42</ele>
        <time>2024-05-10T12:47:53Z</time>
      </trkpt>
      <trkpt lat="43.05144" lon="2.8762">
        <ele>41.4</ele>
        <time>2024-05-10T12:47:54Z</time>
      </trkpt>
      <trkpt lat="43.05139" lon="2.87592">
        <ele>40.7</ele>
        <time>2024-05-10T12:47:55Z</time>
      </trkpt>
      <trkpt lat="43.05134" lon="2.87561">
        <ele>40.4</ele>
        <time>2024-05-10T12:47:56Z</time>
      </trkpt>
      <trkpt lat="43.05128" lon="2.87531">
        <ele>40.2</ele>
        <time>2024-05-10T12:47:57Z</time>
      </trkpt>
      <trkpt lat="43.05122" lon="2.875">
        <ele>39.8</ele>
        <time>2024-05-10T12:47:58Z</time>
      </trkpt>
      <trkpt lat="43.05115" lon="2.87469">
        <ele>40.1</ele>
        <time>2024-05-10T12:47:59Z</time>
      </trkpt>
      <trkpt lat="43.05109" lon="2.87436">
        <ele>39.8</ele>
        <time>2024-05-10T12:48:00Z</time>
      </trkpt>
      <trkpt lat="43.05101" lon="2.87401">
        <ele>39.5</ele>
        <time>2024-05-10T12:48:01Z</time>
      </trkpt>
      <trkpt lat="43.05095" lon="2.87368">
        <ele>39.9</ele>
        <time>2024-05-10T12:48:02Z</time>
      </trkpt>
      <trkpt lat="43.05088" lon="2.87335">
        <ele>40</ele>
        <time>2024-05-10T12:48:03Z</time>
      </trkpt>
      <trkpt lat="43.05082" lon="2.87301">
        <ele>40.7</ele>
        <time>2024-05-10T12:48:04Z</time>
      </trkpt>
      <trkpt lat="43.05075" lon="2.87267">
        <ele>39.8</ele>
        <time>2024-05-10T12:48:05Z</time>
      </trkpt>
      <trkpt lat="43.05068" lon="2.87234">
        <ele>40</ele>
        <time>2024-05-10T12:48:06Z</time>
      </trkpt>
      <trkpt lat="43.05062" lon="2.87201">
        <ele>40.6</ele>
        <time>2024-05-10T12:48:07Z</time>
      </trkpt>
      <trkpt lat="43.05055" lon="2.87171">
        <ele>41</ele>
        <time>2024-05-10T12:48:08Z</time>
      </trkpt>
      <trkpt lat="43.05046" lon="2.87142">
        <ele>41</ele>
        <time>2024-05-10T12:48:09Z</time>
      </trkpt>
      <trkpt lat="43.05034" lon="2.87116">
        <ele>41.8</ele>
        <time>2024-05-10T12:48:10Z</time>
      </trkpt>
      <trkpt lat="43.0502" lon="2.87092">
        <ele>42.4</ele>
        <time>2024-05-10T12:48:11Z</time>
      </trkpt>
      <trkpt lat="43.05003" lon="2.87069">
        <ele>42.1</ele>
        <time>2024-05-10T12:48:12Z</time>
      </trkpt>
      <trkpt lat="43.04987" lon="2.87046">
        <ele>41.9</ele>
        <time>2024-05-10T12:48:13Z</time>
      </trkpt>
      <trkpt lat="43.04969" lon="2.87024">
        <ele>42</ele>
        <time>2024-05-10T12:48:14Z</time>
      </trkpt>
      <trkpt lat="43.04952" lon="2.87001">
        <ele>42.9</ele>
        <time>2024-05-10T12:48:15Z</time>
      </trkpt>
      <trkpt lat="43.04935" lon="2.86979">
        <ele>42.9</ele>
        <time>2024-05-10T12:48:16Z</time>
      </trkpt>
      <trkpt lat="43.04918" lon="2.86958">
        <ele>43.5</ele>
        <time>2024-05-10T12:48:17Z</time>
      </trkpt>
      <trkpt lat="43.04901" lon="2.86936">
        <ele>43.7</ele>
        <time>2024-05-10T12:48:18Z</time>
      </trkpt>
      <trkpt lat="43.04884" lon="2.86913">
        <ele>43.8</ele>
        <time>2024-05-10T12:48:19Z</time>
      </trkpt>
      <trkpt lat="43.04866" lon="2.86891">
        <ele>43.3</ele>
        <time>2024-05-10T12:48:20Z</time>
      </trkpt>
      <trkpt lat="43.0485" lon="2.8687">
        <ele>43.7</ele>
        <time>2024-05-10T12:48:21Z</time>
      </trkpt>
      <trkpt lat="43.04835" lon="2.8685">
        <ele>44</ele>
        <time>2024-05-10T12:48:22Z</time>
      </trkpt>
      <trkpt lat="43.04821" lon="2.86832">
        <ele>43.9</ele>
        <time>2024-05-10T12:48:23Z</time>
      </trkpt>
      <trkpt lat="43.0481" lon="2.86813">
        <ele>45.1</ele>
        <time>2024-05-10T12:48:24Z</time>
      </trkpt>
      <trkpt lat="43.048" lon="2.86793">
        <ele>45.7</ele>
        <time>2024-05-10T12:48:25Z</time>
      </trkpt>
      <trkpt lat="43.04792" lon="2.86773">
        <ele>45.5</ele>
        <time>2024-05-10T12:48:26Z</time>
      </trkpt>
      <trkpt lat="43.04788" lon="2.86751">
        <ele>44.5</ele>
        <time>2024-05-10T12:48:27Z</time>
      </trkpt>
      <trkpt lat="43.04785" lon="2.8673">
        <ele>45.9</ele>
        <time>2024-05-10T12:48:28Z</time>
      </trkpt>
      <trkpt lat="43.04785" lon="2.86708">
        <ele>45.8</ele>
        <time>2024-05-10T12:48:29Z</time>
      </trkpt>
      <trkpt lat="43.04786" lon="2.86687">
        <ele>45.4</ele>
        <time>2024-05-10T12:48:30Z</time>
      </trkpt>
      <trkpt lat="43.04788" lon="2.86664">
        <ele>46.1</ele>
        <time>2024-05-10T12:48:31Z</time>
      </trkpt>
      <trkpt lat="43.04793" lon="2.86642">
        <ele>46.7</ele>
        <time>2024-05-10T12:48:32Z</time>
      </trkpt>
      <trkpt lat="43.04799" lon="2.8662">
        <ele>46.8</ele>
        <time>2024-05-10T12:48:33Z</time>
      </trkpt>
      <trkpt lat="43.04807" lon="2.86598">
        <ele>46.6</ele>
        <time>2024-05-10T12:48:34Z</time>
      </trkpt>
      <trkpt lat="43.04816" lon="2.86576">
        <ele>46.3</ele>
        <time>2024-05-10T12:48:35Z</time>
      </trkpt>
      <trkpt lat="43.04825" lon="2.86554">
        <ele>45.2</ele>
        <time>2024-05-10T12:48:36Z</time>
      </trkpt>
      <trkpt lat="43.04835" lon="2.86533">
        <ele>46.8</ele>
        <time>2024-05-10T12:48:37Z</time>
      </trkpt>
      <trkpt lat="43.04846" lon="2.86512">
        <ele>45.5</ele>
        <time>2024-05-10T12:48:38Z</time>
      </trkpt>
      <trkpt lat="43.04858" lon="2.86494">
        <ele>45.7</ele>
        <time>2024-05-10T12:48:39Z</time>
      </trkpt>
      <trkpt lat="43.04869" lon="2.86476">
        <ele>47.6</ele>
        <time>2024-05-10T12:48:40Z</time>
      </trkpt>
      <trkpt lat="43.04878" lon="2.86455">
        <ele>47.3</ele>
        <time>2024-05-10T12:48:41Z</time>
      </trkpt>
      <trkpt lat="43.04885" lon="2.86432">
        <ele>47.6</ele>
        <time>2024-05-10T12:48:42Z</time>
      </trkpt>
      <trkpt lat="43.04892" lon="2.8641">
        <ele>49.4</ele>
        <time>2024-05-10T12:48:43Z</time>
      </trkpt>
      <trkpt lat="43.049" lon="2.86387">
        <ele>50.3</ele>
        <time>2024-05-10T12:48:44Z</time>
      </trkpt>
      <trkpt lat="43.04906" lon="2.86365">
        <ele>49.3</ele>
        <time>2024-05-10T12:48:45Z</time>
      </trkpt>
      <trkpt lat="43.0491" lon="2.86343">
        <ele>50.5</ele>
        <time>2024-05-10T12:48:46Z</time>
      </trkpt>
      <trkpt lat="43.04912" lon="2.86322">
        <ele>51.7</ele>
        <time>2024-05-10T12:48:47Z</time>
      </trkpt>
      <trkpt lat="43.04911" lon="2.86301">
        <ele>50.6</ele>
        <time>2024-05-10T12:48:48Z</time>
      </trkpt>
      <trkpt lat="43.04907" lon="2.86278">
        <ele>45.9</ele>
        <time>2024-05-10T12:48:49Z</time>
      </trkpt>
      <trkpt lat="43.04903" lon="2.86256">
        <ele>47.8</ele>
        <time>2024-05-10T12:48:50Z</time>
      </trkpt>
      <trkpt lat="43.04898" lon="2.86236">
        <ele>50.6</ele>
        <time>2024-05-10T12:48:51Z</time>
      </trkpt>
      <trkpt lat="43.04892" lon="2.86217">
        <ele>50.3</ele>
        <time>2024-05-10T12:48:52Z</time>
      </trkpt>
      <trkpt lat="43.04887" lon="2.86199">
        <ele>51.2</ele>
        <time>2024-05-10T12:48:53Z</time>
      </trkpt>
      <trkpt lat="43.04884" lon="2.86181">
        <ele>50.3</ele>
        <time>2024-05-10T12:48:54Z</time>
      </trkpt>
      <trkpt lat="43.04883" lon="2.86162">
        <ele>49.7</ele>
        <time>2024-05-10T12:48:55Z</time>
      </trkpt>
      <trkpt lat="43.04884" lon="2.86142">
        <ele>50.9</ele>
        <time>2024-05-10T12:48:56Z</time>
      </trkpt>
      <trkpt lat="43.04885" lon="2.86123">
        <ele>49.6</ele>
        <time>2024-05-10T12:48:57Z</time>
      </trkpt>
      <trkpt lat="43.04887" lon="2.86104">
        <ele>48.8</ele>
        <time>2024-05-10T12:48:58Z</time>
      </trkpt>
      <trkpt lat="43.04887" lon="2.86086">
        <ele>49.5</ele>
        <time>2024-05-10T12:48:59Z</time>
      </trkpt>
      <trkpt lat="43.04885" lon="2.86068">
        <ele>49.8</ele>
        <time>2024-05-10T12:49:00Z</time>
      </trkpt>
      <trkpt lat="43.0488" lon="2.86052">
        <ele>50</ele>
        <time>2024-05-10T12:49:01Z</time>
      </trkpt>
      <trkpt lat="43.04871" lon="2.86036">
        <ele>50.2</ele>
        <time>2024-05-10T12:49:02Z</time>
      </trkpt>
      <trkpt lat="43.04861" lon="2.86021">
        <ele>48.7</ele>
        <time>2024-05-10T12:49:03Z</time>
      </trkpt>
      <trkpt lat="43.04849" lon="2.86008">
        <ele>49</ele>
        <time>2024-05-10T12:49:04Z</time>
      </trkpt>
      <trkpt lat="43.04836" lon="2.85996">
        <ele>48.6</ele>
        <time>2024-05-10T12:49:05Z</time>
      </trkpt>
      <trkpt lat="43.04822" lon="2.85987">
        <ele>48.7</ele>
        <time>2024-05-10T12:49:06Z</time>
      </trkpt>
      <trkpt lat="43.04805" lon="2.85982">
        <ele>48.9</ele>
        <time>2024-05-10T12:49:07Z</time>
      </trkpt>
      <trkpt lat="43.04788" lon="2.85979">
        <ele>48.5</ele>
        <time>2024-05-10T12:49:08Z</time>
      </trkpt>
      <trkpt lat="43.04769" lon="2.85978">
        <ele>48.2</ele>
        <time>2024-05-10T12:49:09Z</time>
      </trkpt>
      <trkpt lat="43.04749" lon="2.85977">
        <ele>48.3</ele>
        <time>2024-05-10T12:49:10Z</time>
      </trkpt>
      <trkpt lat="43.0473" lon="2.85975">
        <ele>47.9</ele>
        <time>2024-05-10T12:49:11Z</time>
      </trkpt>
      <trkpt lat="43.04711" lon="2.85973">
        <ele>48.3</ele>
        <time>2024-05-10T12:49:12Z</time>
      </trkpt>
      <trkpt lat="43.04691" lon="2.85971">
        <ele>49.4</ele>
        <time>2024-05-10T12:49:13Z</time>
      </trkpt>
      <trkpt lat="43.04671" lon="2.85968">
        <ele>50.2</ele>
        <time>2024-05-10T12:49:14Z</time>
      </trkpt>
      <trkpt lat="43.04652" lon="2.85965">
        <ele>50.7</ele>
        <time>2024-05-10T12:49:15Z</time>
      </trkpt>
      <trkpt lat="43.04634" lon="2.85961">
        <ele>51.1</ele>
        <time>2024-05-10T12:49:16Z</time>
      </trkpt>
      <trkpt lat="43.04616" lon="2.85958">
        <ele>50.6</ele>
        <time>2024-05-10T12:49:17Z</time>
      </trkpt>
      <trkpt lat="43.04599" lon="2.85953">
        <ele>50.2</ele>
        <time>2024-05-10T12:49:18Z</time>
      </trkpt>
      <trkpt lat="43.04582" lon="2.85948">
        <ele>48.9</ele>
        <time>2024-05-10T12:49:19Z</time>
      </trkpt>
      <trkpt lat="43.04565" lon="2.8594">
        <ele>50.3</ele>
        <time>2024-05-10T12:49:20Z</time>
      </trkpt>
      <trkpt lat="43.04549" lon="2.85929">
        <ele>50.3</ele>
        <time>2024-05-10T12:49:21Z</time>
      </trkpt>
      <trkpt lat="43.04532" lon="2.85916">
        <ele>49.7</ele>
        <time>2024-05-10T12:49:22Z</time>
      </trkpt>
      <trkpt lat="43.04515" lon="2.85903">
        <ele>50.1</ele>
        <time>2024-05-10T12:49:23Z</time>
      </trkpt>
      <trkpt lat="43.04495" lon="2.85893">
        <ele>50</ele>
        <time>2024-05-10T12:49:24Z</time>
      </trkpt>
      <trkpt lat="43.04474" lon="2.85884">
        <ele>50.5</ele>
        <time>2024-05-10T12:49:25Z</time>
      </trkpt>
      <trkpt lat="43.04452" lon="2.85875">
        <ele>50.8</ele>
        <time>2024-05-10T12:49:26Z</time>
      </trkpt>
      <trkpt lat="43.04428" lon="2.85868">
        <ele>50.3</ele>
        <time>2024-05-10T12:49:27Z</time>
      </trkpt>
      <trkpt lat="43.04406" lon="2.8586">
        <ele>50.2</ele>
        <time>2024-05-10T12:49:28Z</time>
      </trkpt>
      <trkpt lat="43.04384" lon="2.85853">
        <ele>50.8</ele>
        <time>2024-05-10T12:49:29Z</time>
      </trkpt>
      <trkpt lat="43.04362" lon="2.85845">
        <ele>51.2</ele>
        <time>2024-05-10T12:49:30Z</time>
      </trkpt>
      <trkpt lat="43.0434" lon="2.85837">
        <ele>51</ele>
        <time>2024-05-10T12:49:31Z</time>
      </trkpt>
      <trkpt lat="43.04319" lon="2.85828">
        <ele>51.1</ele>
        <time>2024-05-10T12:49:32Z</time>
      </trkpt>
      <trkpt lat="43.04299" lon="2.8582">
        <ele>51</ele>
        <time>2024-05-10T12:49:33Z</time>
      </trkpt>
      <trkpt lat="43.04279" lon="2.85812">
        <ele>51.5</ele>
        <time>2024-05-10T12:49:34Z</time>
      </trkpt>
      <trkpt lat="43.04261" lon="2.85805">
        <ele>51.5</ele>
        <time>2024-05-10T12:49:35Z</time>
      </trkpt>
      <trkpt lat="43.04245" lon="2.85798">
        <ele>51.4</ele>
        <time>2024-05-10T12:49:36Z</time>
      </trkpt>
      <trkpt lat="43.0423" lon="2.8579">
        <ele>51.4</ele>
        <time>2024-05-10T12:49:37Z</time>
      </trkpt>
      <trkpt lat="43.04218" lon="2.85782">
        <ele>51.5</ele>
        <time>2024-05-10T12:49:38Z</time>
      </trkpt>
      <trkpt lat="43.04208" lon="2.8577">
        <ele>52.2</ele>
        <time>2024-05-10T12:49:39Z</time>
      </trkpt>
      <trkpt lat="43.042" lon="2.85757">
        <ele>52.4</ele>
        <time>2024-05-10T12:49:40Z</time>
      </trkpt>
      <trkpt lat="43.04196" lon="2.85742">
        <ele>52.5</ele>
        <time>2024-05-10T12:49:41Z</time>
      </trkpt>
      <trkpt lat="43.04194" lon="2.85726">
        <ele>52.8</ele>
        <time>2024-05-10T12:49:42Z</time>
      </trkpt>
      <trkpt lat="43.04193" lon="2.85708">
        <ele>52.8</ele>
        <time>2024-05-10T12:49:43Z</time>
      </trkpt>
      <trkpt lat="43.04191" lon="2.85687">
        <ele>52.5</ele>
        <time>2024-05-10T12:49:44Z</time>
      </trkpt>
      <trkpt lat="43.0419" lon="2.85665">
        <ele>52.5</ele>
        <time>2024-05-10T12:49:45Z</time>
      </trkpt>
      <trkpt lat="43.04189" lon="2.85641">
        <ele>52.4</ele>
        <time>2024-05-10T12:49:46Z</time>
      </trkpt>
      <trkpt lat="43.04188" lon="2.85614">
        <ele>53</ele>
        <time>2024-05-10T12:49:47Z</time>
      </trkpt>
      <trkpt lat="43.04187" lon="2.85588">
        <ele>53.2</ele>
        <time>2024-05-10T12:49:48Z</time>
      </trkpt>
      <trkpt lat="43.04186" lon="2.85561">
        <ele>54</ele>
        <time>2024-05-10T12:49:49Z</time>
      </trkpt>
      <trkpt lat="43.04184" lon="2.85533">
        <ele>54.3</ele>
        <time>2024-05-10T12:49:50Z</time>
      </trkpt>
      <trkpt lat="43.04183" lon="2.85504">
        <ele>54.1</ele>
        <time>2024-05-10T12:49:51Z</time>
      </trkpt>
      <trkpt lat="43.04181" lon="2.85474">
        <ele>56</ele>
        <time>2024-05-10T12:49:52Z</time>
      </trkpt>
      <trkpt lat="43.04178" lon="2.85445">
        <ele>56.1</ele>
        <time>2024-05-10T12:49:53Z</time>
      </trkpt>
      <trkpt lat="43.04176" lon="2.85417">
        <ele>55.7</ele>
        <time>2024-05-10T12:49:54Z</time>
      </trkpt>
      <trkpt lat="43.04173" lon="2.85388">
        <ele>55.8</ele>
        <time>2024-05-10T12:49:55Z</time>
      </trkpt>
      <trkpt lat="43.04173" lon="2.85359">
        <ele>56.4</ele>
        <time>2024-05-10T12:49:56Z</time>
      </trkpt>
      <trkpt lat="43.04173" lon="2.8533">
        <ele>56.2</ele>
        <time>2024-05-10T12:49:57Z</time>
      </trkpt>
      <trkpt lat="43.04175" lon="2.853">
        <ele>55.3</ele>
        <time>2024-05-10T12:49:58Z</time>
      </trkpt>
      <trkpt lat="43.04177" lon="2.85271">
        <ele>58.1</ele>
        <time>2024-05-10T12:49:59Z</time>
      </trkpt>
      <trkpt lat="43.04179" lon="2.85243">
        <ele>58.6</ele>
        <time>2024-05-10T12:50:00Z</time>
      </trkpt>
      <trkpt lat="43.04182" lon="2.85216">
        <ele>59.7</ele>
        <time>2024-05-10T12:50:01Z</time>
      </trkpt>
      <trkpt lat="43.04187" lon="2.85191">
        <ele>59.5</ele>
        <time>2024-05-10T12:50:02Z</time>
      </trkpt>
      <trkpt lat="43.04194" lon="2.85166">
        <ele>58.7</ele>
        <time>2024-05-10T12:50:03Z</time>
      </trkpt>
      <trkpt lat="43.04202" lon="2.85142">
        <ele>58.8</ele>
        <time>2024-05-10T12:50:04Z</time>
      </trkpt>
      <trkpt lat="43.04211" lon="2.85119">
        <ele>57</ele>
        <time>2024-05-10T12:50:05Z</time>
      </trkpt>
      <trkpt lat="43.04219" lon="2.85097">
        <ele>55.7</ele>
        <time>2024-05-10T12:50:06Z</time>
      </trkpt>
      <trkpt lat="43.04226" lon="2.85074">
        <ele>56.6</ele>
        <time>2024-05-10T12:50:07Z</time>
      </trkpt>
      <trkpt lat="43.0423" lon="2.8505">
        <ele>57.2</ele>
        <time>2024-05-10T12:50:08Z</time>
      </trkpt>
      <trkpt lat="43.04233" lon="2.85025">
        <ele>56.8</ele>
        <time>2024-05-10T12:50:09Z</time>
      </trkpt>
      <trkpt lat="43.04234" lon="2.84998">
        <ele>59.8</ele>
        <time>2024-05-10T12:50:10Z</time>
      </trkpt>
      <trkpt lat="43.04235" lon="2.8497">
        <ele>62.4</ele>
        <time>2024-05-10T12:50:11Z</time>
      </trkpt>
      <trkpt lat="43.04234" lon="2.84942">
        <ele>62.2</ele>
        <time>2024-05-10T12:50:12Z</time>
      </trkpt>
      <trkpt lat="43.04234" lon="2.84912">
        <ele>61.8</ele>
        <time>2024-05-10T12:50:13Z</time>
      </trkpt>
      <trkpt lat="43.04233" lon="2.84881">
        <ele>62</ele>
        <time>2024-05-10T12:50:14Z</time>
      </trkpt>
      <trkpt lat="43.04232" lon="2.8485">
        <ele>62.4</ele>
        <time>2024-05-10T12:50:15Z</time>
      </trkpt>
      <trkpt lat="43.04231" lon="2.84817">
        <ele>62.8</ele>
        <time>2024-05-10T12:50:16Z</time>
      </trkpt>
      <trkpt lat="43.04229" lon="2.84784">
        <ele>61.3</ele>
        <time>2024-05-10T12:50:17Z</time>
      </trkpt>
      <trkpt lat="43.04228" lon="2.84751">
        <ele>61.4</ele>
        <time>2024-05-10T12:50:18Z</time>
      </trkpt>
      <trkpt lat="43.04226" lon="2.84719">
        <ele>59.1</ele>
        <time>2024-05-10T12:50:19Z</time>
      </trkpt>
      <trkpt lat="43.04223" lon="2.84686">
        <ele>57.2</ele>
        <time>2024-05-10T12:50:20Z</time>
      </trkpt>
      <trkpt lat="43.04218" lon="2.84654">
        <ele>58.2</ele>
        <time>2024-05-10T12:50:21Z</time>
      </trkpt>
      <trkpt lat="43.04212" lon="2.84623">
        <ele>59</ele>
        <time>2024-05-10T12:50:22Z</time>
      </trkpt>
      <trkpt lat="43.04205" lon="2.84593">
        <ele>59.6</ele>
        <time>2024-05-10T12:50:23Z</time>
      </trkpt>
      <trkpt lat="43.04197" lon="2.84565">
        <ele>58.3</ele>
        <time>2024-05-10T12:50:24Z</time>
      </trkpt>
      <trkpt lat="43.04188" lon="2.84539">
        <ele>58.9</ele>
        <time>2024-05-10T12:50:25Z</time>
      </trkpt>
      <trkpt lat="43.04179" lon="2.84513">
        <ele>60.5</ele>
        <time>2024-05-10T12:50:26Z</time>
      </trkpt>
      <trkpt lat="43.04172" lon="2.84492">
        <ele>59.2</ele>
        <time>2024-05-10T12:50:27Z</time>
      </trkpt>
      <trkpt lat="43.04165" lon="2.84475">
        <ele>56.7</ele>
        <time>2024-05-10T12:50:28Z</time>
      </trkpt>
      <trkpt lat="43.04159" lon="2.84457">
        <ele>56.7</ele>
        <time>2024-05-10T12:50:29Z</time>
      </trkpt>
      <trkpt lat="43.04155" lon="2.8444">
        <ele>57.3</ele>
        <time>2024-05-10T12:50:30Z</time>
      </trkpt>
      <trkpt lat="43.04153" lon="2.84422">
        <ele>60.1</ele>
        <time>2024-05-10T12:50:31Z</time>
      </trkpt>
      <trkpt lat="43.04153" lon="2.84406">
        <ele>60.3</ele>
        <time>2024-05-10T12:50:32Z</time>
      </trkpt>
      <trkpt lat="43.04157" lon="2.8439">
        <ele>60.6</ele>
        <time>2024-05-10T12:50:33Z</time>
      </trkpt>
      <trkpt lat="43.04164" lon="2.84377">
        <ele>60.2</ele>
        <time>2024-05-10T12:50:34Z</time>
      </trkpt>
      <trkpt lat="43.04174" lon="2.84365">
        <ele>59.9</ele>
        <time>2024-05-10T12:50:35Z</time>
      </trkpt>
      <trkpt lat="43.04187" lon="2.84357">
        <ele>60.9</ele>
        <time>2024-05-10T12:50:36Z</time>
      </trkpt>
      <trkpt lat="43.042" lon="2.84349">
        <ele>61.2</ele>
        <time>2024-05-10T12:50:37Z</time>
      </trkpt>
      <trkpt lat="43.04215" lon="2.8434">
        <ele>60.3</ele>
        <time>2024-05-10T12:50:38Z</time>
      </trkpt>
      <trkpt lat="43.04231" lon="2.8433">
        <ele>60.2</ele>
        <time>2024-05-10T12:50:39Z</time>
      </trkpt>
      <trkpt lat="43.04246" lon="2.84317">
        <ele>60.4</ele>
        <time>2024-05-10T12:50:40Z</time>
      </trkpt>
      <trkpt lat="43.04262" lon="2.84305">
        <ele>60.7</ele>
        <time>2024-05-10T12:50:41Z</time>
      </trkpt>
      <trkpt lat="43.04277" lon="2.84293">
        <ele>61.7</ele>
        <time>2024-05-10T12:50:42Z</time>
      </trkpt>
      <trkpt lat="43.04291" lon="2.84281">
        <ele>59.7</ele>
        <time>2024-05-10T12:50:43Z</time>
      </trkpt>
      <trkpt lat="43.04305" lon="2.8427">
        <ele>59.1</ele>
        <time>2024-05-10T12:50:44Z</time>
      </trkpt>
      <trkpt lat="43.04317" lon="2.84257">
        <ele>58.8</ele>
        <time>2024-05-10T12:50:45Z</time>
      </trkpt>
      <trkpt lat="43.04327" lon="2.84241">
        <ele>57.9</ele>
        <time>2024-05-10T12:50:46Z</time>
      </trkpt>
      <trkpt lat="43.04336" lon="2.84222">
        <ele>57.3</ele>
        <time>2024-05-10T12:50:47Z</time>
      </trkpt>
      <trkpt lat="43.04344" lon="2.842">
        <ele>59.1</ele>
        <time>2024-05-10T12:50:48Z</time>
      </trkpt>
      <trkpt lat="43.04353" lon="2.84177">
        <ele>60.6</ele>
        <time>2024-05-10T12:50:49Z</time>
      </trkpt>
      <trkpt lat="43.04361" lon="2.84154">
        <ele>60.6</ele>
        <time>2024-05-10T12:50:50Z</time>
      </trkpt>
      <trkpt lat="43.04369" lon="2.84131">
        <ele>62.7</ele>
        <time>2024-05-10T12:50:51Z</time>
      </trkpt>
      <trkpt lat="43.04377" lon="2.84108">
        <ele>62.6</ele>
        <time>2024-05-10T12:50:52Z</time>
      </trkpt>
      <trkpt lat="43.04385" lon="2.84085">
        <ele>59.1</ele>
        <time>2024-05-10T12:50:53Z</time>
      </trkpt>
      <trkpt lat="43.04392" lon="2.84063">
        <ele>58.3</ele>
        <time>2024-05-10T12:50:54Z</time>
      </trkpt>
      <trkpt lat="43.04398" lon="2.84041">
        <ele>58.7</ele>
        <time>2024-05-10T12:50:55Z</time>
      </trkpt>
      <trkpt lat="43.04401" lon="2.84019">
        <ele>59.6</ele>
        <time>2024-05-10T12:50:56Z</time>
      </trkpt>
      <trkpt lat="43.044" lon="2.83996">
        <ele>60.3</ele>
        <time>2024-05-10T12:50:57Z</time>
      </trkpt>
      <trkpt lat="43.04396" lon="2.83975">
        <ele>60</ele>
        <time>2024-05-10T12:50:58Z</time>
      </trkpt>
      <trkpt lat="43.04389" lon="2.83956">
        <ele>60.2</ele>
        <time>2024-05-10T12:50:59Z</time>
      </trkpt>
      <trkpt lat="43.04381" lon="2.83938">
        <ele>60.3</ele>
        <time>2024-05-10T12:51:00Z</time>
      </trkpt>
      <trkpt lat="43.04373" lon="2.83921">
        <ele>61.2</ele>
        <time>2024-05-10T12:51:01Z</time>
      </trkpt>
      <trkpt lat="43.04367" lon="2.83904">
        <ele>61.5</ele>
        <time>2024-05-10T12:51:02Z</time>
      </trkpt>
      <trkpt lat="43.04364" lon="2.83887">
        <ele>61.2</ele>
        <time>2024-05-10T12:51:03Z</time>
      </trkpt>
      <trkpt lat="43.04364" lon="2.83872">
        <ele>61.3</ele>
        <time>2024-05-10T12:51:04Z</time>
      </trkpt>
      <trkpt lat="43.04366" lon="2.83857">
        <ele>62.2</ele>
        <time>2024-05-10T12:51:05Z</time>
      </trkpt>
      <trkpt lat="43.04371" lon="2.83842">
        <ele>63.6</ele>
        <time>2024-05-10T12:51:06Z</time>
      </trkpt>
      <trkpt lat="43.04376" lon="2.83825">
        <ele>63.9</ele>
        <time>2024-05-10T12:51:07Z</time>
      </trkpt>
      <trkpt lat="43.04381" lon="2.83808">
        <ele>63.7</ele>
        <time>2024-05-10T12:51:08Z</time>
      </trkpt>
      <trkpt lat="43.04386" lon="2.83789">
        <ele>63.5</ele>
        <time>2024-05-10T12:51:09Z</time>
      </trkpt>
      <trkpt lat="43.04389" lon="2.8377">
        <ele>62.5</ele>
        <time>2024-05-10T12:51:10Z</time>
      </trkpt>
      <trkpt lat="43.0439" lon="2.8375">
        <ele>61.3</ele>
        <time>2024-05-10T12:51:11Z</time>
      </trkpt>
      <trkpt lat="43.04389" lon="2.8373">
        <ele>62.5</ele>
        <time>2024-05-10T12:51:12Z</time>
      </trkpt>
      <trkpt lat="43.04384" lon="2.83711">
        <ele>63.1</ele>
        <time>2024-05-10T12:51:13Z</time>
      </trkpt>
      <trkpt lat="43.04376" lon="2.83694">
        <ele>63.2</ele>
        <time>2024-05-10T12:51:14Z</time>
      </trkpt>
      <trkpt lat="43.04367" lon="2.8368">
        <ele>63.1</ele>
        <time>2024-05-10T12:51:15Z</time>
      </trkpt>
      <trkpt lat="43.04357" lon="2.83667">
        <ele>62.5</ele>
        <time>2024-05-10T12:51:16Z</time>
      </trkpt>
      <trkpt lat="43.04345" lon="2.83655">
        <ele>63.1</ele>
        <time>2024-05-10T12:51:17Z</time>
      </trkpt>
      <trkpt lat="43.04332" lon="2.83644">
        <ele>63.2</ele>
        <time>2024-05-10T12:51:18Z</time>
      </trkpt>
      <trkpt lat="43.04318" lon="2.83633">
        <ele>64.1</ele>
        <time>2024-05-10T12:51:19Z</time>
      </trkpt>
      <trkpt lat="43.04306" lon="2.83621">
        <ele>65.3</ele>
        <time>2024-05-10T12:51:20Z</time>
      </trkpt>
      <trkpt lat="43.04294" lon="2.83608">
        <ele>65.3</ele>
        <time>2024-05-10T12:51:21Z</time>
      </trkpt>
      <trkpt lat="43.04286" lon="2.83592">
        <ele>66</ele>
        <time>2024-05-10T12:51:22Z</time>
      </trkpt>
      <trkpt lat="43.0428" lon="2.83574">
        <ele>65.3</ele>
        <time>2024-05-10T12:51:23Z</time>
      </trkpt>
      <trkpt lat="43.04275" lon="2.83556">
        <ele>65</ele>
        <time>2024-05-10T12:51:24Z</time>
      </trkpt>
      <trkpt lat="43.04268" lon="2.83537">
        <ele>65.2</ele>
        <time>2024-05-10T12:51:25Z</time>
      </trkpt>
      <trkpt lat="43.04259" lon="2.8352">
        <ele>66.6</ele>
        <time>2024-05-10T12:51:26Z</time>
      </trkpt>
      <trkpt lat="43.04248" lon="2.83507">
        <ele>67.2</ele>
        <time>2024-05-10T12:51:27Z</time>
      </trkpt>
      <trkpt lat="43.04234" lon="2.83495">
        <ele>66.9</ele>
        <time>2024-05-10T12:51:28Z</time>
      </trkpt>
      <trkpt lat="43.0422" lon="2.83485">
        <ele>68.4</ele>
        <time>2024-05-10T12:51:29Z</time>
      </trkpt>
      <trkpt lat="43.04205" lon="2.83475">
        <ele>67.4</ele>
        <time>2024-05-10T12:51:30Z</time>
      </trkpt>
      <trkpt lat="43.0419" lon="2.83465">
        <ele>65.7</ele>
        <time>2024-05-10T12:51:31Z</time>
      </trkpt>
      <trkpt lat="43.04176" lon="2.83455">
        <ele>65.7</ele>
        <time>2024-05-10T12:51:32Z</time>
      </trkpt>
      <trkpt lat="43.04162" lon="2.83446">
        <ele>64.5</ele>
        <time>2024-05-10T12:51:33Z</time>
      </trkpt>
      <trkpt lat="43.04149" lon="2.83437">
        <ele>63.4</ele>
        <time>2024-05-10T12:51:34Z</time>
      </trkpt>
      <trkpt lat="43.04138" lon="2.83429">
        <ele>61.5</ele>
        <time>2024-05-10T12:51:35Z</time>
      </trkpt>
      <trkpt lat="43.04128" lon="2.83421">
        <ele>63.7</ele>
        <time>2024-05-10T12:51:36Z</time>
      </trkpt>
      <trkpt lat="43.04119" lon="2.83415">
        <ele>65.1</ele>
        <time>2024-05-10T12:51:37Z</time>
      </trkpt>
      <trkpt lat="43.04113" lon="2.83409">
        <ele>66</ele>
        <time>2024-05-10T12:51:38Z</time>
      </trkpt>
      <trkpt lat="43.04108" lon="2.83405">
        <ele>66.2</ele>
        <time>2024-05-10T12:51:39Z</time>
      </trkpt>
      <trkpt lat="43.04104" lon="2.83401">
        <ele>66.6</ele>
        <time>2024-05-10T12:51:40Z</time>
      </trkpt>
      <trkpt lat="43.04101" lon="2.83399">
        <ele>66.6</ele>
        <time>2024-05-10T12:51:41Z</time>
      </trkpt>
      <trkpt lat="43.04099" lon="2.83398">
        <ele>66.6</ele>
        <time>2024-05-10T12:51:42Z</time>
      </trkpt>
      <trkpt lat="43.04098" lon="2.83397">
        <ele>66.6</ele>
        <time>2024-05-10T12:51:43Z</time>
      </trkpt>
      <trkpt lat="43.04098" lon="2.83397">
        <ele>66.6</ele>
        <time>2024-05-10T12:51:44Z</time>
      </trkpt>
      <trkpt lat="43.04098" lon="2.83397">
        <ele>66.6</ele>
        <time>2024-05-10T12:51:45Z</time>
      </trkpt>
      <trkpt lat="43.04098" lon="2.83397">
        <ele>66.6</ele>
        <time>2024-05-10T12:51:46Z</time>
      </trkpt>
      <trkpt lat="43.04098" lon="2.83396">
        <ele>66.8</ele>
        <time>2024-05-10T12:51:47Z</time>
      </trkpt>
      <trkpt lat="43.04098" lon="2.83396">
        <ele>66.8</ele>
        <time>2024-05-10T12:51:48Z</time>
      </trkpt>
      <trkpt lat="43.04098" lon="2.83395">
        <ele>67</ele>
        <time>2024-05-10T12:51:49Z</time>
      </trkpt>
      <trkpt lat="43.04098" lon="2.83395">
        <ele>67</ele>
        <time>2024-05-10T12:51:50Z</time>
      </trkpt>
      <trkpt lat="43.04098" lon="2.83395">
        <ele>67</ele>
        <time>2024-05-10T12:51:51Z</time>
      </trkpt>
      <trkpt lat="43.04097" lon="2.83392">
        <ele>67.4</ele>
        <time>2024-05-10T12:51:52Z</time>
      </trkpt>
      <trkpt lat="43.04094" lon="2.83386">
        <ele>68.2</ele>
        <time>2024-05-10T12:51:53Z</time>
      </trkpt>
      <trkpt lat="43.04089" lon="2.83376">
        <ele>68.6</ele>
        <time>2024-05-10T12:51:54Z</time>
      </trkpt>
      <trkpt lat="43.04084" lon="2.83364">
        <ele>67.3</ele>
        <time>2024-05-10T12:51:55Z</time>
      </trkpt>
      <trkpt lat="43.04079" lon="2.83351">
        <ele>69.2</ele>
        <time>2024-05-10T12:51:56Z</time>
      </trkpt>
      <trkpt lat="43.04073" lon="2.83335">
        <ele>71.4</ele>
        <time>2024-05-10T12:51:57Z</time>
      </trkpt>
      <trkpt lat="43.04067" lon="2.83318">
        <ele>71.7</ele>
        <time>2024-05-10T12:51:58Z</time>
      </trkpt>
      <trkpt lat="43.04061" lon="2.83303">
        <ele>70.1</ele>
        <time>2024-05-10T12:51:59Z</time>
      </trkpt>
      <trkpt lat="43.04055" lon="2.83286">
        <ele>67.6</ele>
        <time>2024-05-10T12:52:00Z</time>
      </trkpt>
      <trkpt lat="43.04049" lon="2.8327">
        <ele>69.1</ele>
        <time>2024-05-10T12:52:01Z</time>
      </trkpt>
      <trkpt lat="43.04044" lon="2.83255">
        <ele>70.9</ele>
        <time>2024-05-10T12:52:02Z</time>
      </trkpt>
      <trkpt lat="43.0404" lon="2.8324">
        <ele>69.2</ele>
        <time>2024-05-10T12:52:03Z</time>
      </trkpt>
      <trkpt lat="43.04039" lon="2.83224">
        <ele>68.5</ele>
        <time>2024-05-10T12:52:04Z</time>
      </trkpt>
      <trkpt lat="43.04042" lon="2.83208">
        <ele>68.6</ele>
        <time>2024-05-10T12:52:05Z</time>
      </trkpt>
      <trkpt lat="43.04049" lon="2.83193">
        <ele>69</ele>
        <time>2024-05-10T12:52:06Z</time>
      </trkpt>
      <trkpt lat="43.04056" lon="2.83178">
        <ele>69.9</ele>
        <time>2024-05-10T12:52:07Z</time>
      </trkpt>
      <trkpt lat="43.04073" lon="2.83165">
        <ele>72.5</ele>
        <time>2024-05-10T12:52:08Z</time>
      </trkpt>
      <trkpt lat="43.04088" lon="2.83152">
        <ele>73.6</ele>
        <time>2024-05-10T12:52:09Z</time>
      </trkpt>
      <trkpt lat="43.04104" lon="2.8314">
        <ele>73.4</ele>
        <time>2024-05-10T12:52:10Z</time>
      </trkpt>
      <trkpt lat="43.0412" lon="2.8313">
        <ele>74.2</ele>
        <time>2024-05-10T12:52:11Z</time>
      </trkpt>
      <trkpt lat="43.04137" lon="2.83122">
        <ele>75.7</ele>
        <time>2024-05-10T12:52:12Z</time>
      </trkpt>
      <trkpt lat="43.04155" lon="2.83114">
        <ele>75.3</ele>
        <time>2024-05-10T12:52:13Z</time>
      </trkpt>
      <trkpt lat="43.04172" lon="2.83105">
        <ele>75.6</ele>
        <time>2024-05-10T12:52:14Z</time>
      </trkpt>
      <trkpt lat="43.04187" lon="2.83092">
        <ele>77.1</ele>
        <time>2024-05-10T12:52:15Z</time>
      </trkpt>
      <trkpt lat="43.04201" lon="2.83077">
        <ele>77.5</ele>
        <time>2024-05-10T12:52:16Z</time>
      </trkpt>
      <trkpt lat="43.04215" lon="2.83061">
        <ele>78.9</ele>
        <time>2024-05-10T12:52:17Z</time>
      </trkpt>
      <trkpt lat="43.04228" lon="2.83045">
        <ele>79.9</ele>
        <time>2024-05-10T12:52:18Z</time>
      </trkpt>
      <trkpt lat="43.04239" lon="2.83032">
        <ele>82.1</ele>
        <time>2024-05-10T12:52:19Z</time>
      </trkpt>
      <trkpt lat="43.04248" lon="2.83019">
        <ele>83.7</ele>
        <time>2024-05-10T12:52:20Z</time>
      </trkpt>
      <trkpt lat="43.04253" lon="2.83005">
        <ele>80.7</ele>
        <time>2024-05-10T12:52:21Z</time>
      </trkpt>
      <trkpt lat="43.04256" lon="2.8299">
        <ele>80.6</ele>
        <time>2024-05-10T12:52:22Z</time>
      </trkpt>
      <trkpt lat="43.04255" lon="2.82973">
        <ele>81.7</ele>
        <time>2024-05-10T12:52:23Z</time>
      </trkpt>
      <trkpt lat="43.04252" lon="2.82954">
        <ele>81.4</ele>
        <time>2024-05-10T12:52:24Z</time>
      </trkpt>
      <trkpt lat="43.04247" lon="2.82936">
        <ele>81.5</ele>
        <time>2024-05-10T12:52:25Z</time>
      </trkpt>
      <trkpt lat="43.04243" lon="2.82918">
        <ele>83.3</ele>
        <time>2024-05-10T12:52:26Z</time>
      </trkpt>
      <trkpt lat="43.04242" lon="2.82901">
        <ele>84</ele>
        <time>2024-05-10T12:52:27Z</time>
      </trkpt>
      <trkpt lat="43.04244" lon="2.82885">
        <ele>84.9</ele>
        <time>2024-05-10T12:52:28Z</time>
      </trkpt>
      <trkpt lat="43.0425" lon="2.82871">
        <ele>84.4</ele>
        <time>2024-05-10T12:52:29Z</time>
      </trkpt>
      <trkpt lat="43.04259" lon="2.82858">
        <ele>85.4</ele>
        <time>2024-05-10T12:52:30Z</time>
      </trkpt>
      <trkpt lat="43.04269" lon="2.82847">
        <ele>85.2</ele>
        <time>2024-05-10T12:52:31Z</time>
      </trkpt>
      <trkpt lat="43.04282" lon="2.82844">
        <ele>85.2</ele>
        <time>2024-05-10T12:52:32Z</time>
      </trkpt>
      <trkpt lat="43.04295" lon="2.82844">
        <ele>85.2</ele>
        <time>2024-05-10T12:52:33Z</time>
      </trkpt>
      <trkpt lat="43.04309" lon="2.82844">
        <ele>85.9</ele>
        <time>2024-05-10T12:52:34Z</time>
      </trkpt>
      <trkpt lat="43.04323" lon="2.8284">
        <ele>86.8</ele>
        <time>2024-05-10T12:52:35Z</time>
      </trkpt>
      <trkpt lat="43.04337" lon="2.82829">
        <ele>85.7</ele>
        <time>2024-05-10T12:52:36Z</time>
      </trkpt>
      <trkpt lat="43.0435" lon="2.82813">
        <ele>86.6</ele>
        <time>2024-05-10T12:52:37Z</time>
      </trkpt>
      <trkpt lat="43.04362" lon="2.82793">
        <ele>86.3</ele>
        <time>2024-05-10T12:52:38Z</time>
      </trkpt>
      <trkpt lat="43.04373" lon="2.82772">
        <ele>86.4</ele>
        <time>2024-05-10T12:52:39Z</time>
      </trkpt>
      <trkpt lat="43.04383" lon="2.82751">
        <ele>86.4</ele>
        <time>2024-05-10T12:52:40Z</time>
      </trkpt>
      <trkpt lat="43.04394" lon="2.82732">
        <ele>87.7</ele>
        <time>2024-05-10T12:52:41Z</time>
      </trkpt>
      <trkpt lat="43.04406" lon="2.82712">
        <ele>87.9</ele>
        <time>2024-05-10T12:52:42Z</time>
      </trkpt>
      <trkpt lat="43.04419" lon="2.82695">
        <ele>87.2</ele>
        <time>2024-05-10T12:52:43Z</time>
      </trkpt>
      <trkpt lat="43.04435" lon="2.82682">
        <ele>88</ele>
        <time>2024-05-10T12:52:44Z</time>
      </trkpt>
      <trkpt lat="43.04451" lon="2.82669">
        <ele>88.8</ele>
        <time>2024-05-10T12:52:45Z</time>
      </trkpt>
      <trkpt lat="43.04468" lon="2.82655">
        <ele>89.7</ele>
        <time>2024-05-10T12:52:46Z</time>
      </trkpt>
      <trkpt lat="43.04484" lon="2.82638">
        <ele>90.6</ele>
        <time>2024-05-10T12:52:47Z</time>
      </trkpt>
      <trkpt lat="43.045" lon="2.8262">
        <ele>90.3</ele>
        <time>2024-05-10T12:52:48Z</time>
      </trkpt>
      <trkpt lat="43.04515" lon="2.82602">
        <ele>91.1</ele>
        <time>2024-05-10T12:52:49Z</time>
      </trkpt>
      <trkpt lat="43.04531" lon="2.82584">
        <ele>90.9</ele>
        <time>2024-05-10T12:52:50Z</time>
      </trkpt>
      <trkpt lat="43.04547" lon="2.82565">
        <ele>91.9</ele>
        <time>2024-05-10T12:52:51Z</time>
      </trkpt>
      <trkpt lat="43.04565" lon="2.82545">
        <ele>92</ele>
        <time>2024-05-10T12:52:52Z</time>
      </trkpt>
      <trkpt lat="43.04585" lon="2.82527">
        <ele>91.3</ele>
        <time>2024-05-10T12:52:53Z</time>
      </trkpt>
      <trkpt lat="43.04604" lon="2.8251">
        <ele>92.2</ele>
        <time>2024-05-10T12:52:54Z</time>
      </trkpt>
      <trkpt lat="43.04623" lon="2.82494">
        <ele>93.7</ele>
        <time>2024-05-10T12:52:55Z</time>
      </trkpt>
      <trkpt lat="43.04642" lon="2.82478">
        <ele>94.9</ele>
        <time>2024-05-10T12:52:56Z</time>
      </trkpt>
      <trkpt lat="43.04661" lon="2.82463">
        <ele>95.7</ele>
        <time>2024-05-10T12:52:57Z</time>
      </trkpt>
      <trkpt lat="43.0468" lon="2.82451">
        <ele>95.1</ele>
        <time>2024-05-10T12:52:58Z</time>
      </trkpt>
      <trkpt lat="43.04701" lon="2.82442">
        <ele>94.3</ele>
        <time>2024-05-10T12:52:59Z</time>
      </trkpt>
      <trkpt lat="43.04722" lon="2.82434">
        <ele>94.7</ele>
        <time>2024-05-10T12:53:00Z</time>
      </trkpt>
      <trkpt lat="43.04743" lon="2.82425">
        <ele>95.3</ele>
        <time>2024-05-10T12:53:01Z</time>
      </trkpt>
      <trkpt lat="43.04764" lon="2.82417">
        <ele>95.1</ele>
        <time>2024-05-10T12:53:02Z</time>
      </trkpt>
      <trkpt lat="43.04785" lon="2.82409">
        <ele>95.9</ele>
        <time>2024-05-10T12:53:03Z</time>
      </trkpt>
      <trkpt lat="43.04807" lon="2.82399">
        <ele>96.9</ele>
        <time>2024-05-10T12:53:04Z</time>
      </trkpt>
      <trkpt lat="43.04828" lon="2.82389">
        <ele>96.6</ele>
        <time>2024-05-10T12:53:05Z</time>
      </trkpt>
      <trkpt lat="43.04848" lon="2.82376">
        <ele>97.8</ele>
        <time>2024-05-10T12:53:06Z</time>
      </trkpt>
      <trkpt lat="43.04868" lon="2.82359">
        <ele>97.6</ele>
        <time>2024-05-10T12:53:07Z</time>
      </trkpt>
      <trkpt lat="43.04886" lon="2.8234">
        <ele>98.2</ele>
        <time>2024-05-10T12:53:08Z</time>
      </trkpt>
      <trkpt lat="43.04903" lon="2.8232">
        <ele>97.8</ele>
        <time>2024-05-10T12:53:09Z</time>
      </trkpt>
      <trkpt lat="43.0492" lon="2.82299">
        <ele>98.5</ele>
        <time>2024-05-10T12:53:10Z</time>
      </trkpt>
      <trkpt lat="43.04936" lon="2.82278">
        <ele>96.6</ele>
        <time>2024-05-10T12:53:11Z</time>
      </trkpt>
      <trkpt lat="43.04951" lon="2.82258">
        <ele>97.1</ele>
        <time>2024-05-10T12:53:12Z</time>
      </trkpt>
      <trkpt lat="43.04966" lon="2.82235">
        <ele>97.9</ele>
        <time>2024-05-10T12:53:13Z</time>
      </trkpt>
      <trkpt lat="43.04979" lon="2.82211">
        <ele>99.1</ele>
        <time>2024-05-10T12:53:14Z</time>
      </trkpt>
      <trkpt lat="43.04991" lon="2.82185">
        <ele>100.3</ele>
        <time>2024-05-10T12:53:15Z</time>
      </trkpt>
      <trkpt lat="43.05003" lon="2.8216">
        <ele>100</ele>
        <time>2024-05-10T12:53:16Z</time>
      </trkpt>
      <trkpt lat="43.05016" lon="2.82136">
        <ele>101</ele>
        <time>2024-05-10T12:53:17Z</time>
      </trkpt>
      <trkpt lat="43.05028" lon="2.82113">
        <ele>99.9</ele>
        <time>2024-05-10T12:53:18Z</time>
      </trkpt>
      <trkpt lat="43.05042" lon="2.82091">
        <ele>102.5</ele>
        <time>2024-05-10T12:53:19Z</time>
      </trkpt>
      <trkpt lat="43.05058" lon="2.82072">
        <ele>102.4</ele>
        <time>2024-05-10T12:53:20Z</time>
      </trkpt>
      <trkpt lat="43.05075" lon="2.82055">
        <ele>103.3</ele>
        <time>2024-05-10T12:53:21Z</time>
      </trkpt>
      <trkpt lat="43.05093" lon="2.82042">
        <ele>103.9</ele>
        <time>2024-05-10T12:53:22Z</time>
      </trkpt>
      <trkpt lat="43.0511" lon="2.82027">
        <ele>104.2</ele>
        <time>2024-05-10T12:53:23Z</time>
      </trkpt>
      <trkpt lat="43.05127" lon="2.82011">
        <ele>104.6</ele>
        <time>2024-05-10T12:53:24Z</time>
      </trkpt>
      <trkpt lat="43.05143" lon="2.81993">
        <ele>105.1</ele>
        <time>2024-05-10T12:53:25Z</time>
      </trkpt>
      <trkpt lat="43.05157" lon="2.81973">
        <ele>105.6</ele>
        <time>2024-05-10T12:53:26Z</time>
      </trkpt>
      <trkpt lat="43.05171" lon="2.81952">
        <ele>106</ele>
        <time>2024-05-10T12:53:27Z</time>
      </trkpt>
      <trkpt lat="43.05185" lon="2.81931">
        <ele>106.3</ele>
        <time>2024-05-10T12:53:28Z</time>
      </trkpt>
      <trkpt lat="43.05198" lon="2.81909">
        <ele>107.4</ele>
        <time>2024-05-10T12:53:29Z</time>
      </trkpt>
      <trkpt lat="43.05213" lon="2.81887">
        <ele>108.8</ele>
        <time>2024-05-10T12:53:30Z</time>
      </trkpt>
      <trkpt lat="43.05227" lon="2.81864">
        <ele>108.7</ele>
        <time>2024-05-10T12:53:31Z</time>
      </trkpt>
      <trkpt lat="43.05242" lon="2.8184">
        <ele>108.7</ele>
        <time>2024-05-10T12:53:32Z</time>
      </trkpt>
      <trkpt lat="43.05256" lon="2.81817">
        <ele>108.9</ele>
        <time>2024-05-10T12:53:33Z</time>
      </trkpt>
      <trkpt lat="43.0527" lon="2.81794">
        <ele>109</ele>
        <time>2024-05-10T12:53:34Z</time>
      </trkpt>
      <trkpt lat="43.05284" lon="2.81771">
        <ele>109.2</ele>
        <time>2024-05-10T12:53:35Z</time>
      </trkpt>
      <trkpt lat="43.05297" lon="2.8175">
        <ele>109.6</ele>
        <time>2024-05-10T12:53:36Z</time>
      </trkpt>
      <trkpt lat="43.05311" lon="2.81729">
        <ele>110.4</ele>
        <time>2024-05-10T12:53:37Z</time>
      </trkpt>
      <trkpt lat="43.05323" lon="2.81708">
        <ele>111.4</ele>
        <time>2024-05-10T12:53:38Z</time>
      </trkpt>
      <trkpt lat="43.05336" lon="2.81687">
        <ele>112.3</ele>
        <time>2024-05-10T12:53:39Z</time>
      </trkpt>
      <trkpt lat="43.05347" lon="2.81668">
        <ele>113</ele>
        <time>2024-05-10T12:53:40Z</time>
      </trkpt>
      <trkpt lat="43.05359" lon="2.81649">
        <ele>113.7</ele>
        <time>2024-05-10T12:53:41Z</time>
      </trkpt>
      <trkpt lat="43.05372" lon="2.81634">
        <ele>114</ele>
        <time>2024-05-10T12:53:42Z</time>
      </trkpt>
      <trkpt lat="43.05386" lon="2.81623">
        <ele>114.2</ele>
        <time>2024-05-10T12:53:43Z</time>
      </trkpt>
      <trkpt lat="43.05402" lon="2.81619">
        <ele>112.7</ele>
        <time>2024-05-10T12:53:44Z</time>
      </trkpt>
      <trkpt lat="43.05419" lon="2.81618">
        <ele>111</ele>
        <time>2024-05-10T12:53:45Z</time>
      </trkpt>
      <trkpt lat="43.05437" lon="2.8162">
        <ele>113.1</ele>
        <time>2024-05-10T12:53:46Z</time>
      </trkpt>
      <trkpt lat="43.05456" lon="2.81622">
        <ele>115.4</ele>
        <time>2024-05-10T12:53:47Z</time>
      </trkpt>
      <trkpt lat="43.05475" lon="2.81622">
        <ele>117.4</ele>
        <time>2024-05-10T12:53:48Z</time>
      </trkpt>
      <trkpt lat="43.05495" lon="2.81618">
        <ele>117.7</ele>
        <time>2024-05-10T12:53:49Z</time>
      </trkpt>
      <trkpt lat="43.05515" lon="2.8161">
        <ele>118.1</ele>
        <time>2024-05-10T12:53:50Z</time>
      </trkpt>
      <trkpt lat="43.05534" lon="2.81599">
        <ele>118.8</ele>
        <time>2024-05-10T12:53:51Z</time>
      </trkpt>
      <trkpt lat="43.05555" lon="2.81587">
        <ele>118.9</ele>
        <time>2024-05-10T12:53:52Z</time>
      </trkpt>
      <trkpt lat="43.05576" lon="2.81575">
        <ele>119.8</ele>
        <time>2024-05-10T12:53:53Z</time>
      </trkpt>
      <trkpt lat="43.05597" lon="2.81563">
        <ele>120.1</ele>
        <time>2024-05-10T12:53:54Z</time>
      </trkpt>
      <trkpt lat="43.05619" lon="2.81551">
        <ele>120.6</ele>
        <time>2024-05-10T12:53:55Z</time>
      </trkpt>
      <trkpt lat="43.0564" lon="2.8154">
        <ele>121.7</ele>
        <time>2024-05-10T12:53:56Z</time>
      </trkpt>
      <trkpt lat="43.05661" lon="2.81529">
        <ele>122.1</ele>
        <time>2024-05-10T12:53:57Z</time>
      </trkpt>
      <trkpt lat="43.05683" lon="2.8152">
        <ele>122.8</ele>
        <time>2024-05-10T12:53:58Z</time>
      </trkpt>
      <trkpt lat="43.05706" lon="2.81511">
        <ele>123.2</ele>
        <time>2024-05-10T12:53:59Z</time>
      </trkpt>
      <trkpt lat="43.05728" lon="2.81503">
        <ele>123.6</ele>
        <time>2024-05-10T12:54:00Z</time>
      </trkpt>
      <trkpt lat="43.0575" lon="2.81495">
        <ele>123.9</ele>
        <time>2024-05-10T12:54:01Z</time>
      </trkpt>
      <trkpt lat="43.05771" lon="2.81488">
        <ele>124.5</ele>
        <time>2024-05-10T12:54:02Z</time>
      </trkpt>
      <trkpt lat="43.05791" lon="2.8148">
        <ele>124.8</ele>
        <time>2024-05-10T12:54:03Z</time>
      </trkpt>
      <trkpt lat="43.05811" lon="2.81473">
        <ele>124.9</ele>
        <time>2024-05-10T12:54:04Z</time>
      </trkpt>
      <trkpt lat="43.0583" lon="2.81468">
        <ele>125.5</ele>
        <time>2024-05-10T12:54:05Z</time>
      </trkpt>
      <trkpt lat="43.05848" lon="2.81466">
        <ele>125.4</ele>
        <time>2024-05-10T12:54:06Z</time>
      </trkpt>
      <trkpt lat="43.05864" lon="2.8147">
        <ele>125.2</ele>
        <time>2024-05-10T12:54:07Z</time>
      </trkpt>
      <trkpt lat="43.05878" lon="2.81479">
        <ele>125.4</ele>
        <time>2024-05-10T12:54:08Z</time>
      </trkpt>
      <trkpt lat="43.05892" lon="2.81492">
        <ele>125.5</ele>
        <time>2024-05-10T12:54:09Z</time>
      </trkpt>
      <trkpt lat="43.05904" lon="2.81507">
        <ele>126.8</ele>
        <time>2024-05-10T12:54:10Z</time>
      </trkpt>
      <trkpt lat="43.05919" lon="2.81523">
        <ele>125.6</ele>
        <time>2024-05-10T12:54:11Z</time>
      </trkpt>
      <trkpt lat="43.05934" lon="2.81536">
        <ele>125</ele>
        <time>2024-05-10T12:54:12Z</time>
      </trkpt>
      <trkpt lat="43.05951" lon="2.81546">
        <ele>123.9</ele>
        <time>2024-05-10T12:54:13Z</time>
      </trkpt>
      <trkpt lat="43.0597" lon="2.81553">
        <ele>123.1</ele>
        <time>2024-05-10T12:54:14Z</time>
      </trkpt>
      <trkpt lat="43.05991" lon="2.81559">
        <ele>123.6</ele>
        <time>2024-05-10T12:54:15Z</time>
      </trkpt>
      <trkpt lat="43.06013" lon="2.81566">
        <ele>123.7</ele>
        <time>2024-05-10T12:54:16Z</time>
      </trkpt>
      <trkpt lat="43.06035" lon="2.81573">
        <ele>123.5</ele>
        <time>2024-05-10T12:54:17Z</time>
      </trkpt>
      <trkpt lat="43.06058" lon="2.8158">
        <ele>122.9</ele>
        <time>2024-05-10T12:54:18Z</time>
      </trkpt>
      <trkpt lat="43.0608" lon="2.81587">
        <ele>122.1</ele>
        <time>2024-05-10T12:54:19Z</time>
      </trkpt>
      <trkpt lat="43.06103" lon="2.81594">
        <ele>121.7</ele>
        <time>2024-05-10T12:54:20Z</time>
      </trkpt>
      <trkpt lat="43.06124" lon="2.816">
        <ele>121.2</ele>
        <time>2024-05-10T12:54:21Z</time>
      </trkpt>
      <trkpt lat="43.06145" lon="2.81607">
        <ele>121</ele>
        <time>2024-05-10T12:54:22Z</time>
      </trkpt>
      <trkpt lat="43.06165" lon="2.81613">
        <ele>121</ele>
        <time>2024-05-10T12:54:23Z</time>
      </trkpt>
      <trkpt lat="43.06185" lon="2.81616">
        <ele>121</ele>
        <time>2024-05-10T12:54:24Z</time>
      </trkpt>
      <trkpt lat="43.06205" lon="2.81617">
        <ele>120.6</ele>
        <time>2024-05-10T12:54:25Z</time>
      </trkpt>
      <trkpt lat="43.06227" lon="2.81614">
        <ele>120</ele>
        <time>2024-05-10T12:54:26Z</time>
      </trkpt>
      <trkpt lat="43.06248" lon="2.81608">
        <ele>120</ele>
        <time>2024-05-10T12:54:27Z</time>
      </trkpt>
      <trkpt lat="43.06271" lon="2.81599">
        <ele>120</ele>
        <time>2024-05-10T12:54:28Z</time>
      </trkpt>
      <trkpt lat="43.06294" lon="2.81591">
        <ele>119.6</ele>
        <time>2024-05-10T12:54:29Z</time>
      </trkpt>
      <trkpt lat="43.06317" lon="2.81582">
        <ele>119</ele>
        <time>2024-05-10T12:54:30Z</time>
      </trkpt>
      <trkpt lat="43.06341" lon="2.81571">
        <ele>119</ele>
        <time>2024-05-10T12:54:31Z</time>
      </trkpt>
      <trkpt lat="43.06365" lon="2.81557">
        <ele>118.9</ele>
        <time>2024-05-10T12:54:32Z</time>
      </trkpt>
      <trkpt lat="43.06389" lon="2.81541">
        <ele>118</ele>
        <time>2024-05-10T12:54:33Z</time>
      </trkpt>
      <trkpt lat="43.06414" lon="2.81525">
        <ele>117.9</ele>
        <time>2024-05-10T12:54:34Z</time>
      </trkpt>
      <trkpt lat="43.0644" lon="2.81508">
        <ele>117</ele>
        <time>2024-05-10T12:54:35Z</time>
      </trkpt>
      <trkpt lat="43.06465" lon="2.81491">
        <ele>117</ele>
        <time>2024-05-10T12:54:36Z</time>
      </trkpt>
      <trkpt lat="43.06491" lon="2.81473">
        <ele>117</ele>
        <time>2024-05-10T12:54:37Z</time>
      </trkpt>
      <trkpt lat="43.06516" lon="2.81456">
        <ele>116.8</ele>
        <time>2024-05-10T12:54:38Z</time>
      </trkpt>
      <trkpt lat="43.06542" lon="2.81438">
        <ele>116.6</ele>
        <time>2024-05-10T12:54:39Z</time>
      </trkpt>
      <trkpt lat="43.06567" lon="2.81422">
        <ele>116.8</ele>
        <time>2024-05-10T12:54:40Z</time>
      </trkpt>
      <trkpt lat="43.06592" lon="2.81405">
        <ele>116.8</ele>
        <time>2024-05-10T12:54:41Z</time>
      </trkpt>
      <trkpt lat="43.06617" lon="2.81388">
        <ele>116.9</ele>
        <time>2024-05-10T12:54:42Z</time>
      </trkpt>
      <trkpt lat="43.06641" lon="2.81371">
        <ele>117.2</ele>
        <time>2024-05-10T12:54:43Z</time>
      </trkpt>
      <trkpt lat="43.06667" lon="2.81354">
        <ele>116.8</ele>
        <time>2024-05-10T12:54:44Z</time>
      </trkpt>
      <trkpt lat="43.06692" lon="2.81337">
        <ele>117</ele>
        <time>2024-05-10T12:54:45Z</time>
      </trkpt>
      <trkpt lat="43.06717" lon="2.8132">
        <ele>117.4</ele>
        <time>2024-05-10T12:54:46Z</time>
      </trkpt>
      <trkpt lat="43.06741" lon="2.81303">
        <ele>117.7</ele>
        <time>2024-05-10T12:54:47Z</time>
      </trkpt>
      <trkpt lat="43.06765" lon="2.81287">
        <ele>117.7</ele>
        <time>2024-05-10T12:54:48Z</time>
      </trkpt>
      <trkpt lat="43.06789" lon="2.81271">
        <ele>118</ele>
        <time>2024-05-10T12:54:49Z</time>
      </trkpt>
      <trkpt lat="43.06812" lon="2.81255">
        <ele>117.8</ele>
        <time>2024-05-10T12:54:50Z</time>
      </trkpt>
      <trkpt lat="43.06833" lon="2.81241">
        <ele>118.7</ele>
        <time>2024-05-10T12:54:51Z</time>
      </trkpt>
      <trkpt lat="43.06855" lon="2.81227">
        <ele>118.9</ele>
        <time>2024-05-10T12:54:52Z</time>
      </trkpt>
      <trkpt lat="43.06875" lon="2.81214">
        <ele>119.9</ele>
        <time>2024-05-10T12:54:53Z</time>
      </trkpt>
      <trkpt lat="43.06892" lon="2.812">
        <ele>120.1</ele>
        <time>2024-05-10T12:54:54Z</time>
      </trkpt>
      <trkpt lat="43.06907" lon="2.81185">
        <ele>120.4</ele>
        <time>2024-05-10T12:54:55Z</time>
      </trkpt>
      <trkpt lat="43.06917" lon="2.81166">
        <ele>119</ele>
        <time>2024-05-10T12:54:56Z</time>
      </trkpt>
      <trkpt lat="43.06924" lon="2.81146">
        <ele>118.7</ele>
        <time>2024-05-10T12:54:57Z</time>
      </trkpt>
      <trkpt lat="43.06929" lon="2.81122">
        <ele>118.3</ele>
        <time>2024-05-10T12:54:58Z</time>
      </trkpt>
      <trkpt lat="43.06933" lon="2.81098">
        <ele>117.8</ele>
        <time>2024-05-10T12:54:59Z</time>
      </trkpt>
      <trkpt lat="43.06936" lon="2.81073">
        <ele>117.8</ele>
        <time>2024-05-10T12:55:00Z</time>
      </trkpt>
      <trkpt lat="43.0694" lon="2.81047">
        <ele>118.3</ele>
        <time>2024-05-10T12:55:01Z</time>
      </trkpt>
      <trkpt lat="43.06944" lon="2.81023">
        <ele>118.8</ele>
        <time>2024-05-10T12:55:02Z</time>
      </trkpt>
      <trkpt lat="43.06949" lon="2.81001">
        <ele>118</ele>
        <time>2024-05-10T12:55:03Z</time>
      </trkpt>
      <trkpt lat="43.06957" lon="2.80981">
        <ele>118.4</ele>
        <time>2024-05-10T12:55:04Z</time>
      </trkpt>
      <trkpt lat="43.06967" lon="2.80963">
        <ele>118.3</ele>
        <time>2024-05-10T12:55:05Z</time>
      </trkpt>
      <trkpt lat="43.0698" lon="2.80946">
        <ele>117.7</ele>
        <time>2024-05-10T12:55:06Z</time>
      </trkpt>
      <trkpt lat="43.06995" lon="2.80931">
        <ele>117.8</ele>
        <time>2024-05-10T12:55:07Z</time>
      </trkpt>
      <trkpt lat="43.07014" lon="2.80916">
        <ele>117</ele>
        <time>2024-05-10T12:55:08Z</time>
      </trkpt>
      <trkpt lat="43.07035" lon="2.809">
        <ele>115.8</ele>
        <time>2024-05-10T12:55:09Z</time>
      </trkpt>
      <trkpt lat="43.07058" lon="2.80883">
        <ele>114.1</ele>
        <time>2024-05-10T12:55:10Z</time>
      </trkpt>
      <trkpt lat="43.07084" lon="2.80864">
        <ele>113.9</ele>
        <time>2024-05-10T12:55:11Z</time>
      </trkpt>
      <trkpt lat="43.07111" lon="2.80843">
        <ele>113.7</ele>
        <time>2024-05-10T12:55:12Z</time>
      </trkpt>
      <trkpt lat="43.07141" lon="2.80821">
        <ele>112.9</ele>
        <time>2024-05-10T12:55:13Z</time>
      </trkpt>
      <trkpt lat="43.07171" lon="2.80799">
        <ele>112.1</ele>
        <time>2024-05-10T12:55:14Z</time>
      </trkpt>
      <trkpt lat="43.07202" lon="2.80776">
        <ele>111.7</ele>
        <time>2024-05-10T12:55:15Z</time>
      </trkpt>
      <trkpt lat="43.07233" lon="2.80753">
        <ele>111.2</ele>
        <time>2024-05-10T12:55:16Z</time>
      </trkpt>
      <trkpt lat="43.07264" lon="2.8073">
        <ele>110.2</ele>
        <time>2024-05-10T12:55:17Z</time>
      </trkpt>
      <trkpt lat="43.07297" lon="2.80705">
        <ele>109.9</ele>
        <time>2024-05-10T12:55:18Z</time>
      </trkpt>
      <trkpt lat="43.07331" lon="2.8068">
        <ele>109.6</ele>
        <time>2024-05-10T12:55:19Z</time>
      </trkpt>
      <trkpt lat="43.07367" lon="2.80654">
        <ele>109.8</ele>
        <time>2024-05-10T12:55:20Z</time>
      </trkpt>
      <trkpt lat="43.07405" lon="2.80627">
        <ele>109.8</ele>
        <time>2024-05-10T12:55:21Z</time>
      </trkpt>
      <trkpt lat="43.07443" lon="2.80599">
        <ele>109.9</ele>
        <time>2024-05-10T12:55:22Z</time>
      </trkpt>
      <trkpt lat="43.0748" lon="2.80571">
        <ele>110.6</ele>
        <time>2024-05-10T12:55:23Z</time>
      </trkpt>
      <trkpt lat="43.07518" lon="2.80542">
        <ele>112</ele>
        <time>2024-05-10T12:55:24Z</time>
      </trkpt>
      <trkpt lat="43.07555" lon="2.80514">
        <ele>112.5</ele>
        <time>2024-05-10T12:55:25Z</time>
      </trkpt>
      <trkpt lat="43.07589" lon="2.80486">
        <ele>113.9</ele>
        <time>2024-05-10T12:55:26Z</time>
      </trkpt>
      <trkpt lat="43.07623" lon="2.8046">
        <ele>114.3</ele>
        <time>2024-05-10T12:55:27Z</time>
      </trkpt>
      <trkpt lat="43.07654" lon="2.80435">
        <ele>114.6</ele>
        <time>2024-05-10T12:55:28Z</time>
      </trkpt>
      <trkpt lat="43.07684" lon="2.80412">
        <ele>114.3</ele>
        <time>2024-05-10T12:55:29Z</time>
      </trkpt>
      <trkpt lat="43.07713" lon="2.8039">
        <ele>114.6</ele>
        <time>2024-05-10T12:55:30Z</time>
      </trkpt>
      <trkpt lat="43.0774" lon="2.80369">
        <ele>115.7</ele>
        <time>2024-05-10T12:55:31Z</time>
      </trkpt>
      <trkpt lat="43.07766" lon="2.80348">
        <ele>116.4</ele>
        <time>2024-05-10T12:55:32Z</time>
      </trkpt>
      <trkpt lat="43.07791" lon="2.80329">
        <ele>117.3</ele>
        <time>2024-05-10T12:55:33Z</time>
      </trkpt>
      <trkpt lat="43.07815" lon="2.8031">
        <ele>118.8</ele>
        <time>2024-05-10T12:55:34Z</time>
      </trkpt>
      <trkpt lat="43.07837" lon="2.80292">
        <ele>119.7</ele>
        <time>2024-05-10T12:55:35Z</time>
      </trkpt>
      <trkpt lat="43.07859" lon="2.80274">
        <ele>120</ele>
        <time>2024-05-10T12:55:36Z</time>
      </trkpt>
      <trkpt lat="43.0788" lon="2.80256">
        <ele>120</ele>
        <time>2024-05-10T12:55:37Z</time>
      </trkpt>
      <trkpt lat="43.079" lon="2.8024">
        <ele>119.6</ele>
        <time>2024-05-10T12:55:38Z</time>
      </trkpt>
      <trkpt lat="43.07919" lon="2.80226">
        <ele>119</ele>
        <time>2024-05-10T12:55:39Z</time>
      </trkpt>
      <trkpt lat="43.07937" lon="2.80212">
        <ele>118.7</ele>
        <time>2024-05-10T12:55:40Z</time>
      </trkpt>
      <trkpt lat="43.07955" lon="2.80197">
        <ele>118.1</ele>
        <time>2024-05-10T12:55:41Z</time>
      </trkpt>
      <trkpt lat="43.07972" lon="2.80182">
        <ele>118</ele>
        <time>2024-05-10T12:55:42Z</time>
      </trkpt>
      <trkpt lat="43.07989" lon="2.80167">
        <ele>117.4</ele>
        <time>2024-05-10T12:55:43Z</time>
      </trkpt>
      <trkpt lat="43.08007" lon="2.80153">
        <ele>116.7</ele>
        <time>2024-05-10T12:55:44Z</time>
      </trkpt>
      <trkpt lat="43.08026" lon="2.80138">
        <ele>116</ele>
        <time>2024-05-10T12:55:45Z</time>
      </trkpt>
      <trkpt lat="43.08045" lon="2.80123">
        <ele>115.4</ele>
        <time>2024-05-10T12:55:46Z</time>
      </trkpt>
      <trkpt lat="43.08064" lon="2.80108">
        <ele>114.6</ele>
        <time>2024-05-10T12:55:47Z</time>
      </trkpt>
      <trkpt lat="43.08083" lon="2.80092">
        <ele>114</ele>
        <time>2024-05-10T12:55:48Z</time>
      </trkpt>
      <trkpt lat="43.08103" lon="2.80077">
        <ele>114</ele>
        <time>2024-05-10T12:55:49Z</time>
      </trkpt>
      <trkpt lat="43.08123" lon="2.80061">
        <ele>113.6</ele>
        <time>2024-05-10T12:55:50Z</time>
      </trkpt>
      <trkpt lat="43.08142" lon="2.80045">
        <ele>113</ele>
        <time>2024-05-10T12:55:51Z</time>
      </trkpt>
      <trkpt lat="43.08162" lon="2.80029">
        <ele>113</ele>
        <time>2024-05-10T12:55:52Z</time>
      </trkpt>
      <trkpt lat="43.0818" lon="2.80014">
        <ele>112.8</ele>
        <time>2024-05-10T12:55:53Z</time>
      </trkpt>
      <trkpt lat="43.08199" lon="2.79999">
        <ele>112.8</ele>
        <time>2024-05-10T12:55:54Z</time>
      </trkpt>
      <trkpt lat="43.08215" lon="2.79983">
        <ele>112.3</ele>
        <time>2024-05-10T12:55:55Z</time>
      </trkpt>
      <trkpt lat="43.08232" lon="2.79967">
        <ele>111.8</ele>
        <time>2024-05-10T12:55:56Z</time>
      </trkpt>
      <trkpt lat="43.08248" lon="2.79948">
        <ele>111.9</ele>
        <time>2024-05-10T12:55:57Z</time>
      </trkpt>
      <trkpt lat="43.08263" lon="2.79928">
        <ele>112.6</ele>
        <time>2024-05-10T12:55:58Z</time>
      </trkpt>
      <trkpt lat="43.08278" lon="2.79906">
        <ele>111.7</ele>
        <time>2024-05-10T12:55:59Z</time>
      </trkpt>
      <trkpt lat="43.08291" lon="2.79884">
        <ele>111.5</ele>
        <time>2024-05-10T12:56:00Z</time>
      </trkpt>
      <trkpt lat="43.08303" lon="2.79859">
        <ele>110.3</ele>
        <time>2024-05-10T12:56:01Z</time>
      </trkpt>
      <trkpt lat="43.08315" lon="2.79835">
        <ele>109.9</ele>
        <time>2024-05-10T12:56:02Z</time>
      </trkpt>
      <trkpt lat="43.08327" lon="2.79809">
        <ele>109.6</ele>
        <time>2024-05-10T12:56:03Z</time>
      </trkpt>
      <trkpt lat="43.08339" lon="2.79783">
        <ele>110.1</ele>
        <time>2024-05-10T12:56:04Z</time>
      </trkpt>
      <trkpt lat="43.08352" lon="2.79757">
        <ele>109</ele>
        <time>2024-05-10T12:56:05Z</time>
      </trkpt>
      <trkpt lat="43.08365" lon="2.79731">
        <ele>109.2</ele>
        <time>2024-05-10T12:56:06Z</time>
      </trkpt>
      <trkpt lat="43.0838" lon="2.79706">
        <ele>109</ele>
        <time>2024-05-10T12:56:07Z</time>
      </trkpt>
      <trkpt lat="43.08396" lon="2.79683">
        <ele>109.3</ele>
        <time>2024-05-10T12:56:08Z</time>
      </trkpt>
      <trkpt lat="43.08413" lon="2.7966">
        <ele>110</ele>
        <time>2024-05-10T12:56:09Z</time>
      </trkpt>
      <trkpt lat="43.0843" lon="2.79637">
        <ele>110</ele>
        <time>2024-05-10T12:56:10Z</time>
      </trkpt>
      <trkpt lat="43.08446" lon="2.79614">
        <ele>109.9</ele>
        <time>2024-05-10T12:56:11Z</time>
      </trkpt>
      <trkpt lat="43.08464" lon="2.7959">
        <ele>109.3</ele>
        <time>2024-05-10T12:56:12Z</time>
      </trkpt>
      <trkpt lat="43.08482" lon="2.79566">
        <ele>108.9</ele>
        <time>2024-05-10T12:56:13Z</time>
      </trkpt>
      <trkpt lat="43.08499" lon="2.79541">
        <ele>109</ele>
        <time>2024-05-10T12:56:14Z</time>
      </trkpt>
      <trkpt lat="43.08517" lon="2.79517">
        <ele>108.6</ele>
        <time>2024-05-10T12:56:15Z</time>
      </trkpt>
      <trkpt lat="43.08534" lon="2.79494">
        <ele>109</ele>
        <time>2024-05-10T12:56:16Z</time>
      </trkpt>
      <trkpt lat="43.08551" lon="2.7947">
        <ele>109.1</ele>
        <time>2024-05-10T12:56:17Z</time>
      </trkpt>
      <trkpt lat="43.08569" lon="2.79446">
        <ele>109.5</ele>
        <time>2024-05-10T12:56:18Z</time>
      </trkpt>
      <trkpt lat="43.08587" lon="2.79422">
        <ele>109</ele>
        <time>2024-05-10T12:56:19Z</time>
      </trkpt>
      <trkpt lat="43.08604" lon="2.79398">
        <ele>109.2</ele>
        <time>2024-05-10T12:56:20Z</time>
      </trkpt>
      <trkpt lat="43.08623" lon="2.79373">
        <ele>109</ele>
        <time>2024-05-10T12:56:21Z</time>
      </trkpt>
      <trkpt lat="43.08641" lon="2.79348">
        <ele>109</ele>
        <time>2024-05-10T12:56:22Z</time>
      </trkpt>
      <trkpt lat="43.08659" lon="2.79323">
        <ele>109</ele>
        <time>2024-05-10T12:56:23Z</time>
      </trkpt>
      <trkpt lat="43.08677" lon="2.79298">
        <ele>108.6</ele>
        <time>2024-05-10T12:56:24Z</time>
      </trkpt>
      <trkpt lat="43.08695" lon="2.79273">
        <ele>108</ele>
        <time>2024-05-10T12:56:25Z</time>
      </trkpt>
      <trkpt lat="43.08712" lon="2.79248">
        <ele>107.4</ele>
        <time>2024-05-10T12:56:26Z</time>
      </trkpt>
      <trkpt lat="43.08729" lon="2.79226">
        <ele>107.7</ele>
        <time>2024-05-10T12:56:27Z</time>
      </trkpt>
      <trkpt lat="43.08746" lon="2.79203">
        <ele>107</ele>
        <time>2024-05-10T12:56:28Z</time>
      </trkpt>
      <trkpt lat="43.08762" lon="2.7918">
        <ele>106.3</ele>
        <time>2024-05-10T12:56:29Z</time>
      </trkpt>
      <trkpt lat="43.08779" lon="2.79157">
        <ele>106</ele>
        <time>2024-05-10T12:56:30Z</time>
      </trkpt>
      <trkpt lat="43.08796" lon="2.79134">
        <ele>105.3</ele>
        <time>2024-05-10T12:56:31Z</time>
      </trkpt>
      <trkpt lat="43.08813" lon="2.79111">
        <ele>105</ele>
        <time>2024-05-10T12:56:32Z</time>
      </trkpt>
      <trkpt lat="43.08829" lon="2.79088">
        <ele>104.3</ele>
        <time>2024-05-10T12:56:33Z</time>
      </trkpt>
      <trkpt lat="43.08846" lon="2.79066">
        <ele>104.2</ele>
        <time>2024-05-10T12:56:34Z</time>
      </trkpt>
      <trkpt lat="43.08862" lon="2.79043">
        <ele>103.5</ele>
        <time>2024-05-10T12:56:35Z</time>
      </trkpt>
      <trkpt lat="43.08879" lon="2.79021">
        <ele>102.1</ele>
        <time>2024-05-10T12:56:36Z</time>
      </trkpt>
      <trkpt lat="43.08897" lon="2.79001">
        <ele>100.7</ele>
        <time>2024-05-10T12:56:37Z</time>
      </trkpt>
      <trkpt lat="43.08916" lon="2.78981">
        <ele>100</ele>
        <time>2024-05-10T12:56:38Z</time>
      </trkpt>
      <trkpt lat="43.08934" lon="2.78961">
        <ele>99.1</ele>
        <time>2024-05-10T12:56:39Z</time>
      </trkpt>
      <trkpt lat="43.08953" lon="2.7894">
        <ele>98.6</ele>
        <time>2024-05-10T12:56:40Z</time>
      </trkpt>
      <trkpt lat="43.08972" lon="2.7892">
        <ele>98</ele>
        <time>2024-05-10T12:56:41Z</time>
      </trkpt>
      <trkpt lat="43.08992" lon="2.789">
        <ele>97.8</ele>
        <time>2024-05-10T12:56:42Z</time>
      </trkpt>
      <trkpt lat="43.09012" lon="2.78878">
        <ele>97.9</ele>
        <time>2024-05-10T12:56:43Z</time>
      </trkpt>
      <trkpt lat="43.09032" lon="2.78857">
        <ele>96.9</ele>
        <time>2024-05-10T12:56:44Z</time>
      </trkpt>
      <trkpt lat="43.09052" lon="2.78835">
        <ele>96.9</ele>
        <time>2024-05-10T12:56:45Z</time>
      </trkpt>
      <trkpt lat="43.09072" lon="2.78814">
        <ele>96.8</ele>
        <time>2024-05-10T12:56:46Z</time>
      </trkpt>
      <trkpt lat="43.09091" lon="2.78793">
        <ele>97.2</ele>
        <time>2024-05-10T12:56:47Z</time>
      </trkpt>
      <trkpt lat="43.0911" lon="2.78773">
        <ele>96.9</ele>
        <time>2024-05-10T12:56:48Z</time>
      </trkpt>
      <trkpt lat="43.09129" lon="2.78753">
        <ele>96</ele>
        <time>2024-05-10T12:56:49Z</time>
      </trkpt>
      <trkpt lat="43.09147" lon="2.78733">
        <ele>96</ele>
        <time>2024-05-10T12:56:50Z</time>
      </trkpt>
      <trkpt lat="43.09166" lon="2.78712">
        <ele>96</ele>
        <time>2024-05-10T12:56:51Z</time>
      </trkpt>
      <trkpt lat="43.09185" lon="2.78692">
        <ele>96</ele>
        <time>2024-05-10T12:56:52Z</time>
      </trkpt>
      <trkpt lat="43.09205" lon="2.78671">
        <ele>95.6</ele>
        <time>2024-05-10T12:56:53Z</time>
      </trkpt>
      <trkpt lat="43.09224" lon="2.7865">
        <ele>94.9</ele>
        <time>2024-05-10T12:56:54Z</time>
      </trkpt>
      <trkpt lat="43.09244" lon="2.78629">
        <ele>94.2</ele>
        <time>2024-05-10T12:56:55Z</time>
      </trkpt>
      <trkpt lat="43.09264" lon="2.78608">
        <ele>93.6</ele>
        <time>2024-05-10T12:56:56Z</time>
      </trkpt>
      <trkpt lat="43.09285" lon="2.78586">
        <ele>93.9</ele>
        <time>2024-05-10T12:56:57Z</time>
      </trkpt>
      <trkpt lat="43.09305" lon="2.78564">
        <ele>94</ele>
        <time>2024-05-10T12:56:58Z</time>
      </trkpt>
      <trkpt lat="43.09326" lon="2.78542">
        <ele>94</ele>
        <time>2024-05-10T12:56:59Z</time>
      </trkpt>
      <trkpt lat="43.09347" lon="2.78519">
        <ele>94.3</ele>
        <time>2024-05-10T12:57:00Z</time>
      </trkpt>
      <trkpt lat="43.09368" lon="2.78496">
        <ele>94.8</ele>
        <time>2024-05-10T12:57:01Z</time>
      </trkpt>
      <trkpt lat="43.0939" lon="2.78473">
        <ele>94.9</ele>
        <time>2024-05-10T12:57:02Z</time>
      </trkpt>
      <trkpt lat="43.09411" lon="2.78449">
        <ele>94.9</ele>
        <time>2024-05-10T12:57:03Z</time>
      </trkpt>
      <trkpt lat="43.09432" lon="2.78427">
        <ele>94.4</ele>
        <time>2024-05-10T12:57:04Z</time>
      </trkpt>
      <trkpt lat="43.09452" lon="2.78405">
        <ele>94.3</ele>
        <time>2024-05-10T12:57:05Z</time>
      </trkpt>
      <trkpt lat="43.09472" lon="2.78384">
        <ele>94.2</ele>
        <time>2024-05-10T12:57:06Z</time>
      </trkpt>
      <trkpt lat="43.09488" lon="2.78367">
        <ele>94.3</ele>
        <time>2024-05-10T12:57:07Z</time>
      </trkpt>
      <trkpt lat="43.09501" lon="2.78353">
        <ele>94.3</ele>
        <time>2024-05-10T12:57:08Z</time>
      </trkpt>
      <trkpt lat="43.09514" lon="2.7834">
        <ele>94.4</ele>
        <time>2024-05-10T12:57:09Z</time>
      </trkpt>
      <trkpt lat="43.09526" lon="2.78327">
        <ele>94.3</ele>
        <time>2024-05-10T12:57:10Z</time>
      </trkpt>
      <trkpt lat="43.09538" lon="2.78314">
        <ele>94.7</ele>
        <time>2024-05-10T12:57:11Z</time>
      </trkpt>
      <trkpt lat="43.0955" lon="2.78301">
        <ele>95.2</ele>
        <time>2024-05-10T12:57:12Z</time>
      </trkpt>
      <trkpt lat="43.09562" lon="2.78288">
        <ele>95.2</ele>
        <time>2024-05-10T12:57:13Z</time>
      </trkpt>
      <trkpt lat="43.09574" lon="2.78276">
        <ele>94.7</ele>
        <time>2024-05-10T12:57:14Z</time>
      </trkpt>
      <trkpt lat="43.09585" lon="2.78264">
        <ele>94.4</ele>
        <time>2024-05-10T12:57:15Z</time>
      </trkpt>
      <trkpt lat="43.09594" lon="2.78255">
        <ele>94.4</ele>
        <time>2024-05-10T12:57:16Z</time>
      </trkpt>
      <trkpt lat="43.09601" lon="2.78247">
        <ele>94.4</ele>
        <time>2024-05-10T12:57:17Z</time>
      </trkpt>
      <trkpt lat="43.09608" lon="2.7824">
        <ele>94.4</ele>
        <time>2024-05-10T12:57:18Z</time>
      </trkpt>
      <trkpt lat="43.09614" lon="2.78233">
        <ele>94.5</ele>
        <time>2024-05-10T12:57:19Z</time>
      </trkpt>
      <trkpt lat="43.0962" lon="2.78227">
        <ele>94.5</ele>
        <time>2024-05-10T12:57:20Z</time>
      </trkpt>
      <trkpt lat="43.09626" lon="2.78221">
        <ele>94.5</ele>
        <time>2024-05-10T12:57:21Z</time>
      </trkpt>
      <trkpt lat="43.09631" lon="2.78214">
        <ele>94.4</ele>
        <time>2024-05-10T12:57:22Z</time>
      </trkpt>
      <trkpt lat="43.09637" lon="2.78209">
        <ele>94.5</ele>
        <time>2024-05-10T12:57:23Z</time>
      </trkpt>
      <trkpt lat="43.09642" lon="2.78203">
        <ele>94.5</ele>
        <time>2024-05-10T12:57:24Z</time>
      </trkpt>
      <trkpt lat="43.09647" lon="2.78198">
        <ele>94.3</ele>
        <time>2024-05-10T12:57:25Z</time>
      </trkpt>
      <trkpt lat="43.09652" lon="2.78192">
        <ele>94.1</ele>
        <time>2024-05-10T12:57:26Z</time>
      </trkpt>
      <trkpt lat="43.09657" lon="2.78186">
        <ele>94</ele>
        <time>2024-05-10T12:57:27Z</time>
      </trkpt>
      <trkpt lat="43.09661" lon="2.78182">
        <ele>94</ele>
        <time>2024-05-10T12:57:28Z</time>
      </trkpt>
      <trkpt lat="43.09664" lon="2.78178">
        <ele>94.2</ele>
        <time>2024-05-10T12:57:29Z</time>
      </trkpt>
      <trkpt lat="43.09668" lon="2.78173">
        <ele>94.5</ele>
        <time>2024-05-10T12:57:30Z</time>
      </trkpt>
      <trkpt lat="43.09672" lon="2.78168">
        <ele>94.5</ele>
        <time>2024-05-10T12:57:31Z</time>
      </trkpt>
      <trkpt lat="43.09677" lon="2.78161">
        <ele>94.2</ele>
        <time>2024-05-10T12:57:32Z</time>
      </trkpt>
      <trkpt lat="43.09684" lon="2.78153">
        <ele>93.9</ele>
        <time>2024-05-10T12:57:33Z</time>
      </trkpt>
      <trkpt lat="43.09691" lon="2.78144">
        <ele>93.9</ele>
        <time>2024-05-10T12:57:34Z</time>
      </trkpt>
      <trkpt lat="43.09699" lon="2.78132">
        <ele>94.3</ele>
        <time>2024-05-10T12:57:35Z</time>
      </trkpt>
      <trkpt lat="43.09708" lon="2.7812">
        <ele>94.5</ele>
        <time>2024-05-10T12:57:36Z</time>
      </trkpt>
      <trkpt lat="43.09716" lon="2.78107">
        <ele>94.4</ele>
        <time>2024-05-10T12:57:37Z</time>
      </trkpt>
      <trkpt lat="43.09725" lon="2.78093">
        <ele>94.7</ele>
        <time>2024-05-10T12:57:38Z</time>
      </trkpt>
      <trkpt lat="43.09735" lon="2.78078">
        <ele>95.2</ele>
        <time>2024-05-10T12:57:39Z</time>
      </trkpt>
      <trkpt lat="43.09746" lon="2.78062">
        <ele>95.2</ele>
        <time>2024-05-10T12:57:40Z</time>
      </trkpt>
      <trkpt lat="43.09757" lon="2.78045">
        <ele>95.7</ele>
        <time>2024-05-10T12:57:41Z</time>
      </trkpt>
      <trkpt lat="43.09768" lon="2.7803">
        <ele>96.2</ele>
        <time>2024-05-10T12:57:42Z</time>
      </trkpt>
      <trkpt lat="43.09776" lon="2.78018">
        <ele>96.1</ele>
        <time>2024-05-10T12:57:43Z</time>
      </trkpt>
      <trkpt lat="43.09782" lon="2.78008">
        <ele>95.8</ele>
        <time>2024-05-10T12:57:44Z</time>
      </trkpt>
      <trkpt lat="43.09789" lon="2.77998">
        <ele>95.6</ele>
        <time>2024-05-10T12:57:45Z</time>
      </trkpt>
      <trkpt lat="43.09795" lon="2.77988">
        <ele>95.6</ele>
        <time>2024-05-10T12:57:46Z</time>
      </trkpt>
      <trkpt lat="43.09801" lon="2.77979">
        <ele>95.8</ele>
        <time>2024-05-10T12:57:47Z</time>
      </trkpt>
      <trkpt lat="43.09807" lon="2.77971">
        <ele>95.8</ele>
        <time>2024-05-10T12:57:48Z</time>
      </trkpt>
      <trkpt lat="43.09814" lon="2.77961">
        <ele>94.9</ele>
        <time>2024-05-10T12:57:49Z</time>
      </trkpt>
      <trkpt lat="43.09821" lon="2.7795">
        <ele>94.4</ele>
        <time>2024-05-10T12:57:50Z</time>
      </trkpt>
      <trkpt lat="43.09829" lon="2.77938">
        <ele>94.6</ele>
        <time>2024-05-10T12:57:51Z</time>
      </trkpt>
      <trkpt lat="43.09838" lon="2.77925">
        <ele>95.1</ele>
        <time>2024-05-10T12:57:52Z</time>
      </trkpt>
      <trkpt lat="43.09847" lon="2.77911">
        <ele>95.2</ele>
        <time>2024-05-10T12:57:53Z</time>
      </trkpt>
      <trkpt lat="43.09856" lon="2.77897">
        <ele>95.5</ele>
        <time>2024-05-10T12:57:54Z</time>
      </trkpt>
      <trkpt lat="43.09866" lon="2.77882">
        <ele>95.9</ele>
        <time>2024-05-10T12:57:55Z</time>
      </trkpt>
      <trkpt lat="43.09877" lon="2.77866">
        <ele>95.7</ele>
        <time>2024-05-10T12:57:56Z</time>
      </trkpt>
      <trkpt lat="43.09889" lon="2.77849">
        <ele>96.3</ele>
        <time>2024-05-10T12:57:57Z</time>
      </trkpt>
      <trkpt lat="43.09901" lon="2.77831">
        <ele>97.3</ele>
        <time>2024-05-10T12:57:58Z</time>
      </trkpt>
      <trkpt lat="43.09912" lon="2.77815">
        <ele>97.7</ele>
        <time>2024-05-10T12:57:59Z</time>
      </trkpt>
      <trkpt lat="43.09924" lon="2.77798">
        <ele>97.8</ele>
        <time>2024-05-10T12:58:00Z</time>
      </trkpt>
      <trkpt lat="43.09935" lon="2.77781">
        <ele>98.1</ele>
        <time>2024-05-10T12:58:01Z</time>
      </trkpt>
      <trkpt lat="43.09945" lon="2.77766">
        <ele>98.8</ele>
        <time>2024-05-10T12:58:02Z</time>
      </trkpt>
      <trkpt lat="43.09955" lon="2.77751">
        <ele>99.5</ele>
        <time>2024-05-10T12:58:03Z</time>
      </trkpt>
      <trkpt lat="43.09964" lon="2.77737">
        <ele>100</ele>
        <time>2024-05-10T12:58:04Z</time>
      </trkpt>
      <trkpt lat="43.09973" lon="2.77724">
        <ele>99.9</ele>
        <time>2024-05-10T12:58:05Z</time>
      </trkpt>
      <trkpt lat="43.09982" lon="2.77712">
        <ele>100.5</ele>
        <time>2024-05-10T12:58:06Z</time>
      </trkpt>
      <trkpt lat="43.0999" lon="2.777">
        <ele>100.7</ele>
        <time>2024-05-10T12:58:07Z</time>
      </trkpt>
      <trkpt lat="43.09998" lon="2.77687">
        <ele>100.7</ele>
        <time>2024-05-10T12:58:08Z</time>
      </trkpt>
      <trkpt lat="43.10007" lon="2.77674">
        <ele>101</ele>
        <time>2024-05-10T12:58:09Z</time>
      </trkpt>
      <trkpt lat="43.10016" lon="2.77661">
        <ele>101.3</ele>
        <time>2024-05-10T12:58:10Z</time>
      </trkpt>
      <trkpt lat="43.10024" lon="2.77649">
        <ele>101.5</ele>
        <time>2024-05-10T12:58:11Z</time>
      </trkpt>
      <trkpt lat="43.10032" lon="2.77636">
        <ele>101.9</ele>
        <time>2024-05-10T12:58:12Z</time>
      </trkpt>
      <trkpt lat="43.1004" lon="2.77624">
        <ele>102.2</ele>
        <time>2024-05-10T12:58:13Z</time>
      </trkpt>
      <trkpt lat="43.10049" lon="2.77612">
        <ele>102.4</ele>
        <time>2024-05-10T12:58:14Z</time>
      </trkpt>
      <trkpt lat="43.10057" lon="2.776">
        <ele>102.3</ele>
        <time>2024-05-10T12:58:15Z</time>
      </trkpt>
      <trkpt lat="43.10066" lon="2.77588">
        <ele>102.5</ele>
        <time>2024-05-10T12:58:16Z</time>
      </trkpt>
      <trkpt lat="43.10073" lon="2.77576">
        <ele>103</ele>
        <time>2024-05-10T12:58:17Z</time>
      </trkpt>
      <trkpt lat="43.10081" lon="2.77565">
        <ele>103.5</ele>
        <time>2024-05-10T12:58:18Z</time>
      </trkpt>
      <trkpt lat="43.10089" lon="2.77553">
        <ele>103.8</ele>
        <time>2024-05-10T12:58:19Z</time>
      </trkpt>
      <trkpt lat="43.10097" lon="2.77541">
        <ele>104.1</ele>
        <time>2024-05-10T12:58:20Z</time>
      </trkpt>
      <trkpt lat="43.10105" lon="2.77529">
        <ele>104.4</ele>
        <time>2024-05-10T12:58:21Z</time>
      </trkpt>
      <trkpt lat="43.10113" lon="2.77517">
        <ele>105</ele>
        <time>2024-05-10T12:58:22Z</time>
      </trkpt>
      <trkpt lat="43.10121" lon="2.77505">
        <ele>105.5</ele>
        <time>2024-05-10T12:58:23Z</time>
      </trkpt>
      <trkpt lat="43.10128" lon="2.77495">
        <ele>105.5</ele>
        <time>2024-05-10T12:58:24Z</time>
      </trkpt>
      <trkpt lat="43.10135" lon="2.77486">
        <ele>105.4</ele>
        <time>2024-05-10T12:58:25Z</time>
      </trkpt>
      <trkpt lat="43.1014" lon="2.77478">
        <ele>105.5</ele>
        <time>2024-05-10T12:58:26Z</time>
      </trkpt>
      <trkpt lat="43.10145" lon="2.77471">
        <ele>105.7</ele>
        <time>2024-05-10T12:58:27Z</time>
      </trkpt>
      <trkpt lat="43.10149" lon="2.77464">
        <ele>106.2</ele>
        <time>2024-05-10T12:58:28Z</time>
      </trkpt>
      <trkpt lat="43.10152" lon="2.77459">
        <ele>106.5</ele>
        <time>2024-05-10T12:58:29Z</time>
      </trkpt>
      <trkpt lat="43.10156" lon="2.77454">
        <ele>106.6</ele>
        <time>2024-05-10T12:58:30Z</time>
      </trkpt>
      <trkpt lat="43.10158" lon="2.77449">
        <ele>106.8</ele>
        <time>2024-05-10T12:58:31Z</time>
      </trkpt>
      <trkpt lat="43.10162" lon="2.77445">
        <ele>106.6</ele>
        <time>2024-05-10T12:58:32Z</time>
      </trkpt>
      <trkpt lat="43.10165" lon="2.77439">
        <ele>106.6</ele>
        <time>2024-05-10T12:58:33Z</time>
      </trkpt>
      <trkpt lat="43.10168" lon="2.77433">
        <ele>106.8</ele>
        <time>2024-05-10T12:58:34Z</time>
      </trkpt>
      <trkpt lat="43.10172" lon="2.77429">
        <ele>107</ele>
        <time>2024-05-10T12:58:35Z</time>
      </trkpt>
      <trkpt lat="43.10175" lon="2.77424">
        <ele>107.3</ele>
        <time>2024-05-10T12:58:36Z</time>
      </trkpt>
      <trkpt lat="43.10178" lon="2.77421">
        <ele>107.3</ele>
        <time>2024-05-10T12:58:37Z</time>
      </trkpt>
      <trkpt lat="43.1018" lon="2.77417">
        <ele>107.5</ele>
        <time>2024-05-10T12:58:38Z</time>
      </trkpt>
      <trkpt lat="43.10182" lon="2.77414">
        <ele>107.6</ele>
        <time>2024-05-10T12:58:39Z</time>
      </trkpt>
      <trkpt lat="43.10184" lon="2.77412">
        <ele>107.6</ele>
        <time>2024-05-10T12:58:40Z</time>
      </trkpt>
      <trkpt lat="43.10185" lon="2.77409">
        <ele>107.7</ele>
        <time>2024-05-10T12:58:41Z</time>
      </trkpt>
      <trkpt lat="43.10187" lon="2.77407">
        <ele>107.7</ele>
        <time>2024-05-10T12:58:42Z</time>
      </trkpt>
      <trkpt lat="43.10189" lon="2.77404">
        <ele>107.7</ele>
        <time>2024-05-10T12:58:43Z</time>
      </trkpt>
      <trkpt lat="43.10191" lon="2.77401">
        <ele>107.8</ele>
        <time>2024-05-10T12:58:44Z</time>
      </trkpt>
      <trkpt lat="43.10193" lon="2.77399">
        <ele>107.7</ele>
        <time>2024-05-10T12:58:45Z</time>
      </trkpt>
      <trkpt lat="43.10194" lon="2.77396">
        <ele>107.8</ele>
        <time>2024-05-10T12:58:46Z</time>
      </trkpt>
      <trkpt lat="43.10196" lon="2.77394">
        <ele>107.9</ele>
        <time>2024-05-10T12:58:47Z</time>
      </trkpt>
      <trkpt lat="43.10197" lon="2.77393">
        <ele>107.9</ele>
        <time>2024-05-10T12:58:48Z</time>
      </trkpt>
      <trkpt lat="43.10197" lon="2.77393">
        <ele>107.9</ele>
        <time>2024-05-10T12:58:49Z</time>
      </trkpt>
      <trkpt lat="43.10197" lon="2.77393">
        <ele>107.9</ele>
        <time>2024-05-10T12:58:50Z</time>
      </trkpt>
      <trkpt lat="43.10197" lon="2.77393">
        <ele>107.9</ele>
        <time>2024-05-10T12:58:51Z</time>
      </trkpt>
      <trkpt lat="43.10197" lon="2.77394">
        <ele>107.9</ele>
        <time>2024-05-10T12:58:52Z</time>
      </trkpt>
      <trkpt lat="43.10197" lon="2.77394">
        <ele>107.9</ele>
        <time>2024-05-10T12:58:53Z</time>
      </trkpt>
      <trkpt lat="43.10196" lon="2.77394">
        <ele>107.9</ele>
        <time>2024-05-10T12:58:54Z</time>
      </trkpt>
      <trkpt lat="43.10196" lon="2.77394">
        <ele>107.9</ele>
        <time>2024-05-10T12:58:55Z</time>
      </trkpt>
      <trkpt lat="43.10196" lon="2.77394">
        <ele>107.9</ele>
        <time>2024-05-10T12:58:56Z</time>
      </trkpt>
      <trkpt lat="43.10197" lon="2.77394">
        <ele>107.9</ele>
        <time>2024-05-10T12:58:57Z</time>
      </trkpt>
      <trkpt lat="43.10197" lon="2.77393">
        <ele>107.9</ele>
        <time>2024-05-10T12:58:58Z</time>
      </trkpt>
      <trkpt lat="43.10197" lon="2.77394">
        <ele>107.9</ele>
        <time>2024-05-10T12:58:59Z</time>
      </trkpt>
      <trkpt lat="43.10197" lon="2.77393">
        <ele>107.9</ele>
        <time>2024-05-10T12:59:00Z</time>
      </trkpt>
      <trkpt lat="43.10198" lon="2.77392">
        <ele>108</ele>
        <time>2024-05-10T12:59:01Z</time>
      </trkpt>
      <trkpt lat="43.10199" lon="2.7739">
        <ele>108.1</ele>
        <time>2024-05-10T12:59:02Z</time>
      </trkpt>
      <trkpt lat="43.102" lon="2.7739">
        <ele>108.2</ele>
        <time>2024-05-10T12:59:03Z</time>
      </trkpt>
      <trkpt lat="43.102" lon="2.7739">
        <ele>108.2</ele>
        <time>2024-05-10T12:59:04Z</time>
      </trkpt>
      <trkpt lat="43.102" lon="2.77391">
        <ele>108.1</ele>
        <time>2024-05-10T12:59:05Z</time>
      </trkpt>
      <trkpt lat="43.10199" lon="2.77391">
        <ele>108.1</ele>
        <time>2024-05-10T12:59:06Z</time>
      </trkpt>
      <trkpt lat="43.10199" lon="2.77391">
        <ele>108.1</ele>
        <time>2024-05-10T12:59:07Z</time>
      </trkpt>
      <trkpt lat="43.10199" lon="2.77391">
        <ele>108.1</ele>
        <time>2024-05-10T12:59:08Z</time>
      </trkpt>
      <trkpt lat="43.10199" lon="2.77392">
        <ele>108</ele>
        <time>2024-05-10T12:59:09Z</time>
      </trkpt>
      <trkpt lat="43.10199" lon="2.77392">
        <ele>108</ele>
        <time>2024-05-10T12:59:10Z</time>
      </trkpt>
      <trkpt lat="43.10199" lon="2.77392">
        <ele>108</ele>
        <time>2024-05-10T12:59:11Z</time>
      </trkpt>
      <trkpt lat="43.10199" lon="2.77392">
        <ele>108</ele>
        <time>2024-05-10T12:59:12Z</time>
      </trkpt>
      <trkpt lat="43.10199" lon="2.77392">
        <ele>108</ele>
        <time>2024-05-10T12:59:13Z</time>
      </trkpt>
      <trkpt lat="43.10199" lon="2.77392">
        <ele>108</ele>
        <time>2024-05-10T12:59:14Z</time>
      </trkpt>
      <trkpt lat="43.10199" lon="2.77392">
        <ele>108</ele>
        <time>2024-05-10T12:59:15Z</time>
      </trkpt>
      <trkpt lat="43.10199" lon="2.77392">
        <ele>108</ele>
        <time>2024-05-10T12:59:16Z</time>
      </trkpt>
      <trkpt lat="43.10199" lon="2.77391">
        <ele>108.1</ele>
        <time>2024-05-10T12:59:17Z</time>
      </trkpt>
      <trkpt lat="43.10199" lon="2.77391">
        <ele>108.1</ele>
        <time>2024-05-10T12:59:18Z</time>
      </trkpt>
      <trkpt lat="43.10199" lon="2.77391">
        <ele>108.1</ele>
        <time>2024-05-10T12:59:19Z</time>
      </trkpt>
      <trkpt lat="43.10199" lon="2.77391">
        <ele>108.1</ele>
        <time>2024-05-10T12:59:20Z</time>
      </trkpt>
      <trkpt lat="43.10199" lon="2.77391">
        <ele>108.1</ele>
        <time>2024-05-10T12:59:21Z</time>
      </trkpt>
      <trkpt lat="43.10199" lon="2.77391">
        <ele>108.1</ele>
        <time>2024-05-10T12:59:22Z</time>
      </trkpt>
      <trkpt lat="43.10199" lon="2.77391">
        <ele>108.1</ele>
        <time>2024-05-10T12:59:23Z</time>
      </trkpt>
      <trkpt lat="43.10199" lon="2.77391">
        <ele>108.1</ele>
        <time>2024-05-10T12:59:24Z</time>
      </trkpt>
      <trkpt lat="43.10199" lon="2.77391">
        <ele>108.1</ele>
        <time>2024-05-10T12:59:25Z</time>
      </trkpt>
      <trkpt lat="43.10199" lon="2.77391">
        <ele>108.1</ele>
        <time>2024-05-10T12:59:26Z</time>
      </trkpt>
      <trkpt lat="43.10199" lon="2.77391">
        <ele>108.1</ele>
        <time>2024-05-10T12:59:27Z</time>
      </trkpt>
      <trkpt lat="43.10199" lon="2.77391">
        <ele>108.1</ele>
        <time>2024-05-10T12:59:28Z</time>
      </trkpt>
      <trkpt lat="43.10199" lon="2.77391">
        <ele>108.1</ele>
        <time>2024-05-10T12:59:29Z</time>
      </trkpt>
      <trkpt lat="43.10199" lon="2.77391">
        <ele>108.1</ele>
        <time>2024-05-10T12:59:30Z</time>
      </trkpt>
      <trkpt lat="43.10199" lon="2.77391">
        <ele>108.1</ele>
        <time>2024-05-10T12:59:31Z</time>
      </trkpt>
      <trkpt lat="43.10199" lon="2.77391">
        <ele>108.1</ele>
        <time>2024-05-10T12:59:32Z</time>
      </trkpt>
      <trkpt lat="43.10199" lon="2.77391">
        <ele>108.1</ele>
        <time>2024-05-10T12:59:33Z</time>
      </trkpt>
      <trkpt lat="43.10199" lon="2.77391">
        <ele>108.1</ele>
        <time>2024-05-10T12:59:34Z</time>
      </trkpt>
      <trkpt lat="43.10199" lon="2.77391">
        <ele>108.1</ele>
        <time>2024-05-10T12:59:35Z</time>
      </trkpt>
      <trkpt lat="43.10199" lon="2.77391">
        <ele>108.1</ele>
        <time>2024-05-10T12:59:36Z</time>
      </trkpt>
      <trkpt lat="43.10199" lon="2.77391">
        <ele>108.1</ele>
        <time>2024-05-10T12:59:37Z</time>
      </trkpt>
      <trkpt lat="43.10199" lon="2.77391">
        <ele>108.1</ele>
        <time>2024-05-10T12:59:38Z</time>
      </trkpt>
      <trkpt lat="43.10199" lon="2.77391">
        <ele>108.1</ele>
        <time>2024-05-10T12:59:39Z</time>
      </trkpt>
      <trkpt lat="43.10199" lon="2.77391">
        <ele>108.1</ele>
        <time>2024-05-10T12:59:40Z</time>
      </trkpt>
      <trkpt lat="43.10199" lon="2.77391">
        <ele>108.1</ele>
        <time>2024-05-10T12:59:41Z</time>
      </trkpt>
      <trkpt lat="43.10199" lon="2.77391">
        <ele>108.1</ele>
        <time>2024-05-10T12:59:42Z</time>
      </trkpt>
      <trkpt lat="43.10199" lon="2.77391">
        <ele>108.1</ele>
        <time>2024-05-10T12:59:43Z</time>
      </trkpt>
      <trkpt lat="43.10199" lon="2.77391">
        <ele>108.1</ele>
        <time>2024-05-10T12:59:44Z</time>
      </trkpt>
      <trkpt lat="43.10199" lon="2.77391">
        <ele>108.1</ele>
        <time>2024-05-10T12:59:45Z</time>
      </trkpt>
      <trkpt lat="43.10199" lon="2.77391">
        <ele>108.1</ele>
        <time>2024-05-10T12:59:46Z</time>
      </trkpt>
      <trkpt lat="43.10199" lon="2.77391">
        <ele>108.1</ele>
        <time>2024-05-10T12:59:47Z</time>
      </trkpt>
      <trkpt lat="43.10199" lon="2.77391">
        <ele>108.1</ele>
        <time>2024-05-10T12:59:48Z</time>
      </trkpt>
      <trkpt lat="43.10199" lon="2.77391">
        <ele>108.1</ele>
        <time>2024-05-10T12:59:49Z</time>
      </trkpt>
      <trkpt lat="43.10199" lon="2.77391">
        <ele>108.1</ele>
        <time>2024-05-10T12:59:50Z</time>
      </trkpt>
      <trkpt lat="43.10199" lon="2.77391">
        <ele>108.1</ele>
        <time>2024-05-10T12:59:51Z</time>
      </trkpt>
      <trkpt lat="43.10199" lon="2.77391">
        <ele>108.1</ele>
        <time>2024-05-10T12:59:52Z</time>
      </trkpt>
      <trkpt lat="43.10199" lon="2.77391">
        <ele>108.1</ele>
        <time>2024-05-10T12:59:53Z</time>
      </trkpt>
      <trkpt lat="43.10199" lon="2.77391">
        <ele>108.1</ele>
        <time>2024-05-10T12:59:54Z</time>
      </trkpt>
      <trkpt lat="43.10199" lon="2.77391">
        <ele>108.1</ele>
        <time>2024-05-10T12:59:55Z</time>
      </trkpt>
      <trkpt lat="43.10199" lon="2.77391">
        <ele>108.1</ele>
        <time>2024-05-10T12:59:56Z</time>
      </trkpt>
      <trkpt lat="43.10199" lon="2.77391">
        <ele>108.1</ele>
        <time>2024-05-10T12:59:57Z</time>
      </trkpt>
      <trkpt lat="43.10199" lon="2.77391">
        <ele>108.1</ele>
        <time>2024-05-10T12:59:58Z</time>
      </trkpt>
      <trkpt lat="43.10199" lon="2.77391">
        <ele>108.1</ele>
        <time>2024-05-10T12:59:59Z</time>
      </trkpt>
      <trkpt lat="43.10199" lon="2.77391">
        <ele>108.1</ele>
        <time>2024-05-10T13:00:00Z</time>
      </trkpt>
      <trkpt lat="43.10199" lon="2.77391">
        <ele>108.1</ele>
        <time>2024-05-10T13:00:01Z</time>
      </trkpt>
      <trkpt lat="43.10199" lon="2.77391">
        <ele>108.1</ele>
        <time>2024-05-10T13:00:02Z</time>
      </trkpt>
      <trkpt lat="43.10199" lon="2.77391">
        <ele>108.1</ele>
        <time>2024-05-10T13:00:03Z</time>
      </trkpt>
      <trkpt lat="43.10199" lon="2.77391">
        <ele>108.1</ele>
        <time>2024-05-10T13:00:04Z</time>
      </trkpt>
      <trkpt lat="43.10199" lon="2.77391">
        <ele>108.1</ele>
        <time>2024-05-10T13:00:05Z</time>
      </trkpt>
      <trkpt lat="43.10199" lon="2.77391">
        <ele>108.1</ele>
        <time>2024-05-10T13:00:06Z</time>
      </trkpt>
      <trkpt lat="43.10199" lon="2.77391">
        <ele>108.1</ele>
        <time>2024-05-10T13:00:07Z</time>
      </trkpt>
      <trkpt lat="43.10199" lon="2.77391">
        <ele>108.1</ele>
        <time>2024-05-10T13:00:08Z</time>
      </trkpt>
      <trkpt lat="43.10199" lon="2.77391">
        <ele>108.1</ele>
        <time>2024-05-10T13:00:09Z</time>
      </trkpt>
      <trkpt lat="43.10199" lon="2.77391">
        <ele>108.1</ele>
        <time>2024-05-10T13:00:10Z</time>
      </trkpt>
      <trkpt lat="43.10199" lon="2.77391">
        <ele>108.1</ele>
        <time>2024-05-10T13:00:11Z</time>
      </trkpt>
      <trkpt lat="43.10199" lon="2.77391">
        <ele>108.1</ele>
        <time>2024-05-10T13:00:12Z</time>
      </trkpt>
      <trkpt lat="43.10199" lon="2.77391">
        <ele>108.1</ele>
        <time>2024-05-10T13:00:13Z</time>
      </trkpt>
      <trkpt lat="43.10199" lon="2.77391">
        <ele>108.1</ele>
        <time>2024-05-10T13:00:14Z</time>
      </trkpt>
      <trkpt lat="43.10199" lon="2.77391">
        <ele>108.1</ele>
        <time>2024-05-10T13:00:15Z</time>
      </trkpt>
      <trkpt lat="43.10199" lon="2.77391">
        <ele>108.1</ele>
        <time>2024-05-10T13:00:16Z</time>
      </trkpt>
      <trkpt lat="43.10199" lon="2.77391">
        <ele>108.1</ele>
        <time>2024-05-10T13:00:17Z</time>
      </trkpt>
      <trkpt lat="43.10199" lon="2.77391">
        <ele>108.1</ele>
        <time>2024-05-10T13:00:18Z</time>
      </trkpt>
      <trkpt lat="43.10199" lon="2.77391">
        <ele>108.1</ele>
        <time>2024-05-10T13:00:19Z</time>
      </trkpt>
      <trkpt lat="43.10199" lon="2.77391">
        <ele>108.1</ele>
        <time>2024-05-10T13:00:20Z</time>
      </trkpt>
      <trkpt lat="43.10199" lon="2.77391">
        <ele>108.1</ele>
        <time>2024-05-10T13:00:21Z</time>
      </trkpt>
      <trkpt lat="43.10199" lon="2.77391">
        <ele>108.1</ele>
        <time>2024-05-10T13:00:22Z</time>
      </trkpt>
      <trkpt lat="43.10198" lon="2.77392">
        <ele>108</ele>
        <time>2024-05-10T13:00:23Z</time>
      </trkpt>
      <trkpt lat="43.10198" lon="2.77392">
        <ele>108</ele>
        <time>2024-05-10T13:00:24Z</time>
      </trkpt>
      <trkpt lat="43.10198" lon="2.77392">
        <ele>108</ele>
        <time>2024-05-10T13:00:25Z</time>
      </trkpt>
      <trkpt lat="43.10198" lon="2.77392">
        <ele>108</ele>
        <time>2024-05-10T13:00:26Z</time>
      </trkpt>
      <trkpt lat="43.10198" lon="2.77393">
        <ele>108</ele>
        <time>2024-05-10T13:00:27Z</time>
      </trkpt>
      <trkpt lat="43.10199" lon="2.77393">
        <ele>108</ele>
        <time>2024-05-10T13:00:28Z</time>
      </trkpt>
      <trkpt lat="43.10199" lon="2.77393">
        <ele>108</ele>
        <time>2024-05-10T13:00:29Z</time>
      </trkpt>
      <trkpt lat="43.10199" lon="2.77393">
        <ele>108</ele>
        <time>2024-05-10T13:00:30Z</time>
      </trkpt>
      <trkpt lat="43.10199" lon="2.77393">
        <ele>108</ele>
        <time>2024-05-10T13:00:31Z</time>
      </trkpt>
      <trkpt lat="43.10199" lon="2.77393">
        <ele>108</ele>
        <time>2024-05-10T13:00:32Z</time>
      </trkpt>
      <trkpt lat="43.10199" lon="2.77393">
        <ele>108</ele>
        <time>2024-05-10T13:00:33Z</time>
      </trkpt>
      <trkpt lat="43.10199" lon="2.77393">
        <ele>108</ele>
        <time>2024-05-10T13:00:34Z</time>
      </trkpt>
      <trkpt lat="43.10199" lon="2.77393">
        <ele>108</ele>
        <time>2024-05-10T13:00:35Z</time>
      </trkpt>
      <trkpt lat="43.10199" lon="2.77392">
        <ele>108</ele>
        <time>2024-05-10T13:00:36Z</time>
      </trkpt>
      <trkpt lat="43.102" lon="2.77392">
        <ele>108.1</ele>
        <time>2024-05-10T13:00:37Z</time>
      </trkpt>
      <trkpt lat="43.102" lon="2.77392">
        <ele>108.1</ele>
        <time>2024-05-10T13:00:38Z</time>
      </trkpt>
      <trkpt lat="43.102" lon="2.77392">
        <ele>108.1</ele>
        <time>2024-05-10T13:00:39Z</time>
      </trkpt>
      <trkpt lat="43.10199" lon="2.77392">
        <ele>108</ele>
        <time>2024-05-10T13:00:40Z</time>
      </trkpt>
      <trkpt lat="43.10199" lon="2.77392">
        <ele>108</ele>
        <time>2024-05-10T13:00:41Z</time>
      </trkpt>
      <trkpt lat="43.10199" lon="2.77392">
        <ele>108</ele>
        <time>2024-05-10T13:00:42Z</time>
      </trkpt>
      <trkpt lat="43.10199" lon="2.77392">
        <ele>108</ele>
        <time>2024-05-10T13:00:43Z</time>
      </trkpt>
      <trkpt lat="43.10199" lon="2.77392">
        <ele>108</ele>
        <time>2024-05-10T13:00:44Z</time>
      </trkpt>
      <trkpt lat="43.10199" lon="2.77392">
        <ele>108</ele>
        <time>2024-05-10T13:00:45Z</time>
      </trkpt>
      <trkpt lat="43.10199" lon="2.77392">
        <ele>108</ele>
        <time>2024-05-10T13:00:46Z</time>
      </trkpt>
      <trkpt lat="43.10199" lon="2.77392">
        <ele>108</ele>
        <time>2024-05-10T13:00:47Z</time>
      </trkpt>
      <trkpt lat="43.10199" lon="2.77391">
        <ele>108.1</ele>
        <time>2024-05-10T13:00:48Z</time>
      </trkpt>
      <trkpt lat="43.10199" lon="2.77391">
        <ele>108.1</ele>
        <time>2024-05-10T13:00:49Z</time>
      </trkpt>
      <trkpt lat="43.10199" lon="2.77391">
        <ele>108.1</ele>
        <time>2024-05-10T13:00:50Z</time>
      </trkpt>
      <trkpt lat="43.10199" lon="2.77391">
        <ele>108.1</ele>
        <time>2024-05-10T13:00:51Z</time>
      </trkpt>
      <trkpt lat="43.10199" lon="2.77391">
        <ele>108.1</ele>
        <time>2024-05-10T13:00:52Z</time>
      </trkpt>
      <trkpt lat="43.10199" lon="2.77392">
        <ele>108</ele>
        <time>2024-05-10T13:00:53Z</time>
      </trkpt>
      <trkpt lat="43.10199" lon="2.77392">
        <ele>108</ele>
        <time>2024-05-10T13:00:54Z</time>
      </trkpt>
      <trkpt lat="43.10199" lon="2.77392">
        <ele>108</ele>
        <time>2024-05-10T13:00:55Z</time>
      </trkpt>
      <trkpt lat="43.10199" lon="2.77393">
        <ele>108</ele>
        <time>2024-05-10T13:00:56Z</time>
      </trkpt>
      <trkpt lat="43.10199" lon="2.77393">
        <ele>108</ele>
        <time>2024-05-10T13:00:57Z</time>
      </trkpt>
      <trkpt lat="43.10199" lon="2.77393">
        <ele>108</ele>
        <time>2024-05-10T13:00:58Z</time>
      </trkpt>
      <trkpt lat="43.10199" lon="2.77392">
        <ele>108</ele>
        <time>2024-05-10T13:00:59Z</time>
      </trkpt>
      <trkpt lat="43.102" lon="2.77392">
        <ele>108.1</ele>
        <time>2024-05-10T13:01:00Z</time>
      </trkpt>
      <trkpt lat="43.102" lon="2.77392">
        <ele>108.1</ele>
        <time>2024-05-10T13:01:01Z</time>
      </trkpt>
      <trkpt lat="43.102" lon="2.77392">
        <ele>108.1</ele>
        <time>2024-05-10T13:01:02Z</time>
      </trkpt>
      <trkpt lat="43.102" lon="2.77392">
        <ele>108.1</ele>
        <time>2024-05-10T13:01:03Z</time>
      </trkpt>
      <trkpt lat="43.102" lon="2.77392">
        <ele>108.1</ele>
        <time>2024-05-10T13:01:04Z</time>
      </trkpt>
      <trkpt lat="43.102" lon="2.77392">
        <ele>108.1</ele>
        <time>2024-05-10T13:01:05Z</time>
      </trkpt>
      <trkpt lat="43.102" lon="2.77392">
        <ele>108.1</ele>
        <time>2024-05-10T13:01:06Z</time>
      </trkpt>
      <trkpt lat="43.102" lon="2.77392">
        <ele>108.1</ele>
        <time>2024-05-10T13:01:07Z</time>
      </trkpt>
      <trkpt lat="43.102" lon="2.77392">
        <ele>108.1</ele>
        <time>2024-05-10T13:01:08Z</time>
      </trkpt>
      <trkpt lat="43.102" lon="2.77391">
        <ele>108.1</ele>
        <time>2024-05-10T13:01:09Z</time>
      </trkpt>
      <trkpt lat="43.102" lon="2.77391">
        <ele>108.1</ele>
        <time>2024-05-10T13:01:10Z</time>
      </trkpt>
      <trkpt lat="43.102" lon="2.7739">
        <ele>108.2</ele>
        <time>2024-05-10T13:01:11Z</time>
      </trkpt>
      <trkpt lat="43.102" lon="2.77389">
        <ele>108.2</ele>
        <time>2024-05-10T13:01:12Z</time>
      </trkpt>
      <trkpt lat="43.102" lon="2.77388">
        <ele>108.2</ele>
        <time>2024-05-10T13:01:13Z</time>
      </trkpt>
      <trkpt lat="43.102" lon="2.77386">
        <ele>108.3</ele>
        <time>2024-05-10T13:01:14Z</time>
      </trkpt>
      <trkpt lat="43.102" lon="2.77384">
        <ele>108.3</ele>
        <time>2024-05-10T13:01:15Z</time>
      </trkpt>
      <trkpt lat="43.102" lon="2.77383">
        <ele>108.4</ele>
        <time>2024-05-10T13:01:16Z</time>
      </trkpt>
      <trkpt lat="43.102" lon="2.77382">
        <ele>108.4</ele>
        <time>2024-05-10T13:01:17Z</time>
      </trkpt>
      <trkpt lat="43.10199" lon="2.77382">
        <ele>108.4</ele>
        <time>2024-05-10T13:01:18Z</time>
      </trkpt>
      <trkpt lat="43.10199" lon="2.77381">
        <ele>108.4</ele>
        <time>2024-05-10T13:01:19Z</time>
      </trkpt>
      <trkpt lat="43.10199" lon="2.7738">
        <ele>108.4</ele>
        <time>2024-05-10T13:01:20Z</time>
      </trkpt>
      <trkpt lat="43.102" lon="2.77379">
        <ele>108.5</ele>
        <time>2024-05-10T13:01:21Z</time>
      </trkpt>
      <trkpt lat="43.102" lon="2.77378">
        <ele>108.5</ele>
        <time>2024-05-10T13:01:22Z</time>
      </trkpt>
      <trkpt lat="43.102" lon="2.77378">
        <ele>108.5</ele>
        <time>2024-05-10T13:01:23Z</time>
      </trkpt>
      <trkpt lat="43.102" lon="2.77377">
        <ele>108.5</ele>
        <time>2024-05-10T13:01:24Z</time>
      </trkpt>
      <trkpt lat="43.10201" lon="2.77378">
        <ele>108.5</ele>
        <time>2024-05-10T13:01:25Z</time>
      </trkpt>
      <trkpt lat="43.10201" lon="2.77378">
        <ele>108.5</ele>
        <time>2024-05-10T13:01:26Z</time>
      </trkpt>
      <trkpt lat="43.102" lon="2.77379">
        <ele>108.5</ele>
        <time>2024-05-10T13:01:27Z</time>
      </trkpt>
      <trkpt lat="43.102" lon="2.77379">
        <ele>108.5</ele>
        <time>2024-05-10T13:01:28Z</time>
      </trkpt>
      <trkpt lat="43.102" lon="2.77379">
        <ele>108.5</ele>
        <time>2024-05-10T13:01:29Z</time>
      </trkpt>
      <trkpt lat="43.102" lon="2.7738">
        <ele>108.5</ele>
        <time>2024-05-10T13:01:30Z</time>
      </trkpt>
      <trkpt lat="43.102" lon="2.7738">
        <ele>108.5</ele>
        <time>2024-05-10T13:01:31Z</time>
      </trkpt>
      <trkpt lat="43.102" lon="2.7738">
        <ele>108.5</ele>
        <time>2024-05-10T13:01:32Z</time>
      </trkpt>
      <trkpt lat="43.102" lon="2.7738">
        <ele>108.5</ele>
        <time>2024-05-10T13:01:33Z</time>
      </trkpt>
      <trkpt lat="43.102" lon="2.7738">
        <ele>108.5</ele>
        <time>2024-05-10T13:01:34Z</time>
      </trkpt>
      <trkpt lat="43.102" lon="2.7738">
        <ele>108.5</ele>
        <time>2024-05-10T13:01:35Z</time>
      </trkpt>
      <trkpt lat="43.102" lon="2.7738">
        <ele>108.5</ele>
        <time>2024-05-10T13:01:36Z</time>
      </trkpt>
      <trkpt lat="43.102" lon="2.7738">
        <ele>108.5</ele>
        <time>2024-05-10T13:01:37Z</time>
      </trkpt>
      <trkpt lat="43.102" lon="2.7738">
        <ele>108.5</ele>
        <time>2024-05-10T13:01:38Z</time>
      </trkpt>
      <trkpt lat="43.102" lon="2.7738">
        <ele>108.5</ele>
        <time>2024-05-10T13:01:39Z</time>
      </trkpt>
      <trkpt lat="43.102" lon="2.7738">
        <ele>108.5</ele>
        <time>2024-05-10T13:01:40Z</time>
      </trkpt>
      <trkpt lat="43.102" lon="2.7738">
        <ele>108.5</ele>
        <time>2024-05-10T13:01:41Z</time>
      </trkpt>
      <trkpt lat="43.10199" lon="2.7738">
        <ele>108.4</ele>
        <time>2024-05-10T13:01:42Z</time>
      </trkpt>
      <trkpt lat="43.10199" lon="2.7738">
        <ele>108.4</ele>
        <time>2024-05-10T13:01:43Z</time>
      </trkpt>
      <trkpt lat="43.10199" lon="2.7738">
        <ele>108.4</ele>
        <time>2024-05-10T13:01:44Z</time>
      </trkpt>
      <trkpt lat="43.10199" lon="2.7738">
        <ele>108.4</ele>
        <time>2024-05-10T13:01:45Z</time>
      </trkpt>
      <trkpt lat="43.10199" lon="2.7738">
        <ele>108.4</ele>
        <time>2024-05-10T13:01:46Z</time>
      </trkpt>
      <trkpt lat="43.10199" lon="2.7738">
        <ele>108.4</ele>
        <time>2024-05-10T13:01:47Z</time>
      </trkpt>
      <trkpt lat="43.10199" lon="2.7738">
        <ele>108.4</ele>
        <time>2024-05-10T13:01:48Z</time>
      </trkpt>
      <trkpt lat="43.10199" lon="2.7738">
        <ele>108.4</ele>
        <time>2024-05-10T13:01:49Z</time>
      </trkpt>
      <trkpt lat="43.10199" lon="2.7738">
        <ele>108.4</ele>
        <time>2024-05-10T13:01:50Z</time>
      </trkpt>
      <trkpt lat="43.10202" lon="2.77378">
        <ele>108.6</ele>
        <time>2024-05-10T13:03:17Z</time>
      </trkpt>
      <trkpt lat="43.10201" lon="2.77377">
        <ele>108.6</ele>
        <time>2024-05-10T13:03:18Z</time>
      </trkpt>
      <trkpt lat="43.10199" lon="2.77379">
        <ele>108.5</ele>
        <time>2024-05-10T13:03:19Z</time>
      </trkpt>
      <trkpt lat="43.10194" lon="2.77377">
        <ele>108.5</ele>
        <time>2024-05-10T13:03:20Z</time>
      </trkpt>
      <trkpt lat="43.10194" lon="2.77378">
        <ele>108.4</ele>
        <time>2024-05-10T13:03:21Z</time>
      </trkpt>
      <trkpt lat="43.10195" lon="2.77378">
        <ele>108.4</ele>
        <time>2024-05-10T13:03:22Z</time>
      </trkpt>
      <trkpt lat="43.10195" lon="2.77379">
        <ele>108.4</ele>
        <time>2024-05-10T13:03:23Z</time>
      </trkpt>
      <trkpt lat="43.10195" lon="2.77379">
        <ele>108.4</ele>
        <time>2024-05-10T13:03:24Z</time>
      </trkpt>
      <trkpt lat="43.10196" lon="2.77379">
        <ele>108.4</ele>
        <time>2024-05-10T13:03:25Z</time>
      </trkpt>
      <trkpt lat="43.10196" lon="2.77379">
        <ele>108.4</ele>
        <time>2024-05-10T13:03:26Z</time>
      </trkpt>
      <trkpt lat="43.10195" lon="2.77379">
        <ele>108.4</ele>
        <time>2024-05-10T13:03:27Z</time>
      </trkpt>
      <trkpt lat="43.10195" lon="2.77379">
        <ele>108.4</ele>
        <time>2024-05-10T13:03:28Z</time>
      </trkpt>
      <trkpt lat="43.10195" lon="2.77379">
        <ele>108.4</ele>
        <time>2024-05-10T13:03:29Z</time>
      </trkpt>
      <trkpt lat="43.10195" lon="2.77379">
        <ele>108.4</ele>
        <time>2024-05-10T13:03:30Z</time>
      </trkpt>
      <trkpt lat="43.10195" lon="2.77379">
        <ele>108.4</ele>
        <time>2024-05-10T13:03:31Z</time>
      </trkpt>
      <trkpt lat="43.10195" lon="2.77379">
        <ele>108.4</ele>
        <time>2024-05-10T13:03:32Z</time>
      </trkpt>
      <trkpt lat="43.10195" lon="2.77379">
        <ele>108.4</ele>
        <time>2024-05-10T13:03:33Z</time>
      </trkpt>
      <trkpt lat="43.10195" lon="2.77379">
        <ele>108.4</ele>
        <time>2024-05-10T13:03:34Z</time>
      </trkpt>
      <trkpt lat="43.10195" lon="2.77379">
        <ele>108.4</ele>
        <time>2024-05-10T13:03:35Z</time>
      </trkpt>
      <trkpt lat="43.10195" lon="2.77379">
        <ele>108.4</ele>
        <time>2024-05-10T13:03:36Z</time>
      </trkpt>
      <trkpt lat="43.10195" lon="2.77379">
        <ele>108.4</ele>
        <time>2024-05-10T13:03:37Z</time>
      </trkpt>
      <trkpt lat="43.10195" lon="2.77379">
        <ele>108.4</ele>
        <time>2024-05-10T13:03:38Z</time>
      </trkpt>
      <trkpt lat="43.10195" lon="2.77379">
        <ele>108.4</ele>
        <time>2024-05-10T13:03:39Z</time>
      </trkpt>
      <trkpt lat="43.10195" lon="2.77379">
        <ele>108.4</ele>
        <time>2024-05-10T13:03:40Z</time>
      </trkpt>
      <trkpt lat="43.10195" lon="2.77379">
        <ele>108.4</ele>
        <time>2024-05-10T13:03:41Z</time>
      </trkpt>
      <trkpt lat="43.10195" lon="2.77379">
        <ele>108.4</ele>
        <time>2024-05-10T13:03:42Z</time>
      </trkpt>
      <trkpt lat="43.10195" lon="2.77379">
        <ele>108.4</ele>
        <time>2024-05-10T13:03:43Z</time>
      </trkpt>
      <trkpt lat="43.10195" lon="2.77379">
        <ele>108.4</ele>
        <time>2024-05-10T13:03:44Z</time>
      </trkpt>
      <trkpt lat="43.10195" lon="2.77379">
        <ele>108.4</ele>
        <time>2024-05-10T13:03:45Z</time>
      </trkpt>
      <trkpt lat="43.10195" lon="2.77379">
        <ele>108.4</ele>
        <time>2024-05-10T13:03:46Z</time>
      </trkpt>
      <trkpt lat="43.10195" lon="2.77379">
        <ele>108.4</ele>
        <time>2024-05-10T13:03:47Z</time>
      </trkpt>
      <trkpt lat="43.10195" lon="2.77379">
        <ele>108.4</ele>
        <time>2024-05-10T13:03:48Z</time>
      </trkpt>
      <trkpt lat="43.10195" lon="2.77379">
        <ele>108.4</ele>
        <time>2024-05-10T13:03:49Z</time>
      </trkpt>
      <trkpt lat="43.10195" lon="2.77379">
        <ele>108.4</ele>
        <time>2024-05-10T13:03:50Z</time>
      </trkpt>
      <trkpt lat="43.10195" lon="2.77379">
        <ele>108.4</ele>
        <time>2024-05-10T13:03:51Z</time>
      </trkpt>
      <trkpt lat="43.10195" lon="2.77379">
        <ele>108.4</ele>
        <time>2024-05-10T13:03:52Z</time>
      </trkpt>
      <trkpt lat="43.10195" lon="2.77379">
        <ele>108.4</ele>
        <time>2024-05-10T13:03:53Z</time>
      </trkpt>
      <trkpt lat="43.10195" lon="2.77379">
        <ele>108.4</ele>
        <time>2024-05-10T13:03:54Z</time>
      </trkpt>
      <trkpt lat="43.10195" lon="2.77379">
        <ele>108.4</ele>
        <time>2024-05-10T13:03:55Z</time>
      </trkpt>
      <trkpt lat="43.10195" lon="2.77379">
        <ele>108.4</ele>
        <time>2024-05-10T13:03:56Z</time>
      </trkpt>
      <trkpt lat="43.10195" lon="2.77379">
        <ele>108.4</ele>
        <time>2024-05-10T13:03:57Z</time>
      </trkpt>
      <trkpt lat="43.10195" lon="2.77379">
        <ele>108.4</ele>
        <time>2024-05-10T13:03:58Z</time>
      </trkpt>
      <trkpt lat="43.10195" lon="2.77379">
        <ele>108.4</ele>
        <time>2024-05-10T13:03:59Z</time>
      </trkpt>
      <trkpt lat="43.10195" lon="2.77379">
        <ele>108.4</ele>
        <time>2024-05-10T13:04:00Z</time>
      </trkpt>
      <trkpt lat="43.10195" lon="2.77379">
        <ele>108.4</ele>
        <time>2024-05-10T13:04:01Z</time>
      </trkpt>
      <trkpt lat="43.10195" lon="2.77379">
        <ele>108.4</ele>
        <time>2024-05-10T13:04:02Z</time>
      </trkpt>
      <trkpt lat="43.10195" lon="2.77379">
        <ele>108.4</ele>
        <time>2024-05-10T13:04:03Z</time>
      </trkpt>
      <trkpt lat="43.10195" lon="2.77379">
        <ele>108.4</ele>
        <time>2024-05-10T13:04:04Z</time>
      </trkpt>
      <trkpt lat="43.10195" lon="2.77379">
        <ele>108.4</ele>
        <time>2024-05-10T13:04:05Z</time>
      </trkpt>
      <trkpt lat="43.10195" lon="2.77379">
        <ele>108.4</ele>
        <time>2024-05-10T13:04:06Z</time>
      </trkpt>
      <trkpt lat="43.10195" lon="2.77379">
        <ele>108.4</ele>
        <time>2024-05-10T13:04:07Z</time>
      </trkpt>
      <trkpt lat="43.10195" lon="2.77379">
        <ele>108.4</ele>
        <time>2024-05-10T13:04:08Z</time>
      </trkpt>
      <trkpt lat="43.10195" lon="2.77379">
        <ele>108.4</ele>
        <time>2024-05-10T13:04:09Z</time>
      </trkpt>
      <trkpt lat="43.10195" lon="2.77379">
        <ele>108.4</ele>
        <time>2024-05-10T13:04:10Z</time>
      </trkpt>
      <trkpt lat="43.10195" lon="2.77379">
        <ele>108.4</ele>
        <time>2024-05-10T13:04:11Z</time>
      </trkpt>
      <trkpt lat="43.10195" lon="2.77379">
        <ele>108.4</ele>
        <time>2024-05-10T13:04:12Z</time>
      </trkpt>
      <trkpt lat="43.10195" lon="2.77379">
        <ele>108.4</ele>
        <time>2024-05-10T13:04:13Z</time>
      </trkpt>
      <trkpt lat="43.10195" lon="2.77379">
        <ele>108.4</ele>
        <time>2024-05-10T13:04:14Z</time>
      </trkpt>
      <trkpt lat="43.10195" lon="2.77379">
        <ele>108.4</ele>
        <time>2024-05-10T13:04:15Z</time>
      </trkpt>
      <trkpt lat="43.10195" lon="2.77379">
        <ele>108.4</ele>
        <time>2024-05-10T13:04:16Z</time>
      </trkpt>
      <trkpt lat="43.10195" lon="2.77379">
        <ele>108.4</ele>
        <time>2024-05-10T13:04:17Z</time>
      </trkpt>
      <trkpt lat="43.10195" lon="2.77379">
        <ele>108.4</ele>
        <time>2024-05-10T13:04:18Z</time>
      </trkpt>
      <trkpt lat="43.10195" lon="2.77379">
        <ele>108.4</ele>
        <time>2024-05-10T13:04:19Z</time>
      </trkpt>
      <trkpt lat="43.10195" lon="2.77379">
        <ele>108.4</ele>
        <time>2024-05-10T13:04:20Z</time>
      </trkpt>
      <trkpt lat="43.10195" lon="2.77379">
        <ele>108.4</ele>
        <time>2024-05-10T13:04:21Z</time>
      </trkpt>
      <trkpt lat="43.10195" lon="2.77379">
        <ele>108.4</ele>
        <time>2024-05-10T13:04:22Z</time>
      </trkpt>
      <trkpt lat="43.10195" lon="2.77379">
        <ele>108.4</ele>
        <time>2024-05-10T13:04:23Z</time>
      </trkpt>
      <trkpt lat="43.10195" lon="2.77379">
        <ele>108.4</ele>
        <time>2024-05-10T13:04:24Z</time>
      </trkpt>
      <trkpt lat="43.10195" lon="2.77379">
        <ele>108.4</ele>
        <time>2024-05-10T13:04:25Z</time>
      </trkpt>
      <trkpt lat="43.10195" lon="2.77379">
        <ele>108.4</ele>
        <time>2024-05-10T13:04:26Z</time>
      </trkpt>
      <trkpt lat="43.10195" lon="2.77379">
        <ele>108.4</ele>
        <time>2024-05-10T13:04:27Z</time>
      </trkpt>
      <trkpt lat="43.10195" lon="2.77379">
        <ele>108.4</ele>
        <time>2024-05-10T13:04:28Z</time>
      </trkpt>
      <trkpt lat="43.10195" lon="2.77379">
        <ele>108.4</ele>
        <time>2024-05-10T13:04:29Z</time>
      </trkpt>
      <trkpt lat="43.10195" lon="2.77379">
        <ele>108.4</ele>
        <time>2024-05-10T13:04:30Z</time>
      </trkpt>
      <trkpt lat="43.10195" lon="2.77379">
        <ele>108.4</ele>
        <time>2024-05-10T13:04:31Z</time>
      </trkpt>
      <trkpt lat="43.10195" lon="2.77379">
        <ele>108.4</ele>
        <time>2024-05-10T13:04:32Z</time>
      </trkpt>
      <trkpt lat="43.10195" lon="2.77379">
        <ele>108.4</ele>
        <time>2024-05-10T13:04:33Z</time>
      </trkpt>
      <trkpt lat="43.10195" lon="2.77379">
        <ele>108.4</ele>
        <time>2024-05-10T13:04:34Z</time>
      </trkpt>
      <trkpt lat="43.10195" lon="2.77379">
        <ele>108.4</ele>
        <time>2024-05-10T13:04:35Z</time>
      </trkpt>
      <trkpt lat="43.10195" lon="2.77379">
        <ele>108.4</ele>
        <time>2024-05-10T13:04:36Z</time>
      </trkpt>
      <trkpt lat="43.10195" lon="2.77379">
        <ele>108.4</ele>
        <time>2024-05-10T13:04:37Z</time>
      </trkpt>
      <trkpt lat="43.10194" lon="2.77379">
        <ele>108.4</ele>
        <time>2024-05-10T13:06:06Z</time>
      </trkpt>
      <trkpt lat="43.10194" lon="2.77378">
        <ele>108.4</ele>
        <time>2024-05-10T13:06:07Z</time>
      </trkpt>
      <trkpt lat="43.10197" lon="2.77383">
        <ele>108.3</ele>
        <time>2024-05-10T13:06:08Z</time>
      </trkpt>
      <trkpt lat="43.10195" lon="2.77379">
        <ele>108.4</ele>
        <time>2024-05-10T13:06:09Z</time>
      </trkpt>
      <trkpt lat="43.10196" lon="2.77379">
        <ele>108.4</ele>
        <time>2024-05-10T13:06:10Z</time>
      </trkpt>
      <trkpt lat="43.10197" lon="2.7738">
        <ele>108.4</ele>
        <time>2024-05-10T13:06:11Z</time>
      </trkpt>
      <trkpt lat="43.10199" lon="2.7738">
        <ele>108.4</ele>
        <time>2024-05-10T13:06:12Z</time>
      </trkpt>
      <trkpt lat="43.102" lon="2.7738">
        <ele>108.5</ele>
        <time>2024-05-10T13:06:13Z</time>
      </trkpt>
      <trkpt lat="43.102" lon="2.77381">
        <ele>108.4</ele>
        <time>2024-05-10T13:06:14Z</time>
      </trkpt>
      <trkpt lat="43.10201" lon="2.77381">
        <ele>108.5</ele>
        <time>2024-05-10T13:06:15Z</time>
      </trkpt>
      <trkpt lat="43.10201" lon="2.77381">
        <ele>108.5</ele>
        <time>2024-05-10T13:06:16Z</time>
      </trkpt>
      <trkpt lat="43.10201" lon="2.77381">
        <ele>108.5</ele>
        <time>2024-05-10T13:06:17Z</time>
      </trkpt>
      <trkpt lat="43.10201" lon="2.77382">
        <ele>108.4</ele>
        <time>2024-05-10T13:06:18Z</time>
      </trkpt>
      <trkpt lat="43.10202" lon="2.77382">
        <ele>108.5</ele>
        <time>2024-05-10T13:06:19Z</time>
      </trkpt>
      <trkpt lat="43.10202" lon="2.77382">
        <ele>108.5</ele>
        <time>2024-05-10T13:06:20Z</time>
      </trkpt>
      <trkpt lat="43.10202" lon="2.77382">
        <ele>108.5</ele>
        <time>2024-05-10T13:06:21Z</time>
      </trkpt>
      <trkpt lat="43.10202" lon="2.77382">
        <ele>108.5</ele>
        <time>2024-05-10T13:06:22Z</time>
      </trkpt>
      <trkpt lat="43.10203" lon="2.77382">
        <ele>108.5</ele>
        <time>2024-05-10T13:06:23Z</time>
      </trkpt>
      <trkpt lat="43.10203" lon="2.77382">
        <ele>108.5</ele>
        <time>2024-05-10T13:06:24Z</time>
      </trkpt>
      <trkpt lat="43.10203" lon="2.77382">
        <ele>108.5</ele>
        <time>2024-05-10T13:06:25Z</time>
      </trkpt>
      <trkpt lat="43.10203" lon="2.77382">
        <ele>108.5</ele>
        <time>2024-05-10T13:06:26Z</time>
      </trkpt>
      <trkpt lat="43.10203" lon="2.77382">
        <ele>108.5</ele>
        <time>2024-05-10T13:06:27Z</time>
      </trkpt>
      <trkpt lat="43.10203" lon="2.77382">
        <ele>108.5</ele>
        <time>2024-05-10T13:06:28Z</time>
      </trkpt>
      <trkpt lat="43.10203" lon="2.77382">
        <ele>108.5</ele>
        <time>2024-05-10T13:06:29Z</time>
      </trkpt>
      <trkpt lat="43.10203" lon="2.77382">
        <ele>108.5</ele>
        <time>2024-05-10T13:06:30Z</time>
      </trkpt>
      <trkpt lat="43.10203" lon="2.77382">
        <ele>108.5</ele>
        <time>2024-05-10T13:06:31Z</time>
      </trkpt>
      <trkpt lat="43.10203" lon="2.77382">
        <ele>108.5</ele>
        <time>2024-05-10T13:06:32Z</time>
      </trkpt>
      <trkpt lat="43.10203" lon="2.77382">
        <ele>108.5</ele>
        <time>2024-05-10T13:06:33Z</time>
      </trkpt>
      <trkpt lat="43.10203" lon="2.77382">
        <ele>108.5</ele>
        <time>2024-05-10T13:06:34Z</time>
      </trkpt>
      <trkpt lat="43.10203" lon="2.77382">
        <ele>108.5</ele>
        <time>2024-05-10T13:06:35Z</time>
      </trkpt>
      <trkpt lat="43.10203" lon="2.77382">
        <ele>108.5</ele>
        <time>2024-05-10T13:06:36Z</time>
      </trkpt>
      <trkpt lat="43.10203" lon="2.77382">
        <ele>108.5</ele>
        <time>2024-05-10T13:06:37Z</time>
      </trkpt>
      <trkpt lat="43.10203" lon="2.77382">
        <ele>108.5</ele>
        <time>2024-05-10T13:06:38Z</time>
      </trkpt>
      <trkpt lat="43.10203" lon="2.77382">
        <ele>108.5</ele>
        <time>2024-05-10T13:06:39Z</time>
      </trkpt>
      <trkpt lat="43.10203" lon="2.77382">
        <ele>108.5</ele>
        <time>2024-05-10T13:06:40Z</time>
      </trkpt>
      <trkpt lat="43.10203" lon="2.77382">
        <ele>108.5</ele>
        <time>2024-05-10T13:06:41Z</time>
      </trkpt>
      <trkpt lat="43.10203" lon="2.77382">
        <ele>108.5</ele>
        <time>2024-05-10T13:06:42Z</time>
      </trkpt>
      <trkpt lat="43.10203" lon="2.77382">
        <ele>108.5</ele>
        <time>2024-05-10T13:06:43Z</time>
      </trkpt>
      <trkpt lat="43.10203" lon="2.77381">
        <ele>108.5</ele>
        <time>2024-05-10T13:06:44Z</time>
      </trkpt>
      <trkpt lat="43.10204" lon="2.7738">
        <ele>108.6</ele>
        <time>2024-05-10T13:06:45Z</time>
      </trkpt>
      <trkpt lat="43.10206" lon="2.77378">
        <ele>108.6</ele>
        <time>2024-05-10T13:06:46Z</time>
      </trkpt>
      <trkpt lat="43.10211" lon="2.77371">
        <ele>108.9</ele>
        <time>2024-05-10T13:06:47Z</time>
      </trkpt>
      <trkpt lat="43.10217" lon="2.77364">
        <ele>109</ele>
        <time>2024-05-10T13:06:48Z</time>
      </trkpt>
      <trkpt lat="43.10223" lon="2.77356">
        <ele>109.2</ele>
        <time>2024-05-10T13:06:49Z</time>
      </trkpt>
      <trkpt lat="43.10228" lon="2.77348">
        <ele>109.8</ele>
        <time>2024-05-10T13:06:50Z</time>
      </trkpt>
      <trkpt lat="43.10234" lon="2.7734">
        <ele>110.3</ele>
        <time>2024-05-10T13:06:51Z</time>
      </trkpt>
      <trkpt lat="43.1024" lon="2.7733">
        <ele>110.7</ele>
        <time>2024-05-10T13:06:52Z</time>
      </trkpt>
      <trkpt lat="43.10247" lon="2.77321">
        <ele>111</ele>
        <time>2024-05-10T13:06:53Z</time>
      </trkpt>
      <trkpt lat="43.10253" lon="2.77312">
        <ele>111.1</ele>
        <time>2024-05-10T13:06:54Z</time>
      </trkpt>
      <trkpt lat="43.10258" lon="2.77304">
        <ele>111.4</ele>
        <time>2024-05-10T13:06:55Z</time>
      </trkpt>
      <trkpt lat="43.10262" lon="2.77298">
        <ele>111.6</ele>
        <time>2024-05-10T13:06:56Z</time>
      </trkpt>
      <trkpt lat="43.10264" lon="2.77294">
        <ele>111.7</ele>
        <time>2024-05-10T13:06:57Z</time>
      </trkpt>
      <trkpt lat="43.10266" lon="2.7729">
        <ele>111.7</ele>
        <time>2024-05-10T13:06:58Z</time>
      </trkpt>
      <trkpt lat="43.10268" lon="2.77286">
        <ele>111.7</ele>
        <time>2024-05-10T13:06:59Z</time>
      </trkpt>
      <trkpt lat="43.10271" lon="2.77281">
        <ele>111.5</ele>
        <time>2024-05-10T13:07:00Z</time>
      </trkpt>
      <trkpt lat="43.10274" lon="2.77275">
        <ele>111.3</ele>
        <time>2024-05-10T13:07:01Z</time>
      </trkpt>
      <trkpt lat="43.10279" lon="2.77268">
        <ele>111</ele>
        <time>2024-05-10T13:07:02Z</time>
      </trkpt>
      <trkpt lat="43.10285" lon="2.77259">
        <ele>110.7</ele>
        <time>2024-05-10T13:07:03Z</time>
      </trkpt>
      <trkpt lat="43.10291" lon="2.77249">
        <ele>110.6</ele>
        <time>2024-05-10T13:07:04Z</time>
      </trkpt>
      <trkpt lat="43.10297" lon="2.77239">
        <ele>110.7</ele>
        <time>2024-05-10T13:07:05Z</time>
      </trkpt>
      <trkpt lat="43.10304" lon="2.77229">
        <ele>110.8</ele>
        <time>2024-05-10T13:07:06Z</time>
      </trkpt>
      <trkpt lat="43.1031" lon="2.77219">
        <ele>110.6</ele>
        <time>2024-05-10T13:07:07Z</time>
      </trkpt>
      <trkpt lat="43.10317" lon="2.77208">
        <ele>110.2</ele>
        <time>2024-05-10T13:07:08Z</time>
      </trkpt>
      <trkpt lat="43.10324" lon="2.77199">
        <ele>110.1</ele>
        <time>2024-05-10T13:07:09Z</time>
      </trkpt>
      <trkpt lat="43.1033" lon="2.77188">
        <ele>110.3</ele>
        <time>2024-05-10T13:07:10Z</time>
      </trkpt>
      <trkpt lat="43.10335" lon="2.77178">
        <ele>110.4</ele>
        <time>2024-05-10T13:07:11Z</time>
      </trkpt>
      <trkpt lat="43.1034" lon="2.77167">
        <ele>110.3</ele>
        <time>2024-05-10T13:07:12Z</time>
      </trkpt>
      <trkpt lat="43.10343" lon="2.77156">
        <ele>110.1</ele>
        <time>2024-05-10T13:07:13Z</time>
      </trkpt>
      <trkpt lat="43.10344" lon="2.77143">
        <ele>110.2</ele>
        <time>2024-05-10T13:07:14Z</time>
      </trkpt>
      <trkpt lat="43.10345" lon="2.7713">
        <ele>110.3</ele>
        <time>2024-05-10T13:07:15Z</time>
      </trkpt>
      <trkpt lat="43.10346" lon="2.77116">
        <ele>110.5</ele>
        <time>2024-05-10T13:07:16Z</time>
      </trkpt>
      <trkpt lat="43.10347" lon="2.77101">
        <ele>110.7</ele>
        <time>2024-05-10T13:07:17Z</time>
      </trkpt>
      <trkpt lat="43.10347" lon="2.77088">
        <ele>110.9</ele>
        <time>2024-05-10T13:07:18Z</time>
      </trkpt>
      <trkpt lat="43.10347" lon="2.77075">
        <ele>111.2</ele>
        <time>2024-05-10T13:07:19Z</time>
      </trkpt>
      <trkpt lat="43.10347" lon="2.77063">
        <ele>111.4</ele>
        <time>2024-05-10T13:07:20Z</time>
      </trkpt>
      <trkpt lat="43.10347" lon="2.77051">
        <ele>111.5</ele>
        <time>2024-05-10T13:07:21Z</time>
      </trkpt>
      <trkpt lat="43.10347" lon="2.7704">
        <ele>111.5</ele>
        <time>2024-05-10T13:07:22Z</time>
      </trkpt>
      <trkpt lat="43.10347" lon="2.77029">
        <ele>111.5</ele>
        <time>2024-05-10T13:07:23Z</time>
      </trkpt>
      <trkpt lat="43.10348" lon="2.77018">
        <ele>111.3</ele>
        <time>2024-05-10T13:07:24Z</time>
      </trkpt>
      <trkpt lat="43.10349" lon="2.77007">
        <ele>111</ele>
        <time>2024-05-10T13:07:25Z</time>
      </trkpt>
      <trkpt lat="43.10351" lon="2.76995">
        <ele>110.7</ele>
        <time>2024-05-10T13:07:26Z</time>
      </trkpt>
      <trkpt lat="43.10353" lon="2.76983">
        <ele>110.6</ele>
        <time>2024-05-10T13:07:27Z</time>
      </trkpt>
      <trkpt lat="43.10353" lon="2.76971">
        <ele>110.6</ele>
        <time>2024-05-10T13:07:28Z</time>
      </trkpt>
      <trkpt lat="43.10354" lon="2.7696">
        <ele>110.8</ele>
        <time>2024-05-10T13:07:29Z</time>
      </trkpt>
      <trkpt lat="43.10355" lon="2.7695">
        <ele>111.1</ele>
        <time>2024-05-10T13:07:30Z</time>
      </trkpt>
      <trkpt lat="43.10357" lon="2.76941">
        <ele>111.1</ele>
        <time>2024-05-10T13:07:31Z</time>
      </trkpt>
      <trkpt lat="43.10359" lon="2.76932">
        <ele>111</ele>
        <time>2024-05-10T13:07:32Z</time>
      </trkpt>
      <trkpt lat="43.10361" lon="2.76924">
        <ele>111</ele>
        <time>2024-05-10T13:07:33Z</time>
      </trkpt>
      <trkpt lat="43.10362" lon="2.76915">
        <ele>110.9</ele>
        <time>2024-05-10T13:07:34Z</time>
      </trkpt>
      <trkpt lat="43.10363" lon="2.76908">
        <ele>110.8</ele>
        <time>2024-05-10T13:07:35Z</time>
      </trkpt>
      <trkpt lat="43.10365" lon="2.769">
        <ele>110.6</ele>
        <time>2024-05-10T13:07:36Z</time>
      </trkpt>
      <trkpt lat="43.10368" lon="2.76891">
        <ele>110</ele>
        <time>2024-05-10T13:07:37Z</time>
      </trkpt>
      <trkpt lat="43.10372" lon="2.76882">
        <ele>109.3</ele>
        <time>2024-05-10T13:07:38Z</time>
      </trkpt>
      <trkpt lat="43.10376" lon="2.76872">
        <ele>108.9</ele>
        <time>2024-05-10T13:07:39Z</time>
      </trkpt>
      <trkpt lat="43.10379" lon="2.76862">
        <ele>109</ele>
        <time>2024-05-10T13:07:40Z</time>
      </trkpt>
      <trkpt lat="43.10383" lon="2.76851">
        <ele>109.7</ele>
        <time>2024-05-10T13:07:41Z</time>
      </trkpt>
      <trkpt lat="43.10387" lon="2.76839">
        <ele>110.6</ele>
        <time>2024-05-10T13:07:42Z</time>
      </trkpt>
      <trkpt lat="43.10392" lon="2.76827">
        <ele>111</ele>
        <time>2024-05-10T13:07:43Z</time>
      </trkpt>
      <trkpt lat="43.10396" lon="2.76815">
        <ele>111.3</ele>
        <time>2024-05-10T13:07:44Z</time>
      </trkpt>
      <trkpt lat="43.10401" lon="2.76804">
        <ele>111.6</ele>
        <time>2024-05-10T13:07:45Z</time>
      </trkpt>
      <trkpt lat="43.10405" lon="2.76792">
        <ele>111.8</ele>
        <time>2024-05-10T13:07:46Z</time>
      </trkpt>
      <trkpt lat="43.1041" lon="2.76779">
        <ele>112.5</ele>
        <time>2024-05-10T13:07:47Z</time>
      </trkpt>
      <trkpt lat="43.10415" lon="2.76767">
        <ele>112.9</ele>
        <time>2024-05-10T13:07:48Z</time>
      </trkpt>
      <trkpt lat="43.1042" lon="2.76754">
        <ele>113</ele>
        <time>2024-05-10T13:07:49Z</time>
      </trkpt>
      <trkpt lat="43.10425" lon="2.76742">
        <ele>113.1</ele>
        <time>2024-05-10T13:07:50Z</time>
      </trkpt>
      <trkpt lat="43.1043" lon="2.76728">
        <ele>113.4</ele>
        <time>2024-05-10T13:07:51Z</time>
      </trkpt>
      <trkpt lat="43.10435" lon="2.76714">
        <ele>113.8</ele>
        <time>2024-05-10T13:07:52Z</time>
      </trkpt>
      <trkpt lat="43.1044" lon="2.76701">
        <ele>114</ele>
        <time>2024-05-10T13:07:53Z</time>
      </trkpt>
      <trkpt lat="43.10444" lon="2.76689">
        <ele>114.2</ele>
        <time>2024-05-10T13:07:54Z</time>
      </trkpt>
      <trkpt lat="43.10449" lon="2.76678">
        <ele>114.5</ele>
        <time>2024-05-10T13:07:55Z</time>
      </trkpt>
      <trkpt lat="43.10454" lon="2.76666">
        <ele>114.7</ele>
        <time>2024-05-10T13:07:56Z</time>
      </trkpt>
      <trkpt lat="43.10458" lon="2.76654">
        <ele>115</ele>
        <time>2024-05-10T13:07:57Z</time>
      </trkpt>
      <trkpt lat="43.10464" lon="2.76641">
        <ele>114.8</ele>
        <time>2024-05-10T13:07:58Z</time>
      </trkpt>
      <trkpt lat="43.10469" lon="2.76628">
        <ele>114.7</ele>
        <time>2024-05-10T13:07:59Z</time>
      </trkpt>
      <trkpt lat="43.10474" lon="2.76614">
        <ele>114.8</ele>
        <time>2024-05-10T13:08:00Z</time>
      </trkpt>
      <trkpt lat="43.1048" lon="2.76599">
        <ele>115</ele>
        <time>2024-05-10T13:08:01Z</time>
      </trkpt>
      <trkpt lat="43.10487" lon="2.76584">
        <ele>114.9</ele>
        <time>2024-05-10T13:08:02Z</time>
      </trkpt>
      <trkpt lat="43.10493" lon="2.76568">
        <ele>114.5</ele>
        <time>2024-05-10T13:08:03Z</time>
      </trkpt>
      <trkpt lat="43.105" lon="2.76553">
        <ele>114</ele>
        <time>2024-05-10T13:08:04Z</time>
      </trkpt>
      <trkpt lat="43.10508" lon="2.76536">
        <ele>113.5</ele>
        <time>2024-05-10T13:08:05Z</time>
      </trkpt>
      <trkpt lat="43.10516" lon="2.76519">
        <ele>112.8</ele>
        <time>2024-05-10T13:08:06Z</time>
      </trkpt>
      <trkpt lat="43.10526" lon="2.765">
        <ele>112.1</ele>
        <time>2024-05-10T13:08:07Z</time>
      </trkpt>
      <trkpt lat="43.10537" lon="2.7648">
        <ele>111.7</ele>
        <time>2024-05-10T13:08:08Z</time>
      </trkpt>
      <trkpt lat="43.10548" lon="2.76458">
        <ele>111.3</ele>
        <time>2024-05-10T13:08:09Z</time>
      </trkpt>
      <trkpt lat="43.1056" lon="2.76435">
        <ele>111.3</ele>
        <time>2024-05-10T13:08:10Z</time>
      </trkpt>
      <trkpt lat="43.10572" lon="2.76412">
        <ele>111.3</ele>
        <time>2024-05-10T13:08:11Z</time>
      </trkpt>
      <trkpt lat="43.10585" lon="2.76388">
        <ele>109.9</ele>
        <time>2024-05-10T13:08:12Z</time>
      </trkpt>
      <trkpt lat="43.10598" lon="2.76363">
        <ele>107.6</ele>
        <time>2024-05-10T13:08:13Z</time>
      </trkpt>
      <trkpt lat="43.10612" lon="2.76337">
        <ele>108.6</ele>
        <time>2024-05-10T13:08:14Z</time>
      </trkpt>
      <trkpt lat="43.10626" lon="2.7631">
        <ele>107</ele>
        <time>2024-05-10T13:08:15Z</time>
      </trkpt>
      <trkpt lat="43.10641" lon="2.76283">
        <ele>106.7</ele>
        <time>2024-05-10T13:08:16Z</time>
      </trkpt>
      <trkpt lat="43.10656" lon="2.76256">
        <ele>106.7</ele>
        <time>2024-05-10T13:08:17Z</time>
      </trkpt>
      <trkpt lat="43.1067" lon="2.76229">
        <ele>105.9</ele>
        <time>2024-05-10T13:08:18Z</time>
      </trkpt>
      <trkpt lat="43.10684" lon="2.76201">
        <ele>106.1</ele>
        <time>2024-05-10T13:08:19Z</time>
      </trkpt>
      <trkpt lat="43.10699" lon="2.76174">
        <ele>105.8</ele>
        <time>2024-05-10T13:08:20Z</time>
      </trkpt>
      <trkpt lat="43.10714" lon="2.76146">
        <ele>105.3</ele>
        <time>2024-05-10T13:08:21Z</time>
      </trkpt>
      <trkpt lat="43.10729" lon="2.76118">
        <ele>104.8</ele>
        <time>2024-05-10T13:08:22Z</time>
      </trkpt>
      <trkpt lat="43.10744" lon="2.7609">
        <ele>103.6</ele>
        <time>2024-05-10T13:08:23Z</time>
      </trkpt>
      <trkpt lat="43.10759" lon="2.76062">
        <ele>102.7</ele>
        <time>2024-05-10T13:08:24Z</time>
      </trkpt>
      <trkpt lat="43.10773" lon="2.76035">
        <ele>102.2</ele>
        <time>2024-05-10T13:08:25Z</time>
      </trkpt>
      <trkpt lat="43.10786" lon="2.76009">
        <ele>101.7</ele>
        <time>2024-05-10T13:08:26Z</time>
      </trkpt>
      <trkpt lat="43.10801" lon="2.75983">
        <ele>101.2</ele>
        <time>2024-05-10T13:08:27Z</time>
      </trkpt>
      <trkpt lat="43.10816" lon="2.75959">
        <ele>100.6</ele>
        <time>2024-05-10T13:08:28Z</time>
      </trkpt>
      <trkpt lat="43.10834" lon="2.75936">
        <ele>100</ele>
        <time>2024-05-10T13:08:29Z</time>
      </trkpt>
      <trkpt lat="43.10854" lon="2.75915">
        <ele>99.3</ele>
        <time>2024-05-10T13:08:30Z</time>
      </trkpt>
      <trkpt lat="43.10874" lon="2.75896">
        <ele>98.7</ele>
        <time>2024-05-10T13:08:31Z</time>
      </trkpt>
      <trkpt lat="43.10893" lon="2.75877">
        <ele>97.9</ele>
        <time>2024-05-10T13:08:32Z</time>
      </trkpt>
      <trkpt lat="43.10912" lon="2.75859">
        <ele>97.2</ele>
        <time>2024-05-10T13:08:33Z</time>
      </trkpt>
      <trkpt lat="43.1093" lon="2.75841">
        <ele>95.8</ele>
        <time>2024-05-10T13:08:34Z</time>
      </trkpt>
      <trkpt lat="43.10948" lon="2.75824">
        <ele>94.9</ele>
        <time>2024-05-10T13:08:35Z</time>
      </trkpt>
      <trkpt lat="43.10966" lon="2.75808">
        <ele>96.7</ele>
        <time>2024-05-10T13:08:36Z</time>
      </trkpt>
      <trkpt lat="43.10982" lon="2.75792">
        <ele>96.8</ele>
        <time>2024-05-10T13:08:37Z</time>
      </trkpt>
      <trkpt lat="43.10996" lon="2.75778">
        <ele>97</ele>
        <time>2024-05-10T13:08:38Z</time>
      </trkpt>
      <trkpt lat="43.11008" lon="2.75766">
        <ele>97</ele>
        <time>2024-05-10T13:08:39Z</time>
      </trkpt>
      <trkpt lat="43.1102" lon="2.75756">
        <ele>97.4</ele>
        <time>2024-05-10T13:08:40Z</time>
      </trkpt>
      <trkpt lat="43.1103" lon="2.75747">
        <ele>98</ele>
        <time>2024-05-10T13:08:41Z</time>
      </trkpt>
      <trkpt lat="43.11039" lon="2.75737">
        <ele>98</ele>
        <time>2024-05-10T13:08:42Z</time>
      </trkpt>
      <trkpt lat="43.11045" lon="2.75723">
        <ele>98</ele>
        <time>2024-05-10T13:08:43Z</time>
      </trkpt>
      <trkpt lat="43.11048" lon="2.75706">
        <ele>98</ele>
        <time>2024-05-10T13:08:44Z</time>
      </trkpt>
      <trkpt lat="43.11047" lon="2.75686">
        <ele>97.8</ele>
        <time>2024-05-10T13:08:45Z</time>
      </trkpt>
      <trkpt lat="43.11044" lon="2.75664">
        <ele>97.5</ele>
        <time>2024-05-10T13:08:46Z</time>
      </trkpt>
      <trkpt lat="43.11039" lon="2.7564">
        <ele>98.6</ele>
        <time>2024-05-10T13:08:47Z</time>
      </trkpt>
      <trkpt lat="43.11033" lon="2.75614">
        <ele>98.8</ele>
        <time>2024-05-10T13:08:48Z</time>
      </trkpt>
      <trkpt lat="43.11027" lon="2.75586">
        <ele>99</ele>
        <time>2024-05-10T13:08:49Z</time>
      </trkpt>
      <trkpt lat="43.1102" lon="2.75556">
        <ele>99.3</ele>
        <time>2024-05-10T13:08:50Z</time>
      </trkpt>
      <trkpt lat="43.11014" lon="2.75528">
        <ele>99.5</ele>
        <time>2024-05-10T13:08:51Z</time>
      </trkpt>
      <trkpt lat="43.11007" lon="2.75499">
        <ele>100</ele>
        <time>2024-05-10T13:08:52Z</time>
      </trkpt>
      <trkpt lat="43.11" lon="2.75469">
        <ele>100.9</ele>
        <time>2024-05-10T13:08:53Z</time>
      </trkpt>
      <trkpt lat="43.10994" lon="2.75438">
        <ele>100.2</ele>
        <time>2024-05-10T13:08:54Z</time>
      </trkpt>
      <trkpt lat="43.10987" lon="2.75408">
        <ele>100.7</ele>
        <time>2024-05-10T13:08:55Z</time>
      </trkpt>
      <trkpt lat="43.10981" lon="2.75379">
        <ele>100.9</ele>
        <time>2024-05-10T13:08:56Z</time>
      </trkpt>
      <trkpt lat="43.10974" lon="2.75349">
        <ele>101</ele>
        <time>2024-05-10T13:08:57Z</time>
      </trkpt>
      <trkpt lat="43.10967" lon="2.75318">
        <ele>100.9</ele>
        <time>2024-05-10T13:08:58Z</time>
      </trkpt>
      <trkpt lat="43.10961" lon="2.75286">
        <ele>101</ele>
        <time>2024-05-10T13:08:59Z</time>
      </trkpt>
      <trkpt lat="43.10953" lon="2.75254">
        <ele>101.3</ele>
        <time>2024-05-10T13:09:00Z</time>
      </trkpt>
      <trkpt lat="43.10944" lon="2.75221">
        <ele>102</ele>
        <time>2024-05-10T13:09:01Z</time>
      </trkpt>
      <trkpt lat="43.10934" lon="2.75188">
        <ele>102</ele>
        <time>2024-05-10T13:09:02Z</time>
      </trkpt>
      <trkpt lat="43.10924" lon="2.75154">
        <ele>102</ele>
        <time>2024-05-10T13:09:03Z</time>
      </trkpt>
      <trkpt lat="43.10914" lon="2.75121">
        <ele>102.6</ele>
        <time>2024-05-10T13:09:04Z</time>
      </trkpt>
      <trkpt lat="43.10905" lon="2.75089">
        <ele>102.9</ele>
        <time>2024-05-10T13:09:05Z</time>
      </trkpt>
      <trkpt lat="43.10895" lon="2.75056">
        <ele>103.2</ele>
        <time>2024-05-10T13:09:06Z</time>
      </trkpt>
      <trkpt lat="43.10885" lon="2.75023">
        <ele>103.3</ele>
        <time>2024-05-10T13:09:07Z</time>
      </trkpt>
      <trkpt lat="43.10875" lon="2.7499">
        <ele>104</ele>
        <time>2024-05-10T13:09:08Z</time>
      </trkpt>
      <trkpt lat="43.10865" lon="2.74956">
        <ele>104.5</ele>
        <time>2024-05-10T13:09:09Z</time>
      </trkpt>
      <trkpt lat="43.10855" lon="2.74923">
        <ele>105</ele>
        <time>2024-05-10T13:09:10Z</time>
      </trkpt>
      <trkpt lat="43.10846" lon="2.74891">
        <ele>105</ele>
        <time>2024-05-10T13:09:11Z</time>
      </trkpt>
      <trkpt lat="43.10836" lon="2.74859">
        <ele>105.8</ele>
        <time>2024-05-10T13:09:12Z</time>
      </trkpt>
      <trkpt lat="43.10827" lon="2.74828">
        <ele>105.2</ele>
        <time>2024-05-10T13:09:13Z</time>
      </trkpt>
      <trkpt lat="43.10817" lon="2.74796">
        <ele>105.6</ele>
        <time>2024-05-10T13:09:14Z</time>
      </trkpt>
      <trkpt lat="43.10807" lon="2.74764">
        <ele>105.9</ele>
        <time>2024-05-10T13:09:15Z</time>
      </trkpt>
      <trkpt lat="43.10798" lon="2.74732">
        <ele>106</ele>
        <time>2024-05-10T13:09:16Z</time>
      </trkpt>
      <trkpt lat="43.10789" lon="2.74701">
        <ele>106.5</ele>
        <time>2024-05-10T13:09:17Z</time>
      </trkpt>
      <trkpt lat="43.1078" lon="2.74671">
        <ele>106.9</ele>
        <time>2024-05-10T13:09:18Z</time>
      </trkpt>
      <trkpt lat="43.10771" lon="2.74642">
        <ele>107</ele>
        <time>2024-05-10T13:09:19Z</time>
      </trkpt>
      <trkpt lat="43.10763" lon="2.74614">
        <ele>107</ele>
        <time>2024-05-10T13:09:20Z</time>
      </trkpt>
      <trkpt lat="43.10754" lon="2.74586">
        <ele>107</ele>
        <time>2024-05-10T13:09:21Z</time>
      </trkpt>
      <trkpt lat="43.10746" lon="2.74559">
        <ele>107.1</ele>
        <time>2024-05-10T13:09:22Z</time>
      </trkpt>
      <trkpt lat="43.10738" lon="2.74532">
        <ele>107.4</ele>
        <time>2024-05-10T13:09:23Z</time>
      </trkpt>
      <trkpt lat="43.1073" lon="2.74506">
        <ele>107.7</ele>
        <time>2024-05-10T13:09:24Z</time>
      </trkpt>
      <trkpt lat="43.10723" lon="2.74481">
        <ele>108</ele>
        <time>2024-05-10T13:09:25Z</time>
      </trkpt>
      <trkpt lat="43.10715" lon="2.74457">
        <ele>108.5</ele>
        <time>2024-05-10T13:09:26Z</time>
      </trkpt>
      <trkpt lat="43.10708" lon="2.74433">
        <ele>109</ele>
        <time>2024-05-10T13:09:27Z</time>
      </trkpt>
      <trkpt lat="43.10701" lon="2.74409">
        <ele>109</ele>
        <time>2024-05-10T13:09:28Z</time>
      </trkpt>
      <trkpt lat="43.10694" lon="2.74386">
        <ele>109</ele>
        <time>2024-05-10T13:09:29Z</time>
      </trkpt>
      <trkpt lat="43.10687" lon="2.74365">
        <ele>109</ele>
        <time>2024-05-10T13:09:30Z</time>
      </trkpt>
      <trkpt lat="43.10681" lon="2.74344">
        <ele>109</ele>
        <time>2024-05-10T13:09:31Z</time>
      </trkpt>
      <trkpt lat="43.10675" lon="2.74323">
        <ele>109.1</ele>
        <time>2024-05-10T13:09:32Z</time>
      </trkpt>
      <trkpt lat="43.10669" lon="2.74303">
        <ele>109.7</ele>
        <time>2024-05-10T13:09:33Z</time>
      </trkpt>
      <trkpt lat="43.10663" lon="2.74283">
        <ele>109.3</ele>
        <time>2024-05-10T13:09:34Z</time>
      </trkpt>
      <trkpt lat="43.10658" lon="2.74264">
        <ele>109.3</ele>
        <time>2024-05-10T13:09:35Z</time>
      </trkpt>
      <trkpt lat="43.10654" lon="2.74244">
        <ele>109.5</ele>
        <time>2024-05-10T13:09:36Z</time>
      </trkpt>
      <trkpt lat="43.10649" lon="2.74224">
        <ele>109.6</ele>
        <time>2024-05-10T13:09:37Z</time>
      </trkpt>
      <trkpt lat="43.10642" lon="2.74202">
        <ele>109.9</ele>
        <time>2024-05-10T13:09:38Z</time>
      </trkpt>
      <trkpt lat="43.10635" lon="2.74181">
        <ele>110.1</ele>
        <time>2024-05-10T13:09:39Z</time>
      </trkpt>
      <trkpt lat="43.10627" lon="2.74158">
        <ele>110.4</ele>
        <time>2024-05-10T13:09:40Z</time>
      </trkpt>
      <trkpt lat="43.10619" lon="2.74134">
        <ele>110.7</ele>
        <time>2024-05-10T13:09:41Z</time>
      </trkpt>
      <trkpt lat="43.10611" lon="2.74107">
        <ele>111</ele>
        <time>2024-05-10T13:09:42Z</time>
      </trkpt>
      <trkpt lat="43.10603" lon="2.74079">
        <ele>111</ele>
        <time>2024-05-10T13:09:43Z</time>
      </trkpt>
      <trkpt lat="43.10594" lon="2.7405">
        <ele>110.9</ele>
        <time>2024-05-10T13:09:44Z</time>
      </trkpt>
      <trkpt lat="43.10584" lon="2.74019">
        <ele>111</ele>
        <time>2024-05-10T13:09:45Z</time>
      </trkpt>
      <trkpt lat="43.10575" lon="2.73987">
        <ele>111.3</ele>
        <time>2024-05-10T13:09:46Z</time>
      </trkpt>
      <trkpt lat="43.10566" lon="2.73955">
        <ele>112</ele>
        <time>2024-05-10T13:09:47Z</time>
      </trkpt>
      <trkpt lat="43.10557" lon="2.73923">
        <ele>112.9</ele>
        <time>2024-05-10T13:09:48Z</time>
      </trkpt>
      <trkpt lat="43.10547" lon="2.73892">
        <ele>113.3</ele>
        <time>2024-05-10T13:09:49Z</time>
      </trkpt>
      <trkpt lat="43.10539" lon="2.73861">
        <ele>114.6</ele>
        <time>2024-05-10T13:09:50Z</time>
      </trkpt>
      <trkpt lat="43.1053" lon="2.73831">
        <ele>114.9</ele>
        <time>2024-05-10T13:09:51Z</time>
      </trkpt>
      <trkpt lat="43.10521" lon="2.73802">
        <ele>115.3</ele>
        <time>2024-05-10T13:09:52Z</time>
      </trkpt>
      <trkpt lat="43.10512" lon="2.73772">
        <ele>116</ele>
        <time>2024-05-10T13:09:53Z</time>
      </trkpt>
      <trkpt lat="43.10503" lon="2.73742">
        <ele>115.7</ele>
        <time>2024-05-10T13:09:54Z</time>
      </trkpt>
      <trkpt lat="43.10493" lon="2.73713">
        <ele>115</ele>
        <time>2024-05-10T13:09:55Z</time>
      </trkpt>
      <trkpt lat="43.1048" lon="2.73685">
        <ele>114.7</ele>
        <time>2024-05-10T13:09:56Z</time>
      </trkpt>
      <trkpt lat="43.10466" lon="2.73658">
        <ele>113.5</ele>
        <time>2024-05-10T13:09:57Z</time>
      </trkpt>
      <trkpt lat="43.10452" lon="2.7363">
        <ele>112.6</ele>
        <time>2024-05-10T13:09:58Z</time>
      </trkpt>
      <trkpt lat="43.10436" lon="2.73602">
        <ele>111.5</ele>
        <time>2024-05-10T13:09:59Z</time>
      </trkpt>
      <trkpt lat="43.10422" lon="2.73574">
        <ele>111.1</ele>
        <time>2024-05-10T13:10:00Z</time>
      </trkpt>
      <trkpt lat="43.10408" lon="2.73547">
        <ele>110</ele>
        <time>2024-05-10T13:10:01Z</time>
      </trkpt>
      <trkpt lat="43.10393" lon="2.7352">
        <ele>108.5</ele>
        <time>2024-05-10T13:10:02Z</time>
      </trkpt>
      <trkpt lat="43.10379" lon="2.73493">
        <ele>107.2</ele>
        <time>2024-05-10T13:10:03Z</time>
      </trkpt>
      <trkpt lat="43.10366" lon="2.73467">
        <ele>107.5</ele>
        <time>2024-05-10T13:10:04Z</time>
      </trkpt>
      <trkpt lat="43.10353" lon="2.73442">
        <ele>107.5</ele>
        <time>2024-05-10T13:10:05Z</time>
      </trkpt>
      <trkpt lat="43.1034" lon="2.73417">
        <ele>107</ele>
        <time>2024-05-10T13:10:06Z</time>
      </trkpt>
      <trkpt lat="43.10327" lon="2.73393">
        <ele>106.4</ele>
        <time>2024-05-10T13:10:07Z</time>
      </trkpt>
      <trkpt lat="43.10314" lon="2.73369">
        <ele>105.5</ele>
        <time>2024-05-10T13:10:08Z</time>
      </trkpt>
      <trkpt lat="43.10302" lon="2.73346">
        <ele>105.1</ele>
        <time>2024-05-10T13:10:09Z</time>
      </trkpt>
      <trkpt lat="43.1029" lon="2.73323">
        <ele>104.8</ele>
        <time>2024-05-10T13:10:10Z</time>
      </trkpt>
      <trkpt lat="43.10278" lon="2.733">
        <ele>103.8</ele>
        <time>2024-05-10T13:10:11Z</time>
      </trkpt>
      <trkpt lat="43.10266" lon="2.73278">
        <ele>102.6</ele>
        <time>2024-05-10T13:10:12Z</time>
      </trkpt>
      <trkpt lat="43.10254" lon="2.73256">
        <ele>102</ele>
        <time>2024-05-10T13:10:13Z</time>
      </trkpt>
      <trkpt lat="43.10243" lon="2.73234">
        <ele>101.6</ele>
        <time>2024-05-10T13:10:14Z</time>
      </trkpt>
      <trkpt lat="43.10232" lon="2.73214">
        <ele>101.4</ele>
        <time>2024-05-10T13:10:15Z</time>
      </trkpt>
      <trkpt lat="43.10222" lon="2.73193">
        <ele>101</ele>
        <time>2024-05-10T13:10:16Z</time>
      </trkpt>
      <trkpt lat="43.10211" lon="2.73172">
        <ele>101</ele>
        <time>2024-05-10T13:10:17Z</time>
      </trkpt>
      <trkpt lat="43.10199" lon="2.73151">
        <ele>101.2</ele>
        <time>2024-05-10T13:10:18Z</time>
      </trkpt>
      <trkpt lat="43.10188" lon="2.73129">
        <ele>101.1</ele>
        <time>2024-05-10T13:10:19Z</time>
      </trkpt>
      <trkpt lat="43.10177" lon="2.73108">
        <ele>101.1</ele>
        <time>2024-05-10T13:10:20Z</time>
      </trkpt>
      <trkpt lat="43.10165" lon="2.73087">
        <ele>100.4</ele>
        <time>2024-05-10T13:10:21Z</time>
      </trkpt>
      <trkpt lat="43.10154" lon="2.73065">
        <ele>100.3</ele>
        <time>2024-05-10T13:10:22Z</time>
      </trkpt>
      <trkpt lat="43.10142" lon="2.73044">
        <ele>100.4</ele>
        <time>2024-05-10T13:10:23Z</time>
      </trkpt>
      <trkpt lat="43.10131" lon="2.73022">
        <ele>100.1</ele>
        <time>2024-05-10T13:10:24Z</time>
      </trkpt>
      <trkpt lat="43.1012" lon="2.73001">
        <ele>99.7</ele>
        <time>2024-05-10T13:10:25Z</time>
      </trkpt>
      <trkpt lat="43.10109" lon="2.72979">
        <ele>100</ele>
        <time>2024-05-10T13:10:26Z</time>
      </trkpt>
      <trkpt lat="43.10098" lon="2.72958">
        <ele>99.5</ele>
        <time>2024-05-10T13:10:27Z</time>
      </trkpt>
      <trkpt lat="43.10087" lon="2.72938">
        <ele>99</ele>
        <time>2024-05-10T13:10:28Z</time>
      </trkpt>
      <trkpt lat="43.10077" lon="2.72919">
        <ele>99</ele>
        <time>2024-05-10T13:10:29Z</time>
      </trkpt>
      <trkpt lat="43.10067" lon="2.729">
        <ele>98.8</ele>
        <time>2024-05-10T13:10:30Z</time>
      </trkpt>
      <trkpt lat="43.10058" lon="2.72882">
        <ele>98.7</ele>
        <time>2024-05-10T13:10:31Z</time>
      </trkpt>
      <trkpt lat="43.10049" lon="2.72864">
        <ele>98.1</ele>
        <time>2024-05-10T13:10:32Z</time>
      </trkpt>
      <trkpt lat="43.10039" lon="2.72847">
        <ele>98</ele>
        <time>2024-05-10T13:10:33Z</time>
      </trkpt>
      <trkpt lat="43.1003" lon="2.72829">
        <ele>98</ele>
        <time>2024-05-10T13:10:34Z</time>
      </trkpt>
      <trkpt lat="43.1002" lon="2.72811">
        <ele>98</ele>
        <time>2024-05-10T13:10:35Z</time>
      </trkpt>
      <trkpt lat="43.1001" lon="2.72792">
        <ele>97.8</ele>
        <time>2024-05-10T13:10:36Z</time>
      </trkpt>
      <trkpt lat="43.1" lon="2.72773">
        <ele>98</ele>
        <time>2024-05-10T13:10:37Z</time>
      </trkpt>
      <trkpt lat="43.0999" lon="2.72754">
        <ele>98</ele>
        <time>2024-05-10T13:10:38Z</time>
      </trkpt>
      <trkpt lat="43.0998" lon="2.72735">
        <ele>97.8</ele>
        <time>2024-05-10T13:10:39Z</time>
      </trkpt>
      <trkpt lat="43.09971" lon="2.72716">
        <ele>97.8</ele>
        <time>2024-05-10T13:10:40Z</time>
      </trkpt>
      <trkpt lat="43.09961" lon="2.72697">
        <ele>97.5</ele>
        <time>2024-05-10T13:10:41Z</time>
      </trkpt>
      <trkpt lat="43.09951" lon="2.72679">
        <ele>97.8</ele>
        <time>2024-05-10T13:10:42Z</time>
      </trkpt>
      <trkpt lat="43.09942" lon="2.72661">
        <ele>98</ele>
        <time>2024-05-10T13:10:43Z</time>
      </trkpt>
      <trkpt lat="43.09933" lon="2.72645">
        <ele>98</ele>
        <time>2024-05-10T13:10:44Z</time>
      </trkpt>
      <trkpt lat="43.09923" lon="2.72629">
        <ele>98</ele>
        <time>2024-05-10T13:10:45Z</time>
      </trkpt>
      <trkpt lat="43.09912" lon="2.72615">
        <ele>96.8</ele>
        <time>2024-05-10T13:10:46Z</time>
      </trkpt>
      <trkpt lat="43.09901" lon="2.72601">
        <ele>92.7</ele>
        <time>2024-05-10T13:10:47Z</time>
      </trkpt>
      <trkpt lat="43.09889" lon="2.72587">
        <ele>87.4</ele>
        <time>2024-05-10T13:10:48Z</time>
      </trkpt>
      <trkpt lat="43.09877" lon="2.72575">
        <ele>92.1</ele>
        <time>2024-05-10T13:10:49Z</time>
      </trkpt>
      <trkpt lat="43.09865" lon="2.72565">
        <ele>97</ele>
        <time>2024-05-10T13:10:50Z</time>
      </trkpt>
      <trkpt lat="43.09852" lon="2.72561">
        <ele>99.1</ele>
        <time>2024-05-10T13:10:51Z</time>
      </trkpt>
      <trkpt lat="43.09839" lon="2.72561">
        <ele>99.9</ele>
        <time>2024-05-10T13:10:52Z</time>
      </trkpt>
      <trkpt lat="43.09824" lon="2.72562">
        <ele>100.6</ele>
        <time>2024-05-10T13:10:53Z</time>
      </trkpt>
      <trkpt lat="43.09809" lon="2.7256">
        <ele>101</ele>
        <time>2024-05-10T13:10:54Z</time>
      </trkpt>
      <trkpt lat="43.09794" lon="2.72551">
        <ele>101.7</ele>
        <time>2024-05-10T13:10:55Z</time>
      </trkpt>
      <trkpt lat="43.0978" lon="2.72538">
        <ele>102.1</ele>
        <time>2024-05-10T13:10:56Z</time>
      </trkpt>
      <trkpt lat="43.09769" lon="2.72519">
        <ele>102.7</ele>
        <time>2024-05-10T13:10:57Z</time>
      </trkpt>
      <trkpt lat="43.0976" lon="2.72496">
        <ele>103.3</ele>
        <time>2024-05-10T13:10:58Z</time>
      </trkpt>
      <trkpt lat="43.09753" lon="2.7247">
        <ele>102.2</ele>
        <time>2024-05-10T13:10:59Z</time>
      </trkpt>
      <trkpt lat="43.09746" lon="2.72442">
        <ele>101.9</ele>
        <time>2024-05-10T13:11:00Z</time>
      </trkpt>
      <trkpt lat="43.09739" lon="2.72414">
        <ele>100.9</ele>
        <time>2024-05-10T13:11:01Z</time>
      </trkpt>
      <trkpt lat="43.09732" lon="2.72387">
        <ele>100.6</ele>
        <time>2024-05-10T13:11:02Z</time>
      </trkpt>
      <trkpt lat="43.09725" lon="2.72361">
        <ele>99.9</ele>
        <time>2024-05-10T13:11:03Z</time>
      </trkpt>
      <trkpt lat="43.09719" lon="2.72335">
        <ele>99.3</ele>
        <time>2024-05-10T13:11:04Z</time>
      </trkpt>
      <trkpt lat="43.09712" lon="2.7231">
        <ele>99.2</ele>
        <time>2024-05-10T13:11:05Z</time>
      </trkpt>
      <trkpt lat="43.09705" lon="2.72286">
        <ele>99.4</ele>
        <time>2024-05-10T13:11:06Z</time>
      </trkpt>
      <trkpt lat="43.09697" lon="2.72262">
        <ele>99.2</ele>
        <time>2024-05-10T13:11:07Z</time>
      </trkpt>
      <trkpt lat="43.09688" lon="2.72238">
        <ele>98.8</ele>
        <time>2024-05-10T13:11:08Z</time>
      </trkpt>
      <trkpt lat="43.0968" lon="2.72215">
        <ele>98.4</ele>
        <time>2024-05-10T13:11:09Z</time>
      </trkpt>
      <trkpt lat="43.09672" lon="2.72191">
        <ele>98.5</ele>
        <time>2024-05-10T13:11:10Z</time>
      </trkpt>
      <trkpt lat="43.09664" lon="2.72168">
        <ele>98.1</ele>
        <time>2024-05-10T13:11:11Z</time>
      </trkpt>
      <trkpt lat="43.09655" lon="2.72144">
        <ele>97.9</ele>
        <time>2024-05-10T13:11:12Z</time>
      </trkpt>
      <trkpt lat="43.09646" lon="2.7212">
        <ele>98</ele>
        <time>2024-05-10T13:11:13Z</time>
      </trkpt>
      <trkpt lat="43.09637" lon="2.72096">
        <ele>97.5</ele>
        <time>2024-05-10T13:11:14Z</time>
      </trkpt>
      <trkpt lat="43.09629" lon="2.72071">
        <ele>97.1</ele>
        <time>2024-05-10T13:11:15Z</time>
      </trkpt>
      <trkpt lat="43.0962" lon="2.72046">
        <ele>97.5</ele>
        <time>2024-05-10T13:11:16Z</time>
      </trkpt>
      <trkpt lat="43.09611" lon="2.72021">
        <ele>97.8</ele>
        <time>2024-05-10T13:11:17Z</time>
      </trkpt>
      <trkpt lat="43.09602" lon="2.71996">
        <ele>97.6</ele>
        <time>2024-05-10T13:11:18Z</time>
      </trkpt>
      <trkpt lat="43.09593" lon="2.71972">
        <ele>97.7</ele>
        <time>2024-05-10T13:11:19Z</time>
      </trkpt>
      <trkpt lat="43.09585" lon="2.71948">
        <ele>97.9</ele>
        <time>2024-05-10T13:11:20Z</time>
      </trkpt>
      <trkpt lat="43.09576" lon="2.71925">
        <ele>98.3</ele>
        <time>2024-05-10T13:11:21Z</time>
      </trkpt>
      <trkpt lat="43.09568" lon="2.71902">
        <ele>98.6</ele>
        <time>2024-05-10T13:11:22Z</time>
      </trkpt>
      <trkpt lat="43.0956" lon="2.7188">
        <ele>98.8</ele>
        <time>2024-05-10T13:11:23Z</time>
      </trkpt>
      <trkpt lat="43.09553" lon="2.71858">
        <ele>99</ele>
        <time>2024-05-10T13:11:24Z</time>
      </trkpt>
      <trkpt lat="43.09545" lon="2.71836">
        <ele>99</ele>
        <time>2024-05-10T13:11:25Z</time>
      </trkpt>
      <trkpt lat="43.09537" lon="2.71813">
        <ele>99</ele>
        <time>2024-05-10T13:11:26Z</time>
      </trkpt>
      <trkpt lat="43.09529" lon="2.7179">
        <ele>99</ele>
        <time>2024-05-10T13:11:27Z</time>
      </trkpt>
      <trkpt lat="43.0952" lon="2.71765">
        <ele>99.3</ele>
        <time>2024-05-10T13:11:28Z</time>
      </trkpt>
      <trkpt lat="43.09511" lon="2.7174">
        <ele>99.6</ele>
        <time>2024-05-10T13:11:29Z</time>
      </trkpt>
      <trkpt lat="43.09501" lon="2.71714">
        <ele>100</ele>
        <time>2024-05-10T13:11:30Z</time>
      </trkpt>
      <trkpt lat="43.09492" lon="2.71688">
        <ele>100.5</ele>
        <time>2024-05-10T13:11:31Z</time>
      </trkpt>
      <trkpt lat="43.09483" lon="2.71662">
        <ele>101</ele>
        <time>2024-05-10T13:11:32Z</time>
      </trkpt>
      <trkpt lat="43.09474" lon="2.71636">
        <ele>101</ele>
        <time>2024-05-10T13:11:33Z</time>
      </trkpt>
      <trkpt lat="43.09464" lon="2.7161">
        <ele>101.3</ele>
        <time>2024-05-10T13:11:34Z</time>
      </trkpt>
      <trkpt lat="43.09455" lon="2.71583">
        <ele>101.4</ele>
        <time>2024-05-10T13:11:35Z</time>
      </trkpt>
      <trkpt lat="43.09445" lon="2.71555">
        <ele>101</ele>
        <time>2024-05-10T13:11:36Z</time>
      </trkpt>
      <trkpt lat="43.09435" lon="2.71528">
        <ele>101</ele>
        <time>2024-05-10T13:11:37Z</time>
      </trkpt>
      <trkpt lat="43.09426" lon="2.71501">
        <ele>100.4</ele>
        <time>2024-05-10T13:11:38Z</time>
      </trkpt>
      <trkpt lat="43.09416" lon="2.71473">
        <ele>100</ele>
        <time>2024-05-10T13:11:39Z</time>
      </trkpt>
      <trkpt lat="43.09406" lon="2.71446">
        <ele>99.4</ele>
        <time>2024-05-10T13:11:40Z</time>
      </trkpt>
      <trkpt lat="43.09395" lon="2.71418">
        <ele>99.8</ele>
        <time>2024-05-10T13:11:41Z</time>
      </trkpt>
      <trkpt lat="43.09384" lon="2.71391">
        <ele>99.1</ele>
        <time>2024-05-10T13:11:42Z</time>
      </trkpt>
      <trkpt lat="43.09373" lon="2.71364">
        <ele>98.6</ele>
        <time>2024-05-10T13:11:43Z</time>
      </trkpt>
      <trkpt lat="43.09362" lon="2.71337">
        <ele>99</ele>
        <time>2024-05-10T13:11:44Z</time>
      </trkpt>
      <trkpt lat="43.0935" lon="2.7131">
        <ele>98.9</ele>
        <time>2024-05-10T13:11:45Z</time>
      </trkpt>
      <trkpt lat="43.09339" lon="2.71284">
        <ele>100.2</ele>
        <time>2024-05-10T13:11:46Z</time>
      </trkpt>
      <trkpt lat="43.09328" lon="2.71256">
        <ele>100.4</ele>
        <time>2024-05-10T13:11:47Z</time>
      </trkpt>
      <trkpt lat="43.09317" lon="2.71229">
        <ele>101</ele>
        <time>2024-05-10T13:11:48Z</time>
      </trkpt>
      <trkpt lat="43.09305" lon="2.71203">
        <ele>102</ele>
        <time>2024-05-10T13:11:49Z</time>
      </trkpt>
      <trkpt lat="43.09294" lon="2.71177">
        <ele>101.8</ele>
        <time>2024-05-10T13:11:50Z</time>
      </trkpt>
      <trkpt lat="43.09284" lon="2.71151">
        <ele>101.6</ele>
        <time>2024-05-10T13:11:51Z</time>
      </trkpt>
      <trkpt lat="43.09274" lon="2.71126">
        <ele>101.2</ele>
        <time>2024-05-10T13:11:52Z</time>
      </trkpt>
      <trkpt lat="43.09263" lon="2.711">
        <ele>101.3</ele>
        <time>2024-05-10T13:11:53Z</time>
      </trkpt>
      <trkpt lat="43.09252" lon="2.71074">
        <ele>101.6</ele>
        <time>2024-05-10T13:11:54Z</time>
      </trkpt>
      <trkpt lat="43.09241" lon="2.71048">
        <ele>101.3</ele>
        <time>2024-05-10T13:11:55Z</time>
      </trkpt>
      <trkpt lat="43.0923" lon="2.71023">
        <ele>100.7</ele>
        <time>2024-05-10T13:11:56Z</time>
      </trkpt>
      <trkpt lat="43.09219" lon="2.70998">
        <ele>101.1</ele>
        <time>2024-05-10T13:11:57Z</time>
      </trkpt>
      <trkpt lat="43.09206" lon="2.70974">
        <ele>100.8</ele>
        <time>2024-05-10T13:11:58Z</time>
      </trkpt>
      <trkpt lat="43.09193" lon="2.70951">
        <ele>100.6</ele>
        <time>2024-05-10T13:11:59Z</time>
      </trkpt>
      <trkpt lat="43.09178" lon="2.70929">
        <ele>100.6</ele>
        <time>2024-05-10T13:12:00Z</time>
      </trkpt>
      <trkpt lat="43.09161" lon="2.70908">
        <ele>100.6</ele>
        <time>2024-05-10T13:12:01Z</time>
      </trkpt>
      <trkpt lat="43.09145" lon="2.70887">
        <ele>100.5</ele>
        <time>2024-05-10T13:12:02Z</time>
      </trkpt>
      <trkpt lat="43.09129" lon="2.70866">
        <ele>100.3</ele>
        <time>2024-05-10T13:12:03Z</time>
      </trkpt>
      <trkpt lat="43.09112" lon="2.70845">
        <ele>100.8</ele>
        <time>2024-05-10T13:12:04Z</time>
      </trkpt>
      <trkpt lat="43.09096" lon="2.70824">
        <ele>100.8</ele>
        <time>2024-05-10T13:12:05Z</time>
      </trkpt>
      <trkpt lat="43.09079" lon="2.70803">
        <ele>101.1</ele>
        <time>2024-05-10T13:12:06Z</time>
      </trkpt>
      <trkpt lat="43.09062" lon="2.70782">
        <ele>100.9</ele>
        <time>2024-05-10T13:12:07Z</time>
      </trkpt>
      <trkpt lat="43.09045" lon="2.70761">
        <ele>101.4</ele>
        <time>2024-05-10T13:12:08Z</time>
      </trkpt>
      <trkpt lat="43.09029" lon="2.7074">
        <ele>101.6</ele>
        <time>2024-05-10T13:12:09Z</time>
      </trkpt>
      <trkpt lat="43.09012" lon="2.70719">
        <ele>101.5</ele>
        <time>2024-05-10T13:12:10Z</time>
      </trkpt>
      <trkpt lat="43.08996" lon="2.70699">
        <ele>101.3</ele>
        <time>2024-05-10T13:12:11Z</time>
      </trkpt>
      <trkpt lat="43.0898" lon="2.70678">
        <ele>101.1</ele>
        <time>2024-05-10T13:12:12Z</time>
      </trkpt>
      <trkpt lat="43.08965" lon="2.70658">
        <ele>101</ele>
        <time>2024-05-10T13:12:13Z</time>
      </trkpt>
      <trkpt lat="43.0895" lon="2.70639">
        <ele>101.6</ele>
        <time>2024-05-10T13:12:14Z</time>
      </trkpt>
      <trkpt lat="43.08936" lon="2.70621">
        <ele>101.6</ele>
        <time>2024-05-10T13:12:15Z</time>
      </trkpt>
      <trkpt lat="43.08923" lon="2.70604">
        <ele>101.6</ele>
        <time>2024-05-10T13:12:16Z</time>
      </trkpt>
      <trkpt lat="43.08912" lon="2.7059">
        <ele>101.4</ele>
        <time>2024-05-10T13:12:17Z</time>
      </trkpt>
      <trkpt lat="43.08901" lon="2.70576">
        <ele>101.6</ele>
        <time>2024-05-10T13:12:18Z</time>
      </trkpt>
      <trkpt lat="43.08891" lon="2.70563">
        <ele>101.9</ele>
        <time>2024-05-10T13:12:19Z</time>
      </trkpt>
      <trkpt lat="43.0888" lon="2.7055">
        <ele>102.1</ele>
        <time>2024-05-10T13:12:20Z</time>
      </trkpt>
      <trkpt lat="43.08871" lon="2.70538">
        <ele>102.4</ele>
        <time>2024-05-10T13:12:21Z</time>
      </trkpt>
      <trkpt lat="43.08862" lon="2.70527">
        <ele>103</ele>
        <time>2024-05-10T13:12:22Z</time>
      </trkpt>
      <trkpt lat="43.08855" lon="2.70517">
        <ele>103.1</ele>
        <time>2024-05-10T13:12:23Z</time>
      </trkpt>
      <trkpt lat="43.08849" lon="2.7051">
        <ele>103.3</ele>
        <time>2024-05-10T13:12:24Z</time>
      </trkpt>
      <trkpt lat="43.08842" lon="2.70503">
        <ele>103.6</ele>
        <time>2024-05-10T13:12:25Z</time>
      </trkpt>
      <trkpt lat="43.08836" lon="2.70496">
        <ele>103.8</ele>
        <time>2024-05-10T13:12:26Z</time>
      </trkpt>
      <trkpt lat="43.0883" lon="2.70489">
        <ele>103.7</ele>
        <time>2024-05-10T13:12:27Z</time>
      </trkpt>
      <trkpt lat="43.08824" lon="2.70481">
        <ele>103.5</ele>
        <time>2024-05-10T13:12:28Z</time>
      </trkpt>
      <trkpt lat="43.08818" lon="2.70473">
        <ele>103.6</ele>
        <time>2024-05-10T13:12:29Z</time>
      </trkpt>
      <trkpt lat="43.08812" lon="2.70465">
        <ele>103.8</ele>
        <time>2024-05-10T13:12:30Z</time>
      </trkpt>
      <trkpt lat="43.08805" lon="2.70456">
        <ele>104</ele>
        <time>2024-05-10T13:12:31Z</time>
      </trkpt>
      <trkpt lat="43.08799" lon="2.70448">
        <ele>104</ele>
        <time>2024-05-10T13:12:32Z</time>
      </trkpt>
      <trkpt lat="43.08792" lon="2.7044">
        <ele>103.9</ele>
        <time>2024-05-10T13:12:33Z</time>
      </trkpt>
      <trkpt lat="43.08787" lon="2.70432">
        <ele>103.9</ele>
        <time>2024-05-10T13:12:34Z</time>
      </trkpt>
      <trkpt lat="43.08781" lon="2.70426">
        <ele>103.9</ele>
        <time>2024-05-10T13:12:35Z</time>
      </trkpt>
      <trkpt lat="43.08777" lon="2.7042">
        <ele>104</ele>
        <time>2024-05-10T13:12:36Z</time>
      </trkpt>
      <trkpt lat="43.08772" lon="2.70414">
        <ele>104</ele>
        <time>2024-05-10T13:12:37Z</time>
      </trkpt>
      <trkpt lat="43.08768" lon="2.70409">
        <ele>104</ele>
        <time>2024-05-10T13:12:38Z</time>
      </trkpt>
      <trkpt lat="43.08765" lon="2.70404">
        <ele>104</ele>
        <time>2024-05-10T13:12:39Z</time>
      </trkpt>
      <trkpt lat="43.08761" lon="2.704">
        <ele>104</ele>
        <time>2024-05-10T13:12:40Z</time>
      </trkpt>
      <trkpt lat="43.08757" lon="2.70395">
        <ele>104</ele>
        <time>2024-05-10T13:12:41Z</time>
      </trkpt>
      <trkpt lat="43.08751" lon="2.70388">
        <ele>104</ele>
        <time>2024-05-10T13:12:42Z</time>
      </trkpt>
      <trkpt lat="43.08745" lon="2.7038">
        <ele>104</ele>
        <time>2024-05-10T13:12:43Z</time>
      </trkpt>
      <trkpt lat="43.08739" lon="2.70372">
        <ele>104</ele>
        <time>2024-05-10T13:12:44Z</time>
      </trkpt>
      <trkpt lat="43.08733" lon="2.70363">
        <ele>104</ele>
        <time>2024-05-10T13:12:45Z</time>
      </trkpt>
      <trkpt lat="43.08727" lon="2.70353">
        <ele>103.9</ele>
        <time>2024-05-10T13:12:46Z</time>
      </trkpt>
      <trkpt lat="43.08719" lon="2.70344">
        <ele>104.1</ele>
        <time>2024-05-10T13:12:47Z</time>
      </trkpt>
      <trkpt lat="43.08712" lon="2.70334">
        <ele>104.4</ele>
        <time>2024-05-10T13:12:48Z</time>
      </trkpt>
      <trkpt lat="43.08705" lon="2.70325">
        <ele>104.7</ele>
        <time>2024-05-10T13:12:49Z</time>
      </trkpt>
      <trkpt lat="43.08698" lon="2.70317">
        <ele>104.9</ele>
        <time>2024-05-10T13:12:50Z</time>
      </trkpt>
      <trkpt lat="43.08692" lon="2.7031">
        <ele>105.1</ele>
        <time>2024-05-10T13:12:51Z</time>
      </trkpt>
      <trkpt lat="43.08686" lon="2.70303">
        <ele>105.3</ele>
        <time>2024-05-10T13:12:52Z</time>
      </trkpt>
      <trkpt lat="43.08682" lon="2.70297">
        <ele>105.3</ele>
        <time>2024-05-10T13:12:53Z</time>
      </trkpt>
      <trkpt lat="43.08678" lon="2.70292">
        <ele>105.3</ele>
        <time>2024-05-10T13:12:54Z</time>
      </trkpt>
      <trkpt lat="43.08674" lon="2.70288">
        <ele>105.3</ele>
        <time>2024-05-10T13:12:55Z</time>
      </trkpt>
      <trkpt lat="43.08671" lon="2.70284">
        <ele>105.2</ele>
        <time>2024-05-10T13:12:56Z</time>
      </trkpt>
      <trkpt lat="43.08668" lon="2.7028">
        <ele>105.1</ele>
        <time>2024-05-10T13:12:57Z</time>
      </trkpt>
      <trkpt lat="43.08665" lon="2.70277">
        <ele>105.1</ele>
        <time>2024-05-10T13:12:58Z</time>
      </trkpt>
      <trkpt lat="43.08661" lon="2.70273">
        <ele>105.3</ele>
        <time>2024-05-10T13:12:59Z</time>
      </trkpt>
      <trkpt lat="43.08657" lon="2.70268">
        <ele>105.6</ele>
        <time>2024-05-10T13:13:00Z</time>
      </trkpt>
      <trkpt lat="43.08654" lon="2.70263">
        <ele>105.7</ele>
        <time>2024-05-10T13:13:01Z</time>
      </trkpt>
      <trkpt lat="43.08652" lon="2.70258">
        <ele>105.9</ele>
        <time>2024-05-10T13:13:02Z</time>
      </trkpt>
      <trkpt lat="43.08652" lon="2.70251">
        <ele>106</ele>
        <time>2024-05-10T13:13:03Z</time>
      </trkpt>
      <trkpt lat="43.08653" lon="2.70245">
        <ele>106</ele>
        <time>2024-05-10T13:13:04Z</time>
      </trkpt>
      <trkpt lat="43.08657" lon="2.70239">
        <ele>106</ele>
        <time>2024-05-10T13:13:05Z</time>
      </trkpt>
      <trkpt lat="43.08661" lon="2.70232">
        <ele>106</ele>
        <time>2024-05-10T13:13:06Z</time>
      </trkpt>
      <trkpt lat="43.08666" lon="2.70226">
        <ele>106</ele>
        <time>2024-05-10T13:13:07Z</time>
      </trkpt>
      <trkpt lat="43.08671" lon="2.70219">
        <ele>105.6</ele>
        <time>2024-05-10T13:13:08Z</time>
      </trkpt>
      <trkpt lat="43.08676" lon="2.70212">
        <ele>105.2</ele>
        <time>2024-05-10T13:13:09Z</time>
      </trkpt>
      <trkpt lat="43.0868" lon="2.70205">
        <ele>105</ele>
        <time>2024-05-10T13:13:10Z</time>
      </trkpt>
      <trkpt lat="43.08685" lon="2.70198">
        <ele>105</ele>
        <time>2024-05-10T13:13:11Z</time>
      </trkpt>
      <trkpt lat="43.08689" lon="2.70192">
        <ele>105</ele>
        <time>2024-05-10T13:13:12Z</time>
      </trkpt>
      <trkpt lat="43.08693" lon="2.70185">
        <ele>105</ele>
        <time>2024-05-10T13:13:13Z</time>
      </trkpt>
      <trkpt lat="43.08695" lon="2.70178">
        <ele>105</ele>
        <time>2024-05-10T13:13:14Z</time>
      </trkpt>
      <trkpt lat="43.08696" lon="2.70171">
        <ele>105</ele>
        <time>2024-05-10T13:13:15Z</time>
      </trkpt>
      <trkpt lat="43.08696" lon="2.70163">
        <ele>104.9</ele>
        <time>2024-05-10T13:13:16Z</time>
      </trkpt>
      <trkpt lat="43.08697" lon="2.70156">
        <ele>104.7</ele>
        <time>2024-05-10T13:13:17Z</time>
      </trkpt>
      <trkpt lat="43.08697" lon="2.70149">
        <ele>104.4</ele>
        <time>2024-05-10T13:13:18Z</time>
      </trkpt>
      <trkpt lat="43.08698" lon="2.70142">
        <ele>104.2</ele>
        <time>2024-05-10T13:13:19Z</time>
      </trkpt>
      <trkpt lat="43.087" lon="2.70134">
        <ele>104.2</ele>
        <time>2024-05-10T13:13:20Z</time>
      </trkpt>
      <trkpt lat="43.08702" lon="2.70125">
        <ele>104.1</ele>
        <time>2024-05-10T13:13:21Z</time>
      </trkpt>
      <trkpt lat="43.08704" lon="2.70116">
        <ele>104.1</ele>
        <time>2024-05-10T13:13:22Z</time>
      </trkpt>
      <trkpt lat="43.08706" lon="2.70107">
        <ele>103.9</ele>
        <time>2024-05-10T13:13:23Z</time>
      </trkpt>
      <trkpt lat="43.08708" lon="2.70098">
        <ele>103.8</ele>
        <time>2024-05-10T13:13:24Z</time>
      </trkpt>
      <trkpt lat="43.0871" lon="2.70089">
        <ele>103.6</ele>
        <time>2024-05-10T13:13:25Z</time>
      </trkpt>
      <trkpt lat="43.08712" lon="2.7008">
        <ele>103.4</ele>
        <time>2024-05-10T13:13:26Z</time>
      </trkpt>
      <trkpt lat="43.08714" lon="2.70071">
        <ele>103.3</ele>
        <time>2024-05-10T13:13:27Z</time>
      </trkpt>
      <trkpt lat="43.08716" lon="2.70062">
        <ele>103.2</ele>
        <time>2024-05-10T13:13:28Z</time>
      </trkpt>
      <trkpt lat="43.0872" lon="2.70058">
        <ele>103.1</ele>
        <time>2024-05-10T13:13:29Z</time>
      </trkpt>
      <trkpt lat="43.08724" lon="2.70057">
        <ele>102.5</ele>
        <time>2024-05-10T13:13:30Z</time>
      </trkpt>
      <trkpt lat="43.08729" lon="2.70059">
        <ele>101.3</ele>
        <time>2024-05-10T13:13:31Z</time>
      </trkpt>
      <trkpt lat="43.08735" lon="2.70063">
        <ele>100.2</ele>
        <time>2024-05-10T13:13:32Z</time>
      </trkpt>
      <trkpt lat="43.08743" lon="2.70069">
        <ele>99.6</ele>
        <time>2024-05-10T13:13:33Z</time>
      </trkpt>
      <trkpt lat="43.08751" lon="2.70077">
        <ele>100.3</ele>
        <time>2024-05-10T13:13:34Z</time>
      </trkpt>
      <trkpt lat="43.0876" lon="2.70083">
        <ele>101.2</ele>
        <time>2024-05-10T13:13:35Z</time>
      </trkpt>
      <trkpt lat="43.08769" lon="2.70088">
        <ele>101.1</ele>
        <time>2024-05-10T13:13:36Z</time>
      </trkpt>
      <trkpt lat="43.08778" lon="2.70092">
        <ele>100.9</ele>
        <time>2024-05-10T13:13:37Z</time>
      </trkpt>
      <trkpt lat="43.08789" lon="2.70096">
        <ele>100.1</ele>
        <time>2024-05-10T13:13:38Z</time>
      </trkpt>
      <trkpt lat="43.08799" lon="2.70101">
        <ele>100</ele>
        <time>2024-05-10T13:13:39Z</time>
      </trkpt>
      <trkpt lat="43.0881" lon="2.70107">
        <ele>100.4</ele>
        <time>2024-05-10T13:13:40Z</time>
      </trkpt>
      <trkpt lat="43.0882" lon="2.70113">
        <ele>100.6</ele>
        <time>2024-05-10T13:13:41Z</time>
      </trkpt>
      <trkpt lat="43.0883" lon="2.7012">
        <ele>100.5</ele>
        <time>2024-05-10T13:13:42Z</time>
      </trkpt>
      <trkpt lat="43.08841" lon="2.70125">
        <ele>100.2</ele>
        <time>2024-05-10T13:13:43Z</time>
      </trkpt>
      <trkpt lat="43.0885" lon="2.70129">
        <ele>100.1</ele>
        <time>2024-05-10T13:13:44Z</time>
      </trkpt>
      <trkpt lat="43.08861" lon="2.70132">
        <ele>100</ele>
        <time>2024-05-10T13:13:45Z</time>
      </trkpt>
      <trkpt lat="43.08871" lon="2.70135">
        <ele>100.1</ele>
        <time>2024-05-10T13:13:46Z</time>
      </trkpt>
      <trkpt lat="43.08881" lon="2.70138">
        <ele>100.3</ele>
        <time>2024-05-10T13:13:47Z</time>
      </trkpt>
      <trkpt lat="43.08891" lon="2.7014">
        <ele>99.9</ele>
        <time>2024-05-10T13:13:48Z</time>
      </trkpt>
      <trkpt lat="43.089" lon="2.70143">
        <ele>99.2</ele>
        <time>2024-05-10T13:13:49Z</time>
      </trkpt>
      <trkpt lat="43.0891" lon="2.70147">
        <ele>98.7</ele>
        <time>2024-05-10T13:13:50Z</time>
      </trkpt>
      <trkpt lat="43.08919" lon="2.7015">
        <ele>98.5</ele>
        <time>2024-05-10T13:13:51Z</time>
      </trkpt>
      <trkpt lat="43.08927" lon="2.70155">
        <ele>98.9</ele>
        <time>2024-05-10T13:13:52Z</time>
      </trkpt>
      <trkpt lat="43.08935" lon="2.70159">
        <ele>99.2</ele>
        <time>2024-05-10T13:13:53Z</time>
      </trkpt>
      <trkpt lat="43.08942" lon="2.70163">
        <ele>99.6</ele>
        <time>2024-05-10T13:13:54Z</time>
      </trkpt>
      <trkpt lat="43.08949" lon="2.70168">
        <ele>99.9</ele>
        <time>2024-05-10T13:13:55Z</time>
      </trkpt>
      <trkpt lat="43.08955" lon="2.70172">
        <ele>99.9</ele>
        <time>2024-05-10T13:13:56Z</time>
      </trkpt>
      <trkpt lat="43.08962" lon="2.70175">
        <ele>99.9</ele>
        <time>2024-05-10T13:13:57Z</time>
      </trkpt>
      <trkpt lat="43.0897" lon="2.70176">
        <ele>99.7</ele>
        <time>2024-05-10T13:13:58Z</time>
      </trkpt>
      <trkpt lat="43.08977" lon="2.70175">
        <ele>99.7</ele>
        <time>2024-05-10T13:13:59Z</time>
      </trkpt>
      <trkpt lat="43.08985" lon="2.70172">
        <ele>99.8</ele>
        <time>2024-05-10T13:14:00Z</time>
      </trkpt>
      <trkpt lat="43.08993" lon="2.70168">
        <ele>99.8</ele>
        <time>2024-05-10T13:14:01Z</time>
      </trkpt>
      <trkpt lat="43.09" lon="2.70164">
        <ele>99.5</ele>
        <time>2024-05-10T13:14:02Z</time>
      </trkpt>
      <trkpt lat="43.09008" lon="2.7016">
        <ele>99</ele>
        <time>2024-05-10T13:14:03Z</time>
      </trkpt>
      <trkpt lat="43.09016" lon="2.70157">
        <ele>98.9</ele>
        <time>2024-05-10T13:14:04Z</time>
      </trkpt>
      <trkpt lat="43.09025" lon="2.70155">
        <ele>99</ele>
        <time>2024-05-10T13:14:05Z</time>
      </trkpt>
      <trkpt lat="43.09035" lon="2.70153">
        <ele>98.6</ele>
        <time>2024-05-10T13:14:06Z</time>
      </trkpt>
      <trkpt lat="43.09045" lon="2.70151">
        <ele>97.8</ele>
        <time>2024-05-10T13:14:07Z</time>
      </trkpt>
      <trkpt lat="43.09055" lon="2.70148">
        <ele>96.7</ele>
        <time>2024-05-10T13:14:08Z</time>
      </trkpt>
      <trkpt lat="43.09065" lon="2.70145">
        <ele>95.8</ele>
        <time>2024-05-10T13:14:09Z</time>
      </trkpt>
      <trkpt lat="43.09076" lon="2.70142">
        <ele>94.9</ele>
        <time>2024-05-10T13:14:10Z</time>
      </trkpt>
      <trkpt lat="43.09086" lon="2.70137">
        <ele>93.9</ele>
        <time>2024-05-10T13:14:11Z</time>
      </trkpt>
      <trkpt lat="43.09096" lon="2.7013">
        <ele>93.6</ele>
        <time>2024-05-10T13:14:12Z</time>
      </trkpt>
      <trkpt lat="43.09106" lon="2.70124">
        <ele>93.3</ele>
        <time>2024-05-10T13:14:13Z</time>
      </trkpt>
      <trkpt lat="43.09114" lon="2.70116">
        <ele>91.9</ele>
        <time>2024-05-10T13:14:14Z</time>
      </trkpt>
      <trkpt lat="43.09122" lon="2.70107">
        <ele>90.4</ele>
        <time>2024-05-10T13:14:15Z</time>
      </trkpt>
      <trkpt lat="43.09128" lon="2.70098">
        <ele>89.7</ele>
        <time>2024-05-10T13:14:16Z</time>
      </trkpt>
      <trkpt lat="43.09132" lon="2.70092">
        <ele>89.4</ele>
        <time>2024-05-10T13:14:17Z</time>
      </trkpt>
      <trkpt lat="43.09136" lon="2.70085">
        <ele>89.1</ele>
        <time>2024-05-10T13:14:18Z</time>
      </trkpt>
      <trkpt lat="43.09141" lon="2.70079">
        <ele>88.9</ele>
        <time>2024-05-10T13:14:19Z</time>
      </trkpt>
      <trkpt lat="43.09145" lon="2.70072">
        <ele>88.7</ele>
        <time>2024-05-10T13:14:20Z</time>
      </trkpt>
      <trkpt lat="43.09149" lon="2.70066">
        <ele>88.6</ele>
        <time>2024-05-10T13:14:21Z</time>
      </trkpt>
      <trkpt lat="43.09154" lon="2.70059">
        <ele>88.6</ele>
        <time>2024-05-10T13:14:22Z</time>
      </trkpt>
      <trkpt lat="43.09158" lon="2.70053">
        <ele>88.5</ele>
        <time>2024-05-10T13:14:23Z</time>
      </trkpt>
      <trkpt lat="43.09162" lon="2.70046">
        <ele>88.1</ele>
        <time>2024-05-10T13:14:24Z</time>
      </trkpt>
      <trkpt lat="43.09166" lon="2.70041">
        <ele>87.9</ele>
        <time>2024-05-10T13:14:25Z</time>
      </trkpt>
      <trkpt lat="43.09169" lon="2.70036">
        <ele>87.7</ele>
        <time>2024-05-10T13:14:26Z</time>
      </trkpt>
      <trkpt lat="43.09172" lon="2.70031">
        <ele>87.4</ele>
        <time>2024-05-10T13:14:27Z</time>
      </trkpt>
      <trkpt lat="43.09176" lon="2.70026">
        <ele>87.2</ele>
        <time>2024-05-10T13:14:28Z</time>
      </trkpt>
      <trkpt lat="43.09179" lon="2.70022">
        <ele>87.1</ele>
        <time>2024-05-10T13:14:29Z</time>
      </trkpt>
      <trkpt lat="43.09182" lon="2.70017">
        <ele>87</ele>
        <time>2024-05-10T13:14:30Z</time>
      </trkpt>
      <trkpt lat="43.09186" lon="2.70014">
        <ele>87</ele>
        <time>2024-05-10T13:14:31Z</time>
      </trkpt>
      <trkpt lat="43.0919" lon="2.7001">
        <ele>87.1</ele>
        <time>2024-05-10T13:14:32Z</time>
      </trkpt>
      <trkpt lat="43.09195" lon="2.70007">
        <ele>87.3</ele>
        <time>2024-05-10T13:14:33Z</time>
      </trkpt>
      <trkpt lat="43.09198" lon="2.70003">
        <ele>87.5</ele>
        <time>2024-05-10T13:14:34Z</time>
      </trkpt>
      <trkpt lat="43.092" lon="2.69997">
        <ele>87.2</ele>
        <time>2024-05-10T13:14:35Z</time>
      </trkpt>
      <trkpt lat="43.09199" lon="2.69992">
        <ele>86.5</ele>
        <time>2024-05-10T13:14:36Z</time>
      </trkpt>
      <trkpt lat="43.09197" lon="2.69987">
        <ele>85.8</ele>
        <time>2024-05-10T13:14:37Z</time>
      </trkpt>
      <trkpt lat="43.09194" lon="2.69983">
        <ele>85.2</ele>
        <time>2024-05-10T13:14:38Z</time>
      </trkpt>
      <trkpt lat="43.0919" lon="2.69978">
        <ele>84.8</ele>
        <time>2024-05-10T13:14:39Z</time>
      </trkpt>
      <trkpt lat="43.09186" lon="2.69972">
        <ele>84.6</ele>
        <time>2024-05-10T13:14:40Z</time>
      </trkpt>
      <trkpt lat="43.09182" lon="2.69966">
        <ele>85.2</ele>
        <time>2024-05-10T13:14:41Z</time>
      </trkpt>
      <trkpt lat="43.09177" lon="2.69961">
        <ele>85.9</ele>
        <time>2024-05-10T13:14:42Z</time>
      </trkpt>
      <trkpt lat="43.09172" lon="2.69958">
        <ele>86.5</ele>
        <time>2024-05-10T13:14:43Z</time>
      </trkpt>
      <trkpt lat="43.09166" lon="2.6996">
        <ele>87</ele>
        <time>2024-05-10T13:14:44Z</time>
      </trkpt>
      <trkpt lat="43.0916" lon="2.69965">
        <ele>87.2</ele>
        <time>2024-05-10T13:14:45Z</time>
      </trkpt>
      <trkpt lat="43.09153" lon="2.69972">
        <ele>87</ele>
        <time>2024-05-10T13:14:46Z</time>
      </trkpt>
      <trkpt lat="43.09144" lon="2.69982">
        <ele>87</ele>
        <time>2024-05-10T13:14:47Z</time>
      </trkpt>
      <trkpt lat="43.09135" lon="2.69991">
        <ele>87</ele>
        <time>2024-05-10T13:14:48Z</time>
      </trkpt>
      <trkpt lat="43.09126" lon="2.7">
        <ele>86.5</ele>
        <time>2024-05-10T13:14:49Z</time>
      </trkpt>
      <trkpt lat="43.09115" lon="2.70009">
        <ele>86.8</ele>
        <time>2024-05-10T13:14:50Z</time>
      </trkpt>
      <trkpt lat="43.09104" lon="2.70014">
        <ele>87.3</ele>
        <time>2024-05-10T13:14:51Z</time>
      </trkpt>
      <trkpt lat="43.09092" lon="2.70016">
        <ele>87.6</ele>
        <time>2024-05-10T13:14:52Z</time>
      </trkpt>
      <trkpt lat="43.0908" lon="2.70012">
        <ele>88.3</ele>
        <time>2024-05-10T13:14:53Z</time>
      </trkpt>
      <trkpt lat="43.09068" lon="2.70005">
        <ele>89.2</ele>
        <time>2024-05-10T13:14:54Z</time>
      </trkpt>
      <trkpt lat="43.09055" lon="2.69995">
        <ele>91</ele>
        <time>2024-05-10T13:14:55Z</time>
      </trkpt>
      <trkpt lat="43.09042" lon="2.69983">
        <ele>92</ele>
        <time>2024-05-10T13:14:56Z</time>
      </trkpt>
      <trkpt lat="43.09029" lon="2.69971">
        <ele>91.5</ele>
        <time>2024-05-10T13:14:57Z</time>
      </trkpt>
      <trkpt lat="43.09016" lon="2.6996">
        <ele>93.1</ele>
        <time>2024-05-10T13:14:58Z</time>
      </trkpt>
      <trkpt lat="43.09003" lon="2.69948">
        <ele>93.9</ele>
        <time>2024-05-10T13:14:59Z</time>
      </trkpt>
      <trkpt lat="43.08989" lon="2.69937">
        <ele>94.2</ele>
        <time>2024-05-10T13:15:00Z</time>
      </trkpt>
      <trkpt lat="43.08976" lon="2.69928">
        <ele>95.5</ele>
        <time>2024-05-10T13:15:01Z</time>
      </trkpt>
      <trkpt lat="43.08963" lon="2.69921">
        <ele>96.8</ele>
        <time>2024-05-10T13:15:02Z</time>
      </trkpt>
      <trkpt lat="43.0895" lon="2.69919">
        <ele>97.4</ele>
        <time>2024-05-10T13:15:03Z</time>
      </trkpt>
      <trkpt lat="43.08938" lon="2.69918">
        <ele>98.2</ele>
        <time>2024-05-10T13:15:04Z</time>
      </trkpt>
      <trkpt lat="43.08926" lon="2.69913">
        <ele>99.5</ele>
        <time>2024-05-10T13:15:05Z</time>
      </trkpt>
      <trkpt lat="43.08913" lon="2.69905">
        <ele>100.4</ele>
        <time>2024-05-10T13:15:06Z</time>
      </trkpt>
      <trkpt lat="43.08899" lon="2.69896">
        <ele>100.7</ele>
        <time>2024-05-10T13:15:07Z</time>
      </trkpt>
      <trkpt lat="43.08884" lon="2.69887">
        <ele>101.1</ele>
        <time>2024-05-10T13:15:08Z</time>
      </trkpt>
      <trkpt lat="43.08869" lon="2.69877">
        <ele>101.4</ele>
        <time>2024-05-10T13:15:09Z</time>
      </trkpt>
      <trkpt lat="43.08853" lon="2.69868">
        <ele>101.8</ele>
        <time>2024-05-10T13:15:10Z</time>
      </trkpt>
      <trkpt lat="43.08839" lon="2.6986">
        <ele>102.1</ele>
        <time>2024-05-10T13:15:11Z</time>
      </trkpt>
      <trkpt lat="43.08826" lon="2.69851">
        <ele>102.7</ele>
        <time>2024-05-10T13:15:12Z</time>
      </trkpt>
      <trkpt lat="43.08812" lon="2.69843">
        <ele>103.3</ele>
        <time>2024-05-10T13:15:13Z</time>
      </trkpt>
      <trkpt lat="43.088" lon="2.69835">
        <ele>103.7</ele>
        <time>2024-05-10T13:15:14Z</time>
      </trkpt>
      <trkpt lat="43.08787" lon="2.69827">
        <ele>103.6</ele>
        <time>2024-05-10T13:15:15Z</time>
      </trkpt>
      <trkpt lat="43.08774" lon="2.69818">
        <ele>103.5</ele>
        <time>2024-05-10T13:15:16Z</time>
      </trkpt>
      <trkpt lat="43.0876" lon="2.6981">
        <ele>103.3</ele>
        <time>2024-05-10T13:15:17Z</time>
      </trkpt>
      <trkpt lat="43.08747" lon="2.69802">
        <ele>103.1</ele>
        <time>2024-05-10T13:15:18Z</time>
      </trkpt>
      <trkpt lat="43.08733" lon="2.69793">
        <ele>103.5</ele>
        <time>2024-05-10T13:15:19Z</time>
      </trkpt>
      <trkpt lat="43.0872" lon="2.69784">
        <ele>103.8</ele>
        <time>2024-05-10T13:15:20Z</time>
      </trkpt>
      <trkpt lat="43.08706" lon="2.69775">
        <ele>104.1</ele>
        <time>2024-05-10T13:15:21Z</time>
      </trkpt>
      <trkpt lat="43.08692" lon="2.69766">
        <ele>104.4</ele>
        <time>2024-05-10T13:15:22Z</time>
      </trkpt>
      <trkpt lat="43.08679" lon="2.69758">
        <ele>104.7</ele>
        <time>2024-05-10T13:15:23Z</time>
      </trkpt>
      <trkpt lat="43.08666" lon="2.6975">
        <ele>105</ele>
        <time>2024-05-10T13:15:24Z</time>
      </trkpt>
      <trkpt lat="43.08654" lon="2.69742">
        <ele>105.2</ele>
        <time>2024-05-10T13:15:25Z</time>
      </trkpt>
      <trkpt lat="43.08642" lon="2.69735">
        <ele>105.1</ele>
        <time>2024-05-10T13:15:26Z</time>
      </trkpt>
      <trkpt lat="43.08631" lon="2.69728">
        <ele>105</ele>
        <time>2024-05-10T13:15:27Z</time>
      </trkpt>
      <trkpt lat="43.08621" lon="2.69721">
        <ele>105.1</ele>
        <time>2024-05-10T13:15:28Z</time>
      </trkpt>
      <trkpt lat="43.08611" lon="2.69715">
        <ele>105.5</ele>
        <time>2024-05-10T13:15:29Z</time>
      </trkpt>
      <trkpt lat="43.08603" lon="2.69711">
        <ele>105.8</ele>
        <time>2024-05-10T13:15:30Z</time>
      </trkpt>
      <trkpt lat="43.08597" lon="2.69708">
        <ele>106</ele>
        <time>2024-05-10T13:15:31Z</time>
      </trkpt>
      <trkpt lat="43.08591" lon="2.69707">
        <ele>106.1</ele>
        <time>2024-05-10T13:15:32Z</time>
      </trkpt>
      <trkpt lat="43.08584" lon="2.69706">
        <ele>106.2</ele>
        <time>2024-05-10T13:15:33Z</time>
      </trkpt>
      <trkpt lat="43.08578" lon="2.69704">
        <ele>106.2</ele>
        <time>2024-05-10T13:15:34Z</time>
      </trkpt>
      <trkpt lat="43.08573" lon="2.69701">
        <ele>106.2</ele>
        <time>2024-05-10T13:15:35Z</time>
      </trkpt>
      <trkpt lat="43.08567" lon="2.69697">
        <ele>106.3</ele>
        <time>2024-05-10T13:15:36Z</time>
      </trkpt>
      <trkpt lat="43.08561" lon="2.69691">
        <ele>106.6</ele>
        <time>2024-05-10T13:15:37Z</time>
      </trkpt>
      <trkpt lat="43.08555" lon="2.69687">
        <ele>107.1</ele>
        <time>2024-05-10T13:15:38Z</time>
      </trkpt>
      <trkpt lat="43.08548" lon="2.69682">
        <ele>107.4</ele>
        <time>2024-05-10T13:15:39Z</time>
      </trkpt>
      <trkpt lat="43.08542" lon="2.69677">
        <ele>107.6</ele>
        <time>2024-05-10T13:15:40Z</time>
      </trkpt>
      <trkpt lat="43.08536" lon="2.69671">
        <ele>107.6</ele>
        <time>2024-05-10T13:15:41Z</time>
      </trkpt>
      <trkpt lat="43.08531" lon="2.69667">
        <ele>107.3</ele>
        <time>2024-05-10T13:15:42Z</time>
      </trkpt>
      <trkpt lat="43.08526" lon="2.69663">
        <ele>107.4</ele>
        <time>2024-05-10T13:15:43Z</time>
      </trkpt>
      <trkpt lat="43.08522" lon="2.6966">
        <ele>107.7</ele>
        <time>2024-05-10T13:15:44Z</time>
      </trkpt>
      <trkpt lat="43.08519" lon="2.69658">
        <ele>107.8</ele>
        <time>2024-05-10T13:15:45Z</time>
      </trkpt>
      <trkpt lat="43.08516" lon="2.69656">
        <ele>108</ele>
        <time>2024-05-10T13:15:46Z</time>
      </trkpt>
      <trkpt lat="43.08512" lon="2.69654">
        <ele>108.1</ele>
        <time>2024-05-10T13:15:47Z</time>
      </trkpt>
      <trkpt lat="43.08509" lon="2.69652">
        <ele>108.2</ele>
        <time>2024-05-10T13:15:48Z</time>
      </trkpt>
      <trkpt lat="43.08506" lon="2.6965">
        <ele>108.3</ele>
        <time>2024-05-10T13:15:49Z</time>
      </trkpt>
      <trkpt lat="43.08502" lon="2.69647">
        <ele>108.5</ele>
        <time>2024-05-10T13:15:50Z</time>
      </trkpt>
      <trkpt lat="43.08499" lon="2.69643">
        <ele>108.7</ele>
        <time>2024-05-10T13:15:51Z</time>
      </trkpt>
      <trkpt lat="43.08497" lon="2.69636">
        <ele>109.1</ele>
        <time>2024-05-10T13:15:52Z</time>
      </trkpt>
      <trkpt lat="43.08494" lon="2.69627">
        <ele>109.6</ele>
        <time>2024-05-10T13:15:53Z</time>
      </trkpt>
      <trkpt lat="43.0849" lon="2.69619">
        <ele>110.1</ele>
        <time>2024-05-10T13:15:54Z</time>
      </trkpt>
      <trkpt lat="43.08484" lon="2.69612">
        <ele>110.4</ele>
        <time>2024-05-10T13:15:55Z</time>
      </trkpt>
      <trkpt lat="43.08477" lon="2.69603">
        <ele>110.8</ele>
        <time>2024-05-10T13:15:56Z</time>
      </trkpt>
      <trkpt lat="43.08467" lon="2.69595">
        <ele>111.1</ele>
        <time>2024-05-10T13:15:57Z</time>
      </trkpt>
      <trkpt lat="43.08459" lon="2.69586">
        <ele>111.8</ele>
        <time>2024-05-10T13:15:58Z</time>
      </trkpt>
      <trkpt lat="43.0845" lon="2.69578">
        <ele>112.5</ele>
        <time>2024-05-10T13:15:59Z</time>
      </trkpt>
      <trkpt lat="43.08441" lon="2.69569">
        <ele>113.5</ele>
        <time>2024-05-10T13:16:00Z</time>
      </trkpt>
      <trkpt lat="43.08432" lon="2.6956">
        <ele>114.4</ele>
        <time>2024-05-10T13:16:01Z</time>
      </trkpt>
      <trkpt lat="43.08423" lon="2.69552">
        <ele>115.5</ele>
        <time>2024-05-10T13:16:02Z</time>
      </trkpt>
      <trkpt lat="43.08415" lon="2.69544">
        <ele>116.1</ele>
        <time>2024-05-10T13:16:03Z</time>
      </trkpt>
      <trkpt lat="43.08407" lon="2.69536">
        <ele>116.5</ele>
        <time>2024-05-10T13:16:04Z</time>
      </trkpt>
      <trkpt lat="43.08401" lon="2.69526">
        <ele>117.7</ele>
        <time>2024-05-10T13:16:05Z</time>
      </trkpt>
      <trkpt lat="43.08397" lon="2.69514">
        <ele>118.7</ele>
        <time>2024-05-10T13:16:06Z</time>
      </trkpt>
      <trkpt lat="43.08394" lon="2.69501">
        <ele>119.2</ele>
        <time>2024-05-10T13:16:07Z</time>
      </trkpt>
      <trkpt lat="43.08394" lon="2.69487">
        <ele>119.6</ele>
        <time>2024-05-10T13:16:08Z</time>
      </trkpt>
      <trkpt lat="43.08395" lon="2.69471">
        <ele>120.1</ele>
        <time>2024-05-10T13:16:09Z</time>
      </trkpt>
      <trkpt lat="43.08396" lon="2.69454">
        <ele>120.9</ele>
        <time>2024-05-10T13:16:10Z</time>
      </trkpt>
      <trkpt lat="43.08397" lon="2.69436">
        <ele>121.2</ele>
        <time>2024-05-10T13:16:11Z</time>
      </trkpt>
      <trkpt lat="43.08399" lon="2.69417">
        <ele>120.7</ele>
        <time>2024-05-10T13:16:12Z</time>
      </trkpt>
      <trkpt lat="43.08399" lon="2.69398">
        <ele>121.8</ele>
        <time>2024-05-10T13:16:13Z</time>
      </trkpt>
      <trkpt lat="43.08399" lon="2.69379">
        <ele>122.6</ele>
        <time>2024-05-10T13:16:14Z</time>
      </trkpt>
      <trkpt lat="43.08395" lon="2.6936">
        <ele>123</ele>
        <time>2024-05-10T13:16:15Z</time>
      </trkpt>
      <trkpt lat="43.0839" lon="2.6934">
        <ele>123.8</ele>
        <time>2024-05-10T13:16:16Z</time>
      </trkpt>
      <trkpt lat="43.08382" lon="2.69319">
        <ele>124.7</ele>
        <time>2024-05-10T13:16:17Z</time>
      </trkpt>
      <trkpt lat="43.08374" lon="2.69298">
        <ele>125.7</ele>
        <time>2024-05-10T13:16:18Z</time>
      </trkpt>
      <trkpt lat="43.08365" lon="2.69274">
        <ele>126.7</ele>
        <time>2024-05-10T13:16:19Z</time>
      </trkpt>
      <trkpt lat="43.08356" lon="2.6925">
        <ele>127.6</ele>
        <time>2024-05-10T13:16:20Z</time>
      </trkpt>
      <trkpt lat="43.08348" lon="2.69226">
        <ele>128.4</ele>
        <time>2024-05-10T13:16:21Z</time>
      </trkpt>
      <trkpt lat="43.08338" lon="2.69204">
        <ele>129.6</ele>
        <time>2024-05-10T13:16:22Z</time>
      </trkpt>
      <trkpt lat="43.08326" lon="2.69182">
        <ele>131.3</ele>
        <time>2024-05-10T13:16:23Z</time>
      </trkpt>
      <trkpt lat="43.08312" lon="2.69162">
        <ele>132.4</ele>
        <time>2024-05-10T13:16:24Z</time>
      </trkpt>
      <trkpt lat="43.08296" lon="2.69143">
        <ele>132.8</ele>
        <time>2024-05-10T13:16:25Z</time>
      </trkpt>
      <trkpt lat="43.08278" lon="2.69125">
        <ele>133.5</ele>
        <time>2024-05-10T13:16:26Z</time>
      </trkpt>
      <trkpt lat="43.08261" lon="2.69103">
        <ele>134.6</ele>
        <time>2024-05-10T13:16:27Z</time>
      </trkpt>
      <trkpt lat="43.08246" lon="2.69077">
        <ele>136.2</ele>
        <time>2024-05-10T13:16:28Z</time>
      </trkpt>
      <trkpt lat="43.08232" lon="2.69048">
        <ele>137.3</ele>
        <time>2024-05-10T13:16:29Z</time>
      </trkpt>
      <trkpt lat="43.08219" lon="2.69018">
        <ele>138.4</ele>
        <time>2024-05-10T13:16:30Z</time>
      </trkpt>
      <trkpt lat="43.08207" lon="2.68989">
        <ele>139.7</ele>
        <time>2024-05-10T13:16:31Z</time>
      </trkpt>
      <trkpt lat="43.08195" lon="2.68959">
        <ele>141</ele>
        <time>2024-05-10T13:16:32Z</time>
      </trkpt>
      <trkpt lat="43.08186" lon="2.68927">
        <ele>142.9</ele>
        <time>2024-05-10T13:16:33Z</time>
      </trkpt>
      <trkpt lat="43.08179" lon="2.68895">
        <ele>144</ele>
        <time>2024-05-10T13:16:34Z</time>
      </trkpt>
      <trkpt lat="43.08174" lon="2.68861">
        <ele>145.5</ele>
        <time>2024-05-10T13:16:35Z</time>
      </trkpt>
      <trkpt lat="43.08172" lon="2.68827">
        <ele>146.1</ele>
        <time>2024-05-10T13:16:36Z</time>
      </trkpt>
      <trkpt lat="43.08172" lon="2.68794">
        <ele>147.4</ele>
        <time>2024-05-10T13:16:37Z</time>
      </trkpt>
      <trkpt lat="43.08176" lon="2.68761">
        <ele>149</ele>
        <time>2024-05-10T13:16:38Z</time>
      </trkpt>
      <trkpt lat="43.08182" lon="2.68729">
        <ele>150.2</ele>
        <time>2024-05-10T13:16:39Z</time>
      </trkpt>
      <trkpt lat="43.0819" lon="2.68698">
        <ele>150.3</ele>
        <time>2024-05-10T13:16:40Z</time>
      </trkpt>
      <trkpt lat="43.08199" lon="2.68668">
        <ele>150</ele>
        <time>2024-05-10T13:16:41Z</time>
      </trkpt>
      <trkpt lat="43.08206" lon="2.68637">
        <ele>149.6</ele>
        <time>2024-05-10T13:16:42Z</time>
      </trkpt>
      <trkpt lat="43.0821" lon="2.68605">
        <ele>149.8</ele>
        <time>2024-05-10T13:16:43Z</time>
      </trkpt>
      <trkpt lat="43.08212" lon="2.68572">
        <ele>149</ele>
        <time>2024-05-10T13:16:44Z</time>
      </trkpt>
      <trkpt lat="43.08211" lon="2.68537">
        <ele>148.5</ele>
        <time>2024-05-10T13:16:45Z</time>
      </trkpt>
      <trkpt lat="43.08209" lon="2.68502">
        <ele>148</ele>
        <time>2024-05-10T13:16:46Z</time>
      </trkpt>
      <trkpt lat="43.08206" lon="2.68466">
        <ele>147.6</ele>
        <time>2024-05-10T13:16:47Z</time>
      </trkpt>
      <trkpt lat="43.08203" lon="2.68429">
        <ele>147.7</ele>
        <time>2024-05-10T13:16:48Z</time>
      </trkpt>
      <trkpt lat="43.082" lon="2.68393">
        <ele>147.8</ele>
        <time>2024-05-10T13:16:49Z</time>
      </trkpt>
      <trkpt lat="43.08198" lon="2.68358">
        <ele>147.9</ele>
        <time>2024-05-10T13:16:50Z</time>
      </trkpt>
      <trkpt lat="43.08196" lon="2.68325">
        <ele>148</ele>
        <time>2024-05-10T13:16:51Z</time>
      </trkpt>
      <trkpt lat="43.08194" lon="2.68293">
        <ele>148.6</ele>
        <time>2024-05-10T13:16:52Z</time>
      </trkpt>
      <trkpt lat="43.08191" lon="2.68262">
        <ele>149.7</ele>
        <time>2024-05-10T13:16:53Z</time>
      </trkpt>
      <trkpt lat="43.08184" lon="2.68232">
        <ele>150.5</ele>
        <time>2024-05-10T13:16:54Z</time>
      </trkpt>
      <trkpt lat="43.08175" lon="2.68204">
        <ele>151.2</ele>
        <time>2024-05-10T13:16:55Z</time>
      </trkpt>
      <trkpt lat="43.08164" lon="2.68175">
        <ele>151.6</ele>
        <time>2024-05-10T13:16:56Z</time>
      </trkpt>
      <trkpt lat="43.08152" lon="2.68146">
        <ele>152.8</ele>
        <time>2024-05-10T13:16:57Z</time>
      </trkpt>
      <trkpt lat="43.08141" lon="2.68117">
        <ele>153</ele>
        <time>2024-05-10T13:16:58Z</time>
      </trkpt>
      <trkpt lat="43.0813" lon="2.68089">
        <ele>153.4</ele>
        <time>2024-05-10T13:16:59Z</time>
      </trkpt>
      <trkpt lat="43.08119" lon="2.68062">
        <ele>153.9</ele>
        <time>2024-05-10T13:17:00Z</time>
      </trkpt>
      <trkpt lat="43.08109" lon="2.68035">
        <ele>154.1</ele>
        <time>2024-05-10T13:17:01Z</time>
      </trkpt>
      <trkpt lat="43.08098" lon="2.68009">
        <ele>154.5</ele>
        <time>2024-05-10T13:17:02Z</time>
      </trkpt>
      <trkpt lat="43.08087" lon="2.67981">
        <ele>155</ele>
        <time>2024-05-10T13:17:03Z</time>
      </trkpt>
      <trkpt lat="43.08077" lon="2.67954">
        <ele>155.7</ele>
        <time>2024-05-10T13:17:04Z</time>
      </trkpt>
      <trkpt lat="43.08066" lon="2.67927">
        <ele>156</ele>
        <time>2024-05-10T13:17:05Z</time>
      </trkpt>
      <trkpt lat="43.08055" lon="2.679">
        <ele>156.6</ele>
        <time>2024-05-10T13:17:06Z</time>
      </trkpt>
      <trkpt lat="43.08045" lon="2.67871">
        <ele>157.4</ele>
        <time>2024-05-10T13:17:07Z</time>
      </trkpt>
      <trkpt lat="43.08034" lon="2.67844">
        <ele>157.2</ele>
        <time>2024-05-10T13:17:08Z</time>
      </trkpt>
      <trkpt lat="43.08023" lon="2.67817">
        <ele>157.2</ele>
        <time>2024-05-10T13:17:09Z</time>
      </trkpt>
      <trkpt lat="43.08013" lon="2.67791">
        <ele>157.5</ele>
        <time>2024-05-10T13:17:10Z</time>
      </trkpt>
      <trkpt lat="43.08003" lon="2.67767">
        <ele>157.9</ele>
        <time>2024-05-10T13:17:11Z</time>
      </trkpt>
      <trkpt lat="43.07994" lon="2.67744">
        <ele>158</ele>
        <time>2024-05-10T13:17:12Z</time>
      </trkpt>
      <trkpt lat="43.07986" lon="2.67724">
        <ele>158</ele>
        <time>2024-05-10T13:17:13Z</time>
      </trkpt>
      <trkpt lat="43.07979" lon="2.67704">
        <ele>158.5</ele>
        <time>2024-05-10T13:17:14Z</time>
      </trkpt>
      <trkpt lat="43.07973" lon="2.67683">
        <ele>158.5</ele>
        <time>2024-05-10T13:17:15Z</time>
      </trkpt>
      <trkpt lat="43.07969" lon="2.67661">
        <ele>158.3</ele>
        <time>2024-05-10T13:17:16Z</time>
      </trkpt>
      <trkpt lat="43.07969" lon="2.67638">
        <ele>158.3</ele>
        <time>2024-05-10T13:17:17Z</time>
      </trkpt>
      <trkpt lat="43.07971" lon="2.67613">
        <ele>157.2</ele>
        <time>2024-05-10T13:17:18Z</time>
      </trkpt>
      <trkpt lat="43.07975" lon="2.67587">
        <ele>156</ele>
        <time>2024-05-10T13:17:19Z</time>
      </trkpt>
      <trkpt lat="43.0798" lon="2.67561">
        <ele>155.5</ele>
        <time>2024-05-10T13:17:20Z</time>
      </trkpt>
      <trkpt lat="43.07987" lon="2.67534">
        <ele>153.8</ele>
        <time>2024-05-10T13:17:21Z</time>
      </trkpt>
      <trkpt lat="43.07995" lon="2.67507">
        <ele>153</ele>
        <time>2024-05-10T13:17:22Z</time>
      </trkpt>
      <trkpt lat="43.08002" lon="2.6748">
        <ele>152.8</ele>
        <time>2024-05-10T13:17:23Z</time>
      </trkpt>
      <trkpt lat="43.0801" lon="2.67455">
        <ele>151.3</ele>
        <time>2024-05-10T13:17:24Z</time>
      </trkpt>
      <trkpt lat="43.08017" lon="2.6743">
        <ele>150.5</ele>
        <time>2024-05-10T13:17:25Z</time>
      </trkpt>
      <trkpt lat="43.08024" lon="2.67405">
        <ele>150.6</ele>
        <time>2024-05-10T13:17:26Z</time>
      </trkpt>
      <trkpt lat="43.08031" lon="2.67381">
        <ele>151</ele>
        <time>2024-05-10T13:17:27Z</time>
      </trkpt>
      <trkpt lat="43.08039" lon="2.67358">
        <ele>150.9</ele>
        <time>2024-05-10T13:17:28Z</time>
      </trkpt>
      <trkpt lat="43.08047" lon="2.67337">
        <ele>150.2</ele>
        <time>2024-05-10T13:17:29Z</time>
      </trkpt>
      <trkpt lat="43.08058" lon="2.67318">
        <ele>148.8</ele>
        <time>2024-05-10T13:17:30Z</time>
      </trkpt>
      <trkpt lat="43.08072" lon="2.67303">
        <ele>147.3</ele>
        <time>2024-05-10T13:17:31Z</time>
      </trkpt>
      <trkpt lat="43.08086" lon="2.6729">
        <ele>147</ele>
        <time>2024-05-10T13:17:32Z</time>
      </trkpt>
      <trkpt lat="43.08103" lon="2.67281">
        <ele>147</ele>
        <time>2024-05-10T13:17:33Z</time>
      </trkpt>
      <trkpt lat="43.0812" lon="2.67272">
        <ele>146.3</ele>
        <time>2024-05-10T13:17:34Z</time>
      </trkpt>
      <trkpt lat="43.08135" lon="2.67262">
        <ele>145.5</ele>
        <time>2024-05-10T13:17:35Z</time>
      </trkpt>
      <trkpt lat="43.08148" lon="2.67249">
        <ele>145.7</ele>
        <time>2024-05-10T13:17:36Z</time>
      </trkpt>
      <trkpt lat="43.0816" lon="2.67232">
        <ele>145.2</ele>
        <time>2024-05-10T13:17:37Z</time>
      </trkpt>
      <trkpt lat="43.0817" lon="2.67213">
        <ele>144</ele>
        <time>2024-05-10T13:17:38Z</time>
      </trkpt>
      <trkpt lat="43.08179" lon="2.67191">
        <ele>142</ele>
        <time>2024-05-10T13:17:39Z</time>
      </trkpt>
      <trkpt lat="43.08186" lon="2.67168">
        <ele>141.4</ele>
        <time>2024-05-10T13:17:40Z</time>
      </trkpt>
      <trkpt lat="43.0819" lon="2.67145">
        <ele>140</ele>
        <time>2024-05-10T13:17:41Z</time>
      </trkpt>
      <trkpt lat="43.08194" lon="2.67121">
        <ele>139.7</ele>
        <time>2024-05-10T13:17:42Z</time>
      </trkpt>
      <trkpt lat="43.08197" lon="2.67098">
        <ele>139.1</ele>
        <time>2024-05-10T13:17:43Z</time>
      </trkpt>
      <trkpt lat="43.082" lon="2.67076">
        <ele>137.8</ele>
        <time>2024-05-10T13:17:44Z</time>
      </trkpt>
      <trkpt lat="43.08203" lon="2.67054">
        <ele>136.7</ele>
        <time>2024-05-10T13:17:45Z</time>
      </trkpt>
      <trkpt lat="43.08203" lon="2.67035">
        <ele>136</ele>
        <time>2024-05-10T13:17:46Z</time>
      </trkpt>
      <trkpt lat="43.082" lon="2.67018">
        <ele>135.8</ele>
        <time>2024-05-10T13:17:47Z</time>
      </trkpt>
      <trkpt lat="43.08194" lon="2.67004">
        <ele>136.2</ele>
        <time>2024-05-10T13:17:48Z</time>
      </trkpt>
      <trkpt lat="43.08185" lon="2.66992">
        <ele>135.5</ele>
        <time>2024-05-10T13:17:49Z</time>
      </trkpt>
      <trkpt lat="43.08173" lon="2.66984">
        <ele>135.2</ele>
        <time>2024-05-10T13:17:50Z</time>
      </trkpt>
      <trkpt lat="43.0816" lon="2.66977">
        <ele>135.1</ele>
        <time>2024-05-10T13:17:51Z</time>
      </trkpt>
      <trkpt lat="43.08148" lon="2.66968">
        <ele>134.9</ele>
        <time>2024-05-10T13:17:52Z</time>
      </trkpt>
      <trkpt lat="43.08139" lon="2.66955">
        <ele>134.1</ele>
        <time>2024-05-10T13:17:53Z</time>
      </trkpt>
      <trkpt lat="43.08133" lon="2.66939">
        <ele>133.6</ele>
        <time>2024-05-10T13:17:54Z</time>
      </trkpt>
      <trkpt lat="43.0813" lon="2.66922">
        <ele>133.7</ele>
        <time>2024-05-10T13:17:55Z</time>
      </trkpt>
      <trkpt lat="43.08128" lon="2.66906">
        <ele>133.4</ele>
        <time>2024-05-10T13:17:56Z</time>
      </trkpt>
      <trkpt lat="43.08128" lon="2.66892">
        <ele>132.9</ele>
        <time>2024-05-10T13:17:57Z</time>
      </trkpt>
      <trkpt lat="43.08128" lon="2.6688">
        <ele>132.6</ele>
        <time>2024-05-10T13:17:58Z</time>
      </trkpt>
      <trkpt lat="43.08127" lon="2.66868">
        <ele>132.4</ele>
        <time>2024-05-10T13:17:59Z</time>
      </trkpt>
      <trkpt lat="43.08126" lon="2.66856">
        <ele>132.3</ele>
        <time>2024-05-10T13:18:00Z</time>
      </trkpt>
      <trkpt lat="43.08125" lon="2.66845">
        <ele>132.2</ele>
        <time>2024-05-10T13:18:01Z</time>
      </trkpt>
      <trkpt lat="43.08124" lon="2.66834">
        <ele>132.1</ele>
        <time>2024-05-10T13:18:02Z</time>
      </trkpt>
      <trkpt lat="43.08123" lon="2.66824">
        <ele>132.3</ele>
        <time>2024-05-10T13:18:03Z</time>
      </trkpt>
      <trkpt lat="43.08123" lon="2.66814">
        <ele>132.4</ele>
        <time>2024-05-10T13:18:04Z</time>
      </trkpt>
      <trkpt lat="43.08122" lon="2.66805">
        <ele>132.6</ele>
        <time>2024-05-10T13:18:05Z</time>
      </trkpt>
      <trkpt lat="43.08121" lon="2.66795">
        <ele>132.6</ele>
        <time>2024-05-10T13:18:06Z</time>
      </trkpt>
      <trkpt lat="43.0812" lon="2.66786">
        <ele>132.7</ele>
        <time>2024-05-10T13:18:07Z</time>
      </trkpt>
      <trkpt lat="43.0812" lon="2.66778">
        <ele>132.7</ele>
        <time>2024-05-10T13:18:08Z</time>
      </trkpt>
      <trkpt lat="43.08119" lon="2.66769">
        <ele>132.7</ele>
        <time>2024-05-10T13:18:09Z</time>
      </trkpt>
      <trkpt lat="43.08119" lon="2.66759">
        <ele>132.7</ele>
        <time>2024-05-10T13:18:10Z</time>
      </trkpt>
      <trkpt lat="43.08118" lon="2.66749">
        <ele>132.8</ele>
        <time>2024-05-10T13:18:11Z</time>
      </trkpt>
      <trkpt lat="43.08118" lon="2.66739">
        <ele>132.8</ele>
        <time>2024-05-10T13:18:12Z</time>
      </trkpt>
      <trkpt lat="43.08118" lon="2.6673">
        <ele>132.8</ele>
        <time>2024-05-10T13:18:13Z</time>
      </trkpt>
      <trkpt lat="43.08117" lon="2.66722">
        <ele>132.8</ele>
        <time>2024-05-10T13:18:14Z</time>
      </trkpt>
      <trkpt lat="43.08117" lon="2.66714">
        <ele>132.7</ele>
        <time>2024-05-10T13:18:15Z</time>
      </trkpt>
      <trkpt lat="43.08116" lon="2.66706">
        <ele>132.6</ele>
        <time>2024-05-10T13:18:16Z</time>
      </trkpt>
      <trkpt lat="43.08116" lon="2.66698">
        <ele>132.5</ele>
        <time>2024-05-10T13:18:17Z</time>
      </trkpt>
      <trkpt lat="43.08115" lon="2.66689">
        <ele>132.6</ele>
        <time>2024-05-10T13:18:18Z</time>
      </trkpt>
      <trkpt lat="43.08114" lon="2.6668">
        <ele>132.7</ele>
        <time>2024-05-10T13:18:19Z</time>
      </trkpt>
      <trkpt lat="43.08114" lon="2.66671">
        <ele>132.7</ele>
        <time>2024-05-10T13:18:20Z</time>
      </trkpt>
      <trkpt lat="43.08113" lon="2.66662">
        <ele>132.8</ele>
        <time>2024-05-10T13:18:21Z</time>
      </trkpt>
      <trkpt lat="43.08112" lon="2.66653">
        <ele>132.9</ele>
        <time>2024-05-10T13:18:22Z</time>
      </trkpt>
      <trkpt lat="43.08111" lon="2.66644">
        <ele>133</ele>
        <time>2024-05-10T13:18:23Z</time>
      </trkpt>
      <trkpt lat="43.08111" lon="2.66635">
        <ele>133</ele>
        <time>2024-05-10T13:18:24Z</time>
      </trkpt>
      <trkpt lat="43.0811" lon="2.66627">
        <ele>133</ele>
        <time>2024-05-10T13:18:25Z</time>
      </trkpt>
      <trkpt lat="43.0811" lon="2.66619">
        <ele>133</ele>
        <time>2024-05-10T13:18:26Z</time>
      </trkpt>
      <trkpt lat="43.0811" lon="2.66612">
        <ele>133</ele>
        <time>2024-05-10T13:18:27Z</time>
      </trkpt>
      <trkpt lat="43.0811" lon="2.66604">
        <ele>133</ele>
        <time>2024-05-10T13:18:28Z</time>
      </trkpt>
      <trkpt lat="43.0811" lon="2.66597">
        <ele>133</ele>
        <time>2024-05-10T13:18:29Z</time>
      </trkpt>
      <trkpt lat="43.08109" lon="2.66591">
        <ele>133.1</ele>
        <time>2024-05-10T13:18:30Z</time>
      </trkpt>
      <trkpt lat="43.08109" lon="2.66585">
        <ele>133.1</ele>
        <time>2024-05-10T13:18:31Z</time>
      </trkpt>
      <trkpt lat="43.08109" lon="2.6658">
        <ele>133.1</ele>
        <time>2024-05-10T13:18:32Z</time>
      </trkpt>
      <trkpt lat="43.08109" lon="2.66576">
        <ele>133.1</ele>
        <time>2024-05-10T13:18:33Z</time>
      </trkpt>
      <trkpt lat="43.08109" lon="2.66573">
        <ele>133.1</ele>
        <time>2024-05-10T13:18:34Z</time>
      </trkpt>
      <trkpt lat="43.08109" lon="2.6657">
        <ele>133.1</ele>
        <time>2024-05-10T13:18:35Z</time>
      </trkpt>
      <trkpt lat="43.08109" lon="2.66566">
        <ele>133.1</ele>
        <time>2024-05-10T13:18:36Z</time>
      </trkpt>
      <trkpt lat="43.08108" lon="2.66562">
        <ele>133.1</ele>
        <time>2024-05-10T13:18:37Z</time>
      </trkpt>
      <trkpt lat="43.08109" lon="2.66559">
        <ele>133.1</ele>
        <time>2024-05-10T13:18:38Z</time>
      </trkpt>
      <trkpt lat="43.08109" lon="2.66554">
        <ele>133.1</ele>
        <time>2024-05-10T13:18:39Z</time>
      </trkpt>
      <trkpt lat="43.08109" lon="2.6655">
        <ele>133.1</ele>
        <time>2024-05-10T13:18:40Z</time>
      </trkpt>
      <trkpt lat="43.08109" lon="2.66546">
        <ele>133.1</ele>
        <time>2024-05-10T13:18:41Z</time>
      </trkpt>
      <trkpt lat="43.08109" lon="2.66541">
        <ele>133.1</ele>
        <time>2024-05-10T13:18:42Z</time>
      </trkpt>
      <trkpt lat="43.08109" lon="2.66533">
        <ele>133.1</ele>
        <time>2024-05-10T13:18:43Z</time>
      </trkpt>
      <trkpt lat="43.08109" lon="2.66526">
        <ele>133.1</ele>
        <time>2024-05-10T13:18:44Z</time>
      </trkpt>
      <trkpt lat="43.08108" lon="2.66519">
        <ele>133.1</ele>
        <time>2024-05-10T13:18:45Z</time>
      </trkpt>
      <trkpt lat="43.08108" lon="2.66512">
        <ele>133</ele>
        <time>2024-05-10T13:18:46Z</time>
      </trkpt>
      <trkpt lat="43.08107" lon="2.66505">
        <ele>133</ele>
        <time>2024-05-10T13:18:47Z</time>
      </trkpt>
      <trkpt lat="43.08107" lon="2.66498">
        <ele>133</ele>
        <time>2024-05-10T13:18:48Z</time>
      </trkpt>
      <trkpt lat="43.08105" lon="2.66493">
        <ele>133</ele>
        <time>2024-05-10T13:18:49Z</time>
      </trkpt>
      <trkpt lat="43.08105" lon="2.66489">
        <ele>133</ele>
        <time>2024-05-10T13:18:50Z</time>
      </trkpt>
      <trkpt lat="43.08104" lon="2.66485">
        <ele>133</ele>
        <time>2024-05-10T13:18:51Z</time>
      </trkpt>
      <trkpt lat="43.08104" lon="2.66481">
        <ele>133</ele>
        <time>2024-05-10T13:18:52Z</time>
      </trkpt>
      <trkpt lat="43.08104" lon="2.66478">
        <ele>133</ele>
        <time>2024-05-10T13:18:53Z</time>
      </trkpt>
      <trkpt lat="43.08103" lon="2.66475">
        <ele>133</ele>
        <time>2024-05-10T13:18:54Z</time>
      </trkpt>
      <trkpt lat="43.08102" lon="2.66472">
        <ele>133</ele>
        <time>2024-05-10T13:18:55Z</time>
      </trkpt>
      <trkpt lat="43.08102" lon="2.6647">
        <ele>133</ele>
        <time>2024-05-10T13:18:56Z</time>
      </trkpt>
      <trkpt lat="43.08102" lon="2.66466">
        <ele>133.1</ele>
        <time>2024-05-10T13:18:57Z</time>
      </trkpt>
      <trkpt lat="43.08101" lon="2.66461">
        <ele>133.1</ele>
        <time>2024-05-10T13:18:58Z</time>
      </trkpt>
      <trkpt lat="43.08101" lon="2.66452">
        <ele>133.3</ele>
        <time>2024-05-10T13:18:59Z</time>
      </trkpt>
      <trkpt lat="43.08101" lon="2.66441">
        <ele>133.4</ele>
        <time>2024-05-10T13:19:00Z</time>
      </trkpt>
      <trkpt lat="43.08101" lon="2.66432">
        <ele>133.5</ele>
        <time>2024-05-10T13:19:01Z</time>
      </trkpt>
      <trkpt lat="43.08101" lon="2.66423">
        <ele>133.6</ele>
        <time>2024-05-10T13:19:02Z</time>
      </trkpt>
      <trkpt lat="43.08099" lon="2.66412">
        <ele>133.8</ele>
        <time>2024-05-10T13:19:03Z</time>
      </trkpt>
      <trkpt lat="43.08098" lon="2.66401">
        <ele>133.7</ele>
        <time>2024-05-10T13:19:04Z</time>
      </trkpt>
      <trkpt lat="43.08097" lon="2.66388">
        <ele>133.5</ele>
        <time>2024-05-10T13:19:05Z</time>
      </trkpt>
      <trkpt lat="43.08096" lon="2.66375">
        <ele>133.5</ele>
        <time>2024-05-10T13:19:06Z</time>
      </trkpt>
      <trkpt lat="43.08095" lon="2.66362">
        <ele>133.6</ele>
        <time>2024-05-10T13:19:07Z</time>
      </trkpt>
      <trkpt lat="43.08093" lon="2.66349">
        <ele>133.7</ele>
        <time>2024-05-10T13:19:08Z</time>
      </trkpt>
      <trkpt lat="43.08092" lon="2.66336">
        <ele>133.7</ele>
        <time>2024-05-10T13:19:09Z</time>
      </trkpt>
      <trkpt lat="43.0809" lon="2.66322">
        <ele>133.8</ele>
        <time>2024-05-10T13:19:10Z</time>
      </trkpt>
      <trkpt lat="43.08088" lon="2.66308">
        <ele>133.8</ele>
        <time>2024-05-10T13:19:11Z</time>
      </trkpt>
      <trkpt lat="43.08086" lon="2.66293">
        <ele>133.9</ele>
        <time>2024-05-10T13:19:12Z</time>
      </trkpt>
      <trkpt lat="43.08084" lon="2.66277">
        <ele>134</ele>
        <time>2024-05-10T13:19:13Z</time>
      </trkpt>
      <trkpt lat="43.08081" lon="2.6626">
        <ele>134.1</ele>
        <time>2024-05-10T13:19:14Z</time>
      </trkpt>
      <trkpt lat="43.08078" lon="2.66242">
        <ele>134.2</ele>
        <time>2024-05-10T13:19:15Z</time>
      </trkpt>
      <trkpt lat="43.08075" lon="2.66221">
        <ele>134.3</ele>
        <time>2024-05-10T13:19:16Z</time>
      </trkpt>
      <trkpt lat="43.08072" lon="2.662">
        <ele>135.2</ele>
        <time>2024-05-10T13:19:17Z</time>
      </trkpt>
      <trkpt lat="43.08068" lon="2.66178">
        <ele>135.6</ele>
        <time>2024-05-10T13:19:18Z</time>
      </trkpt>
      <trkpt lat="43.08064" lon="2.66154">
        <ele>136.2</ele>
        <time>2024-05-10T13:19:19Z</time>
      </trkpt>
      <trkpt lat="43.0806" lon="2.66129">
        <ele>136.8</ele>
        <time>2024-05-10T13:19:20Z</time>
      </trkpt>
      <trkpt lat="43.08056" lon="2.66103">
        <ele>137</ele>
        <time>2024-05-10T13:19:21Z</time>
      </trkpt>
      <trkpt lat="43.08051" lon="2.66077">
        <ele>137.2</ele>
        <time>2024-05-10T13:19:22Z</time>
      </trkpt>
      <trkpt lat="43.08047" lon="2.6605">
        <ele>137.8</ele>
        <time>2024-05-10T13:19:23Z</time>
      </trkpt>
      <trkpt lat="43.08043" lon="2.66023">
        <ele>138.5</ele>
        <time>2024-05-10T13:19:24Z</time>
      </trkpt>
      <trkpt lat="43.08038" lon="2.65994">
        <ele>138.6</ele>
        <time>2024-05-10T13:19:25Z</time>
      </trkpt>
      <trkpt lat="43.08033" lon="2.65963">
        <ele>138.8</ele>
        <time>2024-05-10T13:19:26Z</time>
      </trkpt>
      <trkpt lat="43.08028" lon="2.65933">
        <ele>139.4</ele>
        <time>2024-05-10T13:19:27Z</time>
      </trkpt>
      <trkpt lat="43.08023" lon="2.65903">
        <ele>140.3</ele>
        <time>2024-05-10T13:19:28Z</time>
      </trkpt>
      <trkpt lat="43.08018" lon="2.65872">
        <ele>140.4</ele>
        <time>2024-05-10T13:19:29Z</time>
      </trkpt>
      <trkpt lat="43.08013" lon="2.6584">
        <ele>140.1</ele>
        <time>2024-05-10T13:19:30Z</time>
      </trkpt>
      <trkpt lat="43.08008" lon="2.65808">
        <ele>140.6</ele>
        <time>2024-05-10T13:19:31Z</time>
      </trkpt>
      <trkpt lat="43.08003" lon="2.65775">
        <ele>140.9</ele>
        <time>2024-05-10T13:19:32Z</time>
      </trkpt>
      <trkpt lat="43.07998" lon="2.65741">
        <ele>141.1</ele>
        <time>2024-05-10T13:19:33Z</time>
      </trkpt>
      <trkpt lat="43.07993" lon="2.65709">
        <ele>141.3</ele>
        <time>2024-05-10T13:19:34Z</time>
      </trkpt>
      <trkpt lat="43.07987" lon="2.65677">
        <ele>140.8</ele>
        <time>2024-05-10T13:19:35Z</time>
      </trkpt>
      <trkpt lat="43.07982" lon="2.65644">
        <ele>140.6</ele>
        <time>2024-05-10T13:19:36Z</time>
      </trkpt>
      <trkpt lat="43.07976" lon="2.65612">
        <ele>140.9</ele>
        <time>2024-05-10T13:19:37Z</time>
      </trkpt>
      <trkpt lat="43.07971" lon="2.65578">
        <ele>140</ele>
        <time>2024-05-10T13:19:38Z</time>
      </trkpt>
      <trkpt lat="43.07966" lon="2.65545">
        <ele>139.9</ele>
        <time>2024-05-10T13:19:39Z</time>
      </trkpt>
      <trkpt lat="43.07961" lon="2.65512">
        <ele>139.8</ele>
        <time>2024-05-10T13:19:40Z</time>
      </trkpt>
      <trkpt lat="43.07955" lon="2.65478">
        <ele>140.2</ele>
        <time>2024-05-10T13:19:41Z</time>
      </trkpt>
      <trkpt lat="43.0795" lon="2.65444">
        <ele>140.6</ele>
        <time>2024-05-10T13:19:42Z</time>
      </trkpt>
      <trkpt lat="43.07944" lon="2.65411">
        <ele>140</ele>
        <time>2024-05-10T13:19:43Z</time>
      </trkpt>
      <trkpt lat="43.07939" lon="2.65377">
        <ele>140.2</ele>
        <time>2024-05-10T13:19:44Z</time>
      </trkpt>
      <trkpt lat="43.07933" lon="2.65344">
        <ele>140.4</ele>
        <time>2024-05-10T13:19:45Z</time>
      </trkpt>
      <trkpt lat="43.07928" lon="2.65312">
        <ele>140.6</ele>
        <time>2024-05-10T13:19:46Z</time>
      </trkpt>
      <trkpt lat="43.07923" lon="2.6528">
        <ele>140.8</ele>
        <time>2024-05-10T13:19:47Z</time>
      </trkpt>
      <trkpt lat="43.07918" lon="2.65248">
        <ele>141</ele>
        <time>2024-05-10T13:19:48Z</time>
      </trkpt>
      <trkpt lat="43.07913" lon="2.65217">
        <ele>141.1</ele>
        <time>2024-05-10T13:19:49Z</time>
      </trkpt>
      <trkpt lat="43.07908" lon="2.65186">
        <ele>141.3</ele>
        <time>2024-05-10T13:19:50Z</time>
      </trkpt>
      <trkpt lat="43.07903" lon="2.65154">
        <ele>141.7</ele>
        <time>2024-05-10T13:19:51Z</time>
      </trkpt>
      <trkpt lat="43.07897" lon="2.65122">
        <ele>142.3</ele>
        <time>2024-05-10T13:19:52Z</time>
      </trkpt>
      <trkpt lat="43.07893" lon="2.65091">
        <ele>142.8</ele>
        <time>2024-05-10T13:19:53Z</time>
      </trkpt>
      <trkpt lat="43.07887" lon="2.6506">
        <ele>142.3</ele>
        <time>2024-05-10T13:19:54Z</time>
      </trkpt>
      <trkpt lat="43.07883" lon="2.65028">
        <ele>142.6</ele>
        <time>2024-05-10T13:19:55Z</time>
      </trkpt>
      <trkpt lat="43.07877" lon="2.64996">
        <ele>144.1</ele>
        <time>2024-05-10T13:19:56Z</time>
      </trkpt>
      <trkpt lat="43.07872" lon="2.64965">
        <ele>144.9</ele>
        <time>2024-05-10T13:19:57Z</time>
      </trkpt>
      <trkpt lat="43.07868" lon="2.64935">
        <ele>145.1</ele>
        <time>2024-05-10T13:19:58Z</time>
      </trkpt>
      <trkpt lat="43.07863" lon="2.64906">
        <ele>145.4</ele>
        <time>2024-05-10T13:19:59Z</time>
      </trkpt>
      <trkpt lat="43.07859" lon="2.64877">
        <ele>145.4</ele>
        <time>2024-05-10T13:20:00Z</time>
      </trkpt>
      <trkpt lat="43.07854" lon="2.64847">
        <ele>146.1</ele>
        <time>2024-05-10T13:20:01Z</time>
      </trkpt>
      <trkpt lat="43.07849" lon="2.64818">
        <ele>146.2</ele>
        <time>2024-05-10T13:20:02Z</time>
      </trkpt>
      <trkpt lat="43.07845" lon="2.64788">
        <ele>146</ele>
        <time>2024-05-10T13:20:03Z</time>
      </trkpt>
      <trkpt lat="43.0784" lon="2.64758">
        <ele>146.3</ele>
        <time>2024-05-10T13:20:04Z</time>
      </trkpt>
      <trkpt lat="43.07835" lon="2.64728">
        <ele>146.8</ele>
        <time>2024-05-10T13:20:05Z</time>
      </trkpt>
      <trkpt lat="43.07831" lon="2.64698">
        <ele>147.2</ele>
        <time>2024-05-10T13:20:06Z</time>
      </trkpt>
      <trkpt lat="43.07826" lon="2.64668">
        <ele>147.5</ele>
        <time>2024-05-10T13:20:07Z</time>
      </trkpt>
      <trkpt lat="43.07821" lon="2.64639">
        <ele>147.3</ele>
        <time>2024-05-10T13:20:08Z</time>
      </trkpt>
      <trkpt lat="43.07817" lon="2.6461">
        <ele>148.2</ele>
        <time>2024-05-10T13:20:09Z</time>
      </trkpt>
      <trkpt lat="43.07813" lon="2.64582">
        <ele>148.5</ele>
        <time>2024-05-10T13:20:10Z</time>
      </trkpt>
      <trkpt lat="43.07809" lon="2.64553">
        <ele>148.8</ele>
        <time>2024-05-10T13:20:11Z</time>
      </trkpt>
      <trkpt lat="43.07804" lon="2.64525">
        <ele>149</ele>
        <time>2024-05-10T13:20:12Z</time>
      </trkpt>
      <trkpt lat="43.07799" lon="2.64496">
        <ele>148.5</ele>
        <time>2024-05-10T13:20:13Z</time>
      </trkpt>
      <trkpt lat="43.07791" lon="2.64469">
        <ele>149.2</ele>
        <time>2024-05-10T13:20:14Z</time>
      </trkpt>
      <trkpt lat="43.07782" lon="2.64442">
        <ele>150.6</ele>
        <time>2024-05-10T13:20:15Z</time>
      </trkpt>
      <trkpt lat="43.07771" lon="2.64417">
        <ele>150.3</ele>
        <time>2024-05-10T13:20:16Z</time>
      </trkpt>
      <trkpt lat="43.07759" lon="2.64392">
        <ele>151.3</ele>
        <time>2024-05-10T13:20:17Z</time>
      </trkpt>
      <trkpt lat="43.07746" lon="2.64366">
        <ele>151.4</ele>
        <time>2024-05-10T13:20:18Z</time>
      </trkpt>
      <trkpt lat="43.07733" lon="2.6434">
        <ele>151.8</ele>
        <time>2024-05-10T13:20:19Z</time>
      </trkpt>
      <trkpt lat="43.0772" lon="2.64313">
        <ele>152.1</ele>
        <time>2024-05-10T13:20:20Z</time>
      </trkpt>
      <trkpt lat="43.07706" lon="2.64286">
        <ele>151.9</ele>
        <time>2024-05-10T13:20:21Z</time>
      </trkpt>
      <trkpt lat="43.07693" lon="2.64259">
        <ele>152.1</ele>
        <time>2024-05-10T13:20:22Z</time>
      </trkpt>
      <trkpt lat="43.07679" lon="2.64231">
        <ele>152.6</ele>
        <time>2024-05-10T13:20:23Z</time>
      </trkpt>
      <trkpt lat="43.07666" lon="2.64204">
        <ele>153</ele>
        <time>2024-05-10T13:20:24Z</time>
      </trkpt>
      <trkpt lat="43.07654" lon="2.64175">
        <ele>152.8</ele>
        <time>2024-05-10T13:20:25Z</time>
      </trkpt>
      <trkpt lat="43.07644" lon="2.64145">
        <ele>152.8</ele>
        <time>2024-05-10T13:20:26Z</time>
      </trkpt>
      <trkpt lat="43.07634" lon="2.64114">
        <ele>153.2</ele>
        <time>2024-05-10T13:20:27Z</time>
      </trkpt>
      <trkpt lat="43.07626" lon="2.64084">
        <ele>153.9</ele>
        <time>2024-05-10T13:20:28Z</time>
      </trkpt>
      <trkpt lat="43.07619" lon="2.64053">
        <ele>154.4</ele>
        <time>2024-05-10T13:20:29Z</time>
      </trkpt>
      <trkpt lat="43.07611" lon="2.64024">
        <ele>154</ele>
        <time>2024-05-10T13:20:30Z</time>
      </trkpt>
      <trkpt lat="43.07604" lon="2.63996">
        <ele>154.5</ele>
        <time>2024-05-10T13:20:31Z</time>
      </trkpt>
      <trkpt lat="43.07598" lon="2.63968">
        <ele>155</ele>
        <time>2024-05-10T13:20:32Z</time>
      </trkpt>
      <trkpt lat="43.07591" lon="2.63941">
        <ele>155.7</ele>
        <time>2024-05-10T13:20:33Z</time>
      </trkpt>
      <trkpt lat="43.07584" lon="2.63914">
        <ele>156.1</ele>
        <time>2024-05-10T13:20:34Z</time>
      </trkpt>
      <trkpt lat="43.07578" lon="2.63887">
        <ele>157.2</ele>
        <time>2024-05-10T13:20:35Z</time>
      </trkpt>
      <trkpt lat="43.07572" lon="2.6386">
        <ele>157.4</ele>
        <time>2024-05-10T13:20:36Z</time>
      </trkpt>
      <trkpt lat="43.07565" lon="2.63833">
        <ele>157.7</ele>
        <time>2024-05-10T13:20:37Z</time>
      </trkpt>
      <trkpt lat="43.07558" lon="2.63806">
        <ele>157.9</ele>
        <time>2024-05-10T13:20:38Z</time>
      </trkpt>
      <trkpt lat="43.07552" lon="2.63779">
        <ele>158.1</ele>
        <time>2024-05-10T13:20:39Z</time>
      </trkpt>
      <trkpt lat="43.07545" lon="2.63751">
        <ele>158.4</ele>
        <time>2024-05-10T13:20:40Z</time>
      </trkpt>
      <trkpt lat="43.07538" lon="2.63724">
        <ele>158.6</ele>
        <time>2024-05-10T13:20:41Z</time>
      </trkpt>
      <trkpt lat="43.07531" lon="2.63696">
        <ele>158.9</ele>
        <time>2024-05-10T13:20:42Z</time>
      </trkpt>
      <trkpt lat="43.07524" lon="2.63667">
        <ele>159.1</ele>
        <time>2024-05-10T13:20:43Z</time>
      </trkpt>
      <trkpt lat="43.07517" lon="2.63638">
        <ele>159.4</ele>
        <time>2024-05-10T13:20:44Z</time>
      </trkpt>
      <trkpt lat="43.0751" lon="2.6361">
        <ele>159.6</ele>
        <time>2024-05-10T13:20:45Z</time>
      </trkpt>
      <trkpt lat="43.07503" lon="2.63582">
        <ele>159.9</ele>
        <time>2024-05-10T13:20:46Z</time>
      </trkpt>
      <trkpt lat="43.07496" lon="2.63555">
        <ele>160.1</ele>
        <time>2024-05-10T13:20:47Z</time>
      </trkpt>
      <trkpt lat="43.07489" lon="2.63528">
        <ele>160.4</ele>
        <time>2024-05-10T13:20:48Z</time>
      </trkpt>
      <trkpt lat="43.07483" lon="2.63502">
        <ele>160.3</ele>
        <time>2024-05-10T13:20:49Z</time>
      </trkpt>
      <trkpt lat="43.07477" lon="2.63477">
        <ele>160.7</ele>
        <time>2024-05-10T13:20:50Z</time>
      </trkpt>
      <trkpt lat="43.07471" lon="2.63453">
        <ele>160.4</ele>
        <time>2024-05-10T13:20:51Z</time>
      </trkpt>
      <trkpt lat="43.07465" lon="2.63429">
        <ele>160.1</ele>
        <time>2024-05-10T13:20:52Z</time>
      </trkpt>
      <trkpt lat="43.0746" lon="2.63406">
        <ele>160.3</ele>
        <time>2024-05-10T13:20:53Z</time>
      </trkpt>
      <trkpt lat="43.07454" lon="2.63384">
        <ele>161</ele>
        <time>2024-05-10T13:20:54Z</time>
      </trkpt>
      <trkpt lat="43.07449" lon="2.63362">
        <ele>161.5</ele>
        <time>2024-05-10T13:20:55Z</time>
      </trkpt>
      <trkpt lat="43.07443" lon="2.63341">
        <ele>161.5</ele>
        <time>2024-05-10T13:20:56Z</time>
      </trkpt>
      <trkpt lat="43.07438" lon="2.63318">
        <ele>161.9</ele>
        <time>2024-05-10T13:20:57Z</time>
      </trkpt>
      <trkpt lat="43.07432" lon="2.63295">
        <ele>162.6</ele>
        <time>2024-05-10T13:20:58Z</time>
      </trkpt>
      <trkpt lat="43.07426" lon="2.63272">
        <ele>163</ele>
        <time>2024-05-10T13:20:59Z</time>
      </trkpt>
      <trkpt lat="43.0742" lon="2.63248">
        <ele>163.6</ele>
        <time>2024-05-10T13:21:00Z</time>
      </trkpt>
      <trkpt lat="43.07414" lon="2.63224">
        <ele>163.5</ele>
        <time>2024-05-10T13:21:01Z</time>
      </trkpt>
      <trkpt lat="43.07408" lon="2.63201">
        <ele>163.5</ele>
        <time>2024-05-10T13:21:02Z</time>
      </trkpt>
      <trkpt lat="43.07403" lon="2.63178">
        <ele>164</ele>
        <time>2024-05-10T13:21:03Z</time>
      </trkpt>
      <trkpt lat="43.07397" lon="2.63154">
        <ele>164.3</ele>
        <time>2024-05-10T13:21:04Z</time>
      </trkpt>
      <trkpt lat="43.07391" lon="2.6313">
        <ele>164.8</ele>
        <time>2024-05-10T13:21:05Z</time>
      </trkpt>
      <trkpt lat="43.07386" lon="2.63106">
        <ele>165.3</ele>
        <time>2024-05-10T13:21:06Z</time>
      </trkpt>
      <trkpt lat="43.0738" lon="2.63082">
        <ele>166.3</ele>
        <time>2024-05-10T13:21:07Z</time>
      </trkpt>
      <trkpt lat="43.07374" lon="2.63058">
        <ele>166.7</ele>
        <time>2024-05-10T13:21:08Z</time>
      </trkpt>
      <trkpt lat="43.07368" lon="2.63034">
        <ele>167.3</ele>
        <time>2024-05-10T13:21:09Z</time>
      </trkpt>
      <trkpt lat="43.07361" lon="2.63009">
        <ele>168.7</ele>
        <time>2024-05-10T13:21:10Z</time>
      </trkpt>
      <trkpt lat="43.07355" lon="2.62983">
        <ele>170.3</ele>
        <time>2024-05-10T13:21:11Z</time>
      </trkpt>
      <trkpt lat="43.07349" lon="2.62957">
        <ele>171.1</ele>
        <time>2024-05-10T13:21:12Z</time>
      </trkpt>
      <trkpt lat="43.07344" lon="2.62931">
        <ele>171.3</ele>
        <time>2024-05-10T13:21:13Z</time>
      </trkpt>
      <trkpt lat="43.0734" lon="2.62903">
        <ele>171.3</ele>
        <time>2024-05-10T13:21:14Z</time>
      </trkpt>
      <trkpt lat="43.07337" lon="2.62874">
        <ele>171.3</ele>
        <time>2024-05-10T13:21:15Z</time>
      </trkpt>
      <trkpt lat="43.07336" lon="2.62844">
        <ele>172.2</ele>
        <time>2024-05-10T13:21:16Z</time>
      </trkpt>
      <trkpt lat="43.07335" lon="2.62813">
        <ele>173.5</ele>
        <time>2024-05-10T13:21:17Z</time>
      </trkpt>
      <trkpt lat="43.07336" lon="2.62783">
        <ele>174.7</ele>
        <time>2024-05-10T13:21:18Z</time>
      </trkpt>
      <trkpt lat="43.07336" lon="2.62753">
        <ele>175.8</ele>
        <time>2024-05-10T13:21:19Z</time>
      </trkpt>
      <trkpt lat="43.07336" lon="2.62723">
        <ele>176.8</ele>
        <time>2024-05-10T13:21:20Z</time>
      </trkpt>
      <trkpt lat="43.07337" lon="2.62694">
        <ele>177.7</ele>
        <time>2024-05-10T13:21:21Z</time>
      </trkpt>
      <trkpt lat="43.07338" lon="2.62665">
        <ele>177.7</ele>
        <time>2024-05-10T13:21:22Z</time>
      </trkpt>
      <trkpt lat="43.07338" lon="2.62636">
        <ele>178.8</ele>
        <time>2024-05-10T13:21:23Z</time>
      </trkpt>
      <trkpt lat="43.07337" lon="2.62607">
        <ele>179.8</ele>
        <time>2024-05-10T13:21:24Z</time>
      </trkpt>
      <trkpt lat="43.07333" lon="2.6258">
        <ele>180</ele>
        <time>2024-05-10T13:21:25Z</time>
      </trkpt>
      <trkpt lat="43.07326" lon="2.62554">
        <ele>180.8</ele>
        <time>2024-05-10T13:21:26Z</time>
      </trkpt>
      <trkpt lat="43.07317" lon="2.6253">
        <ele>181.1</ele>
        <time>2024-05-10T13:21:27Z</time>
      </trkpt>
      <trkpt lat="43.07304" lon="2.62507">
        <ele>180.2</ele>
        <time>2024-05-10T13:21:28Z</time>
      </trkpt>
      <trkpt lat="43.0729" lon="2.62485">
        <ele>178.8</ele>
        <time>2024-05-10T13:21:29Z</time>
      </trkpt>
      <trkpt lat="43.07275" lon="2.62464">
        <ele>179.3</ele>
        <time>2024-05-10T13:21:30Z</time>
      </trkpt>
      <trkpt lat="43.07262" lon="2.62441">
        <ele>179.1</ele>
        <time>2024-05-10T13:21:31Z</time>
      </trkpt>
      <trkpt lat="43.07251" lon="2.62418">
        <ele>179</ele>
        <time>2024-05-10T13:21:32Z</time>
      </trkpt>
      <trkpt lat="43.07243" lon="2.62393">
        <ele>180.4</ele>
        <time>2024-05-10T13:21:33Z</time>
      </trkpt>
      <trkpt lat="43.07239" lon="2.62367">
        <ele>179.5</ele>
        <time>2024-05-10T13:21:34Z</time>
      </trkpt>
      <trkpt lat="43.07239" lon="2.62342">
        <ele>178.3</ele>
        <time>2024-05-10T13:21:35Z</time>
      </trkpt>
      <trkpt lat="43.07242" lon="2.62317">
        <ele>176.1</ele>
        <time>2024-05-10T13:21:36Z</time>
      </trkpt>
      <trkpt lat="43.07248" lon="2.62293">
        <ele>174.3</ele>
        <time>2024-05-10T13:21:37Z</time>
      </trkpt>
      <trkpt lat="43.07251" lon="2.62269">
        <ele>173.9</ele>
        <time>2024-05-10T13:21:38Z</time>
      </trkpt>
      <trkpt lat="43.07251" lon="2.62246">
        <ele>173.6</ele>
        <time>2024-05-10T13:21:39Z</time>
      </trkpt>
      <trkpt lat="43.07248" lon="2.62224">
        <ele>172.5</ele>
        <time>2024-05-10T13:21:40Z</time>
      </trkpt>
      <trkpt lat="43.07242" lon="2.62203">
        <ele>171.9</ele>
        <time>2024-05-10T13:21:41Z</time>
      </trkpt>
      <trkpt lat="43.07235" lon="2.62182">
        <ele>171.3</ele>
        <time>2024-05-10T13:21:42Z</time>
      </trkpt>
      <trkpt lat="43.07226" lon="2.62161">
        <ele>171.3</ele>
        <time>2024-05-10T13:21:43Z</time>
      </trkpt>
      <trkpt lat="43.07216" lon="2.62141">
        <ele>172.3</ele>
        <time>2024-05-10T13:21:44Z</time>
      </trkpt>
      <trkpt lat="43.07207" lon="2.62121">
        <ele>171.1</ele>
        <time>2024-05-10T13:21:45Z</time>
      </trkpt>
      <trkpt lat="43.07196" lon="2.62101">
        <ele>170.2</ele>
        <time>2024-05-10T13:21:46Z</time>
      </trkpt>
      <trkpt lat="43.07186" lon="2.62083">
        <ele>170.1</ele>
        <time>2024-05-10T13:21:47Z</time>
      </trkpt>
      <trkpt lat="43.07175" lon="2.62065">
        <ele>168.9</ele>
        <time>2024-05-10T13:21:48Z</time>
      </trkpt>
      <trkpt lat="43.07164" lon="2.62047">
        <ele>168</ele>
        <time>2024-05-10T13:21:49Z</time>
      </trkpt>
      <trkpt lat="43.07154" lon="2.62029">
        <ele>166.5</ele>
        <time>2024-05-10T13:21:50Z</time>
      </trkpt>
      <trkpt lat="43.07143" lon="2.62012">
        <ele>167.3</ele>
        <time>2024-05-10T13:21:51Z</time>
      </trkpt>
      <trkpt lat="43.07133" lon="2.61994">
        <ele>167.9</ele>
        <time>2024-05-10T13:21:52Z</time>
      </trkpt>
      <trkpt lat="43.07125" lon="2.61976">
        <ele>167.1</ele>
        <time>2024-05-10T13:21:53Z</time>
      </trkpt>
      <trkpt lat="43.07118" lon="2.61956">
        <ele>166</ele>
        <time>2024-05-10T13:21:54Z</time>
      </trkpt>
      <trkpt lat="43.07113" lon="2.61936">
        <ele>165.1</ele>
        <time>2024-05-10T13:21:55Z</time>
      </trkpt>
      <trkpt lat="43.07109" lon="2.61914">
        <ele>164.4</ele>
        <time>2024-05-10T13:21:56Z</time>
      </trkpt>
      <trkpt lat="43.07108" lon="2.6189">
        <ele>163.9</ele>
        <time>2024-05-10T13:21:57Z</time>
      </trkpt>
      <trkpt lat="43.07109" lon="2.61866">
        <ele>163.5</ele>
        <time>2024-05-10T13:21:58Z</time>
      </trkpt>
      <trkpt lat="43.07112" lon="2.61843">
        <ele>162.8</ele>
        <time>2024-05-10T13:21:59Z</time>
      </trkpt>
      <trkpt lat="43.07117" lon="2.6182">
        <ele>161.5</ele>
        <time>2024-05-10T13:22:00Z</time>
      </trkpt>
      <trkpt lat="43.07119" lon="2.61797">
        <ele>160.6</ele>
        <time>2024-05-10T13:22:01Z</time>
      </trkpt>
      <trkpt lat="43.0712" lon="2.61774">
        <ele>160.1</ele>
        <time>2024-05-10T13:22:02Z</time>
      </trkpt>
      <trkpt lat="43.07121" lon="2.61751">
        <ele>159.8</ele>
        <time>2024-05-10T13:22:03Z</time>
      </trkpt>
      <trkpt lat="43.07124" lon="2.6173">
        <ele>159.5</ele>
        <time>2024-05-10T13:22:04Z</time>
      </trkpt>
      <trkpt lat="43.07129" lon="2.61709">
        <ele>158.8</ele>
        <time>2024-05-10T13:22:05Z</time>
      </trkpt>
      <trkpt lat="43.07134" lon="2.61688">
        <ele>158.2</ele>
        <time>2024-05-10T13:22:06Z</time>
      </trkpt>
      <trkpt lat="43.07141" lon="2.61667">
        <ele>156.6</ele>
        <time>2024-05-10T13:22:07Z</time>
      </trkpt>
      <trkpt lat="43.07146" lon="2.61646">
        <ele>155.8</ele>
        <time>2024-05-10T13:22:08Z</time>
      </trkpt>
      <trkpt lat="43.07147" lon="2.61623">
        <ele>155.7</ele>
        <time>2024-05-10T13:22:09Z</time>
      </trkpt>
      <trkpt lat="43.07147" lon="2.61599">
        <ele>155</ele>
        <time>2024-05-10T13:22:10Z</time>
      </trkpt>
      <trkpt lat="43.07143" lon="2.61573">
        <ele>154.5</ele>
        <time>2024-05-10T13:22:11Z</time>
      </trkpt>
      <trkpt lat="43.07139" lon="2.61547">
        <ele>153.4</ele>
        <time>2024-05-10T13:22:12Z</time>
      </trkpt>
      <trkpt lat="43.07135" lon="2.61521">
        <ele>152.8</ele>
        <time>2024-05-10T13:22:13Z</time>
      </trkpt>
      <trkpt lat="43.07132" lon="2.61496">
        <ele>152.5</ele>
        <time>2024-05-10T13:22:14Z</time>
      </trkpt>
      <trkpt lat="43.07131" lon="2.6147">
        <ele>152.8</ele>
        <time>2024-05-10T13:22:15Z</time>
      </trkpt>
      <trkpt lat="43.0713" lon="2.61445">
        <ele>152.9</ele>
        <time>2024-05-10T13:22:16Z</time>
      </trkpt>
      <trkpt lat="43.07131" lon="2.61421">
        <ele>152.6</ele>
        <time>2024-05-10T13:22:17Z</time>
      </trkpt>
      <trkpt lat="43.07133" lon="2.61396">
        <ele>150.7</ele>
        <time>2024-05-10T13:22:18Z</time>
      </trkpt>
      <trkpt lat="43.07135" lon="2.61373">
        <ele>150.6</ele>
        <time>2024-05-10T13:22:19Z</time>
      </trkpt>
      <trkpt lat="43.07139" lon="2.61349">
        <ele>149.5</ele>
        <time>2024-05-10T13:22:20Z</time>
      </trkpt>
      <trkpt lat="43.07142" lon="2.61326">
        <ele>148.5</ele>
        <time>2024-05-10T13:22:21Z</time>
      </trkpt>
      <trkpt lat="43.07145" lon="2.61302">
        <ele>147.9</ele>
        <time>2024-05-10T13:22:22Z</time>
      </trkpt>
      <trkpt lat="43.07149" lon="2.61279">
        <ele>146.8</ele>
        <time>2024-05-10T13:22:23Z</time>
      </trkpt>
      <trkpt lat="43.07152" lon="2.61257">
        <ele>146.6</ele>
        <time>2024-05-10T13:22:24Z</time>
      </trkpt>
      <trkpt lat="43.07155" lon="2.61234">
        <ele>145.7</ele>
        <time>2024-05-10T13:22:25Z</time>
      </trkpt>
      <trkpt lat="43.07158" lon="2.61214">
        <ele>144.5</ele>
        <time>2024-05-10T13:22:26Z</time>
      </trkpt>
      <trkpt lat="43.07158" lon="2.61195">
        <ele>144.5</ele>
        <time>2024-05-10T13:22:27Z</time>
      </trkpt>
      <trkpt lat="43.07158" lon="2.61178">
        <ele>143.9</ele>
        <time>2024-05-10T13:22:28Z</time>
      </trkpt>
      <trkpt lat="43.07157" lon="2.61163">
        <ele>143.5</ele>
        <time>2024-05-10T13:22:29Z</time>
      </trkpt>
      <trkpt lat="43.07155" lon="2.6115">
        <ele>142.9</ele>
        <time>2024-05-10T13:22:30Z</time>
      </trkpt>
      <trkpt lat="43.07153" lon="2.61139">
        <ele>142.5</ele>
        <time>2024-05-10T13:22:31Z</time>
      </trkpt>
      <trkpt lat="43.07151" lon="2.61129">
        <ele>142.3</ele>
        <time>2024-05-10T13:22:32Z</time>
      </trkpt>
      <trkpt lat="43.07149" lon="2.61119">
        <ele>142</ele>
        <time>2024-05-10T13:22:33Z</time>
      </trkpt>
      <trkpt lat="43.07147" lon="2.6111">
        <ele>141.8</ele>
        <time>2024-05-10T13:22:34Z</time>
      </trkpt>
      <trkpt lat="43.07145" lon="2.61101">
        <ele>142.1</ele>
        <time>2024-05-10T13:22:35Z</time>
      </trkpt>
      <trkpt lat="43.07145" lon="2.61093">
        <ele>142.1</ele>
        <time>2024-05-10T13:22:36Z</time>
      </trkpt>
      <trkpt lat="43.07145" lon="2.61086">
        <ele>142.1</ele>
        <time>2024-05-10T13:22:37Z</time>
      </trkpt>
      <trkpt lat="43.07145" lon="2.6108">
        <ele>142</ele>
        <time>2024-05-10T13:22:38Z</time>
      </trkpt>
      <trkpt lat="43.07146" lon="2.61076">
        <ele>141.8</ele>
        <time>2024-05-10T13:22:39Z</time>
      </trkpt>
      <trkpt lat="43.07148" lon="2.61073">
        <ele>141.4</ele>
        <time>2024-05-10T13:22:40Z</time>
      </trkpt>
      <trkpt lat="43.0715" lon="2.61069">
        <ele>141.1</ele>
        <time>2024-05-10T13:22:41Z</time>
      </trkpt>
      <trkpt lat="43.07151" lon="2.61067">
        <ele>140.9</ele>
        <time>2024-05-10T13:22:42Z</time>
      </trkpt>
      <trkpt lat="43.07151" lon="2.61066">
        <ele>140.9</ele>
        <time>2024-05-10T13:22:43Z</time>
      </trkpt>
      <trkpt lat="43.07151" lon="2.61067">
        <ele>140.9</ele>
        <time>2024-05-10T13:22:44Z</time>
      </trkpt>
      <trkpt lat="43.07152" lon="2.61068">
        <ele>140.8</ele>
        <time>2024-05-10T13:22:45Z</time>
      </trkpt>
      <trkpt lat="43.07152" lon="2.61068">
        <ele>140.8</ele>
        <time>2024-05-10T13:22:46Z</time>
      </trkpt>
      <trkpt lat="43.07152" lon="2.61068">
        <ele>140.8</ele>
        <time>2024-05-10T13:22:47Z</time>
      </trkpt>
      <trkpt lat="43.07152" lon="2.61068">
        <ele>140.8</ele>
        <time>2024-05-10T13:22:48Z</time>
      </trkpt>
      <trkpt lat="43.07152" lon="2.61068">
        <ele>140.8</ele>
        <time>2024-05-10T13:22:49Z</time>
      </trkpt>
      <trkpt lat="43.07152" lon="2.61068">
        <ele>140.8</ele>
        <time>2024-05-10T13:22:50Z</time>
      </trkpt>
      <trkpt lat="43.07152" lon="2.61068">
        <ele>140.8</ele>
        <time>2024-05-10T13:22:51Z</time>
      </trkpt>
      <trkpt lat="43.07152" lon="2.61068">
        <ele>140.8</ele>
        <time>2024-05-10T13:22:52Z</time>
      </trkpt>
      <trkpt lat="43.07152" lon="2.61067">
        <ele>140.8</ele>
        <time>2024-05-10T13:22:53Z</time>
      </trkpt>
      <trkpt lat="43.07154" lon="2.61065">
        <ele>140.5</ele>
        <time>2024-05-10T13:22:54Z</time>
      </trkpt>
      <trkpt lat="43.07159" lon="2.61062">
        <ele>139.9</ele>
        <time>2024-05-10T13:22:55Z</time>
      </trkpt>
      <trkpt lat="43.07168" lon="2.61059">
        <ele>139.1</ele>
        <time>2024-05-10T13:22:56Z</time>
      </trkpt>
      <trkpt lat="43.07178" lon="2.61058">
        <ele>140.2</ele>
        <time>2024-05-10T13:22:57Z</time>
      </trkpt>
      <trkpt lat="43.07188" lon="2.61056">
        <ele>141.3</ele>
        <time>2024-05-10T13:22:58Z</time>
      </trkpt>
      <trkpt lat="43.07199" lon="2.61054">
        <ele>141.9</ele>
        <time>2024-05-10T13:22:59Z</time>
      </trkpt>
      <trkpt lat="43.07212" lon="2.61052">
        <ele>141.8</ele>
        <time>2024-05-10T13:23:00Z</time>
      </trkpt>
      <trkpt lat="43.07225" lon="2.6105">
        <ele>141.8</ele>
        <time>2024-05-10T13:23:01Z</time>
      </trkpt>
      <trkpt lat="43.07237" lon="2.61046">
        <ele>141.8</ele>
        <time>2024-05-10T13:23:02Z</time>
      </trkpt>
      <trkpt lat="43.0725" lon="2.61042">
        <ele>142</ele>
        <time>2024-05-10T13:23:03Z</time>
      </trkpt>
      <trkpt lat="43.07263" lon="2.61037">
        <ele>142.2</ele>
        <time>2024-05-10T13:23:04Z</time>
      </trkpt>
      <trkpt lat="43.07275" lon="2.61029">
        <ele>142</ele>
        <time>2024-05-10T13:23:05Z</time>
      </trkpt>
      <trkpt lat="43.07287" lon="2.61018">
        <ele>142.1</ele>
        <time>2024-05-10T13:23:06Z</time>
      </trkpt>
      <trkpt lat="43.07299" lon="2.61007">
        <ele>142.6</ele>
        <time>2024-05-10T13:23:07Z</time>
      </trkpt>
      <trkpt lat="43.07309" lon="2.60993">
        <ele>142.9</ele>
        <time>2024-05-10T13:23:08Z</time>
      </trkpt>
      <trkpt lat="43.07319" lon="2.60979">
        <ele>142.7</ele>
        <time>2024-05-10T13:23:09Z</time>
      </trkpt>
      <trkpt lat="43.07328" lon="2.60962">
        <ele>142.4</ele>
        <time>2024-05-10T13:23:10Z</time>
      </trkpt>
      <trkpt lat="43.07335" lon="2.60946">
        <ele>142.2</ele>
        <time>2024-05-10T13:23:11Z</time>
      </trkpt>
      <trkpt lat="43.07341" lon="2.60928">
        <ele>142</ele>
        <time>2024-05-10T13:23:12Z</time>
      </trkpt>
      <trkpt lat="43.07345" lon="2.60908">
        <ele>141.7</ele>
        <time>2024-05-10T13:23:13Z</time>
      </trkpt>
      <trkpt lat="43.07347" lon="2.60887">
        <ele>141.4</ele>
        <time>2024-05-10T13:23:14Z</time>
      </trkpt>
      <trkpt lat="43.07349" lon="2.60865">
        <ele>140.3</ele>
        <time>2024-05-10T13:23:15Z</time>
      </trkpt>
      <trkpt lat="43.0735" lon="2.60843">
        <ele>139.7</ele>
        <time>2024-05-10T13:23:16Z</time>
      </trkpt>
      <trkpt lat="43.07351" lon="2.60823">
        <ele>139.8</ele>
        <time>2024-05-10T13:23:17Z</time>
      </trkpt>
      <trkpt lat="43.07352" lon="2.60803">
        <ele>140.2</ele>
        <time>2024-05-10T13:23:18Z</time>
      </trkpt>
      <trkpt lat="43.07354" lon="2.60783">
        <ele>139.3</ele>
        <time>2024-05-10T13:23:19Z</time>
      </trkpt>
      <trkpt lat="43.07356" lon="2.60764">
        <ele>138.8</ele>
        <time>2024-05-10T13:23:20Z</time>
      </trkpt>
      <trkpt lat="43.07357" lon="2.60746">
        <ele>138.4</ele>
        <time>2024-05-10T13:23:21Z</time>
      </trkpt>
      <trkpt lat="43.07358" lon="2.60729">
        <ele>138.5</ele>
        <time>2024-05-10T13:23:22Z</time>
      </trkpt>
      <trkpt lat="43.0736" lon="2.60712">
        <ele>138.4</ele>
        <time>2024-05-10T13:23:23Z</time>
      </trkpt>
      <trkpt lat="43.07363" lon="2.60696">
        <ele>139.4</ele>
        <time>2024-05-10T13:23:24Z</time>
      </trkpt>
      <trkpt lat="43.07368" lon="2.6068">
        <ele>140.6</ele>
        <time>2024-05-10T13:23:25Z</time>
      </trkpt>
      <trkpt lat="43.07376" lon="2.60664">
        <ele>140</ele>
        <time>2024-05-10T13:23:26Z</time>
      </trkpt>
      <trkpt lat="43.07386" lon="2.60649">
        <ele>138.3</ele>
        <time>2024-05-10T13:23:27Z</time>
      </trkpt>
      <trkpt lat="43.07398" lon="2.60635">
        <ele>139.4</ele>
        <time>2024-05-10T13:23:28Z</time>
      </trkpt>
      <trkpt lat="43.07412" lon="2.60621">
        <ele>140</ele>
        <time>2024-05-10T13:23:29Z</time>
      </trkpt>
      <trkpt lat="43.07426" lon="2.60607">
        <ele>139.5</ele>
        <time>2024-05-10T13:23:30Z</time>
      </trkpt>
      <trkpt lat="43.0744" lon="2.60593">
        <ele>139.5</ele>
        <time>2024-05-10T13:23:31Z</time>
      </trkpt>
      <trkpt lat="43.07456" lon="2.60576">
        <ele>138.7</ele>
        <time>2024-05-10T13:23:32Z</time>
      </trkpt>
      <trkpt lat="43.07472" lon="2.60559">
        <ele>137.9</ele>
        <time>2024-05-10T13:23:33Z</time>
      </trkpt>
      <trkpt lat="43.0749" lon="2.60542">
        <ele>136.8</ele>
        <time>2024-05-10T13:23:34Z</time>
      </trkpt>
      <trkpt lat="43.07508" lon="2.60526">
        <ele>136.9</ele>
        <time>2024-05-10T13:23:35Z</time>
      </trkpt>
      <trkpt lat="43.07526" lon="2.60511">
        <ele>137.3</ele>
        <time>2024-05-10T13:23:36Z</time>
      </trkpt>
      <trkpt lat="43.07545" lon="2.60496">
        <ele>137.3</ele>
        <time>2024-05-10T13:23:37Z</time>
      </trkpt>
      <trkpt lat="43.07563" lon="2.60481">
        <ele>137.5</ele>
        <time>2024-05-10T13:23:38Z</time>
      </trkpt>
      <trkpt lat="43.07579" lon="2.60467">
        <ele>137.5</ele>
        <time>2024-05-10T13:23:39Z</time>
      </trkpt>
      <trkpt lat="43.07594" lon="2.60455">
        <ele>136.9</ele>
        <time>2024-05-10T13:23:40Z</time>
      </trkpt>
      <trkpt lat="43.07608" lon="2.60442">
        <ele>136.3</ele>
        <time>2024-05-10T13:23:41Z</time>
      </trkpt>
      <trkpt lat="43.07622" lon="2.60431">
        <ele>136.4</ele>
        <time>2024-05-10T13:23:42Z</time>
      </trkpt>
      <trkpt lat="43.07636" lon="2.60422">
        <ele>137.2</ele>
        <time>2024-05-10T13:23:43Z</time>
      </trkpt>
      <trkpt lat="43.0765" lon="2.60418">
        <ele>137.1</ele>
        <time>2024-05-10T13:23:44Z</time>
      </trkpt>
      <trkpt lat="43.07665" lon="2.60419">
        <ele>137.2</ele>
        <time>2024-05-10T13:23:45Z</time>
      </trkpt>
      <trkpt lat="43.07679" lon="2.60424">
        <ele>136.2</ele>
        <time>2024-05-10T13:23:46Z</time>
      </trkpt>
      <trkpt lat="43.07693" lon="2.60433">
        <ele>135.3</ele>
        <time>2024-05-10T13:23:47Z</time>
      </trkpt>
      <trkpt lat="43.07706" lon="2.60446">
        <ele>135</ele>
        <time>2024-05-10T13:23:48Z</time>
      </trkpt>
      <trkpt lat="43.07716" lon="2.60462">
        <ele>135.9</ele>
        <time>2024-05-10T13:23:49Z</time>
      </trkpt>
      <trkpt lat="43.07726" lon="2.6048">
        <ele>136.1</ele>
        <time>2024-05-10T13:23:50Z</time>
      </trkpt>
      <trkpt lat="43.07737" lon="2.60501">
        <ele>135.5</ele>
        <time>2024-05-10T13:23:51Z</time>
      </trkpt>
      <trkpt lat="43.07748" lon="2.60523">
        <ele>135.3</ele>
        <time>2024-05-10T13:23:52Z</time>
      </trkpt>
      <trkpt lat="43.07759" lon="2.60547">
        <ele>136.4</ele>
        <time>2024-05-10T13:23:53Z</time>
      </trkpt>
      <trkpt lat="43.07771" lon="2.60569">
        <ele>135.6</ele>
        <time>2024-05-10T13:23:54Z</time>
      </trkpt>
      <trkpt lat="43.07783" lon="2.60593">
        <ele>134.9</ele>
        <time>2024-05-10T13:23:55Z</time>
      </trkpt>
      <trkpt lat="43.07795" lon="2.60616">
        <ele>134.4</ele>
        <time>2024-05-10T13:23:56Z</time>
      </trkpt>
      <trkpt lat="43.07806" lon="2.6064">
        <ele>134.1</ele>
        <time>2024-05-10T13:23:57Z</time>
      </trkpt>
      <trkpt lat="43.07817" lon="2.60662">
        <ele>134.2</ele>
        <time>2024-05-10T13:23:58Z</time>
      </trkpt>
      <trkpt lat="43.07827" lon="2.60684">
        <ele>134.1</ele>
        <time>2024-05-10T13:23:59Z</time>
      </trkpt>
      <trkpt lat="43.07835" lon="2.60706">
        <ele>134.2</ele>
        <time>2024-05-10T13:24:00Z</time>
      </trkpt>
      <trkpt lat="43.07842" lon="2.6073">
        <ele>133.6</ele>
        <time>2024-05-10T13:24:01Z</time>
      </trkpt>
      <trkpt lat="43.07846" lon="2.60756">
        <ele>133.6</ele>
        <time>2024-05-10T13:24:02Z</time>
      </trkpt>
      <trkpt lat="43.0785" lon="2.60785">
        <ele>134</ele>
        <time>2024-05-10T13:24:03Z</time>
      </trkpt>
      <trkpt lat="43.07855" lon="2.60814">
        <ele>133.7</ele>
        <time>2024-05-10T13:24:04Z</time>
      </trkpt>
      <trkpt lat="43.07859" lon="2.60842">
        <ele>133.7</ele>
        <time>2024-05-10T13:24:05Z</time>
      </trkpt>
      <trkpt lat="43.07864" lon="2.6087">
        <ele>132.8</ele>
        <time>2024-05-10T13:24:06Z</time>
      </trkpt>
      <trkpt lat="43.07868" lon="2.60898">
        <ele>133.3</ele>
        <time>2024-05-10T13:24:07Z</time>
      </trkpt>
      <trkpt lat="43.07872" lon="2.60926">
        <ele>134.3</ele>
        <time>2024-05-10T13:24:08Z</time>
      </trkpt>
      <trkpt lat="43.07877" lon="2.60953">
        <ele>133.6</ele>
        <time>2024-05-10T13:24:09Z</time>
      </trkpt>
      <trkpt lat="43.07882" lon="2.6098">
        <ele>133.7</ele>
        <time>2024-05-10T13:24:10Z</time>
      </trkpt>
      <trkpt lat="43.0789" lon="2.61006">
        <ele>134.6</ele>
        <time>2024-05-10T13:24:11Z</time>
      </trkpt>
      <trkpt lat="43.079" lon="2.61032">
        <ele>135.8</ele>
        <time>2024-05-10T13:24:12Z</time>
      </trkpt>
      <trkpt lat="43.07913" lon="2.61056">
        <ele>136</ele>
        <time>2024-05-10T13:24:13Z</time>
      </trkpt>
      <trkpt lat="43.07926" lon="2.61078">
        <ele>135.4</ele>
        <time>2024-05-10T13:24:14Z</time>
      </trkpt>
      <trkpt lat="43.07938" lon="2.611">
        <ele>135.9</ele>
        <time>2024-05-10T13:24:15Z</time>
      </trkpt>
      <trkpt lat="43.07948" lon="2.61123">
        <ele>136.3</ele>
        <time>2024-05-10T13:24:16Z</time>
      </trkpt>
      <trkpt lat="43.07957" lon="2.61146">
        <ele>137.1</ele>
        <time>2024-05-10T13:24:17Z</time>
      </trkpt>
      <trkpt lat="43.07962" lon="2.6117">
        <ele>137.5</ele>
        <time>2024-05-10T13:24:18Z</time>
      </trkpt>
      <trkpt lat="43.07966" lon="2.61191">
        <ele>135.7</ele>
        <time>2024-05-10T13:24:19Z</time>
      </trkpt>
      <trkpt lat="43.07971" lon="2.61211">
        <ele>136.8</ele>
        <time>2024-05-10T13:24:20Z</time>
      </trkpt>
      <trkpt lat="43.0798" lon="2.61228">
        <ele>137.8</ele>
        <time>2024-05-10T13:24:21Z</time>
      </trkpt>
      <trkpt lat="43.07991" lon="2.61242">
        <ele>138.1</ele>
        <time>2024-05-10T13:24:22Z</time>
      </trkpt>
      <trkpt lat="43.08006" lon="2.61253">
        <ele>138.8</ele>
        <time>2024-05-10T13:24:23Z</time>
      </trkpt>
      <trkpt lat="43.08022" lon="2.61261">
        <ele>139.9</ele>
        <time>2024-05-10T13:24:24Z</time>
      </trkpt>
      <trkpt lat="43.08039" lon="2.61266">
        <ele>138.8</ele>
        <time>2024-05-10T13:24:25Z</time>
      </trkpt>
      <trkpt lat="43.08055" lon="2.61272">
        <ele>137.3</ele>
        <time>2024-05-10T13:24:26Z</time>
      </trkpt>
      <trkpt lat="43.08071" lon="2.61278">
        <ele>138</ele>
        <time>2024-05-10T13:24:27Z</time>
      </trkpt>
      <trkpt lat="43.08085" lon="2.61284">
        <ele>138.5</ele>
        <time>2024-05-10T13:24:28Z</time>
      </trkpt>
      <trkpt lat="43.08098" lon="2.61293">
        <ele>138.1</ele>
        <time>2024-05-10T13:24:29Z</time>
      </trkpt>
      <trkpt lat="43.0811" lon="2.61307">
        <ele>138.2</ele>
        <time>2024-05-10T13:24:30Z</time>
      </trkpt>
      <trkpt lat="43.08119" lon="2.61324">
        <ele>137.7</ele>
        <time>2024-05-10T13:24:31Z</time>
      </trkpt>
      <trkpt lat="43.08126" lon="2.61343">
        <ele>137.1</ele>
        <time>2024-05-10T13:24:32Z</time>
      </trkpt>
      <trkpt lat="43.08132" lon="2.61365">
        <ele>136.8</ele>
        <time>2024-05-10T13:24:33Z</time>
      </trkpt>
      <trkpt lat="43.0814" lon="2.61386">
        <ele>137.5</ele>
        <time>2024-05-10T13:24:34Z</time>
      </trkpt>
      <trkpt lat="43.08151" lon="2.61406">
        <ele>138.1</ele>
        <time>2024-05-10T13:24:35Z</time>
      </trkpt>
      <trkpt lat="43.08164" lon="2.61423">
        <ele>138.3</ele>
        <time>2024-05-10T13:24:36Z</time>
      </trkpt>
      <trkpt lat="43.08179" lon="2.61438">
        <ele>138.5</ele>
        <time>2024-05-10T13:24:37Z</time>
      </trkpt>
      <trkpt lat="43.08196" lon="2.61452">
        <ele>137.4</ele>
        <time>2024-05-10T13:24:38Z</time>
      </trkpt>
      <trkpt lat="43.08213" lon="2.61468">
        <ele>137.9</ele>
        <time>2024-05-10T13:24:39Z</time>
      </trkpt>
      <trkpt lat="43.0823" lon="2.61483">
        <ele>137.6</ele>
        <time>2024-05-10T13:24:40Z</time>
      </trkpt>
      <trkpt lat="43.08248" lon="2.61497">
        <ele>137.7</ele>
        <time>2024-05-10T13:24:41Z</time>
      </trkpt>
      <trkpt lat="43.08264" lon="2.61511">
        <ele>137.6</ele>
        <time>2024-05-10T13:24:42Z</time>
      </trkpt>
      <trkpt lat="43.08281" lon="2.61524">
        <ele>137.9</ele>
        <time>2024-05-10T13:24:43Z</time>
      </trkpt>
      <trkpt lat="43.08298" lon="2.61535">
        <ele>137.2</ele>
        <time>2024-05-10T13:24:44Z</time>
      </trkpt>
      <trkpt lat="43.08316" lon="2.61547">
        <ele>137.7</ele>
        <time>2024-05-10T13:24:45Z</time>
      </trkpt>
      <trkpt lat="43.08333" lon="2.61558">
        <ele>138.4</ele>
        <time>2024-05-10T13:24:46Z</time>
      </trkpt>
      <trkpt lat="43.08349" lon="2.61569">
        <ele>137.4</ele>
        <time>2024-05-10T13:24:47Z</time>
      </trkpt>
      <trkpt lat="43.08365" lon="2.6158">
        <ele>136.8</ele>
        <time>2024-05-10T13:24:48Z</time>
      </trkpt>
      <trkpt lat="43.08378" lon="2.61592">
        <ele>136.1</ele>
        <time>2024-05-10T13:24:49Z</time>
      </trkpt>
      <trkpt lat="43.08391" lon="2.61607">
        <ele>136.1</ele>
        <time>2024-05-10T13:24:50Z</time>
      </trkpt>
      <trkpt lat="43.08404" lon="2.61623">
        <ele>136.1</ele>
        <time>2024-05-10T13:24:51Z</time>
      </trkpt>
      <trkpt lat="43.08419" lon="2.61641">
        <ele>136.8</ele>
        <time>2024-05-10T13:24:52Z</time>
      </trkpt>
      <trkpt lat="43.08432" lon="2.61659">
        <ele>136.2</ele>
        <time>2024-05-10T13:24:53Z</time>
      </trkpt>
      <trkpt lat="43.08446" lon="2.61677">
        <ele>136.6</ele>
        <time>2024-05-10T13:24:54Z</time>
      </trkpt>
      <trkpt lat="43.08459" lon="2.61694">
        <ele>136.8</ele>
        <time>2024-05-10T13:24:55Z</time>
      </trkpt>
      <trkpt lat="43.08473" lon="2.61713">
        <ele>136.6</ele>
        <time>2024-05-10T13:24:56Z</time>
      </trkpt>
      <trkpt lat="43.08487" lon="2.61731">
        <ele>137.6</ele>
        <time>2024-05-10T13:24:57Z</time>
      </trkpt>
      <trkpt lat="43.08501" lon="2.61748">
        <ele>136.6</ele>
        <time>2024-05-10T13:24:58Z</time>
      </trkpt>
      <trkpt lat="43.08516" lon="2.61763">
        <ele>137.4</ele>
        <time>2024-05-10T13:24:59Z</time>
      </trkpt>
      <trkpt lat="43.08532" lon="2.61775">
        <ele>136.9</ele>
        <time>2024-05-10T13:25:00Z</time>
      </trkpt>
      <trkpt lat="43.08549" lon="2.61786">
        <ele>136.7</ele>
        <time>2024-05-10T13:25:01Z</time>
      </trkpt>
      <trkpt lat="43.08567" lon="2.61796">
        <ele>136.3</ele>
        <time>2024-05-10T13:25:02Z</time>
      </trkpt>
      <trkpt lat="43.08585" lon="2.61806">
        <ele>135.8</ele>
        <time>2024-05-10T13:25:03Z</time>
      </trkpt>
      <trkpt lat="43.08604" lon="2.61819">
        <ele>135.4</ele>
        <time>2024-05-10T13:25:04Z</time>
      </trkpt>
      <trkpt lat="43.08624" lon="2.61832">
        <ele>136.3</ele>
        <time>2024-05-10T13:25:05Z</time>
      </trkpt>
      <trkpt lat="43.08642" lon="2.61844">
        <ele>136.3</ele>
        <time>2024-05-10T13:25:06Z</time>
      </trkpt>
      <trkpt lat="43.08659" lon="2.61856">
        <ele>136.4</ele>
        <time>2024-05-10T13:25:07Z</time>
      </trkpt>
      <trkpt lat="43.08675" lon="2.61867">
        <ele>136.2</ele>
        <time>2024-05-10T13:25:08Z</time>
      </trkpt>
      <trkpt lat="43.08691" lon="2.61876">
        <ele>135.3</ele>
        <time>2024-05-10T13:25:09Z</time>
      </trkpt>
      <trkpt lat="43.08707" lon="2.61884">
        <ele>136.1</ele>
        <time>2024-05-10T13:25:10Z</time>
      </trkpt>
      <trkpt lat="43.08723" lon="2.61889">
        <ele>137</ele>
        <time>2024-05-10T13:25:11Z</time>
      </trkpt>
      <trkpt lat="43.08736" lon="2.61893">
        <ele>136.9</ele>
        <time>2024-05-10T13:25:12Z</time>
      </trkpt>
      <trkpt lat="43.08748" lon="2.61896">
        <ele>136.7</ele>
        <time>2024-05-10T13:25:13Z</time>
      </trkpt>
      <trkpt lat="43.0876" lon="2.61899">
        <ele>136.8</ele>
        <time>2024-05-10T13:25:14Z</time>
      </trkpt>
      <trkpt lat="43.08771" lon="2.61901">
        <ele>136.9</ele>
        <time>2024-05-10T13:25:15Z</time>
      </trkpt>
      <trkpt lat="43.0878" lon="2.61903">
        <ele>136.9</ele>
        <time>2024-05-10T13:25:16Z</time>
      </trkpt>
      <trkpt lat="43.08787" lon="2.61905">
        <ele>137</ele>
        <time>2024-05-10T13:25:17Z</time>
      </trkpt>
      <trkpt lat="43.08794" lon="2.61907">
        <ele>136.9</ele>
        <time>2024-05-10T13:25:18Z</time>
      </trkpt>
      <trkpt lat="43.088" lon="2.61909">
        <ele>137</ele>
        <time>2024-05-10T13:25:19Z</time>
      </trkpt>
      <trkpt lat="43.08806" lon="2.61911">
        <ele>137</ele>
        <time>2024-05-10T13:25:20Z</time>
      </trkpt>
      <trkpt lat="43.08811" lon="2.61913">
        <ele>137.2</ele>
        <time>2024-05-10T13:25:21Z</time>
      </trkpt>
      <trkpt lat="43.08815" lon="2.61915">
        <ele>137.4</ele>
        <time>2024-05-10T13:25:22Z</time>
      </trkpt>
      <trkpt lat="43.0882" lon="2.61918">
        <ele>137.8</ele>
        <time>2024-05-10T13:25:23Z</time>
      </trkpt>
      <trkpt lat="43.08824" lon="2.61921">
        <ele>138.4</ele>
        <time>2024-05-10T13:25:24Z</time>
      </trkpt>
      <trkpt lat="43.08828" lon="2.61924">
        <ele>138.8</ele>
        <time>2024-05-10T13:25:25Z</time>
      </trkpt>
      <trkpt lat="43.08832" lon="2.61927">
        <ele>139</ele>
        <time>2024-05-10T13:25:26Z</time>
      </trkpt>
      <trkpt lat="43.08836" lon="2.61929">
        <ele>138.9</ele>
        <time>2024-05-10T13:25:27Z</time>
      </trkpt>
      <trkpt lat="43.0884" lon="2.61932">
        <ele>138.9</ele>
        <time>2024-05-10T13:25:28Z</time>
      </trkpt>
      <trkpt lat="43.08843" lon="2.61934">
        <ele>138.7</ele>
        <time>2024-05-10T13:25:29Z</time>
      </trkpt>
      <trkpt lat="43.08849" lon="2.61938">
        <ele>138.1</ele>
        <time>2024-05-10T13:25:30Z</time>
      </trkpt>
      <trkpt lat="43.08854" lon="2.61942">
        <ele>137.4</ele>
        <time>2024-05-10T13:25:31Z</time>
      </trkpt>
      <trkpt lat="43.08859" lon="2.61946">
        <ele>136.6</ele>
        <time>2024-05-10T13:25:32Z</time>
      </trkpt>
      <trkpt lat="43.08864" lon="2.61949">
        <ele>136.4</ele>
        <time>2024-05-10T13:25:33Z</time>
      </trkpt>
      <trkpt lat="43.08869" lon="2.61955">
        <ele>136.8</ele>
        <time>2024-05-10T13:25:34Z</time>
      </trkpt>
      <trkpt lat="43.08877" lon="2.61961">
        <ele>136.8</ele>
        <time>2024-05-10T13:25:35Z</time>
      </trkpt>
      <trkpt lat="43.08884" lon="2.61968">
        <ele>136.4</ele>
        <time>2024-05-10T13:25:36Z</time>
      </trkpt>
      <trkpt lat="43.08892" lon="2.61974">
        <ele>136.3</ele>
        <time>2024-05-10T13:25:37Z</time>
      </trkpt>
      <trkpt lat="43.08901" lon="2.6198">
        <ele>136.8</ele>
        <time>2024-05-10T13:25:38Z</time>
      </trkpt>
      <trkpt lat="43.08908" lon="2.61986">
        <ele>136.6</ele>
        <time>2024-05-10T13:25:39Z</time>
      </trkpt>
      <trkpt lat="43.08915" lon="2.61992">
        <ele>135.6</ele>
        <time>2024-05-10T13:25:40Z</time>
      </trkpt>
      <trkpt lat="43.08922" lon="2.61997">
        <ele>134.9</ele>
        <time>2024-05-10T13:25:41Z</time>
      </trkpt>
      <trkpt lat="43.08928" lon="2.62003">
        <ele>134.8</ele>
        <time>2024-05-10T13:25:42Z</time>
      </trkpt>
      <trkpt lat="43.08935" lon="2.62008">
        <ele>134.6</ele>
        <time>2024-05-10T13:25:43Z</time>
      </trkpt>
      <trkpt lat="43.08942" lon="2.62012">
        <ele>134.2</ele>
        <time>2024-05-10T13:25:44Z</time>
      </trkpt>
      <trkpt lat="43.08947" lon="2.62016">
        <ele>133.8</ele>
        <time>2024-05-10T13:25:45Z</time>
      </trkpt>
      <trkpt lat="43.08953" lon="2.62021">
        <ele>133.4</ele>
        <time>2024-05-10T13:25:46Z</time>
      </trkpt>
      <trkpt lat="43.08958" lon="2.62026">
        <ele>133</ele>
        <time>2024-05-10T13:25:47Z</time>
      </trkpt>
      <trkpt lat="43.08963" lon="2.6203">
        <ele>132.7</ele>
        <time>2024-05-10T13:25:48Z</time>
      </trkpt>
      <trkpt lat="43.08968" lon="2.62035">
        <ele>132.3</ele>
        <time>2024-05-10T13:25:49Z</time>
      </trkpt>
      <trkpt lat="43.08971" lon="2.62039">
        <ele>132.1</ele>
        <time>2024-05-10T13:25:50Z</time>
      </trkpt>
      <trkpt lat="43.08974" lon="2.62042">
        <ele>131.9</ele>
        <time>2024-05-10T13:25:51Z</time>
      </trkpt>
      <trkpt lat="43.08975" lon="2.62044">
        <ele>131.9</ele>
        <time>2024-05-10T13:25:52Z</time>
      </trkpt>
      <trkpt lat="43.08976" lon="2.62048">
        <ele>131.9</ele>
        <time>2024-05-10T13:25:53Z</time>
      </trkpt>
      <trkpt lat="43.08976" lon="2.62053">
        <ele>131.9</ele>
        <time>2024-05-10T13:25:54Z</time>
      </trkpt>
      <trkpt lat="43.08976" lon="2.62061">
        <ele>131.8</ele>
        <time>2024-05-10T13:25:55Z</time>
      </trkpt>
      <trkpt lat="43.08975" lon="2.62073">
        <ele>131.8</ele>
        <time>2024-05-10T13:25:56Z</time>
      </trkpt>
      <trkpt lat="43.08974" lon="2.62086">
        <ele>131.9</ele>
        <time>2024-05-10T13:25:57Z</time>
      </trkpt>
      <trkpt lat="43.08974" lon="2.62098">
        <ele>131.9</ele>
        <time>2024-05-10T13:25:58Z</time>
      </trkpt>
      <trkpt lat="43.08974" lon="2.62111">
        <ele>131.9</ele>
        <time>2024-05-10T13:25:59Z</time>
      </trkpt>
      <trkpt lat="43.08973" lon="2.62125">
        <ele>131.4</ele>
        <time>2024-05-10T13:26:00Z</time>
      </trkpt>
      <trkpt lat="43.08973" lon="2.62138">
        <ele>131</ele>
        <time>2024-05-10T13:26:01Z</time>
      </trkpt>
      <trkpt lat="43.08975" lon="2.62151">
        <ele>131.2</ele>
        <time>2024-05-10T13:26:02Z</time>
      </trkpt>
      <trkpt lat="43.08977" lon="2.62164">
        <ele>131.4</ele>
        <time>2024-05-10T13:26:03Z</time>
      </trkpt>
      <trkpt lat="43.0898" lon="2.62176">
        <ele>131.4</ele>
        <time>2024-05-10T13:26:04Z</time>
      </trkpt>
      <trkpt lat="43.08983" lon="2.62186">
        <ele>131.3</ele>
        <time>2024-05-10T13:26:05Z</time>
      </trkpt>
      <trkpt lat="43.08986" lon="2.62194">
        <ele>131</ele>
        <time>2024-05-10T13:26:06Z</time>
      </trkpt>
      <trkpt lat="43.08988" lon="2.62201">
        <ele>131.2</ele>
        <time>2024-05-10T13:26:07Z</time>
      </trkpt>
      <trkpt lat="43.0899" lon="2.62208">
        <ele>131.6</ele>
        <time>2024-05-10T13:26:08Z</time>
      </trkpt>
      <trkpt lat="43.08993" lon="2.62216">
        <ele>131.9</ele>
        <time>2024-05-10T13:26:09Z</time>
      </trkpt>
      <trkpt lat="43.08995" lon="2.62225">
        <ele>132.5</ele>
        <time>2024-05-10T13:26:10Z</time>
      </trkpt>
      <trkpt lat="43.08998" lon="2.62234">
        <ele>132.9</ele>
        <time>2024-05-10T13:26:11Z</time>
      </trkpt>
      <trkpt lat="43.09002" lon="2.62241">
        <ele>133.2</ele>
        <time>2024-05-10T13:26:12Z</time>
      </trkpt>
      <trkpt lat="43.09004" lon="2.62246">
        <ele>133.3</ele>
        <time>2024-05-10T13:26:13Z</time>
      </trkpt>
      <trkpt lat="43.09006" lon="2.62249">
        <ele>133.3</ele>
        <time>2024-05-10T13:26:14Z</time>
      </trkpt>
      <trkpt lat="43.09008" lon="2.62252">
        <ele>133.2</ele>
        <time>2024-05-10T13:26:15Z</time>
      </trkpt>
      <trkpt lat="43.0901" lon="2.62254">
        <ele>133.1</ele>
        <time>2024-05-10T13:26:16Z</time>
      </trkpt>
      <trkpt lat="43.09012" lon="2.62257">
        <ele>133.1</ele>
        <time>2024-05-10T13:26:17Z</time>
      </trkpt>
      <trkpt lat="43.09013" lon="2.62259">
        <ele>133.1</ele>
        <time>2024-05-10T13:26:18Z</time>
      </trkpt>
      <trkpt lat="43.09015" lon="2.62261">
        <ele>133</ele>
        <time>2024-05-10T13:26:19Z</time>
      </trkpt>
      <trkpt lat="43.09017" lon="2.62263">
        <ele>132.9</ele>
        <time>2024-05-10T13:26:20Z</time>
      </trkpt>
      <trkpt lat="43.09019" lon="2.62266">
        <ele>132.9</ele>
        <time>2024-05-10T13:26:21Z</time>
      </trkpt>
      <trkpt lat="43.09021" lon="2.62268">
        <ele>132.9</ele>
        <time>2024-05-10T13:26:22Z</time>
      </trkpt>
      <trkpt lat="43.09023" lon="2.62271">
        <ele>132.9</ele>
        <time>2024-05-10T13:26:23Z</time>
      </trkpt>
      <trkpt lat="43.09025" lon="2.62274">
        <ele>132.9</ele>
        <time>2024-05-10T13:26:24Z</time>
      </trkpt>
      <trkpt lat="43.09027" lon="2.62277">
        <ele>133</ele>
        <time>2024-05-10T13:26:25Z</time>
      </trkpt>
      <trkpt lat="43.09029" lon="2.6228">
        <ele>133</ele>
        <time>2024-05-10T13:26:26Z</time>
      </trkpt>
      <trkpt lat="43.09031" lon="2.62283">
        <ele>133</ele>
        <time>2024-05-10T13:26:27Z</time>
      </trkpt>
      <trkpt lat="43.09032" lon="2.62285">
        <ele>133</ele>
        <time>2024-05-10T13:26:28Z</time>
      </trkpt>
      <trkpt lat="43.09034" lon="2.62288">
        <ele>133</ele>
        <time>2024-05-10T13:26:29Z</time>
      </trkpt>
      <trkpt lat="43.09036" lon="2.6229">
        <ele>133</ele>
        <time>2024-05-10T13:26:30Z</time>
      </trkpt>
      <trkpt lat="43.09037" lon="2.62291">
        <ele>133</ele>
        <time>2024-05-10T13:26:31Z</time>
      </trkpt>
      <trkpt lat="43.09039" lon="2.62293">
        <ele>133</ele>
        <time>2024-05-10T13:26:32Z</time>
      </trkpt>
      <trkpt lat="43.09041" lon="2.62294">
        <ele>132.9</ele>
        <time>2024-05-10T13:26:33Z</time>
      </trkpt>
      <trkpt lat="43.09042" lon="2.62296">
        <ele>133</ele>
        <time>2024-05-10T13:26:34Z</time>
      </trkpt>
      <trkpt lat="43.09044" lon="2.62298">
        <ele>133</ele>
        <time>2024-05-10T13:26:35Z</time>
      </trkpt>
      <trkpt lat="43.09046" lon="2.62301">
        <ele>133.1</ele>
        <time>2024-05-10T13:26:36Z</time>
      </trkpt>
      <trkpt lat="43.09047" lon="2.62303">
        <ele>133.2</ele>
        <time>2024-05-10T13:26:37Z</time>
      </trkpt>
      <trkpt lat="43.09048" lon="2.62305">
        <ele>133.2</ele>
        <time>2024-05-10T13:26:38Z</time>
      </trkpt>
      <trkpt lat="43.09048" lon="2.62308">
        <ele>133.4</ele>
        <time>2024-05-10T13:26:39Z</time>
      </trkpt>
      <trkpt lat="43.09049" lon="2.62309">
        <ele>133.4</ele>
        <time>2024-05-10T13:26:40Z</time>
      </trkpt>
      <trkpt lat="43.09049" lon="2.62311">
        <ele>133.5</ele>
        <time>2024-05-10T13:26:41Z</time>
      </trkpt>
      <trkpt lat="43.0905" lon="2.62311">
        <ele>133.4</ele>
        <time>2024-05-10T13:26:42Z</time>
      </trkpt>
      <trkpt lat="43.0905" lon="2.6231">
        <ele>133.4</ele>
        <time>2024-05-10T13:26:43Z</time>
      </trkpt>
      <trkpt lat="43.0905" lon="2.6231">
        <ele>133.4</ele>
        <time>2024-05-10T13:26:44Z</time>
      </trkpt>
      <trkpt lat="43.09049" lon="2.6231">
        <ele>133.4</ele>
        <time>2024-05-10T13:26:45Z</time>
      </trkpt>
      <trkpt lat="43.09049" lon="2.62311">
        <ele>133.5</ele>
        <time>2024-05-10T13:26:46Z</time>
      </trkpt>
      <trkpt lat="43.09049" lon="2.62311">
        <ele>133.5</ele>
        <time>2024-05-10T13:26:47Z</time>
      </trkpt>
      <trkpt lat="43.09049" lon="2.62312">
        <ele>133.5</ele>
        <time>2024-05-10T13:26:48Z</time>
      </trkpt>
      <trkpt lat="43.09048" lon="2.62314">
        <ele>133.7</ele>
        <time>2024-05-10T13:26:49Z</time>
      </trkpt>
      <trkpt lat="43.09048" lon="2.62316">
        <ele>133.8</ele>
        <time>2024-05-10T13:26:50Z</time>
      </trkpt>
      <trkpt lat="43.09047" lon="2.62317">
        <ele>133.8</ele>
        <time>2024-05-10T13:26:51Z</time>
      </trkpt>
      <trkpt lat="43.09046" lon="2.62317">
        <ele>133.9</ele>
        <time>2024-05-10T13:26:52Z</time>
      </trkpt>
      <trkpt lat="43.09045" lon="2.62318">
        <ele>134</ele>
        <time>2024-05-10T13:26:53Z</time>
      </trkpt>
      <trkpt lat="43.09044" lon="2.62318">
        <ele>134.1</ele>
        <time>2024-05-10T13:26:54Z</time>
      </trkpt>
      <trkpt lat="43.09044" lon="2.62317">
        <ele>134</ele>
        <time>2024-05-10T13:26:55Z</time>
      </trkpt>
      <trkpt lat="43.09044" lon="2.62317">
        <ele>134</ele>
        <time>2024-05-10T13:26:56Z</time>
      </trkpt>
      <trkpt lat="43.09044" lon="2.62317">
        <ele>134</ele>
        <time>2024-05-10T13:26:57Z</time>
      </trkpt>
      <trkpt lat="43.09043" lon="2.62316">
        <ele>134</ele>
        <time>2024-05-10T13:26:58Z</time>
      </trkpt>
      <trkpt lat="43.09043" lon="2.62316">
        <ele>134</ele>
        <time>2024-05-10T13:26:59Z</time>
      </trkpt>
      <trkpt lat="43.09043" lon="2.62316">
        <ele>134</ele>
        <time>2024-05-10T13:27:00Z</time>
      </trkpt>
      <trkpt lat="43.09042" lon="2.62316">
        <ele>134</ele>
        <time>2024-05-10T13:27:01Z</time>
      </trkpt>
      <trkpt lat="43.09041" lon="2.62314">
        <ele>134</ele>
        <time>2024-05-10T13:27:02Z</time>
      </trkpt>
      <trkpt lat="43.09041" lon="2.62314">
        <ele>134</ele>
        <time>2024-05-10T13:27:03Z</time>
      </trkpt>
      <trkpt lat="43.09041" lon="2.62314">
        <ele>134</ele>
        <time>2024-05-10T13:27:04Z</time>
      </trkpt>
      <trkpt lat="43.09041" lon="2.62314">
        <ele>134</ele>
        <time>2024-05-10T13:27:05Z</time>
      </trkpt>
      <trkpt lat="43.09041" lon="2.62313">
        <ele>133.9</ele>
        <time>2024-05-10T13:27:06Z</time>
      </trkpt>
      <trkpt lat="43.09041" lon="2.62313">
        <ele>133.9</ele>
        <time>2024-05-10T13:27:07Z</time>
      </trkpt>
      <trkpt lat="43.09041" lon="2.62313">
        <ele>133.9</ele>
        <time>2024-05-10T13:27:08Z</time>
      </trkpt>
      <trkpt lat="43.0904" lon="2.62313">
        <ele>134</ele>
        <time>2024-05-10T13:27:09Z</time>
      </trkpt>
      <trkpt lat="43.0904" lon="2.62313">
        <ele>134</ele>
        <time>2024-05-10T13:27:10Z</time>
      </trkpt>
      <trkpt lat="43.0904" lon="2.62312">
        <ele>133.9</ele>
        <time>2024-05-10T13:27:11Z</time>
      </trkpt>
      <trkpt lat="43.0904" lon="2.62312">
        <ele>133.9</ele>
        <time>2024-05-10T13:27:12Z</time>
      </trkpt>
      <trkpt lat="43.0904" lon="2.62312">
        <ele>133.9</ele>
        <time>2024-05-10T13:27:13Z</time>
      </trkpt>
      <trkpt lat="43.0904" lon="2.62312">
        <ele>133.9</ele>
        <time>2024-05-10T13:27:14Z</time>
      </trkpt>
      <trkpt lat="43.09039" lon="2.62311">
        <ele>133.9</ele>
        <time>2024-05-10T13:27:15Z</time>
      </trkpt>
      <trkpt lat="43.09038" lon="2.62309">
        <ele>133.8</ele>
        <time>2024-05-10T13:27:16Z</time>
      </trkpt>
      <trkpt lat="43.09037" lon="2.62307">
        <ele>133.8</ele>
        <time>2024-05-10T13:27:17Z</time>
      </trkpt>
      <trkpt lat="43.09036" lon="2.62305">
        <ele>133.7</ele>
        <time>2024-05-10T13:27:18Z</time>
      </trkpt>
      <trkpt lat="43.09036" lon="2.62304">
        <ele>133.6</ele>
        <time>2024-05-10T13:27:19Z</time>
      </trkpt>
      <trkpt lat="43.09035" lon="2.62302">
        <ele>133.6</ele>
        <time>2024-05-10T13:27:20Z</time>
      </trkpt>
      <trkpt lat="43.09035" lon="2.62302">
        <ele>133.6</ele>
        <time>2024-05-10T13:27:21Z</time>
      </trkpt>
      <trkpt lat="43.09036" lon="2.62301">
        <ele>133.5</ele>
        <time>2024-05-10T13:27:22Z</time>
      </trkpt>
      <trkpt lat="43.09036" lon="2.62301">
        <ele>133.5</ele>
        <time>2024-05-10T13:27:23Z</time>
      </trkpt>
      <trkpt lat="43.09036" lon="2.623">
        <ele>133.4</ele>
        <time>2024-05-10T13:27:24Z</time>
      </trkpt>
      <trkpt lat="43.09036" lon="2.62299">
        <ele>133.4</ele>
        <time>2024-05-10T13:27:25Z</time>
      </trkpt>
      <trkpt lat="43.09036" lon="2.62298">
        <ele>133.4</ele>
        <time>2024-05-10T13:27:26Z</time>
      </trkpt>
      <trkpt lat="43.09036" lon="2.62297">
        <ele>133.3</ele>
        <time>2024-05-10T13:27:27Z</time>
      </trkpt>
      <trkpt lat="43.09036" lon="2.62297">
        <ele>133.3</ele>
        <time>2024-05-10T13:27:28Z</time>
      </trkpt>
      <trkpt lat="43.09036" lon="2.62297">
        <ele>133.3</ele>
        <time>2024-05-10T13:27:29Z</time>
      </trkpt>
      <trkpt lat="43.09036" lon="2.62297">
        <ele>133.3</ele>
        <time>2024-05-10T13:27:30Z</time>
      </trkpt>
      <trkpt lat="43.09036" lon="2.62297">
        <ele>133.3</ele>
        <time>2024-05-10T13:27:31Z</time>
      </trkpt>
      <trkpt lat="43.09036" lon="2.62297">
        <ele>133.3</ele>
        <time>2024-05-10T13:27:32Z</time>
      </trkpt>
      <trkpt lat="43.09036" lon="2.62296">
        <ele>133.3</ele>
        <time>2024-05-10T13:27:33Z</time>
      </trkpt>
      <trkpt lat="43.09036" lon="2.62296">
        <ele>133.3</ele>
        <time>2024-05-10T13:27:34Z</time>
      </trkpt>
      <trkpt lat="43.09036" lon="2.62296">
        <ele>133.3</ele>
        <time>2024-05-10T13:27:35Z</time>
      </trkpt>
      <trkpt lat="43.09036" lon="2.62296">
        <ele>133.3</ele>
        <time>2024-05-10T13:27:36Z</time>
      </trkpt>
      <trkpt lat="43.09036" lon="2.62296">
        <ele>133.3</ele>
        <time>2024-05-10T13:27:37Z</time>
      </trkpt>
      <trkpt lat="43.09036" lon="2.62296">
        <ele>133.3</ele>
        <time>2024-05-10T13:27:38Z</time>
      </trkpt>
      <trkpt lat="43.09037" lon="2.62295">
        <ele>133.2</ele>
        <time>2024-05-10T13:27:39Z</time>
      </trkpt>
      <trkpt lat="43.09037" lon="2.62295">
        <ele>133.2</ele>
        <time>2024-05-10T13:27:40Z</time>
      </trkpt>
      <trkpt lat="43.09037" lon="2.62295">
        <ele>133.2</ele>
        <time>2024-05-10T13:27:41Z</time>
      </trkpt>
      <trkpt lat="43.09037" lon="2.62295">
        <ele>133.2</ele>
        <time>2024-05-10T13:27:42Z</time>
      </trkpt>
      <trkpt lat="43.09037" lon="2.62294">
        <ele>133.1</ele>
        <time>2024-05-10T13:27:43Z</time>
      </trkpt>
      <trkpt lat="43.09037" lon="2.62294">
        <ele>133.1</ele>
        <time>2024-05-10T13:27:44Z</time>
      </trkpt>
      <trkpt lat="43.09037" lon="2.62294">
        <ele>133.1</ele>
        <time>2024-05-10T13:27:45Z</time>
      </trkpt>
      <trkpt lat="43.09037" lon="2.62294">
        <ele>133.1</ele>
        <time>2024-05-10T13:27:46Z</time>
      </trkpt>
      <trkpt lat="43.09037" lon="2.62294">
        <ele>133.1</ele>
        <time>2024-05-10T13:27:47Z</time>
      </trkpt>
      <trkpt lat="43.09037" lon="2.62294">
        <ele>133.1</ele>
        <time>2024-05-10T13:27:48Z</time>
      </trkpt>
      <trkpt lat="43.09037" lon="2.62294">
        <ele>133.1</ele>
        <time>2024-05-10T13:27:49Z</time>
      </trkpt>
      <trkpt lat="43.09037" lon="2.62293">
        <ele>133.1</ele>
        <time>2024-05-10T13:27:50Z</time>
      </trkpt>
      <trkpt lat="43.09037" lon="2.62291">
        <ele>133</ele>
        <time>2024-05-10T13:27:51Z</time>
      </trkpt>
      <trkpt lat="43.09038" lon="2.62289">
        <ele>132.8</ele>
        <time>2024-05-10T13:27:52Z</time>
      </trkpt>
      <trkpt lat="43.09037" lon="2.62287">
        <ele>132.8</ele>
        <time>2024-05-10T13:27:53Z</time>
      </trkpt>
      <trkpt lat="43.09036" lon="2.62285">
        <ele>132.7</ele>
        <time>2024-05-10T13:27:54Z</time>
      </trkpt>
      <trkpt lat="43.09035" lon="2.62283">
        <ele>132.7</ele>
        <time>2024-05-10T13:27:55Z</time>
      </trkpt>
      <trkpt lat="43.09032" lon="2.6228">
        <ele>132.8</ele>
        <time>2024-05-10T13:27:56Z</time>
      </trkpt>
      <trkpt lat="43.09029" lon="2.62278">
        <ele>132.9</ele>
        <time>2024-05-10T13:27:57Z</time>
      </trkpt>
      <trkpt lat="43.09026" lon="2.62275">
        <ele>132.9</ele>
        <time>2024-05-10T13:27:58Z</time>
      </trkpt>
      <trkpt lat="43.09024" lon="2.62272">
        <ele>132.9</ele>
        <time>2024-05-10T13:27:59Z</time>
      </trkpt>
      <trkpt lat="43.09022" lon="2.6227">
        <ele>132.9</ele>
        <time>2024-05-10T13:28:00Z</time>
      </trkpt>
      <trkpt lat="43.0902" lon="2.62267">
        <ele>132.9</ele>
        <time>2024-05-10T13:28:01Z</time>
      </trkpt>
      <trkpt lat="43.09017" lon="2.62264">
        <ele>133</ele>
        <time>2024-05-10T13:28:02Z</time>
      </trkpt>
      <trkpt lat="43.09015" lon="2.62262">
        <ele>133</ele>
        <time>2024-05-10T13:28:03Z</time>
      </trkpt>
      <trkpt lat="43.09013" lon="2.62259">
        <ele>133.1</ele>
        <time>2024-05-10T13:28:04Z</time>
      </trkpt>
      <trkpt lat="43.09011" lon="2.62256">
        <ele>133.1</ele>
        <time>2024-05-10T13:28:05Z</time>
      </trkpt>
      <trkpt lat="43.09009" lon="2.62254">
        <ele>133.2</ele>
        <time>2024-05-10T13:28:06Z</time>
      </trkpt>
      <trkpt lat="43.09007" lon="2.62252">
        <ele>133.3</ele>
        <time>2024-05-10T13:28:07Z</time>
      </trkpt>
      <trkpt lat="43.09004" lon="2.62252">
        <ele>133.7</ele>
        <time>2024-05-10T13:28:08Z</time>
      </trkpt>
      <trkpt lat="43.09002" lon="2.62254">
        <ele>133.9</ele>
        <time>2024-05-10T13:28:09Z</time>
      </trkpt>
      <trkpt lat="43.09001" lon="2.62258">
        <ele>134.2</ele>
        <time>2024-05-10T13:28:10Z</time>
      </trkpt>
      <trkpt lat="43.09002" lon="2.62263">
        <ele>134.3</ele>
        <time>2024-05-10T13:28:11Z</time>
      </trkpt>
      <trkpt lat="43.09004" lon="2.62266">
        <ele>134.2</ele>
        <time>2024-05-10T13:28:12Z</time>
      </trkpt>
      <trkpt lat="43.09007" lon="2.62269">
        <ele>134.1</ele>
        <time>2024-05-10T13:28:13Z</time>
      </trkpt>
      <trkpt lat="43.09011" lon="2.6227">
        <ele>133.8</ele>
        <time>2024-05-10T13:28:14Z</time>
      </trkpt>
      <trkpt lat="43.09014" lon="2.62271">
        <ele>133.6</ele>
        <time>2024-05-10T13:28:15Z</time>
      </trkpt>
      <trkpt lat="43.09017" lon="2.62273">
        <ele>133.5</ele>
        <time>2024-05-10T13:28:16Z</time>
      </trkpt>
      <trkpt lat="43.09019" lon="2.62274">
        <ele>133.4</ele>
        <time>2024-05-10T13:28:17Z</time>
      </trkpt>
      <trkpt lat="43.09021" lon="2.62276">
        <ele>133.4</ele>
        <time>2024-05-10T13:28:18Z</time>
      </trkpt>
      <trkpt lat="43.09022" lon="2.62277">
        <ele>133.4</ele>
        <time>2024-05-10T13:28:19Z</time>
      </trkpt>
      <trkpt lat="43.09023" lon="2.62278">
        <ele>133.4</ele>
        <time>2024-05-10T13:28:20Z</time>
      </trkpt>
      <trkpt lat="43.09023" lon="2.62278">
        <ele>133.4</ele>
        <time>2024-05-10T13:28:21Z</time>
      </trkpt>
      <trkpt lat="43.09023" lon="2.62278">
        <ele>133.4</ele>
        <time>2024-05-10T13:28:22Z</time>
      </trkpt>
      <trkpt lat="43.09023" lon="2.62277">
        <ele>133.3</ele>
        <time>2024-05-10T13:28:23Z</time>
      </trkpt>
      <trkpt lat="43.09023" lon="2.62277">
        <ele>133.3</ele>
        <time>2024-05-10T13:28:24Z</time>
      </trkpt>
      <trkpt lat="43.09023" lon="2.62277">
        <ele>133.3</ele>
        <time>2024-05-10T13:28:25Z</time>
      </trkpt>
      <trkpt lat="43.09023" lon="2.62277">
        <ele>133.3</ele>
        <time>2024-05-10T13:28:26Z</time>
      </trkpt>
      <trkpt lat="43.09023" lon="2.62277">
        <ele>133.3</ele>
        <time>2024-05-10T13:28:27Z</time>
      </trkpt>
      <trkpt lat="43.09024" lon="2.62277">
        <ele>133.2</ele>
        <time>2024-05-10T13:28:28Z</time>
      </trkpt>
      <trkpt lat="43.09025" lon="2.62279">
        <ele>133.2</ele>
        <time>2024-05-10T13:28:29Z</time>
      </trkpt>
      <trkpt lat="43.09027" lon="2.62281">
        <ele>133.2</ele>
        <time>2024-05-10T13:28:30Z</time>
      </trkpt>
      <trkpt lat="43.09028" lon="2.62282">
        <ele>133.1</ele>
        <time>2024-05-10T13:28:31Z</time>
      </trkpt>
      <trkpt lat="43.0903" lon="2.62284">
        <ele>133.1</ele>
        <time>2024-05-10T13:28:32Z</time>
      </trkpt>
      <trkpt lat="43.09032" lon="2.62286">
        <ele>133</ele>
        <time>2024-05-10T13:28:33Z</time>
      </trkpt>
      <trkpt lat="43.09033" lon="2.62288">
        <ele>133.1</ele>
        <time>2024-05-10T13:28:34Z</time>
      </trkpt>
      <trkpt lat="43.09034" lon="2.62289">
        <ele>133</ele>
        <time>2024-05-10T13:28:35Z</time>
      </trkpt>
      <trkpt lat="43.09034" lon="2.62289">
        <ele>133</ele>
        <time>2024-05-10T13:28:36Z</time>
      </trkpt>
      <trkpt lat="43.09034" lon="2.62289">
        <ele>133</ele>
        <time>2024-05-10T13:28:37Z</time>
      </trkpt>
      <trkpt lat="43.09034" lon="2.62289">
        <ele>133</ele>
        <time>2024-05-10T13:28:38Z</time>
      </trkpt>
      <trkpt lat="43.09035" lon="2.62289">
        <ele>133</ele>
        <time>2024-05-10T13:28:39Z</time>
      </trkpt>
      <trkpt lat="43.09035" lon="2.62289">
        <ele>133</ele>
        <time>2024-05-10T13:28:40Z</time>
      </trkpt>
      <trkpt lat="43.09036" lon="2.62289">
        <ele>132.9</ele>
        <time>2024-05-10T13:28:41Z</time>
      </trkpt>
      <trkpt lat="43.09037" lon="2.62289">
        <ele>132.9</ele>
        <time>2024-05-10T13:28:42Z</time>
      </trkpt>
      <trkpt lat="43.09038" lon="2.62288">
        <ele>132.8</ele>
        <time>2024-05-10T13:28:43Z</time>
      </trkpt>
      <trkpt lat="43.09039" lon="2.62287">
        <ele>132.7</ele>
        <time>2024-05-10T13:28:44Z</time>
      </trkpt>
      <trkpt lat="43.0904" lon="2.62287">
        <ele>132.6</ele>
        <time>2024-05-10T13:28:45Z</time>
      </trkpt>
      <trkpt lat="43.0904" lon="2.62286">
        <ele>132.5</ele>
        <time>2024-05-10T13:28:46Z</time>
      </trkpt>
      <trkpt lat="43.0904" lon="2.62286">
        <ele>132.5</ele>
        <time>2024-05-10T13:28:47Z</time>
      </trkpt>
      <trkpt lat="43.0904" lon="2.62285">
        <ele>132.5</ele>
        <time>2024-05-10T13:28:48Z</time>
      </trkpt>
      <trkpt lat="43.0904" lon="2.62285">
        <ele>132.5</ele>
        <time>2024-05-10T13:28:49Z</time>
      </trkpt>
      <trkpt lat="43.09039" lon="2.62285">
        <ele>132.6</ele>
        <time>2024-05-10T13:28:50Z</time>
      </trkpt>
      <trkpt lat="43.09039" lon="2.62285">
        <ele>132.6</ele>
        <time>2024-05-10T13:28:51Z</time>
      </trkpt>
      <trkpt lat="43.09039" lon="2.62285">
        <ele>132.6</ele>
        <time>2024-05-10T13:28:52Z</time>
      </trkpt>
      <trkpt lat="43.09039" lon="2.62285">
        <ele>132.6</ele>
        <time>2024-05-10T13:28:53Z</time>
      </trkpt>
      <trkpt lat="43.09039" lon="2.62285">
        <ele>132.6</ele>
        <time>2024-05-10T13:28:54Z</time>
      </trkpt>
      <trkpt lat="43.09039" lon="2.62285">
        <ele>132.6</ele>
        <time>2024-05-10T13:28:55Z</time>
      </trkpt>
      <trkpt lat="43.09039" lon="2.62285">
        <ele>132.6</ele>
        <time>2024-05-10T13:28:56Z</time>
      </trkpt>
      <trkpt lat="43.09039" lon="2.62284">
        <ele>132.5</ele>
        <time>2024-05-10T13:28:57Z</time>
      </trkpt>
      <trkpt lat="43.09039" lon="2.62284">
        <ele>132.5</ele>
        <time>2024-05-10T13:28:58Z</time>
      </trkpt>
      <trkpt lat="43.09039" lon="2.62284">
        <ele>132.5</ele>
        <time>2024-05-10T13:28:59Z</time>
      </trkpt>
      <trkpt lat="43.09039" lon="2.62284">
        <ele>132.5</ele>
        <time>2024-05-10T13:29:00Z</time>
      </trkpt>
      <trkpt lat="43.09039" lon="2.62284">
        <ele>132.5</ele>
        <time>2024-05-10T13:29:01Z</time>
      </trkpt>
      <trkpt lat="43.09039" lon="2.62284">
        <ele>132.5</ele>
        <time>2024-05-10T13:29:02Z</time>
      </trkpt>
      <trkpt lat="43.09039" lon="2.62284">
        <ele>132.5</ele>
        <time>2024-05-10T13:29:03Z</time>
      </trkpt>
      <trkpt lat="43.09039" lon="2.62284">
        <ele>132.5</ele>
        <time>2024-05-10T13:29:04Z</time>
      </trkpt>
      <trkpt lat="43.09039" lon="2.62284">
        <ele>132.5</ele>
        <time>2024-05-10T13:29:05Z</time>
      </trkpt>
      <trkpt lat="43.09039" lon="2.62284">
        <ele>132.5</ele>
        <time>2024-05-10T13:29:06Z</time>
      </trkpt>
      <trkpt lat="43.09032" lon="2.62322">
        <ele>134.9</ele>
        <time>2024-05-10T14:54:38Z</time>
      </trkpt>
      <trkpt lat="43.0903" lon="2.6229">
        <ele>133.3</ele>
        <time>2024-05-10T14:54:39Z</time>
      </trkpt>
      <trkpt lat="43.09031" lon="2.62287">
        <ele>133.1</ele>
        <time>2024-05-10T14:54:40Z</time>
      </trkpt>
      <trkpt lat="43.09031" lon="2.62286">
        <ele>133.1</ele>
        <time>2024-05-10T14:54:41Z</time>
      </trkpt>
      <trkpt lat="43.09031" lon="2.62285">
        <ele>133.1</ele>
        <time>2024-05-10T14:54:42Z</time>
      </trkpt>
      <trkpt lat="43.09034" lon="2.62287">
        <ele>133</ele>
        <time>2024-05-10T14:54:43Z</time>
      </trkpt>
      <trkpt lat="43.09028" lon="2.62272">
        <ele>132.6</ele>
        <time>2024-05-10T14:54:44Z</time>
      </trkpt>
      <trkpt lat="43.09039" lon="2.62291">
        <ele>132.9</ele>
        <time>2024-05-10T14:54:45Z</time>
      </trkpt>
      <trkpt lat="43.09042" lon="2.62289">
        <ele>132.6</ele>
        <time>2024-05-10T14:54:46Z</time>
      </trkpt>
      <trkpt lat="43.09044" lon="2.62292">
        <ele>132.6</ele>
        <time>2024-05-10T14:54:47Z</time>
      </trkpt>
      <trkpt lat="43.09046" lon="2.62295">
        <ele>132.7</ele>
        <time>2024-05-10T14:54:48Z</time>
      </trkpt>
      <trkpt lat="43.09046" lon="2.62299">
        <ele>133</ele>
        <time>2024-05-10T14:54:49Z</time>
      </trkpt>
      <trkpt lat="43.09046" lon="2.62303">
        <ele>133.2</ele>
        <time>2024-05-10T14:54:50Z</time>
      </trkpt>
      <trkpt lat="43.09044" lon="2.62304">
        <ele>133.3</ele>
        <time>2024-05-10T14:54:51Z</time>
      </trkpt>
      <trkpt lat="43.09042" lon="2.62305">
        <ele>133.5</ele>
        <time>2024-05-10T14:54:52Z</time>
      </trkpt>
      <trkpt lat="43.0904" lon="2.62306">
        <ele>133.6</ele>
        <time>2024-05-10T14:54:53Z</time>
      </trkpt>
      <trkpt lat="43.09039" lon="2.62306">
        <ele>133.6</ele>
        <time>2024-05-10T14:54:54Z</time>
      </trkpt>
      <trkpt lat="43.09038" lon="2.62306">
        <ele>133.7</ele>
        <time>2024-05-10T14:54:55Z</time>
      </trkpt>
      <trkpt lat="43.09037" lon="2.62305">
        <ele>133.6</ele>
        <time>2024-05-10T14:54:56Z</time>
      </trkpt>
      <trkpt lat="43.09035" lon="2.62304">
        <ele>133.7</ele>
        <time>2024-05-10T14:54:57Z</time>
      </trkpt>
      <trkpt lat="43.09035" lon="2.62303">
        <ele>133.6</ele>
        <time>2024-05-10T14:54:58Z</time>
      </trkpt>
      <trkpt lat="43.09034" lon="2.62304">
        <ele>133.7</ele>
        <time>2024-05-10T14:54:59Z</time>
      </trkpt>
      <trkpt lat="43.09034" lon="2.62304">
        <ele>133.7</ele>
        <time>2024-05-10T14:55:00Z</time>
      </trkpt>
      <trkpt lat="43.09034" lon="2.62305">
        <ele>133.8</ele>
        <time>2024-05-10T14:55:01Z</time>
      </trkpt>
      <trkpt lat="43.09034" lon="2.62305">
        <ele>133.8</ele>
        <time>2024-05-10T14:55:02Z</time>
      </trkpt>
      <trkpt lat="43.09034" lon="2.62305">
        <ele>133.8</ele>
        <time>2024-05-10T14:55:03Z</time>
      </trkpt>
      <trkpt lat="43.09034" lon="2.62306">
        <ele>133.8</ele>
        <time>2024-05-10T14:55:04Z</time>
      </trkpt>
      <trkpt lat="43.09034" lon="2.62306">
        <ele>133.8</ele>
        <time>2024-05-10T14:55:05Z</time>
      </trkpt>
      <trkpt lat="43.09034" lon="2.62306">
        <ele>133.8</ele>
        <time>2024-05-10T14:55:06Z</time>
      </trkpt>
      <trkpt lat="43.09034" lon="2.62306">
        <ele>133.8</ele>
        <time>2024-05-10T14:55:07Z</time>
      </trkpt>
      <trkpt lat="43.09034" lon="2.62307">
        <ele>133.9</ele>
        <time>2024-05-10T14:55:08Z</time>
      </trkpt>
      <trkpt lat="43.09034" lon="2.62307">
        <ele>133.9</ele>
        <time>2024-05-10T14:55:09Z</time>
      </trkpt>
      <trkpt lat="43.09034" lon="2.62307">
        <ele>133.9</ele>
        <time>2024-05-10T14:55:10Z</time>
      </trkpt>
      <trkpt lat="43.09034" lon="2.62307">
        <ele>133.9</ele>
        <time>2024-05-10T14:55:11Z</time>
      </trkpt>
      <trkpt lat="43.09034" lon="2.62307">
        <ele>133.9</ele>
        <time>2024-05-10T14:55:12Z</time>
      </trkpt>
      <trkpt lat="43.09034" lon="2.62307">
        <ele>133.9</ele>
        <time>2024-05-10T14:55:13Z</time>
      </trkpt>
      <trkpt lat="43.09034" lon="2.62308">
        <ele>133.9</ele>
        <time>2024-05-10T14:55:14Z</time>
      </trkpt>
      <trkpt lat="43.09034" lon="2.62308">
        <ele>133.9</ele>
        <time>2024-05-10T14:55:15Z</time>
      </trkpt>
      <trkpt lat="43.09034" lon="2.62309">
        <ele>134</ele>
        <time>2024-05-10T14:55:16Z</time>
      </trkpt>
      <trkpt lat="43.09034" lon="2.62309">
        <ele>134</ele>
        <time>2024-05-10T14:55:17Z</time>
      </trkpt>
      <trkpt lat="43.09034" lon="2.62309">
        <ele>134</ele>
        <time>2024-05-10T14:55:18Z</time>
      </trkpt>
      <trkpt lat="43.09034" lon="2.6231">
        <ele>134.1</ele>
        <time>2024-05-10T14:55:19Z</time>
      </trkpt>
      <trkpt lat="43.09034" lon="2.6231">
        <ele>134.1</ele>
        <time>2024-05-10T14:55:20Z</time>
      </trkpt>
      <trkpt lat="43.09034" lon="2.6231">
        <ele>134.1</ele>
        <time>2024-05-10T14:55:21Z</time>
      </trkpt>
      <trkpt lat="43.09034" lon="2.6231">
        <ele>134.1</ele>
        <time>2024-05-10T14:55:22Z</time>
      </trkpt>
      <trkpt lat="43.09034" lon="2.6231">
        <ele>134.1</ele>
        <time>2024-05-10T14:55:23Z</time>
      </trkpt>
      <trkpt lat="43.09034" lon="2.6231">
        <ele>134.1</ele>
        <time>2024-05-10T14:55:24Z</time>
      </trkpt>
      <trkpt lat="43.09034" lon="2.6231">
        <ele>134.1</ele>
        <time>2024-05-10T14:55:25Z</time>
      </trkpt>
      <trkpt lat="43.09034" lon="2.6231">
        <ele>134.1</ele>
        <time>2024-05-10T14:55:26Z</time>
      </trkpt>
      <trkpt lat="43.09034" lon="2.6231">
        <ele>134.1</ele>
        <time>2024-05-10T14:55:27Z</time>
      </trkpt>
      <trkpt lat="43.09034" lon="2.6231">
        <ele>134.1</ele>
        <time>2024-05-10T14:55:28Z</time>
      </trkpt>
      <trkpt lat="43.09034" lon="2.6231">
        <ele>134.1</ele>
        <time>2024-05-10T14:55:29Z</time>
      </trkpt>
      <trkpt lat="43.09034" lon="2.6231">
        <ele>134.1</ele>
        <time>2024-05-10T14:55:30Z</time>
      </trkpt>
      <trkpt lat="43.09034" lon="2.62309">
        <ele>134</ele>
        <time>2024-05-10T14:55:31Z</time>
      </trkpt>
      <trkpt lat="43.09034" lon="2.62309">
        <ele>134</ele>
        <time>2024-05-10T14:55:32Z</time>
      </trkpt>
      <trkpt lat="43.09034" lon="2.62309">
        <ele>134</ele>
        <time>2024-05-10T14:55:33Z</time>
      </trkpt>
      <trkpt lat="43.09034" lon="2.62309">
        <ele>134</ele>
        <time>2024-05-10T14:55:34Z</time>
      </trkpt>
      <trkpt lat="43.09034" lon="2.62309">
        <ele>134</ele>
        <time>2024-05-10T14:55:35Z</time>
      </trkpt>
      <trkpt lat="43.09034" lon="2.62309">
        <ele>134</ele>
        <time>2024-05-10T14:55:36Z</time>
      </trkpt>
      <trkpt lat="43.09034" lon="2.62309">
        <ele>134</ele>
        <time>2024-05-10T14:55:37Z</time>
      </trkpt>
      <trkpt lat="43.09033" lon="2.62309">
        <ele>134</ele>
        <time>2024-05-10T14:55:38Z</time>
      </trkpt>
      <trkpt lat="43.09033" lon="2.62309">
        <ele>134</ele>
        <time>2024-05-10T14:55:39Z</time>
      </trkpt>
      <trkpt lat="43.09033" lon="2.62309">
        <ele>134</ele>
        <time>2024-05-10T14:55:40Z</time>
      </trkpt>
      <trkpt lat="43.09033" lon="2.62309">
        <ele>134</ele>
        <time>2024-05-10T14:55:41Z</time>
      </trkpt>
      <trkpt lat="43.09033" lon="2.62309">
        <ele>134</ele>
        <time>2024-05-10T14:55:42Z</time>
      </trkpt>
      <trkpt lat="43.09033" lon="2.62309">
        <ele>134</ele>
        <time>2024-05-10T14:55:43Z</time>
      </trkpt>
      <trkpt lat="43.09033" lon="2.62309">
        <ele>134</ele>
        <time>2024-05-10T14:55:44Z</time>
      </trkpt>
      <trkpt lat="43.09033" lon="2.62309">
        <ele>134</ele>
        <time>2024-05-10T14:55:45Z</time>
      </trkpt>
      <trkpt lat="43.09033" lon="2.62309">
        <ele>134</ele>
        <time>2024-05-10T14:55:46Z</time>
      </trkpt>
      <trkpt lat="43.09033" lon="2.62309">
        <ele>134</ele>
        <time>2024-05-10T14:55:47Z</time>
      </trkpt>
      <trkpt lat="43.09033" lon="2.62309">
        <ele>134</ele>
        <time>2024-05-10T14:55:48Z</time>
      </trkpt>
      <trkpt lat="43.09033" lon="2.62309">
        <ele>134</ele>
        <time>2024-05-10T14:55:49Z</time>
      </trkpt>
      <trkpt lat="43.09033" lon="2.62309">
        <ele>134</ele>
        <time>2024-05-10T14:55:50Z</time>
      </trkpt>
      <trkpt lat="43.09033" lon="2.62309">
        <ele>134</ele>
        <time>2024-05-10T14:55:51Z</time>
      </trkpt>
      <trkpt lat="43.09033" lon="2.62309">
        <ele>134</ele>
        <time>2024-05-10T14:55:52Z</time>
      </trkpt>
      <trkpt lat="43.09033" lon="2.62309">
        <ele>134</ele>
        <time>2024-05-10T14:55:53Z</time>
      </trkpt>
      <trkpt lat="43.09033" lon="2.62309">
        <ele>134</ele>
        <time>2024-05-10T14:55:54Z</time>
      </trkpt>
      <trkpt lat="43.09033" lon="2.62309">
        <ele>134</ele>
        <time>2024-05-10T14:55:55Z</time>
      </trkpt>
      <trkpt lat="43.09033" lon="2.62309">
        <ele>134</ele>
        <time>2024-05-10T14:55:56Z</time>
      </trkpt>
      <trkpt lat="43.09033" lon="2.62309">
        <ele>134</ele>
        <time>2024-05-10T14:55:57Z</time>
      </trkpt>
      <trkpt lat="43.09033" lon="2.62309">
        <ele>134</ele>
        <time>2024-05-10T14:55:58Z</time>
      </trkpt>
      <trkpt lat="43.09033" lon="2.62309">
        <ele>134</ele>
        <time>2024-05-10T14:55:59Z</time>
      </trkpt>
      <trkpt lat="43.09033" lon="2.62309">
        <ele>134</ele>
        <time>2024-05-10T14:56:00Z</time>
      </trkpt>
      <trkpt lat="43.09033" lon="2.62309">
        <ele>134</ele>
        <time>2024-05-10T14:56:01Z</time>
      </trkpt>
      <trkpt lat="43.09033" lon="2.62309">
        <ele>134</ele>
        <time>2024-05-10T14:56:02Z</time>
      </trkpt>
      <trkpt lat="43.09033" lon="2.62309">
        <ele>134</ele>
        <time>2024-05-10T14:56:03Z</time>
      </trkpt>
      <trkpt lat="43.09033" lon="2.62309">
        <ele>134</ele>
        <time>2024-05-10T14:56:04Z</time>
      </trkpt>
      <trkpt lat="43.09033" lon="2.62309">
        <ele>134</ele>
        <time>2024-05-10T14:56:05Z</time>
      </trkpt>
      <trkpt lat="43.09033" lon="2.62309">
        <ele>134</ele>
        <time>2024-05-10T14:56:06Z</time>
      </trkpt>
      <trkpt lat="43.09033" lon="2.62309">
        <ele>134</ele>
        <time>2024-05-10T14:56:07Z</time>
      </trkpt>
      <trkpt lat="43.09033" lon="2.62309">
        <ele>134</ele>
        <time>2024-05-10T14:56:08Z</time>
      </trkpt>
      <trkpt lat="43.09033" lon="2.62309">
        <ele>134</ele>
        <time>2024-05-10T14:56:09Z</time>
      </trkpt>
      <trkpt lat="43.09033" lon="2.62309">
        <ele>134</ele>
        <time>2024-05-10T14:56:10Z</time>
      </trkpt>
      <trkpt lat="43.09033" lon="2.62309">
        <ele>134</ele>
        <time>2024-05-10T14:56:11Z</time>
      </trkpt>
      <trkpt lat="43.09033" lon="2.62309">
        <ele>134</ele>
        <time>2024-05-10T14:56:12Z</time>
      </trkpt>
      <trkpt lat="43.09033" lon="2.62309">
        <ele>134</ele>
        <time>2024-05-10T14:56:13Z</time>
      </trkpt>
      <trkpt lat="43.09033" lon="2.62309">
        <ele>134</ele>
        <time>2024-05-10T14:56:14Z</time>
      </trkpt>
      <trkpt lat="43.09033" lon="2.62309">
        <ele>134</ele>
        <time>2024-05-10T14:56:15Z</time>
      </trkpt>
      <trkpt lat="43.09033" lon="2.62309">
        <ele>134</ele>
        <time>2024-05-10T14:56:16Z</time>
      </trkpt>
      <trkpt lat="43.09033" lon="2.62309">
        <ele>134</ele>
        <time>2024-05-10T14:56:17Z</time>
      </trkpt>
      <trkpt lat="43.09033" lon="2.62309">
        <ele>134</ele>
        <time>2024-05-10T14:56:18Z</time>
      </trkpt>
      <trkpt lat="43.09033" lon="2.62309">
        <ele>134</ele>
        <time>2024-05-10T14:56:19Z</time>
      </trkpt>
      <trkpt lat="43.09033" lon="2.62309">
        <ele>134</ele>
        <time>2024-05-10T14:56:20Z</time>
      </trkpt>
      <trkpt lat="43.09033" lon="2.62309">
        <ele>134</ele>
        <time>2024-05-10T14:56:21Z</time>
      </trkpt>
      <trkpt lat="43.09033" lon="2.62309">
        <ele>134</ele>
        <time>2024-05-10T14:56:22Z</time>
      </trkpt>
      <trkpt lat="43.09033" lon="2.6231">
        <ele>134.1</ele>
        <time>2024-05-10T14:56:23Z</time>
      </trkpt>
      <trkpt lat="43.09033" lon="2.6231">
        <ele>134.1</ele>
        <time>2024-05-10T14:56:24Z</time>
      </trkpt>
      <trkpt lat="43.09034" lon="2.62309">
        <ele>134</ele>
        <time>2024-05-10T14:56:25Z</time>
      </trkpt>
      <trkpt lat="43.09034" lon="2.6231">
        <ele>134.1</ele>
        <time>2024-05-10T14:56:26Z</time>
      </trkpt>
      <trkpt lat="43.09034" lon="2.6231">
        <ele>134.1</ele>
        <time>2024-05-10T14:56:27Z</time>
      </trkpt>
      <trkpt lat="43.09034" lon="2.6231">
        <ele>134.1</ele>
        <time>2024-05-10T14:56:28Z</time>
      </trkpt>
      <trkpt lat="43.09034" lon="2.6231">
        <ele>134.1</ele>
        <time>2024-05-10T14:56:29Z</time>
      </trkpt>
      <trkpt lat="43.09034" lon="2.6231">
        <ele>134.1</ele>
        <time>2024-05-10T14:56:30Z</time>
      </trkpt>
      <trkpt lat="43.09034" lon="2.6231">
        <ele>134.1</ele>
        <time>2024-05-10T14:56:31Z</time>
      </trkpt>
      <trkpt lat="43.09034" lon="2.6231">
        <ele>134.1</ele>
        <time>2024-05-10T14:56:32Z</time>
      </trkpt>
      <trkpt lat="43.09034" lon="2.6231">
        <ele>134.1</ele>
        <time>2024-05-10T14:56:33Z</time>
      </trkpt>
      <trkpt lat="43.09034" lon="2.6231">
        <ele>134.1</ele>
        <time>2024-05-10T14:56:34Z</time>
      </trkpt>
      <trkpt lat="43.09034" lon="2.6231">
        <ele>134.1</ele>
        <time>2024-05-10T14:56:35Z</time>
      </trkpt>
      <trkpt lat="43.09034" lon="2.6231">
        <ele>134.1</ele>
        <time>2024-05-10T14:56:36Z</time>
      </trkpt>
      <trkpt lat="43.09034" lon="2.6231">
        <ele>134.1</ele>
        <time>2024-05-10T14:56:37Z</time>
      </trkpt>
      <trkpt lat="43.09034" lon="2.6231">
        <ele>134.1</ele>
        <time>2024-05-10T14:56:38Z</time>
      </trkpt>
      <trkpt lat="43.09034" lon="2.6231">
        <ele>134.1</ele>
        <time>2024-05-10T14:56:39Z</time>
      </trkpt>
      <trkpt lat="43.09034" lon="2.6231">
        <ele>134.1</ele>
        <time>2024-05-10T14:56:40Z</time>
      </trkpt>
      <trkpt lat="43.09034" lon="2.62309">
        <ele>134</ele>
        <time>2024-05-10T14:56:41Z</time>
      </trkpt>
      <trkpt lat="43.09034" lon="2.62309">
        <ele>134</ele>
        <time>2024-05-10T14:56:42Z</time>
      </trkpt>
      <trkpt lat="43.09034" lon="2.62309">
        <ele>134</ele>
        <time>2024-05-10T14:56:43Z</time>
      </trkpt>
      <trkpt lat="43.09034" lon="2.62309">
        <ele>134</ele>
        <time>2024-05-10T14:56:44Z</time>
      </trkpt>
      <trkpt lat="43.09034" lon="2.62309">
        <ele>134</ele>
        <time>2024-05-10T14:56:45Z</time>
      </trkpt>
      <trkpt lat="43.09034" lon="2.62309">
        <ele>134</ele>
        <time>2024-05-10T14:56:46Z</time>
      </trkpt>
      <trkpt lat="43.09034" lon="2.62309">
        <ele>134</ele>
        <time>2024-05-10T14:56:47Z</time>
      </trkpt>
      <trkpt lat="43.09034" lon="2.62309">
        <ele>134</ele>
        <time>2024-05-10T14:56:48Z</time>
      </trkpt>
      <trkpt lat="43.09034" lon="2.62309">
        <ele>134</ele>
        <time>2024-05-10T14:56:49Z</time>
      </trkpt>
      <trkpt lat="43.09034" lon="2.62309">
        <ele>134</ele>
        <time>2024-05-10T14:56:50Z</time>
      </trkpt>
      <trkpt lat="43.09034" lon="2.62309">
        <ele>134</ele>
        <time>2024-05-10T14:56:51Z</time>
      </trkpt>
      <trkpt lat="43.09034" lon="2.62309">
        <ele>134</ele>
        <time>2024-05-10T14:56:52Z</time>
      </trkpt>
      <trkpt lat="43.09034" lon="2.62309">
        <ele>134</ele>
        <time>2024-05-10T14:56:53Z</time>
      </trkpt>
      <trkpt lat="43.09034" lon="2.62309">
        <ele>134</ele>
        <time>2024-05-10T14:56:54Z</time>
      </trkpt>
      <trkpt lat="43.09034" lon="2.62309">
        <ele>134</ele>
        <time>2024-05-10T14:56:55Z</time>
      </trkpt>
      <trkpt lat="43.09034" lon="2.62309">
        <ele>134</ele>
        <time>2024-05-10T14:56:56Z</time>
      </trkpt>
      <trkpt lat="43.09034" lon="2.62309">
        <ele>134</ele>
        <time>2024-05-10T14:56:57Z</time>
      </trkpt>
      <trkpt lat="43.09034" lon="2.62309">
        <ele>134</ele>
        <time>2024-05-10T14:56:58Z</time>
      </trkpt>
      <trkpt lat="43.09034" lon="2.62309">
        <ele>134</ele>
        <time>2024-05-10T14:56:59Z</time>
      </trkpt>
      <trkpt lat="43.09034" lon="2.62309">
        <ele>134</ele>
        <time>2024-05-10T14:57:00Z</time>
      </trkpt>
      <trkpt lat="43.09034" lon="2.62309">
        <ele>134</ele>
        <time>2024-05-10T14:57:01Z</time>
      </trkpt>
      <trkpt lat="43.09034" lon="2.62309">
        <ele>134</ele>
        <time>2024-05-10T14:57:02Z</time>
      </trkpt>
      <trkpt lat="43.09034" lon="2.62309">
        <ele>134</ele>
        <time>2024-05-10T14:57:03Z</time>
      </trkpt>
      <trkpt lat="43.09034" lon="2.62309">
        <ele>134</ele>
        <time>2024-05-10T14:57:04Z</time>
      </trkpt>
      <trkpt lat="43.09034" lon="2.62309">
        <ele>134</ele>
        <time>2024-05-10T14:57:05Z</time>
      </trkpt>
      <trkpt lat="43.09034" lon="2.62309">
        <ele>134</ele>
        <time>2024-05-10T14:57:06Z</time>
      </trkpt>
      <trkpt lat="43.09034" lon="2.62309">
        <ele>134</ele>
        <time>2024-05-10T14:57:07Z</time>
      </trkpt>
      <trkpt lat="43.09034" lon="2.62309">
        <ele>134</ele>
        <time>2024-05-10T14:57:08Z</time>
      </trkpt>
      <trkpt lat="43.09034" lon="2.62309">
        <ele>134</ele>
        <time>2024-05-10T14:57:09Z</time>
      </trkpt>
      <trkpt lat="43.09034" lon="2.62309">
        <ele>134</ele>
        <time>2024-05-10T14:57:10Z</time>
      </trkpt>
      <trkpt lat="43.09034" lon="2.62309">
        <ele>134</ele>
        <time>2024-05-10T14:57:11Z</time>
      </trkpt>
      <trkpt lat="43.09034" lon="2.62309">
        <ele>134</ele>
        <time>2024-05-10T14:57:12Z</time>
      </trkpt>
      <trkpt lat="43.09034" lon="2.62309">
        <ele>134</ele>
        <time>2024-05-10T14:57:13Z</time>
      </trkpt>
      <trkpt lat="43.09034" lon="2.62309">
        <ele>134</ele>
        <time>2024-05-10T14:57:14Z</time>
      </trkpt>
      <trkpt lat="43.09034" lon="2.62309">
        <ele>134</ele>
        <time>2024-05-10T14:57:15Z</time>
      </trkpt>
      <trkpt lat="43.09034" lon="2.62309">
        <ele>134</ele>
        <time>2024-05-10T14:57:16Z</time>
      </trkpt>
      <trkpt lat="43.09034" lon="2.62309">
        <ele>134</ele>
        <time>2024-05-10T14:57:17Z</time>
      </trkpt>
      <trkpt lat="43.09034" lon="2.62309">
        <ele>134</ele>
        <time>2024-05-10T14:57:18Z</time>
      </trkpt>
      <trkpt lat="43.09034" lon="2.62309">
        <ele>134</ele>
        <time>2024-05-10T14:57:19Z</time>
      </trkpt>
      <trkpt lat="43.09034" lon="2.62309">
        <ele>134</ele>
        <time>2024-05-10T14:57:20Z</time>
      </trkpt>
      <trkpt lat="43.09034" lon="2.62309">
        <ele>134</ele>
        <time>2024-05-10T14:57:21Z</time>
      </trkpt>
      <trkpt lat="43.09034" lon="2.62309">
        <ele>134</ele>
        <time>2024-05-10T14:57:22Z</time>
      </trkpt>
      <trkpt lat="43.09034" lon="2.62309">
        <ele>134</ele>
        <time>2024-05-10T14:57:23Z</time>
      </trkpt>
      <trkpt lat="43.09034" lon="2.62309">
        <ele>134</ele>
        <time>2024-05-10T14:57:24Z</time>
      </trkpt>
      <trkpt lat="43.09034" lon="2.62309">
        <ele>134</ele>
        <time>2024-05-10T14:57:25Z</time>
      </trkpt>
      <trkpt lat="43.09034" lon="2.62309">
        <ele>134</ele>
        <time>2024-05-10T14:57:26Z</time>
      </trkpt>
      <trkpt lat="43.09034" lon="2.62309">
        <ele>134</ele>
        <time>2024-05-10T14:57:27Z</time>
      </trkpt>
      <trkpt lat="43.09034" lon="2.62309">
        <ele>134</ele>
        <time>2024-05-10T14:57:28Z</time>
      </trkpt>
      <trkpt lat="43.09034" lon="2.62309">
        <ele>134</ele>
        <time>2024-05-10T14:57:29Z</time>
      </trkpt>
      <trkpt lat="43.09034" lon="2.62309">
        <ele>134</ele>
        <time>2024-05-10T14:57:30Z</time>
      </trkpt>
      <trkpt lat="43.09034" lon="2.62309">
        <ele>134</ele>
        <time>2024-05-10T14:57:31Z</time>
      </trkpt>
      <trkpt lat="43.09034" lon="2.62309">
        <ele>134</ele>
        <time>2024-05-10T14:57:32Z</time>
      </trkpt>
      <trkpt lat="43.09034" lon="2.62309">
        <ele>134</ele>
        <time>2024-05-10T14:57:33Z</time>
      </trkpt>
      <trkpt lat="43.09034" lon="2.62309">
        <ele>134</ele>
        <time>2024-05-10T14:57:34Z</time>
      </trkpt>
      <trkpt lat="43.09034" lon="2.62309">
        <ele>134</ele>
        <time>2024-05-10T14:57:35Z</time>
      </trkpt>
      <trkpt lat="43.09034" lon="2.62309">
        <ele>134</ele>
        <time>2024-05-10T14:57:36Z</time>
      </trkpt>
      <trkpt lat="43.09034" lon="2.62309">
        <ele>134</ele>
        <time>2024-05-10T14:57:37Z</time>
      </trkpt>
      <trkpt lat="43.09034" lon="2.62309">
        <ele>134</ele>
        <time>2024-05-10T14:57:38Z</time>
      </trkpt>
      <trkpt lat="43.09034" lon="2.62309">
        <ele>134</ele>
        <time>2024-05-10T14:57:39Z</time>
      </trkpt>
      <trkpt lat="43.09034" lon="2.62309">
        <ele>134</ele>
        <time>2024-05-10T14:57:40Z</time>
      </trkpt>
      <trkpt lat="43.09034" lon="2.62309">
        <ele>134</ele>
        <time>2024-05-10T14:57:41Z</time>
      </trkpt>
      <trkpt lat="43.09034" lon="2.62309">
        <ele>134</ele>
        <time>2024-05-10T14:57:42Z</time>
      </trkpt>
      <trkpt lat="43.09034" lon="2.62309">
        <ele>134</ele>
        <time>2024-05-10T14:57:43Z</time>
      </trkpt>
      <trkpt lat="43.09034" lon="2.62309">
        <ele>134</ele>
        <time>2024-05-10T14:57:44Z</time>
      </trkpt>
      <trkpt lat="43.09034" lon="2.62309">
        <ele>134</ele>
        <time>2024-05-10T14:57:45Z</time>
      </trkpt>
      <trkpt lat="43.09034" lon="2.62309">
        <ele>134</ele>
        <time>2024-05-10T14:57:46Z</time>
      </trkpt>
      <trkpt lat="43.09034" lon="2.62309">
        <ele>134</ele>
        <time>2024-05-10T14:57:47Z</time>
      </trkpt>
      <trkpt lat="43.09034" lon="2.62309">
        <ele>134</ele>
        <time>2024-05-10T14:57:48Z</time>
      </trkpt>
      <trkpt lat="43.09034" lon="2.62309">
        <ele>134</ele>
        <time>2024-05-10T14:57:49Z</time>
      </trkpt>
      <trkpt lat="43.09034" lon="2.62309">
        <ele>134</ele>
        <time>2024-05-10T14:57:50Z</time>
      </trkpt>
      <trkpt lat="43.09034" lon="2.62309">
        <ele>134</ele>
        <time>2024-05-10T14:57:51Z</time>
      </trkpt>
      <trkpt lat="43.09034" lon="2.62309">
        <ele>134</ele>
        <time>2024-05-10T14:57:52Z</time>
      </trkpt>
      <trkpt lat="43.09034" lon="2.62309">
        <ele>134</ele>
        <time>2024-05-10T14:57:53Z</time>
      </trkpt>
      <trkpt lat="43.09034" lon="2.62309">
        <ele>134</ele>
        <time>2024-05-10T14:57:54Z</time>
      </trkpt>
      <trkpt lat="43.09034" lon="2.62309">
        <ele>134</ele>
        <time>2024-05-10T14:57:55Z</time>
      </trkpt>
      <trkpt lat="43.09034" lon="2.62309">
        <ele>134</ele>
        <time>2024-05-10T14:57:56Z</time>
      </trkpt>
      <trkpt lat="43.09034" lon="2.62309">
        <ele>134</ele>
        <time>2024-05-10T14:57:57Z</time>
      </trkpt>
      <trkpt lat="43.09034" lon="2.62309">
        <ele>134</ele>
        <time>2024-05-10T14:57:58Z</time>
      </trkpt>
      <trkpt lat="43.09034" lon="2.62309">
        <ele>134</ele>
        <time>2024-05-10T14:57:59Z</time>
      </trkpt>
      <trkpt lat="43.09034" lon="2.62309">
        <ele>134</ele>
        <time>2024-05-10T14:58:00Z</time>
      </trkpt>
      <trkpt lat="43.09034" lon="2.62309">
        <ele>134</ele>
        <time>2024-05-10T14:58:01Z</time>
      </trkpt>
      <trkpt lat="43.09034" lon="2.62309">
        <ele>134</ele>
        <time>2024-05-10T14:58:02Z</time>
      </trkpt>
      <trkpt lat="43.09034" lon="2.62309">
        <ele>134</ele>
        <time>2024-05-10T14:58:03Z</time>
      </trkpt>
      <trkpt lat="43.09034" lon="2.62309">
        <ele>134</ele>
        <time>2024-05-10T14:58:04Z</time>
      </trkpt>
      <trkpt lat="43.09034" lon="2.62309">
        <ele>134</ele>
        <time>2024-05-10T14:58:05Z</time>
      </trkpt>
      <trkpt lat="43.09034" lon="2.62309">
        <ele>134</ele>
        <time>2024-05-10T14:58:06Z</time>
      </trkpt>
      <trkpt lat="43.09034" lon="2.62309">
        <ele>134</ele>
        <time>2024-05-10T14:58:07Z</time>
      </trkpt>
      <trkpt lat="43.09034" lon="2.62309">
        <ele>134</ele>
        <time>2024-05-10T14:58:08Z</time>
      </trkpt>
      <trkpt lat="43.09034" lon="2.62309">
        <ele>134</ele>
        <time>2024-05-10T14:58:09Z</time>
      </trkpt>
      <trkpt lat="43.09034" lon="2.62309">
        <ele>134</ele>
        <time>2024-05-10T14:58:10Z</time>
      </trkpt>
      <trkpt lat="43.09034" lon="2.62309">
        <ele>134</ele>
        <time>2024-05-10T14:58:11Z</time>
      </trkpt>
      <trkpt lat="43.09034" lon="2.62309">
        <ele>134</ele>
        <time>2024-05-10T14:58:12Z</time>
      </trkpt>
      <trkpt lat="43.09034" lon="2.62309">
        <ele>134</ele>
        <time>2024-05-10T14:58:13Z</time>
      </trkpt>
      <trkpt lat="43.09034" lon="2.62309">
        <ele>134</ele>
        <time>2024-05-10T14:58:14Z</time>
      </trkpt>
      <trkpt lat="43.09034" lon="2.62309">
        <ele>134</ele>
        <time>2024-05-10T14:58:15Z</time>
      </trkpt>
      <trkpt lat="43.09034" lon="2.62309">
        <ele>134</ele>
        <time>2024-05-10T14:58:16Z</time>
      </trkpt>
      <trkpt lat="43.09034" lon="2.62309">
        <ele>134</ele>
        <time>2024-05-10T14:58:17Z</time>
      </trkpt>
      <trkpt lat="43.09034" lon="2.62309">
        <ele>134</ele>
        <time>2024-05-10T14:58:18Z</time>
      </trkpt>
      <trkpt lat="43.09034" lon="2.62309">
        <ele>134</ele>
        <time>2024-05-10T14:58:19Z</time>
      </trkpt>
      <trkpt lat="43.09034" lon="2.62309">
        <ele>134</ele>
        <time>2024-05-10T14:58:20Z</time>
      </trkpt>
      <trkpt lat="43.09034" lon="2.62309">
        <ele>134</ele>
        <time>2024-05-10T14:58:21Z</time>
      </trkpt>
      <trkpt lat="43.09034" lon="2.62309">
        <ele>134</ele>
        <time>2024-05-10T14:58:22Z</time>
      </trkpt>
      <trkpt lat="43.09034" lon="2.62309">
        <ele>134</ele>
        <time>2024-05-10T14:58:23Z</time>
      </trkpt>
      <trkpt lat="43.09034" lon="2.62309">
        <ele>134</ele>
        <time>2024-05-10T14:58:24Z</time>
      </trkpt>
      <trkpt lat="43.09034" lon="2.62309">
        <ele>134</ele>
        <time>2024-05-10T14:58:25Z</time>
      </trkpt>
      <trkpt lat="43.09034" lon="2.62309">
        <ele>134</ele>
        <time>2024-05-10T14:58:26Z</time>
      </trkpt>
      <trkpt lat="43.09034" lon="2.62309">
        <ele>134</ele>
        <time>2024-05-10T14:58:27Z</time>
      </trkpt>
      <trkpt lat="43.09034" lon="2.62309">
        <ele>134</ele>
        <time>2024-05-10T14:58:28Z</time>
      </trkpt>
      <trkpt lat="43.09034" lon="2.62309">
        <ele>134</ele>
        <time>2024-05-10T14:58:29Z</time>
      </trkpt>
      <trkpt lat="43.09034" lon="2.62309">
        <ele>134</ele>
        <time>2024-05-10T14:58:30Z</time>
      </trkpt>
      <trkpt lat="43.09033" lon="2.62308">
        <ele>134</ele>
        <time>2024-05-10T14:58:31Z</time>
      </trkpt>
      <trkpt lat="43.09032" lon="2.62306">
        <ele>133.9</ele>
        <time>2024-05-10T14:58:32Z</time>
      </trkpt>
      <trkpt lat="43.09031" lon="2.62304">
        <ele>133.8</ele>
        <time>2024-05-10T14:58:33Z</time>
      </trkpt>
      <trkpt lat="43.09031" lon="2.62303">
        <ele>133.8</ele>
        <time>2024-05-10T14:58:34Z</time>
      </trkpt>
      <trkpt lat="43.0903" lon="2.62301">
        <ele>133.7</ele>
        <time>2024-05-10T14:58:35Z</time>
      </trkpt>
      <trkpt lat="43.0903" lon="2.623">
        <ele>133.7</ele>
        <time>2024-05-10T14:58:36Z</time>
      </trkpt>
      <trkpt lat="43.09029" lon="2.62298">
        <ele>133.7</ele>
        <time>2024-05-10T14:58:37Z</time>
      </trkpt>
      <trkpt lat="43.09028" lon="2.62296">
        <ele>133.6</ele>
        <time>2024-05-10T14:58:38Z</time>
      </trkpt>
      <trkpt lat="43.09027" lon="2.62293">
        <ele>133.6</ele>
        <time>2024-05-10T14:58:39Z</time>
      </trkpt>
      <trkpt lat="43.09025" lon="2.6229">
        <ele>133.6</ele>
        <time>2024-05-10T14:58:40Z</time>
      </trkpt>
      <trkpt lat="43.09023" lon="2.62287">
        <ele>133.6</ele>
        <time>2024-05-10T14:58:41Z</time>
      </trkpt>
      <trkpt lat="43.09021" lon="2.62284">
        <ele>133.7</ele>
        <time>2024-05-10T14:58:42Z</time>
      </trkpt>
      <trkpt lat="43.09019" lon="2.62281">
        <ele>133.7</ele>
        <time>2024-05-10T14:58:43Z</time>
      </trkpt>
      <trkpt lat="43.09017" lon="2.62278">
        <ele>133.8</ele>
        <time>2024-05-10T14:58:44Z</time>
      </trkpt>
      <trkpt lat="43.09015" lon="2.62274">
        <ele>133.7</ele>
        <time>2024-05-10T14:58:45Z</time>
      </trkpt>
      <trkpt lat="43.09013" lon="2.6227">
        <ele>133.7</ele>
        <time>2024-05-10T14:58:46Z</time>
      </trkpt>
      <trkpt lat="43.09009" lon="2.62264">
        <ele>133.7</ele>
        <time>2024-05-10T14:58:47Z</time>
      </trkpt>
      <trkpt lat="43.09005" lon="2.6226">
        <ele>133.9</ele>
        <time>2024-05-10T14:58:48Z</time>
      </trkpt>
      <trkpt lat="43.09003" lon="2.62256">
        <ele>133.9</ele>
        <time>2024-05-10T14:58:49Z</time>
      </trkpt>
      <trkpt lat="43.09" lon="2.62252">
        <ele>134.1</ele>
        <time>2024-05-10T14:58:50Z</time>
      </trkpt>
      <trkpt lat="43.08998" lon="2.62246">
        <ele>133.7</ele>
        <time>2024-05-10T14:58:51Z</time>
      </trkpt>
      <trkpt lat="43.08996" lon="2.6224">
        <ele>133.4</ele>
        <time>2024-05-10T14:58:52Z</time>
      </trkpt>
      <trkpt lat="43.08994" lon="2.62234">
        <ele>133.1</ele>
        <time>2024-05-10T14:58:53Z</time>
      </trkpt>
      <trkpt lat="43.08992" lon="2.62227">
        <ele>132.8</ele>
        <time>2024-05-10T14:58:54Z</time>
      </trkpt>
      <trkpt lat="43.08989" lon="2.6222">
        <ele>132.6</ele>
        <time>2024-05-10T14:58:55Z</time>
      </trkpt>
      <trkpt lat="43.08988" lon="2.62214">
        <ele>132.2</ele>
        <time>2024-05-10T14:58:56Z</time>
      </trkpt>
      <trkpt lat="43.08986" lon="2.62208">
        <ele>132</ele>
        <time>2024-05-10T14:58:57Z</time>
      </trkpt>
      <trkpt lat="43.08985" lon="2.62202">
        <ele>131.7</ele>
        <time>2024-05-10T14:58:58Z</time>
      </trkpt>
      <trkpt lat="43.08983" lon="2.62197">
        <ele>131.6</ele>
        <time>2024-05-10T14:58:59Z</time>
      </trkpt>
      <trkpt lat="43.08981" lon="2.6219">
        <ele>131.6</ele>
        <time>2024-05-10T14:59:00Z</time>
      </trkpt>
      <trkpt lat="43.08979" lon="2.62182">
        <ele>131.7</ele>
        <time>2024-05-10T14:59:01Z</time>
      </trkpt>
      <trkpt lat="43.08977" lon="2.62173">
        <ele>131.7</ele>
        <time>2024-05-10T14:59:02Z</time>
      </trkpt>
      <trkpt lat="43.08975" lon="2.62164">
        <ele>131.6</ele>
        <time>2024-05-10T14:59:03Z</time>
      </trkpt>
      <trkpt lat="43.08973" lon="2.62155">
        <ele>131.5</ele>
        <time>2024-05-10T14:59:04Z</time>
      </trkpt>
      <trkpt lat="43.08972" lon="2.62147">
        <ele>131.3</ele>
        <time>2024-05-10T14:59:05Z</time>
      </trkpt>
      <trkpt lat="43.08972" lon="2.62139">
        <ele>131</ele>
        <time>2024-05-10T14:59:06Z</time>
      </trkpt>
      <trkpt lat="43.08971" lon="2.6213">
        <ele>131.4</ele>
        <time>2024-05-10T14:59:07Z</time>
      </trkpt>
      <trkpt lat="43.08971" lon="2.62123">
        <ele>131.7</ele>
        <time>2024-05-10T14:59:08Z</time>
      </trkpt>
      <trkpt lat="43.08971" lon="2.62115">
        <ele>131.9</ele>
        <time>2024-05-10T14:59:09Z</time>
      </trkpt>
      <trkpt lat="43.08972" lon="2.62109">
        <ele>132</ele>
        <time>2024-05-10T14:59:10Z</time>
      </trkpt>
      <trkpt lat="43.08972" lon="2.62101">
        <ele>132</ele>
        <time>2024-05-10T14:59:11Z</time>
      </trkpt>
      <trkpt lat="43.08972" lon="2.62092">
        <ele>132</ele>
        <time>2024-05-10T14:59:12Z</time>
      </trkpt>
      <trkpt lat="43.08973" lon="2.62083">
        <ele>131.9</ele>
        <time>2024-05-10T14:59:13Z</time>
      </trkpt>
      <trkpt lat="43.08973" lon="2.62076">
        <ele>132</ele>
        <time>2024-05-10T14:59:14Z</time>
      </trkpt>
      <trkpt lat="43.08974" lon="2.62068">
        <ele>131.9</ele>
        <time>2024-05-10T14:59:15Z</time>
      </trkpt>
      <trkpt lat="43.08975" lon="2.62062">
        <ele>131.9</ele>
        <time>2024-05-10T14:59:16Z</time>
      </trkpt>
      <trkpt lat="43.08977" lon="2.62057">
        <ele>131.8</ele>
        <time>2024-05-10T14:59:17Z</time>
      </trkpt>
      <trkpt lat="43.0898" lon="2.62054">
        <ele>131.7</ele>
        <time>2024-05-10T14:59:18Z</time>
      </trkpt>
      <trkpt lat="43.08985" lon="2.62051">
        <ele>131.5</ele>
        <time>2024-05-10T14:59:19Z</time>
      </trkpt>
      <trkpt lat="43.08991" lon="2.62051">
        <ele>131.3</ele>
        <time>2024-05-10T14:59:20Z</time>
      </trkpt>
      <trkpt lat="43.08996" lon="2.62051">
        <ele>131.1</ele>
        <time>2024-05-10T14:59:21Z</time>
      </trkpt>
      <trkpt lat="43.09002" lon="2.62053">
        <ele>130.9</ele>
        <time>2024-05-10T14:59:22Z</time>
      </trkpt>
      <trkpt lat="43.09008" lon="2.62054">
        <ele>130.7</ele>
        <time>2024-05-10T14:59:23Z</time>
      </trkpt>
      <trkpt lat="43.09013" lon="2.62055">
        <ele>130.5</ele>
        <time>2024-05-10T14:59:24Z</time>
      </trkpt>
      <trkpt lat="43.09018" lon="2.62056">
        <ele>130.3</ele>
        <time>2024-05-10T14:59:25Z</time>
      </trkpt>
      <trkpt lat="43.09022" lon="2.62058">
        <ele>130.2</ele>
        <time>2024-05-10T14:59:26Z</time>
      </trkpt>
      <trkpt lat="43.09027" lon="2.62059">
        <ele>130</ele>
        <time>2024-05-10T14:59:27Z</time>
      </trkpt>
      <trkpt lat="43.0903" lon="2.62059">
        <ele>129.8</ele>
        <time>2024-05-10T14:59:28Z</time>
      </trkpt>
      <trkpt lat="43.09034" lon="2.6206">
        <ele>129.6</ele>
        <time>2024-05-10T14:59:29Z</time>
      </trkpt>
      <trkpt lat="43.09038" lon="2.62061">
        <ele>129.3</ele>
        <time>2024-05-10T14:59:30Z</time>
      </trkpt>
      <trkpt lat="43.09042" lon="2.62062">
        <ele>129</ele>
        <time>2024-05-10T14:59:31Z</time>
      </trkpt>
      <trkpt lat="43.09046" lon="2.62064">
        <ele>128.7</ele>
        <time>2024-05-10T14:59:32Z</time>
      </trkpt>
      <trkpt lat="43.09051" lon="2.62064">
        <ele>128.3</ele>
        <time>2024-05-10T14:59:33Z</time>
      </trkpt>
      <trkpt lat="43.09055" lon="2.62065">
        <ele>128</ele>
        <time>2024-05-10T14:59:34Z</time>
      </trkpt>
      <trkpt lat="43.09059" lon="2.62067">
        <ele>127.9</ele>
        <time>2024-05-10T14:59:35Z</time>
      </trkpt>
      <trkpt lat="43.09065" lon="2.62068">
        <ele>127.8</ele>
        <time>2024-05-10T14:59:36Z</time>
      </trkpt>
      <trkpt lat="43.0907" lon="2.62069">
        <ele>127.7</ele>
        <time>2024-05-10T14:59:37Z</time>
      </trkpt>
      <trkpt lat="43.09076" lon="2.62071">
        <ele>127.7</ele>
        <time>2024-05-10T14:59:38Z</time>
      </trkpt>
      <trkpt lat="43.09082" lon="2.62072">
        <ele>127.6</ele>
        <time>2024-05-10T14:59:39Z</time>
      </trkpt>
      <trkpt lat="43.09088" lon="2.62074">
        <ele>127.5</ele>
        <time>2024-05-10T14:59:40Z</time>
      </trkpt>
      <trkpt lat="43.09094" lon="2.62077">
        <ele>127.4</ele>
        <time>2024-05-10T14:59:41Z</time>
      </trkpt>
      <trkpt lat="43.091" lon="2.62079">
        <ele>127.2</ele>
        <time>2024-05-10T14:59:42Z</time>
      </trkpt>
      <trkpt lat="43.09106" lon="2.62081">
        <ele>127.1</ele>
        <time>2024-05-10T14:59:43Z</time>
      </trkpt>
      <trkpt lat="43.09114" lon="2.62084">
        <ele>126.9</ele>
        <time>2024-05-10T14:59:44Z</time>
      </trkpt>
      <trkpt lat="43.09122" lon="2.62087">
        <ele>126.7</ele>
        <time>2024-05-10T14:59:45Z</time>
      </trkpt>
      <trkpt lat="43.09129" lon="2.62089">
        <ele>126.5</ele>
        <time>2024-05-10T14:59:46Z</time>
      </trkpt>
      <trkpt lat="43.09138" lon="2.62091">
        <ele>126.3</ele>
        <time>2024-05-10T14:59:47Z</time>
      </trkpt>
      <trkpt lat="43.09146" lon="2.62092">
        <ele>126.3</ele>
        <time>2024-05-10T14:59:48Z</time>
      </trkpt>
      <trkpt lat="43.09154" lon="2.62093">
        <ele>126.3</ele>
        <time>2024-05-10T14:59:49Z</time>
      </trkpt>
      <trkpt lat="43.09164" lon="2.6209">
        <ele>126.2</ele>
        <time>2024-05-10T14:59:50Z</time>
      </trkpt>
      <trkpt lat="43.09174" lon="2.62086">
        <ele>126.1</ele>
        <time>2024-05-10T14:59:51Z</time>
      </trkpt>
      <trkpt lat="43.09183" lon="2.6208">
        <ele>125.9</ele>
        <time>2024-05-10T14:59:52Z</time>
      </trkpt>
      <trkpt lat="43.09192" lon="2.62073">
        <ele>125.6</ele>
        <time>2024-05-10T14:59:53Z</time>
      </trkpt>
      <trkpt lat="43.09202" lon="2.62065">
        <ele>125.9</ele>
        <time>2024-05-10T14:59:54Z</time>
      </trkpt>
      <trkpt lat="43.09211" lon="2.62056">
        <ele>126.2</ele>
        <time>2024-05-10T14:59:55Z</time>
      </trkpt>
      <trkpt lat="43.09221" lon="2.62048">
        <ele>126.6</ele>
        <time>2024-05-10T14:59:56Z</time>
      </trkpt>
      <trkpt lat="43.0923" lon="2.6204">
        <ele>126.6</ele>
        <time>2024-05-10T14:59:57Z</time>
      </trkpt>
      <trkpt lat="43.09238" lon="2.6203">
        <ele>126.6</ele>
        <time>2024-05-10T14:59:58Z</time>
      </trkpt>
      <trkpt lat="43.09246" lon="2.6202">
        <ele>126.3</ele>
        <time>2024-05-10T14:59:59Z</time>
      </trkpt>
      <trkpt lat="43.09254" lon="2.62009">
        <ele>125.2</ele>
        <time>2024-05-10T15:00:00Z</time>
      </trkpt>
      <trkpt lat="43.09263" lon="2.61997">
        <ele>123.6</ele>
        <time>2024-05-10T15:00:01Z</time>
      </trkpt>
      <trkpt lat="43.0927" lon="2.61983">
        <ele>123.6</ele>
        <time>2024-05-10T15:00:02Z</time>
      </trkpt>
      <trkpt lat="43.09277" lon="2.6197">
        <ele>124.6</ele>
        <time>2024-05-10T15:00:03Z</time>
      </trkpt>
      <trkpt lat="43.09282" lon="2.61956">
        <ele>122.4</ele>
        <time>2024-05-10T15:00:04Z</time>
      </trkpt>
      <trkpt lat="43.09287" lon="2.61944">
        <ele>120.6</ele>
        <time>2024-05-10T15:00:05Z</time>
      </trkpt>
      <trkpt lat="43.09291" lon="2.6193">
        <ele>119</ele>
        <time>2024-05-10T15:00:06Z</time>
      </trkpt>
      <trkpt lat="43.09296" lon="2.61918">
        <ele>117.2</ele>
        <time>2024-05-10T15:00:07Z</time>
      </trkpt>
      <trkpt lat="43.09299" lon="2.61907">
        <ele>116.5</ele>
        <time>2024-05-10T15:00:08Z</time>
      </trkpt>
      <trkpt lat="43.09303" lon="2.61898">
        <ele>116.1</ele>
        <time>2024-05-10T15:00:09Z</time>
      </trkpt>
      <trkpt lat="43.09306" lon="2.61889">
        <ele>116</ele>
        <time>2024-05-10T15:00:10Z</time>
      </trkpt>
      <trkpt lat="43.09309" lon="2.6188">
        <ele>118.3</ele>
        <time>2024-05-10T15:00:11Z</time>
      </trkpt>
      <trkpt lat="43.09312" lon="2.61871">
        <ele>120.2</ele>
        <time>2024-05-10T15:00:12Z</time>
      </trkpt>
      <trkpt lat="43.09314" lon="2.61859">
        <ele>122.2</ele>
        <time>2024-05-10T15:00:13Z</time>
      </trkpt>
      <trkpt lat="43.09315" lon="2.61845">
        <ele>122.7</ele>
        <time>2024-05-10T15:00:14Z</time>
      </trkpt>
      <trkpt lat="43.09314" lon="2.61832">
        <ele>123.5</ele>
        <time>2024-05-10T15:00:15Z</time>
      </trkpt>
      <trkpt lat="43.09312" lon="2.61818">
        <ele>124</ele>
        <time>2024-05-10T15:00:16Z</time>
      </trkpt>
      <trkpt lat="43.09309" lon="2.61805">
        <ele>124.5</ele>
        <time>2024-05-10T15:00:17Z</time>
      </trkpt>
      <trkpt lat="43.09306" lon="2.61793">
        <ele>124</ele>
        <time>2024-05-10T15:00:18Z</time>
      </trkpt>
      <trkpt lat="43.09302" lon="2.61782">
        <ele>124</ele>
        <time>2024-05-10T15:00:19Z</time>
      </trkpt>
      <trkpt lat="43.09298" lon="2.61772">
        <ele>124.3</ele>
        <time>2024-05-10T15:00:20Z</time>
      </trkpt>
      <trkpt lat="43.09294" lon="2.61761">
        <ele>124.8</ele>
        <time>2024-05-10T15:00:21Z</time>
      </trkpt>
      <trkpt lat="43.09289" lon="2.61748">
        <ele>125.5</ele>
        <time>2024-05-10T15:00:22Z</time>
      </trkpt>
      <trkpt lat="43.09283" lon="2.61733">
        <ele>124.7</ele>
        <time>2024-05-10T15:00:23Z</time>
      </trkpt>
      <trkpt lat="43.09277" lon="2.61715">
        <ele>123.3</ele>
        <time>2024-05-10T15:00:24Z</time>
      </trkpt>
      <trkpt lat="43.0927" lon="2.61697">
        <ele>124.3</ele>
        <time>2024-05-10T15:00:25Z</time>
      </trkpt>
      <trkpt lat="43.09263" lon="2.61677">
        <ele>124.2</ele>
        <time>2024-05-10T15:00:26Z</time>
      </trkpt>
      <trkpt lat="43.09256" lon="2.61655">
        <ele>122.4</ele>
        <time>2024-05-10T15:00:27Z</time>
      </trkpt>
      <trkpt lat="43.09248" lon="2.61632">
        <ele>120.7</ele>
        <time>2024-05-10T15:00:28Z</time>
      </trkpt>
      <trkpt lat="43.0924" lon="2.61609">
        <ele>121.6</ele>
        <time>2024-05-10T15:00:29Z</time>
      </trkpt>
      <trkpt lat="43.09233" lon="2.61586">
        <ele>119.8</ele>
        <time>2024-05-10T15:00:30Z</time>
      </trkpt>
      <trkpt lat="43.09225" lon="2.61562">
        <ele>119.1</ele>
        <time>2024-05-10T15:00:31Z</time>
      </trkpt>
      <trkpt lat="43.09217" lon="2.61539">
        <ele>120.3</ele>
        <time>2024-05-10T15:00:32Z</time>
      </trkpt>
      <trkpt lat="43.0921" lon="2.61516">
        <ele>122.3</ele>
        <time>2024-05-10T15:00:33Z</time>
      </trkpt>
      <trkpt lat="43.09202" lon="2.61494">
        <ele>122.6</ele>
        <time>2024-05-10T15:00:34Z</time>
      </trkpt>
      <trkpt lat="43.09195" lon="2.61471">
        <ele>117.8</ele>
        <time>2024-05-10T15:00:35Z</time>
      </trkpt>
      <trkpt lat="43.09187" lon="2.61448">
        <ele>120.3</ele>
        <time>2024-05-10T15:00:36Z</time>
      </trkpt>
      <trkpt lat="43.0918" lon="2.61426">
        <ele>119.9</ele>
        <time>2024-05-10T15:00:37Z</time>
      </trkpt>
      <trkpt lat="43.09172" lon="2.61403">
        <ele>118.9</ele>
        <time>2024-05-10T15:00:38Z</time>
      </trkpt>
      <trkpt lat="43.09165" lon="2.61381">
        <ele>118.1</ele>
        <time>2024-05-10T15:00:39Z</time>
      </trkpt>
      <trkpt lat="43.09157" lon="2.6136">
        <ele>118.7</ele>
        <time>2024-05-10T15:00:40Z</time>
      </trkpt>
      <trkpt lat="43.0915" lon="2.61339">
        <ele>118.9</ele>
        <time>2024-05-10T15:00:41Z</time>
      </trkpt>
      <trkpt lat="43.09144" lon="2.61319">
        <ele>118.4</ele>
        <time>2024-05-10T15:00:42Z</time>
      </trkpt>
      <trkpt lat="43.09138" lon="2.613">
        <ele>118.4</ele>
        <time>2024-05-10T15:00:43Z</time>
      </trkpt>
      <trkpt lat="43.09136" lon="2.61279">
        <ele>118.6</ele>
        <time>2024-05-10T15:00:44Z</time>
      </trkpt>
      <trkpt lat="43.09135" lon="2.61258">
        <ele>118.6</ele>
        <time>2024-05-10T15:00:45Z</time>
      </trkpt>
      <trkpt lat="43.09135" lon="2.61236">
        <ele>118.6</ele>
        <time>2024-05-10T15:00:46Z</time>
      </trkpt>
      <trkpt lat="43.09135" lon="2.61214">
        <ele>118.7</ele>
        <time>2024-05-10T15:00:47Z</time>
      </trkpt>
      <trkpt lat="43.09134" lon="2.61191">
        <ele>119</ele>
        <time>2024-05-10T15:00:48Z</time>
      </trkpt>
      <trkpt lat="43.09132" lon="2.61168">
        <ele>119</ele>
        <time>2024-05-10T15:00:49Z</time>
      </trkpt>
      <trkpt lat="43.09131" lon="2.61147">
        <ele>118.6</ele>
        <time>2024-05-10T15:00:50Z</time>
      </trkpt>
      <trkpt lat="43.09129" lon="2.61126">
        <ele>118.7</ele>
        <time>2024-05-10T15:00:51Z</time>
      </trkpt>
      <trkpt lat="43.0913" lon="2.61107">
        <ele>118.4</ele>
        <time>2024-05-10T15:00:52Z</time>
      </trkpt>
      <trkpt lat="43.09132" lon="2.61088">
        <ele>118.8</ele>
        <time>2024-05-10T15:00:53Z</time>
      </trkpt>
      <trkpt lat="43.09138" lon="2.61071">
        <ele>118.6</ele>
        <time>2024-05-10T15:00:54Z</time>
      </trkpt>
      <trkpt lat="43.09148" lon="2.61055">
        <ele>118.1</ele>
        <time>2024-05-10T15:00:55Z</time>
      </trkpt>
      <trkpt lat="43.09159" lon="2.61039">
        <ele>117.6</ele>
        <time>2024-05-10T15:00:56Z</time>
      </trkpt>
      <trkpt lat="43.09172" lon="2.61022">
        <ele>118.3</ele>
        <time>2024-05-10T15:00:57Z</time>
      </trkpt>
      <trkpt lat="43.09186" lon="2.61004">
        <ele>118.4</ele>
        <time>2024-05-10T15:00:58Z</time>
      </trkpt>
      <trkpt lat="43.09202" lon="2.60986">
        <ele>118.4</ele>
        <time>2024-05-10T15:00:59Z</time>
      </trkpt>
      <trkpt lat="43.09218" lon="2.60968">
        <ele>117.1</ele>
        <time>2024-05-10T15:01:00Z</time>
      </trkpt>
      <trkpt lat="43.09234" lon="2.60951">
        <ele>117.9</ele>
        <time>2024-05-10T15:01:01Z</time>
      </trkpt>
      <trkpt lat="43.09248" lon="2.60933">
        <ele>117.4</ele>
        <time>2024-05-10T15:01:02Z</time>
      </trkpt>
      <trkpt lat="43.09261" lon="2.60914">
        <ele>117.6</ele>
        <time>2024-05-10T15:01:03Z</time>
      </trkpt>
      <trkpt lat="43.09274" lon="2.60895">
        <ele>116.8</ele>
        <time>2024-05-10T15:01:04Z</time>
      </trkpt>
      <trkpt lat="43.09288" lon="2.60876">
        <ele>117.4</ele>
        <time>2024-05-10T15:01:05Z</time>
      </trkpt>
      <trkpt lat="43.09303" lon="2.60858">
        <ele>115.6</ele>
        <time>2024-05-10T15:01:06Z</time>
      </trkpt>
      <trkpt lat="43.09319" lon="2.6084">
        <ele>116.6</ele>
        <time>2024-05-10T15:01:07Z</time>
      </trkpt>
      <trkpt lat="43.09336" lon="2.60822">
        <ele>116.4</ele>
        <time>2024-05-10T15:01:08Z</time>
      </trkpt>
      <trkpt lat="43.09353" lon="2.60805">
        <ele>115.5</ele>
        <time>2024-05-10T15:01:09Z</time>
      </trkpt>
      <trkpt lat="43.0937" lon="2.60787">
        <ele>115.8</ele>
        <time>2024-05-10T15:01:10Z</time>
      </trkpt>
      <trkpt lat="43.09386" lon="2.6077">
        <ele>115.2</ele>
        <time>2024-05-10T15:01:11Z</time>
      </trkpt>
      <trkpt lat="43.09402" lon="2.60753">
        <ele>115.4</ele>
        <time>2024-05-10T15:01:12Z</time>
      </trkpt>
      <trkpt lat="43.09417" lon="2.60736">
        <ele>115.5</ele>
        <time>2024-05-10T15:01:13Z</time>
      </trkpt>
      <trkpt lat="43.09433" lon="2.60719">
        <ele>115.5</ele>
        <time>2024-05-10T15:01:14Z</time>
      </trkpt>
      <trkpt lat="43.09447" lon="2.60703">
        <ele>115.9</ele>
        <time>2024-05-10T15:01:15Z</time>
      </trkpt>
      <trkpt lat="43.09461" lon="2.60688">
        <ele>115.8</ele>
        <time>2024-05-10T15:01:16Z</time>
      </trkpt>
      <trkpt lat="43.09475" lon="2.60674">
        <ele>116</ele>
        <time>2024-05-10T15:01:17Z</time>
      </trkpt>
      <trkpt lat="43.09489" lon="2.60661">
        <ele>115.8</ele>
        <time>2024-05-10T15:01:18Z</time>
      </trkpt>
      <trkpt lat="43.09502" lon="2.60648">
        <ele>115.9</ele>
        <time>2024-05-10T15:01:19Z</time>
      </trkpt>
      <trkpt lat="43.09514" lon="2.60636">
        <ele>116.9</ele>
        <time>2024-05-10T15:01:20Z</time>
      </trkpt>
      <trkpt lat="43.09526" lon="2.60623">
        <ele>117.4</ele>
        <time>2024-05-10T15:01:21Z</time>
      </trkpt>
      <trkpt lat="43.09536" lon="2.60611">
        <ele>116.8</ele>
        <time>2024-05-10T15:01:22Z</time>
      </trkpt>
      <trkpt lat="43.09543" lon="2.60598">
        <ele>118.1</ele>
        <time>2024-05-10T15:01:23Z</time>
      </trkpt>
      <trkpt lat="43.09547" lon="2.60583">
        <ele>118.2</ele>
        <time>2024-05-10T15:01:24Z</time>
      </trkpt>
      <trkpt lat="43.09549" lon="2.60567">
        <ele>116</ele>
        <time>2024-05-10T15:01:25Z</time>
      </trkpt>
      <trkpt lat="43.09548" lon="2.6055">
        <ele>115.3</ele>
        <time>2024-05-10T15:01:26Z</time>
      </trkpt>
      <trkpt lat="43.09534" lon="2.6053">
        <ele>117.7</ele>
        <time>2024-05-10T15:01:27Z</time>
      </trkpt>
      <trkpt lat="43.09526" lon="2.60511">
        <ele>117</ele>
        <time>2024-05-10T15:01:28Z</time>
      </trkpt>
      <trkpt lat="43.09518" lon="2.60489">
        <ele>119</ele>
        <time>2024-05-10T15:01:29Z</time>
      </trkpt>
      <trkpt lat="43.09509" lon="2.60468">
        <ele>118.9</ele>
        <time>2024-05-10T15:01:30Z</time>
      </trkpt>
      <trkpt lat="43.095" lon="2.60446">
        <ele>117.3</ele>
        <time>2024-05-10T15:01:31Z</time>
      </trkpt>
      <trkpt lat="43.09491" lon="2.60424">
        <ele>120.2</ele>
        <time>2024-05-10T15:01:32Z</time>
      </trkpt>
      <trkpt lat="43.09484" lon="2.60401">
        <ele>119.9</ele>
        <time>2024-05-10T15:01:33Z</time>
      </trkpt>
      <trkpt lat="43.09477" lon="2.60377">
        <ele>119.6</ele>
        <time>2024-05-10T15:01:34Z</time>
      </trkpt>
      <trkpt lat="43.09473" lon="2.60352">
        <ele>119.2</ele>
        <time>2024-05-10T15:01:35Z</time>
      </trkpt>
      <trkpt lat="43.0947" lon="2.60326">
        <ele>119.3</ele>
        <time>2024-05-10T15:01:36Z</time>
      </trkpt>
      <trkpt lat="43.09469" lon="2.60299">
        <ele>119.8</ele>
        <time>2024-05-10T15:01:37Z</time>
      </trkpt>
      <trkpt lat="43.09468" lon="2.60271">
        <ele>120.3</ele>
        <time>2024-05-10T15:01:38Z</time>
      </trkpt>
      <trkpt lat="43.09467" lon="2.60242">
        <ele>121</ele>
        <time>2024-05-10T15:01:39Z</time>
      </trkpt>
      <trkpt lat="43.09466" lon="2.60213">
        <ele>121</ele>
        <time>2024-05-10T15:01:40Z</time>
      </trkpt>
      <trkpt lat="43.09465" lon="2.60186">
        <ele>121.3</ele>
        <time>2024-05-10T15:01:41Z</time>
      </trkpt>
      <trkpt lat="43.09465" lon="2.60158">
        <ele>121.3</ele>
        <time>2024-05-10T15:01:42Z</time>
      </trkpt>
      <trkpt lat="43.09464" lon="2.60132">
        <ele>121.7</ele>
        <time>2024-05-10T15:01:43Z</time>
      </trkpt>
      <trkpt lat="43.09464" lon="2.60105">
        <ele>121.8</ele>
        <time>2024-05-10T15:01:44Z</time>
      </trkpt>
      <trkpt lat="43.09463" lon="2.6008">
        <ele>122.3</ele>
        <time>2024-05-10T15:01:45Z</time>
      </trkpt>
      <trkpt lat="43.09463" lon="2.60056">
        <ele>122</ele>
        <time>2024-05-10T15:01:46Z</time>
      </trkpt>
      <trkpt lat="43.09463" lon="2.60032">
        <ele>122</ele>
        <time>2024-05-10T15:01:47Z</time>
      </trkpt>
      <trkpt lat="43.09463" lon="2.6001">
        <ele>122</ele>
        <time>2024-05-10T15:01:48Z</time>
      </trkpt>
      <trkpt lat="43.09459" lon="2.59989">
        <ele>121.7</ele>
        <time>2024-05-10T15:01:49Z</time>
      </trkpt>
      <trkpt lat="43.09453" lon="2.59971">
        <ele>120.6</ele>
        <time>2024-05-10T15:01:50Z</time>
      </trkpt>
      <trkpt lat="43.09444" lon="2.59957">
        <ele>119.9</ele>
        <time>2024-05-10T15:01:51Z</time>
      </trkpt>
      <trkpt lat="43.09433" lon="2.59946">
        <ele>118</ele>
        <time>2024-05-10T15:01:52Z</time>
      </trkpt>
      <trkpt lat="43.09422" lon="2.59936">
        <ele>116.2</ele>
        <time>2024-05-10T15:01:53Z</time>
      </trkpt>
      <trkpt lat="43.09411" lon="2.59927">
        <ele>116.1</ele>
        <time>2024-05-10T15:01:54Z</time>
      </trkpt>
      <trkpt lat="43.09401" lon="2.59918">
        <ele>117.8</ele>
        <time>2024-05-10T15:01:55Z</time>
      </trkpt>
      <trkpt lat="43.09393" lon="2.5991">
        <ele>119.4</ele>
        <time>2024-05-10T15:01:56Z</time>
      </trkpt>
      <trkpt lat="43.09384" lon="2.59904">
        <ele>120.4</ele>
        <time>2024-05-10T15:01:57Z</time>
      </trkpt>
      <trkpt lat="43.09375" lon="2.59902">
        <ele>121.3</ele>
        <time>2024-05-10T15:01:58Z</time>
      </trkpt>
      <trkpt lat="43.09367" lon="2.59903">
        <ele>121.9</ele>
        <time>2024-05-10T15:01:59Z</time>
      </trkpt>
      <trkpt lat="43.09358" lon="2.59908">
        <ele>122.9</ele>
        <time>2024-05-10T15:02:00Z</time>
      </trkpt>
      <trkpt lat="43.0935" lon="2.59915">
        <ele>124.8</ele>
        <time>2024-05-10T15:02:01Z</time>
      </trkpt>
      <trkpt lat="43.09343" lon="2.59925">
        <ele>125.2</ele>
        <time>2024-05-10T15:02:02Z</time>
      </trkpt>
      <trkpt lat="43.09338" lon="2.59939">
        <ele>122.5</ele>
        <time>2024-05-10T15:02:03Z</time>
      </trkpt>
      <trkpt lat="43.09332" lon="2.59957">
        <ele>121.6</ele>
        <time>2024-05-10T15:02:04Z</time>
      </trkpt>
      <trkpt lat="43.09326" lon="2.59977">
        <ele>123.4</ele>
        <time>2024-05-10T15:02:05Z</time>
      </trkpt>
      <trkpt lat="43.09319" lon="2.6">
        <ele>123.6</ele>
        <time>2024-05-10T15:02:06Z</time>
      </trkpt>
      <trkpt lat="43.09312" lon="2.60024">
        <ele>122.2</ele>
        <time>2024-05-10T15:02:07Z</time>
      </trkpt>
      <trkpt lat="43.09305" lon="2.60046">
        <ele>122.2</ele>
        <time>2024-05-10T15:02:08Z</time>
      </trkpt>
      <trkpt lat="43.09298" lon="2.60068">
        <ele>123.8</ele>
        <time>2024-05-10T15:02:09Z</time>
      </trkpt>
      <trkpt lat="43.0929" lon="2.60088">
        <ele>124</ele>
        <time>2024-05-10T15:02:10Z</time>
      </trkpt>
      <trkpt lat="43.09279" lon="2.60103">
        <ele>123.8</ele>
        <time>2024-05-10T15:02:11Z</time>
      </trkpt>
      <trkpt lat="43.09266" lon="2.60114">
        <ele>124.1</ele>
        <time>2024-05-10T15:02:12Z</time>
      </trkpt>
      <trkpt lat="43.09252" lon="2.6012">
        <ele>124.9</ele>
        <time>2024-05-10T15:02:13Z</time>
      </trkpt>
      <trkpt lat="43.09237" lon="2.60121">
        <ele>125.4</ele>
        <time>2024-05-10T15:02:14Z</time>
      </trkpt>
      <trkpt lat="43.0922" lon="2.6012">
        <ele>126</ele>
        <time>2024-05-10T15:02:15Z</time>
      </trkpt>
      <trkpt lat="43.09201" lon="2.60116">
        <ele>125.8</ele>
        <time>2024-05-10T15:02:16Z</time>
      </trkpt>
      <trkpt lat="43.09183" lon="2.60111">
        <ele>125.6</ele>
        <time>2024-05-10T15:02:17Z</time>
      </trkpt>
      <trkpt lat="43.09164" lon="2.60106">
        <ele>126.6</ele>
        <time>2024-05-10T15:02:18Z</time>
      </trkpt>
      <trkpt lat="43.09147" lon="2.60099">
        <ele>127.1</ele>
        <time>2024-05-10T15:02:19Z</time>
      </trkpt>
      <trkpt lat="43.09132" lon="2.60089">
        <ele>126.8</ele>
        <time>2024-05-10T15:02:20Z</time>
      </trkpt>
      <trkpt lat="43.09119" lon="2.60075">
        <ele>126.9</ele>
        <time>2024-05-10T15:02:21Z</time>
      </trkpt>
      <trkpt lat="43.09108" lon="2.60058">
        <ele>125.8</ele>
        <time>2024-05-10T15:02:22Z</time>
      </trkpt>
      <trkpt lat="43.09101" lon="2.60036">
        <ele>128.3</ele>
        <time>2024-05-10T15:02:23Z</time>
      </trkpt>
      <trkpt lat="43.09099" lon="2.60013">
        <ele>129.5</ele>
        <time>2024-05-10T15:02:24Z</time>
      </trkpt>
      <trkpt lat="43.091" lon="2.59987">
        <ele>129.8</ele>
        <time>2024-05-10T15:02:25Z</time>
      </trkpt>
      <trkpt lat="43.09106" lon="2.59962">
        <ele>129.3</ele>
        <time>2024-05-10T15:02:26Z</time>
      </trkpt>
      <trkpt lat="43.09114" lon="2.59936">
        <ele>128.4</ele>
        <time>2024-05-10T15:02:27Z</time>
      </trkpt>
      <trkpt lat="43.09126" lon="2.59911">
        <ele>130.6</ele>
        <time>2024-05-10T15:02:28Z</time>
      </trkpt>
      <trkpt lat="43.0914" lon="2.59886">
        <ele>128.1</ele>
        <time>2024-05-10T15:02:29Z</time>
      </trkpt>
      <trkpt lat="43.09157" lon="2.59863">
        <ele>130.2</ele>
        <time>2024-05-10T15:02:30Z</time>
      </trkpt>
      <trkpt lat="43.09175" lon="2.59841">
        <ele>130.2</ele>
        <time>2024-05-10T15:02:31Z</time>
      </trkpt>
      <trkpt lat="43.09194" lon="2.5982">
        <ele>129.6</ele>
        <time>2024-05-10T15:02:32Z</time>
      </trkpt>
      <trkpt lat="43.09214" lon="2.59799">
        <ele>131.9</ele>
        <time>2024-05-10T15:02:33Z</time>
      </trkpt>
      <trkpt lat="43.09232" lon="2.59777">
        <ele>131.1</ele>
        <time>2024-05-10T15:02:34Z</time>
      </trkpt>
      <trkpt lat="43.0925" lon="2.59755">
        <ele>130.7</ele>
        <time>2024-05-10T15:02:35Z</time>
      </trkpt>
      <trkpt lat="43.09267" lon="2.59734">
        <ele>132.5</ele>
        <time>2024-05-10T15:02:36Z</time>
      </trkpt>
      <trkpt lat="43.09282" lon="2.59713">
        <ele>133</ele>
        <time>2024-05-10T15:02:37Z</time>
      </trkpt>
      <trkpt lat="43.09295" lon="2.59692">
        <ele>135.2</ele>
        <time>2024-05-10T15:02:38Z</time>
      </trkpt>
      <trkpt lat="43.09306" lon="2.59671">
        <ele>131.7</ele>
        <time>2024-05-10T15:02:39Z</time>
      </trkpt>
      <trkpt lat="43.09312" lon="2.59651">
        <ele>133.2</ele>
        <time>2024-05-10T15:02:40Z</time>
      </trkpt>
      <trkpt lat="43.09315" lon="2.59631">
        <ele>134.4</ele>
        <time>2024-05-10T15:02:41Z</time>
      </trkpt>
      <trkpt lat="43.09315" lon="2.59612">
        <ele>134.1</ele>
        <time>2024-05-10T15:02:42Z</time>
      </trkpt>
      <trkpt lat="43.09304" lon="2.5959">
        <ele>130.6</ele>
        <time>2024-05-10T15:02:43Z</time>
      </trkpt>
      <trkpt lat="43.09295" lon="2.59573">
        <ele>130.8</ele>
        <time>2024-05-10T15:02:44Z</time>
      </trkpt>
      <trkpt lat="43.09283" lon="2.59559">
        <ele>129.9</ele>
        <time>2024-05-10T15:02:45Z</time>
      </trkpt>
      <trkpt lat="43.09269" lon="2.5955">
        <ele>128.7</ele>
        <time>2024-05-10T15:02:46Z</time>
      </trkpt>
      <trkpt lat="43.09252" lon="2.59545">
        <ele>127.7</ele>
        <time>2024-05-10T15:02:47Z</time>
      </trkpt>
      <trkpt lat="43.09236" lon="2.59543">
        <ele>127.8</ele>
        <time>2024-05-10T15:02:48Z</time>
      </trkpt>
      <trkpt lat="43.09222" lon="2.5954">
        <ele>128.2</ele>
        <time>2024-05-10T15:02:49Z</time>
      </trkpt>
      <trkpt lat="43.09209" lon="2.59535">
        <ele>128.3</ele>
        <time>2024-05-10T15:02:50Z</time>
      </trkpt>
      <trkpt lat="43.09198" lon="2.59527">
        <ele>128.3</ele>
        <time>2024-05-10T15:02:51Z</time>
      </trkpt>
      <trkpt lat="43.0919" lon="2.59516">
        <ele>128.7</ele>
        <time>2024-05-10T15:02:52Z</time>
      </trkpt>
      <trkpt lat="43.09184" lon="2.59502">
        <ele>129</ele>
        <time>2024-05-10T15:02:53Z</time>
      </trkpt>
      <trkpt lat="43.0918" lon="2.59486">
        <ele>129.1</ele>
        <time>2024-05-10T15:02:54Z</time>
      </trkpt>
      <trkpt lat="43.09177" lon="2.59471">
        <ele>129.3</ele>
        <time>2024-05-10T15:02:55Z</time>
      </trkpt>
      <trkpt lat="43.09176" lon="2.59456">
        <ele>129.8</ele>
        <time>2024-05-10T15:02:56Z</time>
      </trkpt>
      <trkpt lat="43.09178" lon="2.59439">
        <ele>130.8</ele>
        <time>2024-05-10T15:02:57Z</time>
      </trkpt>
      <trkpt lat="43.09183" lon="2.59422">
        <ele>131.7</ele>
        <time>2024-05-10T15:02:58Z</time>
      </trkpt>
      <trkpt lat="43.0919" lon="2.59403">
        <ele>131.3</ele>
        <time>2024-05-10T15:02:59Z</time>
      </trkpt>
      <trkpt lat="43.09198" lon="2.59382">
        <ele>130.9</ele>
        <time>2024-05-10T15:03:00Z</time>
      </trkpt>
      <trkpt lat="43.09204" lon="2.59361">
        <ele>131.7</ele>
        <time>2024-05-10T15:03:01Z</time>
      </trkpt>
      <trkpt lat="43.09208" lon="2.59338">
        <ele>131.7</ele>
        <time>2024-05-10T15:03:02Z</time>
      </trkpt>
      <trkpt lat="43.09211" lon="2.59312">
        <ele>131.5</ele>
        <time>2024-05-10T15:03:03Z</time>
      </trkpt>
      <trkpt lat="43.09212" lon="2.59286">
        <ele>130.8</ele>
        <time>2024-05-10T15:03:04Z</time>
      </trkpt>
      <trkpt lat="43.09212" lon="2.59256">
        <ele>130.5</ele>
        <time>2024-05-10T15:03:05Z</time>
      </trkpt>
      <trkpt lat="43.09212" lon="2.59225">
        <ele>130.5</ele>
        <time>2024-05-10T15:03:06Z</time>
      </trkpt>
      <trkpt lat="43.09212" lon="2.59195">
        <ele>131.8</ele>
        <time>2024-05-10T15:03:07Z</time>
      </trkpt>
      <trkpt lat="43.09213" lon="2.59165">
        <ele>132.7</ele>
        <time>2024-05-10T15:03:08Z</time>
      </trkpt>
      <trkpt lat="43.09213" lon="2.59135">
        <ele>132.8</ele>
        <time>2024-05-10T15:03:09Z</time>
      </trkpt>
      <trkpt lat="43.09213" lon="2.59105">
        <ele>133.2</ele>
        <time>2024-05-10T15:03:10Z</time>
      </trkpt>
      <trkpt lat="43.09214" lon="2.59075">
        <ele>132.7</ele>
        <time>2024-05-10T15:03:11Z</time>
      </trkpt>
      <trkpt lat="43.09214" lon="2.59047">
        <ele>132.2</ele>
        <time>2024-05-10T15:03:12Z</time>
      </trkpt>
      <trkpt lat="43.09216" lon="2.59019">
        <ele>132.6</ele>
        <time>2024-05-10T15:03:13Z</time>
      </trkpt>
      <trkpt lat="43.0922" lon="2.58991">
        <ele>133.4</ele>
        <time>2024-05-10T15:03:14Z</time>
      </trkpt>
      <trkpt lat="43.09225" lon="2.58963">
        <ele>134.6</ele>
        <time>2024-05-10T15:03:15Z</time>
      </trkpt>
      <trkpt lat="43.09231" lon="2.58934">
        <ele>134.8</ele>
        <time>2024-05-10T15:03:16Z</time>
      </trkpt>
      <trkpt lat="43.09238" lon="2.58907">
        <ele>135.6</ele>
        <time>2024-05-10T15:03:17Z</time>
      </trkpt>
      <trkpt lat="43.09245" lon="2.5888">
        <ele>136</ele>
        <time>2024-05-10T15:03:18Z</time>
      </trkpt>
      <trkpt lat="43.09252" lon="2.58853">
        <ele>135.4</ele>
        <time>2024-05-10T15:03:19Z</time>
      </trkpt>
      <trkpt lat="43.0926" lon="2.58826">
        <ele>138.2</ele>
        <time>2024-05-10T15:03:20Z</time>
      </trkpt>
      <trkpt lat="43.09266" lon="2.58799">
        <ele>137.7</ele>
        <time>2024-05-10T15:03:21Z</time>
      </trkpt>
      <trkpt lat="43.09271" lon="2.58772">
        <ele>136.4</ele>
        <time>2024-05-10T15:03:22Z</time>
      </trkpt>
      <trkpt lat="43.09275" lon="2.58745">
        <ele>136.6</ele>
        <time>2024-05-10T15:03:23Z</time>
      </trkpt>
      <trkpt lat="43.09279" lon="2.58717">
        <ele>135.7</ele>
        <time>2024-05-10T15:03:24Z</time>
      </trkpt>
      <trkpt lat="43.09282" lon="2.5869">
        <ele>136.9</ele>
        <time>2024-05-10T15:03:25Z</time>
      </trkpt>
      <trkpt lat="43.09286" lon="2.58664">
        <ele>138.2</ele>
        <time>2024-05-10T15:03:26Z</time>
      </trkpt>
      <trkpt lat="43.09289" lon="2.58638">
        <ele>137.1</ele>
        <time>2024-05-10T15:03:27Z</time>
      </trkpt>
      <trkpt lat="43.09294" lon="2.58614">
        <ele>136.2</ele>
        <time>2024-05-10T15:03:28Z</time>
      </trkpt>
      <trkpt lat="43.09298" lon="2.58591">
        <ele>135.7</ele>
        <time>2024-05-10T15:03:29Z</time>
      </trkpt>
      <trkpt lat="43.09303" lon="2.58567">
        <ele>135.8</ele>
        <time>2024-05-10T15:03:30Z</time>
      </trkpt>
      <trkpt lat="43.09308" lon="2.58543">
        <ele>136.8</ele>
        <time>2024-05-10T15:03:31Z</time>
      </trkpt>
      <trkpt lat="43.09313" lon="2.58521">
        <ele>138</ele>
        <time>2024-05-10T15:03:32Z</time>
      </trkpt>
      <trkpt lat="43.09318" lon="2.585">
        <ele>138.6</ele>
        <time>2024-05-10T15:03:33Z</time>
      </trkpt>
      <trkpt lat="43.09322" lon="2.58479">
        <ele>139.3</ele>
        <time>2024-05-10T15:03:34Z</time>
      </trkpt>
      <trkpt lat="43.09326" lon="2.5846">
        <ele>139.9</ele>
        <time>2024-05-10T15:03:35Z</time>
      </trkpt>
      <trkpt lat="43.09329" lon="2.5844">
        <ele>140.7</ele>
        <time>2024-05-10T15:03:36Z</time>
      </trkpt>
      <trkpt lat="43.09328" lon="2.58422">
        <ele>142</ele>
        <time>2024-05-10T15:03:37Z</time>
      </trkpt>
      <trkpt lat="43.09324" lon="2.58403">
        <ele>142.9</ele>
        <time>2024-05-10T15:03:38Z</time>
      </trkpt>
      <trkpt lat="43.09317" lon="2.58385">
        <ele>142</ele>
        <time>2024-05-10T15:03:39Z</time>
      </trkpt>
      <trkpt lat="43.09307" lon="2.58369">
        <ele>139.3</ele>
        <time>2024-05-10T15:03:40Z</time>
      </trkpt>
      <trkpt lat="43.09295" lon="2.58352">
        <ele>141</ele>
        <time>2024-05-10T15:03:41Z</time>
      </trkpt>
      <trkpt lat="43.09283" lon="2.58336">
        <ele>140.5</ele>
        <time>2024-05-10T15:03:42Z</time>
      </trkpt>
      <trkpt lat="43.09269" lon="2.58322">
        <ele>142.3</ele>
        <time>2024-05-10T15:03:43Z</time>
      </trkpt>
      <trkpt lat="43.09254" lon="2.58309">
        <ele>141.9</ele>
        <time>2024-05-10T15:03:44Z</time>
      </trkpt>
      <trkpt lat="43.0924" lon="2.58298">
        <ele>142.7</ele>
        <time>2024-05-10T15:03:45Z</time>
      </trkpt>
      <trkpt lat="43.09226" lon="2.5829">
        <ele>142.5</ele>
        <time>2024-05-10T15:03:46Z</time>
      </trkpt>
      <trkpt lat="43.09211" lon="2.58284">
        <ele>143.5</ele>
        <time>2024-05-10T15:03:47Z</time>
      </trkpt>
      <trkpt lat="43.09197" lon="2.58281">
        <ele>143.9</ele>
        <time>2024-05-10T15:03:48Z</time>
      </trkpt>
      <trkpt lat="43.09184" lon="2.58281">
        <ele>143.7</ele>
        <time>2024-05-10T15:03:49Z</time>
      </trkpt>
      <trkpt lat="43.0917" lon="2.58285">
        <ele>142.1</ele>
        <time>2024-05-10T15:03:50Z</time>
      </trkpt>
      <trkpt lat="43.09156" lon="2.58294">
        <ele>140.6</ele>
        <time>2024-05-10T15:03:51Z</time>
      </trkpt>
      <trkpt lat="43.09142" lon="2.58304">
        <ele>139.8</ele>
        <time>2024-05-10T15:03:52Z</time>
      </trkpt>
      <trkpt lat="43.09127" lon="2.58317">
        <ele>140.6</ele>
        <time>2024-05-10T15:03:53Z</time>
      </trkpt>
      <trkpt lat="43.09114" lon="2.58332">
        <ele>139.8</ele>
        <time>2024-05-10T15:03:54Z</time>
      </trkpt>
      <trkpt lat="43.09102" lon="2.58348">
        <ele>141.5</ele>
        <time>2024-05-10T15:03:55Z</time>
      </trkpt>
      <trkpt lat="43.09092" lon="2.58368">
        <ele>142.2</ele>
        <time>2024-05-10T15:03:56Z</time>
      </trkpt>
      <trkpt lat="43.09084" lon="2.58388">
        <ele>140.1</ele>
        <time>2024-05-10T15:03:57Z</time>
      </trkpt>
      <trkpt lat="43.09075" lon="2.58408">
        <ele>142.3</ele>
        <time>2024-05-10T15:03:58Z</time>
      </trkpt>
      <trkpt lat="43.09067" lon="2.58426">
        <ele>143</ele>
        <time>2024-05-10T15:03:59Z</time>
      </trkpt>
      <trkpt lat="43.0906" lon="2.58445">
        <ele>140.7</ele>
        <time>2024-05-10T15:04:00Z</time>
      </trkpt>
      <trkpt lat="43.09054" lon="2.58463">
        <ele>140.8</ele>
        <time>2024-05-10T15:04:01Z</time>
      </trkpt>
      <trkpt lat="43.09046" lon="2.58481">
        <ele>141.7</ele>
        <time>2024-05-10T15:04:02Z</time>
      </trkpt>
      <trkpt lat="43.09038" lon="2.58495">
        <ele>141.3</ele>
        <time>2024-05-10T15:04:03Z</time>
      </trkpt>
      <trkpt lat="43.09027" lon="2.58505">
        <ele>142.3</ele>
        <time>2024-05-10T15:04:04Z</time>
      </trkpt>
      <trkpt lat="43.09015" lon="2.58509">
        <ele>141.7</ele>
        <time>2024-05-10T15:04:05Z</time>
      </trkpt>
      <trkpt lat="43.09003" lon="2.58505">
        <ele>141.9</ele>
        <time>2024-05-10T15:04:06Z</time>
      </trkpt>
      <trkpt lat="43.08993" lon="2.58496">
        <ele>142.1</ele>
        <time>2024-05-10T15:04:07Z</time>
      </trkpt>
      <trkpt lat="43.08985" lon="2.58481">
        <ele>143.2</ele>
        <time>2024-05-10T15:04:08Z</time>
      </trkpt>
      <trkpt lat="43.08979" lon="2.58462">
        <ele>143.8</ele>
        <time>2024-05-10T15:04:09Z</time>
      </trkpt>
      <trkpt lat="43.08974" lon="2.58445">
        <ele>142.7</ele>
        <time>2024-05-10T15:04:10Z</time>
      </trkpt>
      <trkpt lat="43.0897" lon="2.58427">
        <ele>142.1</ele>
        <time>2024-05-10T15:04:11Z</time>
      </trkpt>
      <trkpt lat="43.08972" lon="2.58406">
        <ele>142.6</ele>
        <time>2024-05-10T15:04:12Z</time>
      </trkpt>
      <trkpt lat="43.08981" lon="2.5838">
        <ele>147</ele>
        <time>2024-05-10T15:04:13Z</time>
      </trkpt>
      <trkpt lat="43.08986" lon="2.58356">
        <ele>149.7</ele>
        <time>2024-05-10T15:04:14Z</time>
      </trkpt>
      <trkpt lat="43.08988" lon="2.58334">
        <ele>152.9</ele>
        <time>2024-05-10T15:04:15Z</time>
      </trkpt>
      <trkpt lat="43.08989" lon="2.58313">
        <ele>151.5</ele>
        <time>2024-05-10T15:04:16Z</time>
      </trkpt>
      <trkpt lat="43.08989" lon="2.58293">
        <ele>150.1</ele>
        <time>2024-05-10T15:04:17Z</time>
      </trkpt>
      <trkpt lat="43.08991" lon="2.58274">
        <ele>150.8</ele>
        <time>2024-05-10T15:04:18Z</time>
      </trkpt>
      <trkpt lat="43.08991" lon="2.58256">
        <ele>150.3</ele>
        <time>2024-05-10T15:04:19Z</time>
      </trkpt>
      <trkpt lat="43.08993" lon="2.58239">
        <ele>148.8</ele>
        <time>2024-05-10T15:04:20Z</time>
      </trkpt>
      <trkpt lat="43.08997" lon="2.58222">
        <ele>146</ele>
        <time>2024-05-10T15:04:21Z</time>
      </trkpt>
      <trkpt lat="43.09003" lon="2.58205">
        <ele>146.9</ele>
        <time>2024-05-10T15:04:22Z</time>
      </trkpt>
      <trkpt lat="43.09008" lon="2.58186">
        <ele>147.8</ele>
        <time>2024-05-10T15:04:23Z</time>
      </trkpt>
      <trkpt lat="43.09011" lon="2.58165">
        <ele>147.8</ele>
        <time>2024-05-10T15:04:24Z</time>
      </trkpt>
      <trkpt lat="43.09012" lon="2.58144">
        <ele>148.2</ele>
        <time>2024-05-10T15:04:25Z</time>
      </trkpt>
      <trkpt lat="43.09011" lon="2.58124">
        <ele>148.1</ele>
        <time>2024-05-10T15:04:26Z</time>
      </trkpt>
      <trkpt lat="43.09008" lon="2.58103">
        <ele>147.5</ele>
        <time>2024-05-10T15:04:27Z</time>
      </trkpt>
      <trkpt lat="43.09004" lon="2.58082">
        <ele>147.1</ele>
        <time>2024-05-10T15:04:28Z</time>
      </trkpt>
      <trkpt lat="43.09003" lon="2.58062">
        <ele>146.8</ele>
        <time>2024-05-10T15:04:29Z</time>
      </trkpt>
      <trkpt lat="43.09005" lon="2.5804">
        <ele>146.9</ele>
        <time>2024-05-10T15:04:30Z</time>
      </trkpt>
      <trkpt lat="43.09008" lon="2.58018">
        <ele>147.6</ele>
        <time>2024-05-10T15:04:31Z</time>
      </trkpt>
      <trkpt lat="43.09012" lon="2.57996">
        <ele>148.7</ele>
        <time>2024-05-10T15:04:32Z</time>
      </trkpt>
      <trkpt lat="43.09016" lon="2.57975">
        <ele>149.3</ele>
        <time>2024-05-10T15:04:33Z</time>
      </trkpt>
      <trkpt lat="43.09021" lon="2.57955">
        <ele>148.8</ele>
        <time>2024-05-10T15:04:34Z</time>
      </trkpt>
      <trkpt lat="43.09027" lon="2.57938">
        <ele>148.2</ele>
        <time>2024-05-10T15:04:35Z</time>
      </trkpt>
      <trkpt lat="43.09034" lon="2.57922">
        <ele>150</ele>
        <time>2024-05-10T15:04:36Z</time>
      </trkpt>
      <trkpt lat="43.09039" lon="2.57907">
        <ele>149.2</ele>
        <time>2024-05-10T15:04:37Z</time>
      </trkpt>
      <trkpt lat="43.09041" lon="2.57891">
        <ele>145.5</ele>
        <time>2024-05-10T15:04:38Z</time>
      </trkpt>
      <trkpt lat="43.0904" lon="2.57875">
        <ele>143.1</ele>
        <time>2024-05-10T15:04:39Z</time>
      </trkpt>
      <trkpt lat="43.09038" lon="2.57858">
        <ele>141.8</ele>
        <time>2024-05-10T15:04:40Z</time>
      </trkpt>
      <trkpt lat="43.09035" lon="2.57842">
        <ele>144</ele>
        <time>2024-05-10T15:04:41Z</time>
      </trkpt>
      <trkpt lat="43.09034" lon="2.57826">
        <ele>146.2</ele>
        <time>2024-05-10T15:04:42Z</time>
      </trkpt>
      <trkpt lat="43.09037" lon="2.57813">
        <ele>147.4</ele>
        <time>2024-05-10T15:04:43Z</time>
      </trkpt>
      <trkpt lat="43.09044" lon="2.57803">
        <ele>148.6</ele>
        <time>2024-05-10T15:04:44Z</time>
      </trkpt>
      <trkpt lat="43.09055" lon="2.57797">
        <ele>148.9</ele>
        <time>2024-05-10T15:04:45Z</time>
      </trkpt>
      <trkpt lat="43.09068" lon="2.57794">
        <ele>148.9</ele>
        <time>2024-05-10T15:04:46Z</time>
      </trkpt>
      <trkpt lat="43.09084" lon="2.57791">
        <ele>148.5</ele>
        <time>2024-05-10T15:04:47Z</time>
      </trkpt>
      <trkpt lat="43.09101" lon="2.57788">
        <ele>147.9</ele>
        <time>2024-05-10T15:04:48Z</time>
      </trkpt>
      <trkpt lat="43.0912" lon="2.57784">
        <ele>147.3</ele>
        <time>2024-05-10T15:04:49Z</time>
      </trkpt>
      <trkpt lat="43.09139" lon="2.57781">
        <ele>146.9</ele>
        <time>2024-05-10T15:04:50Z</time>
      </trkpt>
      <trkpt lat="43.09158" lon="2.57777">
        <ele>147.1</ele>
        <time>2024-05-10T15:04:51Z</time>
      </trkpt>
      <trkpt lat="43.09177" lon="2.57771">
        <ele>147.5</ele>
        <time>2024-05-10T15:04:52Z</time>
      </trkpt>
      <trkpt lat="43.09195" lon="2.57763">
        <ele>148.1</ele>
        <time>2024-05-10T15:04:53Z</time>
      </trkpt>
      <trkpt lat="43.09211" lon="2.57753">
        <ele>147.7</ele>
        <time>2024-05-10T15:04:54Z</time>
      </trkpt>
      <trkpt lat="43.09225" lon="2.57742">
        <ele>148.5</ele>
        <time>2024-05-10T15:04:55Z</time>
      </trkpt>
      <trkpt lat="43.09238" lon="2.57729">
        <ele>147.9</ele>
        <time>2024-05-10T15:04:56Z</time>
      </trkpt>
      <trkpt lat="43.0925" lon="2.57716">
        <ele>146.8</ele>
        <time>2024-05-10T15:04:57Z</time>
      </trkpt>
      <trkpt lat="43.0926" lon="2.57702">
        <ele>148.5</ele>
        <time>2024-05-10T15:04:58Z</time>
      </trkpt>
      <trkpt lat="43.09267" lon="2.57685">
        <ele>148.2</ele>
        <time>2024-05-10T15:04:59Z</time>
      </trkpt>
      <trkpt lat="43.09271" lon="2.57665">
        <ele>147.3</ele>
        <time>2024-05-10T15:05:00Z</time>
      </trkpt>
      <trkpt lat="43.09275" lon="2.57642">
        <ele>146.9</ele>
        <time>2024-05-10T15:05:01Z</time>
      </trkpt>
      <trkpt lat="43.09277" lon="2.57618">
        <ele>147.9</ele>
        <time>2024-05-10T15:05:02Z</time>
      </trkpt>
      <trkpt lat="43.09281" lon="2.57593">
        <ele>148.8</ele>
        <time>2024-05-10T15:05:03Z</time>
      </trkpt>
      <trkpt lat="43.09285" lon="2.57569">
        <ele>151.1</ele>
        <time>2024-05-10T15:05:04Z</time>
      </trkpt>
      <trkpt lat="43.09292" lon="2.57546">
        <ele>151.7</ele>
        <time>2024-05-10T15:05:05Z</time>
      </trkpt>
      <trkpt lat="43.09297" lon="2.57524">
        <ele>152</ele>
        <time>2024-05-10T15:05:06Z</time>
      </trkpt>
      <trkpt lat="43.09303" lon="2.57503">
        <ele>150.4</ele>
        <time>2024-05-10T15:05:07Z</time>
      </trkpt>
      <trkpt lat="43.09309" lon="2.57483">
        <ele>149.7</ele>
        <time>2024-05-10T15:05:08Z</time>
      </trkpt>
      <trkpt lat="43.09316" lon="2.57461">
        <ele>151.2</ele>
        <time>2024-05-10T15:05:09Z</time>
      </trkpt>
      <trkpt lat="43.09323" lon="2.5744">
        <ele>151.8</ele>
        <time>2024-05-10T15:05:10Z</time>
      </trkpt>
      <trkpt lat="43.0933" lon="2.5742">
        <ele>150.5</ele>
        <time>2024-05-10T15:05:11Z</time>
      </trkpt>
      <trkpt lat="43.09338" lon="2.57401">
        <ele>149.2</ele>
        <time>2024-05-10T15:05:12Z</time>
      </trkpt>
      <trkpt lat="43.09345" lon="2.57383">
        <ele>150.1</ele>
        <time>2024-05-10T15:05:13Z</time>
      </trkpt>
      <trkpt lat="43.09353" lon="2.57365">
        <ele>151</ele>
        <time>2024-05-10T15:05:14Z</time>
      </trkpt>
      <trkpt lat="43.09362" lon="2.57348">
        <ele>149.9</ele>
        <time>2024-05-10T15:05:15Z</time>
      </trkpt>
      <trkpt lat="43.09372" lon="2.57331">
        <ele>150.7</ele>
        <time>2024-05-10T15:05:16Z</time>
      </trkpt>
      <trkpt lat="43.0938" lon="2.57316">
        <ele>151.9</ele>
        <time>2024-05-10T15:05:17Z</time>
      </trkpt>
      <trkpt lat="43.09388" lon="2.57301">
        <ele>150.7</ele>
        <time>2024-05-10T15:05:18Z</time>
      </trkpt>
      <trkpt lat="43.09394" lon="2.57284">
        <ele>150.9</ele>
        <time>2024-05-10T15:05:19Z</time>
      </trkpt>
      <trkpt lat="43.09397" lon="2.57267">
        <ele>150.9</ele>
        <time>2024-05-10T15:05:20Z</time>
      </trkpt>
      <trkpt lat="43.09397" lon="2.5725">
        <ele>151.1</ele>
        <time>2024-05-10T15:05:21Z</time>
      </trkpt>
      <trkpt lat="43.09394" lon="2.57233">
        <ele>150.8</ele>
        <time>2024-05-10T15:05:22Z</time>
      </trkpt>
      <trkpt lat="43.09389" lon="2.57218">
        <ele>150.5</ele>
        <time>2024-05-10T15:05:23Z</time>
      </trkpt>
      <trkpt lat="43.0938" lon="2.57206">
        <ele>151</ele>
        <time>2024-05-10T15:05:24Z</time>
      </trkpt>
      <trkpt lat="43.09368" lon="2.57197">
        <ele>150.9</ele>
        <time>2024-05-10T15:05:25Z</time>
      </trkpt>
      <trkpt lat="43.09355" lon="2.57193">
        <ele>151</ele>
        <time>2024-05-10T15:05:26Z</time>
      </trkpt>
      <trkpt lat="43.09341" lon="2.5719">
        <ele>151</ele>
        <time>2024-05-10T15:05:27Z</time>
      </trkpt>
      <trkpt lat="43.09326" lon="2.57188">
        <ele>151.2</ele>
        <time>2024-05-10T15:05:28Z</time>
      </trkpt>
      <trkpt lat="43.09309" lon="2.57185">
        <ele>151.5</ele>
        <time>2024-05-10T15:05:29Z</time>
      </trkpt>
      <trkpt lat="43.09291" lon="2.57184">
        <ele>151.4</ele>
        <time>2024-05-10T15:05:30Z</time>
      </trkpt>
      <trkpt lat="43.09272" lon="2.57182">
        <ele>151.5</ele>
        <time>2024-05-10T15:05:31Z</time>
      </trkpt>
      <trkpt lat="43.09253" lon="2.57181">
        <ele>153.3</ele>
        <time>2024-05-10T15:05:32Z</time>
      </trkpt>
      <trkpt lat="43.09234" lon="2.57179">
        <ele>154.1</ele>
        <time>2024-05-10T15:05:33Z</time>
      </trkpt>
      <trkpt lat="43.09214" lon="2.57178">
        <ele>154.8</ele>
        <time>2024-05-10T15:05:34Z</time>
      </trkpt>
      <trkpt lat="43.09195" lon="2.57176">
        <ele>154.4</ele>
        <time>2024-05-10T15:05:35Z</time>
      </trkpt>
      <trkpt lat="43.09176" lon="2.57174">
        <ele>154</ele>
        <time>2024-05-10T15:05:36Z</time>
      </trkpt>
      <trkpt lat="43.09158" lon="2.57171">
        <ele>153.5</ele>
        <time>2024-05-10T15:05:37Z</time>
      </trkpt>
      <trkpt lat="43.09141" lon="2.5717">
        <ele>153.5</ele>
        <time>2024-05-10T15:05:38Z</time>
      </trkpt>
      <trkpt lat="43.09125" lon="2.57171">
        <ele>153.7</ele>
        <time>2024-05-10T15:05:39Z</time>
      </trkpt>
      <trkpt lat="43.09109" lon="2.57177">
        <ele>156.1</ele>
        <time>2024-05-10T15:05:40Z</time>
      </trkpt>
      <trkpt lat="43.09093" lon="2.57186">
        <ele>155.1</ele>
        <time>2024-05-10T15:05:41Z</time>
      </trkpt>
      <trkpt lat="43.09077" lon="2.57198">
        <ele>153.7</ele>
        <time>2024-05-10T15:05:42Z</time>
      </trkpt>
      <trkpt lat="43.09062" lon="2.57209">
        <ele>154.8</ele>
        <time>2024-05-10T15:05:43Z</time>
      </trkpt>
      <trkpt lat="43.09047" lon="2.5722">
        <ele>154.4</ele>
        <time>2024-05-10T15:05:44Z</time>
      </trkpt>
      <trkpt lat="43.09033" lon="2.5723">
        <ele>155.6</ele>
        <time>2024-05-10T15:05:45Z</time>
      </trkpt>
      <trkpt lat="43.09019" lon="2.57238">
        <ele>157.4</ele>
        <time>2024-05-10T15:05:46Z</time>
      </trkpt>
      <trkpt lat="43.09004" lon="2.57243">
        <ele>157.4</ele>
        <time>2024-05-10T15:05:47Z</time>
      </trkpt>
      <trkpt lat="43.08989" lon="2.57242">
        <ele>157.8</ele>
        <time>2024-05-10T15:05:48Z</time>
      </trkpt>
      <trkpt lat="43.08975" lon="2.57236">
        <ele>156.7</ele>
        <time>2024-05-10T15:05:49Z</time>
      </trkpt>
      <trkpt lat="43.0896" lon="2.57225">
        <ele>155.1</ele>
        <time>2024-05-10T15:05:50Z</time>
      </trkpt>
      <trkpt lat="43.08948" lon="2.57213">
        <ele>155.3</ele>
        <time>2024-05-10T15:05:51Z</time>
      </trkpt>
      <trkpt lat="43.08939" lon="2.57199">
        <ele>156</ele>
        <time>2024-05-10T15:05:52Z</time>
      </trkpt>
      <trkpt lat="43.08933" lon="2.57182">
        <ele>158</ele>
        <time>2024-05-10T15:05:53Z</time>
      </trkpt>
      <trkpt lat="43.08932" lon="2.57163">
        <ele>157.7</ele>
        <time>2024-05-10T15:05:54Z</time>
      </trkpt>
      <trkpt lat="43.08932" lon="2.57142">
        <ele>157.4</ele>
        <time>2024-05-10T15:05:55Z</time>
      </trkpt>
      <trkpt lat="43.08934" lon="2.57118">
        <ele>157.6</ele>
        <time>2024-05-10T15:05:56Z</time>
      </trkpt>
      <trkpt lat="43.08938" lon="2.57093">
        <ele>157.3</ele>
        <time>2024-05-10T15:05:57Z</time>
      </trkpt>
      <trkpt lat="43.08943" lon="2.57069">
        <ele>157.1</ele>
        <time>2024-05-10T15:05:58Z</time>
      </trkpt>
      <trkpt lat="43.08952" lon="2.57047">
        <ele>156.8</ele>
        <time>2024-05-10T15:05:59Z</time>
      </trkpt>
      <trkpt lat="43.08958" lon="2.57024">
        <ele>156</ele>
        <time>2024-05-10T15:06:00Z</time>
      </trkpt>
      <trkpt lat="43.08962" lon="2.56998">
        <ele>154.8</ele>
        <time>2024-05-10T15:06:01Z</time>
      </trkpt>
      <trkpt lat="43.08966" lon="2.56972">
        <ele>156.7</ele>
        <time>2024-05-10T15:06:02Z</time>
      </trkpt>
      <trkpt lat="43.08969" lon="2.56945">
        <ele>157.5</ele>
        <time>2024-05-10T15:06:03Z</time>
      </trkpt>
      <trkpt lat="43.08972" lon="2.56918">
        <ele>157.1</ele>
        <time>2024-05-10T15:06:04Z</time>
      </trkpt>
      <trkpt lat="43.08976" lon="2.56892">
        <ele>157.9</ele>
        <time>2024-05-10T15:06:05Z</time>
      </trkpt>
      <trkpt lat="43.0898" lon="2.56867">
        <ele>157.8</ele>
        <time>2024-05-10T15:06:06Z</time>
      </trkpt>
      <trkpt lat="43.08985" lon="2.56842">
        <ele>158.2</ele>
        <time>2024-05-10T15:06:07Z</time>
      </trkpt>
      <trkpt lat="43.08991" lon="2.56817">
        <ele>157.9</ele>
        <time>2024-05-10T15:06:08Z</time>
      </trkpt>
      <trkpt lat="43.08997" lon="2.56792">
        <ele>157.7</ele>
        <time>2024-05-10T15:06:09Z</time>
      </trkpt>
      <trkpt lat="43.09003" lon="2.56765">
        <ele>158</ele>
        <time>2024-05-10T15:06:10Z</time>
      </trkpt>
      <trkpt lat="43.0901" lon="2.56739">
        <ele>158.7</ele>
        <time>2024-05-10T15:06:11Z</time>
      </trkpt>
      <trkpt lat="43.09019" lon="2.56711">
        <ele>159.3</ele>
        <time>2024-05-10T15:06:12Z</time>
      </trkpt>
      <trkpt lat="43.09027" lon="2.56684">
        <ele>159</ele>
        <time>2024-05-10T15:06:13Z</time>
      </trkpt>
      <trkpt lat="43.09036" lon="2.56655">
        <ele>160.1</ele>
        <time>2024-05-10T15:06:14Z</time>
      </trkpt>
      <trkpt lat="43.09045" lon="2.56627">
        <ele>161.2</ele>
        <time>2024-05-10T15:06:15Z</time>
      </trkpt>
      <trkpt lat="43.09053" lon="2.56599">
        <ele>160.3</ele>
        <time>2024-05-10T15:06:16Z</time>
      </trkpt>
      <trkpt lat="43.0906" lon="2.5657">
        <ele>159.2</ele>
        <time>2024-05-10T15:06:17Z</time>
      </trkpt>
      <trkpt lat="43.09067" lon="2.5654">
        <ele>159.9</ele>
        <time>2024-05-10T15:06:18Z</time>
      </trkpt>
      <trkpt lat="43.09074" lon="2.5651">
        <ele>161.1</ele>
        <time>2024-05-10T15:06:19Z</time>
      </trkpt>
      <trkpt lat="43.09079" lon="2.56479">
        <ele>161.2</ele>
        <time>2024-05-10T15:06:20Z</time>
      </trkpt>
      <trkpt lat="43.09085" lon="2.56448">
        <ele>160.6</ele>
        <time>2024-05-10T15:06:21Z</time>
      </trkpt>
      <trkpt lat="43.09092" lon="2.56417">
        <ele>161.5</ele>
        <time>2024-05-10T15:06:22Z</time>
      </trkpt>
      <trkpt lat="43.09099" lon="2.56387">
        <ele>160.8</ele>
        <time>2024-05-10T15:06:23Z</time>
      </trkpt>
      <trkpt lat="43.09107" lon="2.56358">
        <ele>162.1</ele>
        <time>2024-05-10T15:06:24Z</time>
      </trkpt>
      <trkpt lat="43.09113" lon="2.56329">
        <ele>161</ele>
        <time>2024-05-10T15:06:25Z</time>
      </trkpt>
      <trkpt lat="43.09117" lon="2.563">
        <ele>162.1</ele>
        <time>2024-05-10T15:06:26Z</time>
      </trkpt>
      <trkpt lat="43.09121" lon="2.56271">
        <ele>162.9</ele>
        <time>2024-05-10T15:06:27Z</time>
      </trkpt>
      <trkpt lat="43.09124" lon="2.56244">
        <ele>163.5</ele>
        <time>2024-05-10T15:06:28Z</time>
      </trkpt>
      <trkpt lat="43.09128" lon="2.56217">
        <ele>163.1</ele>
        <time>2024-05-10T15:06:29Z</time>
      </trkpt>
      <trkpt lat="43.09132" lon="2.56192">
        <ele>162.7</ele>
        <time>2024-05-10T15:06:30Z</time>
      </trkpt>
      <trkpt lat="43.09136" lon="2.56166">
        <ele>163.3</ele>
        <time>2024-05-10T15:06:31Z</time>
      </trkpt>
      <trkpt lat="43.0914" lon="2.56142">
        <ele>162.7</ele>
        <time>2024-05-10T15:06:32Z</time>
      </trkpt>
      <trkpt lat="43.09141" lon="2.56117">
        <ele>163.4</ele>
        <time>2024-05-10T15:06:33Z</time>
      </trkpt>
      <trkpt lat="43.09139" lon="2.56091">
        <ele>163.3</ele>
        <time>2024-05-10T15:06:34Z</time>
      </trkpt>
      <trkpt lat="43.09135" lon="2.56065">
        <ele>164.4</ele>
        <time>2024-05-10T15:06:35Z</time>
      </trkpt>
      <trkpt lat="43.09131" lon="2.56041">
        <ele>165.3</ele>
        <time>2024-05-10T15:06:36Z</time>
      </trkpt>
      <trkpt lat="43.09127" lon="2.56017">
        <ele>166.2</ele>
        <time>2024-05-10T15:06:37Z</time>
      </trkpt>
      <trkpt lat="43.09124" lon="2.55994">
        <ele>167.1</ele>
        <time>2024-05-10T15:06:38Z</time>
      </trkpt>
      <trkpt lat="43.09122" lon="2.55973">
        <ele>166.7</ele>
        <time>2024-05-10T15:06:39Z</time>
      </trkpt>
      <trkpt lat="43.09122" lon="2.55952">
        <ele>163.1</ele>
        <time>2024-05-10T15:06:40Z</time>
      </trkpt>
      <trkpt lat="43.09123" lon="2.55933">
        <ele>160.8</ele>
        <time>2024-05-10T15:06:41Z</time>
      </trkpt>
      <trkpt lat="43.09124" lon="2.55915">
        <ele>159.7</ele>
        <time>2024-05-10T15:06:42Z</time>
      </trkpt>
      <trkpt lat="43.09125" lon="2.55898">
        <ele>162.2</ele>
        <time>2024-05-10T15:06:43Z</time>
      </trkpt>
      <trkpt lat="43.09123" lon="2.55882">
        <ele>163.8</ele>
        <time>2024-05-10T15:06:44Z</time>
      </trkpt>
      <trkpt lat="43.09117" lon="2.55868">
        <ele>164.6</ele>
        <time>2024-05-10T15:06:45Z</time>
      </trkpt>
      <trkpt lat="43.09107" lon="2.55858">
        <ele>165.4</ele>
        <time>2024-05-10T15:06:46Z</time>
      </trkpt>
      <trkpt lat="43.09095" lon="2.55854">
        <ele>165.7</ele>
        <time>2024-05-10T15:06:47Z</time>
      </trkpt>
      <trkpt lat="43.0908" lon="2.55855">
        <ele>165.5</ele>
        <time>2024-05-10T15:06:48Z</time>
      </trkpt>
      <trkpt lat="43.09065" lon="2.55859">
        <ele>165.2</ele>
        <time>2024-05-10T15:06:49Z</time>
      </trkpt>
      <trkpt lat="43.09049" lon="2.55862">
        <ele>164.9</ele>
        <time>2024-05-10T15:06:50Z</time>
      </trkpt>
      <trkpt lat="43.09034" lon="2.55862">
        <ele>164.9</ele>
        <time>2024-05-10T15:06:51Z</time>
      </trkpt>
      <trkpt lat="43.0902" lon="2.55858">
        <ele>165.9</ele>
        <time>2024-05-10T15:06:52Z</time>
      </trkpt>
      <trkpt lat="43.09009" lon="2.55849">
        <ele>166.6</ele>
        <time>2024-05-10T15:06:53Z</time>
      </trkpt>
      <trkpt lat="43.09001" lon="2.55837">
        <ele>165.3</ele>
        <time>2024-05-10T15:06:54Z</time>
      </trkpt>
      <trkpt lat="43.08997" lon="2.55821">
        <ele>165.4</ele>
        <time>2024-05-10T15:06:55Z</time>
      </trkpt>
      <trkpt lat="43.08998" lon="2.55803">
        <ele>166.1</ele>
        <time>2024-05-10T15:06:56Z</time>
      </trkpt>
      <trkpt lat="43.09" lon="2.55784">
        <ele>166.8</ele>
        <time>2024-05-10T15:06:57Z</time>
      </trkpt>
      <trkpt lat="43.09005" lon="2.55763">
        <ele>169</ele>
        <time>2024-05-10T15:06:58Z</time>
      </trkpt>
      <trkpt lat="43.0901" lon="2.55741">
        <ele>169.8</ele>
        <time>2024-05-10T15:06:59Z</time>
      </trkpt>
      <trkpt lat="43.09016" lon="2.55716">
        <ele>169.7</ele>
        <time>2024-05-10T15:07:00Z</time>
      </trkpt>
      <trkpt lat="43.09022" lon="2.55692">
        <ele>169.1</ele>
        <time>2024-05-10T15:07:01Z</time>
      </trkpt>
      <trkpt lat="43.09028" lon="2.55667">
        <ele>168.1</ele>
        <time>2024-05-10T15:07:02Z</time>
      </trkpt>
      <trkpt lat="43.09034" lon="2.55642">
        <ele>169.1</ele>
        <time>2024-05-10T15:07:03Z</time>
      </trkpt>
      <trkpt lat="43.0904" lon="2.55619">
        <ele>169.5</ele>
        <time>2024-05-10T15:07:04Z</time>
      </trkpt>
      <trkpt lat="43.09046" lon="2.55596">
        <ele>169.5</ele>
        <time>2024-05-10T15:07:05Z</time>
      </trkpt>
      <trkpt lat="43.09052" lon="2.55573">
        <ele>169.3</ele>
        <time>2024-05-10T15:07:06Z</time>
      </trkpt>
      <trkpt lat="43.09058" lon="2.55552">
        <ele>170</ele>
        <time>2024-05-10T15:07:07Z</time>
      </trkpt>
      <trkpt lat="43.09066" lon="2.55531">
        <ele>170.1</ele>
        <time>2024-05-10T15:07:08Z</time>
      </trkpt>
      <trkpt lat="43.09076" lon="2.55511">
        <ele>168.5</ele>
        <time>2024-05-10T15:07:09Z</time>
      </trkpt>
      <trkpt lat="43.09089" lon="2.55491">
        <ele>168.9</ele>
        <time>2024-05-10T15:07:10Z</time>
      </trkpt>
      <trkpt lat="43.091" lon="2.55469">
        <ele>168.3</ele>
        <time>2024-05-10T15:07:11Z</time>
      </trkpt>
      <trkpt lat="43.0911" lon="2.55445">
        <ele>168</ele>
        <time>2024-05-10T15:07:12Z</time>
      </trkpt>
      <trkpt lat="43.09118" lon="2.55421">
        <ele>168.1</ele>
        <time>2024-05-10T15:07:13Z</time>
      </trkpt>
      <trkpt lat="43.09126" lon="2.55397">
        <ele>167.7</ele>
        <time>2024-05-10T15:07:14Z</time>
      </trkpt>
      <trkpt lat="43.09133" lon="2.55373">
        <ele>167.8</ele>
        <time>2024-05-10T15:07:15Z</time>
      </trkpt>
      <trkpt lat="43.0914" lon="2.55351">
        <ele>168</ele>
        <time>2024-05-10T15:07:16Z</time>
      </trkpt>
      <trkpt lat="43.09147" lon="2.55329">
        <ele>167.9</ele>
        <time>2024-05-10T15:07:17Z</time>
      </trkpt>
      <trkpt lat="43.09153" lon="2.55308">
        <ele>167.6</ele>
        <time>2024-05-10T15:07:18Z</time>
      </trkpt>
      <trkpt lat="43.0916" lon="2.55287">
        <ele>167.9</ele>
        <time>2024-05-10T15:07:19Z</time>
      </trkpt>
      <trkpt lat="43.09166" lon="2.55267">
        <ele>168</ele>
        <time>2024-05-10T15:07:20Z</time>
      </trkpt>
      <trkpt lat="43.09173" lon="2.55247">
        <ele>168.2</ele>
        <time>2024-05-10T15:07:21Z</time>
      </trkpt>
      <trkpt lat="43.0918" lon="2.55227">
        <ele>168.5</ele>
        <time>2024-05-10T15:07:22Z</time>
      </trkpt>
      <trkpt lat="43.09186" lon="2.55206">
        <ele>168.7</ele>
        <time>2024-05-10T15:07:23Z</time>
      </trkpt>
      <trkpt lat="43.09193" lon="2.55185">
        <ele>168.9</ele>
        <time>2024-05-10T15:07:24Z</time>
      </trkpt>
      <trkpt lat="43.092" lon="2.55164">
        <ele>169</ele>
        <time>2024-05-10T15:07:25Z</time>
      </trkpt>
      <trkpt lat="43.09206" lon="2.55145">
        <ele>169</ele>
        <time>2024-05-10T15:07:26Z</time>
      </trkpt>
      <trkpt lat="43.09212" lon="2.55126">
        <ele>168.8</ele>
        <time>2024-05-10T15:07:27Z</time>
      </trkpt>
      <trkpt lat="43.09217" lon="2.55111">
        <ele>168.8</ele>
        <time>2024-05-10T15:07:28Z</time>
      </trkpt>
      <trkpt lat="43.09222" lon="2.55097">
        <ele>169.5</ele>
        <time>2024-05-10T15:07:29Z</time>
      </trkpt>
      <trkpt lat="43.09226" lon="2.55084">
        <ele>170</ele>
        <time>2024-05-10T15:07:30Z</time>
      </trkpt>
      <trkpt lat="43.0923" lon="2.55072">
        <ele>170.1</ele>
        <time>2024-05-10T15:07:31Z</time>
      </trkpt>
      <trkpt lat="43.09234" lon="2.5506">
        <ele>170.4</ele>
        <time>2024-05-10T15:07:32Z</time>
      </trkpt>
      <trkpt lat="43.09237" lon="2.55049">
        <ele>170.6</ele>
        <time>2024-05-10T15:07:33Z</time>
      </trkpt>
      <trkpt lat="43.09241" lon="2.55037">
        <ele>170.9</ele>
        <time>2024-05-10T15:07:34Z</time>
      </trkpt>
      <trkpt lat="43.09243" lon="2.55024">
        <ele>171</ele>
        <time>2024-05-10T15:07:35Z</time>
      </trkpt>
      <trkpt lat="43.09245" lon="2.55011">
        <ele>171</ele>
        <time>2024-05-10T15:07:36Z</time>
      </trkpt>
      <trkpt lat="43.09247" lon="2.54999">
        <ele>171</ele>
        <time>2024-05-10T15:07:37Z</time>
      </trkpt>
      <trkpt lat="43.09248" lon="2.54985">
        <ele>171.5</ele>
        <time>2024-05-10T15:07:38Z</time>
      </trkpt>
      <trkpt lat="43.0925" lon="2.54972">
        <ele>172</ele>
        <time>2024-05-10T15:07:39Z</time>
      </trkpt>
      <trkpt lat="43.0925" lon="2.54956">
        <ele>172</ele>
        <time>2024-05-10T15:07:40Z</time>
      </trkpt>
      <trkpt lat="43.09251" lon="2.54941">
        <ele>172.1</ele>
        <time>2024-05-10T15:07:41Z</time>
      </trkpt>
      <trkpt lat="43.09251" lon="2.54925">
        <ele>172.7</ele>
        <time>2024-05-10T15:07:42Z</time>
      </trkpt>
      <trkpt lat="43.09251" lon="2.54907">
        <ele>173</ele>
        <time>2024-05-10T15:07:43Z</time>
      </trkpt>
      <trkpt lat="43.0925" lon="2.54889">
        <ele>173</ele>
        <time>2024-05-10T15:07:44Z</time>
      </trkpt>
      <trkpt lat="43.0925" lon="2.54869">
        <ele>173</ele>
        <time>2024-05-10T15:07:45Z</time>
      </trkpt>
      <trkpt lat="43.0925" lon="2.54848">
        <ele>173.5</ele>
        <time>2024-05-10T15:07:46Z</time>
      </trkpt>
      <trkpt lat="43.09251" lon="2.54825">
        <ele>174</ele>
        <time>2024-05-10T15:07:47Z</time>
      </trkpt>
      <trkpt lat="43.09251" lon="2.548">
        <ele>174.2</ele>
        <time>2024-05-10T15:07:48Z</time>
      </trkpt>
      <trkpt lat="43.09251" lon="2.54775">
        <ele>175</ele>
        <time>2024-05-10T15:07:49Z</time>
      </trkpt>
      <trkpt lat="43.09251" lon="2.54748">
        <ele>175.1</ele>
        <time>2024-05-10T15:07:50Z</time>
      </trkpt>
      <trkpt lat="43.0925" lon="2.54719">
        <ele>176</ele>
        <time>2024-05-10T15:07:51Z</time>
      </trkpt>
      <trkpt lat="43.0925" lon="2.54688">
        <ele>176</ele>
        <time>2024-05-10T15:07:52Z</time>
      </trkpt>
      <trkpt lat="43.09249" lon="2.54656">
        <ele>175.9</ele>
        <time>2024-05-10T15:07:53Z</time>
      </trkpt>
      <trkpt lat="43.09249" lon="2.54624">
        <ele>176.4</ele>
        <time>2024-05-10T15:07:54Z</time>
      </trkpt>
      <trkpt lat="43.09249" lon="2.54592">
        <ele>176.9</ele>
        <time>2024-05-10T15:07:55Z</time>
      </trkpt>
      <trkpt lat="43.09251" lon="2.54559">
        <ele>177.1</ele>
        <time>2024-05-10T15:07:56Z</time>
      </trkpt>
      <trkpt lat="43.09253" lon="2.54525">
        <ele>176.2</ele>
        <time>2024-05-10T15:07:57Z</time>
      </trkpt>
      <trkpt lat="43.09257" lon="2.54492">
        <ele>176.3</ele>
        <time>2024-05-10T15:07:58Z</time>
      </trkpt>
      <trkpt lat="43.09261" lon="2.54459">
        <ele>176.1</ele>
        <time>2024-05-10T15:07:59Z</time>
      </trkpt>
      <trkpt lat="43.09265" lon="2.54426">
        <ele>175.7</ele>
        <time>2024-05-10T15:08:00Z</time>
      </trkpt>
      <trkpt lat="43.09269" lon="2.54394">
        <ele>176.5</ele>
        <time>2024-05-10T15:08:01Z</time>
      </trkpt>
      <trkpt lat="43.09273" lon="2.54362">
        <ele>176.8</ele>
        <time>2024-05-10T15:08:02Z</time>
      </trkpt>
      <trkpt lat="43.09278" lon="2.54331">
        <ele>177.1</ele>
        <time>2024-05-10T15:08:03Z</time>
      </trkpt>
      <trkpt lat="43.09282" lon="2.543">
        <ele>178</ele>
        <time>2024-05-10T15:08:04Z</time>
      </trkpt>
      <trkpt lat="43.09286" lon="2.54268">
        <ele>177.8</ele>
        <time>2024-05-10T15:08:05Z</time>
      </trkpt>
      <trkpt lat="43.09291" lon="2.54237">
        <ele>177.5</ele>
        <time>2024-05-10T15:08:06Z</time>
      </trkpt>
      <trkpt lat="43.09295" lon="2.54206">
        <ele>177.6</ele>
        <time>2024-05-10T15:08:07Z</time>
      </trkpt>
      <trkpt lat="43.09299" lon="2.54174">
        <ele>177.8</ele>
        <time>2024-05-10T15:08:08Z</time>
      </trkpt>
      <trkpt lat="43.09304" lon="2.54142">
        <ele>177.9</ele>
        <time>2024-05-10T15:08:09Z</time>
      </trkpt>
      <trkpt lat="43.09308" lon="2.54111">
        <ele>178.1</ele>
        <time>2024-05-10T15:08:10Z</time>
      </trkpt>
      <trkpt lat="43.09313" lon="2.5408">
        <ele>178.3</ele>
        <time>2024-05-10T15:08:11Z</time>
      </trkpt>
      <trkpt lat="43.09317" lon="2.54049">
        <ele>178.3</ele>
        <time>2024-05-10T15:08:12Z</time>
      </trkpt>
      <trkpt lat="43.09321" lon="2.54017">
        <ele>178.1</ele>
        <time>2024-05-10T15:08:13Z</time>
      </trkpt>
      <trkpt lat="43.09326" lon="2.53986">
        <ele>178.5</ele>
        <time>2024-05-10T15:08:14Z</time>
      </trkpt>
      <trkpt lat="43.0933" lon="2.53956">
        <ele>178.8</ele>
        <time>2024-05-10T15:08:15Z</time>
      </trkpt>
      <trkpt lat="43.09335" lon="2.53926">
        <ele>179.1</ele>
        <time>2024-05-10T15:08:16Z</time>
      </trkpt>
      <trkpt lat="43.09341" lon="2.53897">
        <ele>179.6</ele>
        <time>2024-05-10T15:08:17Z</time>
      </trkpt>
      <trkpt lat="43.09349" lon="2.53868">
        <ele>179</ele>
        <time>2024-05-10T15:08:18Z</time>
      </trkpt>
      <trkpt lat="43.09359" lon="2.5384">
        <ele>178.9</ele>
        <time>2024-05-10T15:08:19Z</time>
      </trkpt>
      <trkpt lat="43.09371" lon="2.53813">
        <ele>179.1</ele>
        <time>2024-05-10T15:08:20Z</time>
      </trkpt>
      <trkpt lat="43.09385" lon="2.53787">
        <ele>179.1</ele>
        <time>2024-05-10T15:08:21Z</time>
      </trkpt>
      <trkpt lat="43.09401" lon="2.53764">
        <ele>179.8</ele>
        <time>2024-05-10T15:08:22Z</time>
      </trkpt>
      <trkpt lat="43.09419" lon="2.53743">
        <ele>180</ele>
        <time>2024-05-10T15:08:23Z</time>
      </trkpt>
      <trkpt lat="43.09438" lon="2.53723">
        <ele>179.9</ele>
        <time>2024-05-10T15:08:24Z</time>
      </trkpt>
      <trkpt lat="43.09459" lon="2.53705">
        <ele>180.3</ele>
        <time>2024-05-10T15:08:25Z</time>
      </trkpt>
      <trkpt lat="43.09482" lon="2.53686">
        <ele>180.3</ele>
        <time>2024-05-10T15:08:26Z</time>
      </trkpt>
      <trkpt lat="43.09505" lon="2.53666">
        <ele>180.1</ele>
        <time>2024-05-10T15:08:27Z</time>
      </trkpt>
      <trkpt lat="43.0953" lon="2.53645">
        <ele>179.5</ele>
        <time>2024-05-10T15:08:28Z</time>
      </trkpt>
      <trkpt lat="43.09555" lon="2.53623">
        <ele>179.4</ele>
        <time>2024-05-10T15:08:29Z</time>
      </trkpt>
      <trkpt lat="43.09581" lon="2.53602">
        <ele>179.6</ele>
        <time>2024-05-10T15:08:30Z</time>
      </trkpt>
      <trkpt lat="43.09608" lon="2.53579">
        <ele>179</ele>
        <time>2024-05-10T15:08:31Z</time>
      </trkpt>
      <trkpt lat="43.09635" lon="2.53556">
        <ele>179.9</ele>
        <time>2024-05-10T15:08:32Z</time>
      </trkpt>
      <trkpt lat="43.09662" lon="2.53531">
        <ele>179.9</ele>
        <time>2024-05-10T15:08:33Z</time>
      </trkpt>
      <trkpt lat="43.0969" lon="2.53507">
        <ele>180</ele>
        <time>2024-05-10T15:08:34Z</time>
      </trkpt>
      <trkpt lat="43.09718" lon="2.53483">
        <ele>180</ele>
        <time>2024-05-10T15:08:35Z</time>
      </trkpt>
      <trkpt lat="43.09745" lon="2.5346">
        <ele>180</ele>
        <time>2024-05-10T15:08:36Z</time>
      </trkpt>
      <trkpt lat="43.09772" lon="2.53438">
        <ele>180.8</ele>
        <time>2024-05-10T15:08:37Z</time>
      </trkpt>
      <trkpt lat="43.09798" lon="2.53417">
        <ele>181</ele>
        <time>2024-05-10T15:08:38Z</time>
      </trkpt>
      <trkpt lat="43.09823" lon="2.53397">
        <ele>181</ele>
        <time>2024-05-10T15:08:39Z</time>
      </trkpt>
      <trkpt lat="43.09847" lon="2.53378">
        <ele>181.5</ele>
        <time>2024-05-10T15:08:40Z</time>
      </trkpt>
      <trkpt lat="43.0987" lon="2.53359">
        <ele>182.3</ele>
        <time>2024-05-10T15:08:41Z</time>
      </trkpt>
      <trkpt lat="43.09892" lon="2.5334">
        <ele>183.1</ele>
        <time>2024-05-10T15:08:42Z</time>
      </trkpt>
      <trkpt lat="43.09913" lon="2.53322">
        <ele>183.5</ele>
        <time>2024-05-10T15:08:43Z</time>
      </trkpt>
      <trkpt lat="43.09933" lon="2.53305">
        <ele>183.6</ele>
        <time>2024-05-10T15:08:44Z</time>
      </trkpt>
      <trkpt lat="43.09953" lon="2.53288">
        <ele>184.3</ele>
        <time>2024-05-10T15:08:45Z</time>
      </trkpt>
      <trkpt lat="43.09972" lon="2.53272">
        <ele>184.8</ele>
        <time>2024-05-10T15:08:46Z</time>
      </trkpt>
      <trkpt lat="43.0999" lon="2.53256">
        <ele>184.7</ele>
        <time>2024-05-10T15:08:47Z</time>
      </trkpt>
      <trkpt lat="43.10009" lon="2.53241">
        <ele>185.3</ele>
        <time>2024-05-10T15:08:48Z</time>
      </trkpt>
      <trkpt lat="43.10028" lon="2.53225">
        <ele>186</ele>
        <time>2024-05-10T15:08:49Z</time>
      </trkpt>
      <trkpt lat="43.10047" lon="2.53209">
        <ele>186.3</ele>
        <time>2024-05-10T15:08:50Z</time>
      </trkpt>
      <trkpt lat="43.10066" lon="2.53193">
        <ele>187.4</ele>
        <time>2024-05-10T15:08:51Z</time>
      </trkpt>
      <trkpt lat="43.10085" lon="2.53177">
        <ele>188</ele>
        <time>2024-05-10T15:08:52Z</time>
      </trkpt>
      <trkpt lat="43.10104" lon="2.53161">
        <ele>188</ele>
        <time>2024-05-10T15:08:53Z</time>
      </trkpt>
      <trkpt lat="43.10123" lon="2.53144">
        <ele>188.4</ele>
        <time>2024-05-10T15:08:54Z</time>
      </trkpt>
      <trkpt lat="43.10142" lon="2.53128">
        <ele>188.7</ele>
        <time>2024-05-10T15:08:55Z</time>
      </trkpt>
      <trkpt lat="43.10162" lon="2.53111">
        <ele>188.8</ele>
        <time>2024-05-10T15:08:56Z</time>
      </trkpt>
      <trkpt lat="43.10181" lon="2.53094">
        <ele>188.9</ele>
        <time>2024-05-10T15:08:57Z</time>
      </trkpt>
      <trkpt lat="43.102" lon="2.53078">
        <ele>189</ele>
        <time>2024-05-10T15:08:58Z</time>
      </trkpt>
      <trkpt lat="43.1022" lon="2.53062">
        <ele>189.9</ele>
        <time>2024-05-10T15:08:59Z</time>
      </trkpt>
      <trkpt lat="43.1024" lon="2.53045">
        <ele>190.3</ele>
        <time>2024-05-10T15:09:00Z</time>
      </trkpt>
      <trkpt lat="43.10259" lon="2.53029">
        <ele>190.7</ele>
        <time>2024-05-10T15:09:01Z</time>
      </trkpt>
      <trkpt lat="43.10278" lon="2.53013">
        <ele>191.5</ele>
        <time>2024-05-10T15:09:02Z</time>
      </trkpt>
      <trkpt lat="43.10298" lon="2.52996">
        <ele>191.7</ele>
        <time>2024-05-10T15:09:03Z</time>
      </trkpt>
      <trkpt lat="43.10318" lon="2.52979">
        <ele>192</ele>
        <time>2024-05-10T15:09:04Z</time>
      </trkpt>
      <trkpt lat="43.10338" lon="2.52962">
        <ele>192.2</ele>
        <time>2024-05-10T15:09:05Z</time>
      </trkpt>
      <trkpt lat="43.10359" lon="2.52944">
        <ele>192.9</ele>
        <time>2024-05-10T15:09:06Z</time>
      </trkpt>
      <trkpt lat="43.1038" lon="2.52927">
        <ele>192.8</ele>
        <time>2024-05-10T15:09:07Z</time>
      </trkpt>
      <trkpt lat="43.10401" lon="2.52909">
        <ele>192.7</ele>
        <time>2024-05-10T15:09:08Z</time>
      </trkpt>
      <trkpt lat="43.10423" lon="2.52891">
        <ele>193.2</ele>
        <time>2024-05-10T15:09:09Z</time>
      </trkpt>
      <trkpt lat="43.10445" lon="2.52872">
        <ele>193.4</ele>
        <time>2024-05-10T15:09:10Z</time>
      </trkpt>
      <trkpt lat="43.10467" lon="2.52854">
        <ele>194.4</ele>
        <time>2024-05-10T15:09:11Z</time>
      </trkpt>
      <trkpt lat="43.1049" lon="2.52835">
        <ele>195.3</ele>
        <time>2024-05-10T15:09:12Z</time>
      </trkpt>
      <trkpt lat="43.10512" lon="2.52816">
        <ele>195.8</ele>
        <time>2024-05-10T15:09:13Z</time>
      </trkpt>
      <trkpt lat="43.10534" lon="2.52797">
        <ele>196.4</ele>
        <time>2024-05-10T15:09:14Z</time>
      </trkpt>
      <trkpt lat="43.10557" lon="2.52779">
        <ele>197.4</ele>
        <time>2024-05-10T15:09:15Z</time>
      </trkpt>
      <trkpt lat="43.1058" lon="2.52762">
        <ele>199.3</ele>
        <time>2024-05-10T15:09:16Z</time>
      </trkpt>
      <trkpt lat="43.10602" lon="2.52746">
        <ele>198.3</ele>
        <time>2024-05-10T15:09:17Z</time>
      </trkpt>
      <trkpt lat="43.10623" lon="2.52731">
        <ele>199.1</ele>
        <time>2024-05-10T15:09:18Z</time>
      </trkpt>
      <trkpt lat="43.10644" lon="2.52717">
        <ele>199</ele>
        <time>2024-05-10T15:09:19Z</time>
      </trkpt>
      <trkpt lat="43.10664" lon="2.52703">
        <ele>199.2</ele>
        <time>2024-05-10T15:09:20Z</time>
      </trkpt>
      <trkpt lat="43.10683" lon="2.52688">
        <ele>199</ele>
        <time>2024-05-10T15:09:21Z</time>
      </trkpt>
      <trkpt lat="43.10701" lon="2.52673">
        <ele>199.8</ele>
        <time>2024-05-10T15:09:22Z</time>
      </trkpt>
      <trkpt lat="43.10718" lon="2.52659">
        <ele>200.2</ele>
        <time>2024-05-10T15:09:23Z</time>
      </trkpt>
      <trkpt lat="43.10734" lon="2.52645">
        <ele>200.9</ele>
        <time>2024-05-10T15:09:24Z</time>
      </trkpt>
      <trkpt lat="43.10751" lon="2.52634">
        <ele>201.2</ele>
        <time>2024-05-10T15:09:25Z</time>
      </trkpt>
      <trkpt lat="43.10769" lon="2.52625">
        <ele>201.8</ele>
        <time>2024-05-10T15:09:26Z</time>
      </trkpt>
      <trkpt lat="43.10787" lon="2.52622">
        <ele>202.2</ele>
        <time>2024-05-10T15:09:27Z</time>
      </trkpt>
      <trkpt lat="43.10806" lon="2.52623">
        <ele>202.6</ele>
        <time>2024-05-10T15:09:28Z</time>
      </trkpt>
      <trkpt lat="43.10825" lon="2.52626">
        <ele>202.8</ele>
        <time>2024-05-10T15:09:29Z</time>
      </trkpt>
      <trkpt lat="43.10845" lon="2.52631">
        <ele>203</ele>
        <time>2024-05-10T15:09:30Z</time>
      </trkpt>
      <trkpt lat="43.10867" lon="2.52636">
        <ele>203.2</ele>
        <time>2024-05-10T15:09:31Z</time>
      </trkpt>
      <trkpt lat="43.1089" lon="2.52641">
        <ele>203.9</ele>
        <time>2024-05-10T15:09:32Z</time>
      </trkpt>
      <trkpt lat="43.10913" lon="2.52647">
        <ele>204</ele>
        <time>2024-05-10T15:09:33Z</time>
      </trkpt>
      <trkpt lat="43.10938" lon="2.52652">
        <ele>204</ele>
        <time>2024-05-10T15:09:34Z</time>
      </trkpt>
      <trkpt lat="43.10962" lon="2.52658">
        <ele>204</ele>
        <time>2024-05-10T15:09:35Z</time>
      </trkpt>
      <trkpt lat="43.10986" lon="2.52664">
        <ele>204.5</ele>
        <time>2024-05-10T15:09:36Z</time>
      </trkpt>
      <trkpt lat="43.11011" lon="2.5267">
        <ele>204.9</ele>
        <time>2024-05-10T15:09:37Z</time>
      </trkpt>
      <trkpt lat="43.11035" lon="2.52676">
        <ele>205</ele>
        <time>2024-05-10T15:09:38Z</time>
      </trkpt>
      <trkpt lat="43.11061" lon="2.52683">
        <ele>205.2</ele>
        <time>2024-05-10T15:09:39Z</time>
      </trkpt>
      <trkpt lat="43.11087" lon="2.52689">
        <ele>206</ele>
        <time>2024-05-10T15:09:40Z</time>
      </trkpt>
      <trkpt lat="43.11112" lon="2.52695">
        <ele>206</ele>
        <time>2024-05-10T15:09:41Z</time>
      </trkpt>
      <trkpt lat="43.11137" lon="2.52701">
        <ele>206.9</ele>
        <time>2024-05-10T15:09:42Z</time>
      </trkpt>
      <trkpt lat="43.11161" lon="2.52707">
        <ele>207</ele>
        <time>2024-05-10T15:09:43Z</time>
      </trkpt>
      <trkpt lat="43.11183" lon="2.52713">
        <ele>207.6</ele>
        <time>2024-05-10T15:09:44Z</time>
      </trkpt>
      <trkpt lat="43.11205" lon="2.52721">
        <ele>208.4</ele>
        <time>2024-05-10T15:09:45Z</time>
      </trkpt>
      <trkpt lat="43.11224" lon="2.52734">
        <ele>208.6</ele>
        <time>2024-05-10T15:09:46Z</time>
      </trkpt>
      <trkpt lat="43.11242" lon="2.52749">
        <ele>208.7</ele>
        <time>2024-05-10T15:09:47Z</time>
      </trkpt>
      <trkpt lat="43.11253" lon="2.52773">
        <ele>209.1</ele>
        <time>2024-05-10T15:09:48Z</time>
      </trkpt>
      <trkpt lat="43.11264" lon="2.52795">
        <ele>209.2</ele>
        <time>2024-05-10T15:09:49Z</time>
      </trkpt>
      <trkpt lat="43.11275" lon="2.52815">
        <ele>210.1</ele>
        <time>2024-05-10T15:09:50Z</time>
      </trkpt>
      <trkpt lat="43.11286" lon="2.52835">
        <ele>211</ele>
        <time>2024-05-10T15:09:51Z</time>
      </trkpt>
      <trkpt lat="43.11298" lon="2.52853">
        <ele>211.3</ele>
        <time>2024-05-10T15:09:52Z</time>
      </trkpt>
      <trkpt lat="43.11312" lon="2.52868">
        <ele>212.1</ele>
        <time>2024-05-10T15:09:53Z</time>
      </trkpt>
      <trkpt lat="43.11327" lon="2.52879">
        <ele>212.5</ele>
        <time>2024-05-10T15:09:54Z</time>
      </trkpt>
      <trkpt lat="43.11344" lon="2.52886">
        <ele>213.2</ele>
        <time>2024-05-10T15:09:55Z</time>
      </trkpt>
      <trkpt lat="43.11361" lon="2.5289">
        <ele>214.1</ele>
        <time>2024-05-10T15:09:56Z</time>
      </trkpt>
      <trkpt lat="43.11379" lon="2.52894">
        <ele>215.1</ele>
        <time>2024-05-10T15:09:57Z</time>
      </trkpt>
      <trkpt lat="43.11397" lon="2.52898">
        <ele>216</ele>
        <time>2024-05-10T15:09:58Z</time>
      </trkpt>
      <trkpt lat="43.11414" lon="2.52904">
        <ele>216.6</ele>
        <time>2024-05-10T15:09:59Z</time>
      </trkpt>
      <trkpt lat="43.11431" lon="2.52913">
        <ele>217.7</ele>
        <time>2024-05-10T15:10:00Z</time>
      </trkpt>
      <trkpt lat="43.11446" lon="2.52926">
        <ele>218.7</ele>
        <time>2024-05-10T15:10:01Z</time>
      </trkpt>
      <trkpt lat="43.11461" lon="2.52942">
        <ele>219.8</ele>
        <time>2024-05-10T15:10:02Z</time>
      </trkpt>
      <trkpt lat="43.11475" lon="2.52959">
        <ele>220.5</ele>
        <time>2024-05-10T15:10:03Z</time>
      </trkpt>
      <trkpt lat="43.1149" lon="2.52977">
        <ele>221.2</ele>
        <time>2024-05-10T15:10:04Z</time>
      </trkpt>
      <trkpt lat="43.11505" lon="2.52995">
        <ele>221.9</ele>
        <time>2024-05-10T15:10:05Z</time>
      </trkpt>
      <trkpt lat="43.1152" lon="2.53012">
        <ele>222.4</ele>
        <time>2024-05-10T15:10:06Z</time>
      </trkpt>
      <trkpt lat="43.11536" lon="2.5303">
        <ele>222.8</ele>
        <time>2024-05-10T15:10:07Z</time>
      </trkpt>
      <trkpt lat="43.11551" lon="2.53048">
        <ele>222.9</ele>
        <time>2024-05-10T15:10:08Z</time>
      </trkpt>
      <trkpt lat="43.11566" lon="2.53066">
        <ele>222.6</ele>
        <time>2024-05-10T15:10:09Z</time>
      </trkpt>
      <trkpt lat="43.1158" lon="2.53084">
        <ele>222.1</ele>
        <time>2024-05-10T15:10:10Z</time>
      </trkpt>
      <trkpt lat="43.11593" lon="2.53103">
        <ele>221.6</ele>
        <time>2024-05-10T15:10:11Z</time>
      </trkpt>
      <trkpt lat="43.11605" lon="2.53125">
        <ele>221.2</ele>
        <time>2024-05-10T15:10:12Z</time>
      </trkpt>
      <trkpt lat="43.11616" lon="2.53148">
        <ele>220.6</ele>
        <time>2024-05-10T15:10:13Z</time>
      </trkpt>
      <trkpt lat="43.11626" lon="2.53173">
        <ele>220.1</ele>
        <time>2024-05-10T15:10:14Z</time>
      </trkpt>
      <trkpt lat="43.11636" lon="2.532">
        <ele>220.1</ele>
        <time>2024-05-10T15:10:15Z</time>
      </trkpt>
      <trkpt lat="43.11646" lon="2.53227">
        <ele>219.5</ele>
        <time>2024-05-10T15:10:16Z</time>
      </trkpt>
      <trkpt lat="43.11656" lon="2.53255">
        <ele>219.4</ele>
        <time>2024-05-10T15:10:17Z</time>
      </trkpt>
      <trkpt lat="43.11666" lon="2.53282">
        <ele>219</ele>
        <time>2024-05-10T15:10:18Z</time>
      </trkpt>
      <trkpt lat="43.11676" lon="2.53307">
        <ele>218.3</ele>
        <time>2024-05-10T15:10:19Z</time>
      </trkpt>
      <trkpt lat="43.11688" lon="2.53332">
        <ele>217.5</ele>
        <time>2024-05-10T15:10:20Z</time>
      </trkpt>
      <trkpt lat="43.11701" lon="2.53354">
        <ele>216.8</ele>
        <time>2024-05-10T15:10:21Z</time>
      </trkpt>
      <trkpt lat="43.11716" lon="2.53375">
        <ele>216.3</ele>
        <time>2024-05-10T15:10:22Z</time>
      </trkpt>
      <trkpt lat="43.11733" lon="2.53393">
        <ele>215.7</ele>
        <time>2024-05-10T15:10:23Z</time>
      </trkpt>
      <trkpt lat="43.11753" lon="2.53408">
        <ele>215</ele>
        <time>2024-05-10T15:10:24Z</time>
      </trkpt>
      <trkpt lat="43.11774" lon="2.5342">
        <ele>214.9</ele>
        <time>2024-05-10T15:10:25Z</time>
      </trkpt>
      <trkpt lat="43.11795" lon="2.5343">
        <ele>214.2</ele>
        <time>2024-05-10T15:10:26Z</time>
      </trkpt>
      <trkpt lat="43.11817" lon="2.5344">
        <ele>213.9</ele>
        <time>2024-05-10T15:10:27Z</time>
      </trkpt>
      <trkpt lat="43.1184" lon="2.53451">
        <ele>213.6</ele>
        <time>2024-05-10T15:10:28Z</time>
      </trkpt>
      <trkpt lat="43.11863" lon="2.53461">
        <ele>213</ele>
        <time>2024-05-10T15:10:29Z</time>
      </trkpt>
      <trkpt lat="43.11886" lon="2.53472">
        <ele>213</ele>
        <time>2024-05-10T15:10:30Z</time>
      </trkpt>
      <trkpt lat="43.11909" lon="2.53482">
        <ele>212.6</ele>
        <time>2024-05-10T15:10:31Z</time>
      </trkpt>
      <trkpt lat="43.11932" lon="2.53493">
        <ele>212.7</ele>
        <time>2024-05-10T15:10:32Z</time>
      </trkpt>
      <trkpt lat="43.11956" lon="2.53505">
        <ele>212.3</ele>
        <time>2024-05-10T15:10:33Z</time>
      </trkpt>
      <trkpt lat="43.11979" lon="2.53516">
        <ele>211.6</ele>
        <time>2024-05-10T15:10:34Z</time>
      </trkpt>
      <trkpt lat="43.12002" lon="2.53527">
        <ele>212</ele>
        <time>2024-05-10T15:10:35Z</time>
      </trkpt>
      <trkpt lat="43.12025" lon="2.53538">
        <ele>211.6</ele>
        <time>2024-05-10T15:10:36Z</time>
      </trkpt>
      <trkpt lat="43.12048" lon="2.53549">
        <ele>211.8</ele>
        <time>2024-05-10T15:10:37Z</time>
      </trkpt>
      <trkpt lat="43.12072" lon="2.5356">
        <ele>211.8</ele>
        <time>2024-05-10T15:10:38Z</time>
      </trkpt>
      <trkpt lat="43.12095" lon="2.53571">
        <ele>211.7</ele>
        <time>2024-05-10T15:10:39Z</time>
      </trkpt>
      <trkpt lat="43.12119" lon="2.53583">
        <ele>212</ele>
        <time>2024-05-10T15:10:40Z</time>
      </trkpt>
      <trkpt lat="43.12142" lon="2.53595">
        <ele>211.6</ele>
        <time>2024-05-10T15:10:41Z</time>
      </trkpt>
      <trkpt lat="43.12166" lon="2.53606">
        <ele>212</ele>
        <time>2024-05-10T15:10:42Z</time>
      </trkpt>
      <trkpt lat="43.12189" lon="2.53617">
        <ele>211.7</ele>
        <time>2024-05-10T15:10:43Z</time>
      </trkpt>
      <trkpt lat="43.12212" lon="2.53629">
        <ele>211.8</ele>
        <time>2024-05-10T15:10:44Z</time>
      </trkpt>
      <trkpt lat="43.12234" lon="2.53639">
        <ele>212</ele>
        <time>2024-05-10T15:10:45Z</time>
      </trkpt>
      <trkpt lat="43.12256" lon="2.5365">
        <ele>211.7</ele>
        <time>2024-05-10T15:10:46Z</time>
      </trkpt>
      <trkpt lat="43.12279" lon="2.53661">
        <ele>212</ele>
        <time>2024-05-10T15:10:47Z</time>
      </trkpt>
      <trkpt lat="43.12301" lon="2.53671">
        <ele>211.8</ele>
        <time>2024-05-10T15:10:48Z</time>
      </trkpt>
      <trkpt lat="43.12323" lon="2.53682">
        <ele>211.8</ele>
        <time>2024-05-10T15:10:49Z</time>
      </trkpt>
      <trkpt lat="43.12345" lon="2.53693">
        <ele>212.4</ele>
        <time>2024-05-10T15:10:50Z</time>
      </trkpt>
      <trkpt lat="43.12365" lon="2.53703">
        <ele>212.6</ele>
        <time>2024-05-10T15:10:51Z</time>
      </trkpt>
      <trkpt lat="43.12386" lon="2.53713">
        <ele>213.2</ele>
        <time>2024-05-10T15:10:52Z</time>
      </trkpt>
      <trkpt lat="43.12405" lon="2.53723">
        <ele>213.5</ele>
        <time>2024-05-10T15:10:53Z</time>
      </trkpt>
      <trkpt lat="43.12423" lon="2.53732">
        <ele>213.6</ele>
        <time>2024-05-10T15:10:54Z</time>
      </trkpt>
      <trkpt lat="43.1244" lon="2.5374">
        <ele>214.1</ele>
        <time>2024-05-10T15:10:55Z</time>
      </trkpt>
      <trkpt lat="43.12455" lon="2.53747">
        <ele>214.2</ele>
        <time>2024-05-10T15:10:56Z</time>
      </trkpt>
      <trkpt lat="43.12466" lon="2.53753">
        <ele>213.8</ele>
        <time>2024-05-10T15:10:57Z</time>
      </trkpt>
      <trkpt lat="43.12477" lon="2.53757">
        <ele>213.7</ele>
        <time>2024-05-10T15:10:58Z</time>
      </trkpt>
      <trkpt lat="43.12487" lon="2.53757">
        <ele>214.2</ele>
        <time>2024-05-10T15:10:59Z</time>
      </trkpt>
      <trkpt lat="43.12497" lon="2.53754">
        <ele>214.7</ele>
        <time>2024-05-10T15:11:00Z</time>
      </trkpt>
      <trkpt lat="43.12505" lon="2.53747">
        <ele>214.5</ele>
        <time>2024-05-10T15:11:01Z</time>
      </trkpt>
      <trkpt lat="43.12512" lon="2.53736">
        <ele>213.9</ele>
        <time>2024-05-10T15:11:02Z</time>
      </trkpt>
      <trkpt lat="43.12516" lon="2.53723">
        <ele>213.8</ele>
        <time>2024-05-10T15:11:03Z</time>
      </trkpt>
      <trkpt lat="43.12519" lon="2.53705">
        <ele>214.6</ele>
        <time>2024-05-10T15:11:04Z</time>
      </trkpt>
      <trkpt lat="43.1252" lon="2.53685">
        <ele>215.4</ele>
        <time>2024-05-10T15:11:05Z</time>
      </trkpt>
      <trkpt lat="43.12522" lon="2.53663">
        <ele>215.6</ele>
        <time>2024-05-10T15:11:06Z</time>
      </trkpt>
      <trkpt lat="43.12524" lon="2.53639">
        <ele>215.9</ele>
        <time>2024-05-10T15:11:07Z</time>
      </trkpt>
      <trkpt lat="43.12526" lon="2.53615">
        <ele>216.3</ele>
        <time>2024-05-10T15:11:08Z</time>
      </trkpt>
      <trkpt lat="43.12527" lon="2.53591">
        <ele>216.2</ele>
        <time>2024-05-10T15:11:09Z</time>
      </trkpt>
      <trkpt lat="43.12529" lon="2.53565">
        <ele>215.9</ele>
        <time>2024-05-10T15:11:10Z</time>
      </trkpt>
      <trkpt lat="43.1253" lon="2.53538">
        <ele>216.4</ele>
        <time>2024-05-10T15:11:11Z</time>
      </trkpt>
      <trkpt lat="43.12532" lon="2.53509">
        <ele>216.6</ele>
        <time>2024-05-10T15:11:12Z</time>
      </trkpt>
      <trkpt lat="43.12534" lon="2.5348">
        <ele>217.1</ele>
        <time>2024-05-10T15:11:13Z</time>
      </trkpt>
      <trkpt lat="43.12536" lon="2.53452">
        <ele>217.3</ele>
        <time>2024-05-10T15:11:14Z</time>
      </trkpt>
      <trkpt lat="43.12539" lon="2.53424">
        <ele>217.9</ele>
        <time>2024-05-10T15:11:15Z</time>
      </trkpt>
      <trkpt lat="43.12545" lon="2.53399">
        <ele>218.2</ele>
        <time>2024-05-10T15:11:16Z</time>
      </trkpt>
      <trkpt lat="43.12555" lon="2.53372">
        <ele>218.6</ele>
        <time>2024-05-10T15:11:17Z</time>
      </trkpt>
      <trkpt lat="43.12567" lon="2.53345">
        <ele>218.4</ele>
        <time>2024-05-10T15:11:18Z</time>
      </trkpt>
      <trkpt lat="43.1258" lon="2.53316">
        <ele>219.3</ele>
        <time>2024-05-10T15:11:19Z</time>
      </trkpt>
      <trkpt lat="43.12594" lon="2.53287">
        <ele>219.5</ele>
        <time>2024-05-10T15:11:20Z</time>
      </trkpt>
      <trkpt lat="43.12606" lon="2.53259">
        <ele>219.9</ele>
        <time>2024-05-10T15:11:21Z</time>
      </trkpt>
      <trkpt lat="43.12618" lon="2.53233">
        <ele>220.4</ele>
        <time>2024-05-10T15:11:22Z</time>
      </trkpt>
      <trkpt lat="43.1263" lon="2.53207">
        <ele>220.7</ele>
        <time>2024-05-10T15:11:23Z</time>
      </trkpt>
      <trkpt lat="43.12641" lon="2.53183">
        <ele>221.3</ele>
        <time>2024-05-10T15:11:24Z</time>
      </trkpt>
      <trkpt lat="43.1265" lon="2.5316">
        <ele>221.8</ele>
        <time>2024-05-10T15:11:25Z</time>
      </trkpt>
      <trkpt lat="43.12658" lon="2.53138">
        <ele>222.3</ele>
        <time>2024-05-10T15:11:26Z</time>
      </trkpt>
      <trkpt lat="43.12665" lon="2.53117">
        <ele>222.8</ele>
        <time>2024-05-10T15:11:27Z</time>
      </trkpt>
      <trkpt lat="43.12673" lon="2.531">
        <ele>223.3</ele>
        <time>2024-05-10T15:11:28Z</time>
      </trkpt>
      <trkpt lat="43.12684" lon="2.53088">
        <ele>223.4</ele>
        <time>2024-05-10T15:11:29Z</time>
      </trkpt>
      <trkpt lat="43.12697" lon="2.53083">
        <ele>223</ele>
        <time>2024-05-10T15:11:30Z</time>
      </trkpt>
      <trkpt lat="43.12711" lon="2.53083">
        <ele>223</ele>
        <time>2024-05-10T15:11:31Z</time>
      </trkpt>
      <trkpt lat="43.12726" lon="2.5309">
        <ele>222.5</ele>
        <time>2024-05-10T15:11:32Z</time>
      </trkpt>
      <trkpt lat="43.12742" lon="2.531">
        <ele>222.8</ele>
        <time>2024-05-10T15:11:33Z</time>
      </trkpt>
      <trkpt lat="43.12759" lon="2.53112">
        <ele>224</ele>
        <time>2024-05-10T15:11:34Z</time>
      </trkpt>
      <trkpt lat="43.12777" lon="2.53124">
        <ele>224.4</ele>
        <time>2024-05-10T15:11:35Z</time>
      </trkpt>
      <trkpt lat="43.12795" lon="2.53135">
        <ele>226</ele>
        <time>2024-05-10T15:11:36Z</time>
      </trkpt>
      <trkpt lat="43.12813" lon="2.53148">
        <ele>227.9</ele>
        <time>2024-05-10T15:11:37Z</time>
      </trkpt>
      <trkpt lat="43.12832" lon="2.53161">
        <ele>229.5</ele>
        <time>2024-05-10T15:11:38Z</time>
      </trkpt>
      <trkpt lat="43.12852" lon="2.53174">
        <ele>231.5</ele>
        <time>2024-05-10T15:11:39Z</time>
      </trkpt>
      <trkpt lat="43.12872" lon="2.53187">
        <ele>232.9</ele>
        <time>2024-05-10T15:11:40Z</time>
      </trkpt>
      <trkpt lat="43.1289" lon="2.532">
        <ele>234.5</ele>
        <time>2024-05-10T15:11:41Z</time>
      </trkpt>
      <trkpt lat="43.12908" lon="2.53211">
        <ele>236.7</ele>
        <time>2024-05-10T15:11:42Z</time>
      </trkpt>
      <trkpt lat="43.12923" lon="2.53221">
        <ele>239.3</ele>
        <time>2024-05-10T15:11:43Z</time>
      </trkpt>
      <trkpt lat="43.12935" lon="2.53229">
        <ele>240.7</ele>
        <time>2024-05-10T15:11:44Z</time>
      </trkpt>
      <trkpt lat="43.12946" lon="2.53235">
        <ele>241.6</ele>
        <time>2024-05-10T15:11:45Z</time>
      </trkpt>
      <trkpt lat="43.12957" lon="2.53237">
        <ele>242.4</ele>
        <time>2024-05-10T15:11:46Z</time>
      </trkpt>
      <trkpt lat="43.12968" lon="2.53236">
        <ele>243.2</ele>
        <time>2024-05-10T15:11:47Z</time>
      </trkpt>
      <trkpt lat="43.1298" lon="2.5323">
        <ele>243.8</ele>
        <time>2024-05-10T15:11:48Z</time>
      </trkpt>
      <trkpt lat="43.12992" lon="2.53221">
        <ele>244.4</ele>
        <time>2024-05-10T15:11:49Z</time>
      </trkpt>
      <trkpt lat="43.13004" lon="2.53209">
        <ele>245.3</ele>
        <time>2024-05-10T15:11:50Z</time>
      </trkpt>
      <trkpt lat="43.13017" lon="2.53196">
        <ele>246.2</ele>
        <time>2024-05-10T15:11:51Z</time>
      </trkpt>
      <trkpt lat="43.13031" lon="2.53182">
        <ele>246.7</ele>
        <time>2024-05-10T15:11:52Z</time>
      </trkpt>
      <trkpt lat="43.13044" lon="2.53168">
        <ele>247.2</ele>
        <time>2024-05-10T15:11:53Z</time>
      </trkpt>
      <trkpt lat="43.13055" lon="2.53151">
        <ele>246.8</ele>
        <time>2024-05-10T15:11:54Z</time>
      </trkpt>
      <trkpt lat="43.13065" lon="2.53132">
        <ele>245.9</ele>
        <time>2024-05-10T15:11:55Z</time>
      </trkpt>
      <trkpt lat="43.13073" lon="2.5311">
        <ele>245.3</ele>
        <time>2024-05-10T15:11:56Z</time>
      </trkpt>
      <trkpt lat="43.13082" lon="2.53087">
        <ele>245.9</ele>
        <time>2024-05-10T15:11:57Z</time>
      </trkpt>
      <trkpt lat="43.1309" lon="2.53065">
        <ele>246.2</ele>
        <time>2024-05-10T15:11:58Z</time>
      </trkpt>
      <trkpt lat="43.13098" lon="2.53043">
        <ele>247.2</ele>
        <time>2024-05-10T15:11:59Z</time>
      </trkpt>
      <trkpt lat="43.13106" lon="2.53023">
        <ele>248.1</ele>
        <time>2024-05-10T15:12:00Z</time>
      </trkpt>
      <trkpt lat="43.13114" lon="2.53003">
        <ele>248.4</ele>
        <time>2024-05-10T15:12:01Z</time>
      </trkpt>
      <trkpt lat="43.13121" lon="2.52984">
        <ele>250.5</ele>
        <time>2024-05-10T15:12:02Z</time>
      </trkpt>
      <trkpt lat="43.13127" lon="2.52966">
        <ele>251.1</ele>
        <time>2024-05-10T15:12:03Z</time>
      </trkpt>
      <trkpt lat="43.13134" lon="2.52948">
        <ele>248.9</ele>
        <time>2024-05-10T15:12:04Z</time>
      </trkpt>
      <trkpt lat="43.1314" lon="2.52931">
        <ele>246.6</ele>
        <time>2024-05-10T15:12:05Z</time>
      </trkpt>
      <trkpt lat="43.13146" lon="2.52914">
        <ele>245.5</ele>
        <time>2024-05-10T15:12:06Z</time>
      </trkpt>
      <trkpt lat="43.13152" lon="2.52896">
        <ele>245.3</ele>
        <time>2024-05-10T15:12:07Z</time>
      </trkpt>
      <trkpt lat="43.13159" lon="2.52877">
        <ele>243.7</ele>
        <time>2024-05-10T15:12:08Z</time>
      </trkpt>
      <trkpt lat="43.13166" lon="2.52858">
        <ele>241</ele>
        <time>2024-05-10T15:12:09Z</time>
      </trkpt>
      <trkpt lat="43.13174" lon="2.5284">
        <ele>240</ele>
        <time>2024-05-10T15:12:10Z</time>
      </trkpt>
      <trkpt lat="43.13183" lon="2.52823">
        <ele>239.2</ele>
        <time>2024-05-10T15:12:11Z</time>
      </trkpt>
      <trkpt lat="43.13194" lon="2.52808">
        <ele>238.1</ele>
        <time>2024-05-10T15:12:12Z</time>
      </trkpt>
      <trkpt lat="43.13207" lon="2.52794">
        <ele>237.1</ele>
        <time>2024-05-10T15:12:13Z</time>
      </trkpt>
      <trkpt lat="43.13222" lon="2.52782">
        <ele>236</ele>
        <time>2024-05-10T15:12:14Z</time>
      </trkpt>
      <trkpt lat="43.1324" lon="2.52771">
        <ele>234</ele>
        <time>2024-05-10T15:12:15Z</time>
      </trkpt>
      <trkpt lat="43.13258" lon="2.5276">
        <ele>232.4</ele>
        <time>2024-05-10T15:12:16Z</time>
      </trkpt>
      <trkpt lat="43.13276" lon="2.52746">
        <ele>231.1</ele>
        <time>2024-05-10T15:12:17Z</time>
      </trkpt>
      <trkpt lat="43.13293" lon="2.5273">
        <ele>230.5</ele>
        <time>2024-05-10T15:12:18Z</time>
      </trkpt>
      <trkpt lat="43.1331" lon="2.5271">
        <ele>229.2</ele>
        <time>2024-05-10T15:12:19Z</time>
      </trkpt>
      <trkpt lat="43.13327" lon="2.52689">
        <ele>227.6</ele>
        <time>2024-05-10T15:12:20Z</time>
      </trkpt>
      <trkpt lat="43.13345" lon="2.52668">
        <ele>227.1</ele>
        <time>2024-05-10T15:12:21Z</time>
      </trkpt>
      <trkpt lat="43.13364" lon="2.52646">
        <ele>225.9</ele>
        <time>2024-05-10T15:12:22Z</time>
      </trkpt>
      <trkpt lat="43.13383" lon="2.52624">
        <ele>225.3</ele>
        <time>2024-05-10T15:12:23Z</time>
      </trkpt>
      <trkpt lat="43.13401" lon="2.52602">
        <ele>223.8</ele>
        <time>2024-05-10T15:12:24Z</time>
      </trkpt>
      <trkpt lat="43.1342" lon="2.5258">
        <ele>222.5</ele>
        <time>2024-05-10T15:12:25Z</time>
      </trkpt>
      <trkpt lat="43.13439" lon="2.52558">
        <ele>221.1</ele>
        <time>2024-05-10T15:12:26Z</time>
      </trkpt>
      <trkpt lat="43.13458" lon="2.52536">
        <ele>220.5</ele>
        <time>2024-05-10T15:12:27Z</time>
      </trkpt>
      <trkpt lat="43.13477" lon="2.52513">
        <ele>220</ele>
        <time>2024-05-10T15:12:28Z</time>
      </trkpt>
      <trkpt lat="43.13496" lon="2.5249">
        <ele>219.3</ele>
        <time>2024-05-10T15:12:29Z</time>
      </trkpt>
      <trkpt lat="43.13516" lon="2.52468">
        <ele>217.8</ele>
        <time>2024-05-10T15:12:30Z</time>
      </trkpt>
      <trkpt lat="43.13535" lon="2.52445">
        <ele>217</ele>
        <time>2024-05-10T15:12:31Z</time>
      </trkpt>
      <trkpt lat="43.13555" lon="2.52422">
        <ele>216.2</ele>
        <time>2024-05-10T15:12:32Z</time>
      </trkpt>
      <trkpt lat="43.13573" lon="2.524">
        <ele>214.5</ele>
        <time>2024-05-10T15:12:33Z</time>
      </trkpt>
      <trkpt lat="43.13592" lon="2.52378">
        <ele>213</ele>
        <time>2024-05-10T15:12:34Z</time>
      </trkpt>
      <trkpt lat="43.1361" lon="2.52357">
        <ele>211.9</ele>
        <time>2024-05-10T15:12:35Z</time>
      </trkpt>
      <trkpt lat="43.13628" lon="2.52336">
        <ele>211</ele>
        <time>2024-05-10T15:12:36Z</time>
      </trkpt>
      <trkpt lat="43.13646" lon="2.52315">
        <ele>210.6</ele>
        <time>2024-05-10T15:12:37Z</time>
      </trkpt>
      <trkpt lat="43.13663" lon="2.52295">
        <ele>209.6</ele>
        <time>2024-05-10T15:12:38Z</time>
      </trkpt>
      <trkpt lat="43.13679" lon="2.52275">
        <ele>209.6</ele>
        <time>2024-05-10T15:12:39Z</time>
      </trkpt>
      <trkpt lat="43.13696" lon="2.52256">
        <ele>209.7</ele>
        <time>2024-05-10T15:12:40Z</time>
      </trkpt>
      <trkpt lat="43.13712" lon="2.52238">
        <ele>208.9</ele>
        <time>2024-05-10T15:12:41Z</time>
      </trkpt>
      <trkpt lat="43.13728" lon="2.52221">
        <ele>208.8</ele>
        <time>2024-05-10T15:12:42Z</time>
      </trkpt>
      <trkpt lat="43.13745" lon="2.52205">
        <ele>208.7</ele>
        <time>2024-05-10T15:12:43Z</time>
      </trkpt>
      <trkpt lat="43.13763" lon="2.52192">
        <ele>208.6</ele>
        <time>2024-05-10T15:12:44Z</time>
      </trkpt>
      <trkpt lat="43.13782" lon="2.52179">
        <ele>208.4</ele>
        <time>2024-05-10T15:12:45Z</time>
      </trkpt>
      <trkpt lat="43.13801" lon="2.52166">
        <ele>208.1</ele>
        <time>2024-05-10T15:12:46Z</time>
      </trkpt>
      <trkpt lat="43.1382" lon="2.52152">
        <ele>207.2</ele>
        <time>2024-05-10T15:12:47Z</time>
      </trkpt>
      <trkpt lat="43.13839" lon="2.5214">
        <ele>207</ele>
        <time>2024-05-10T15:12:48Z</time>
      </trkpt>
      <trkpt lat="43.13858" lon="2.52127">
        <ele>206.6</ele>
        <time>2024-05-10T15:12:49Z</time>
      </trkpt>
      <trkpt lat="43.13876" lon="2.52115">
        <ele>206.1</ele>
        <time>2024-05-10T15:12:50Z</time>
      </trkpt>
      <trkpt lat="43.13895" lon="2.52103">
        <ele>205.8</ele>
        <time>2024-05-10T15:12:51Z</time>
      </trkpt>
      <trkpt lat="43.13914" lon="2.52091">
        <ele>205.8</ele>
        <time>2024-05-10T15:12:52Z</time>
      </trkpt>
      <trkpt lat="43.13933" lon="2.52078">
        <ele>205.3</ele>
        <time>2024-05-10T15:12:53Z</time>
      </trkpt>
      <trkpt lat="43.13953" lon="2.52065">
        <ele>204.9</ele>
        <time>2024-05-10T15:12:54Z</time>
      </trkpt>
      <trkpt lat="43.13972" lon="2.52052">
        <ele>205</ele>
        <time>2024-05-10T15:12:55Z</time>
      </trkpt>
      <trkpt lat="43.13992" lon="2.52039">
        <ele>204.7</ele>
        <time>2024-05-10T15:12:56Z</time>
      </trkpt>
      <trkpt lat="43.14012" lon="2.52025">
        <ele>204.6</ele>
        <time>2024-05-10T15:12:57Z</time>
      </trkpt>
      <trkpt lat="43.14032" lon="2.52011">
        <ele>203.9</ele>
        <time>2024-05-10T15:12:58Z</time>
      </trkpt>
      <trkpt lat="43.14052" lon="2.51997">
        <ele>203.9</ele>
        <time>2024-05-10T15:12:59Z</time>
      </trkpt>
      <trkpt lat="43.14073" lon="2.51983">
        <ele>203.5</ele>
        <time>2024-05-10T15:13:00Z</time>
      </trkpt>
      <trkpt lat="43.14093" lon="2.51969">
        <ele>203.6</ele>
        <time>2024-05-10T15:13:01Z</time>
      </trkpt>
      <trkpt lat="43.14113" lon="2.51956">
        <ele>203</ele>
        <time>2024-05-10T15:13:02Z</time>
      </trkpt>
      <trkpt lat="43.14132" lon="2.51943">
        <ele>203</ele>
        <time>2024-05-10T15:13:03Z</time>
      </trkpt>
      <trkpt lat="43.14151" lon="2.51931">
        <ele>202.7</ele>
        <time>2024-05-10T15:13:04Z</time>
      </trkpt>
      <trkpt lat="43.14169" lon="2.51918">
        <ele>203</ele>
        <time>2024-05-10T15:13:05Z</time>
      </trkpt>
      <trkpt lat="43.14186" lon="2.51906">
        <ele>202.6</ele>
        <time>2024-05-10T15:13:06Z</time>
      </trkpt>
      <trkpt lat="43.14203" lon="2.51895">
        <ele>202.2</ele>
        <time>2024-05-10T15:13:07Z</time>
      </trkpt>
      <trkpt lat="43.1422" lon="2.51884">
        <ele>201.8</ele>
        <time>2024-05-10T15:13:08Z</time>
      </trkpt>
      <trkpt lat="43.14236" lon="2.51872">
        <ele>201.7</ele>
        <time>2024-05-10T15:13:09Z</time>
      </trkpt>
      <trkpt lat="43.14252" lon="2.51862">
        <ele>202.1</ele>
        <time>2024-05-10T15:13:10Z</time>
      </trkpt>
      <trkpt lat="43.14267" lon="2.51851">
        <ele>202.4</ele>
        <time>2024-05-10T15:13:11Z</time>
      </trkpt>
      <trkpt lat="43.14282" lon="2.5184">
        <ele>202.4</ele>
        <time>2024-05-10T15:13:12Z</time>
      </trkpt>
      <trkpt lat="43.14297" lon="2.5183">
        <ele>202.5</ele>
        <time>2024-05-10T15:13:13Z</time>
      </trkpt>
      <trkpt lat="43.14311" lon="2.51822">
        <ele>202.5</ele>
        <time>2024-05-10T15:13:14Z</time>
      </trkpt>
      <trkpt lat="43.14322" lon="2.51814">
        <ele>202.6</ele>
        <time>2024-05-10T15:13:15Z</time>
      </trkpt>
      <trkpt lat="43.14333" lon="2.51807">
        <ele>203</ele>
        <time>2024-05-10T15:13:16Z</time>
      </trkpt>
      <trkpt lat="43.14343" lon="2.518">
        <ele>203.3</ele>
        <time>2024-05-10T15:13:17Z</time>
      </trkpt>
      <trkpt lat="43.14353" lon="2.51793">
        <ele>203.5</ele>
        <time>2024-05-10T15:13:18Z</time>
      </trkpt>
      <trkpt lat="43.14363" lon="2.51787">
        <ele>203.7</ele>
        <time>2024-05-10T15:13:19Z</time>
      </trkpt>
      <trkpt lat="43.14372" lon="2.5178">
        <ele>203.5</ele>
        <time>2024-05-10T15:13:20Z</time>
      </trkpt>
      <trkpt lat="43.14382" lon="2.51774">
        <ele>203.5</ele>
        <time>2024-05-10T15:13:21Z</time>
      </trkpt>
      <trkpt lat="43.14391" lon="2.51768">
        <ele>203.4</ele>
        <time>2024-05-10T15:13:22Z</time>
      </trkpt>
      <trkpt lat="43.14401" lon="2.51762">
        <ele>203.5</ele>
        <time>2024-05-10T15:13:23Z</time>
      </trkpt>
      <trkpt lat="43.1441" lon="2.51755">
        <ele>203.7</ele>
        <time>2024-05-10T15:13:24Z</time>
      </trkpt>
      <trkpt lat="43.14418" lon="2.51749">
        <ele>204</ele>
        <time>2024-05-10T15:13:25Z</time>
      </trkpt>
      <trkpt lat="43.14425" lon="2.51742">
        <ele>204</ele>
        <time>2024-05-10T15:13:26Z</time>
      </trkpt>
      <trkpt lat="43.14431" lon="2.51734">
        <ele>203.9</ele>
        <time>2024-05-10T15:13:27Z</time>
      </trkpt>
      <trkpt lat="43.14437" lon="2.51727">
        <ele>203.9</ele>
        <time>2024-05-10T15:13:28Z</time>
      </trkpt>
      <trkpt lat="43.14441" lon="2.51719">
        <ele>203.8</ele>
        <time>2024-05-10T15:13:29Z</time>
      </trkpt>
      <trkpt lat="43.14445" lon="2.51712">
        <ele>203.6</ele>
        <time>2024-05-10T15:13:30Z</time>
      </trkpt>
      <trkpt lat="43.14449" lon="2.51705">
        <ele>203.4</ele>
        <time>2024-05-10T15:13:31Z</time>
      </trkpt>
      <trkpt lat="43.14452" lon="2.51698">
        <ele>203.2</ele>
        <time>2024-05-10T15:13:32Z</time>
      </trkpt>
      <trkpt lat="43.14455" lon="2.51691">
        <ele>202.9</ele>
        <time>2024-05-10T15:13:33Z</time>
      </trkpt>
      <trkpt lat="43.14457" lon="2.51686">
        <ele>202.8</ele>
        <time>2024-05-10T15:13:34Z</time>
      </trkpt>
      <trkpt lat="43.14459" lon="2.51683">
        <ele>202.8</ele>
        <time>2024-05-10T15:13:35Z</time>
      </trkpt>
      <trkpt lat="43.14461" lon="2.51679">
        <ele>202.8</ele>
        <time>2024-05-10T15:13:36Z</time>
      </trkpt>
      <trkpt lat="43.14462" lon="2.51676">
        <ele>202.8</ele>
        <time>2024-05-10T15:13:37Z</time>
      </trkpt>
      <trkpt lat="43.14463" lon="2.51673">
        <ele>202.7</ele>
        <time>2024-05-10T15:13:38Z</time>
      </trkpt>
      <trkpt lat="43.14464" lon="2.5167">
        <ele>202.7</ele>
        <time>2024-05-10T15:13:39Z</time>
      </trkpt>
      <trkpt lat="43.14465" lon="2.51668">
        <ele>202.8</ele>
        <time>2024-05-10T15:13:40Z</time>
      </trkpt>
      <trkpt lat="43.14467" lon="2.51665">
        <ele>202.8</ele>
        <time>2024-05-10T15:13:41Z</time>
      </trkpt>
      <trkpt lat="43.14468" lon="2.51662">
        <ele>202.7</ele>
        <time>2024-05-10T15:13:42Z</time>
      </trkpt>
      <trkpt lat="43.1447" lon="2.51658">
        <ele>202.6</ele>
        <time>2024-05-10T15:13:43Z</time>
      </trkpt>
      <trkpt lat="43.14472" lon="2.51655">
        <ele>202.6</ele>
        <time>2024-05-10T15:13:44Z</time>
      </trkpt>
      <trkpt lat="43.14473" lon="2.51652">
        <ele>202.5</ele>
        <time>2024-05-10T15:13:45Z</time>
      </trkpt>
      <trkpt lat="43.14475" lon="2.51648">
        <ele>202.5</ele>
        <time>2024-05-10T15:13:46Z</time>
      </trkpt>
      <trkpt lat="43.14477" lon="2.51643">
        <ele>202.5</ele>
        <time>2024-05-10T15:13:47Z</time>
      </trkpt>
      <trkpt lat="43.14481" lon="2.51637">
        <ele>202.7</ele>
        <time>2024-05-10T15:13:48Z</time>
      </trkpt>
      <trkpt lat="43.14484" lon="2.5163">
        <ele>203</ele>
        <time>2024-05-10T15:13:49Z</time>
      </trkpt>
      <trkpt lat="43.14487" lon="2.51625">
        <ele>203.3</ele>
        <time>2024-05-10T15:13:50Z</time>
      </trkpt>
      <trkpt lat="43.14489" lon="2.5162">
        <ele>203.6</ele>
        <time>2024-05-10T15:13:51Z</time>
      </trkpt>
      <trkpt lat="43.14492" lon="2.51614">
        <ele>204.1</ele>
        <time>2024-05-10T15:13:52Z</time>
      </trkpt>
      <trkpt lat="43.14494" lon="2.51608">
        <ele>204.2</ele>
        <time>2024-05-10T15:13:53Z</time>
      </trkpt>
      <trkpt lat="43.14497" lon="2.51603">
        <ele>204.1</ele>
        <time>2024-05-10T15:13:54Z</time>
      </trkpt>
      <trkpt lat="43.14499" lon="2.51597">
        <ele>203.9</ele>
        <time>2024-05-10T15:13:55Z</time>
      </trkpt>
      <trkpt lat="43.14502" lon="2.51591">
        <ele>203.8</ele>
        <time>2024-05-10T15:13:56Z</time>
      </trkpt>
      <trkpt lat="43.14506" lon="2.51584">
        <ele>203.7</ele>
        <time>2024-05-10T15:13:57Z</time>
      </trkpt>
      <trkpt lat="43.14511" lon="2.51577">
        <ele>203.9</ele>
        <time>2024-05-10T15:13:58Z</time>
      </trkpt>
      <trkpt lat="43.14515" lon="2.5157">
        <ele>203.9</ele>
        <time>2024-05-10T15:13:59Z</time>
      </trkpt>
      <trkpt lat="43.14519" lon="2.51562">
        <ele>203.8</ele>
        <time>2024-05-10T15:14:00Z</time>
      </trkpt>
      <trkpt lat="43.14524" lon="2.51555">
        <ele>203.7</ele>
        <time>2024-05-10T15:14:01Z</time>
      </trkpt>
      <trkpt lat="43.14528" lon="2.51545">
        <ele>203.3</ele>
        <time>2024-05-10T15:14:02Z</time>
      </trkpt>
      <trkpt lat="43.14533" lon="2.51535">
        <ele>202.9</ele>
        <time>2024-05-10T15:14:03Z</time>
      </trkpt>
      <trkpt lat="43.14537" lon="2.51526">
        <ele>202.6</ele>
        <time>2024-05-10T15:14:04Z</time>
      </trkpt>
      <trkpt lat="43.14541" lon="2.51518">
        <ele>202.4</ele>
        <time>2024-05-10T15:14:05Z</time>
      </trkpt>
      <trkpt lat="43.14545" lon="2.5151">
        <ele>202.2</ele>
        <time>2024-05-10T15:14:06Z</time>
      </trkpt>
      <trkpt lat="43.14549" lon="2.51502">
        <ele>201.9</ele>
        <time>2024-05-10T15:14:07Z</time>
      </trkpt>
      <trkpt lat="43.14552" lon="2.51495">
        <ele>201.7</ele>
        <time>2024-05-10T15:14:08Z</time>
      </trkpt>
      <trkpt lat="43.14556" lon="2.51488">
        <ele>201.6</ele>
        <time>2024-05-10T15:14:09Z</time>
      </trkpt>
      <trkpt lat="43.1456" lon="2.51482">
        <ele>201.8</ele>
        <time>2024-05-10T15:14:10Z</time>
      </trkpt>
      <trkpt lat="43.14562" lon="2.51475">
        <ele>201.8</ele>
        <time>2024-05-10T15:14:11Z</time>
      </trkpt>
      <trkpt lat="43.14565" lon="2.51468">
        <ele>201.8</ele>
        <time>2024-05-10T15:14:12Z</time>
      </trkpt>
      <trkpt lat="43.14568" lon="2.51461">
        <ele>201.8</ele>
        <time>2024-05-10T15:14:13Z</time>
      </trkpt>
      <trkpt lat="43.14572" lon="2.51454">
        <ele>201.7</ele>
        <time>2024-05-10T15:14:14Z</time>
      </trkpt>
      <trkpt lat="43.14575" lon="2.51446">
        <ele>201.5</ele>
        <time>2024-05-10T15:14:15Z</time>
      </trkpt>
      <trkpt lat="43.14578" lon="2.51438">
        <ele>201.2</ele>
        <time>2024-05-10T15:14:16Z</time>
      </trkpt>
      <trkpt lat="43.14582" lon="2.5143">
        <ele>200.9</ele>
        <time>2024-05-10T15:14:17Z</time>
      </trkpt>
      <trkpt lat="43.14585" lon="2.51423">
        <ele>200.6</ele>
        <time>2024-05-10T15:14:18Z</time>
      </trkpt>
      <trkpt lat="43.1459" lon="2.51415">
        <ele>200.5</ele>
        <time>2024-05-10T15:14:19Z</time>
      </trkpt>
      <trkpt lat="43.14593" lon="2.51406">
        <ele>200.7</ele>
        <time>2024-05-10T15:14:20Z</time>
      </trkpt>
      <trkpt lat="43.14596" lon="2.51396">
        <ele>200.9</ele>
        <time>2024-05-10T15:14:21Z</time>
      </trkpt>
      <trkpt lat="43.14599" lon="2.51386">
        <ele>201</ele>
        <time>2024-05-10T15:14:22Z</time>
      </trkpt>
      <trkpt lat="43.14602" lon="2.51375">
        <ele>200.5</ele>
        <time>2024-05-10T15:14:23Z</time>
      </trkpt>
      <trkpt lat="43.14604" lon="2.51366">
        <ele>200.1</ele>
        <time>2024-05-10T15:14:24Z</time>
      </trkpt>
      <trkpt lat="43.14606" lon="2.51357">
        <ele>199.8</ele>
        <time>2024-05-10T15:14:25Z</time>
      </trkpt>
      <trkpt lat="43.14607" lon="2.51349">
        <ele>199.9</ele>
        <time>2024-05-10T15:14:26Z</time>
      </trkpt>
      <trkpt lat="43.14609" lon="2.5134">
        <ele>199.9</ele>
        <time>2024-05-10T15:14:27Z</time>
      </trkpt>
      <trkpt lat="43.14611" lon="2.51333">
        <ele>200</ele>
        <time>2024-05-10T15:14:28Z</time>
      </trkpt>
      <trkpt lat="43.14612" lon="2.51325">
        <ele>199.7</ele>
        <time>2024-05-10T15:14:29Z</time>
      </trkpt>
      <trkpt lat="43.14614" lon="2.51318">
        <ele>199.6</ele>
        <time>2024-05-10T15:14:30Z</time>
      </trkpt>
      <trkpt lat="43.14615" lon="2.51311">
        <ele>199.3</ele>
        <time>2024-05-10T15:14:31Z</time>
      </trkpt>
      <trkpt lat="43.14617" lon="2.51303">
        <ele>199.2</ele>
        <time>2024-05-10T15:14:32Z</time>
      </trkpt>
      <trkpt lat="43.14618" lon="2.51295">
        <ele>199.2</ele>
        <time>2024-05-10T15:14:33Z</time>
      </trkpt>
      <trkpt lat="43.1462" lon="2.51286">
        <ele>199.3</ele>
        <time>2024-05-10T15:14:34Z</time>
      </trkpt>
      <trkpt lat="43.14622" lon="2.51277">
        <ele>199.4</ele>
        <time>2024-05-10T15:14:35Z</time>
      </trkpt>
      <trkpt lat="43.14624" lon="2.51267">
        <ele>199.5</ele>
        <time>2024-05-10T15:14:36Z</time>
      </trkpt>
      <trkpt lat="43.14627" lon="2.51257">
        <ele>199.6</ele>
        <time>2024-05-10T15:14:37Z</time>
      </trkpt>
      <trkpt lat="43.14629" lon="2.51247">
        <ele>199.6</ele>
        <time>2024-05-10T15:14:38Z</time>
      </trkpt>
      <trkpt lat="43.14631" lon="2.51237">
        <ele>199.4</ele>
        <time>2024-05-10T15:14:39Z</time>
      </trkpt>
      <trkpt lat="43.14634" lon="2.51227">
        <ele>199.1</ele>
        <time>2024-05-10T15:14:40Z</time>
      </trkpt>
      <trkpt lat="43.14637" lon="2.51216">
        <ele>199</ele>
        <time>2024-05-10T15:14:41Z</time>
      </trkpt>
      <trkpt lat="43.1464" lon="2.51203">
        <ele>199</ele>
        <time>2024-05-10T15:14:42Z</time>
      </trkpt>
      <trkpt lat="43.14643" lon="2.5119">
        <ele>199.1</ele>
        <time>2024-05-10T15:14:43Z</time>
      </trkpt>
      <trkpt lat="43.14646" lon="2.51178">
        <ele>199.1</ele>
        <time>2024-05-10T15:14:44Z</time>
      </trkpt>
      <trkpt lat="43.14648" lon="2.51166">
        <ele>199</ele>
        <time>2024-05-10T15:14:45Z</time>
      </trkpt>
      <trkpt lat="43.14652" lon="2.51152">
        <ele>198.7</ele>
        <time>2024-05-10T15:14:46Z</time>
      </trkpt>
      <trkpt lat="43.14656" lon="2.51136">
        <ele>198.6</ele>
        <time>2024-05-10T15:14:47Z</time>
      </trkpt>
      <trkpt lat="43.1466" lon="2.51119">
        <ele>198.8</ele>
        <time>2024-05-10T15:14:48Z</time>
      </trkpt>
      <trkpt lat="43.14664" lon="2.51099">
        <ele>198.5</ele>
        <time>2024-05-10T15:14:49Z</time>
      </trkpt>
      <trkpt lat="43.1467" lon="2.51078">
        <ele>198.1</ele>
        <time>2024-05-10T15:14:50Z</time>
      </trkpt>
      <trkpt lat="43.14675" lon="2.51054">
        <ele>198</ele>
        <time>2024-05-10T15:14:51Z</time>
      </trkpt>
      <trkpt lat="43.14681" lon="2.51031">
        <ele>198</ele>
        <time>2024-05-10T15:14:52Z</time>
      </trkpt>
      <trkpt lat="43.14686" lon="2.51007">
        <ele>197.8</ele>
        <time>2024-05-10T15:14:53Z</time>
      </trkpt>
      <trkpt lat="43.14693" lon="2.50982">
        <ele>197.3</ele>
        <time>2024-05-10T15:14:54Z</time>
      </trkpt>
      <trkpt lat="43.14699" lon="2.50956">
        <ele>197.1</ele>
        <time>2024-05-10T15:14:55Z</time>
      </trkpt>
      <trkpt lat="43.14705" lon="2.50929">
        <ele>196.4</ele>
        <time>2024-05-10T15:14:56Z</time>
      </trkpt>
      <trkpt lat="43.14711" lon="2.50903">
        <ele>196</ele>
        <time>2024-05-10T15:14:57Z</time>
      </trkpt>
      <trkpt lat="43.14717" lon="2.50877">
        <ele>196</ele>
        <time>2024-05-10T15:14:58Z</time>
      </trkpt>
      <trkpt lat="43.14724" lon="2.5085">
        <ele>196.1</ele>
        <time>2024-05-10T15:14:59Z</time>
      </trkpt>
      <trkpt lat="43.1473" lon="2.50822">
        <ele>196.2</ele>
        <time>2024-05-10T15:15:00Z</time>
      </trkpt>
      <trkpt lat="43.14737" lon="2.50793">
        <ele>196</ele>
        <time>2024-05-10T15:15:01Z</time>
      </trkpt>
      <trkpt lat="43.14744" lon="2.50763">
        <ele>195.9</ele>
        <time>2024-05-10T15:15:02Z</time>
      </trkpt>
      <trkpt lat="43.14752" lon="2.50732">
        <ele>196</ele>
        <time>2024-05-10T15:15:03Z</time>
      </trkpt>
      <trkpt lat="43.1476" lon="2.507">
        <ele>196</ele>
        <time>2024-05-10T15:15:04Z</time>
      </trkpt>
      <trkpt lat="43.14768" lon="2.50666">
        <ele>196.6</ele>
        <time>2024-05-10T15:15:05Z</time>
      </trkpt>
      <trkpt lat="43.14776" lon="2.50632">
        <ele>196.2</ele>
        <time>2024-05-10T15:15:06Z</time>
      </trkpt>
      <trkpt lat="43.14784" lon="2.50599">
        <ele>197.2</ele>
        <time>2024-05-10T15:15:07Z</time>
      </trkpt>
      <trkpt lat="43.14791" lon="2.50566">
        <ele>197.1</ele>
        <time>2024-05-10T15:15:08Z</time>
      </trkpt>
      <trkpt lat="43.14799" lon="2.50533">
        <ele>197.7</ele>
        <time>2024-05-10T15:15:09Z</time>
      </trkpt>
      <trkpt lat="43.14807" lon="2.50501">
        <ele>198.1</ele>
        <time>2024-05-10T15:15:10Z</time>
      </trkpt>
      <trkpt lat="43.14815" lon="2.50468">
        <ele>198.6</ele>
        <time>2024-05-10T15:15:11Z</time>
      </trkpt>
      <trkpt lat="43.14822" lon="2.50434">
        <ele>198.6</ele>
        <time>2024-05-10T15:15:12Z</time>
      </trkpt>
      <trkpt lat="43.1483" lon="2.504">
        <ele>198.2</ele>
        <time>2024-05-10T15:15:13Z</time>
      </trkpt>
      <trkpt lat="43.14838" lon="2.50367">
        <ele>197.7</ele>
        <time>2024-05-10T15:15:14Z</time>
      </trkpt>
      <trkpt lat="43.14846" lon="2.50334">
        <ele>197.4</ele>
        <time>2024-05-10T15:15:15Z</time>
      </trkpt>
      <trkpt lat="43.14853" lon="2.50302">
        <ele>196</ele>
        <time>2024-05-10T15:15:16Z</time>
      </trkpt>
      <trkpt lat="43.1486" lon="2.50272">
        <ele>195.5</ele>
        <time>2024-05-10T15:15:17Z</time>
      </trkpt>
      <trkpt lat="43.14868" lon="2.50241">
        <ele>194.1</ele>
        <time>2024-05-10T15:15:18Z</time>
      </trkpt>
      <trkpt lat="43.14874" lon="2.50211">
        <ele>193.1</ele>
        <time>2024-05-10T15:15:19Z</time>
      </trkpt>
      <trkpt lat="43.14881" lon="2.50181">
        <ele>192.6</ele>
        <time>2024-05-10T15:15:20Z</time>
      </trkpt>
      <trkpt lat="43.14888" lon="2.50152">
        <ele>192.4</ele>
        <time>2024-05-10T15:15:21Z</time>
      </trkpt>
      <trkpt lat="43.14895" lon="2.50125">
        <ele>191.8</ele>
        <time>2024-05-10T15:15:22Z</time>
      </trkpt>
      <trkpt lat="43.14901" lon="2.50097">
        <ele>191.7</ele>
        <time>2024-05-10T15:15:23Z</time>
      </trkpt>
      <trkpt lat="43.14908" lon="2.50069">
        <ele>191.2</ele>
        <time>2024-05-10T15:15:24Z</time>
      </trkpt>
      <trkpt lat="43.14914" lon="2.50042">
        <ele>190.9</ele>
        <time>2024-05-10T15:15:25Z</time>
      </trkpt>
      <trkpt lat="43.1492" lon="2.50015">
        <ele>191.2</ele>
        <time>2024-05-10T15:15:26Z</time>
      </trkpt>
      <trkpt lat="43.14926" lon="2.49989">
        <ele>191.3</ele>
        <time>2024-05-10T15:15:27Z</time>
      </trkpt>
      <trkpt lat="43.14932" lon="2.49964">
        <ele>191.1</ele>
        <time>2024-05-10T15:15:28Z</time>
      </trkpt>
      <trkpt lat="43.14937" lon="2.49939">
        <ele>191.5</ele>
        <time>2024-05-10T15:15:29Z</time>
      </trkpt>
      <trkpt lat="43.14942" lon="2.49915">
        <ele>191.8</ele>
        <time>2024-05-10T15:15:30Z</time>
      </trkpt>
      <trkpt lat="43.14945" lon="2.49894">
        <ele>192</ele>
        <time>2024-05-10T15:15:31Z</time>
      </trkpt>
      <trkpt lat="43.14946" lon="2.49876">
        <ele>191.6</ele>
        <time>2024-05-10T15:15:32Z</time>
      </trkpt>
      <trkpt lat="43.14948" lon="2.49857">
        <ele>191.3</ele>
        <time>2024-05-10T15:15:33Z</time>
      </trkpt>
      <trkpt lat="43.14948" lon="2.49839">
        <ele>191.3</ele>
        <time>2024-05-10T15:15:34Z</time>
      </trkpt>
      <trkpt lat="43.14948" lon="2.49822">
        <ele>190.9</ele>
        <time>2024-05-10T15:15:35Z</time>
      </trkpt>
      <trkpt lat="43.14947" lon="2.49804">
        <ele>190.3</ele>
        <time>2024-05-10T15:15:36Z</time>
      </trkpt>
      <trkpt lat="43.14945" lon="2.49785">
        <ele>190.1</ele>
        <time>2024-05-10T15:15:37Z</time>
      </trkpt>
      <trkpt lat="43.14943" lon="2.49766">
        <ele>189.5</ele>
        <time>2024-05-10T15:15:38Z</time>
      </trkpt>
      <trkpt lat="43.1494" lon="2.49748">
        <ele>188.8</ele>
        <time>2024-05-10T15:15:39Z</time>
      </trkpt>
      <trkpt lat="43.14937" lon="2.4973">
        <ele>188.7</ele>
        <time>2024-05-10T15:15:40Z</time>
      </trkpt>
      <trkpt lat="43.14934" lon="2.49713">
        <ele>188.5</ele>
        <time>2024-05-10T15:15:41Z</time>
      </trkpt>
      <trkpt lat="43.14932" lon="2.49695">
        <ele>188.1</ele>
        <time>2024-05-10T15:15:42Z</time>
      </trkpt>
      <trkpt lat="43.14929" lon="2.49677">
        <ele>187.6</ele>
        <time>2024-05-10T15:15:43Z</time>
      </trkpt>
      <trkpt lat="43.14927" lon="2.4966">
        <ele>187.3</ele>
        <time>2024-05-10T15:15:44Z</time>
      </trkpt>
      <trkpt lat="43.14925" lon="2.49646">
        <ele>187.1</ele>
        <time>2024-05-10T15:15:45Z</time>
      </trkpt>
      <trkpt lat="43.14923" lon="2.49637">
        <ele>187</ele>
        <time>2024-05-10T15:15:46Z</time>
      </trkpt>
      <trkpt lat="43.14922" lon="2.49628">
        <ele>187.1</ele>
        <time>2024-05-10T15:15:47Z</time>
      </trkpt>
      <trkpt lat="43.14921" lon="2.4962">
        <ele>187.1</ele>
        <time>2024-05-10T15:15:48Z</time>
      </trkpt>
      <trkpt lat="43.1492" lon="2.49613">
        <ele>187.1</ele>
        <time>2024-05-10T15:15:49Z</time>
      </trkpt>
      <trkpt lat="43.14919" lon="2.49607">
        <ele>187.1</ele>
        <time>2024-05-10T15:15:50Z</time>
      </trkpt>
      <trkpt lat="43.14918" lon="2.49602">
        <ele>187</ele>
        <time>2024-05-10T15:15:51Z</time>
      </trkpt>
      <trkpt lat="43.14916" lon="2.49597">
        <ele>187</ele>
        <time>2024-05-10T15:15:52Z</time>
      </trkpt>
      <trkpt lat="43.14915" lon="2.49591">
        <ele>187</ele>
        <time>2024-05-10T15:15:53Z</time>
      </trkpt>
      <trkpt lat="43.14914" lon="2.49584">
        <ele>187</ele>
        <time>2024-05-10T15:15:54Z</time>
      </trkpt>
      <trkpt lat="43.14912" lon="2.49574">
        <ele>187</ele>
        <time>2024-05-10T15:15:55Z</time>
      </trkpt>
      <trkpt lat="43.14911" lon="2.4956">
        <ele>187</ele>
        <time>2024-05-10T15:15:56Z</time>
      </trkpt>
      <trkpt lat="43.14909" lon="2.49546">
        <ele>186.7</ele>
        <time>2024-05-10T15:15:57Z</time>
      </trkpt>
      <trkpt lat="43.14908" lon="2.49531">
        <ele>186.1</ele>
        <time>2024-05-10T15:15:58Z</time>
      </trkpt>
      <trkpt lat="43.14906" lon="2.49513">
        <ele>186.3</ele>
        <time>2024-05-10T15:15:59Z</time>
      </trkpt>
      <trkpt lat="43.14906" lon="2.49492">
        <ele>186.5</ele>
        <time>2024-05-10T15:16:00Z</time>
      </trkpt>
      <trkpt lat="43.14906" lon="2.49471">
        <ele>186.3</ele>
        <time>2024-05-10T15:16:01Z</time>
      </trkpt>
      <trkpt lat="43.14908" lon="2.49451">
        <ele>187.1</ele>
        <time>2024-05-10T15:16:02Z</time>
      </trkpt>
      <trkpt lat="43.1491" lon="2.49429">
        <ele>187.1</ele>
        <time>2024-05-10T15:16:03Z</time>
      </trkpt>
      <trkpt lat="43.14913" lon="2.49407">
        <ele>186.5</ele>
        <time>2024-05-10T15:16:04Z</time>
      </trkpt>
      <trkpt lat="43.14917" lon="2.49383">
        <ele>185.8</ele>
        <time>2024-05-10T15:16:05Z</time>
      </trkpt>
      <trkpt lat="43.14919" lon="2.49359">
        <ele>185.3</ele>
        <time>2024-05-10T15:16:06Z</time>
      </trkpt>
      <trkpt lat="43.14922" lon="2.49336">
        <ele>185.6</ele>
        <time>2024-05-10T15:16:07Z</time>
      </trkpt>
      <trkpt lat="43.14925" lon="2.49313">
        <ele>185.9</ele>
        <time>2024-05-10T15:16:08Z</time>
      </trkpt>
      <trkpt lat="43.14928" lon="2.4929">
        <ele>185.1</ele>
        <time>2024-05-10T15:16:09Z</time>
      </trkpt>
      <trkpt lat="43.14931" lon="2.49268">
        <ele>184</ele>
        <time>2024-05-10T15:16:10Z</time>
      </trkpt>
      <trkpt lat="43.14934" lon="2.49246">
        <ele>183.2</ele>
        <time>2024-05-10T15:16:11Z</time>
      </trkpt>
      <trkpt lat="43.14937" lon="2.49224">
        <ele>183.2</ele>
        <time>2024-05-10T15:16:12Z</time>
      </trkpt>
      <trkpt lat="43.14942" lon="2.49201">
        <ele>183</ele>
        <time>2024-05-10T15:16:13Z</time>
      </trkpt>
      <trkpt lat="43.14947" lon="2.49178">
        <ele>183.7</ele>
        <time>2024-05-10T15:16:14Z</time>
      </trkpt>
      <trkpt lat="43.14955" lon="2.49156">
        <ele>183.7</ele>
        <time>2024-05-10T15:16:15Z</time>
      </trkpt>
      <trkpt lat="43.14962" lon="2.49134">
        <ele>183.5</ele>
        <time>2024-05-10T15:16:16Z</time>
      </trkpt>
      <trkpt lat="43.1497" lon="2.49111">
        <ele>184.6</ele>
        <time>2024-05-10T15:16:17Z</time>
      </trkpt>
      <trkpt lat="43.14978" lon="2.49088">
        <ele>184.8</ele>
        <time>2024-05-10T15:16:18Z</time>
      </trkpt>
      <trkpt lat="43.14984" lon="2.49065">
        <ele>184.6</ele>
        <time>2024-05-10T15:16:19Z</time>
      </trkpt>
      <trkpt lat="43.14989" lon="2.49042">
        <ele>184.6</ele>
        <time>2024-05-10T15:16:20Z</time>
      </trkpt>
      <trkpt lat="43.14993" lon="2.49018">
        <ele>184.7</ele>
        <time>2024-05-10T15:16:21Z</time>
      </trkpt>
      <trkpt lat="43.14995" lon="2.48993">
        <ele>184.2</ele>
        <time>2024-05-10T15:16:22Z</time>
      </trkpt>
      <trkpt lat="43.14998" lon="2.48967">
        <ele>183.6</ele>
        <time>2024-05-10T15:16:23Z</time>
      </trkpt>
      <trkpt lat="43.15" lon="2.48939">
        <ele>183</ele>
        <time>2024-05-10T15:16:24Z</time>
      </trkpt>
      <trkpt lat="43.15002" lon="2.48913">
        <ele>183.1</ele>
        <time>2024-05-10T15:16:25Z</time>
      </trkpt>
      <trkpt lat="43.15004" lon="2.48886">
        <ele>182.6</ele>
        <time>2024-05-10T15:16:26Z</time>
      </trkpt>
      <trkpt lat="43.15006" lon="2.48858">
        <ele>182.5</ele>
        <time>2024-05-10T15:16:27Z</time>
      </trkpt>
      <trkpt lat="43.15008" lon="2.4883">
        <ele>181.8</ele>
        <time>2024-05-10T15:16:28Z</time>
      </trkpt>
      <trkpt lat="43.1501" lon="2.488">
        <ele>181.7</ele>
        <time>2024-05-10T15:16:29Z</time>
      </trkpt>
      <trkpt lat="43.15012" lon="2.48772">
        <ele>181.7</ele>
        <time>2024-05-10T15:16:30Z</time>
      </trkpt>
      <trkpt lat="43.15013" lon="2.48743">
        <ele>180.8</ele>
        <time>2024-05-10T15:16:31Z</time>
      </trkpt>
      <trkpt lat="43.15016" lon="2.48716">
        <ele>180.5</ele>
        <time>2024-05-10T15:16:32Z</time>
      </trkpt>
      <trkpt lat="43.15018" lon="2.48689">
        <ele>179.7</ele>
        <time>2024-05-10T15:16:33Z</time>
      </trkpt>
      <trkpt lat="43.1502" lon="2.48662">
        <ele>179.2</ele>
        <time>2024-05-10T15:16:34Z</time>
      </trkpt>
      <trkpt lat="43.15022" lon="2.48637">
        <ele>179.5</ele>
        <time>2024-05-10T15:16:35Z</time>
      </trkpt>
      <trkpt lat="43.15023" lon="2.48612">
        <ele>178.7</ele>
        <time>2024-05-10T15:16:36Z</time>
      </trkpt>
      <trkpt lat="43.15024" lon="2.48587">
        <ele>178</ele>
        <time>2024-05-10T15:16:37Z</time>
      </trkpt>
      <trkpt lat="43.15025" lon="2.48563">
        <ele>177.2</ele>
        <time>2024-05-10T15:16:38Z</time>
      </trkpt>
      <trkpt lat="43.15026" lon="2.48538">
        <ele>176.9</ele>
        <time>2024-05-10T15:16:39Z</time>
      </trkpt>
      <trkpt lat="43.15027" lon="2.48514">
        <ele>177</ele>
        <time>2024-05-10T15:16:40Z</time>
      </trkpt>
      <trkpt lat="43.15028" lon="2.4849">
        <ele>176.7</ele>
        <time>2024-05-10T15:16:41Z</time>
      </trkpt>
      <trkpt lat="43.15029" lon="2.48467">
        <ele>176.2</ele>
        <time>2024-05-10T15:16:42Z</time>
      </trkpt>
      <trkpt lat="43.1503" lon="2.48444">
        <ele>176.2</ele>
        <time>2024-05-10T15:16:43Z</time>
      </trkpt>
      <trkpt lat="43.15031" lon="2.48422">
        <ele>176.3</ele>
        <time>2024-05-10T15:16:44Z</time>
      </trkpt>
      <trkpt lat="43.15032" lon="2.48401">
        <ele>176.5</ele>
        <time>2024-05-10T15:16:45Z</time>
      </trkpt>
      <trkpt lat="43.15033" lon="2.48379">
        <ele>176.3</ele>
        <time>2024-05-10T15:16:46Z</time>
      </trkpt>
      <trkpt lat="43.15034" lon="2.48356">
        <ele>175.8</ele>
        <time>2024-05-10T15:16:47Z</time>
      </trkpt>
      <trkpt lat="43.15035" lon="2.48333">
        <ele>175.5</ele>
        <time>2024-05-10T15:16:48Z</time>
      </trkpt>
      <trkpt lat="43.15036" lon="2.48308">
        <ele>174.9</ele>
        <time>2024-05-10T15:16:49Z</time>
      </trkpt>
      <trkpt lat="43.15037" lon="2.48284">
        <ele>175</ele>
        <time>2024-05-10T15:16:50Z</time>
      </trkpt>
      <trkpt lat="43.15038" lon="2.48259">
        <ele>174.4</ele>
        <time>2024-05-10T15:16:51Z</time>
      </trkpt>
      <trkpt lat="43.15039" lon="2.48236">
        <ele>173.9</ele>
        <time>2024-05-10T15:16:52Z</time>
      </trkpt>
      <trkpt lat="43.1504" lon="2.48212">
        <ele>173.6</ele>
        <time>2024-05-10T15:16:53Z</time>
      </trkpt>
      <trkpt lat="43.15042" lon="2.4819">
        <ele>173.4</ele>
        <time>2024-05-10T15:16:54Z</time>
      </trkpt>
      <trkpt lat="43.15045" lon="2.48168">
        <ele>172.9</ele>
        <time>2024-05-10T15:16:55Z</time>
      </trkpt>
      <trkpt lat="43.1505" lon="2.48148">
        <ele>172.2</ele>
        <time>2024-05-10T15:16:56Z</time>
      </trkpt>
      <trkpt lat="43.15056" lon="2.48128">
        <ele>171.7</ele>
        <time>2024-05-10T15:16:57Z</time>
      </trkpt>
      <trkpt lat="43.15061" lon="2.48108">
        <ele>171.9</ele>
        <time>2024-05-10T15:16:58Z</time>
      </trkpt>
      <trkpt lat="43.15065" lon="2.48086">
        <ele>172.1</ele>
        <time>2024-05-10T15:16:59Z</time>
      </trkpt>
      <trkpt lat="43.15067" lon="2.48063">
        <ele>171.3</ele>
        <time>2024-05-10T15:17:00Z</time>
      </trkpt>
      <trkpt lat="43.15069" lon="2.48039">
        <ele>170.8</ele>
        <time>2024-05-10T15:17:01Z</time>
      </trkpt>
      <trkpt lat="43.1507" lon="2.48015">
        <ele>169.9</ele>
        <time>2024-05-10T15:17:02Z</time>
      </trkpt>
      <trkpt lat="43.15071" lon="2.47992">
        <ele>169</ele>
        <time>2024-05-10T15:17:03Z</time>
      </trkpt>
      <trkpt lat="43.15071" lon="2.47969">
        <ele>168.3</ele>
        <time>2024-05-10T15:17:04Z</time>
      </trkpt>
      <trkpt lat="43.15071" lon="2.47946">
        <ele>167.8</ele>
        <time>2024-05-10T15:17:05Z</time>
      </trkpt>
      <trkpt lat="43.15068" lon="2.47924">
        <ele>167.2</ele>
        <time>2024-05-10T15:17:06Z</time>
      </trkpt>
      <trkpt lat="43.15065" lon="2.47903">
        <ele>166.7</ele>
        <time>2024-05-10T15:17:07Z</time>
      </trkpt>
      <trkpt lat="43.15062" lon="2.47881">
        <ele>166.2</ele>
        <time>2024-05-10T15:17:08Z</time>
      </trkpt>
      <trkpt lat="43.15059" lon="2.4786">
        <ele>165.6</ele>
        <time>2024-05-10T15:17:09Z</time>
      </trkpt>
      <trkpt lat="43.15058" lon="2.4784">
        <ele>165.4</ele>
        <time>2024-05-10T15:17:10Z</time>
      </trkpt>
      <trkpt lat="43.15058" lon="2.4782">
        <ele>164.9</ele>
        <time>2024-05-10T15:17:11Z</time>
      </trkpt>
      <trkpt lat="43.15059" lon="2.478">
        <ele>164.3</ele>
        <time>2024-05-10T15:17:12Z</time>
      </trkpt>
      <trkpt lat="43.15061" lon="2.4778">
        <ele>164</ele>
        <time>2024-05-10T15:17:13Z</time>
      </trkpt>
      <trkpt lat="43.15064" lon="2.47758">
        <ele>164.3</ele>
        <time>2024-05-10T15:17:14Z</time>
      </trkpt>
      <trkpt lat="43.15067" lon="2.47736">
        <ele>164.1</ele>
        <time>2024-05-10T15:17:15Z</time>
      </trkpt>
      <trkpt lat="43.15069" lon="2.47714">
        <ele>163.8</ele>
        <time>2024-05-10T15:17:16Z</time>
      </trkpt>
      <trkpt lat="43.15072" lon="2.47693">
        <ele>163.7</ele>
        <time>2024-05-10T15:17:17Z</time>
      </trkpt>
      <trkpt lat="43.15074" lon="2.47672">
        <ele>163.2</ele>
        <time>2024-05-10T15:17:18Z</time>
      </trkpt>
      <trkpt lat="43.15077" lon="2.4765">
        <ele>163</ele>
        <time>2024-05-10T15:17:19Z</time>
      </trkpt>
      <trkpt lat="43.15081" lon="2.47628">
        <ele>162.5</ele>
        <time>2024-05-10T15:17:20Z</time>
      </trkpt>
      <trkpt lat="43.15084" lon="2.47606">
        <ele>161.9</ele>
        <time>2024-05-10T15:17:21Z</time>
      </trkpt>
      <trkpt lat="43.15088" lon="2.47585">
        <ele>161.9</ele>
        <time>2024-05-10T15:17:22Z</time>
      </trkpt>
      <trkpt lat="43.15092" lon="2.47564">
        <ele>162.3</ele>
        <time>2024-05-10T15:17:23Z</time>
      </trkpt>
      <trkpt lat="43.15095" lon="2.47543">
        <ele>161.8</ele>
        <time>2024-05-10T15:17:24Z</time>
      </trkpt>
      <trkpt lat="43.151" lon="2.47522">
        <ele>161.3</ele>
        <time>2024-05-10T15:17:25Z</time>
      </trkpt>
      <trkpt lat="43.15106" lon="2.47502">
        <ele>161.5</ele>
        <time>2024-05-10T15:17:26Z</time>
      </trkpt>
      <trkpt lat="43.15114" lon="2.47481">
        <ele>161.7</ele>
        <time>2024-05-10T15:17:27Z</time>
      </trkpt>
      <trkpt lat="43.15123" lon="2.47461">
        <ele>161.7</ele>
        <time>2024-05-10T15:17:28Z</time>
      </trkpt>
      <trkpt lat="43.15134" lon="2.47444">
        <ele>162.1</ele>
        <time>2024-05-10T15:17:29Z</time>
      </trkpt>
      <trkpt lat="43.15146" lon="2.47426">
        <ele>162.4</ele>
        <time>2024-05-10T15:17:30Z</time>
      </trkpt>
      <trkpt lat="43.15159" lon="2.47409">
        <ele>162.3</ele>
        <time>2024-05-10T15:17:31Z</time>
      </trkpt>
      <trkpt lat="43.15172" lon="2.4739">
        <ele>161.7</ele>
        <time>2024-05-10T15:17:32Z</time>
      </trkpt>
      <trkpt lat="43.15186" lon="2.4737">
        <ele>161.7</ele>
        <time>2024-05-10T15:17:33Z</time>
      </trkpt>
      <trkpt lat="43.15199" lon="2.47349">
        <ele>161.5</ele>
        <time>2024-05-10T15:17:34Z</time>
      </trkpt>
      <trkpt lat="43.15212" lon="2.47329">
        <ele>161.6</ele>
        <time>2024-05-10T15:17:35Z</time>
      </trkpt>
      <trkpt lat="43.15225" lon="2.47309">
        <ele>161.5</ele>
        <time>2024-05-10T15:17:36Z</time>
      </trkpt>
      <trkpt lat="43.15237" lon="2.47291">
        <ele>161.5</ele>
        <time>2024-05-10T15:17:37Z</time>
      </trkpt>
      <trkpt lat="43.15248" lon="2.47272">
        <ele>161.6</ele>
        <time>2024-05-10T15:17:38Z</time>
      </trkpt>
      <trkpt lat="43.1526" lon="2.47255">
        <ele>162</ele>
        <time>2024-05-10T15:17:39Z</time>
      </trkpt>
      <trkpt lat="43.1527" lon="2.47237">
        <ele>161.7</ele>
        <time>2024-05-10T15:17:40Z</time>
      </trkpt>
      <trkpt lat="43.15279" lon="2.4722">
        <ele>162.1</ele>
        <time>2024-05-10T15:17:41Z</time>
      </trkpt>
      <trkpt lat="43.15288" lon="2.47202">
        <ele>162.8</ele>
        <time>2024-05-10T15:17:42Z</time>
      </trkpt>
      <trkpt lat="43.15295" lon="2.47184">
        <ele>163</ele>
        <time>2024-05-10T15:17:43Z</time>
      </trkpt>
      <trkpt lat="43.153" lon="2.47166">
        <ele>163.2</ele>
        <time>2024-05-10T15:17:44Z</time>
      </trkpt>
      <trkpt lat="43.15305" lon="2.4715">
        <ele>163.3</ele>
        <time>2024-05-10T15:17:45Z</time>
      </trkpt>
      <trkpt lat="43.1531" lon="2.47133">
        <ele>163.5</ele>
        <time>2024-05-10T15:17:46Z</time>
      </trkpt>
      <trkpt lat="43.15313" lon="2.47117">
        <ele>163.5</ele>
        <time>2024-05-10T15:17:47Z</time>
      </trkpt>
      <trkpt lat="43.15317" lon="2.47099">
        <ele>163.6</ele>
        <time>2024-05-10T15:17:48Z</time>
      </trkpt>
      <trkpt lat="43.15319" lon="2.47081">
        <ele>163.3</ele>
        <time>2024-05-10T15:17:49Z</time>
      </trkpt>
      <trkpt lat="43.15321" lon="2.47061">
        <ele>163</ele>
        <time>2024-05-10T15:17:50Z</time>
      </trkpt>
      <trkpt lat="43.15322" lon="2.4704">
        <ele>163</ele>
        <time>2024-05-10T15:17:51Z</time>
      </trkpt>
      <trkpt lat="43.15322" lon="2.47018">
        <ele>162.8</ele>
        <time>2024-05-10T15:17:52Z</time>
      </trkpt>
      <trkpt lat="43.15322" lon="2.46997">
        <ele>162.3</ele>
        <time>2024-05-10T15:17:53Z</time>
      </trkpt>
      <trkpt lat="43.15322" lon="2.46976">
        <ele>162</ele>
        <time>2024-05-10T15:17:54Z</time>
      </trkpt>
      <trkpt lat="43.15322" lon="2.46954">
        <ele>162</ele>
        <time>2024-05-10T15:17:55Z</time>
      </trkpt>
      <trkpt lat="43.15322" lon="2.46931">
        <ele>162</ele>
        <time>2024-05-10T15:17:56Z</time>
      </trkpt>
      <trkpt lat="43.15323" lon="2.46908">
        <ele>161.8</ele>
        <time>2024-05-10T15:17:57Z</time>
      </trkpt>
      <trkpt lat="43.15323" lon="2.46884">
        <ele>161.3</ele>
        <time>2024-05-10T15:17:58Z</time>
      </trkpt>
      <trkpt lat="43.15323" lon="2.46861">
        <ele>161.9</ele>
        <time>2024-05-10T15:17:59Z</time>
      </trkpt>
      <trkpt lat="43.15323" lon="2.46839">
        <ele>162.4</ele>
        <time>2024-05-10T15:18:00Z</time>
      </trkpt>
      <trkpt lat="43.15323" lon="2.46818">
        <ele>162.7</ele>
        <time>2024-05-10T15:18:01Z</time>
      </trkpt>
      <trkpt lat="43.15322" lon="2.46797">
        <ele>162.8</ele>
        <time>2024-05-10T15:18:02Z</time>
      </trkpt>
      <trkpt lat="43.15322" lon="2.46776">
        <ele>162.7</ele>
        <time>2024-05-10T15:18:03Z</time>
      </trkpt>
      <trkpt lat="43.15322" lon="2.46757">
        <ele>162.5</ele>
        <time>2024-05-10T15:18:04Z</time>
      </trkpt>
      <trkpt lat="43.15322" lon="2.46737">
        <ele>162.1</ele>
        <time>2024-05-10T15:18:05Z</time>
      </trkpt>
      <trkpt lat="43.15322" lon="2.46716">
        <ele>161.7</ele>
        <time>2024-05-10T15:18:06Z</time>
      </trkpt>
      <trkpt lat="43.15322" lon="2.46694">
        <ele>161.4</ele>
        <time>2024-05-10T15:18:07Z</time>
      </trkpt>
      <trkpt lat="43.15323" lon="2.46671">
        <ele>161</ele>
        <time>2024-05-10T15:18:08Z</time>
      </trkpt>
      <trkpt lat="43.15323" lon="2.46649">
        <ele>160.9</ele>
        <time>2024-05-10T15:18:09Z</time>
      </trkpt>
      <trkpt lat="43.15325" lon="2.46628">
        <ele>161.4</ele>
        <time>2024-05-10T15:18:10Z</time>
      </trkpt>
      <trkpt lat="43.15326" lon="2.46607">
        <ele>161.8</ele>
        <time>2024-05-10T15:18:11Z</time>
      </trkpt>
      <trkpt lat="43.15328" lon="2.46585">
        <ele>161.3</ele>
        <time>2024-05-10T15:18:12Z</time>
      </trkpt>
      <trkpt lat="43.1533" lon="2.46563">
        <ele>160.8</ele>
        <time>2024-05-10T15:18:13Z</time>
      </trkpt>
      <trkpt lat="43.15332" lon="2.4654">
        <ele>160.8</ele>
        <time>2024-05-10T15:18:14Z</time>
      </trkpt>
      <trkpt lat="43.15336" lon="2.46517">
        <ele>161.8</ele>
        <time>2024-05-10T15:18:15Z</time>
      </trkpt>
      <trkpt lat="43.1534" lon="2.46495">
        <ele>162.8</ele>
        <time>2024-05-10T15:18:16Z</time>
      </trkpt>
      <trkpt lat="43.15346" lon="2.46474">
        <ele>163.3</ele>
        <time>2024-05-10T15:18:17Z</time>
      </trkpt>
      <trkpt lat="43.15353" lon="2.46456">
        <ele>164.5</ele>
        <time>2024-05-10T15:18:18Z</time>
      </trkpt>
      <trkpt lat="43.1536" lon="2.46439">
        <ele>165.8</ele>
        <time>2024-05-10T15:18:19Z</time>
      </trkpt>
      <trkpt lat="43.15366" lon="2.46423">
        <ele>166.7</ele>
        <time>2024-05-10T15:18:20Z</time>
      </trkpt>
      <trkpt lat="43.15372" lon="2.46408">
        <ele>167.6</ele>
        <time>2024-05-10T15:18:21Z</time>
      </trkpt>
      <trkpt lat="43.15377" lon="2.46394">
        <ele>168.3</ele>
        <time>2024-05-10T15:18:22Z</time>
      </trkpt>
      <trkpt lat="43.15382" lon="2.46383">
        <ele>168.8</ele>
        <time>2024-05-10T15:18:23Z</time>
      </trkpt>
      <trkpt lat="43.15386" lon="2.46373">
        <ele>169</ele>
        <time>2024-05-10T15:18:24Z</time>
      </trkpt>
      <trkpt lat="43.15389" lon="2.46364">
        <ele>169.1</ele>
        <time>2024-05-10T15:18:25Z</time>
      </trkpt>
      <trkpt lat="43.15393" lon="2.46357">
        <ele>169.4</ele>
        <time>2024-05-10T15:18:26Z</time>
      </trkpt>
      <trkpt lat="43.15396" lon="2.46351">
        <ele>169.6</ele>
        <time>2024-05-10T15:18:27Z</time>
      </trkpt>
      <trkpt lat="43.15398" lon="2.46346">
        <ele>169.6</ele>
        <time>2024-05-10T15:18:28Z</time>
      </trkpt>
      <trkpt lat="43.154" lon="2.46342">
        <ele>169.6</ele>
        <time>2024-05-10T15:18:29Z</time>
      </trkpt>
      <trkpt lat="43.15402" lon="2.46338">
        <ele>169.7</ele>
        <time>2024-05-10T15:18:30Z</time>
      </trkpt>
      <trkpt lat="43.15404" lon="2.46334">
        <ele>169.7</ele>
        <time>2024-05-10T15:18:31Z</time>
      </trkpt>
      <trkpt lat="43.15406" lon="2.46332">
        <ele>169.8</ele>
        <time>2024-05-10T15:18:32Z</time>
      </trkpt>
      <trkpt lat="43.15408" lon="2.46329">
        <ele>169.8</ele>
        <time>2024-05-10T15:18:33Z</time>
      </trkpt>
      <trkpt lat="43.1541" lon="2.46325">
        <ele>169.8</ele>
        <time>2024-05-10T15:18:34Z</time>
      </trkpt>
      <trkpt lat="43.15412" lon="2.46321">
        <ele>169.7</ele>
        <time>2024-05-10T15:18:35Z</time>
      </trkpt>
      <trkpt lat="43.15414" lon="2.46317">
        <ele>169.6</ele>
        <time>2024-05-10T15:18:36Z</time>
      </trkpt>
      <trkpt lat="43.15417" lon="2.46313">
        <ele>169.6</ele>
        <time>2024-05-10T15:18:37Z</time>
      </trkpt>
      <trkpt lat="43.1542" lon="2.46309">
        <ele>169.6</ele>
        <time>2024-05-10T15:18:38Z</time>
      </trkpt>
      <trkpt lat="43.15422" lon="2.46305">
        <ele>169.5</ele>
        <time>2024-05-10T15:18:39Z</time>
      </trkpt>
      <trkpt lat="43.15425" lon="2.46301">
        <ele>169.6</ele>
        <time>2024-05-10T15:18:40Z</time>
      </trkpt>
      <trkpt lat="43.15427" lon="2.46296">
        <ele>169.6</ele>
        <time>2024-05-10T15:18:41Z</time>
      </trkpt>
      <trkpt lat="43.1543" lon="2.46292">
        <ele>169.7</ele>
        <time>2024-05-10T15:18:42Z</time>
      </trkpt>
      <trkpt lat="43.15432" lon="2.46289">
        <ele>169.8</ele>
        <time>2024-05-10T15:18:43Z</time>
      </trkpt>
      <trkpt lat="43.15434" lon="2.46285">
        <ele>169.9</ele>
        <time>2024-05-10T15:18:44Z</time>
      </trkpt>
      <trkpt lat="43.15436" lon="2.46282">
        <ele>170</ele>
        <time>2024-05-10T15:18:45Z</time>
      </trkpt>
      <trkpt lat="43.15438" lon="2.46278">
        <ele>170.1</ele>
        <time>2024-05-10T15:18:46Z</time>
      </trkpt>
      <trkpt lat="43.1544" lon="2.46275">
        <ele>170.3</ele>
        <time>2024-05-10T15:18:47Z</time>
      </trkpt>
      <trkpt lat="43.15442" lon="2.46271">
        <ele>170.4</ele>
        <time>2024-05-10T15:18:48Z</time>
      </trkpt>
      <trkpt lat="43.15443" lon="2.46268">
        <ele>170.5</ele>
        <time>2024-05-10T15:18:49Z</time>
      </trkpt>
      <trkpt lat="43.15445" lon="2.46265">
        <ele>170.6</ele>
        <time>2024-05-10T15:18:50Z</time>
      </trkpt>
      <trkpt lat="43.15447" lon="2.46261">
        <ele>170.6</ele>
        <time>2024-05-10T15:18:51Z</time>
      </trkpt>
      <trkpt lat="43.15449" lon="2.46258">
        <ele>170.6</ele>
        <time>2024-05-10T15:18:52Z</time>
      </trkpt>
      <trkpt lat="43.1545" lon="2.46256">
        <ele>170.6</ele>
        <time>2024-05-10T15:18:53Z</time>
      </trkpt>
      <trkpt lat="43.15452" lon="2.46254">
        <ele>170.7</ele>
        <time>2024-05-10T15:18:54Z</time>
      </trkpt>
      <trkpt lat="43.15452" lon="2.46253">
        <ele>170.7</ele>
        <time>2024-05-10T15:18:55Z</time>
      </trkpt>
      <trkpt lat="43.15452" lon="2.46253">
        <ele>170.7</ele>
        <time>2024-05-10T15:18:56Z</time>
      </trkpt>
      <trkpt lat="43.15452" lon="2.46253">
        <ele>170.7</ele>
        <time>2024-05-10T15:18:57Z</time>
      </trkpt>
      <trkpt lat="43.15451" lon="2.46254">
        <ele>170.6</ele>
        <time>2024-05-10T15:18:58Z</time>
      </trkpt>
      <trkpt lat="43.15451" lon="2.46254">
        <ele>170.6</ele>
        <time>2024-05-10T15:18:59Z</time>
      </trkpt>
      <trkpt lat="43.15451" lon="2.46254">
        <ele>170.6</ele>
        <time>2024-05-10T15:19:00Z</time>
      </trkpt>
      <trkpt lat="43.15451" lon="2.46254">
        <ele>170.6</ele>
        <time>2024-05-10T15:19:01Z</time>
      </trkpt>
      <trkpt lat="43.15451" lon="2.46254">
        <ele>170.6</ele>
        <time>2024-05-10T15:19:02Z</time>
      </trkpt>
      <trkpt lat="43.15451" lon="2.46254">
        <ele>170.6</ele>
        <time>2024-05-10T15:19:03Z</time>
      </trkpt>
      <trkpt lat="43.15451" lon="2.46254">
        <ele>170.6</ele>
        <time>2024-05-10T15:19:04Z</time>
      </trkpt>
      <trkpt lat="43.15451" lon="2.46254">
        <ele>170.6</ele>
        <time>2024-05-10T15:19:05Z</time>
      </trkpt>
      <trkpt lat="43.15451" lon="2.46254">
        <ele>170.6</ele>
        <time>2024-05-10T15:19:06Z</time>
      </trkpt>
      <trkpt lat="43.15451" lon="2.46254">
        <ele>170.6</ele>
        <time>2024-05-10T15:19:07Z</time>
      </trkpt>
      <trkpt lat="43.15451" lon="2.46254">
        <ele>170.6</ele>
        <time>2024-05-10T15:19:08Z</time>
      </trkpt>
      <trkpt lat="43.15451" lon="2.46254">
        <ele>170.6</ele>
        <time>2024-05-10T15:19:09Z</time>
      </trkpt>
      <trkpt lat="43.15451" lon="2.46254">
        <ele>170.6</ele>
        <time>2024-05-10T15:19:10Z</time>
      </trkpt>
      <trkpt lat="43.15451" lon="2.46254">
        <ele>170.6</ele>
        <time>2024-05-10T15:19:11Z</time>
      </trkpt>
      <trkpt lat="43.15451" lon="2.46254">
        <ele>170.6</ele>
        <time>2024-05-10T15:19:12Z</time>
      </trkpt>
      <trkpt lat="43.15451" lon="2.46254">
        <ele>170.6</ele>
        <time>2024-05-10T15:19:13Z</time>
      </trkpt>
      <trkpt lat="43.15451" lon="2.46254">
        <ele>170.6</ele>
        <time>2024-05-10T15:19:14Z</time>
      </trkpt>
      <trkpt lat="43.15451" lon="2.46254">
        <ele>170.6</ele>
        <time>2024-05-10T15:19:15Z</time>
      </trkpt>
      <trkpt lat="43.15451" lon="2.46254">
        <ele>170.6</ele>
        <time>2024-05-10T15:19:16Z</time>
      </trkpt>
      <trkpt lat="43.15451" lon="2.46254">
        <ele>170.6</ele>
        <time>2024-05-10T15:19:17Z</time>
      </trkpt>
      <trkpt lat="43.15451" lon="2.46254">
        <ele>170.6</ele>
        <time>2024-05-10T15:19:18Z</time>
      </trkpt>
      <trkpt lat="43.15451" lon="2.46254">
        <ele>170.6</ele>
        <time>2024-05-10T15:19:19Z</time>
      </trkpt>
      <trkpt lat="43.15451" lon="2.46254">
        <ele>170.6</ele>
        <time>2024-05-10T15:19:20Z</time>
      </trkpt>
      <trkpt lat="43.15451" lon="2.46254">
        <ele>170.6</ele>
        <time>2024-05-10T15:19:21Z</time>
      </trkpt>
      <trkpt lat="43.15451" lon="2.46254">
        <ele>170.6</ele>
        <time>2024-05-10T15:19:22Z</time>
      </trkpt>
      <trkpt lat="43.15451" lon="2.46254">
        <ele>170.6</ele>
        <time>2024-05-10T15:19:23Z</time>
      </trkpt>
      <trkpt lat="43.15451" lon="2.46254">
        <ele>170.6</ele>
        <time>2024-05-10T15:19:24Z</time>
      </trkpt>
      <trkpt lat="43.15451" lon="2.46254">
        <ele>170.6</ele>
        <time>2024-05-10T15:19:25Z</time>
      </trkpt>
      <trkpt lat="43.15451" lon="2.46254">
        <ele>170.6</ele>
        <time>2024-05-10T15:19:26Z</time>
      </trkpt>
      <trkpt lat="43.15451" lon="2.46254">
        <ele>170.6</ele>
        <time>2024-05-10T15:19:27Z</time>
      </trkpt>
      <trkpt lat="43.15451" lon="2.46254">
        <ele>170.6</ele>
        <time>2024-05-10T15:19:28Z</time>
      </trkpt>
      <trkpt lat="43.15451" lon="2.46254">
        <ele>170.6</ele>
        <time>2024-05-10T15:19:29Z</time>
      </trkpt>
      <trkpt lat="43.15451" lon="2.46254">
        <ele>170.6</ele>
        <time>2024-05-10T15:19:30Z</time>
      </trkpt>
      <trkpt lat="43.15451" lon="2.46254">
        <ele>170.6</ele>
        <time>2024-05-10T15:19:31Z</time>
      </trkpt>
      <trkpt lat="43.15451" lon="2.46254">
        <ele>170.6</ele>
        <time>2024-05-10T15:19:32Z</time>
      </trkpt>
      <trkpt lat="43.15451" lon="2.46254">
        <ele>170.6</ele>
        <time>2024-05-10T15:19:33Z</time>
      </trkpt>
      <trkpt lat="43.15451" lon="2.46254">
        <ele>170.6</ele>
        <time>2024-05-10T15:19:34Z</time>
      </trkpt>
      <trkpt lat="43.15451" lon="2.46254">
        <ele>170.6</ele>
        <time>2024-05-10T15:19:35Z</time>
      </trkpt>
      <trkpt lat="43.15451" lon="2.46254">
        <ele>170.6</ele>
        <time>2024-05-10T15:19:36Z</time>
      </trkpt>
      <trkpt lat="43.15451" lon="2.46254">
        <ele>170.6</ele>
        <time>2024-05-10T15:19:37Z</time>
      </trkpt>
      <trkpt lat="43.15451" lon="2.46254">
        <ele>170.6</ele>
        <time>2024-05-10T15:19:38Z</time>
      </trkpt>
      <trkpt lat="43.15451" lon="2.46254">
        <ele>170.6</ele>
        <time>2024-05-10T15:19:39Z</time>
      </trkpt>
      <trkpt lat="43.15451" lon="2.46254">
        <ele>170.6</ele>
        <time>2024-05-10T15:19:40Z</time>
      </trkpt>
      <trkpt lat="43.15451" lon="2.46254">
        <ele>170.6</ele>
        <time>2024-05-10T15:19:41Z</time>
      </trkpt>
      <trkpt lat="43.15451" lon="2.46254">
        <ele>170.6</ele>
        <time>2024-05-10T15:19:42Z</time>
      </trkpt>
      <trkpt lat="43.15451" lon="2.46254">
        <ele>170.6</ele>
        <time>2024-05-10T15:19:43Z</time>
      </trkpt>
      <trkpt lat="43.15451" lon="2.46254">
        <ele>170.6</ele>
        <time>2024-05-10T15:19:44Z</time>
      </trkpt>
      <trkpt lat="43.15451" lon="2.46254">
        <ele>170.6</ele>
        <time>2024-05-10T15:19:45Z</time>
      </trkpt>
      <trkpt lat="43.15451" lon="2.46254">
        <ele>170.6</ele>
        <time>2024-05-10T15:19:46Z</time>
      </trkpt>
      <trkpt lat="43.15451" lon="2.46254">
        <ele>170.6</ele>
        <time>2024-05-10T15:19:47Z</time>
      </trkpt>
      <trkpt lat="43.15451" lon="2.46254">
        <ele>170.6</ele>
        <time>2024-05-10T15:19:48Z</time>
      </trkpt>
      <trkpt lat="43.15451" lon="2.46254">
        <ele>170.6</ele>
        <time>2024-05-10T15:19:49Z</time>
      </trkpt>
      <trkpt lat="43.15451" lon="2.46254">
        <ele>170.6</ele>
        <time>2024-05-10T15:19:50Z</time>
      </trkpt>
      <trkpt lat="43.15451" lon="2.46254">
        <ele>170.6</ele>
        <time>2024-05-10T15:19:51Z</time>
      </trkpt>
      <trkpt lat="43.15451" lon="2.46254">
        <ele>170.6</ele>
        <time>2024-05-10T15:19:52Z</time>
      </trkpt>
      <trkpt lat="43.15451" lon="2.46254">
        <ele>170.6</ele>
        <time>2024-05-10T15:19:53Z</time>
      </trkpt>
      <trkpt lat="43.15451" lon="2.46254">
        <ele>170.6</ele>
        <time>2024-05-10T15:19:54Z</time>
      </trkpt>
      <trkpt lat="43.15451" lon="2.46254">
        <ele>170.6</ele>
        <time>2024-05-10T15:19:55Z</time>
      </trkpt>
      <trkpt lat="43.15451" lon="2.46254">
        <ele>170.6</ele>
        <time>2024-05-10T15:19:56Z</time>
      </trkpt>
      <trkpt lat="43.15451" lon="2.46254">
        <ele>170.6</ele>
        <time>2024-05-10T15:19:57Z</time>
      </trkpt>
      <trkpt lat="43.15451" lon="2.46254">
        <ele>170.6</ele>
        <time>2024-05-10T15:19:58Z</time>
      </trkpt>
      <trkpt lat="43.15451" lon="2.46254">
        <ele>170.6</ele>
        <time>2024-05-10T15:19:59Z</time>
      </trkpt>
      <trkpt lat="43.15451" lon="2.46254">
        <ele>170.6</ele>
        <time>2024-05-10T15:20:00Z</time>
      </trkpt>
      <trkpt lat="43.15451" lon="2.46254">
        <ele>170.6</ele>
        <time>2024-05-10T15:20:01Z</time>
      </trkpt>
      <trkpt lat="43.15451" lon="2.46254">
        <ele>170.6</ele>
        <time>2024-05-10T15:20:02Z</time>
      </trkpt>
      <trkpt lat="43.15451" lon="2.46254">
        <ele>170.6</ele>
        <time>2024-05-10T15:20:03Z</time>
      </trkpt>
      <trkpt lat="43.15451" lon="2.46254">
        <ele>170.6</ele>
        <time>2024-05-10T15:20:04Z</time>
      </trkpt>
      <trkpt lat="43.15451" lon="2.46254">
        <ele>170.6</ele>
        <time>2024-05-10T15:20:05Z</time>
      </trkpt>
      <trkpt lat="43.15451" lon="2.46254">
        <ele>170.6</ele>
        <time>2024-05-10T15:20:06Z</time>
      </trkpt>
      <trkpt lat="43.15451" lon="2.46254">
        <ele>170.6</ele>
        <time>2024-05-10T15:20:07Z</time>
      </trkpt>
      <trkpt lat="43.15451" lon="2.46254">
        <ele>170.6</ele>
        <time>2024-05-10T15:20:08Z</time>
      </trkpt>
      <trkpt lat="43.15451" lon="2.46254">
        <ele>170.6</ele>
        <time>2024-05-10T15:20:09Z</time>
      </trkpt>
      <trkpt lat="43.15451" lon="2.46254">
        <ele>170.6</ele>
        <time>2024-05-10T15:20:10Z</time>
      </trkpt>
      <trkpt lat="43.15451" lon="2.46254">
        <ele>170.6</ele>
        <time>2024-05-10T15:20:11Z</time>
      </trkpt>
      <trkpt lat="43.15451" lon="2.46254">
        <ele>170.6</ele>
        <time>2024-05-10T15:20:12Z</time>
      </trkpt>
      <trkpt lat="43.15451" lon="2.46254">
        <ele>170.6</ele>
        <time>2024-05-10T15:20:13Z</time>
      </trkpt>
      <trkpt lat="43.15451" lon="2.46254">
        <ele>170.6</ele>
        <time>2024-05-10T15:20:14Z</time>
      </trkpt>
      <trkpt lat="43.15451" lon="2.46254">
        <ele>170.6</ele>
        <time>2024-05-10T15:20:15Z</time>
      </trkpt>
      <trkpt lat="43.15451" lon="2.46254">
        <ele>170.6</ele>
        <time>2024-05-10T15:20:16Z</time>
      </trkpt>
      <trkpt lat="43.15451" lon="2.46254">
        <ele>170.6</ele>
        <time>2024-05-10T15:20:17Z</time>
      </trkpt>
      <trkpt lat="43.15451" lon="2.46254">
        <ele>170.6</ele>
        <time>2024-05-10T15:20:18Z</time>
      </trkpt>
      <trkpt lat="43.15451" lon="2.46254">
        <ele>170.6</ele>
        <time>2024-05-10T15:20:19Z</time>
      </trkpt>
      <trkpt lat="43.15451" lon="2.46254">
        <ele>170.6</ele>
        <time>2024-05-10T15:20:20Z</time>
      </trkpt>
      <trkpt lat="43.15451" lon="2.46254">
        <ele>170.6</ele>
        <time>2024-05-10T15:20:21Z</time>
      </trkpt>
      <trkpt lat="43.15451" lon="2.46254">
        <ele>170.6</ele>
        <time>2024-05-10T15:20:22Z</time>
      </trkpt>
      <trkpt lat="43.15451" lon="2.46254">
        <ele>170.6</ele>
        <time>2024-05-10T15:20:23Z</time>
      </trkpt>
      <trkpt lat="43.15451" lon="2.46254">
        <ele>170.6</ele>
        <time>2024-05-10T15:20:24Z</time>
      </trkpt>
      <trkpt lat="43.15451" lon="2.46254">
        <ele>170.6</ele>
        <time>2024-05-10T15:20:25Z</time>
      </trkpt>
      <trkpt lat="43.15451" lon="2.46254">
        <ele>170.6</ele>
        <time>2024-05-10T15:20:26Z</time>
      </trkpt>
      <trkpt lat="43.15451" lon="2.46254">
        <ele>170.6</ele>
        <time>2024-05-10T15:20:27Z</time>
      </trkpt>
      <trkpt lat="43.15451" lon="2.46254">
        <ele>170.6</ele>
        <time>2024-05-10T15:20:28Z</time>
      </trkpt>
      <trkpt lat="43.15451" lon="2.46254">
        <ele>170.6</ele>
        <time>2024-05-10T15:20:29Z</time>
      </trkpt>
      <trkpt lat="43.15451" lon="2.46254">
        <ele>170.6</ele>
        <time>2024-05-10T15:20:30Z</time>
      </trkpt>
      <trkpt lat="43.15451" lon="2.46254">
        <ele>170.6</ele>
        <time>2024-05-10T15:20:31Z</time>
      </trkpt>
      <trkpt lat="43.15451" lon="2.46254">
        <ele>170.6</ele>
        <time>2024-05-10T15:20:32Z</time>
      </trkpt>
      <trkpt lat="43.15451" lon="2.46254">
        <ele>170.6</ele>
        <time>2024-05-10T15:20:33Z</time>
      </trkpt>
      <trkpt lat="43.15451" lon="2.46254">
        <ele>170.6</ele>
        <time>2024-05-10T15:20:34Z</time>
      </trkpt>
      <trkpt lat="43.15451" lon="2.46254">
        <ele>170.6</ele>
        <time>2024-05-10T15:20:35Z</time>
      </trkpt>
      <trkpt lat="43.15451" lon="2.46254">
        <ele>170.6</ele>
        <time>2024-05-10T15:20:36Z</time>
      </trkpt>
      <trkpt lat="43.15452" lon="2.46253">
        <ele>170.7</ele>
        <time>2024-05-10T15:20:37Z</time>
      </trkpt>
      <trkpt lat="43.15454" lon="2.46249">
        <ele>170.6</ele>
        <time>2024-05-10T15:20:38Z</time>
      </trkpt>
      <trkpt lat="43.15458" lon="2.46241">
        <ele>170.3</ele>
        <time>2024-05-10T15:20:39Z</time>
      </trkpt>
      <trkpt lat="43.15463" lon="2.46233">
        <ele>170.1</ele>
        <time>2024-05-10T15:20:40Z</time>
      </trkpt>
      <trkpt lat="43.15468" lon="2.46225">
        <ele>169.9</ele>
        <time>2024-05-10T15:20:41Z</time>
      </trkpt>
      <trkpt lat="43.15473" lon="2.46218">
        <ele>169.8</ele>
        <time>2024-05-10T15:20:42Z</time>
      </trkpt>
      <trkpt lat="43.15477" lon="2.46211">
        <ele>169.6</ele>
        <time>2024-05-10T15:20:43Z</time>
      </trkpt>
      <trkpt lat="43.1548" lon="2.46205">
        <ele>169.5</ele>
        <time>2024-05-10T15:20:44Z</time>
      </trkpt>
      <trkpt lat="43.15484" lon="2.46198">
        <ele>169.5</ele>
        <time>2024-05-10T15:20:45Z</time>
      </trkpt>
      <trkpt lat="43.15487" lon="2.46192">
        <ele>169.5</ele>
        <time>2024-05-10T15:20:46Z</time>
      </trkpt>
      <trkpt lat="43.15491" lon="2.46185">
        <ele>169.5</ele>
        <time>2024-05-10T15:20:47Z</time>
      </trkpt>
      <trkpt lat="43.15495" lon="2.46178">
        <ele>169.4</ele>
        <time>2024-05-10T15:20:48Z</time>
      </trkpt>
      <trkpt lat="43.15499" lon="2.46171">
        <ele>169.2</ele>
        <time>2024-05-10T15:20:49Z</time>
      </trkpt>
      <trkpt lat="43.15503" lon="2.46164">
        <ele>169</ele>
        <time>2024-05-10T15:20:50Z</time>
      </trkpt>
      <trkpt lat="43.15506" lon="2.46158">
        <ele>168.8</ele>
        <time>2024-05-10T15:20:51Z</time>
      </trkpt>
      <trkpt lat="43.1551" lon="2.46151">
        <ele>168.6</ele>
        <time>2024-05-10T15:20:52Z</time>
      </trkpt>
      <trkpt lat="43.15514" lon="2.46145">
        <ele>168.4</ele>
        <time>2024-05-10T15:20:53Z</time>
      </trkpt>
      <trkpt lat="43.15518" lon="2.46139">
        <ele>168.3</ele>
        <time>2024-05-10T15:20:54Z</time>
      </trkpt>
      <trkpt lat="43.15522" lon="2.46133">
        <ele>168.2</ele>
        <time>2024-05-10T15:20:55Z</time>
      </trkpt>
      <trkpt lat="43.15526" lon="2.46127">
        <ele>168</ele>
        <time>2024-05-10T15:20:56Z</time>
      </trkpt>
      <trkpt lat="43.1553" lon="2.46121">
        <ele>167.8</ele>
        <time>2024-05-10T15:20:57Z</time>
      </trkpt>
      <trkpt lat="43.15534" lon="2.46116">
        <ele>167.6</ele>
        <time>2024-05-10T15:20:58Z</time>
      </trkpt>
      <trkpt lat="43.15538" lon="2.46111">
        <ele>167.4</ele>
        <time>2024-05-10T15:20:59Z</time>
      </trkpt>
      <trkpt lat="43.15542" lon="2.46106">
        <ele>167.1</ele>
        <time>2024-05-10T15:21:00Z</time>
      </trkpt>
      <trkpt lat="43.15546" lon="2.46101">
        <ele>166.9</ele>
        <time>2024-05-10T15:21:01Z</time>
      </trkpt>
      <trkpt lat="43.1555" lon="2.46096">
        <ele>166.7</ele>
        <time>2024-05-10T15:21:02Z</time>
      </trkpt>
      <trkpt lat="43.15555" lon="2.46091">
        <ele>166.5</ele>
        <time>2024-05-10T15:21:03Z</time>
      </trkpt>
      <trkpt lat="43.1556" lon="2.46085">
        <ele>166.4</ele>
        <time>2024-05-10T15:21:04Z</time>
      </trkpt>
      <trkpt lat="43.15565" lon="2.46078">
        <ele>166.1</ele>
        <time>2024-05-10T15:21:05Z</time>
      </trkpt>
      <trkpt lat="43.15571" lon="2.46072">
        <ele>165.9</ele>
        <time>2024-05-10T15:21:06Z</time>
      </trkpt>
      <trkpt lat="43.15577" lon="2.46067">
        <ele>165.8</ele>
        <time>2024-05-10T15:21:07Z</time>
      </trkpt>
      <trkpt lat="43.15582" lon="2.46061">
        <ele>165.5</ele>
        <time>2024-05-10T15:21:08Z</time>
      </trkpt>
      <trkpt lat="43.15588" lon="2.46055">
        <ele>165.1</ele>
        <time>2024-05-10T15:21:09Z</time>
      </trkpt>
      <trkpt lat="43.15593" lon="2.4605">
        <ele>164.9</ele>
        <time>2024-05-10T15:21:10Z</time>
      </trkpt>
      <trkpt lat="43.15599" lon="2.46045">
        <ele>164.6</ele>
        <time>2024-05-10T15:21:11Z</time>
      </trkpt>
      <trkpt lat="43.15604" lon="2.4604">
        <ele>164.2</ele>
        <time>2024-05-10T15:21:12Z</time>
      </trkpt>
      <trkpt lat="43.1561" lon="2.46035">
        <ele>163.8</ele>
        <time>2024-05-10T15:21:13Z</time>
      </trkpt>
      <trkpt lat="43.15615" lon="2.46031">
        <ele>163.5</ele>
        <time>2024-05-10T15:21:14Z</time>
      </trkpt>
      <trkpt lat="43.15621" lon="2.46026">
        <ele>163.2</ele>
        <time>2024-05-10T15:21:15Z</time>
      </trkpt>
      <trkpt lat="43.15628" lon="2.46021">
        <ele>163.1</ele>
        <time>2024-05-10T15:21:16Z</time>
      </trkpt>
      <trkpt lat="43.15635" lon="2.46016">
        <ele>163</ele>
        <time>2024-05-10T15:21:17Z</time>
      </trkpt>
      <trkpt lat="43.15642" lon="2.46011">
        <ele>162.8</ele>
        <time>2024-05-10T15:21:18Z</time>
      </trkpt>
      <trkpt lat="43.1565" lon="2.46007">
        <ele>162.6</ele>
        <time>2024-05-10T15:21:19Z</time>
      </trkpt>
      <trkpt lat="43.15658" lon="2.46002">
        <ele>162.2</ele>
        <time>2024-05-10T15:21:20Z</time>
      </trkpt>
      <trkpt lat="43.15667" lon="2.45999">
        <ele>161.9</ele>
        <time>2024-05-10T15:21:21Z</time>
      </trkpt>
      <trkpt lat="43.15677" lon="2.45996">
        <ele>160.8</ele>
        <time>2024-05-10T15:21:22Z</time>
      </trkpt>
      <trkpt lat="43.15687" lon="2.45994">
        <ele>159.9</ele>
        <time>2024-05-10T15:21:23Z</time>
      </trkpt>
      <trkpt lat="43.15696" lon="2.45991">
        <ele>159</ele>
        <time>2024-05-10T15:21:24Z</time>
      </trkpt>
      <trkpt lat="43.15705" lon="2.45988">
        <ele>158.5</ele>
        <time>2024-05-10T15:21:25Z</time>
      </trkpt>
      <trkpt lat="43.15715" lon="2.45986">
        <ele>158.1</ele>
        <time>2024-05-10T15:21:26Z</time>
      </trkpt>
      <trkpt lat="43.15724" lon="2.45983">
        <ele>157.7</ele>
        <time>2024-05-10T15:21:27Z</time>
      </trkpt>
      <trkpt lat="43.15734" lon="2.4598">
        <ele>157.1</ele>
        <time>2024-05-10T15:21:28Z</time>
      </trkpt>
      <trkpt lat="43.15743" lon="2.45977">
        <ele>156.6</ele>
        <time>2024-05-10T15:21:29Z</time>
      </trkpt>
      <trkpt lat="43.15752" lon="2.45975">
        <ele>156.2</ele>
        <time>2024-05-10T15:21:30Z</time>
      </trkpt>
      <trkpt lat="43.15761" lon="2.45972">
        <ele>156</ele>
        <time>2024-05-10T15:21:31Z</time>
      </trkpt>
      <trkpt lat="43.15771" lon="2.45968">
        <ele>155.4</ele>
        <time>2024-05-10T15:21:32Z</time>
      </trkpt>
      <trkpt lat="43.1578" lon="2.45964">
        <ele>154.9</ele>
        <time>2024-05-10T15:21:33Z</time>
      </trkpt>
      <trkpt lat="43.15789" lon="2.45959">
        <ele>154.5</ele>
        <time>2024-05-10T15:21:34Z</time>
      </trkpt>
      <trkpt lat="43.15798" lon="2.45955">
        <ele>154.4</ele>
        <time>2024-05-10T15:21:35Z</time>
      </trkpt>
      <trkpt lat="43.15808" lon="2.4595">
        <ele>154.5</ele>
        <time>2024-05-10T15:21:36Z</time>
      </trkpt>
      <trkpt lat="43.15817" lon="2.45943">
        <ele>154.3</ele>
        <time>2024-05-10T15:21:37Z</time>
      </trkpt>
      <trkpt lat="43.15827" lon="2.45933">
        <ele>153.9</ele>
        <time>2024-05-10T15:21:38Z</time>
      </trkpt>
      <trkpt lat="43.15836" lon="2.45921">
        <ele>153.5</ele>
        <time>2024-05-10T15:21:39Z</time>
      </trkpt>
      <trkpt lat="43.15846" lon="2.45908">
        <ele>153.3</ele>
        <time>2024-05-10T15:21:40Z</time>
      </trkpt>
      <trkpt lat="43.15854" lon="2.45893">
        <ele>152.8</ele>
        <time>2024-05-10T15:21:41Z</time>
      </trkpt>
      <trkpt lat="43.15863" lon="2.45878">
        <ele>152.7</ele>
        <time>2024-05-10T15:21:42Z</time>
      </trkpt>
      <trkpt lat="43.15871" lon="2.45859">
        <ele>152.6</ele>
        <time>2024-05-10T15:21:43Z</time>
      </trkpt>
      <trkpt lat="43.15879" lon="2.45839">
        <ele>151.7</ele>
        <time>2024-05-10T15:21:44Z</time>
      </trkpt>
      <trkpt lat="43.15886" lon="2.45818">
        <ele>150.7</ele>
        <time>2024-05-10T15:21:45Z</time>
      </trkpt>
      <trkpt lat="43.15893" lon="2.45798">
        <ele>149.6</ele>
        <time>2024-05-10T15:21:46Z</time>
      </trkpt>
      <trkpt lat="43.15901" lon="2.45777">
        <ele>148.8</ele>
        <time>2024-05-10T15:21:47Z</time>
      </trkpt>
      <trkpt lat="43.15908" lon="2.45755">
        <ele>147.7</ele>
        <time>2024-05-10T15:21:48Z</time>
      </trkpt>
      <trkpt lat="43.15917" lon="2.45732">
        <ele>146.7</ele>
        <time>2024-05-10T15:21:49Z</time>
      </trkpt>
      <trkpt lat="43.15925" lon="2.45709">
        <ele>145.9</ele>
        <time>2024-05-10T15:21:50Z</time>
      </trkpt>
      <trkpt lat="43.15933" lon="2.45685">
        <ele>145</ele>
        <time>2024-05-10T15:21:51Z</time>
      </trkpt>
      <trkpt lat="43.15942" lon="2.45661">
        <ele>143.5</ele>
        <time>2024-05-10T15:21:52Z</time>
      </trkpt>
      <trkpt lat="43.15951" lon="2.45636">
        <ele>142.2</ele>
        <time>2024-05-10T15:21:53Z</time>
      </trkpt>
      <trkpt lat="43.1596" lon="2.45613">
        <ele>140.7</ele>
        <time>2024-05-10T15:21:54Z</time>
      </trkpt>
      <trkpt lat="43.15972" lon="2.45591">
        <ele>141</ele>
        <time>2024-05-10T15:21:55Z</time>
      </trkpt>
      <trkpt lat="43.15983" lon="2.4557">
        <ele>140.8</ele>
        <time>2024-05-10T15:21:56Z</time>
      </trkpt>
      <trkpt lat="43.15995" lon="2.4555">
        <ele>141.2</ele>
        <time>2024-05-10T15:21:57Z</time>
      </trkpt>
      <trkpt lat="43.16008" lon="2.45532">
        <ele>140.7</ele>
        <time>2024-05-10T15:21:58Z</time>
      </trkpt>
      <trkpt lat="43.16021" lon="2.45515">
        <ele>140.2</ele>
        <time>2024-05-10T15:21:59Z</time>
      </trkpt>
      <trkpt lat="43.16035" lon="2.45497">
        <ele>140.9</ele>
        <time>2024-05-10T15:22:00Z</time>
      </trkpt>
      <trkpt lat="43.16049" lon="2.45481">
        <ele>140.1</ele>
        <time>2024-05-10T15:22:01Z</time>
      </trkpt>
      <trkpt lat="43.16063" lon="2.45465">
        <ele>138.3</ele>
        <time>2024-05-10T15:22:02Z</time>
      </trkpt>
      <trkpt lat="43.16077" lon="2.4545">
        <ele>136.7</ele>
        <time>2024-05-10T15:22:03Z</time>
      </trkpt>
      <trkpt lat="43.16092" lon="2.45437">
        <ele>136.1</ele>
        <time>2024-05-10T15:22:04Z</time>
      </trkpt>
      <trkpt lat="43.16107" lon="2.45426">
        <ele>135.3</ele>
        <time>2024-05-10T15:22:05Z</time>
      </trkpt>
      <trkpt lat="43.16124" lon="2.4542">
        <ele>133.7</ele>
        <time>2024-05-10T15:22:06Z</time>
      </trkpt>
      <trkpt lat="43.16142" lon="2.45418">
        <ele>131.9</ele>
        <time>2024-05-10T15:22:07Z</time>
      </trkpt>
      <trkpt lat="43.16159" lon="2.45423">
        <ele>130.9</ele>
        <time>2024-05-10T15:22:08Z</time>
      </trkpt>
      <trkpt lat="43.16175" lon="2.45432">
        <ele>130</ele>
        <time>2024-05-10T15:22:09Z</time>
      </trkpt>
      <trkpt lat="43.16193" lon="2.45444">
        <ele>128.2</ele>
        <time>2024-05-10T15:22:10Z</time>
      </trkpt>
      <trkpt lat="43.16212" lon="2.45456">
        <ele>127.1</ele>
        <time>2024-05-10T15:22:11Z</time>
      </trkpt>
      <trkpt lat="43.16232" lon="2.45469">
        <ele>125.8</ele>
        <time>2024-05-10T15:22:12Z</time>
      </trkpt>
      <trkpt lat="43.16254" lon="2.45483">
        <ele>124.2</ele>
        <time>2024-05-10T15:22:13Z</time>
      </trkpt>
      <trkpt lat="43.16275" lon="2.45497">
        <ele>124</ele>
        <time>2024-05-10T15:22:14Z</time>
      </trkpt>
      <trkpt lat="43.16296" lon="2.45511">
        <ele>123.3</ele>
        <time>2024-05-10T15:22:15Z</time>
      </trkpt>
      <trkpt lat="43.16317" lon="2.45524">
        <ele>122.9</ele>
        <time>2024-05-10T15:22:16Z</time>
      </trkpt>
      <trkpt lat="43.16336" lon="2.45537">
        <ele>122.6</ele>
        <time>2024-05-10T15:22:17Z</time>
      </trkpt>
      <trkpt lat="43.16355" lon="2.45549">
        <ele>122.6</ele>
        <time>2024-05-10T15:22:18Z</time>
      </trkpt>
      <trkpt lat="43.16374" lon="2.45561">
        <ele>122.3</ele>
        <time>2024-05-10T15:22:19Z</time>
      </trkpt>
      <trkpt lat="43.16392" lon="2.45573">
        <ele>121.8</ele>
        <time>2024-05-10T15:22:20Z</time>
      </trkpt>
      <trkpt lat="43.1641" lon="2.45586">
        <ele>120.5</ele>
        <time>2024-05-10T15:22:21Z</time>
      </trkpt>
      <trkpt lat="43.16428" lon="2.45601">
        <ele>121.9</ele>
        <time>2024-05-10T15:22:22Z</time>
      </trkpt>
      <trkpt lat="43.16445" lon="2.45616">
        <ele>123.7</ele>
        <time>2024-05-10T15:22:23Z</time>
      </trkpt>
      <trkpt lat="43.16463" lon="2.45633">
        <ele>124.1</ele>
        <time>2024-05-10T15:22:24Z</time>
      </trkpt>
      <trkpt lat="43.1648" lon="2.45651">
        <ele>125.7</ele>
        <time>2024-05-10T15:22:25Z</time>
      </trkpt>
      <trkpt lat="43.16498" lon="2.45669">
        <ele>126.5</ele>
        <time>2024-05-10T15:22:26Z</time>
      </trkpt>
      <trkpt lat="43.16515" lon="2.45689">
        <ele>127.1</ele>
        <time>2024-05-10T15:22:27Z</time>
      </trkpt>
      <trkpt lat="43.16531" lon="2.45708">
        <ele>129.3</ele>
        <time>2024-05-10T15:22:28Z</time>
      </trkpt>
      <trkpt lat="43.16547" lon="2.45728">
        <ele>131.7</ele>
        <time>2024-05-10T15:22:29Z</time>
      </trkpt>
      <trkpt lat="43.16562" lon="2.45746">
        <ele>134.7</ele>
        <time>2024-05-10T15:22:30Z</time>
      </trkpt>
      <trkpt lat="43.16577" lon="2.45765">
        <ele>135.5</ele>
        <time>2024-05-10T15:22:31Z</time>
      </trkpt>
      <trkpt lat="43.16592" lon="2.45783">
        <ele>137.1</ele>
        <time>2024-05-10T15:22:32Z</time>
      </trkpt>
      <trkpt lat="43.16607" lon="2.45801">
        <ele>138.7</ele>
        <time>2024-05-10T15:22:33Z</time>
      </trkpt>
      <trkpt lat="43.16621" lon="2.4582">
        <ele>141.3</ele>
        <time>2024-05-10T15:22:34Z</time>
      </trkpt>
      <trkpt lat="43.16635" lon="2.45838">
        <ele>142.5</ele>
        <time>2024-05-10T15:22:35Z</time>
      </trkpt>
      <trkpt lat="43.16647" lon="2.45856">
        <ele>145</ele>
        <time>2024-05-10T15:22:36Z</time>
      </trkpt>
      <trkpt lat="43.16659" lon="2.45873">
        <ele>146.8</ele>
        <time>2024-05-10T15:22:37Z</time>
      </trkpt>
      <trkpt lat="43.1667" lon="2.4589">
        <ele>148.6</ele>
        <time>2024-05-10T15:22:38Z</time>
      </trkpt>
      <trkpt lat="43.16679" lon="2.45906">
        <ele>149.8</ele>
        <time>2024-05-10T15:22:39Z</time>
      </trkpt>
      <trkpt lat="43.16688" lon="2.45921">
        <ele>150.6</ele>
        <time>2024-05-10T15:22:40Z</time>
      </trkpt>
      <trkpt lat="43.16695" lon="2.45935">
        <ele>151.6</ele>
        <time>2024-05-10T15:22:41Z</time>
      </trkpt>
      <trkpt lat="43.16702" lon="2.45948">
        <ele>152.6</ele>
        <time>2024-05-10T15:22:42Z</time>
      </trkpt>
      <trkpt lat="43.16708" lon="2.4596">
        <ele>152.8</ele>
        <time>2024-05-10T15:22:43Z</time>
      </trkpt>
      <trkpt lat="43.16714" lon="2.4597">
        <ele>153.2</ele>
        <time>2024-05-10T15:22:44Z</time>
      </trkpt>
      <trkpt lat="43.16719" lon="2.45981">
        <ele>153.7</ele>
        <time>2024-05-10T15:22:45Z</time>
      </trkpt>
      <trkpt lat="43.16724" lon="2.45991">
        <ele>154.6</ele>
        <time>2024-05-10T15:22:46Z</time>
      </trkpt>
      <trkpt lat="43.16729" lon="2.46002">
        <ele>155.2</ele>
        <time>2024-05-10T15:22:47Z</time>
      </trkpt>
      <trkpt lat="43.16734" lon="2.46012">
        <ele>155.7</ele>
        <time>2024-05-10T15:22:48Z</time>
      </trkpt>
      <trkpt lat="43.16739" lon="2.46023">
        <ele>156.2</ele>
        <time>2024-05-10T15:22:49Z</time>
      </trkpt>
      <trkpt lat="43.16744" lon="2.46033">
        <ele>157.1</ele>
        <time>2024-05-10T15:22:50Z</time>
      </trkpt>
      <trkpt lat="43.16748" lon="2.46044">
        <ele>157.9</ele>
        <time>2024-05-10T15:22:51Z</time>
      </trkpt>
      <trkpt lat="43.16752" lon="2.46053">
        <ele>158.6</ele>
        <time>2024-05-10T15:22:52Z</time>
      </trkpt>
      <trkpt lat="43.16755" lon="2.46061">
        <ele>158.6</ele>
        <time>2024-05-10T15:22:53Z</time>
      </trkpt>
      <trkpt lat="43.16758" lon="2.46067">
        <ele>158.8</ele>
        <time>2024-05-10T15:22:54Z</time>
      </trkpt>
      <trkpt lat="43.16763" lon="2.46073">
        <ele>159.8</ele>
        <time>2024-05-10T15:22:55Z</time>
      </trkpt>
      <trkpt lat="43.16769" lon="2.46077">
        <ele>161.4</ele>
        <time>2024-05-10T15:22:56Z</time>
      </trkpt>
      <trkpt lat="43.16775" lon="2.46077">
        <ele>163.2</ele>
        <time>2024-05-10T15:22:57Z</time>
      </trkpt>
      <trkpt lat="43.16781" lon="2.46072">
        <ele>165.3</ele>
        <time>2024-05-10T15:22:58Z</time>
      </trkpt>
      <trkpt lat="43.16784" lon="2.46063">
        <ele>166.5</ele>
        <time>2024-05-10T15:22:59Z</time>
      </trkpt>
      <trkpt lat="43.16783" lon="2.46052">
        <ele>166.4</ele>
        <time>2024-05-10T15:23:00Z</time>
      </trkpt>
      <trkpt lat="43.16781" lon="2.46038">
        <ele>166.8</ele>
        <time>2024-05-10T15:23:01Z</time>
      </trkpt>
      <trkpt lat="43.16778" lon="2.46024">
        <ele>166.4</ele>
        <time>2024-05-10T15:23:02Z</time>
      </trkpt>
      <trkpt lat="43.16777" lon="2.46009">
        <ele>167.2</ele>
        <time>2024-05-10T15:23:03Z</time>
      </trkpt>
      <trkpt lat="43.1678" lon="2.45991">
        <ele>169.3</ele>
        <time>2024-05-10T15:23:04Z</time>
      </trkpt>
      <trkpt lat="43.16785" lon="2.45976">
        <ele>171</ele>
        <time>2024-05-10T15:23:05Z</time>
      </trkpt>
      <trkpt lat="43.1679" lon="2.4596">
        <ele>172.1</ele>
        <time>2024-05-10T15:23:06Z</time>
      </trkpt>
      <trkpt lat="43.16794" lon="2.45942">
        <ele>172.2</ele>
        <time>2024-05-10T15:23:07Z</time>
      </trkpt>
      <trkpt lat="43.16796" lon="2.4592">
        <ele>170.3</ele>
        <time>2024-05-10T15:23:08Z</time>
      </trkpt>
      <trkpt lat="43.16798" lon="2.45896">
        <ele>167</ele>
        <time>2024-05-10T15:23:09Z</time>
      </trkpt>
      <trkpt lat="43.168" lon="2.45871">
        <ele>163.9</ele>
        <time>2024-05-10T15:23:10Z</time>
      </trkpt>
      <trkpt lat="43.16803" lon="2.45845">
        <ele>161.2</ele>
        <time>2024-05-10T15:23:11Z</time>
      </trkpt>
      <trkpt lat="43.16807" lon="2.45817">
        <ele>158.6</ele>
        <time>2024-05-10T15:23:12Z</time>
      </trkpt>
      <trkpt lat="43.16814" lon="2.45791">
        <ele>153.9</ele>
        <time>2024-05-10T15:23:13Z</time>
      </trkpt>
      <trkpt lat="43.16823" lon="2.45767">
        <ele>149.5</ele>
        <time>2024-05-10T15:23:14Z</time>
      </trkpt>
      <trkpt lat="43.16833" lon="2.45744">
        <ele>149.1</ele>
        <time>2024-05-10T15:23:15Z</time>
      </trkpt>
      <trkpt lat="43.16844" lon="2.4572">
        <ele>150.8</ele>
        <time>2024-05-10T15:23:16Z</time>
      </trkpt>
      <trkpt lat="43.16857" lon="2.45697">
        <ele>151.6</ele>
        <time>2024-05-10T15:23:17Z</time>
      </trkpt>
      <trkpt lat="43.1687" lon="2.45674">
        <ele>151.3</ele>
        <time>2024-05-10T15:23:18Z</time>
      </trkpt>
      <trkpt lat="43.16883" lon="2.45652">
        <ele>150.5</ele>
        <time>2024-05-10T15:23:19Z</time>
      </trkpt>
      <trkpt lat="43.16898" lon="2.45631">
        <ele>149.7</ele>
        <time>2024-05-10T15:23:20Z</time>
      </trkpt>
      <trkpt lat="43.16913" lon="2.45612">
        <ele>148.1</ele>
        <time>2024-05-10T15:23:21Z</time>
      </trkpt>
      <trkpt lat="43.16929" lon="2.45597">
        <ele>147.5</ele>
        <time>2024-05-10T15:23:22Z</time>
      </trkpt>
      <trkpt lat="43.16947" lon="2.45586">
        <ele>145.6</ele>
        <time>2024-05-10T15:23:23Z</time>
      </trkpt>
      <trkpt lat="43.16965" lon="2.45579">
        <ele>145.6</ele>
        <time>2024-05-10T15:23:24Z</time>
      </trkpt>
      <trkpt lat="43.16983" lon="2.45577">
        <ele>145.6</ele>
        <time>2024-05-10T15:23:25Z</time>
      </trkpt>
      <trkpt lat="43.17001" lon="2.45579">
        <ele>145.1</ele>
        <time>2024-05-10T15:23:26Z</time>
      </trkpt>
      <trkpt lat="43.17019" lon="2.45583">
        <ele>144.1</ele>
        <time>2024-05-10T15:23:27Z</time>
      </trkpt>
      <trkpt lat="43.17038" lon="2.45588">
        <ele>142.8</ele>
        <time>2024-05-10T15:23:28Z</time>
      </trkpt>
      <trkpt lat="43.17058" lon="2.45594">
        <ele>140.9</ele>
        <time>2024-05-10T15:23:29Z</time>
      </trkpt>
      <trkpt lat="43.17078" lon="2.456">
        <ele>138.5</ele>
        <time>2024-05-10T15:23:30Z</time>
      </trkpt>
      <trkpt lat="43.17098" lon="2.45607">
        <ele>137.5</ele>
        <time>2024-05-10T15:23:31Z</time>
      </trkpt>
      <trkpt lat="43.17118" lon="2.45614">
        <ele>137</ele>
        <time>2024-05-10T15:23:32Z</time>
      </trkpt>
      <trkpt lat="43.17138" lon="2.45621">
        <ele>136.9</ele>
        <time>2024-05-10T15:23:33Z</time>
      </trkpt>
      <trkpt lat="43.17158" lon="2.45628">
        <ele>136.2</ele>
        <time>2024-05-10T15:23:34Z</time>
      </trkpt>
      <trkpt lat="43.17177" lon="2.45635">
        <ele>136.1</ele>
        <time>2024-05-10T15:23:35Z</time>
      </trkpt>
      <trkpt lat="43.17195" lon="2.4564">
        <ele>136.8</ele>
        <time>2024-05-10T15:23:36Z</time>
      </trkpt>
      <trkpt lat="43.17211" lon="2.45643">
        <ele>136.5</ele>
        <time>2024-05-10T15:23:37Z</time>
      </trkpt>
      <trkpt lat="43.17228" lon="2.45642">
        <ele>136.8</ele>
        <time>2024-05-10T15:23:38Z</time>
      </trkpt>
      <trkpt lat="43.17243" lon="2.45639">
        <ele>137.7</ele>
        <time>2024-05-10T15:23:39Z</time>
      </trkpt>
      <trkpt lat="43.17259" lon="2.45632">
        <ele>138.8</ele>
        <time>2024-05-10T15:23:40Z</time>
      </trkpt>
      <trkpt lat="43.17274" lon="2.45623">
        <ele>139.5</ele>
        <time>2024-05-10T15:23:41Z</time>
      </trkpt>
      <trkpt lat="43.1729" lon="2.45617">
        <ele>140.2</ele>
        <time>2024-05-10T15:23:42Z</time>
      </trkpt>
      <trkpt lat="43.17307" lon="2.45613">
        <ele>141.6</ele>
        <time>2024-05-10T15:23:43Z</time>
      </trkpt>
      <trkpt lat="43.17324" lon="2.45611">
        <ele>143.3</ele>
        <time>2024-05-10T15:23:44Z</time>
      </trkpt>
      <trkpt lat="43.17341" lon="2.4561">
        <ele>145</ele>
        <time>2024-05-10T15:23:45Z</time>
      </trkpt>
      <trkpt lat="43.17357" lon="2.45612">
        <ele>146.4</ele>
        <time>2024-05-10T15:23:46Z</time>
      </trkpt>
      <trkpt lat="43.17372" lon="2.45613">
        <ele>147.6</ele>
        <time>2024-05-10T15:23:47Z</time>
      </trkpt>
      <trkpt lat="43.17386" lon="2.45612">
        <ele>148.7</ele>
        <time>2024-05-10T15:23:48Z</time>
      </trkpt>
      <trkpt lat="43.17399" lon="2.45609">
        <ele>150</ele>
        <time>2024-05-10T15:23:49Z</time>
      </trkpt>
      <trkpt lat="43.17411" lon="2.45603">
        <ele>150.9</ele>
        <time>2024-05-10T15:23:50Z</time>
      </trkpt>
      <trkpt lat="43.17423" lon="2.45594">
        <ele>150.2</ele>
        <time>2024-05-10T15:23:51Z</time>
      </trkpt>
      <trkpt lat="43.17434" lon="2.45584">
        <ele>148.5</ele>
        <time>2024-05-10T15:23:52Z</time>
      </trkpt>
      <trkpt lat="43.17444" lon="2.45571">
        <ele>146.6</ele>
        <time>2024-05-10T15:23:53Z</time>
      </trkpt>
      <trkpt lat="43.17453" lon="2.45555">
        <ele>145.1</ele>
        <time>2024-05-10T15:23:54Z</time>
      </trkpt>
      <trkpt lat="43.17461" lon="2.45539">
        <ele>143.9</ele>
        <time>2024-05-10T15:23:55Z</time>
      </trkpt>
      <trkpt lat="43.17469" lon="2.45521">
        <ele>142.2</ele>
        <time>2024-05-10T15:23:56Z</time>
      </trkpt>
      <trkpt lat="43.17476" lon="2.45504">
        <ele>140.6</ele>
        <time>2024-05-10T15:23:57Z</time>
      </trkpt>
      <trkpt lat="43.17485" lon="2.45488">
        <ele>139.1</ele>
        <time>2024-05-10T15:23:58Z</time>
      </trkpt>
      <trkpt lat="43.17495" lon="2.45472">
        <ele>138.4</ele>
        <time>2024-05-10T15:23:59Z</time>
      </trkpt>
      <trkpt lat="43.17506" lon="2.45459">
        <ele>137.6</ele>
        <time>2024-05-10T15:24:00Z</time>
      </trkpt>
      <trkpt lat="43.17517" lon="2.45447">
        <ele>137.3</ele>
        <time>2024-05-10T15:24:01Z</time>
      </trkpt>
      <trkpt lat="43.1753" lon="2.45438">
        <ele>137.2</ele>
        <time>2024-05-10T15:24:02Z</time>
      </trkpt>
      <trkpt lat="43.17543" lon="2.45429">
        <ele>137.3</ele>
        <time>2024-05-10T15:24:03Z</time>
      </trkpt>
      <trkpt lat="43.17558" lon="2.4542">
        <ele>137.9</ele>
        <time>2024-05-10T15:24:04Z</time>
      </trkpt>
      <trkpt lat="43.17573" lon="2.45411">
        <ele>139.1</ele>
        <time>2024-05-10T15:24:05Z</time>
      </trkpt>
      <trkpt lat="43.17588" lon="2.45403">
        <ele>140.8</ele>
        <time>2024-05-10T15:24:06Z</time>
      </trkpt>
      <trkpt lat="43.17602" lon="2.45394">
        <ele>142.4</ele>
        <time>2024-05-10T15:24:07Z</time>
      </trkpt>
      <trkpt lat="43.17615" lon="2.45386">
        <ele>143.6</ele>
        <time>2024-05-10T15:24:08Z</time>
      </trkpt>
      <trkpt lat="43.17626" lon="2.45379">
        <ele>144.8</ele>
        <time>2024-05-10T15:24:09Z</time>
      </trkpt>
      <trkpt lat="43.17637" lon="2.45373">
        <ele>145.5</ele>
        <time>2024-05-10T15:24:10Z</time>
      </trkpt>
      <trkpt lat="43.17647" lon="2.45367">
        <ele>146.4</ele>
        <time>2024-05-10T15:24:11Z</time>
      </trkpt>
      <trkpt lat="43.17657" lon="2.45362">
        <ele>147.3</ele>
        <time>2024-05-10T15:24:12Z</time>
      </trkpt>
      <trkpt lat="43.17668" lon="2.45357">
        <ele>148.2</ele>
        <time>2024-05-10T15:24:13Z</time>
      </trkpt>
      <trkpt lat="43.17678" lon="2.45354">
        <ele>148.7</ele>
        <time>2024-05-10T15:24:14Z</time>
      </trkpt>
      <trkpt lat="43.17688" lon="2.45353">
        <ele>149.1</ele>
        <time>2024-05-10T15:24:15Z</time>
      </trkpt>
      <trkpt lat="43.17697" lon="2.45354">
        <ele>149.3</ele>
        <time>2024-05-10T15:24:16Z</time>
      </trkpt>
      <trkpt lat="43.17708" lon="2.45355">
        <ele>149.2</ele>
        <time>2024-05-10T15:24:17Z</time>
      </trkpt>
      <trkpt lat="43.17719" lon="2.45359">
        <ele>149.1</ele>
        <time>2024-05-10T15:24:18Z</time>
      </trkpt>
      <trkpt lat="43.17732" lon="2.45365">
        <ele>148.6</ele>
        <time>2024-05-10T15:24:19Z</time>
      </trkpt>
      <trkpt lat="43.17744" lon="2.45373">
        <ele>148.2</ele>
        <time>2024-05-10T15:24:20Z</time>
      </trkpt>
      <trkpt lat="43.17756" lon="2.45382">
        <ele>147.6</ele>
        <time>2024-05-10T15:24:21Z</time>
      </trkpt>
      <trkpt lat="43.17767" lon="2.45392">
        <ele>146.7</ele>
        <time>2024-05-10T15:24:22Z</time>
      </trkpt>
      <trkpt lat="43.17778" lon="2.45403">
        <ele>145.5</ele>
        <time>2024-05-10T15:24:23Z</time>
      </trkpt>
      <trkpt lat="43.17789" lon="2.45413">
        <ele>144</ele>
        <time>2024-05-10T15:24:24Z</time>
      </trkpt>
      <trkpt lat="43.17801" lon="2.45423">
        <ele>142.3</ele>
        <time>2024-05-10T15:24:25Z</time>
      </trkpt>
      <trkpt lat="43.17813" lon="2.45432">
        <ele>140.8</ele>
        <time>2024-05-10T15:24:26Z</time>
      </trkpt>
      <trkpt lat="43.17825" lon="2.4544">
        <ele>139.2</ele>
        <time>2024-05-10T15:24:27Z</time>
      </trkpt>
      <trkpt lat="43.17839" lon="2.45446">
        <ele>137.6</ele>
        <time>2024-05-10T15:24:28Z</time>
      </trkpt>
      <trkpt lat="43.17853" lon="2.45448">
        <ele>136.6</ele>
        <time>2024-05-10T15:24:29Z</time>
      </trkpt>
      <trkpt lat="43.17867" lon="2.45448">
        <ele>135.4</ele>
        <time>2024-05-10T15:24:30Z</time>
      </trkpt>
      <trkpt lat="43.17881" lon="2.45446">
        <ele>133.9</ele>
        <time>2024-05-10T15:24:31Z</time>
      </trkpt>
      <trkpt lat="43.17895" lon="2.45444">
        <ele>132.6</ele>
        <time>2024-05-10T15:24:32Z</time>
      </trkpt>
      <trkpt lat="43.1791" lon="2.45441">
        <ele>131.4</ele>
        <time>2024-05-10T15:24:33Z</time>
      </trkpt>
      <trkpt lat="43.17923" lon="2.45438">
        <ele>130.1</ele>
        <time>2024-05-10T15:24:34Z</time>
      </trkpt>
      <trkpt lat="43.17935" lon="2.45436">
        <ele>128.9</ele>
        <time>2024-05-10T15:24:35Z</time>
      </trkpt>
      <trkpt lat="43.17947" lon="2.45434">
        <ele>127.9</ele>
        <time>2024-05-10T15:24:36Z</time>
      </trkpt>
      <trkpt lat="43.17959" lon="2.45431">
        <ele>127.2</ele>
        <time>2024-05-10T15:24:37Z</time>
      </trkpt>
      <trkpt lat="43.17971" lon="2.45429">
        <ele>126.5</ele>
        <time>2024-05-10T15:24:38Z</time>
      </trkpt>
      <trkpt lat="43.17983" lon="2.45428">
        <ele>126</ele>
        <time>2024-05-10T15:24:39Z</time>
      </trkpt>
      <trkpt lat="43.17997" lon="2.45425">
        <ele>125.4</ele>
        <time>2024-05-10T15:24:40Z</time>
      </trkpt>
      <trkpt lat="43.18011" lon="2.45422">
        <ele>124.4</ele>
        <time>2024-05-10T15:24:41Z</time>
      </trkpt>
      <trkpt lat="43.18026" lon="2.4542">
        <ele>123.2</ele>
        <time>2024-05-10T15:24:42Z</time>
      </trkpt>
      <trkpt lat="43.18042" lon="2.45417">
        <ele>122</ele>
        <time>2024-05-10T15:24:43Z</time>
      </trkpt>
      <trkpt lat="43.18058" lon="2.45415">
        <ele>120.7</ele>
        <time>2024-05-10T15:24:44Z</time>
      </trkpt>
      <trkpt lat="43.18074" lon="2.45412">
        <ele>119.2</ele>
        <time>2024-05-10T15:24:45Z</time>
      </trkpt>
      <trkpt lat="43.1809" lon="2.45409">
        <ele>118.2</ele>
        <time>2024-05-10T15:24:46Z</time>
      </trkpt>
      <trkpt lat="43.18107" lon="2.45405">
        <ele>117.6</ele>
        <time>2024-05-10T15:24:47Z</time>
      </trkpt>
      <trkpt lat="43.18124" lon="2.45403">
        <ele>116.6</ele>
        <time>2024-05-10T15:24:48Z</time>
      </trkpt>
      <trkpt lat="43.18141" lon="2.454">
        <ele>115.6</ele>
        <time>2024-05-10T15:24:49Z</time>
      </trkpt>
      <trkpt lat="43.18157" lon="2.45396">
        <ele>116.2</ele>
        <time>2024-05-10T15:24:50Z</time>
      </trkpt>
      <trkpt lat="43.18173" lon="2.45394">
        <ele>117.3</ele>
        <time>2024-05-10T15:24:51Z</time>
      </trkpt>
      <trkpt lat="43.18188" lon="2.45392">
        <ele>119</ele>
        <time>2024-05-10T15:24:52Z</time>
      </trkpt>
      <trkpt lat="43.18203" lon="2.45389">
        <ele>120.6</ele>
        <time>2024-05-10T15:24:53Z</time>
      </trkpt>
      <trkpt lat="43.18218" lon="2.45387">
        <ele>121.6</ele>
        <time>2024-05-10T15:24:54Z</time>
      </trkpt>
      <trkpt lat="43.18232" lon="2.45384">
        <ele>122.6</ele>
        <time>2024-05-10T15:24:55Z</time>
      </trkpt>
      <trkpt lat="43.18247" lon="2.45382">
        <ele>123.8</ele>
        <time>2024-05-10T15:24:56Z</time>
      </trkpt>
      <trkpt lat="43.18261" lon="2.45381">
        <ele>125</ele>
        <time>2024-05-10T15:24:57Z</time>
      </trkpt>
      <trkpt lat="43.18274" lon="2.45379">
        <ele>126.3</ele>
        <time>2024-05-10T15:24:58Z</time>
      </trkpt>
      <trkpt lat="43.18286" lon="2.45376">
        <ele>127.4</ele>
        <time>2024-05-10T15:24:59Z</time>
      </trkpt>
      <trkpt lat="43.18299" lon="2.45374">
        <ele>128.2</ele>
        <time>2024-05-10T15:25:00Z</time>
      </trkpt>
      <trkpt lat="43.18312" lon="2.45372">
        <ele>128.5</ele>
        <time>2024-05-10T15:25:01Z</time>
      </trkpt>
      <trkpt lat="43.18326" lon="2.45371">
        <ele>128.4</ele>
        <time>2024-05-10T15:25:02Z</time>
      </trkpt>
      <trkpt lat="43.1834" lon="2.45369">
        <ele>128.3</ele>
        <time>2024-05-10T15:25:03Z</time>
      </trkpt>
      <trkpt lat="43.18354" lon="2.45367">
        <ele>128</ele>
        <time>2024-05-10T15:25:04Z</time>
      </trkpt>
      <trkpt lat="43.18369" lon="2.45365">
        <ele>127.8</ele>
        <time>2024-05-10T15:25:05Z</time>
      </trkpt>
      <trkpt lat="43.18384" lon="2.45363">
        <ele>127.9</ele>
        <time>2024-05-10T15:25:06Z</time>
      </trkpt>
      <trkpt lat="43.18398" lon="2.45361">
        <ele>127.7</ele>
        <time>2024-05-10T15:25:07Z</time>
      </trkpt>
      <trkpt lat="43.18412" lon="2.45359">
        <ele>127.3</ele>
        <time>2024-05-10T15:25:08Z</time>
      </trkpt>
      <trkpt lat="43.18426" lon="2.45358">
        <ele>126.9</ele>
        <time>2024-05-10T15:25:09Z</time>
      </trkpt>
      <trkpt lat="43.18439" lon="2.45355">
        <ele>126.6</ele>
        <time>2024-05-10T15:25:10Z</time>
      </trkpt>
      <trkpt lat="43.18452" lon="2.45353">
        <ele>126.3</ele>
        <time>2024-05-10T15:25:11Z</time>
      </trkpt>
      <trkpt lat="43.18464" lon="2.45349">
        <ele>126.2</ele>
        <time>2024-05-10T15:25:12Z</time>
      </trkpt>
      <trkpt lat="43.18476" lon="2.45344">
        <ele>126.1</ele>
        <time>2024-05-10T15:25:13Z</time>
      </trkpt>
      <trkpt lat="43.18488" lon="2.45338">
        <ele>126.2</ele>
        <time>2024-05-10T15:25:14Z</time>
      </trkpt>
      <trkpt lat="43.18501" lon="2.45332">
        <ele>126</ele>
        <time>2024-05-10T15:25:15Z</time>
      </trkpt>
      <trkpt lat="43.18513" lon="2.45325">
        <ele>125.8</ele>
        <time>2024-05-10T15:25:16Z</time>
      </trkpt>
      <trkpt lat="43.18524" lon="2.45319">
        <ele>125.7</ele>
        <time>2024-05-10T15:25:17Z</time>
      </trkpt>
      <trkpt lat="43.18536" lon="2.45313">
        <ele>125.4</ele>
        <time>2024-05-10T15:25:18Z</time>
      </trkpt>
      <trkpt lat="43.18547" lon="2.45308">
        <ele>125.2</ele>
        <time>2024-05-10T15:25:19Z</time>
      </trkpt>
      <trkpt lat="43.18558" lon="2.45302">
        <ele>125.2</ele>
        <time>2024-05-10T15:25:20Z</time>
      </trkpt>
      <trkpt lat="43.18568" lon="2.45297">
        <ele>125.6</ele>
        <time>2024-05-10T15:25:21Z</time>
      </trkpt>
      <trkpt lat="43.18579" lon="2.45291">
        <ele>125.9</ele>
        <time>2024-05-10T15:25:22Z</time>
      </trkpt>
      <trkpt lat="43.1859" lon="2.45286">
        <ele>126</ele>
        <time>2024-05-10T15:25:23Z</time>
      </trkpt>
      <trkpt lat="43.18601" lon="2.4528">
        <ele>126</ele>
        <time>2024-05-10T15:25:24Z</time>
      </trkpt>
      <trkpt lat="43.18612" lon="2.45274">
        <ele>126.1</ele>
        <time>2024-05-10T15:25:25Z</time>
      </trkpt>
      <trkpt lat="43.18623" lon="2.45269">
        <ele>125.8</ele>
        <time>2024-05-10T15:25:26Z</time>
      </trkpt>
      <trkpt lat="43.18634" lon="2.45262">
        <ele>125.3</ele>
        <time>2024-05-10T15:25:27Z</time>
      </trkpt>
      <trkpt lat="43.18645" lon="2.45256">
        <ele>124.8</ele>
        <time>2024-05-10T15:25:28Z</time>
      </trkpt>
      <trkpt lat="43.18654" lon="2.45248">
        <ele>124.5</ele>
        <time>2024-05-10T15:25:29Z</time>
      </trkpt>
      <trkpt lat="43.18662" lon="2.45238">
        <ele>124.2</ele>
        <time>2024-05-10T15:25:30Z</time>
      </trkpt>
      <trkpt lat="43.18671" lon="2.45227">
        <ele>123.4</ele>
        <time>2024-05-10T15:25:31Z</time>
      </trkpt>
      <trkpt lat="43.18678" lon="2.45214">
        <ele>122.5</ele>
        <time>2024-05-10T15:25:32Z</time>
      </trkpt>
      <trkpt lat="43.18686" lon="2.45202">
        <ele>121.4</ele>
        <time>2024-05-10T15:25:33Z</time>
      </trkpt>
      <trkpt lat="43.18693" lon="2.45189">
        <ele>120.2</ele>
        <time>2024-05-10T15:25:34Z</time>
      </trkpt>
      <trkpt lat="43.187" lon="2.45177">
        <ele>119.4</ele>
        <time>2024-05-10T15:25:35Z</time>
      </trkpt>
      <trkpt lat="43.18706" lon="2.45167">
        <ele>118.8</ele>
        <time>2024-05-10T15:25:36Z</time>
      </trkpt>
      <trkpt lat="43.18712" lon="2.45157">
        <ele>118</ele>
        <time>2024-05-10T15:25:37Z</time>
      </trkpt>
      <trkpt lat="43.18717" lon="2.45148">
        <ele>117.4</ele>
        <time>2024-05-10T15:25:38Z</time>
      </trkpt>
      <trkpt lat="43.1872" lon="2.45142">
        <ele>117.2</ele>
        <time>2024-05-10T15:25:39Z</time>
      </trkpt>
      <trkpt lat="43.18723" lon="2.45138">
        <ele>116.9</ele>
        <time>2024-05-10T15:25:40Z</time>
      </trkpt>
      <trkpt lat="43.18726" lon="2.45134">
        <ele>116.6</ele>
        <time>2024-05-10T15:25:41Z</time>
      </trkpt>
      <trkpt lat="43.18727" lon="2.45131">
        <ele>116.6</ele>
        <time>2024-05-10T15:25:42Z</time>
      </trkpt>
      <trkpt lat="43.18729" lon="2.45128">
        <ele>116.5</ele>
        <time>2024-05-10T15:25:43Z</time>
      </trkpt>
      <trkpt lat="43.18731" lon="2.45126">
        <ele>116.3</ele>
        <time>2024-05-10T15:25:44Z</time>
      </trkpt>
      <trkpt lat="43.18732" lon="2.45123">
        <ele>116.3</ele>
        <time>2024-05-10T15:25:45Z</time>
      </trkpt>
      <trkpt lat="43.18733" lon="2.45123">
        <ele>116.3</ele>
        <time>2024-05-10T15:25:46Z</time>
      </trkpt>
      <trkpt lat="43.18734" lon="2.45121">
        <ele>116.3</ele>
        <time>2024-05-10T15:25:47Z</time>
      </trkpt>
      <trkpt lat="43.18736" lon="2.45118">
        <ele>116.3</ele>
        <time>2024-05-10T15:25:48Z</time>
      </trkpt>
      <trkpt lat="43.18737" lon="2.45115">
        <ele>116.3</ele>
        <time>2024-05-10T15:25:49Z</time>
      </trkpt>
      <trkpt lat="43.18741" lon="2.45109">
        <ele>116.3</ele>
        <time>2024-05-10T15:25:50Z</time>
      </trkpt>
      <trkpt lat="43.18745" lon="2.45103">
        <ele>116.2</ele>
        <time>2024-05-10T15:25:51Z</time>
      </trkpt>
      <trkpt lat="43.1875" lon="2.45096">
        <ele>116</ele>
        <time>2024-05-10T15:25:52Z</time>
      </trkpt>
      <trkpt lat="43.18755" lon="2.45089">
        <ele>115.4</ele>
        <time>2024-05-10T15:25:53Z</time>
      </trkpt>
      <trkpt lat="43.18761" lon="2.45082">
        <ele>114.9</ele>
        <time>2024-05-10T15:25:54Z</time>
      </trkpt>
      <trkpt lat="43.18769" lon="2.45074">
        <ele>114.5</ele>
        <time>2024-05-10T15:25:55Z</time>
      </trkpt>
      <trkpt lat="43.18779" lon="2.45067">
        <ele>114.1</ele>
        <time>2024-05-10T15:25:56Z</time>
      </trkpt>
      <trkpt lat="43.18789" lon="2.4506">
        <ele>113.5</ele>
        <time>2024-05-10T15:25:57Z</time>
      </trkpt>
      <trkpt lat="43.18799" lon="2.45054">
        <ele>112.8</ele>
        <time>2024-05-10T15:25:58Z</time>
      </trkpt>
      <trkpt lat="43.1881" lon="2.45048">
        <ele>112.1</ele>
        <time>2024-05-10T15:25:59Z</time>
      </trkpt>
      <trkpt lat="43.18822" lon="2.45041">
        <ele>111.6</ele>
        <time>2024-05-10T15:26:00Z</time>
      </trkpt>
      <trkpt lat="43.18834" lon="2.45034">
        <ele>111.3</ele>
        <time>2024-05-10T15:26:01Z</time>
      </trkpt>
      <trkpt lat="43.18845" lon="2.45027">
        <ele>110.8</ele>
        <time>2024-05-10T15:26:02Z</time>
      </trkpt>
      <trkpt lat="43.18857" lon="2.4502">
        <ele>110</ele>
        <time>2024-05-10T15:26:03Z</time>
      </trkpt>
      <trkpt lat="43.18868" lon="2.45013">
        <ele>109.7</ele>
        <time>2024-05-10T15:26:04Z</time>
      </trkpt>
      <trkpt lat="43.1888" lon="2.45006">
        <ele>109.4</ele>
        <time>2024-05-10T15:26:05Z</time>
      </trkpt>
      <trkpt lat="43.18892" lon="2.44998">
        <ele>109</ele>
        <time>2024-05-10T15:26:06Z</time>
      </trkpt>
      <trkpt lat="43.18905" lon="2.4499">
        <ele>108.8</ele>
        <time>2024-05-10T15:26:07Z</time>
      </trkpt>
      <trkpt lat="43.18918" lon="2.44982">
        <ele>108.6</ele>
        <time>2024-05-10T15:26:08Z</time>
      </trkpt>
      <trkpt lat="43.18931" lon="2.44974">
        <ele>108.5</ele>
        <time>2024-05-10T15:26:09Z</time>
      </trkpt>
      <trkpt lat="43.18945" lon="2.44966">
        <ele>108.2</ele>
        <time>2024-05-10T15:26:10Z</time>
      </trkpt>
      <trkpt lat="43.18958" lon="2.44958">
        <ele>108.3</ele>
        <time>2024-05-10T15:26:11Z</time>
      </trkpt>
      <trkpt lat="43.18972" lon="2.44949">
        <ele>108.7</ele>
        <time>2024-05-10T15:26:12Z</time>
      </trkpt>
      <trkpt lat="43.18987" lon="2.44941">
        <ele>109.1</ele>
        <time>2024-05-10T15:26:13Z</time>
      </trkpt>
      <trkpt lat="43.19002" lon="2.44932">
        <ele>109</ele>
        <time>2024-05-10T15:26:14Z</time>
      </trkpt>
      <trkpt lat="43.19016" lon="2.44924">
        <ele>109</ele>
        <time>2024-05-10T15:26:15Z</time>
      </trkpt>
      <trkpt lat="43.19029" lon="2.44916">
        <ele>109</ele>
        <time>2024-05-10T15:26:16Z</time>
      </trkpt>
      <trkpt lat="43.19042" lon="2.44909">
        <ele>109.1</ele>
        <time>2024-05-10T15:26:17Z</time>
      </trkpt>
      <trkpt lat="43.19055" lon="2.44901">
        <ele>109</ele>
        <time>2024-05-10T15:26:18Z</time>
      </trkpt>
      <trkpt lat="43.19068" lon="2.44893">
        <ele>108.9</ele>
        <time>2024-05-10T15:26:19Z</time>
      </trkpt>
      <trkpt lat="43.19082" lon="2.44884">
        <ele>109.2</ele>
        <time>2024-05-10T15:26:20Z</time>
      </trkpt>
      <trkpt lat="43.19096" lon="2.44876">
        <ele>109.5</ele>
        <time>2024-05-10T15:26:21Z</time>
      </trkpt>
      <trkpt lat="43.1911" lon="2.44867">
        <ele>109.8</ele>
        <time>2024-05-10T15:26:22Z</time>
      </trkpt>
      <trkpt lat="43.19126" lon="2.44858">
        <ele>109.6</ele>
        <time>2024-05-10T15:26:23Z</time>
      </trkpt>
      <trkpt lat="43.19142" lon="2.44849">
        <ele>109.8</ele>
        <time>2024-05-10T15:26:24Z</time>
      </trkpt>
      <trkpt lat="43.19159" lon="2.44839">
        <ele>110</ele>
        <time>2024-05-10T15:26:25Z</time>
      </trkpt>
      <trkpt lat="43.19175" lon="2.4483">
        <ele>109.9</ele>
        <time>2024-05-10T15:26:26Z</time>
      </trkpt>
      <trkpt lat="43.1919" lon="2.4482">
        <ele>110</ele>
        <time>2024-05-10T15:26:27Z</time>
      </trkpt>
      <trkpt lat="43.19206" lon="2.4481">
        <ele>110.3</ele>
        <time>2024-05-10T15:26:28Z</time>
      </trkpt>
      <trkpt lat="43.19223" lon="2.448">
        <ele>110.2</ele>
        <time>2024-05-10T15:26:29Z</time>
      </trkpt>
      <trkpt lat="43.1924" lon="2.44791">
        <ele>110.5</ele>
        <time>2024-05-10T15:26:30Z</time>
      </trkpt>
      <trkpt lat="43.19256" lon="2.44781">
        <ele>110.7</ele>
        <time>2024-05-10T15:26:31Z</time>
      </trkpt>
      <trkpt lat="43.19271" lon="2.44771">
        <ele>110.6</ele>
        <time>2024-05-10T15:26:32Z</time>
      </trkpt>
      <trkpt lat="43.19286" lon="2.44761">
        <ele>111.2</ele>
        <time>2024-05-10T15:26:33Z</time>
      </trkpt>
      <trkpt lat="43.19299" lon="2.4475">
        <ele>112</ele>
        <time>2024-05-10T15:26:34Z</time>
      </trkpt>
      <trkpt lat="43.19312" lon="2.44739">
        <ele>112.4</ele>
        <time>2024-05-10T15:26:35Z</time>
      </trkpt>
      <trkpt lat="43.19324" lon="2.44729">
        <ele>112.8</ele>
        <time>2024-05-10T15:26:36Z</time>
      </trkpt>
      <trkpt lat="43.19336" lon="2.44718">
        <ele>113.2</ele>
        <time>2024-05-10T15:26:37Z</time>
      </trkpt>
      <trkpt lat="43.19349" lon="2.44708">
        <ele>113.5</ele>
        <time>2024-05-10T15:26:38Z</time>
      </trkpt>
      <trkpt lat="43.19362" lon="2.44697">
        <ele>113</ele>
        <time>2024-05-10T15:26:39Z</time>
      </trkpt>
      <trkpt lat="43.19376" lon="2.44686">
        <ele>112.6</ele>
        <time>2024-05-10T15:26:40Z</time>
      </trkpt>
      <trkpt lat="43.1939" lon="2.44674">
        <ele>113</ele>
        <time>2024-05-10T15:26:41Z</time>
      </trkpt>
      <trkpt lat="43.19404" lon="2.44663">
        <ele>110.3</ele>
        <time>2024-05-10T15:26:42Z</time>
      </trkpt>
      <trkpt lat="43.19418" lon="2.44652">
        <ele>107.1</ele>
        <time>2024-05-10T15:26:43Z</time>
      </trkpt>
      <trkpt lat="43.19432" lon="2.4464">
        <ele>107.1</ele>
        <time>2024-05-10T15:26:44Z</time>
      </trkpt>
      <trkpt lat="43.19446" lon="2.44629">
        <ele>107.5</ele>
        <time>2024-05-10T15:26:45Z</time>
      </trkpt>
      <trkpt lat="43.19459" lon="2.44619">
        <ele>111.3</ele>
        <time>2024-05-10T15:26:46Z</time>
      </trkpt>
      <trkpt lat="43.19473" lon="2.44608">
        <ele>115.2</ele>
        <time>2024-05-10T15:26:47Z</time>
      </trkpt>
      <trkpt lat="43.19486" lon="2.44597">
        <ele>116.5</ele>
        <time>2024-05-10T15:26:48Z</time>
      </trkpt>
      <trkpt lat="43.195" lon="2.44585">
        <ele>116.2</ele>
        <time>2024-05-10T15:26:49Z</time>
      </trkpt>
      <trkpt lat="43.19514" lon="2.44572">
        <ele>117.1</ele>
        <time>2024-05-10T15:26:50Z</time>
      </trkpt>
      <trkpt lat="43.19527" lon="2.44557">
        <ele>116.2</ele>
        <time>2024-05-10T15:26:51Z</time>
      </trkpt>
      <trkpt lat="43.19541" lon="2.44541">
        <ele>117.9</ele>
        <time>2024-05-10T15:26:52Z</time>
      </trkpt>
      <trkpt lat="43.19553" lon="2.44524">
        <ele>117.1</ele>
        <time>2024-05-10T15:26:53Z</time>
      </trkpt>
      <trkpt lat="43.19565" lon="2.44508">
        <ele>117</ele>
        <time>2024-05-10T15:26:54Z</time>
      </trkpt>
      <trkpt lat="43.19577" lon="2.44492">
        <ele>116.2</ele>
        <time>2024-05-10T15:26:55Z</time>
      </trkpt>
      <trkpt lat="43.19588" lon="2.44477">
        <ele>115.7</ele>
        <time>2024-05-10T15:26:56Z</time>
      </trkpt>
      <trkpt lat="43.196" lon="2.44461">
        <ele>114.7</ele>
        <time>2024-05-10T15:26:57Z</time>
      </trkpt>
      <trkpt lat="43.19612" lon="2.44444">
        <ele>114.9</ele>
        <time>2024-05-10T15:26:58Z</time>
      </trkpt>
      <trkpt lat="43.19625" lon="2.44428">
        <ele>113.3</ele>
        <time>2024-05-10T15:26:59Z</time>
      </trkpt>
      <trkpt lat="43.19638" lon="2.4441">
        <ele>113.4</ele>
        <time>2024-05-10T15:27:00Z</time>
      </trkpt>
      <trkpt lat="43.19652" lon="2.44392">
        <ele>112.8</ele>
        <time>2024-05-10T15:27:01Z</time>
      </trkpt>
      <trkpt lat="43.19666" lon="2.44374">
        <ele>112.4</ele>
        <time>2024-05-10T15:27:02Z</time>
      </trkpt>
      <trkpt lat="43.19679" lon="2.44355">
        <ele>112</ele>
        <time>2024-05-10T15:27:03Z</time>
      </trkpt>
      <trkpt lat="43.19693" lon="2.44337">
        <ele>112</ele>
        <time>2024-05-10T15:27:04Z</time>
      </trkpt>
      <trkpt lat="43.19706" lon="2.44319">
        <ele>110.6</ele>
        <time>2024-05-10T15:27:05Z</time>
      </trkpt>
      <trkpt lat="43.1972" lon="2.44301">
        <ele>110.9</ele>
        <time>2024-05-10T15:27:06Z</time>
      </trkpt>
      <trkpt lat="43.19734" lon="2.44284">
        <ele>110.7</ele>
        <time>2024-05-10T15:27:07Z</time>
      </trkpt>
      <trkpt lat="43.19748" lon="2.44266">
        <ele>111</ele>
        <time>2024-05-10T15:27:08Z</time>
      </trkpt>
      <trkpt lat="43.19761" lon="2.44249">
        <ele>110.6</ele>
        <time>2024-05-10T15:27:09Z</time>
      </trkpt>
      <trkpt lat="43.19774" lon="2.44232">
        <ele>110.6</ele>
        <time>2024-05-10T15:27:10Z</time>
      </trkpt>
      <trkpt lat="43.19787" lon="2.44214">
        <ele>109</ele>
        <time>2024-05-10T15:27:11Z</time>
      </trkpt>
      <trkpt lat="43.19799" lon="2.44197">
        <ele>108.8</ele>
        <time>2024-05-10T15:27:12Z</time>
      </trkpt>
      <trkpt lat="43.19812" lon="2.44179">
        <ele>109.4</ele>
        <time>2024-05-10T15:27:13Z</time>
      </trkpt>
      <trkpt lat="43.19826" lon="2.44161">
        <ele>110.2</ele>
        <time>2024-05-10T15:27:14Z</time>
      </trkpt>
      <trkpt lat="43.1984" lon="2.44143">
        <ele>111.7</ele>
        <time>2024-05-10T15:27:15Z</time>
      </trkpt>
      <trkpt lat="43.19853" lon="2.44123">
        <ele>112.6</ele>
        <time>2024-05-10T15:27:16Z</time>
      </trkpt>
      <trkpt lat="43.19865" lon="2.44102">
        <ele>113.1</ele>
        <time>2024-05-10T15:27:17Z</time>
      </trkpt>
      <trkpt lat="43.19877" lon="2.44081">
        <ele>112.3</ele>
        <time>2024-05-10T15:27:18Z</time>
      </trkpt>
      <trkpt lat="43.19888" lon="2.44058">
        <ele>112.8</ele>
        <time>2024-05-10T15:27:19Z</time>
      </trkpt>
      <trkpt lat="43.19899" lon="2.44034">
        <ele>112.6</ele>
        <time>2024-05-10T15:27:20Z</time>
      </trkpt>
      <trkpt lat="43.19911" lon="2.44012">
        <ele>112.2</ele>
        <time>2024-05-10T15:27:21Z</time>
      </trkpt>
      <trkpt lat="43.19922" lon="2.43988">
        <ele>112.2</ele>
        <time>2024-05-10T15:27:22Z</time>
      </trkpt>
      <trkpt lat="43.19932" lon="2.43966">
        <ele>112.1</ele>
        <time>2024-05-10T15:27:23Z</time>
      </trkpt>
      <trkpt lat="43.19942" lon="2.43945">
        <ele>112.2</ele>
        <time>2024-05-10T15:27:24Z</time>
      </trkpt>
      <trkpt lat="43.19953" lon="2.43923">
        <ele>111.7</ele>
        <time>2024-05-10T15:27:25Z</time>
      </trkpt>
      <trkpt lat="43.19962" lon="2.43902">
        <ele>111.7</ele>
        <time>2024-05-10T15:27:26Z</time>
      </trkpt>
      <trkpt lat="43.19971" lon="2.4388">
        <ele>111.7</ele>
        <time>2024-05-10T15:27:27Z</time>
      </trkpt>
      <trkpt lat="43.19979" lon="2.43858">
        <ele>110.6</ele>
        <time>2024-05-10T15:27:28Z</time>
      </trkpt>
      <trkpt lat="43.19987" lon="2.43834">
        <ele>109.5</ele>
        <time>2024-05-10T15:27:29Z</time>
      </trkpt>
      <trkpt lat="43.19995" lon="2.43811">
        <ele>109.2</ele>
        <time>2024-05-10T15:27:30Z</time>
      </trkpt>
      <trkpt lat="43.20003" lon="2.43788">
        <ele>108.8</ele>
        <time>2024-05-10T15:27:31Z</time>
      </trkpt>
      <trkpt lat="43.20011" lon="2.43766">
        <ele>107.9</ele>
        <time>2024-05-10T15:27:32Z</time>
      </trkpt>
      <trkpt lat="43.20019" lon="2.43743">
        <ele>107.7</ele>
        <time>2024-05-10T15:27:33Z</time>
      </trkpt>
      <trkpt lat="43.20026" lon="2.43722">
        <ele>107.9</ele>
        <time>2024-05-10T15:27:34Z</time>
      </trkpt>
      <trkpt lat="43.20033" lon="2.43701">
        <ele>107</ele>
        <time>2024-05-10T15:27:35Z</time>
      </trkpt>
      <trkpt lat="43.20041" lon="2.43681">
        <ele>106.3</ele>
        <time>2024-05-10T15:27:36Z</time>
      </trkpt>
      <trkpt lat="43.20047" lon="2.4366">
        <ele>105.4</ele>
        <time>2024-05-10T15:27:37Z</time>
      </trkpt>
      <trkpt lat="43.20054" lon="2.43639">
        <ele>104.1</ele>
        <time>2024-05-10T15:27:38Z</time>
      </trkpt>
      <trkpt lat="43.20062" lon="2.43618">
        <ele>103</ele>
        <time>2024-05-10T15:27:39Z</time>
      </trkpt>
      <trkpt lat="43.20069" lon="2.43595">
        <ele>102.2</ele>
        <time>2024-05-10T15:27:40Z</time>
      </trkpt>
      <trkpt lat="43.20077" lon="2.43571">
        <ele>100.8</ele>
        <time>2024-05-10T15:27:41Z</time>
      </trkpt>
      <trkpt lat="43.20086" lon="2.43546">
        <ele>99.9</ele>
        <time>2024-05-10T15:27:42Z</time>
      </trkpt>
      <trkpt lat="43.20093" lon="2.43521">
        <ele>99.8</ele>
        <time>2024-05-10T15:27:43Z</time>
      </trkpt>
      <trkpt lat="43.20102" lon="2.43497">
        <ele>99.6</ele>
        <time>2024-05-10T15:27:44Z</time>
      </trkpt>
      <trkpt lat="43.2011" lon="2.43473">
        <ele>99</ele>
        <time>2024-05-10T15:27:45Z</time>
      </trkpt>
      <trkpt lat="43.20118" lon="2.4345">
        <ele>98.2</ele>
        <time>2024-05-10T15:27:46Z</time>
      </trkpt>
      <trkpt lat="43.20126" lon="2.43427">
        <ele>98</ele>
        <time>2024-05-10T15:27:47Z</time>
      </trkpt>
      <trkpt lat="43.20134" lon="2.43404">
        <ele>98.4</ele>
        <time>2024-05-10T15:27:48Z</time>
      </trkpt>
      <trkpt lat="43.20142" lon="2.4338">
        <ele>99.1</ele>
        <time>2024-05-10T15:27:49Z</time>
      </trkpt>
      <trkpt lat="43.2015" lon="2.43356">
        <ele>99.7</ele>
        <time>2024-05-10T15:27:50Z</time>
      </trkpt>
      <trkpt lat="43.20158" lon="2.43333">
        <ele>101</ele>
        <time>2024-05-10T15:27:51Z</time>
      </trkpt>
      <trkpt lat="43.20166" lon="2.4331">
        <ele>100.3</ele>
        <time>2024-05-10T15:27:52Z</time>
      </trkpt>
      <trkpt lat="43.20174" lon="2.43288">
        <ele>100.3</ele>
        <time>2024-05-10T15:27:53Z</time>
      </trkpt>
      <trkpt lat="43.20181" lon="2.43268">
        <ele>100.7</ele>
        <time>2024-05-10T15:27:54Z</time>
      </trkpt>
      <trkpt lat="43.20187" lon="2.4325">
        <ele>101</ele>
        <time>2024-05-10T15:27:55Z</time>
      </trkpt>
      <trkpt lat="43.20193" lon="2.43235">
        <ele>101</ele>
        <time>2024-05-10T15:27:56Z</time>
      </trkpt>
      <trkpt lat="43.202" lon="2.43221">
        <ele>100.5</ele>
        <time>2024-05-10T15:27:57Z</time>
      </trkpt>
      <trkpt lat="43.20208" lon="2.43209">
        <ele>99.8</ele>
        <time>2024-05-10T15:27:58Z</time>
      </trkpt>
      <trkpt lat="43.20217" lon="2.43196">
        <ele>99.8</ele>
        <time>2024-05-10T15:27:59Z</time>
      </trkpt>
      <trkpt lat="43.20227" lon="2.43185">
        <ele>99</ele>
        <time>2024-05-10T15:28:00Z</time>
      </trkpt>
      <trkpt lat="43.20237" lon="2.43173">
        <ele>98.5</ele>
        <time>2024-05-10T15:28:01Z</time>
      </trkpt>
      <trkpt lat="43.20248" lon="2.43162">
        <ele>98.8</ele>
        <time>2024-05-10T15:28:02Z</time>
      </trkpt>
      <trkpt lat="43.20258" lon="2.4315">
        <ele>98.1</ele>
        <time>2024-05-10T15:28:03Z</time>
      </trkpt>
      <trkpt lat="43.20269" lon="2.43138">
        <ele>97.9</ele>
        <time>2024-05-10T15:28:04Z</time>
      </trkpt>
      <trkpt lat="43.2028" lon="2.43127">
        <ele>97</ele>
        <time>2024-05-10T15:28:05Z</time>
      </trkpt>
      <trkpt lat="43.20291" lon="2.43115">
        <ele>95.7</ele>
        <time>2024-05-10T15:28:06Z</time>
      </trkpt>
      <trkpt lat="43.20302" lon="2.43104">
        <ele>94.9</ele>
        <time>2024-05-10T15:28:07Z</time>
      </trkpt>
      <trkpt lat="43.2031" lon="2.43095">
        <ele>94.3</ele>
        <time>2024-05-10T15:28:08Z</time>
      </trkpt>
      <trkpt lat="43.20318" lon="2.43087">
        <ele>93.7</ele>
        <time>2024-05-10T15:28:09Z</time>
      </trkpt>
      <trkpt lat="43.20325" lon="2.43079">
        <ele>93.1</ele>
        <time>2024-05-10T15:28:10Z</time>
      </trkpt>
      <trkpt lat="43.20332" lon="2.43071">
        <ele>92.6</ele>
        <time>2024-05-10T15:28:11Z</time>
      </trkpt>
      <trkpt lat="43.2034" lon="2.43063">
        <ele>92.2</ele>
        <time>2024-05-10T15:28:12Z</time>
      </trkpt>
      <trkpt lat="43.20347" lon="2.43055">
        <ele>92</ele>
        <time>2024-05-10T15:28:13Z</time>
      </trkpt>
      <trkpt lat="43.20354" lon="2.43048">
        <ele>91.5</ele>
        <time>2024-05-10T15:28:14Z</time>
      </trkpt>
      <trkpt lat="43.20361" lon="2.43042">
        <ele>91</ele>
        <time>2024-05-10T15:28:15Z</time>
      </trkpt>
      <trkpt lat="43.20369" lon="2.43038">
        <ele>90.6</ele>
        <time>2024-05-10T15:28:16Z</time>
      </trkpt>
      <trkpt lat="43.20379" lon="2.43036">
        <ele>90.4</ele>
        <time>2024-05-10T15:28:17Z</time>
      </trkpt>
      <trkpt lat="43.2039" lon="2.43035">
        <ele>90.2</ele>
        <time>2024-05-10T15:28:18Z</time>
      </trkpt>
      <trkpt lat="43.204" lon="2.43034">
        <ele>89.8</ele>
        <time>2024-05-10T15:28:19Z</time>
      </trkpt>
      <trkpt lat="43.20409" lon="2.43033">
        <ele>89.5</ele>
        <time>2024-05-10T15:28:20Z</time>
      </trkpt>
      <trkpt lat="43.20418" lon="2.43031">
        <ele>88.9</ele>
        <time>2024-05-10T15:28:21Z</time>
      </trkpt>
      <trkpt lat="43.20426" lon="2.43029">
        <ele>87.4</ele>
        <time>2024-05-10T15:28:22Z</time>
      </trkpt>
      <trkpt lat="43.20432" lon="2.43026">
        <ele>86.3</ele>
        <time>2024-05-10T15:28:23Z</time>
      </trkpt>
      <trkpt lat="43.20437" lon="2.43022">
        <ele>85.8</ele>
        <time>2024-05-10T15:28:24Z</time>
      </trkpt>
      <trkpt lat="43.20442" lon="2.43017">
        <ele>85.8</ele>
        <time>2024-05-10T15:28:25Z</time>
      </trkpt>
      <trkpt lat="43.20448" lon="2.43013">
        <ele>86.9</ele>
        <time>2024-05-10T15:28:26Z</time>
      </trkpt>
      <trkpt lat="43.20453" lon="2.43009">
        <ele>88.4</ele>
        <time>2024-05-10T15:28:27Z</time>
      </trkpt>
      <trkpt lat="43.20459" lon="2.43007">
        <ele>89.9</ele>
        <time>2024-05-10T15:28:28Z</time>
      </trkpt>
      <trkpt lat="43.20466" lon="2.43008">
        <ele>91.2</ele>
        <time>2024-05-10T15:28:29Z</time>
      </trkpt>
      <trkpt lat="43.20472" lon="2.4301">
        <ele>92.2</ele>
        <time>2024-05-10T15:28:30Z</time>
      </trkpt>
      <trkpt lat="43.20477" lon="2.4302">
        <ele>92.2</ele>
        <time>2024-05-10T15:28:31Z</time>
      </trkpt>
      <trkpt lat="43.20483" lon="2.43032">
        <ele>92.2</ele>
        <time>2024-05-10T15:28:32Z</time>
      </trkpt>
      <trkpt lat="43.20489" lon="2.43047">
        <ele>92</ele>
        <time>2024-05-10T15:28:33Z</time>
      </trkpt>
      <trkpt lat="43.20495" lon="2.43062">
        <ele>92</ele>
        <time>2024-05-10T15:28:34Z</time>
      </trkpt>
      <trkpt lat="43.205" lon="2.43076">
        <ele>92.3</ele>
        <time>2024-05-10T15:28:35Z</time>
      </trkpt>
      <trkpt lat="43.20505" lon="2.43089">
        <ele>92.3</ele>
        <time>2024-05-10T15:28:36Z</time>
      </trkpt>
      <trkpt lat="43.2051" lon="2.43101">
        <ele>92.2</ele>
        <time>2024-05-10T15:28:37Z</time>
      </trkpt>
      <trkpt lat="43.20515" lon="2.43112">
        <ele>92.1</ele>
        <time>2024-05-10T15:28:38Z</time>
      </trkpt>
      <trkpt lat="43.20521" lon="2.4312">
        <ele>92.1</ele>
        <time>2024-05-10T15:28:39Z</time>
      </trkpt>
      <trkpt lat="43.20526" lon="2.43128">
        <ele>92</ele>
        <time>2024-05-10T15:28:40Z</time>
      </trkpt>
      <trkpt lat="43.20533" lon="2.43134">
        <ele>91.6</ele>
        <time>2024-05-10T15:28:41Z</time>
      </trkpt>
      <trkpt lat="43.2054" lon="2.43138">
        <ele>91.1</ele>
        <time>2024-05-10T15:28:42Z</time>
      </trkpt>
      <trkpt lat="43.20546" lon="2.43142">
        <ele>90.7</ele>
        <time>2024-05-10T15:28:43Z</time>
      </trkpt>
      <trkpt lat="43.20553" lon="2.43144">
        <ele>90.4</ele>
        <time>2024-05-10T15:28:44Z</time>
      </trkpt>
      <trkpt lat="43.20558" lon="2.43146">
        <ele>90.2</ele>
        <time>2024-05-10T15:28:45Z</time>
      </trkpt>
      <trkpt lat="43.20563" lon="2.43146">
        <ele>90.1</ele>
        <time>2024-05-10T15:28:46Z</time>
      </trkpt>
      <trkpt lat="43.20568" lon="2.43147">
        <ele>89.9</ele>
        <time>2024-05-10T15:28:47Z</time>
      </trkpt>
      <trkpt lat="43.20572" lon="2.43147">
        <ele>89.9</ele>
        <time>2024-05-10T15:28:48Z</time>
      </trkpt>
      <trkpt lat="43.20575" lon="2.43147">
        <ele>89.8</ele>
        <time>2024-05-10T15:28:49Z</time>
      </trkpt>
      <trkpt lat="43.20577" lon="2.43147">
        <ele>89.8</ele>
        <time>2024-05-10T15:28:50Z</time>
      </trkpt>
      <trkpt lat="43.20579" lon="2.43147">
        <ele>89.8</ele>
        <time>2024-05-10T15:28:51Z</time>
      </trkpt>
      <trkpt lat="43.20581" lon="2.43147">
        <ele>89.7</ele>
        <time>2024-05-10T15:28:52Z</time>
      </trkpt>
      <trkpt lat="43.20583" lon="2.43145">
        <ele>89.8</ele>
        <time>2024-05-10T15:28:53Z</time>
      </trkpt>
      <trkpt lat="43.20584" lon="2.43145">
        <ele>89.8</ele>
        <time>2024-05-10T15:28:54Z</time>
      </trkpt>
      <trkpt lat="43.20586" lon="2.43144">
        <ele>89.8</ele>
        <time>2024-05-10T15:28:55Z</time>
      </trkpt>
      <trkpt lat="43.20588" lon="2.43143">
        <ele>89.9</ele>
        <time>2024-05-10T15:28:56Z</time>
      </trkpt>
      <trkpt lat="43.20589" lon="2.43144">
        <ele>89.8</ele>
        <time>2024-05-10T15:28:57Z</time>
      </trkpt>
      <trkpt lat="43.20591" lon="2.43143">
        <ele>89.9</ele>
        <time>2024-05-10T15:28:58Z</time>
      </trkpt>
      <trkpt lat="43.20593" lon="2.43141">
        <ele>89.9</ele>
        <time>2024-05-10T15:28:59Z</time>
      </trkpt>
      <trkpt lat="43.20595" lon="2.43139">
        <ele>90</ele>
        <time>2024-05-10T15:29:00Z</time>
      </trkpt>
      <trkpt lat="43.20595" lon="2.43139">
        <ele>90</ele>
        <time>2024-05-10T15:29:01Z</time>
      </trkpt>
      <trkpt lat="43.20596" lon="2.43138">
        <ele>90.1</ele>
        <time>2024-05-10T15:29:02Z</time>
      </trkpt>
      <trkpt lat="43.20596" lon="2.43138">
        <ele>90.1</ele>
        <time>2024-05-10T15:29:03Z</time>
      </trkpt>
      <trkpt lat="43.20596" lon="2.43138">
        <ele>90.1</ele>
        <time>2024-05-10T15:29:04Z</time>
      </trkpt>
      <trkpt lat="43.20596" lon="2.43138">
        <ele>90.1</ele>
        <time>2024-05-10T15:29:05Z</time>
      </trkpt>
      <trkpt lat="43.20596" lon="2.43138">
        <ele>90.1</ele>
        <time>2024-05-10T15:29:06Z</time>
      </trkpt>
      <trkpt lat="43.20596" lon="2.43138">
        <ele>90.1</ele>
        <time>2024-05-10T15:29:07Z</time>
      </trkpt>
      <trkpt lat="43.20596" lon="2.43138">
        <ele>90.1</ele>
        <time>2024-05-10T15:29:08Z</time>
      </trkpt>
      <trkpt lat="43.20596" lon="2.43138">
        <ele>90.1</ele>
        <time>2024-05-10T15:29:09Z</time>
      </trkpt>
      <trkpt lat="43.20596" lon="2.43138">
        <ele>90.1</ele>
        <time>2024-05-10T15:29:10Z</time>
      </trkpt>
      <trkpt lat="43.20596" lon="2.43138">
        <ele>90.1</ele>
        <time>2024-05-10T15:29:11Z</time>
      </trkpt>
      <trkpt lat="43.20596" lon="2.43138">
        <ele>90.1</ele>
        <time>2024-05-10T15:29:12Z</time>
      </trkpt>
      <trkpt lat="43.20596" lon="2.43138">
        <ele>90.1</ele>
        <time>2024-05-10T15:29:13Z</time>
      </trkpt>
      <trkpt lat="43.20596" lon="2.43138">
        <ele>90.1</ele>
        <time>2024-05-10T15:29:14Z</time>
      </trkpt>
      <trkpt lat="43.20596" lon="2.43138">
        <ele>90.1</ele>
        <time>2024-05-10T15:29:15Z</time>
      </trkpt>
      <trkpt lat="43.20596" lon="2.43138">
        <ele>90.1</ele>
        <time>2024-05-10T15:29:16Z</time>
      </trkpt>
      <trkpt lat="43.20596" lon="2.43138">
        <ele>90.1</ele>
        <time>2024-05-10T15:29:17Z</time>
      </trkpt>
      <trkpt lat="43.20596" lon="2.43138">
        <ele>90.1</ele>
        <time>2024-05-10T15:29:18Z</time>
      </trkpt>
      <trkpt lat="43.20597" lon="2.43138">
        <ele>90.1</ele>
        <time>2024-05-10T15:29:19Z</time>
      </trkpt>
      <trkpt lat="43.20598" lon="2.43136">
        <ele>90.3</ele>
        <time>2024-05-10T15:29:20Z</time>
      </trkpt>
      <trkpt lat="43.206" lon="2.43134">
        <ele>90.4</ele>
        <time>2024-05-10T15:29:21Z</time>
      </trkpt>
      <trkpt lat="43.20602" lon="2.43131">
        <ele>90.6</ele>
        <time>2024-05-10T15:29:22Z</time>
      </trkpt>
      <trkpt lat="43.20603" lon="2.43128">
        <ele>90.7</ele>
        <time>2024-05-10T15:29:23Z</time>
      </trkpt>
      <trkpt lat="43.20605" lon="2.43126">
        <ele>90.8</ele>
        <time>2024-05-10T15:29:24Z</time>
      </trkpt>
      <trkpt lat="43.20605" lon="2.43124">
        <ele>90.9</ele>
        <time>2024-05-10T15:29:25Z</time>
      </trkpt>
      <trkpt lat="43.20605" lon="2.43124">
        <ele>90.9</ele>
        <time>2024-05-10T15:29:26Z</time>
      </trkpt>
      <trkpt lat="43.20605" lon="2.43124">
        <ele>90.9</ele>
        <time>2024-05-10T15:29:27Z</time>
      </trkpt>
      <trkpt lat="43.20605" lon="2.43125">
        <ele>90.8</ele>
        <time>2024-05-10T15:29:28Z</time>
      </trkpt>
      <trkpt lat="43.20605" lon="2.43125">
        <ele>90.8</ele>
        <time>2024-05-10T15:29:29Z</time>
      </trkpt>
      <trkpt lat="43.20605" lon="2.43125">
        <ele>90.8</ele>
        <time>2024-05-10T15:29:30Z</time>
      </trkpt>
      <trkpt lat="43.20605" lon="2.43125">
        <ele>90.8</ele>
        <time>2024-05-10T15:29:31Z</time>
      </trkpt>
      <trkpt lat="43.20606" lon="2.43125">
        <ele>90.8</ele>
        <time>2024-05-10T15:29:32Z</time>
      </trkpt>
      <trkpt lat="43.20606" lon="2.43125">
        <ele>90.8</ele>
        <time>2024-05-10T15:29:33Z</time>
      </trkpt>
      <trkpt lat="43.20606" lon="2.43125">
        <ele>90.8</ele>
        <time>2024-05-10T15:29:34Z</time>
      </trkpt>
      <trkpt lat="43.20606" lon="2.43125">
        <ele>90.8</ele>
        <time>2024-05-10T15:29:35Z</time>
      </trkpt>
      <trkpt lat="43.20606" lon="2.43125">
        <ele>90.8</ele>
        <time>2024-05-10T15:29:36Z</time>
      </trkpt>
      <trkpt lat="43.20606" lon="2.43125">
        <ele>90.8</ele>
        <time>2024-05-10T15:29:37Z</time>
      </trkpt>
      <trkpt lat="43.20606" lon="2.43125">
        <ele>90.8</ele>
        <time>2024-05-10T15:29:38Z</time>
      </trkpt>
      <trkpt lat="43.20606" lon="2.43125">
        <ele>90.8</ele>
        <time>2024-05-10T15:29:39Z</time>
      </trkpt>
      <trkpt lat="43.20606" lon="2.43125">
        <ele>90.8</ele>
        <time>2024-05-10T15:29:40Z</time>
      </trkpt>
      <trkpt lat="43.20606" lon="2.43125">
        <ele>90.8</ele>
        <time>2024-05-10T15:29:41Z</time>
      </trkpt>
      <trkpt lat="43.20606" lon="2.43125">
        <ele>90.8</ele>
        <time>2024-05-10T15:29:42Z</time>
      </trkpt>
      <trkpt lat="43.20606" lon="2.43125">
        <ele>90.8</ele>
        <time>2024-05-10T15:29:43Z</time>
      </trkpt>
      <trkpt lat="43.20606" lon="2.43125">
        <ele>90.8</ele>
        <time>2024-05-10T15:29:44Z</time>
      </trkpt>
      <trkpt lat="43.20606" lon="2.43125">
        <ele>90.8</ele>
        <time>2024-05-10T15:29:45Z</time>
      </trkpt>
      <trkpt lat="43.20606" lon="2.43125">
        <ele>90.8</ele>
        <time>2024-05-10T15:29:46Z</time>
      </trkpt>
      <trkpt lat="43.20606" lon="2.43125">
        <ele>90.8</ele>
        <time>2024-05-10T15:29:47Z</time>
      </trkpt>
      <trkpt lat="43.20606" lon="2.43125">
        <ele>90.8</ele>
        <time>2024-05-10T15:29:48Z</time>
      </trkpt>
      <trkpt lat="43.20606" lon="2.43125">
        <ele>90.8</ele>
        <time>2024-05-10T15:29:49Z</time>
      </trkpt>
      <trkpt lat="43.20606" lon="2.43125">
        <ele>90.8</ele>
        <time>2024-05-10T15:29:50Z</time>
      </trkpt>
      <trkpt lat="43.20606" lon="2.43125">
        <ele>90.8</ele>
        <time>2024-05-10T15:29:51Z</time>
      </trkpt>
      <trkpt lat="43.20606" lon="2.43125">
        <ele>90.8</ele>
        <time>2024-05-10T15:29:52Z</time>
      </trkpt>
      <trkpt lat="43.20606" lon="2.43125">
        <ele>90.8</ele>
        <time>2024-05-10T15:29:53Z</time>
      </trkpt>
      <trkpt lat="43.20606" lon="2.43125">
        <ele>90.8</ele>
        <time>2024-05-10T15:29:54Z</time>
      </trkpt>
      <trkpt lat="43.20606" lon="2.43125">
        <ele>90.8</ele>
        <time>2024-05-10T15:29:55Z</time>
      </trkpt>
      <trkpt lat="43.20606" lon="2.43125">
        <ele>90.8</ele>
        <time>2024-05-10T15:29:56Z</time>
      </trkpt>
      <trkpt lat="43.20606" lon="2.43125">
        <ele>90.8</ele>
        <time>2024-05-10T15:29:57Z</time>
      </trkpt>
      <trkpt lat="43.20606" lon="2.43125">
        <ele>90.8</ele>
        <time>2024-05-10T15:29:58Z</time>
      </trkpt>
      <trkpt lat="43.20606" lon="2.43125">
        <ele>90.8</ele>
        <time>2024-05-10T15:29:59Z</time>
      </trkpt>
      <trkpt lat="43.20606" lon="2.43125">
        <ele>90.8</ele>
        <time>2024-05-10T15:30:00Z</time>
      </trkpt>
      <trkpt lat="43.20606" lon="2.43125">
        <ele>90.8</ele>
        <time>2024-05-10T15:30:01Z</time>
      </trkpt>
      <trkpt lat="43.20606" lon="2.43125">
        <ele>90.8</ele>
        <time>2024-05-10T15:30:02Z</time>
      </trkpt>
      <trkpt lat="43.20606" lon="2.43125">
        <ele>90.8</ele>
        <time>2024-05-10T15:30:03Z</time>
      </trkpt>
      <trkpt lat="43.20606" lon="2.43125">
        <ele>90.8</ele>
        <time>2024-05-10T15:30:04Z</time>
      </trkpt>
      <trkpt lat="43.20606" lon="2.43125">
        <ele>90.8</ele>
        <time>2024-05-10T15:30:05Z</time>
      </trkpt>
      <trkpt lat="43.20606" lon="2.43125">
        <ele>90.8</ele>
        <time>2024-05-10T15:30:06Z</time>
      </trkpt>
      <trkpt lat="43.20606" lon="2.43125">
        <ele>90.8</ele>
        <time>2024-05-10T15:30:07Z</time>
      </trkpt>
      <trkpt lat="43.20606" lon="2.43125">
        <ele>90.8</ele>
        <time>2024-05-10T15:30:08Z</time>
      </trkpt>
      <trkpt lat="43.20606" lon="2.43125">
        <ele>90.8</ele>
        <time>2024-05-10T15:30:09Z</time>
      </trkpt>
      <trkpt lat="43.20606" lon="2.43126">
        <ele>90.7</ele>
        <time>2024-05-10T15:30:10Z</time>
      </trkpt>
      <trkpt lat="43.20606" lon="2.43126">
        <ele>90.7</ele>
        <time>2024-05-10T15:30:11Z</time>
      </trkpt>
      <trkpt lat="43.20606" lon="2.43126">
        <ele>90.7</ele>
        <time>2024-05-10T15:30:12Z</time>
      </trkpt>
      <trkpt lat="43.20606" lon="2.43126">
        <ele>90.7</ele>
        <time>2024-05-10T15:30:13Z</time>
      </trkpt>
      <trkpt lat="43.20606" lon="2.43125">
        <ele>90.8</ele>
        <time>2024-05-10T15:30:14Z</time>
      </trkpt>
      <trkpt lat="43.20606" lon="2.43125">
        <ele>90.8</ele>
        <time>2024-05-10T15:30:15Z</time>
      </trkpt>
      <trkpt lat="43.20606" lon="2.43125">
        <ele>90.8</ele>
        <time>2024-05-10T15:30:16Z</time>
      </trkpt>
      <trkpt lat="43.20606" lon="2.43125">
        <ele>90.8</ele>
        <time>2024-05-10T15:30:17Z</time>
      </trkpt>
      <trkpt lat="43.20606" lon="2.43125">
        <ele>90.8</ele>
        <time>2024-05-10T15:30:18Z</time>
      </trkpt>
      <trkpt lat="43.20606" lon="2.43125">
        <ele>90.8</ele>
        <time>2024-05-10T15:30:19Z</time>
      </trkpt>
      <trkpt lat="43.20606" lon="2.43125">
        <ele>90.8</ele>
        <time>2024-05-10T15:30:20Z</time>
      </trkpt>
      <trkpt lat="43.20606" lon="2.43125">
        <ele>90.8</ele>
        <time>2024-05-10T15:30:21Z</time>
      </trkpt>
      <trkpt lat="43.20606" lon="2.43125">
        <ele>90.8</ele>
        <time>2024-05-10T15:30:22Z</time>
      </trkpt>
      <trkpt lat="43.20606" lon="2.43125">
        <ele>90.8</ele>
        <time>2024-05-10T15:30:23Z</time>
      </trkpt>
      <trkpt lat="43.20606" lon="2.43125">
        <ele>90.8</ele>
        <time>2024-05-10T15:30:24Z</time>
      </trkpt>
      <trkpt lat="43.20606" lon="2.43125">
        <ele>90.8</ele>
        <time>2024-05-10T15:30:25Z</time>
      </trkpt>
      <trkpt lat="43.20606" lon="2.43125">
        <ele>90.8</ele>
        <time>2024-05-10T15:30:26Z</time>
      </trkpt>
      <trkpt lat="43.20606" lon="2.43125">
        <ele>90.8</ele>
        <time>2024-05-10T15:30:27Z</time>
      </trkpt>
      <trkpt lat="43.20606" lon="2.43125">
        <ele>90.8</ele>
        <time>2024-05-10T15:30:28Z</time>
      </trkpt>
      <trkpt lat="43.20606" lon="2.43125">
        <ele>90.8</ele>
        <time>2024-05-10T15:30:29Z</time>
      </trkpt>
      <trkpt lat="43.20606" lon="2.43125">
        <ele>90.8</ele>
        <time>2024-05-10T15:30:30Z</time>
      </trkpt>
      <trkpt lat="43.20606" lon="2.43125">
        <ele>90.8</ele>
        <time>2024-05-10T15:30:31Z</time>
      </trkpt>
      <trkpt lat="43.20606" lon="2.43125">
        <ele>90.8</ele>
        <time>2024-05-10T15:30:32Z</time>
      </trkpt>
      <trkpt lat="43.20606" lon="2.43125">
        <ele>90.8</ele>
        <time>2024-05-10T15:30:33Z</time>
      </trkpt>
      <trkpt lat="43.20606" lon="2.43125">
        <ele>90.8</ele>
        <time>2024-05-10T15:30:34Z</time>
      </trkpt>
      <trkpt lat="43.20606" lon="2.43125">
        <ele>90.8</ele>
        <time>2024-05-10T15:30:35Z</time>
      </trkpt>
      <trkpt lat="43.20606" lon="2.43125">
        <ele>90.8</ele>
        <time>2024-05-10T15:30:36Z</time>
      </trkpt>
      <trkpt lat="43.20606" lon="2.43125">
        <ele>90.8</ele>
        <time>2024-05-10T15:30:37Z</time>
      </trkpt>
      <trkpt lat="43.20606" lon="2.43125">
        <ele>90.8</ele>
        <time>2024-05-10T15:30:38Z</time>
      </trkpt>
      <trkpt lat="43.20606" lon="2.43125">
        <ele>90.8</ele>
        <time>2024-05-10T15:30:39Z</time>
      </trkpt>
      <trkpt lat="43.20606" lon="2.43125">
        <ele>90.8</ele>
        <time>2024-05-10T15:30:40Z</time>
      </trkpt>
      <trkpt lat="43.20606" lon="2.43125">
        <ele>90.8</ele>
        <time>2024-05-10T15:30:41Z</time>
      </trkpt>
      <trkpt lat="43.20606" lon="2.43125">
        <ele>90.8</ele>
        <time>2024-05-10T15:30:42Z</time>
      </trkpt>
      <trkpt lat="43.20606" lon="2.43125">
        <ele>90.8</ele>
        <time>2024-05-10T15:30:43Z</time>
      </trkpt>
      <trkpt lat="43.20606" lon="2.43125">
        <ele>90.8</ele>
        <time>2024-05-10T15:30:44Z</time>
      </trkpt>
      <trkpt lat="43.20606" lon="2.43125">
        <ele>90.8</ele>
        <time>2024-05-10T15:30:45Z</time>
      </trkpt>
      <trkpt lat="43.20606" lon="2.43125">
        <ele>90.8</ele>
        <time>2024-05-10T15:30:46Z</time>
      </trkpt>
      <trkpt lat="43.20606" lon="2.43125">
        <ele>90.8</ele>
        <time>2024-05-10T15:30:47Z</time>
      </trkpt>
      <trkpt lat="43.20606" lon="2.43125">
        <ele>90.8</ele>
        <time>2024-05-10T15:30:48Z</time>
      </trkpt>
      <trkpt lat="43.20606" lon="2.43125">
        <ele>90.8</ele>
        <time>2024-05-10T15:30:49Z</time>
      </trkpt>
      <trkpt lat="43.20606" lon="2.43125">
        <ele>90.8</ele>
        <time>2024-05-10T15:30:50Z</time>
      </trkpt>
      <trkpt lat="43.20606" lon="2.43125">
        <ele>90.8</ele>
        <time>2024-05-10T15:30:51Z</time>
      </trkpt>
      <trkpt lat="43.20606" lon="2.43125">
        <ele>90.8</ele>
        <time>2024-05-10T15:30:52Z</time>
      </trkpt>
      <trkpt lat="43.20606" lon="2.43125">
        <ele>90.8</ele>
        <time>2024-05-10T15:30:53Z</time>
      </trkpt>
      <trkpt lat="43.20606" lon="2.43125">
        <ele>90.8</ele>
        <time>2024-05-10T15:30:54Z</time>
      </trkpt>
      <trkpt lat="43.20606" lon="2.43125">
        <ele>90.8</ele>
        <time>2024-05-10T15:30:55Z</time>
      </trkpt>
      <trkpt lat="43.20606" lon="2.43125">
        <ele>90.8</ele>
        <time>2024-05-10T15:30:56Z</time>
      </trkpt>
      <trkpt lat="43.20606" lon="2.43125">
        <ele>90.8</ele>
        <time>2024-05-10T15:30:57Z</time>
      </trkpt>
      <trkpt lat="43.20606" lon="2.43125">
        <ele>90.8</ele>
        <time>2024-05-10T15:30:58Z</time>
      </trkpt>
      <trkpt lat="43.20606" lon="2.43125">
        <ele>90.8</ele>
        <time>2024-05-10T15:30:59Z</time>
      </trkpt>
      <trkpt lat="43.20606" lon="2.43125">
        <ele>90.8</ele>
        <time>2024-05-10T15:31:00Z</time>
      </trkpt>
      <trkpt lat="43.20606" lon="2.43125">
        <ele>90.8</ele>
        <time>2024-05-10T15:31:01Z</time>
      </trkpt>
      <trkpt lat="43.20606" lon="2.43125">
        <ele>90.8</ele>
        <time>2024-05-10T15:31:02Z</time>
      </trkpt>
      <trkpt lat="43.20606" lon="2.43125">
        <ele>90.8</ele>
        <time>2024-05-10T15:31:03Z</time>
      </trkpt>
      <trkpt lat="43.20606" lon="2.43125">
        <ele>90.8</ele>
        <time>2024-05-10T15:31:04Z</time>
      </trkpt>
      <trkpt lat="43.20606" lon="2.43125">
        <ele>90.8</ele>
        <time>2024-05-10T15:31:05Z</time>
      </trkpt>
      <trkpt lat="43.20606" lon="2.43125">
        <ele>90.8</ele>
        <time>2024-05-10T15:31:06Z</time>
      </trkpt>
      <trkpt lat="43.20606" lon="2.43125">
        <ele>90.8</ele>
        <time>2024-05-10T15:31:07Z</time>
      </trkpt>
      <trkpt lat="43.20606" lon="2.43125">
        <ele>90.8</ele>
        <time>2024-05-10T15:31:08Z</time>
      </trkpt>
      <trkpt lat="43.20606" lon="2.43125">
        <ele>90.8</ele>
        <time>2024-05-10T15:31:09Z</time>
      </trkpt>
      <trkpt lat="43.20606" lon="2.43125">
        <ele>90.8</ele>
        <time>2024-05-10T15:31:10Z</time>
      </trkpt>
      <trkpt lat="43.20606" lon="2.43125">
        <ele>90.8</ele>
        <time>2024-05-10T15:31:11Z</time>
      </trkpt>
      <trkpt lat="43.20606" lon="2.43125">
        <ele>90.8</ele>
        <time>2024-05-10T15:31:12Z</time>
      </trkpt>
      <trkpt lat="43.20606" lon="2.43125">
        <ele>90.8</ele>
        <time>2024-05-10T15:31:13Z</time>
      </trkpt>
      <trkpt lat="43.20606" lon="2.43125">
        <ele>90.8</ele>
        <time>2024-05-10T15:31:14Z</time>
      </trkpt>
      <trkpt lat="43.20606" lon="2.43125">
        <ele>90.8</ele>
        <time>2024-05-10T15:31:15Z</time>
      </trkpt>
      <trkpt lat="43.20606" lon="2.43125">
        <ele>90.8</ele>
        <time>2024-05-10T15:31:16Z</time>
      </trkpt>
      <trkpt lat="43.20606" lon="2.43125">
        <ele>90.8</ele>
        <time>2024-05-10T15:31:17Z</time>
      </trkpt>
      <trkpt lat="43.20606" lon="2.43125">
        <ele>90.8</ele>
        <time>2024-05-10T15:31:18Z</time>
      </trkpt>
      <trkpt lat="43.20606" lon="2.43125">
        <ele>90.8</ele>
        <time>2024-05-10T15:31:19Z</time>
      </trkpt>
      <trkpt lat="43.20606" lon="2.43125">
        <ele>90.8</ele>
        <time>2024-05-10T15:31:20Z</time>
      </trkpt>
      <trkpt lat="43.20606" lon="2.43125">
        <ele>90.8</ele>
        <time>2024-05-10T15:31:21Z</time>
      </trkpt>
      <trkpt lat="43.20606" lon="2.43125">
        <ele>90.8</ele>
        <time>2024-05-10T15:31:22Z</time>
      </trkpt>
      <trkpt lat="43.20606" lon="2.43125">
        <ele>90.8</ele>
        <time>2024-05-10T15:31:23Z</time>
      </trkpt>
      <trkpt lat="43.20606" lon="2.43125">
        <ele>90.8</ele>
        <time>2024-05-10T15:31:24Z</time>
      </trkpt>
      <trkpt lat="43.20606" lon="2.43125">
        <ele>90.8</ele>
        <time>2024-05-10T15:31:25Z</time>
      </trkpt>
      <trkpt lat="43.20606" lon="2.43125">
        <ele>90.8</ele>
        <time>2024-05-10T15:31:26Z</time>
      </trkpt>
      <trkpt lat="43.20606" lon="2.43125">
        <ele>90.8</ele>
        <time>2024-05-10T15:31:27Z</time>
      </trkpt>
      <trkpt lat="43.20606" lon="2.43125">
        <ele>90.8</ele>
        <time>2024-05-10T15:31:28Z</time>
      </trkpt>
      <trkpt lat="43.20606" lon="2.43125">
        <ele>90.8</ele>
        <time>2024-05-10T15:31:29Z</time>
      </trkpt>
      <trkpt lat="43.20606" lon="2.43125">
        <ele>90.8</ele>
        <time>2024-05-10T15:31:30Z</time>
      </trkpt>
      <trkpt lat="43.20606" lon="2.43125">
        <ele>90.8</ele>
        <time>2024-05-10T15:31:31Z</time>
      </trkpt>
      <trkpt lat="43.20606" lon="2.43125">
        <ele>90.8</ele>
        <time>2024-05-10T15:31:32Z</time>
      </trkpt>
      <trkpt lat="43.20606" lon="2.43125">
        <ele>90.8</ele>
        <time>2024-05-10T15:31:33Z</time>
      </trkpt>
      <trkpt lat="43.20606" lon="2.43125">
        <ele>90.8</ele>
        <time>2024-05-10T15:31:34Z</time>
      </trkpt>
      <trkpt lat="43.20606" lon="2.43125">
        <ele>90.8</ele>
        <time>2024-05-10T15:31:35Z</time>
      </trkpt>
      <trkpt lat="43.20606" lon="2.43125">
        <ele>90.8</ele>
        <time>2024-05-10T15:31:36Z</time>
      </trkpt>
      <trkpt lat="43.20606" lon="2.43125">
        <ele>90.8</ele>
        <time>2024-05-10T15:31:37Z</time>
      </trkpt>
      <trkpt lat="43.20606" lon="2.43125">
        <ele>90.8</ele>
        <time>2024-05-10T15:31:38Z</time>
      </trkpt>
      <trkpt lat="43.20606" lon="2.43125">
        <ele>90.8</ele>
        <time>2024-05-10T15:31:39Z</time>
      </trkpt>
      <trkpt lat="43.20606" lon="2.43125">
        <ele>90.8</ele>
        <time>2024-05-10T15:31:40Z</time>
      </trkpt>
      <trkpt lat="43.20606" lon="2.43125">
        <ele>90.8</ele>
        <time>2024-05-10T15:31:41Z</time>
      </trkpt>
      <trkpt lat="43.20606" lon="2.43125">
        <ele>90.8</ele>
        <time>2024-05-10T15:31:42Z</time>
      </trkpt>
      <trkpt lat="43.20606" lon="2.43125">
        <ele>90.8</ele>
        <time>2024-05-10T15:31:43Z</time>
      </trkpt>
      <trkpt lat="43.20606" lon="2.43125">
        <ele>90.8</ele>
        <time>2024-05-10T15:31:44Z</time>
      </trkpt>
      <trkpt lat="43.20606" lon="2.43125">
        <ele>90.8</ele>
        <time>2024-05-10T15:31:45Z</time>
      </trkpt>
      <trkpt lat="43.20606" lon="2.43125">
        <ele>90.8</ele>
        <time>2024-05-10T15:31:46Z</time>
      </trkpt>
      <trkpt lat="43.20606" lon="2.43125">
        <ele>90.8</ele>
        <time>2024-05-10T15:31:47Z</time>
      </trkpt>
      <trkpt lat="43.20607" lon="2.43123">
        <ele>90.8</ele>
        <time>2024-05-10T15:31:48Z</time>
      </trkpt>
      <trkpt lat="43.20607" lon="2.4312">
        <ele>91</ele>
        <time>2024-05-10T15:31:49Z</time>
      </trkpt>
      <trkpt lat="43.20608" lon="2.43118">
        <ele>91</ele>
        <time>2024-05-10T15:31:50Z</time>
      </trkpt>
      <trkpt lat="43.20609" lon="2.43115">
        <ele>91.1</ele>
        <time>2024-05-10T15:31:51Z</time>
      </trkpt>
      <trkpt lat="43.20609" lon="2.43113">
        <ele>91.1</ele>
        <time>2024-05-10T15:31:52Z</time>
      </trkpt>
      <trkpt lat="43.20609" lon="2.43112">
        <ele>91.2</ele>
        <time>2024-05-10T15:31:53Z</time>
      </trkpt>
      <trkpt lat="43.20609" lon="2.43112">
        <ele>91.2</ele>
        <time>2024-05-10T15:31:54Z</time>
      </trkpt>
      <trkpt lat="43.20609" lon="2.43112">
        <ele>91.2</ele>
        <time>2024-05-10T15:31:55Z</time>
      </trkpt>
      <trkpt lat="43.20609" lon="2.43112">
        <ele>91.2</ele>
        <time>2024-05-10T15:31:56Z</time>
      </trkpt>
      <trkpt lat="43.20609" lon="2.43112">
        <ele>91.2</ele>
        <time>2024-05-10T15:31:57Z</time>
      </trkpt>
      <trkpt lat="43.20609" lon="2.43112">
        <ele>91.2</ele>
        <time>2024-05-10T15:31:58Z</time>
      </trkpt>
      <trkpt lat="43.20609" lon="2.43112">
        <ele>91.2</ele>
        <time>2024-05-10T15:31:59Z</time>
      </trkpt>
      <trkpt lat="43.20608" lon="2.43112">
        <ele>91.3</ele>
        <time>2024-05-10T15:32:00Z</time>
      </trkpt>
      <trkpt lat="43.20608" lon="2.43112">
        <ele>91.3</ele>
        <time>2024-05-10T15:32:01Z</time>
      </trkpt>
      <trkpt lat="43.20609" lon="2.43112">
        <ele>91.2</ele>
        <time>2024-05-10T15:32:02Z</time>
      </trkpt>
      <trkpt lat="43.20609" lon="2.43112">
        <ele>91.2</ele>
        <time>2024-05-10T15:32:03Z</time>
      </trkpt>
      <trkpt lat="43.20609" lon="2.43112">
        <ele>91.2</ele>
        <time>2024-05-10T15:32:04Z</time>
      </trkpt>
      <trkpt lat="43.20609" lon="2.43112">
        <ele>91.2</ele>
        <time>2024-05-10T15:32:05Z</time>
      </trkpt>
      <trkpt lat="43.20609" lon="2.43112">
        <ele>91.2</ele>
        <time>2024-05-10T15:32:06Z</time>
      </trkpt>
      <trkpt lat="43.20609" lon="2.43112">
        <ele>91.2</ele>
        <time>2024-05-10T15:32:07Z</time>
      </trkpt>
      <trkpt lat="43.20609" lon="2.43112">
        <ele>91.2</ele>
        <time>2024-05-10T15:32:08Z</time>
      </trkpt>
      <trkpt lat="43.20609" lon="2.43112">
        <ele>91.2</ele>
        <time>2024-05-10T15:32:09Z</time>
      </trkpt>
      <trkpt lat="43.20609" lon="2.43111">
        <ele>91.2</ele>
        <time>2024-05-10T15:32:10Z</time>
      </trkpt>
      <trkpt lat="43.20609" lon="2.4311">
        <ele>91.3</ele>
        <time>2024-05-10T15:32:11Z</time>
      </trkpt>
      <trkpt lat="43.20609" lon="2.43106">
        <ele>91.4</ele>
        <time>2024-05-10T15:32:12Z</time>
      </trkpt>
      <trkpt lat="43.2061" lon="2.43102">
        <ele>91.5</ele>
        <time>2024-05-10T15:32:13Z</time>
      </trkpt>
      <trkpt lat="43.2061" lon="2.43097">
        <ele>91.7</ele>
        <time>2024-05-10T15:32:14Z</time>
      </trkpt>
      <trkpt lat="43.20611" lon="2.43093">
        <ele>91.7</ele>
        <time>2024-05-10T15:32:15Z</time>
      </trkpt>
      <trkpt lat="43.20611" lon="2.4309">
        <ele>91.8</ele>
        <time>2024-05-10T15:32:16Z</time>
      </trkpt>
      <trkpt lat="43.20612" lon="2.43086">
        <ele>92</ele>
        <time>2024-05-10T15:32:17Z</time>
      </trkpt>
      <trkpt lat="43.20612" lon="2.43083">
        <ele>92.1</ele>
        <time>2024-05-10T15:32:18Z</time>
      </trkpt>
      <trkpt lat="43.20614" lon="2.43081">
        <ele>92.3</ele>
        <time>2024-05-10T15:32:19Z</time>
      </trkpt>
      <trkpt lat="43.20616" lon="2.43078">
        <ele>92.5</ele>
        <time>2024-05-10T15:32:20Z</time>
      </trkpt>
      <trkpt lat="43.20619" lon="2.43075">
        <ele>92.8</ele>
        <time>2024-05-10T15:32:21Z</time>
      </trkpt>
      <trkpt lat="43.20622" lon="2.43072">
        <ele>93</ele>
        <time>2024-05-10T15:32:22Z</time>
      </trkpt>
      <trkpt lat="43.20626" lon="2.43065">
        <ele>93.4</ele>
        <time>2024-05-10T15:32:23Z</time>
      </trkpt>
      <trkpt lat="43.20628" lon="2.43058">
        <ele>93.6</ele>
        <time>2024-05-10T15:32:24Z</time>
      </trkpt>
      <trkpt lat="43.20629" lon="2.4305">
        <ele>93.8</ele>
        <time>2024-05-10T15:32:25Z</time>
      </trkpt>
      <trkpt lat="43.20629" lon="2.43041">
        <ele>94</ele>
        <time>2024-05-10T15:32:26Z</time>
      </trkpt>
      <trkpt lat="43.2063" lon="2.43032">
        <ele>94.2</ele>
        <time>2024-05-10T15:32:27Z</time>
      </trkpt>
      <trkpt lat="43.2063" lon="2.43024">
        <ele>94.5</ele>
        <time>2024-05-10T15:32:28Z</time>
      </trkpt>
      <trkpt lat="43.2063" lon="2.43016">
        <ele>94.9</ele>
        <time>2024-05-10T15:32:29Z</time>
      </trkpt>
      <trkpt lat="43.20631" lon="2.43008">
        <ele>95.2</ele>
        <time>2024-05-10T15:32:30Z</time>
      </trkpt>
      <trkpt lat="43.20631" lon="2.43001">
        <ele>95.5</ele>
        <time>2024-05-10T15:32:31Z</time>
      </trkpt>
      <trkpt lat="43.20632" lon="2.42994">
        <ele>95.5</ele>
        <time>2024-05-10T15:32:32Z</time>
      </trkpt>
      <trkpt lat="43.20633" lon="2.42987">
        <ele>95.5</ele>
        <time>2024-05-10T15:32:33Z</time>
      </trkpt>
      <trkpt lat="43.20633" lon="2.4298">
        <ele>95.6</ele>
        <time>2024-05-10T15:32:34Z</time>
      </trkpt>
      <trkpt lat="43.20633" lon="2.42972">
        <ele>95.7</ele>
        <time>2024-05-10T15:32:35Z</time>
      </trkpt>
      <trkpt lat="43.20633" lon="2.42964">
        <ele>96.2</ele>
        <time>2024-05-10T15:32:36Z</time>
      </trkpt>
      <trkpt lat="43.20633" lon="2.42955">
        <ele>96.9</ele>
        <time>2024-05-10T15:32:37Z</time>
      </trkpt>
      <trkpt lat="43.20634" lon="2.42946">
        <ele>97.4</ele>
        <time>2024-05-10T15:32:38Z</time>
      </trkpt>
      <trkpt lat="43.20634" lon="2.42937">
        <ele>97.8</ele>
        <time>2024-05-10T15:32:39Z</time>
      </trkpt>
      <trkpt lat="43.20634" lon="2.42928">
        <ele>98.1</ele>
        <time>2024-05-10T15:32:40Z</time>
      </trkpt>
      <trkpt lat="43.20634" lon="2.42917">
        <ele>98.5</ele>
        <time>2024-05-10T15:32:41Z</time>
      </trkpt>
      <trkpt lat="43.20635" lon="2.42906">
        <ele>98.5</ele>
        <time>2024-05-10T15:32:42Z</time>
      </trkpt>
      <trkpt lat="43.20635" lon="2.42896">
        <ele>98.5</ele>
        <time>2024-05-10T15:32:43Z</time>
      </trkpt>
      <trkpt lat="43.20636" lon="2.42884">
        <ele>98.1</ele>
        <time>2024-05-10T15:32:44Z</time>
      </trkpt>
      <trkpt lat="43.20636" lon="2.42873">
        <ele>97.4</ele>
        <time>2024-05-10T15:32:45Z</time>
      </trkpt>
      <trkpt lat="43.20637" lon="2.42859">
        <ele>96.4</ele>
        <time>2024-05-10T15:32:46Z</time>
      </trkpt>
      <trkpt lat="43.20638" lon="2.42846">
        <ele>96.2</ele>
        <time>2024-05-10T15:32:47Z</time>
      </trkpt>
      <trkpt lat="43.20638" lon="2.42832">
        <ele>96.3</ele>
        <time>2024-05-10T15:32:48Z</time>
      </trkpt>
      <trkpt lat="43.20639" lon="2.42817">
        <ele>96.6</ele>
        <time>2024-05-10T15:32:49Z</time>
      </trkpt>
      <trkpt lat="43.20639" lon="2.42798">
        <ele>97</ele>
        <time>2024-05-10T15:32:50Z</time>
      </trkpt>
      <trkpt lat="43.20639" lon="2.42775">
        <ele>97.1</ele>
        <time>2024-05-10T15:32:51Z</time>
      </trkpt>
      <trkpt lat="43.20638" lon="2.42752">
        <ele>98.2</ele>
        <time>2024-05-10T15:32:52Z</time>
      </trkpt>
      <trkpt lat="43.20636" lon="2.42734">
        <ele>98.8</ele>
        <time>2024-05-10T15:32:53Z</time>
      </trkpt>
      <trkpt lat="43.20635" lon="2.42722">
        <ele>98.8</ele>
        <time>2024-05-10T15:32:54Z</time>
      </trkpt>
      <trkpt lat="43.20633" lon="2.4271">
        <ele>98.9</ele>
        <time>2024-05-10T15:32:55Z</time>
      </trkpt>
      <trkpt lat="43.20631" lon="2.42698">
        <ele>98.7</ele>
        <time>2024-05-10T15:32:56Z</time>
      </trkpt>
      <trkpt lat="43.20629" lon="2.42687">
        <ele>98.8</ele>
        <time>2024-05-10T15:32:57Z</time>
      </trkpt>
      <trkpt lat="43.20627" lon="2.42676">
        <ele>99</ele>
        <time>2024-05-10T15:32:58Z</time>
      </trkpt>
      <trkpt lat="43.20624" lon="2.42666">
        <ele>99</ele>
        <time>2024-05-10T15:32:59Z</time>
      </trkpt>
      <trkpt lat="43.20621" lon="2.42656">
        <ele>99</ele>
        <time>2024-05-10T15:33:00Z</time>
      </trkpt>
      <trkpt lat="43.20618" lon="2.42646">
        <ele>99</ele>
        <time>2024-05-10T15:33:01Z</time>
      </trkpt>
      <trkpt lat="43.20616" lon="2.42637">
        <ele>99</ele>
        <time>2024-05-10T15:33:02Z</time>
      </trkpt>
      <trkpt lat="43.20615" lon="2.42629">
        <ele>99.3</ele>
        <time>2024-05-10T15:33:03Z</time>
      </trkpt>
      <trkpt lat="43.20613" lon="2.42623">
        <ele>99.5</ele>
        <time>2024-05-10T15:33:04Z</time>
      </trkpt>
      <trkpt lat="43.20611" lon="2.42617">
        <ele>99.8</ele>
        <time>2024-05-10T15:33:05Z</time>
      </trkpt>
      <trkpt lat="43.2061" lon="2.42609">
        <ele>100.2</ele>
        <time>2024-05-10T15:33:06Z</time>
      </trkpt>
      <trkpt lat="43.20608" lon="2.42601">
        <ele>100.5</ele>
        <time>2024-05-10T15:33:07Z</time>
      </trkpt>
      <trkpt lat="43.20607" lon="2.42596">
        <ele>100.7</ele>
        <time>2024-05-10T15:33:08Z</time>
      </trkpt>
      <trkpt lat="43.20606" lon="2.42591">
        <ele>100.8</ele>
        <time>2024-05-10T15:33:09Z</time>
      </trkpt>
      <trkpt lat="43.20605" lon="2.42586">
        <ele>100.9</ele>
        <time>2024-05-10T15:33:10Z</time>
      </trkpt>
      <trkpt lat="43.20604" lon="2.4258">
        <ele>100.9</ele>
        <time>2024-05-10T15:33:11Z</time>
      </trkpt>
      <trkpt lat="43.20602" lon="2.42573">
        <ele>100.9</ele>
        <time>2024-05-10T15:33:12Z</time>
      </trkpt>
      <trkpt lat="43.20601" lon="2.42565">
        <ele>100.7</ele>
        <time>2024-05-10T15:33:13Z</time>
      </trkpt>
      <trkpt lat="43.20599" lon="2.42557">
        <ele>100.5</ele>
        <time>2024-05-10T15:33:14Z</time>
      </trkpt>
      <trkpt lat="43.20598" lon="2.4255">
        <ele>100.7</ele>
        <time>2024-05-10T15:33:15Z</time>
      </trkpt>
      <trkpt lat="43.20597" lon="2.42543">
        <ele>101</ele>
        <time>2024-05-10T15:33:16Z</time>
      </trkpt>
      <trkpt lat="43.20598" lon="2.42534">
        <ele>101.2</ele>
        <time>2024-05-10T15:33:17Z</time>
      </trkpt>
      <trkpt lat="43.20599" lon="2.42528">
        <ele>101.4</ele>
        <time>2024-05-10T15:33:18Z</time>
      </trkpt>
      <trkpt lat="43.20599" lon="2.42523">
        <ele>101.7</ele>
        <time>2024-05-10T15:33:19Z</time>
      </trkpt>
      <trkpt lat="43.206" lon="2.42519">
        <ele>101.8</ele>
        <time>2024-05-10T15:33:20Z</time>
      </trkpt>
      <trkpt lat="43.20602" lon="2.42513">
        <ele>102</ele>
        <time>2024-05-10T15:33:21Z</time>
      </trkpt>
      <trkpt lat="43.20603" lon="2.42503">
        <ele>102.4</ele>
        <time>2024-05-10T15:33:22Z</time>
      </trkpt>
      <trkpt lat="43.20601" lon="2.42493">
        <ele>102.6</ele>
        <time>2024-05-10T15:33:23Z</time>
      </trkpt>
      <trkpt lat="43.20598" lon="2.42482">
        <ele>102.6</ele>
        <time>2024-05-10T15:33:24Z</time>
      </trkpt>
      <trkpt lat="43.20596" lon="2.4247">
        <ele>102.5</ele>
        <time>2024-05-10T15:33:25Z</time>
      </trkpt>
      <trkpt lat="43.20595" lon="2.42454">
        <ele>102.6</ele>
        <time>2024-05-10T15:33:26Z</time>
      </trkpt>
      <trkpt lat="43.20596" lon="2.42438">
        <ele>102.6</ele>
        <time>2024-05-10T15:33:27Z</time>
      </trkpt>
      <trkpt lat="43.20597" lon="2.42421">
        <ele>102.9</ele>
        <time>2024-05-10T15:33:28Z</time>
      </trkpt>
      <trkpt lat="43.20599" lon="2.42401">
        <ele>103</ele>
        <time>2024-05-10T15:33:29Z</time>
      </trkpt>
      <trkpt lat="43.206" lon="2.42379">
        <ele>103.1</ele>
        <time>2024-05-10T15:33:30Z</time>
      </trkpt>
      <trkpt lat="43.20602" lon="2.42352">
        <ele>103.7</ele>
        <time>2024-05-10T15:33:31Z</time>
      </trkpt>
      <trkpt lat="43.20604" lon="2.42325">
        <ele>104.4</ele>
        <time>2024-05-10T15:33:32Z</time>
      </trkpt>
      <trkpt lat="43.20605" lon="2.42295">
        <ele>104.7</ele>
        <time>2024-05-10T15:33:33Z</time>
      </trkpt>
      <trkpt lat="43.20607" lon="2.42263">
        <ele>105</ele>
        <time>2024-05-10T15:33:34Z</time>
      </trkpt>
      <trkpt lat="43.2061" lon="2.4223">
        <ele>105.1</ele>
        <time>2024-05-10T15:33:35Z</time>
      </trkpt>
      <trkpt lat="43.20611" lon="2.42193">
        <ele>105</ele>
        <time>2024-05-10T15:33:36Z</time>
      </trkpt>
      <trkpt lat="43.20613" lon="2.42153">
        <ele>105.5</ele>
        <time>2024-05-10T15:33:37Z</time>
      </trkpt>
      <trkpt lat="43.20613" lon="2.4211">
        <ele>106.1</ele>
        <time>2024-05-10T15:33:38Z</time>
      </trkpt>
      <trkpt lat="43.2061" lon="2.42069">
        <ele>106.6</ele>
        <time>2024-05-10T15:33:39Z</time>
      </trkpt>
      <trkpt lat="43.20605" lon="2.42027">
        <ele>106.8</ele>
        <time>2024-05-10T15:33:40Z</time>
      </trkpt>
      <trkpt lat="43.20598" lon="2.41986">
        <ele>106.4</ele>
        <time>2024-05-10T15:33:41Z</time>
      </trkpt>
      <trkpt lat="43.20589" lon="2.41947">
        <ele>107.9</ele>
        <time>2024-05-10T15:33:42Z</time>
      </trkpt>
      <trkpt lat="43.20579" lon="2.4191">
        <ele>108.7</ele>
        <time>2024-05-10T15:33:43Z</time>
      </trkpt>
      <trkpt lat="43.20568" lon="2.41872">
        <ele>108.6</ele>
        <time>2024-05-10T15:33:44Z</time>
      </trkpt>
      <trkpt lat="43.20556" lon="2.41833">
        <ele>110.9</ele>
        <time>2024-05-10T15:33:45Z</time>
      </trkpt>
      <trkpt lat="43.20545" lon="2.41794">
        <ele>110.9</ele>
        <time>2024-05-10T15:33:46Z</time>
      </trkpt>
      <trkpt lat="43.20534" lon="2.41756">
        <ele>112.3</ele>
        <time>2024-05-10T15:33:47Z</time>
      </trkpt>
      <trkpt lat="43.20523" lon="2.41719">
        <ele>113.1</ele>
        <time>2024-05-10T15:33:48Z</time>
      </trkpt>
      <trkpt lat="43.20513" lon="2.41683">
        <ele>114.2</ele>
        <time>2024-05-10T15:33:49Z</time>
      </trkpt>
      <trkpt lat="43.20503" lon="2.4165">
        <ele>114.9</ele>
        <time>2024-05-10T15:33:50Z</time>
      </trkpt>
      <trkpt lat="43.20495" lon="2.41621">
        <ele>116</ele>
        <time>2024-05-10T15:33:51Z</time>
      </trkpt>
      <trkpt lat="43.20487" lon="2.41595">
        <ele>116.9</ele>
        <time>2024-05-10T15:33:52Z</time>
      </trkpt>
      <trkpt lat="43.2048" lon="2.4157">
        <ele>117.2</ele>
        <time>2024-05-10T15:33:53Z</time>
      </trkpt>
      <trkpt lat="43.20473" lon="2.41546">
        <ele>116.1</ele>
        <time>2024-05-10T15:33:54Z</time>
      </trkpt>
      <trkpt lat="43.20465" lon="2.4152">
        <ele>116.6</ele>
        <time>2024-05-10T15:33:55Z</time>
      </trkpt>
      <trkpt lat="43.20458" lon="2.41494">
        <ele>116.3</ele>
        <time>2024-05-10T15:33:56Z</time>
      </trkpt>
      <trkpt lat="43.20451" lon="2.41466">
        <ele>115.7</ele>
        <time>2024-05-10T15:33:57Z</time>
      </trkpt>
      <trkpt lat="43.20445" lon="2.41438">
        <ele>116</ele>
        <time>2024-05-10T15:33:58Z</time>
      </trkpt>
      <trkpt lat="43.20438" lon="2.41411">
        <ele>116.1</ele>
        <time>2024-05-10T15:33:59Z</time>
      </trkpt>
      <trkpt lat="43.20433" lon="2.41382">
        <ele>114.8</ele>
        <time>2024-05-10T15:34:00Z</time>
      </trkpt>
      <trkpt lat="43.20429" lon="2.41353">
        <ele>114.1</ele>
        <time>2024-05-10T15:34:01Z</time>
      </trkpt>
      <trkpt lat="43.20426" lon="2.41324">
        <ele>114.4</ele>
        <time>2024-05-10T15:34:02Z</time>
      </trkpt>
      <trkpt lat="43.20424" lon="2.41294">
        <ele>114.9</ele>
        <time>2024-05-10T15:34:03Z</time>
      </trkpt>
      <trkpt lat="43.20423" lon="2.41266">
        <ele>115.3</ele>
        <time>2024-05-10T15:34:04Z</time>
      </trkpt>
      <trkpt lat="43.20423" lon="2.41238">
        <ele>115.9</ele>
        <time>2024-05-10T15:34:05Z</time>
      </trkpt>
      <trkpt lat="43.20424" lon="2.41211">
        <ele>116.2</ele>
        <time>2024-05-10T15:34:06Z</time>
      </trkpt>
      <trkpt lat="43.20426" lon="2.41186">
        <ele>116.1</ele>
        <time>2024-05-10T15:34:07Z</time>
      </trkpt>
      <trkpt lat="43.20428" lon="2.4116">
        <ele>116.3</ele>
        <time>2024-05-10T15:34:08Z</time>
      </trkpt>
      <trkpt lat="43.20431" lon="2.41135">
        <ele>116.6</ele>
        <time>2024-05-10T15:34:09Z</time>
      </trkpt>
      <trkpt lat="43.20434" lon="2.4111">
        <ele>116.8</ele>
        <time>2024-05-10T15:34:10Z</time>
      </trkpt>
      <trkpt lat="43.20438" lon="2.41088">
        <ele>117.1</ele>
        <time>2024-05-10T15:34:11Z</time>
      </trkpt>
      <trkpt lat="43.20441" lon="2.41068">
        <ele>117.1</ele>
        <time>2024-05-10T15:34:12Z</time>
      </trkpt>
      <trkpt lat="43.20445" lon="2.41048">
        <ele>117.3</ele>
        <time>2024-05-10T15:34:13Z</time>
      </trkpt>
      <trkpt lat="43.20447" lon="2.41026">
        <ele>117.9</ele>
        <time>2024-05-10T15:34:14Z</time>
      </trkpt>
      <trkpt lat="43.2045" lon="2.41004">
        <ele>118</ele>
        <time>2024-05-10T15:34:15Z</time>
      </trkpt>
      <trkpt lat="43.20453" lon="2.40981">
        <ele>118</ele>
        <time>2024-05-10T15:34:16Z</time>
      </trkpt>
      <trkpt lat="43.20456" lon="2.40956">
        <ele>118.3</ele>
        <time>2024-05-10T15:34:17Z</time>
      </trkpt>
      <trkpt lat="43.2046" lon="2.40931">
        <ele>117.7</ele>
        <time>2024-05-10T15:34:18Z</time>
      </trkpt>
      <trkpt lat="43.20463" lon="2.40905">
        <ele>117.4</ele>
        <time>2024-05-10T15:34:19Z</time>
      </trkpt>
      <trkpt lat="43.20467" lon="2.40878">
        <ele>118.2</ele>
        <time>2024-05-10T15:34:20Z</time>
      </trkpt>
      <trkpt lat="43.2047" lon="2.40851">
        <ele>118.4</ele>
        <time>2024-05-10T15:34:21Z</time>
      </trkpt>
      <trkpt lat="43.20473" lon="2.40825">
        <ele>119.2</ele>
        <time>2024-05-10T15:34:22Z</time>
      </trkpt>
      <trkpt lat="43.20476" lon="2.40799">
        <ele>119.8</ele>
        <time>2024-05-10T15:34:23Z</time>
      </trkpt>
      <trkpt lat="43.2048" lon="2.40773">
        <ele>119.8</ele>
        <time>2024-05-10T15:34:24Z</time>
      </trkpt>
      <trkpt lat="43.20483" lon="2.40746">
        <ele>120.1</ele>
        <time>2024-05-10T15:34:25Z</time>
      </trkpt>
      <trkpt lat="43.20487" lon="2.40718">
        <ele>120.5</ele>
        <time>2024-05-10T15:34:26Z</time>
      </trkpt>
      <trkpt lat="43.2049" lon="2.4069">
        <ele>120.4</ele>
        <time>2024-05-10T15:34:27Z</time>
      </trkpt>
      <trkpt lat="43.20493" lon="2.40661">
        <ele>120.6</ele>
        <time>2024-05-10T15:34:28Z</time>
      </trkpt>
      <trkpt lat="43.20497" lon="2.40632">
        <ele>121.4</ele>
        <time>2024-05-10T15:34:29Z</time>
      </trkpt>
      <trkpt lat="43.205" lon="2.40601">
        <ele>121</ele>
        <time>2024-05-10T15:34:30Z</time>
      </trkpt>
      <trkpt lat="43.20503" lon="2.40568">
        <ele>121.5</ele>
        <time>2024-05-10T15:34:31Z</time>
      </trkpt>
      <trkpt lat="43.20506" lon="2.40535">
        <ele>121.8</ele>
        <time>2024-05-10T15:34:32Z</time>
      </trkpt>
      <trkpt lat="43.20508" lon="2.40502">
        <ele>121.4</ele>
        <time>2024-05-10T15:34:33Z</time>
      </trkpt>
      <trkpt lat="43.20509" lon="2.4047">
        <ele>121.3</ele>
        <time>2024-05-10T15:34:34Z</time>
      </trkpt>
      <trkpt lat="43.20507" lon="2.40438">
        <ele>121.2</ele>
        <time>2024-05-10T15:34:35Z</time>
      </trkpt>
      <trkpt lat="43.20504" lon="2.40407">
        <ele>121.6</ele>
        <time>2024-05-10T15:34:36Z</time>
      </trkpt>
      <trkpt lat="43.20499" lon="2.40378">
        <ele>122.2</ele>
        <time>2024-05-10T15:34:37Z</time>
      </trkpt>
      <trkpt lat="43.20493" lon="2.40349">
        <ele>121.4</ele>
        <time>2024-05-10T15:34:38Z</time>
      </trkpt>
      <trkpt lat="43.20485" lon="2.40321">
        <ele>119.8</ele>
        <time>2024-05-10T15:34:39Z</time>
      </trkpt>
      <trkpt lat="43.20478" lon="2.40294">
        <ele>120.7</ele>
        <time>2024-05-10T15:34:40Z</time>
      </trkpt>
      <trkpt lat="43.20472" lon="2.40267">
        <ele>121.6</ele>
        <time>2024-05-10T15:34:41Z</time>
      </trkpt>
      <trkpt lat="43.20466" lon="2.4024">
        <ele>120.4</ele>
        <time>2024-05-10T15:34:42Z</time>
      </trkpt>
      <trkpt lat="43.20462" lon="2.40214">
        <ele>119.3</ele>
        <time>2024-05-10T15:34:43Z</time>
      </trkpt>
      <trkpt lat="43.20458" lon="2.40188">
        <ele>119.7</ele>
        <time>2024-05-10T15:34:44Z</time>
      </trkpt>
      <trkpt lat="43.20457" lon="2.40162">
        <ele>120</ele>
        <time>2024-05-10T15:34:45Z</time>
      </trkpt>
      <trkpt lat="43.20456" lon="2.40135">
        <ele>119.6</ele>
        <time>2024-05-10T15:34:46Z</time>
      </trkpt>
      <trkpt lat="43.20457" lon="2.40108">
        <ele>119.8</ele>
        <time>2024-05-10T15:34:47Z</time>
      </trkpt>
      <trkpt lat="43.20458" lon="2.40082">
        <ele>120.1</ele>
        <time>2024-05-10T15:34:48Z</time>
      </trkpt>
      <trkpt lat="43.20462" lon="2.40056">
        <ele>120.4</ele>
        <time>2024-05-10T15:34:49Z</time>
      </trkpt>
      <trkpt lat="43.20466" lon="2.4003">
        <ele>121.4</ele>
        <time>2024-05-10T15:34:50Z</time>
      </trkpt>
      <trkpt lat="43.20471" lon="2.40004">
        <ele>122</ele>
        <time>2024-05-10T15:34:51Z</time>
      </trkpt>
      <trkpt lat="43.20476" lon="2.39977">
        <ele>121.6</ele>
        <time>2024-05-10T15:34:52Z</time>
      </trkpt>
      <trkpt lat="43.20481" lon="2.3995">
        <ele>121.3</ele>
        <time>2024-05-10T15:34:53Z</time>
      </trkpt>
      <trkpt lat="43.20487" lon="2.39923">
        <ele>121.3</ele>
        <time>2024-05-10T15:34:54Z</time>
      </trkpt>
      <trkpt lat="43.20493" lon="2.39894">
        <ele>122.3</ele>
        <time>2024-05-10T15:34:55Z</time>
      </trkpt>
      <trkpt lat="43.20498" lon="2.39865">
        <ele>122.9</ele>
        <time>2024-05-10T15:34:56Z</time>
      </trkpt>
      <trkpt lat="43.20504" lon="2.39836">
        <ele>122.8</ele>
        <time>2024-05-10T15:34:57Z</time>
      </trkpt>
      <trkpt lat="43.2051" lon="2.39806">
        <ele>123.3</ele>
        <time>2024-05-10T15:34:58Z</time>
      </trkpt>
      <trkpt lat="43.20516" lon="2.39777">
        <ele>122.9</ele>
        <time>2024-05-10T15:34:59Z</time>
      </trkpt>
      <trkpt lat="43.20522" lon="2.39746">
        <ele>124.2</ele>
        <time>2024-05-10T15:35:00Z</time>
      </trkpt>
      <trkpt lat="43.20528" lon="2.39716">
        <ele>124.4</ele>
        <time>2024-05-10T15:35:01Z</time>
      </trkpt>
      <trkpt lat="43.20534" lon="2.39686">
        <ele>125.4</ele>
        <time>2024-05-10T15:35:02Z</time>
      </trkpt>
      <trkpt lat="43.2054" lon="2.39655">
        <ele>125.3</ele>
        <time>2024-05-10T15:35:03Z</time>
      </trkpt>
      <trkpt lat="43.20546" lon="2.39624">
        <ele>126.2</ele>
        <time>2024-05-10T15:35:04Z</time>
      </trkpt>
      <trkpt lat="43.20552" lon="2.39592">
        <ele>127</ele>
        <time>2024-05-10T15:35:05Z</time>
      </trkpt>
      <trkpt lat="43.20558" lon="2.39561">
        <ele>127.8</ele>
        <time>2024-05-10T15:35:06Z</time>
      </trkpt>
      <trkpt lat="43.20564" lon="2.3953">
        <ele>128</ele>
        <time>2024-05-10T15:35:07Z</time>
      </trkpt>
      <trkpt lat="43.2057" lon="2.39498">
        <ele>129</ele>
        <time>2024-05-10T15:35:08Z</time>
      </trkpt>
      <trkpt lat="43.20576" lon="2.39466">
        <ele>129.4</ele>
        <time>2024-05-10T15:35:09Z</time>
      </trkpt>
      <trkpt lat="43.20582" lon="2.39435">
        <ele>130.3</ele>
        <time>2024-05-10T15:35:10Z</time>
      </trkpt>
      <trkpt lat="43.20589" lon="2.39403">
        <ele>130.9</ele>
        <time>2024-05-10T15:35:11Z</time>
      </trkpt>
      <trkpt lat="43.20595" lon="2.39373">
        <ele>131.3</ele>
        <time>2024-05-10T15:35:12Z</time>
      </trkpt>
      <trkpt lat="43.20601" lon="2.39343">
        <ele>131.8</ele>
        <time>2024-05-10T15:35:13Z</time>
      </trkpt>
      <trkpt lat="43.20607" lon="2.39314">
        <ele>133</ele>
        <time>2024-05-10T15:35:14Z</time>
      </trkpt>
      <trkpt lat="43.20613" lon="2.39286">
        <ele>133.1</ele>
        <time>2024-05-10T15:35:15Z</time>
      </trkpt>
      <trkpt lat="43.20618" lon="2.39261">
        <ele>134</ele>
        <time>2024-05-10T15:35:16Z</time>
      </trkpt>
      <trkpt lat="43.20623" lon="2.39237">
        <ele>134.2</ele>
        <time>2024-05-10T15:35:17Z</time>
      </trkpt>
      <trkpt lat="43.20628" lon="2.39214">
        <ele>133.8</ele>
        <time>2024-05-10T15:35:18Z</time>
      </trkpt>
      <trkpt lat="43.20633" lon="2.39191">
        <ele>133.3</ele>
        <time>2024-05-10T15:35:19Z</time>
      </trkpt>
      <trkpt lat="43.20638" lon="2.39169">
        <ele>133.9</ele>
        <time>2024-05-10T15:35:20Z</time>
      </trkpt>
      <trkpt lat="43.20644" lon="2.39148">
        <ele>133.9</ele>
        <time>2024-05-10T15:35:21Z</time>
      </trkpt>
      <trkpt lat="43.20651" lon="2.39128">
        <ele>134</ele>
        <time>2024-05-10T15:35:22Z</time>
      </trkpt>
      <trkpt lat="43.2066" lon="2.3911">
        <ele>134</ele>
        <time>2024-05-10T15:35:23Z</time>
      </trkpt>
      <trkpt lat="43.20671" lon="2.39095">
        <ele>134.3</ele>
        <time>2024-05-10T15:35:24Z</time>
      </trkpt>
      <trkpt lat="43.20682" lon="2.39081">
        <ele>134</ele>
        <time>2024-05-10T15:35:25Z</time>
      </trkpt>
      <trkpt lat="43.20696" lon="2.3907">
        <ele>133.9</ele>
        <time>2024-05-10T15:35:26Z</time>
      </trkpt>
      <trkpt lat="43.2071" lon="2.39062">
        <ele>134.1</ele>
        <time>2024-05-10T15:35:27Z</time>
      </trkpt>
      <trkpt lat="43.20723" lon="2.39056">
        <ele>134</ele>
        <time>2024-05-10T15:35:28Z</time>
      </trkpt>
      <trkpt lat="43.20734" lon="2.39053">
        <ele>134.5</ele>
        <time>2024-05-10T15:35:29Z</time>
      </trkpt>
      <trkpt lat="43.20742" lon="2.3905">
        <ele>134.8</ele>
        <time>2024-05-10T15:35:30Z</time>
      </trkpt>
      <trkpt lat="43.20749" lon="2.39049">
        <ele>135</ele>
        <time>2024-05-10T15:35:31Z</time>
      </trkpt>
      <trkpt lat="43.20756" lon="2.39047">
        <ele>134.7</ele>
        <time>2024-05-10T15:35:32Z</time>
      </trkpt>
      <trkpt lat="43.20762" lon="2.39045">
        <ele>134.5</ele>
        <time>2024-05-10T15:35:33Z</time>
      </trkpt>
      <trkpt lat="43.20767" lon="2.39043">
        <ele>134.3</ele>
        <time>2024-05-10T15:35:34Z</time>
      </trkpt>
      <trkpt lat="43.20772" lon="2.39041">
        <ele>134.2</ele>
        <time>2024-05-10T15:35:35Z</time>
      </trkpt>
      <trkpt lat="43.20776" lon="2.39038">
        <ele>134.3</ele>
        <time>2024-05-10T15:35:36Z</time>
      </trkpt>
      <trkpt lat="43.2078" lon="2.39035">
        <ele>134.3</ele>
        <time>2024-05-10T15:35:37Z</time>
      </trkpt>
      <trkpt lat="43.20785" lon="2.39031">
        <ele>134</ele>
        <time>2024-05-10T15:35:38Z</time>
      </trkpt>
      <trkpt lat="43.20789" lon="2.39027">
        <ele>133.8</ele>
        <time>2024-05-10T15:35:39Z</time>
      </trkpt>
      <trkpt lat="43.20794" lon="2.39022">
        <ele>133.7</ele>
        <time>2024-05-10T15:35:40Z</time>
      </trkpt>
      <trkpt lat="43.20797" lon="2.39016">
        <ele>134.1</ele>
        <time>2024-05-10T15:35:41Z</time>
      </trkpt>
      <trkpt lat="43.208" lon="2.39012">
        <ele>134.4</ele>
        <time>2024-05-10T15:35:42Z</time>
      </trkpt>
      <trkpt lat="43.20802" lon="2.39007">
        <ele>135</ele>
        <time>2024-05-10T15:35:43Z</time>
      </trkpt>
      <trkpt lat="43.20805" lon="2.39002">
        <ele>135.7</ele>
        <time>2024-05-10T15:35:44Z</time>
      </trkpt>
      <trkpt lat="43.20807" lon="2.38993">
        <ele>135.6</ele>
        <time>2024-05-10T15:35:45Z</time>
      </trkpt>
      <trkpt lat="43.2081" lon="2.38985">
        <ele>134.9</ele>
        <time>2024-05-10T15:35:46Z</time>
      </trkpt>
      <trkpt lat="43.20812" lon="2.38978">
        <ele>134.4</ele>
        <time>2024-05-10T15:35:47Z</time>
      </trkpt>
      <trkpt lat="43.20813" lon="2.38973">
        <ele>134.1</ele>
        <time>2024-05-10T15:35:48Z</time>
      </trkpt>
      <trkpt lat="43.20814" lon="2.38968">
        <ele>134.2</ele>
        <time>2024-05-10T15:35:49Z</time>
      </trkpt>
      <trkpt lat="43.20814" lon="2.38964">
        <ele>134.5</ele>
        <time>2024-05-10T15:35:50Z</time>
      </trkpt>
      <trkpt lat="43.20816" lon="2.38962">
        <ele>134.3</ele>
        <time>2024-05-10T15:35:51Z</time>
      </trkpt>
      <trkpt lat="43.20816" lon="2.3896">
        <ele>134.5</ele>
        <time>2024-05-10T15:35:52Z</time>
      </trkpt>
      <trkpt lat="43.20816" lon="2.3896">
        <ele>134.5</ele>
        <time>2024-05-10T15:35:53Z</time>
      </trkpt>
      <trkpt lat="43.20816" lon="2.38959">
        <ele>134.6</ele>
        <time>2024-05-10T15:35:54Z</time>
      </trkpt>
      <trkpt lat="43.20816" lon="2.38959">
        <ele>134.6</ele>
        <time>2024-05-10T15:35:55Z</time>
      </trkpt>
      <trkpt lat="43.20816" lon="2.38959">
        <ele>134.6</ele>
        <time>2024-05-10T15:35:56Z</time>
      </trkpt>
      <trkpt lat="43.20816" lon="2.3896">
        <ele>134.5</ele>
        <time>2024-05-10T15:35:57Z</time>
      </trkpt>
      <trkpt lat="43.20816" lon="2.38959">
        <ele>134.6</ele>
        <time>2024-05-10T15:35:58Z</time>
      </trkpt>
      <trkpt lat="43.20816" lon="2.38959">
        <ele>134.6</ele>
        <time>2024-05-10T15:35:59Z</time>
      </trkpt>
      <trkpt lat="43.20816" lon="2.3896">
        <ele>134.5</ele>
        <time>2024-05-10T15:36:00Z</time>
      </trkpt>
      <trkpt lat="43.20817" lon="2.38959">
        <ele>134.4</ele>
        <time>2024-05-10T15:36:01Z</time>
      </trkpt>
      <trkpt lat="43.2082" lon="2.38955">
        <ele>134.3</ele>
        <time>2024-05-10T15:36:02Z</time>
      </trkpt>
      <trkpt lat="43.20823" lon="2.38948">
        <ele>134.7</ele>
        <time>2024-05-10T15:36:03Z</time>
      </trkpt>
      <trkpt lat="43.20825" lon="2.38941">
        <ele>134.9</ele>
        <time>2024-05-10T15:36:04Z</time>
      </trkpt>
      <trkpt lat="43.20825" lon="2.38932">
        <ele>135.1</ele>
        <time>2024-05-10T15:36:05Z</time>
      </trkpt>
      <trkpt lat="43.20823" lon="2.38924">
        <ele>135.3</ele>
        <time>2024-05-10T15:36:06Z</time>
      </trkpt>
      <trkpt lat="43.20818" lon="2.38918">
        <ele>135.6</ele>
        <time>2024-05-10T15:36:07Z</time>
      </trkpt>
      <trkpt lat="43.20811" lon="2.38915">
        <ele>135.7</ele>
        <time>2024-05-10T15:36:08Z</time>
      </trkpt>
      <trkpt lat="43.20804" lon="2.38917">
        <ele>135.9</ele>
        <time>2024-05-10T15:36:09Z</time>
      </trkpt>
      <trkpt lat="43.20798" lon="2.38922">
        <ele>135.8</ele>
        <time>2024-05-10T15:36:10Z</time>
      </trkpt>
      <trkpt lat="43.20792" lon="2.3893">
        <ele>136</ele>
        <time>2024-05-10T15:36:11Z</time>
      </trkpt>
      <trkpt lat="43.20784" lon="2.3894">
        <ele>136.6</ele>
        <time>2024-05-10T15:36:12Z</time>
      </trkpt>
      <trkpt lat="43.20773" lon="2.38947">
        <ele>136.9</ele>
        <time>2024-05-10T15:36:13Z</time>
      </trkpt>
      <trkpt lat="43.20761" lon="2.38952">
        <ele>136.7</ele>
        <time>2024-05-10T15:36:14Z</time>
      </trkpt>
      <trkpt lat="43.20748" lon="2.38954">
        <ele>136.7</ele>
        <time>2024-05-10T15:36:15Z</time>
      </trkpt>
      <trkpt lat="43.20737" lon="2.38955">
        <ele>136.9</ele>
        <time>2024-05-10T15:36:16Z</time>
      </trkpt>
      <trkpt lat="43.20724" lon="2.38954">
        <ele>137.3</ele>
        <time>2024-05-10T15:36:17Z</time>
      </trkpt>
      <trkpt lat="43.20712" lon="2.38952">
        <ele>137.4</ele>
        <time>2024-05-10T15:36:18Z</time>
      </trkpt>
      <trkpt lat="43.20698" lon="2.38949">
        <ele>138</ele>
        <time>2024-05-10T15:36:19Z</time>
      </trkpt>
      <trkpt lat="43.20684" lon="2.38946">
        <ele>136.5</ele>
        <time>2024-05-10T15:36:20Z</time>
      </trkpt>
      <trkpt lat="43.20671" lon="2.38942">
        <ele>133.8</ele>
        <time>2024-05-10T15:36:21Z</time>
      </trkpt>
      <trkpt lat="43.20658" lon="2.38939">
        <ele>134.1</ele>
        <time>2024-05-10T15:36:22Z</time>
      </trkpt>
      <trkpt lat="43.20646" lon="2.38935">
        <ele>135.5</ele>
        <time>2024-05-10T15:36:23Z</time>
      </trkpt>
      <trkpt lat="43.20633" lon="2.38931">
        <ele>136.4</ele>
        <time>2024-05-10T15:36:24Z</time>
      </trkpt>
      <trkpt lat="43.2062" lon="2.38925">
        <ele>137.8</ele>
        <time>2024-05-10T15:36:25Z</time>
      </trkpt>
      <trkpt lat="43.20607" lon="2.38916">
        <ele>140.2</ele>
        <time>2024-05-10T15:36:26Z</time>
      </trkpt>
      <trkpt lat="43.20595" lon="2.38907">
        <ele>140.6</ele>
        <time>2024-05-10T15:36:27Z</time>
      </trkpt>
      <trkpt lat="43.20582" lon="2.38897">
        <ele>142</ele>
        <time>2024-05-10T15:36:28Z</time>
      </trkpt>
      <trkpt lat="43.20568" lon="2.38885">
        <ele>142.2</ele>
        <time>2024-05-10T15:36:29Z</time>
      </trkpt>
      <trkpt lat="43.20553" lon="2.38872">
        <ele>142.7</ele>
        <time>2024-05-10T15:36:30Z</time>
      </trkpt>
      <trkpt lat="43.20538" lon="2.38858">
        <ele>143.8</ele>
        <time>2024-05-10T15:36:31Z</time>
      </trkpt>
      <trkpt lat="43.20522" lon="2.38841">
        <ele>145.6</ele>
        <time>2024-05-10T15:36:32Z</time>
      </trkpt>
      <trkpt lat="43.20506" lon="2.38823">
        <ele>146.8</ele>
        <time>2024-05-10T15:36:33Z</time>
      </trkpt>
      <trkpt lat="43.2049" lon="2.38802">
        <ele>148.6</ele>
        <time>2024-05-10T15:36:34Z</time>
      </trkpt>
      <trkpt lat="43.20476" lon="2.38779">
        <ele>149.5</ele>
        <time>2024-05-10T15:36:35Z</time>
      </trkpt>
      <trkpt lat="43.20464" lon="2.38755">
        <ele>148.9</ele>
        <time>2024-05-10T15:36:36Z</time>
      </trkpt>
      <trkpt lat="43.20453" lon="2.38729">
        <ele>151.2</ele>
        <time>2024-05-10T15:36:37Z</time>
      </trkpt>
      <trkpt lat="43.20444" lon="2.38701">
        <ele>153</ele>
        <time>2024-05-10T15:36:38Z</time>
      </trkpt>
      <trkpt lat="43.20437" lon="2.38673">
        <ele>155.7</ele>
        <time>2024-05-10T15:36:39Z</time>
      </trkpt>
      <trkpt lat="43.20433" lon="2.38643">
        <ele>156.9</ele>
        <time>2024-05-10T15:36:40Z</time>
      </trkpt>
      <trkpt lat="43.2043" lon="2.38612">
        <ele>157.5</ele>
        <time>2024-05-10T15:36:41Z</time>
      </trkpt>
      <trkpt lat="43.20429" lon="2.38577">
        <ele>158.2</ele>
        <time>2024-05-10T15:36:42Z</time>
      </trkpt>
      <trkpt lat="43.20429" lon="2.38539">
        <ele>159.1</ele>
        <time>2024-05-10T15:36:43Z</time>
      </trkpt>
      <trkpt lat="43.20429" lon="2.38499">
        <ele>159.7</ele>
        <time>2024-05-10T15:36:44Z</time>
      </trkpt>
      <trkpt lat="43.20431" lon="2.38456">
        <ele>162.9</ele>
        <time>2024-05-10T15:36:45Z</time>
      </trkpt>
      <trkpt lat="43.20433" lon="2.38415">
        <ele>164.3</ele>
        <time>2024-05-10T15:36:46Z</time>
      </trkpt>
      <trkpt lat="43.20434" lon="2.38376">
        <ele>165.2</ele>
        <time>2024-05-10T15:36:47Z</time>
      </trkpt>
      <trkpt lat="43.20435" lon="2.38343">
        <ele>165.3</ele>
        <time>2024-05-10T15:36:48Z</time>
      </trkpt>
      <trkpt lat="43.20435" lon="2.38315">
        <ele>165.8</ele>
        <time>2024-05-10T15:36:49Z</time>
      </trkpt>
      <trkpt lat="43.20431" lon="2.38288">
        <ele>165.8</ele>
        <time>2024-05-10T15:36:50Z</time>
      </trkpt>
      <trkpt lat="43.20425" lon="2.38261">
        <ele>165.9</ele>
        <time>2024-05-10T15:36:51Z</time>
      </trkpt>
      <trkpt lat="43.20418" lon="2.38232">
        <ele>165.5</ele>
        <time>2024-05-10T15:36:52Z</time>
      </trkpt>
      <trkpt lat="43.2041" lon="2.382">
        <ele>167.1</ele>
        <time>2024-05-10T15:36:53Z</time>
      </trkpt>
      <trkpt lat="43.20401" lon="2.38169">
        <ele>166.2</ele>
        <time>2024-05-10T15:36:54Z</time>
      </trkpt>
      <trkpt lat="43.20394" lon="2.38141">
        <ele>163.5</ele>
        <time>2024-05-10T15:36:55Z</time>
      </trkpt>
      <trkpt lat="43.20387" lon="2.38116">
        <ele>163.6</ele>
        <time>2024-05-10T15:36:56Z</time>
      </trkpt>
      <trkpt lat="43.20381" lon="2.38092">
        <ele>162.4</ele>
        <time>2024-05-10T15:36:57Z</time>
      </trkpt>
      <trkpt lat="43.20375" lon="2.38069">
        <ele>160.2</ele>
        <time>2024-05-10T15:36:58Z</time>
      </trkpt>
      <trkpt lat="43.2037" lon="2.38046">
        <ele>158.4</ele>
        <time>2024-05-10T15:36:59Z</time>
      </trkpt>
      <trkpt lat="43.20364" lon="2.38022">
        <ele>158.1</ele>
        <time>2024-05-10T15:37:00Z</time>
      </trkpt>
      <trkpt lat="43.20357" lon="2.37996">
        <ele>156.3</ele>
        <time>2024-05-10T15:37:01Z</time>
      </trkpt>
      <trkpt lat="43.20352" lon="2.37967">
        <ele>153</ele>
        <time>2024-05-10T15:37:02Z</time>
      </trkpt>
      <trkpt lat="43.20349" lon="2.37939">
        <ele>151.1</ele>
        <time>2024-05-10T15:37:03Z</time>
      </trkpt>
      <trkpt lat="43.20347" lon="2.37911">
        <ele>149.9</ele>
        <time>2024-05-10T15:37:04Z</time>
      </trkpt>
      <trkpt lat="43.20345" lon="2.37882">
        <ele>150.2</ele>
        <time>2024-05-10T15:37:05Z</time>
      </trkpt>
      <trkpt lat="43.20345" lon="2.37852">
        <ele>152.7</ele>
        <time>2024-05-10T15:37:06Z</time>
      </trkpt>
      <trkpt lat="43.20345" lon="2.37819">
        <ele>156.3</ele>
        <time>2024-05-10T15:37:07Z</time>
      </trkpt>
      <trkpt lat="43.20346" lon="2.37785">
        <ele>158.3</ele>
        <time>2024-05-10T15:37:08Z</time>
      </trkpt>
      <trkpt lat="43.20348" lon="2.37753">
        <ele>158.5</ele>
        <time>2024-05-10T15:37:09Z</time>
      </trkpt>
      <trkpt lat="43.20351" lon="2.37722">
        <ele>158.7</ele>
        <time>2024-05-10T15:37:10Z</time>
      </trkpt>
      <trkpt lat="43.20353" lon="2.37693">
        <ele>159.2</ele>
        <time>2024-05-10T15:37:11Z</time>
      </trkpt>
      <trkpt lat="43.20355" lon="2.37664">
        <ele>159.1</ele>
        <time>2024-05-10T15:37:12Z</time>
      </trkpt>
      <trkpt lat="43.20356" lon="2.3764">
        <ele>158.9</ele>
        <time>2024-05-10T15:37:13Z</time>
      </trkpt>
      <trkpt lat="43.20357" lon="2.37616">
        <ele>159.3</ele>
        <time>2024-05-10T15:37:14Z</time>
      </trkpt>
      <trkpt lat="43.20357" lon="2.37593">
        <ele>160</ele>
        <time>2024-05-10T15:37:15Z</time>
      </trkpt>
      <trkpt lat="43.20356" lon="2.37571">
        <ele>160.4</ele>
        <time>2024-05-10T15:37:16Z</time>
      </trkpt>
      <trkpt lat="43.20356" lon="2.37547">
        <ele>160.3</ele>
        <time>2024-05-10T15:37:17Z</time>
      </trkpt>
      <trkpt lat="43.20354" lon="2.37524">
        <ele>160.3</ele>
        <time>2024-05-10T15:37:18Z</time>
      </trkpt>
      <trkpt lat="43.20351" lon="2.37501">
        <ele>160.4</ele>
        <time>2024-05-10T15:37:19Z</time>
      </trkpt>
      <trkpt lat="43.20348" lon="2.37478">
        <ele>160.5</ele>
        <time>2024-05-10T15:37:20Z</time>
      </trkpt>
      <trkpt lat="43.20343" lon="2.37456">
        <ele>160.7</ele>
        <time>2024-05-10T15:37:21Z</time>
      </trkpt>
      <trkpt lat="43.20338" lon="2.37435">
        <ele>161.1</ele>
        <time>2024-05-10T15:37:22Z</time>
      </trkpt>
      <trkpt lat="43.20332" lon="2.37415">
        <ele>162.1</ele>
        <time>2024-05-10T15:37:23Z</time>
      </trkpt>
      <trkpt lat="43.20326" lon="2.37396">
        <ele>162.8</ele>
        <time>2024-05-10T15:37:24Z</time>
      </trkpt>
      <trkpt lat="43.2032" lon="2.37378">
        <ele>163.3</ele>
        <time>2024-05-10T15:37:25Z</time>
      </trkpt>
      <trkpt lat="43.20313" lon="2.3736">
        <ele>163.1</ele>
        <time>2024-05-10T15:37:26Z</time>
      </trkpt>
      <trkpt lat="43.20306" lon="2.37343">
        <ele>163.7</ele>
        <time>2024-05-10T15:37:27Z</time>
      </trkpt>
      <trkpt lat="43.20298" lon="2.37324">
        <ele>164.4</ele>
        <time>2024-05-10T15:37:28Z</time>
      </trkpt>
      <trkpt lat="43.2029" lon="2.37304">
        <ele>164.4</ele>
        <time>2024-05-10T15:37:29Z</time>
      </trkpt>
      <trkpt lat="43.2028" lon="2.37285">
        <ele>164.1</ele>
        <time>2024-05-10T15:37:30Z</time>
      </trkpt>
      <trkpt lat="43.20269" lon="2.37267">
        <ele>164.2</ele>
        <time>2024-05-10T15:37:31Z</time>
      </trkpt>
      <trkpt lat="43.20257" lon="2.3725">
        <ele>164</ele>
        <time>2024-05-10T15:37:32Z</time>
      </trkpt>
      <trkpt lat="43.20245" lon="2.37234">
        <ele>164.1</ele>
        <time>2024-05-10T15:37:33Z</time>
      </trkpt>
      <trkpt lat="43.20233" lon="2.3722">
        <ele>164</ele>
        <time>2024-05-10T15:37:34Z</time>
      </trkpt>
      <trkpt lat="43.20221" lon="2.37206">
        <ele>164</ele>
        <time>2024-05-10T15:37:35Z</time>
      </trkpt>
      <trkpt lat="43.20209" lon="2.37193">
        <ele>163.5</ele>
        <time>2024-05-10T15:37:36Z</time>
      </trkpt>
      <trkpt lat="43.20198" lon="2.37179">
        <ele>163.1</ele>
        <time>2024-05-10T15:37:37Z</time>
      </trkpt>
      <trkpt lat="43.20186" lon="2.37167">
        <ele>163.6</ele>
        <time>2024-05-10T15:37:38Z</time>
      </trkpt>
      <trkpt lat="43.20175" lon="2.37154">
        <ele>163.6</ele>
        <time>2024-05-10T15:37:39Z</time>
      </trkpt>
      <trkpt lat="43.20164" lon="2.37142">
        <ele>162.5</ele>
        <time>2024-05-10T15:37:40Z</time>
      </trkpt>
      <trkpt lat="43.20154" lon="2.37132">
        <ele>162.7</ele>
        <time>2024-05-10T15:37:41Z</time>
      </trkpt>
      <trkpt lat="43.20145" lon="2.37121">
        <ele>161.8</ele>
        <time>2024-05-10T15:37:42Z</time>
      </trkpt>
      <trkpt lat="43.20135" lon="2.3711">
        <ele>160</ele>
        <time>2024-05-10T15:37:43Z</time>
      </trkpt>
      <trkpt lat="43.20125" lon="2.37099">
        <ele>159.3</ele>
        <time>2024-05-10T15:37:44Z</time>
      </trkpt>
      <trkpt lat="43.20114" lon="2.37087">
        <ele>158.4</ele>
        <time>2024-05-10T15:37:45Z</time>
      </trkpt>
      <trkpt lat="43.20104" lon="2.37075">
        <ele>155.8</ele>
        <time>2024-05-10T15:37:46Z</time>
      </trkpt>
      <trkpt lat="43.20093" lon="2.37062">
        <ele>154.4</ele>
        <time>2024-05-10T15:37:47Z</time>
      </trkpt>
      <trkpt lat="43.20083" lon="2.37049">
        <ele>154</ele>
        <time>2024-05-10T15:37:48Z</time>
      </trkpt>
      <trkpt lat="43.20073" lon="2.37034">
        <ele>151.5</ele>
        <time>2024-05-10T15:37:49Z</time>
      </trkpt>
      <trkpt lat="43.20063" lon="2.37017">
        <ele>151.2</ele>
        <time>2024-05-10T15:37:50Z</time>
      </trkpt>
      <trkpt lat="43.20055" lon="2.37">
        <ele>151.9</ele>
        <time>2024-05-10T15:37:51Z</time>
      </trkpt>
      <trkpt lat="43.20047" lon="2.36982">
        <ele>149</ele>
        <time>2024-05-10T15:37:52Z</time>
      </trkpt>
      <trkpt lat="43.2004" lon="2.36962">
        <ele>147.7</ele>
        <time>2024-05-10T15:37:53Z</time>
      </trkpt>
      <trkpt lat="43.20034" lon="2.36942">
        <ele>147.6</ele>
        <time>2024-05-10T15:37:54Z</time>
      </trkpt>
      <trkpt lat="43.20028" lon="2.36921">
        <ele>148</ele>
        <time>2024-05-10T15:37:55Z</time>
      </trkpt>
      <trkpt lat="43.20024" lon="2.36901">
        <ele>146.5</ele>
        <time>2024-05-10T15:37:56Z</time>
      </trkpt>
      <trkpt lat="43.2002" lon="2.3688">
        <ele>145.5</ele>
        <time>2024-05-10T15:37:57Z</time>
      </trkpt>
      <trkpt lat="43.20016" lon="2.36858">
        <ele>145</ele>
        <time>2024-05-10T15:37:58Z</time>
      </trkpt>
      <trkpt lat="43.20013" lon="2.36838">
        <ele>143.5</ele>
        <time>2024-05-10T15:37:59Z</time>
      </trkpt>
      <trkpt lat="43.20009" lon="2.36818">
        <ele>142.4</ele>
        <time>2024-05-10T15:38:00Z</time>
      </trkpt>
      <trkpt lat="43.20005" lon="2.36798">
        <ele>141.5</ele>
        <time>2024-05-10T15:38:01Z</time>
      </trkpt>
      <trkpt lat="43.20002" lon="2.36779">
        <ele>141</ele>
        <time>2024-05-10T15:38:02Z</time>
      </trkpt>
      <trkpt lat="43.19998" lon="2.36759">
        <ele>140</ele>
        <time>2024-05-10T15:38:03Z</time>
      </trkpt>
      <trkpt lat="43.19994" lon="2.36739">
        <ele>139</ele>
        <time>2024-05-10T15:38:04Z</time>
      </trkpt>
      <trkpt lat="43.19991" lon="2.36719">
        <ele>137.7</ele>
        <time>2024-05-10T15:38:05Z</time>
      </trkpt>
      <trkpt lat="43.19987" lon="2.367">
        <ele>136.8</ele>
        <time>2024-05-10T15:38:06Z</time>
      </trkpt>
      <trkpt lat="43.19984" lon="2.3668">
        <ele>136.1</ele>
        <time>2024-05-10T15:38:07Z</time>
      </trkpt>
      <trkpt lat="43.1998" lon="2.36661">
        <ele>135.3</ele>
        <time>2024-05-10T15:38:08Z</time>
      </trkpt>
      <trkpt lat="43.19976" lon="2.36642">
        <ele>134.1</ele>
        <time>2024-05-10T15:38:09Z</time>
      </trkpt>
      <trkpt lat="43.19973" lon="2.36623">
        <ele>133.4</ele>
        <time>2024-05-10T15:38:10Z</time>
      </trkpt>
      <trkpt lat="43.1997" lon="2.36604">
        <ele>132.3</ele>
        <time>2024-05-10T15:38:11Z</time>
      </trkpt>
      <trkpt lat="43.19966" lon="2.36585">
        <ele>130.4</ele>
        <time>2024-05-10T15:38:12Z</time>
      </trkpt>
      <trkpt lat="43.19963" lon="2.36564">
        <ele>128.9</ele>
        <time>2024-05-10T15:38:13Z</time>
      </trkpt>
      <trkpt lat="43.19959" lon="2.36542">
        <ele>128.2</ele>
        <time>2024-05-10T15:38:14Z</time>
      </trkpt>
      <trkpt lat="43.19954" lon="2.36518">
        <ele>128.7</ele>
        <time>2024-05-10T15:38:15Z</time>
      </trkpt>
      <trkpt lat="43.1995" lon="2.36493">
        <ele>129.2</ele>
        <time>2024-05-10T15:38:16Z</time>
      </trkpt>
      <trkpt lat="43.19945" lon="2.36467">
        <ele>130.9</ele>
        <time>2024-05-10T15:38:17Z</time>
      </trkpt>
      <trkpt lat="43.19941" lon="2.3644">
        <ele>131</ele>
        <time>2024-05-10T15:38:18Z</time>
      </trkpt>
      <trkpt lat="43.19937" lon="2.36414">
        <ele>131.3</ele>
        <time>2024-05-10T15:38:19Z</time>
      </trkpt>
      <trkpt lat="43.19934" lon="2.36389">
        <ele>133.9</ele>
        <time>2024-05-10T15:38:20Z</time>
      </trkpt>
      <trkpt lat="43.19932" lon="2.36365">
        <ele>134.7</ele>
        <time>2024-05-10T15:38:21Z</time>
      </trkpt>
      <trkpt lat="43.1993" lon="2.36343">
        <ele>135.1</ele>
        <time>2024-05-10T15:38:22Z</time>
      </trkpt>
      <trkpt lat="43.19927" lon="2.36321">
        <ele>135.7</ele>
        <time>2024-05-10T15:38:23Z</time>
      </trkpt>
      <trkpt lat="43.19925" lon="2.363">
        <ele>136.3</ele>
        <time>2024-05-10T15:38:24Z</time>
      </trkpt>
      <trkpt lat="43.19921" lon="2.36278">
        <ele>135.9</ele>
        <time>2024-05-10T15:38:25Z</time>
      </trkpt>
      <trkpt lat="43.19916" lon="2.36257">
        <ele>136.1</ele>
        <time>2024-05-10T15:38:26Z</time>
      </trkpt>
      <trkpt lat="43.19911" lon="2.36236">
        <ele>137.3</ele>
        <time>2024-05-10T15:38:27Z</time>
      </trkpt>
      <trkpt lat="43.19903" lon="2.36215">
        <ele>136.6</ele>
        <time>2024-05-10T15:38:28Z</time>
      </trkpt>
      <trkpt lat="43.19895" lon="2.36196">
        <ele>134.2</ele>
        <time>2024-05-10T15:38:29Z</time>
      </trkpt>
      <trkpt lat="43.19887" lon="2.36179">
        <ele>135.1</ele>
        <time>2024-05-10T15:38:30Z</time>
      </trkpt>
      <trkpt lat="43.19877" lon="2.36162">
        <ele>135.6</ele>
        <time>2024-05-10T15:38:31Z</time>
      </trkpt>
      <trkpt lat="43.19868" lon="2.36146">
        <ele>134.9</ele>
        <time>2024-05-10T15:38:32Z</time>
      </trkpt>
      <trkpt lat="43.19859" lon="2.3613">
        <ele>134</ele>
        <time>2024-05-10T15:38:33Z</time>
      </trkpt>
      <trkpt lat="43.1985" lon="2.36115">
        <ele>133.7</ele>
        <time>2024-05-10T15:38:34Z</time>
      </trkpt>
      <trkpt lat="43.19842" lon="2.36103">
        <ele>133.1</ele>
        <time>2024-05-10T15:38:35Z</time>
      </trkpt>
      <trkpt lat="43.19836" lon="2.36092">
        <ele>132.5</ele>
        <time>2024-05-10T15:38:36Z</time>
      </trkpt>
      <trkpt lat="43.19829" lon="2.36081">
        <ele>131.8</ele>
        <time>2024-05-10T15:38:37Z</time>
      </trkpt>
      <trkpt lat="43.19822" lon="2.36069">
        <ele>131.1</ele>
        <time>2024-05-10T15:38:38Z</time>
      </trkpt>
      <trkpt lat="43.19815" lon="2.36057">
        <ele>130.4</ele>
        <time>2024-05-10T15:38:39Z</time>
      </trkpt>
      <trkpt lat="43.19808" lon="2.36045">
        <ele>129.6</ele>
        <time>2024-05-10T15:38:40Z</time>
      </trkpt>
      <trkpt lat="43.19801" lon="2.36032">
        <ele>129.2</ele>
        <time>2024-05-10T15:38:41Z</time>
      </trkpt>
      <trkpt lat="43.19794" lon="2.3602">
        <ele>128.7</ele>
        <time>2024-05-10T15:38:42Z</time>
      </trkpt>
      <trkpt lat="43.19788" lon="2.36007">
        <ele>128.3</ele>
        <time>2024-05-10T15:38:43Z</time>
      </trkpt>
      <trkpt lat="43.19782" lon="2.35994">
        <ele>127.8</ele>
        <time>2024-05-10T15:38:44Z</time>
      </trkpt>
      <trkpt lat="43.19777" lon="2.35983">
        <ele>127.4</ele>
        <time>2024-05-10T15:38:45Z</time>
      </trkpt>
      <trkpt lat="43.19773" lon="2.35972">
        <ele>127</ele>
        <time>2024-05-10T15:38:46Z</time>
      </trkpt>
      <trkpt lat="43.19769" lon="2.35961">
        <ele>126.9</ele>
        <time>2024-05-10T15:38:47Z</time>
      </trkpt>
      <trkpt lat="43.19766" lon="2.35949">
        <ele>126.6</ele>
        <time>2024-05-10T15:38:48Z</time>
      </trkpt>
      <trkpt lat="43.19763" lon="2.35937">
        <ele>126.2</ele>
        <time>2024-05-10T15:38:49Z</time>
      </trkpt>
      <trkpt lat="43.19761" lon="2.35926">
        <ele>125.9</ele>
        <time>2024-05-10T15:38:50Z</time>
      </trkpt>
      <trkpt lat="43.19758" lon="2.35913">
        <ele>125.8</ele>
        <time>2024-05-10T15:38:51Z</time>
      </trkpt>
      <trkpt lat="43.19756" lon="2.35901">
        <ele>126</ele>
        <time>2024-05-10T15:38:52Z</time>
      </trkpt>
      <trkpt lat="43.19755" lon="2.3589">
        <ele>126.2</ele>
        <time>2024-05-10T15:38:53Z</time>
      </trkpt>
      <trkpt lat="43.19753" lon="2.3588">
        <ele>126.1</ele>
        <time>2024-05-10T15:38:54Z</time>
      </trkpt>
      <trkpt lat="43.19752" lon="2.35871">
        <ele>126.1</ele>
        <time>2024-05-10T15:38:55Z</time>
      </trkpt>
      <trkpt lat="43.19752" lon="2.35862">
        <ele>126.1</ele>
        <time>2024-05-10T15:38:56Z</time>
      </trkpt>
      <trkpt lat="43.19752" lon="2.35854">
        <ele>126.1</ele>
        <time>2024-05-10T15:38:57Z</time>
      </trkpt>
      <trkpt lat="43.19751" lon="2.35847">
        <ele>126</ele>
        <time>2024-05-10T15:38:58Z</time>
      </trkpt>
      <trkpt lat="43.19751" lon="2.3584">
        <ele>126</ele>
        <time>2024-05-10T15:38:59Z</time>
      </trkpt>
      <trkpt lat="43.19751" lon="2.35835">
        <ele>126</ele>
        <time>2024-05-10T15:39:00Z</time>
      </trkpt>
      <trkpt lat="43.19751" lon="2.35831">
        <ele>126</ele>
        <time>2024-05-10T15:39:01Z</time>
      </trkpt>
      <trkpt lat="43.19752" lon="2.35828">
        <ele>126.1</ele>
        <time>2024-05-10T15:39:02Z</time>
      </trkpt>
      <trkpt lat="43.19752" lon="2.35825">
        <ele>126.1</ele>
        <time>2024-05-10T15:39:03Z</time>
      </trkpt>
      <trkpt lat="43.19752" lon="2.35826">
        <ele>126.1</ele>
        <time>2024-05-10T15:39:04Z</time>
      </trkpt>
      <trkpt lat="43.19752" lon="2.35826">
        <ele>126.1</ele>
        <time>2024-05-10T15:39:05Z</time>
      </trkpt>
      <trkpt lat="43.19752" lon="2.35826">
        <ele>126.1</ele>
        <time>2024-05-10T15:39:06Z</time>
      </trkpt>
      <trkpt lat="43.19752" lon="2.35826">
        <ele>126.1</ele>
        <time>2024-05-10T15:39:07Z</time>
      </trkpt>
      <trkpt lat="43.19753" lon="2.35825">
        <ele>126.1</ele>
        <time>2024-05-10T15:39:08Z</time>
      </trkpt>
      <trkpt lat="43.19754" lon="2.3582">
        <ele>126.1</ele>
        <time>2024-05-10T15:39:09Z</time>
      </trkpt>
      <trkpt lat="43.19758" lon="2.35812">
        <ele>126.1</ele>
        <time>2024-05-10T15:39:10Z</time>
      </trkpt>
      <trkpt lat="43.1976" lon="2.358">
        <ele>125.9</ele>
        <time>2024-05-10T15:39:11Z</time>
      </trkpt>
      <trkpt lat="43.1976" lon="2.3579">
        <ele>125.8</ele>
        <time>2024-05-10T15:39:12Z</time>
      </trkpt>
      <trkpt lat="43.19757" lon="2.35781">
        <ele>125.8</ele>
        <time>2024-05-10T15:39:13Z</time>
      </trkpt>
      <trkpt lat="43.19751" lon="2.35772">
        <ele>126</ele>
        <time>2024-05-10T15:39:14Z</time>
      </trkpt>
      <trkpt lat="43.19743" lon="2.35766">
        <ele>125.9</ele>
        <time>2024-05-10T15:39:15Z</time>
      </trkpt>
      <trkpt lat="43.19735" lon="2.35764">
        <ele>125.7</ele>
        <time>2024-05-10T15:39:16Z</time>
      </trkpt>
      <trkpt lat="43.19726" lon="2.35764">
        <ele>125.6</ele>
        <time>2024-05-10T15:39:17Z</time>
      </trkpt>
      <trkpt lat="43.19716" lon="2.35762">
        <ele>125.5</ele>
        <time>2024-05-10T15:39:18Z</time>
      </trkpt>
      <trkpt lat="43.19705" lon="2.35755">
        <ele>125.6</ele>
        <time>2024-05-10T15:39:19Z</time>
      </trkpt>
      <trkpt lat="43.19694" lon="2.35742">
        <ele>125.7</ele>
        <time>2024-05-10T15:39:20Z</time>
      </trkpt>
      <trkpt lat="43.1968" lon="2.35726">
        <ele>125.1</ele>
        <time>2024-05-10T15:39:21Z</time>
      </trkpt>
      <trkpt lat="43.19667" lon="2.35708">
        <ele>125.5</ele>
        <time>2024-05-10T15:39:22Z</time>
      </trkpt>
      <trkpt lat="43.19654" lon="2.35691">
        <ele>125.9</ele>
        <time>2024-05-10T15:39:23Z</time>
      </trkpt>
      <trkpt lat="43.1964" lon="2.35673">
        <ele>126</ele>
        <time>2024-05-10T15:39:24Z</time>
      </trkpt>
      <trkpt lat="43.19626" lon="2.35654">
        <ele>126</ele>
        <time>2024-05-10T15:39:25Z</time>
      </trkpt>
      <trkpt lat="43.19613" lon="2.35636">
        <ele>126</ele>
        <time>2024-05-10T15:39:26Z</time>
      </trkpt>
      <trkpt lat="43.19602" lon="2.35616">
        <ele>126</ele>
        <time>2024-05-10T15:39:27Z</time>
      </trkpt>
      <trkpt lat="43.19592" lon="2.35596">
        <ele>125.8</ele>
        <time>2024-05-10T15:39:28Z</time>
      </trkpt>
      <trkpt lat="43.19585" lon="2.35572">
        <ele>125.9</ele>
        <time>2024-05-10T15:39:29Z</time>
      </trkpt>
      <trkpt lat="43.1958" lon="2.35547">
        <ele>125.9</ele>
        <time>2024-05-10T15:39:30Z</time>
      </trkpt>
      <trkpt lat="43.19577" lon="2.3552">
        <ele>125.8</ele>
        <time>2024-05-10T15:39:31Z</time>
      </trkpt>
      <trkpt lat="43.19574" lon="2.3549">
        <ele>126</ele>
        <time>2024-05-10T15:39:32Z</time>
      </trkpt>
      <trkpt lat="43.19571" lon="2.35461">
        <ele>126</ele>
        <time>2024-05-10T15:39:33Z</time>
      </trkpt>
      <trkpt lat="43.19568" lon="2.35434">
        <ele>126</ele>
        <time>2024-05-10T15:39:34Z</time>
      </trkpt>
      <trkpt lat="43.19566" lon="2.35411">
        <ele>126</ele>
        <time>2024-05-10T15:39:35Z</time>
      </trkpt>
      <trkpt lat="43.19564" lon="2.3539">
        <ele>126</ele>
        <time>2024-05-10T15:39:36Z</time>
      </trkpt>
      <trkpt lat="43.19562" lon="2.35371">
        <ele>126</ele>
        <time>2024-05-10T15:39:37Z</time>
      </trkpt>
      <trkpt lat="43.1956" lon="2.35352">
        <ele>126</ele>
        <time>2024-05-10T15:39:38Z</time>
      </trkpt>
      <trkpt lat="43.19558" lon="2.35329">
        <ele>126</ele>
        <time>2024-05-10T15:39:39Z</time>
      </trkpt>
      <trkpt lat="43.19555" lon="2.35304">
        <ele>126</ele>
        <time>2024-05-10T15:39:40Z</time>
      </trkpt>
      <trkpt lat="43.19553" lon="2.35274">
        <ele>126.2</ele>
        <time>2024-05-10T15:39:41Z</time>
      </trkpt>
      <trkpt lat="43.19549" lon="2.35241">
        <ele>127.2</ele>
        <time>2024-05-10T15:39:42Z</time>
      </trkpt>
      <trkpt lat="43.19545" lon="2.35209">
        <ele>126.9</ele>
        <time>2024-05-10T15:39:43Z</time>
      </trkpt>
      <trkpt lat="43.1954" lon="2.35177">
        <ele>126.2</ele>
        <time>2024-05-10T15:39:44Z</time>
      </trkpt>
      <trkpt lat="43.19534" lon="2.35144">
        <ele>127.4</ele>
        <time>2024-05-10T15:39:45Z</time>
      </trkpt>
      <trkpt lat="43.19525" lon="2.35112">
        <ele>128.9</ele>
        <time>2024-05-10T15:39:46Z</time>
      </trkpt>
      <trkpt lat="43.19515" lon="2.35082">
        <ele>129</ele>
        <time>2024-05-10T15:39:47Z</time>
      </trkpt>
      <trkpt lat="43.19506" lon="2.35052">
        <ele>129.8</ele>
        <time>2024-05-10T15:39:48Z</time>
      </trkpt>
      <trkpt lat="43.19496" lon="2.35024">
        <ele>130.2</ele>
        <time>2024-05-10T15:39:49Z</time>
      </trkpt>
      <trkpt lat="43.19488" lon="2.34998">
        <ele>130.9</ele>
        <time>2024-05-10T15:39:50Z</time>
      </trkpt>
      <trkpt lat="43.19481" lon="2.34978">
        <ele>131.6</ele>
        <time>2024-05-10T15:39:51Z</time>
      </trkpt>
      <trkpt lat="43.19475" lon="2.3496">
        <ele>132.7</ele>
        <time>2024-05-10T15:39:52Z</time>
      </trkpt>
      <trkpt lat="43.1947" lon="2.34944">
        <ele>134.1</ele>
        <time>2024-05-10T15:39:53Z</time>
      </trkpt>
      <trkpt lat="43.19465" lon="2.34931">
        <ele>134.4</ele>
        <time>2024-05-10T15:39:54Z</time>
      </trkpt>
      <trkpt lat="43.19461" lon="2.3492">
        <ele>134.8</ele>
        <time>2024-05-10T15:39:55Z</time>
      </trkpt>
      <trkpt lat="43.19457" lon="2.34909">
        <ele>135.2</ele>
        <time>2024-05-10T15:39:56Z</time>
      </trkpt>
      <trkpt lat="43.19453" lon="2.34897">
        <ele>135.6</ele>
        <time>2024-05-10T15:39:57Z</time>
      </trkpt>
      <trkpt lat="43.19449" lon="2.34883">
        <ele>136</ele>
        <time>2024-05-10T15:39:58Z</time>
      </trkpt>
      <trkpt lat="43.19444" lon="2.34868">
        <ele>136.8</ele>
        <time>2024-05-10T15:39:59Z</time>
      </trkpt>
      <trkpt lat="43.19438" lon="2.34851">
        <ele>137.4</ele>
        <time>2024-05-10T15:40:00Z</time>
      </trkpt>
      <trkpt lat="43.19432" lon="2.34833">
        <ele>138</ele>
        <time>2024-05-10T15:40:01Z</time>
      </trkpt>
      <trkpt lat="43.19426" lon="2.34813">
        <ele>138</ele>
        <time>2024-05-10T15:40:02Z</time>
      </trkpt>
      <trkpt lat="43.19419" lon="2.34794">
        <ele>138</ele>
        <time>2024-05-10T15:40:03Z</time>
      </trkpt>
      <trkpt lat="43.19412" lon="2.34773">
        <ele>137.7</ele>
        <time>2024-05-10T15:40:04Z</time>
      </trkpt>
      <trkpt lat="43.19405" lon="2.34752">
        <ele>137</ele>
        <time>2024-05-10T15:40:05Z</time>
      </trkpt>
      <trkpt lat="43.19398" lon="2.3473">
        <ele>137.2</ele>
        <time>2024-05-10T15:40:06Z</time>
      </trkpt>
      <trkpt lat="43.19393" lon="2.34707">
        <ele>137.7</ele>
        <time>2024-05-10T15:40:07Z</time>
      </trkpt>
      <trkpt lat="43.19389" lon="2.34684">
        <ele>137.6</ele>
        <time>2024-05-10T15:40:08Z</time>
      </trkpt>
      <trkpt lat="43.19386" lon="2.34659">
        <ele>137.1</ele>
        <time>2024-05-10T15:40:09Z</time>
      </trkpt>
      <trkpt lat="43.19385" lon="2.34635">
        <ele>137.3</ele>
        <time>2024-05-10T15:40:10Z</time>
      </trkpt>
      <trkpt lat="43.19385" lon="2.34609">
        <ele>137.4</ele>
        <time>2024-05-10T15:40:11Z</time>
      </trkpt>
      <trkpt lat="43.19388" lon="2.34584">
        <ele>137.2</ele>
        <time>2024-05-10T15:40:12Z</time>
      </trkpt>
      <trkpt lat="43.19391" lon="2.34559">
        <ele>136.9</ele>
        <time>2024-05-10T15:40:13Z</time>
      </trkpt>
      <trkpt lat="43.19396" lon="2.34536">
        <ele>137.4</ele>
        <time>2024-05-10T15:40:14Z</time>
      </trkpt>
      <trkpt lat="43.194" lon="2.34513">
        <ele>138.5</ele>
        <time>2024-05-10T15:40:15Z</time>
      </trkpt>
      <trkpt lat="43.19404" lon="2.3449">
        <ele>139.2</ele>
        <time>2024-05-10T15:40:16Z</time>
      </trkpt>
      <trkpt lat="43.19409" lon="2.34468">
        <ele>139.1</ele>
        <time>2024-05-10T15:40:17Z</time>
      </trkpt>
      <trkpt lat="43.19413" lon="2.34447">
        <ele>138.6</ele>
        <time>2024-05-10T15:40:18Z</time>
      </trkpt>
      <trkpt lat="43.19417" lon="2.34426">
        <ele>138</ele>
        <time>2024-05-10T15:40:19Z</time>
      </trkpt>
      <trkpt lat="43.19421" lon="2.34407">
        <ele>138.6</ele>
        <time>2024-05-10T15:40:20Z</time>
      </trkpt>
      <trkpt lat="43.19425" lon="2.34388">
        <ele>139.8</ele>
        <time>2024-05-10T15:40:21Z</time>
      </trkpt>
      <trkpt lat="43.19429" lon="2.34369">
        <ele>141</ele>
        <time>2024-05-10T15:40:22Z</time>
      </trkpt>
      <trkpt lat="43.19432" lon="2.3435">
        <ele>142</ele>
        <time>2024-05-10T15:40:23Z</time>
      </trkpt>
      <trkpt lat="43.19435" lon="2.34331">
        <ele>142.8</ele>
        <time>2024-05-10T15:40:24Z</time>
      </trkpt>
      <trkpt lat="43.19437" lon="2.34312">
        <ele>143.3</ele>
        <time>2024-05-10T15:40:25Z</time>
      </trkpt>
      <trkpt lat="43.19438" lon="2.34292">
        <ele>144.3</ele>
        <time>2024-05-10T15:40:26Z</time>
      </trkpt>
      <trkpt lat="43.19436" lon="2.34272">
        <ele>145.5</ele>
        <time>2024-05-10T15:40:27Z</time>
      </trkpt>
      <trkpt lat="43.19434" lon="2.34251">
        <ele>146.3</ele>
        <time>2024-05-10T15:40:28Z</time>
      </trkpt>
      <trkpt lat="43.19429" lon="2.3423">
        <ele>147.3</ele>
        <time>2024-05-10T15:40:29Z</time>
      </trkpt>
      <trkpt lat="43.19423" lon="2.34209">
        <ele>148.2</ele>
        <time>2024-05-10T15:40:30Z</time>
      </trkpt>
      <trkpt lat="43.19416" lon="2.3419">
        <ele>149</ele>
        <time>2024-05-10T15:40:31Z</time>
      </trkpt>
      <trkpt lat="43.19408" lon="2.34173">
        <ele>148.2</ele>
        <time>2024-05-10T15:40:32Z</time>
      </trkpt>
      <trkpt lat="43.194" lon="2.34157">
        <ele>146.9</ele>
        <time>2024-05-10T15:40:33Z</time>
      </trkpt>
      <trkpt lat="43.19391" lon="2.34142">
        <ele>144.7</ele>
        <time>2024-05-10T15:40:34Z</time>
      </trkpt>
      <trkpt lat="43.19383" lon="2.34129">
        <ele>144.4</ele>
        <time>2024-05-10T15:40:35Z</time>
      </trkpt>
      <trkpt lat="43.19375" lon="2.34116">
        <ele>145.3</ele>
        <time>2024-05-10T15:40:36Z</time>
      </trkpt>
      <trkpt lat="43.19367" lon="2.34104">
        <ele>146.9</ele>
        <time>2024-05-10T15:40:37Z</time>
      </trkpt>
      <trkpt lat="43.1936" lon="2.34092">
        <ele>149.2</ele>
        <time>2024-05-10T15:40:38Z</time>
      </trkpt>
      <trkpt lat="43.19352" lon="2.34079">
        <ele>150.8</ele>
        <time>2024-05-10T15:40:39Z</time>
      </trkpt>
      <trkpt lat="43.19344" lon="2.34066">
        <ele>150.7</ele>
        <time>2024-05-10T15:40:40Z</time>
      </trkpt>
      <trkpt lat="43.19337" lon="2.34053">
        <ele>150.2</ele>
        <time>2024-05-10T15:40:41Z</time>
      </trkpt>
      <trkpt lat="43.19329" lon="2.3404">
        <ele>150.9</ele>
        <time>2024-05-10T15:40:42Z</time>
      </trkpt>
      <trkpt lat="43.19322" lon="2.34027">
        <ele>150.8</ele>
        <time>2024-05-10T15:40:43Z</time>
      </trkpt>
      <trkpt lat="43.19315" lon="2.34014">
        <ele>149.9</ele>
        <time>2024-05-10T15:40:44Z</time>
      </trkpt>
      <trkpt lat="43.19308" lon="2.34001">
        <ele>148.5</ele>
        <time>2024-05-10T15:40:45Z</time>
      </trkpt>
      <trkpt lat="43.19301" lon="2.33987">
        <ele>147.6</ele>
        <time>2024-05-10T15:40:46Z</time>
      </trkpt>
      <trkpt lat="43.19294" lon="2.33972">
        <ele>146.8</ele>
        <time>2024-05-10T15:40:47Z</time>
      </trkpt>
      <trkpt lat="43.19287" lon="2.33956">
        <ele>146</ele>
        <time>2024-05-10T15:40:48Z</time>
      </trkpt>
      <trkpt lat="43.19278" lon="2.33939">
        <ele>144.6</ele>
        <time>2024-05-10T15:40:49Z</time>
      </trkpt>
      <trkpt lat="43.1927" lon="2.33921">
        <ele>143</ele>
        <time>2024-05-10T15:40:50Z</time>
      </trkpt>
      <trkpt lat="43.19261" lon="2.33902">
        <ele>142.1</ele>
        <time>2024-05-10T15:40:51Z</time>
      </trkpt>
      <trkpt lat="43.19253" lon="2.33881">
        <ele>141</ele>
        <time>2024-05-10T15:40:52Z</time>
      </trkpt>
      <trkpt lat="43.19246" lon="2.33859">
        <ele>139.7</ele>
        <time>2024-05-10T15:40:53Z</time>
      </trkpt>
      <trkpt lat="43.1924" lon="2.33836">
        <ele>139</ele>
        <time>2024-05-10T15:40:54Z</time>
      </trkpt>
      <trkpt lat="43.19236" lon="2.33813">
        <ele>138.1</ele>
        <time>2024-05-10T15:40:55Z</time>
      </trkpt>
      <trkpt lat="43.19232" lon="2.3379">
        <ele>136.8</ele>
        <time>2024-05-10T15:40:56Z</time>
      </trkpt>
      <trkpt lat="43.19229" lon="2.33767">
        <ele>135</ele>
        <time>2024-05-10T15:40:57Z</time>
      </trkpt>
      <trkpt lat="43.19227" lon="2.33746">
        <ele>133</ele>
        <time>2024-05-10T15:40:58Z</time>
      </trkpt>
      <trkpt lat="43.19226" lon="2.33726">
        <ele>131.4</ele>
        <time>2024-05-10T15:40:59Z</time>
      </trkpt>
      <trkpt lat="43.19225" lon="2.33704">
        <ele>129.7</ele>
        <time>2024-05-10T15:41:00Z</time>
      </trkpt>
      <trkpt lat="43.19225" lon="2.33684">
        <ele>128.2</ele>
        <time>2024-05-10T15:41:01Z</time>
      </trkpt>
      <trkpt lat="43.19228" lon="2.33665">
        <ele>126.7</ele>
        <time>2024-05-10T15:41:02Z</time>
      </trkpt>
      <trkpt lat="43.19234" lon="2.33649">
        <ele>125.7</ele>
        <time>2024-05-10T15:41:03Z</time>
      </trkpt>
      <trkpt lat="43.19243" lon="2.33637">
        <ele>124.5</ele>
        <time>2024-05-10T15:41:04Z</time>
      </trkpt>
      <trkpt lat="43.19255" lon="2.33629">
        <ele>123.9</ele>
        <time>2024-05-10T15:41:05Z</time>
      </trkpt>
      <trkpt lat="43.19269" lon="2.33624">
        <ele>123.6</ele>
        <time>2024-05-10T15:41:06Z</time>
      </trkpt>
      <trkpt lat="43.19284" lon="2.33623">
        <ele>123.2</ele>
        <time>2024-05-10T15:41:07Z</time>
      </trkpt>
      <trkpt lat="43.19301" lon="2.33623">
        <ele>122.5</ele>
        <time>2024-05-10T15:41:08Z</time>
      </trkpt>
      <trkpt lat="43.19319" lon="2.33623">
        <ele>121.9</ele>
        <time>2024-05-10T15:41:09Z</time>
      </trkpt>
      <trkpt lat="43.19337" lon="2.33624">
        <ele>121.4</ele>
        <time>2024-05-10T15:41:10Z</time>
      </trkpt>
      <trkpt lat="43.19355" lon="2.33625">
        <ele>121.1</ele>
        <time>2024-05-10T15:41:11Z</time>
      </trkpt>
      <trkpt lat="43.19374" lon="2.33626">
        <ele>121.4</ele>
        <time>2024-05-10T15:41:12Z</time>
      </trkpt>
      <trkpt lat="43.19393" lon="2.33627">
        <ele>122</ele>
        <time>2024-05-10T15:41:13Z</time>
      </trkpt>
      <trkpt lat="43.19413" lon="2.33628">
        <ele>122.7</ele>
        <time>2024-05-10T15:41:14Z</time>
      </trkpt>
      <trkpt lat="43.19433" lon="2.3363">
        <ele>123.6</ele>
        <time>2024-05-10T15:41:15Z</time>
      </trkpt>
      <trkpt lat="43.19454" lon="2.33632">
        <ele>124.6</ele>
        <time>2024-05-10T15:41:16Z</time>
      </trkpt>
      <trkpt lat="43.19473" lon="2.33635">
        <ele>125.4</ele>
        <time>2024-05-10T15:41:17Z</time>
      </trkpt>
      <trkpt lat="43.19492" lon="2.33637">
        <ele>123.8</ele>
        <time>2024-05-10T15:41:18Z</time>
      </trkpt>
      <trkpt lat="43.1951" lon="2.3364">
        <ele>122.9</ele>
        <time>2024-05-10T15:41:19Z</time>
      </trkpt>
      <trkpt lat="43.19527" lon="2.33643">
        <ele>122.6</ele>
        <time>2024-05-10T15:41:20Z</time>
      </trkpt>
      <trkpt lat="43.19543" lon="2.33646">
        <ele>122.1</ele>
        <time>2024-05-10T15:41:21Z</time>
      </trkpt>
      <trkpt lat="43.19559" lon="2.33648">
        <ele>121.6</ele>
        <time>2024-05-10T15:41:22Z</time>
      </trkpt>
      <trkpt lat="43.19575" lon="2.3365">
        <ele>122</ele>
        <time>2024-05-10T15:41:23Z</time>
      </trkpt>
      <trkpt lat="43.1959" lon="2.33652">
        <ele>122</ele>
        <time>2024-05-10T15:41:24Z</time>
      </trkpt>
      <trkpt lat="43.19606" lon="2.33655">
        <ele>121.6</ele>
        <time>2024-05-10T15:41:25Z</time>
      </trkpt>
      <trkpt lat="43.19622" lon="2.33659">
        <ele>121</ele>
        <time>2024-05-10T15:41:26Z</time>
      </trkpt>
      <trkpt lat="43.19637" lon="2.33665">
        <ele>120.1</ele>
        <time>2024-05-10T15:41:27Z</time>
      </trkpt>
      <trkpt lat="43.19652" lon="2.33671">
        <ele>121.2</ele>
        <time>2024-05-10T15:41:28Z</time>
      </trkpt>
      <trkpt lat="43.19668" lon="2.33678">
        <ele>121</ele>
        <time>2024-05-10T15:41:29Z</time>
      </trkpt>
      <trkpt lat="43.19683" lon="2.33686">
        <ele>119.7</ele>
        <time>2024-05-10T15:41:30Z</time>
      </trkpt>
      <trkpt lat="43.19698" lon="2.33695">
        <ele>118.7</ele>
        <time>2024-05-10T15:41:31Z</time>
      </trkpt>
      <trkpt lat="43.19713" lon="2.33703">
        <ele>118.5</ele>
        <time>2024-05-10T15:41:32Z</time>
      </trkpt>
      <trkpt lat="43.19727" lon="2.33711">
        <ele>118</ele>
        <time>2024-05-10T15:41:33Z</time>
      </trkpt>
      <trkpt lat="43.19741" lon="2.33718">
        <ele>117.9</ele>
        <time>2024-05-10T15:41:34Z</time>
      </trkpt>
      <trkpt lat="43.19756" lon="2.33723">
        <ele>117.7</ele>
        <time>2024-05-10T15:41:35Z</time>
      </trkpt>
      <trkpt lat="43.19771" lon="2.33727">
        <ele>117.4</ele>
        <time>2024-05-10T15:41:36Z</time>
      </trkpt>
      <trkpt lat="43.19787" lon="2.3373">
        <ele>117.5</ele>
        <time>2024-05-10T15:41:37Z</time>
      </trkpt>
      <trkpt lat="43.19803" lon="2.33732">
        <ele>117.7</ele>
        <time>2024-05-10T15:41:38Z</time>
      </trkpt>
      <trkpt lat="43.19819" lon="2.33734">
        <ele>117</ele>
        <time>2024-05-10T15:41:39Z</time>
      </trkpt>
      <trkpt lat="43.19834" lon="2.33735">
        <ele>116.3</ele>
        <time>2024-05-10T15:41:40Z</time>
      </trkpt>
      <trkpt lat="43.19848" lon="2.33736">
        <ele>116.2</ele>
        <time>2024-05-10T15:41:41Z</time>
      </trkpt>
      <trkpt lat="43.19862" lon="2.33735">
        <ele>115.7</ele>
        <time>2024-05-10T15:41:42Z</time>
      </trkpt>
      <trkpt lat="43.19873" lon="2.33735">
        <ele>115.6</ele>
        <time>2024-05-10T15:41:43Z</time>
      </trkpt>
      <trkpt lat="43.19884" lon="2.33734">
        <ele>115.2</ele>
        <time>2024-05-10T15:41:44Z</time>
      </trkpt>
      <trkpt lat="43.19895" lon="2.33733">
        <ele>115</ele>
        <time>2024-05-10T15:41:45Z</time>
      </trkpt>
      <trkpt lat="43.19906" lon="2.33732">
        <ele>115</ele>
        <time>2024-05-10T15:41:46Z</time>
      </trkpt>
      <trkpt lat="43.19916" lon="2.33731">
        <ele>114.9</ele>
        <time>2024-05-10T15:41:47Z</time>
      </trkpt>
      <trkpt lat="43.19925" lon="2.3373">
        <ele>115</ele>
        <time>2024-05-10T15:41:48Z</time>
      </trkpt>
      <trkpt lat="43.19934" lon="2.3373">
        <ele>115.3</ele>
        <time>2024-05-10T15:41:49Z</time>
      </trkpt>
      <trkpt lat="43.19941" lon="2.33729">
        <ele>115.3</ele>
        <time>2024-05-10T15:41:50Z</time>
      </trkpt>
      <trkpt lat="43.19948" lon="2.33728">
        <ele>115.3</ele>
        <time>2024-05-10T15:41:51Z</time>
      </trkpt>
      <trkpt lat="43.19955" lon="2.33728">
        <ele>115.5</ele>
        <time>2024-05-10T15:41:52Z</time>
      </trkpt>
      <trkpt lat="43.19961" lon="2.33728">
        <ele>115.6</ele>
        <time>2024-05-10T15:41:53Z</time>
      </trkpt>
      <trkpt lat="43.19968" lon="2.33728">
        <ele>115.7</ele>
        <time>2024-05-10T15:41:54Z</time>
      </trkpt>
      <trkpt lat="43.19973" lon="2.33728">
        <ele>115.8</ele>
        <time>2024-05-10T15:41:55Z</time>
      </trkpt>
      <trkpt lat="43.19976" lon="2.33729">
        <ele>115.8</ele>
        <time>2024-05-10T15:41:56Z</time>
      </trkpt>
      <trkpt lat="43.19979" lon="2.3373">
        <ele>115.8</ele>
        <time>2024-05-10T15:41:57Z</time>
      </trkpt>
      <trkpt lat="43.19981" lon="2.33731">
        <ele>115.9</ele>
        <time>2024-05-10T15:41:58Z</time>
      </trkpt>
      <trkpt lat="43.19982" lon="2.33732">
        <ele>115.9</ele>
        <time>2024-05-10T15:41:59Z</time>
      </trkpt>
      <trkpt lat="43.19982" lon="2.33732">
        <ele>115.9</ele>
        <time>2024-05-10T15:42:00Z</time>
      </trkpt>
      <trkpt lat="43.19982" lon="2.33732">
        <ele>115.9</ele>
        <time>2024-05-10T15:42:01Z</time>
      </trkpt>
      <trkpt lat="43.19982" lon="2.33732">
        <ele>115.9</ele>
        <time>2024-05-10T15:42:02Z</time>
      </trkpt>
      <trkpt lat="43.19982" lon="2.33732">
        <ele>115.9</ele>
        <time>2024-05-10T15:42:03Z</time>
      </trkpt>
      <trkpt lat="43.19982" lon="2.33731">
        <ele>115.8</ele>
        <time>2024-05-10T15:42:04Z</time>
      </trkpt>
      <trkpt lat="43.19982" lon="2.33731">
        <ele>115.8</ele>
        <time>2024-05-10T15:42:05Z</time>
      </trkpt>
      <trkpt lat="43.19982" lon="2.33731">
        <ele>115.8</ele>
        <time>2024-05-10T15:42:06Z</time>
      </trkpt>
      <trkpt lat="43.19983" lon="2.33732">
        <ele>115.9</ele>
        <time>2024-05-10T15:42:07Z</time>
      </trkpt>
      <trkpt lat="43.19985" lon="2.33734">
        <ele>115.9</ele>
        <time>2024-05-10T15:42:08Z</time>
      </trkpt>
      <trkpt lat="43.19989" lon="2.33738">
        <ele>115.9</ele>
        <time>2024-05-10T15:42:09Z</time>
      </trkpt>
      <trkpt lat="43.19993" lon="2.33739">
        <ele>115.6</ele>
        <time>2024-05-10T15:42:10Z</time>
      </trkpt>
      <trkpt lat="43.19998" lon="2.33737">
        <ele>115.2</ele>
        <time>2024-05-10T15:42:11Z</time>
      </trkpt>
      <trkpt lat="43.20005" lon="2.3373">
        <ele>114.3</ele>
        <time>2024-05-10T15:42:12Z</time>
      </trkpt>
      <trkpt lat="43.20013" lon="2.33722">
        <ele>113.6</ele>
        <time>2024-05-10T15:42:13Z</time>
      </trkpt>
      <trkpt lat="43.20022" lon="2.33715">
        <ele>112</ele>
        <time>2024-05-10T15:42:14Z</time>
      </trkpt>
      <trkpt lat="43.20034" lon="2.33711">
        <ele>111.2</ele>
        <time>2024-05-10T15:42:15Z</time>
      </trkpt>
      <trkpt lat="43.20048" lon="2.33705">
        <ele>111.6</ele>
        <time>2024-05-10T15:42:16Z</time>
      </trkpt>
      <trkpt lat="43.20065" lon="2.33698">
        <ele>112.2</ele>
        <time>2024-05-10T15:42:17Z</time>
      </trkpt>
      <trkpt lat="43.20081" lon="2.3369">
        <ele>111.4</ele>
        <time>2024-05-10T15:42:18Z</time>
      </trkpt>
      <trkpt lat="43.20099" lon="2.33681">
        <ele>110.6</ele>
        <time>2024-05-10T15:42:19Z</time>
      </trkpt>
      <trkpt lat="43.20117" lon="2.3367">
        <ele>112.1</ele>
        <time>2024-05-10T15:42:20Z</time>
      </trkpt>
      <trkpt lat="43.20135" lon="2.33657">
        <ele>111</ele>
        <time>2024-05-10T15:42:21Z</time>
      </trkpt>
      <trkpt lat="43.20154" lon="2.33643">
        <ele>111.7</ele>
        <time>2024-05-10T15:42:22Z</time>
      </trkpt>
      <trkpt lat="43.20172" lon="2.33627">
        <ele>111.7</ele>
        <time>2024-05-10T15:42:23Z</time>
      </trkpt>
      <trkpt lat="43.2019" lon="2.33611">
        <ele>111.8</ele>
        <time>2024-05-10T15:42:24Z</time>
      </trkpt>
      <trkpt lat="43.20207" lon="2.33593">
        <ele>110.4</ele>
        <time>2024-05-10T15:42:25Z</time>
      </trkpt>
      <trkpt lat="43.20223" lon="2.33576">
        <ele>110.4</ele>
        <time>2024-05-10T15:42:26Z</time>
      </trkpt>
      <trkpt lat="43.20238" lon="2.33558">
        <ele>110.1</ele>
        <time>2024-05-10T15:42:27Z</time>
      </trkpt>
      <trkpt lat="43.20252" lon="2.33541">
        <ele>110.9</ele>
        <time>2024-05-10T15:42:28Z</time>
      </trkpt>
      <trkpt lat="43.20267" lon="2.33525">
        <ele>110.4</ele>
        <time>2024-05-10T15:42:29Z</time>
      </trkpt>
      <trkpt lat="43.2028" lon="2.33509">
        <ele>111.1</ele>
        <time>2024-05-10T15:42:30Z</time>
      </trkpt>
      <trkpt lat="43.20293" lon="2.33495">
        <ele>110.4</ele>
        <time>2024-05-10T15:42:31Z</time>
      </trkpt>
      <trkpt lat="43.20302" lon="2.33484">
        <ele>110.7</ele>
        <time>2024-05-10T15:42:32Z</time>
      </trkpt>
      <trkpt lat="43.2031" lon="2.33476">
        <ele>110.9</ele>
        <time>2024-05-10T15:42:33Z</time>
      </trkpt>
      <trkpt lat="43.20317" lon="2.33468">
        <ele>109.6</ele>
        <time>2024-05-10T15:42:34Z</time>
      </trkpt>
      <trkpt lat="43.20324" lon="2.3346">
        <ele>108.1</ele>
        <time>2024-05-10T15:42:35Z</time>
      </trkpt>
      <trkpt lat="43.2033" lon="2.33452">
        <ele>107.3</ele>
        <time>2024-05-10T15:42:36Z</time>
      </trkpt>
      <trkpt lat="43.20337" lon="2.33445">
        <ele>106.9</ele>
        <time>2024-05-10T15:42:37Z</time>
      </trkpt>
      <trkpt lat="43.20343" lon="2.33438">
        <ele>106.3</ele>
        <time>2024-05-10T15:42:38Z</time>
      </trkpt>
      <trkpt lat="43.20348" lon="2.33431">
        <ele>105.7</ele>
        <time>2024-05-10T15:42:39Z</time>
      </trkpt>
      <trkpt lat="43.20354" lon="2.33424">
        <ele>105</ele>
        <time>2024-05-10T15:42:40Z</time>
      </trkpt>
      <trkpt lat="43.2036" lon="2.33418">
        <ele>104.2</ele>
        <time>2024-05-10T15:42:41Z</time>
      </trkpt>
      <trkpt lat="43.20365" lon="2.33413">
        <ele>104.4</ele>
        <time>2024-05-10T15:42:42Z</time>
      </trkpt>
      <trkpt lat="43.20369" lon="2.33407">
        <ele>105</ele>
        <time>2024-05-10T15:42:43Z</time>
      </trkpt>
      <trkpt lat="43.20373" lon="2.33402">
        <ele>105.6</ele>
        <time>2024-05-10T15:42:44Z</time>
      </trkpt>
      <trkpt lat="43.20377" lon="2.33399">
        <ele>106.1</ele>
        <time>2024-05-10T15:42:45Z</time>
      </trkpt>
      <trkpt lat="43.20379" lon="2.33395">
        <ele>106.6</ele>
        <time>2024-05-10T15:42:46Z</time>
      </trkpt>
      <trkpt lat="43.20382" lon="2.33392">
        <ele>107.1</ele>
        <time>2024-05-10T15:42:47Z</time>
      </trkpt>
      <trkpt lat="43.20385" lon="2.33389">
        <ele>107.6</ele>
        <time>2024-05-10T15:42:48Z</time>
      </trkpt>
      <trkpt lat="43.20387" lon="2.33387">
        <ele>107.8</ele>
        <time>2024-05-10T15:42:49Z</time>
      </trkpt>
      <trkpt lat="43.20389" lon="2.33384">
        <ele>108</ele>
        <time>2024-05-10T15:42:50Z</time>
      </trkpt>
      <trkpt lat="43.20392" lon="2.33381">
        <ele>108.1</ele>
        <time>2024-05-10T15:42:51Z</time>
      </trkpt>
      <trkpt lat="43.20395" lon="2.33378">
        <ele>108.3</ele>
        <time>2024-05-10T15:42:52Z</time>
      </trkpt>
      <trkpt lat="43.20398" lon="2.33374">
        <ele>108.7</ele>
        <time>2024-05-10T15:42:53Z</time>
      </trkpt>
      <trkpt lat="43.20401" lon="2.33371">
        <ele>109.1</ele>
        <time>2024-05-10T15:42:54Z</time>
      </trkpt>
      <trkpt lat="43.20404" lon="2.33368">
        <ele>109.6</ele>
        <time>2024-05-10T15:42:55Z</time>
      </trkpt>
      <trkpt lat="43.20407" lon="2.33364">
        <ele>110.3</ele>
        <time>2024-05-10T15:42:56Z</time>
      </trkpt>
      <trkpt lat="43.2041" lon="2.3336">
        <ele>111</ele>
        <time>2024-05-10T15:42:57Z</time>
      </trkpt>
      <trkpt lat="43.20414" lon="2.33356">
        <ele>111.5</ele>
        <time>2024-05-10T15:42:58Z</time>
      </trkpt>
      <trkpt lat="43.20417" lon="2.33352">
        <ele>111.7</ele>
        <time>2024-05-10T15:42:59Z</time>
      </trkpt>
      <trkpt lat="43.2042" lon="2.33349">
        <ele>111.4</ele>
        <time>2024-05-10T15:43:00Z</time>
      </trkpt>
      <trkpt lat="43.20424" lon="2.33345">
        <ele>111.2</ele>
        <time>2024-05-10T15:43:01Z</time>
      </trkpt>
      <trkpt lat="43.20428" lon="2.33341">
        <ele>111.2</ele>
        <time>2024-05-10T15:43:02Z</time>
      </trkpt>
      <trkpt lat="43.20433" lon="2.33337">
        <ele>111.4</ele>
        <time>2024-05-10T15:43:03Z</time>
      </trkpt>
      <trkpt lat="43.20438" lon="2.33332">
        <ele>111.8</ele>
        <time>2024-05-10T15:43:04Z</time>
      </trkpt>
      <trkpt lat="43.20443" lon="2.33328">
        <ele>112.1</ele>
        <time>2024-05-10T15:43:05Z</time>
      </trkpt>
      <trkpt lat="43.20447" lon="2.33325">
        <ele>112.3</ele>
        <time>2024-05-10T15:43:06Z</time>
      </trkpt>
      <trkpt lat="43.2045" lon="2.33323">
        <ele>112.4</ele>
        <time>2024-05-10T15:43:07Z</time>
      </trkpt>
      <trkpt lat="43.20452" lon="2.33321">
        <ele>112.6</ele>
        <time>2024-05-10T15:43:08Z</time>
      </trkpt>
      <trkpt lat="43.20454" lon="2.3332">
        <ele>112.6</ele>
        <time>2024-05-10T15:43:09Z</time>
      </trkpt>
      <trkpt lat="43.20454" lon="2.3332">
        <ele>112.6</ele>
        <time>2024-05-10T15:43:10Z</time>
      </trkpt>
      <trkpt lat="43.20454" lon="2.3332">
        <ele>112.6</ele>
        <time>2024-05-10T15:43:11Z</time>
      </trkpt>
      <trkpt lat="43.20456" lon="2.3332">
        <ele>112.7</ele>
        <time>2024-05-10T15:43:12Z</time>
      </trkpt>
      <trkpt lat="43.20461" lon="2.33319">
        <ele>112.8</ele>
        <time>2024-05-10T15:43:13Z</time>
      </trkpt>
      <trkpt lat="43.20468" lon="2.33319">
        <ele>113</ele>
        <time>2024-05-10T15:43:14Z</time>
      </trkpt>
      <trkpt lat="43.20474" lon="2.33318">
        <ele>113.1</ele>
        <time>2024-05-10T15:43:15Z</time>
      </trkpt>
      <trkpt lat="43.20481" lon="2.33314">
        <ele>113.2</ele>
        <time>2024-05-10T15:43:16Z</time>
      </trkpt>
      <trkpt lat="43.20487" lon="2.33306">
        <ele>113.4</ele>
        <time>2024-05-10T15:43:17Z</time>
      </trkpt>
      <trkpt lat="43.2049" lon="2.33296">
        <ele>113.1</ele>
        <time>2024-05-10T15:43:18Z</time>
      </trkpt>
      <trkpt lat="43.20492" lon="2.33285">
        <ele>112.8</ele>
        <time>2024-05-10T15:43:19Z</time>
      </trkpt>
      <trkpt lat="43.20491" lon="2.33274">
        <ele>112.5</ele>
        <time>2024-05-10T15:43:20Z</time>
      </trkpt>
      <trkpt lat="43.20486" lon="2.33265">
        <ele>112.3</ele>
        <time>2024-05-10T15:43:21Z</time>
      </trkpt>
      <trkpt lat="43.2048" lon="2.33257">
        <ele>112.2</ele>
        <time>2024-05-10T15:43:22Z</time>
      </trkpt>
      <trkpt lat="43.20472" lon="2.33253">
        <ele>112.2</ele>
        <time>2024-05-10T15:43:23Z</time>
      </trkpt>
      <trkpt lat="43.20463" lon="2.33252">
        <ele>112.4</ele>
        <time>2024-05-10T15:43:24Z</time>
      </trkpt>
      <trkpt lat="43.20453" lon="2.33252">
        <ele>112.7</ele>
        <time>2024-05-10T15:43:25Z</time>
      </trkpt>
      <trkpt lat="43.20444" lon="2.3325">
        <ele>113</ele>
        <time>2024-05-10T15:43:26Z</time>
      </trkpt>
      <trkpt lat="43.20434" lon="2.33246">
        <ele>112.6</ele>
        <time>2024-05-10T15:43:27Z</time>
      </trkpt>
      <trkpt lat="43.20424" lon="2.33238">
        <ele>112.5</ele>
        <time>2024-05-10T15:43:28Z</time>
      </trkpt>
      <trkpt lat="43.20412" lon="2.33227">
        <ele>112.7</ele>
        <time>2024-05-10T15:43:29Z</time>
      </trkpt>
      <trkpt lat="43.20399" lon="2.33214">
        <ele>112.4</ele>
        <time>2024-05-10T15:43:30Z</time>
      </trkpt>
      <trkpt lat="43.20384" lon="2.33198">
        <ele>112.7</ele>
        <time>2024-05-10T15:43:31Z</time>
      </trkpt>
      <trkpt lat="43.20369" lon="2.33183">
        <ele>112.5</ele>
        <time>2024-05-10T15:43:32Z</time>
      </trkpt>
      <trkpt lat="43.20356" lon="2.33167">
        <ele>112.8</ele>
        <time>2024-05-10T15:43:33Z</time>
      </trkpt>
      <trkpt lat="43.20343" lon="2.33154">
        <ele>112.6</ele>
        <time>2024-05-10T15:43:34Z</time>
      </trkpt>
      <trkpt lat="43.20333" lon="2.33143">
        <ele>112.8</ele>
        <time>2024-05-10T15:43:35Z</time>
      </trkpt>
      <trkpt lat="43.20325" lon="2.33135">
        <ele>112.7</ele>
        <time>2024-05-10T15:43:36Z</time>
      </trkpt>
      <trkpt lat="43.20317" lon="2.33126">
        <ele>112.7</ele>
        <time>2024-05-10T15:43:37Z</time>
      </trkpt>
      <trkpt lat="43.20308" lon="2.33117">
        <ele>112.8</ele>
        <time>2024-05-10T15:43:38Z</time>
      </trkpt>
      <trkpt lat="43.20299" lon="2.33107">
        <ele>112.6</ele>
        <time>2024-05-10T15:43:39Z</time>
      </trkpt>
      <trkpt lat="43.20289" lon="2.33097">
        <ele>112.4</ele>
        <time>2024-05-10T15:43:40Z</time>
      </trkpt>
      <trkpt lat="43.20279" lon="2.33086">
        <ele>112.8</ele>
        <time>2024-05-10T15:43:41Z</time>
      </trkpt>
      <trkpt lat="43.2027" lon="2.33075">
        <ele>112.8</ele>
        <time>2024-05-10T15:43:42Z</time>
      </trkpt>
      <trkpt lat="43.2026" lon="2.33065">
        <ele>112.8</ele>
        <time>2024-05-10T15:43:43Z</time>
      </trkpt>
      <trkpt lat="43.20251" lon="2.33055">
        <ele>113.1</ele>
        <time>2024-05-10T15:43:44Z</time>
      </trkpt>
      <trkpt lat="43.20242" lon="2.33045">
        <ele>112.9</ele>
        <time>2024-05-10T15:43:45Z</time>
      </trkpt>
      <trkpt lat="43.20234" lon="2.33036">
        <ele>113</ele>
        <time>2024-05-10T15:43:46Z</time>
      </trkpt>
      <trkpt lat="43.20227" lon="2.33029">
        <ele>113.1</ele>
        <time>2024-05-10T15:43:47Z</time>
      </trkpt>
      <trkpt lat="43.2022" lon="2.33022">
        <ele>113.1</ele>
        <time>2024-05-10T15:43:48Z</time>
      </trkpt>
      <trkpt lat="43.20215" lon="2.33017">
        <ele>113.1</ele>
        <time>2024-05-10T15:43:49Z</time>
      </trkpt>
      <trkpt lat="43.20209" lon="2.3301">
        <ele>113.2</ele>
        <time>2024-05-10T15:43:50Z</time>
      </trkpt>
      <trkpt lat="43.20203" lon="2.33004">
        <ele>113.2</ele>
        <time>2024-05-10T15:43:51Z</time>
      </trkpt>
      <trkpt lat="43.20197" lon="2.32998">
        <ele>113.2</ele>
        <time>2024-05-10T15:43:52Z</time>
      </trkpt>
      <trkpt lat="43.2019" lon="2.32992">
        <ele>113.1</ele>
        <time>2024-05-10T15:43:53Z</time>
      </trkpt>
      <trkpt lat="43.20184" lon="2.32986">
        <ele>113.1</ele>
        <time>2024-05-10T15:43:54Z</time>
      </trkpt>
      <trkpt lat="43.20176" lon="2.32981">
        <ele>113</ele>
        <time>2024-05-10T15:43:55Z</time>
      </trkpt>
      <trkpt lat="43.20168" lon="2.32974">
        <ele>113</ele>
        <time>2024-05-10T15:43:56Z</time>
      </trkpt>
      <trkpt lat="43.20159" lon="2.32966">
        <ele>112.9</ele>
        <time>2024-05-10T15:43:57Z</time>
      </trkpt>
      <trkpt lat="43.20149" lon="2.32957">
        <ele>112.9</ele>
        <time>2024-05-10T15:43:58Z</time>
      </trkpt>
      <trkpt lat="43.20139" lon="2.32949">
        <ele>112.8</ele>
        <time>2024-05-10T15:43:59Z</time>
      </trkpt>
      <trkpt lat="43.20128" lon="2.3294">
        <ele>112.8</ele>
        <time>2024-05-10T15:44:00Z</time>
      </trkpt>
      <trkpt lat="43.20114" lon="2.32932">
        <ele>113</ele>
        <time>2024-05-10T15:44:01Z</time>
      </trkpt>
      <trkpt lat="43.201" lon="2.32922">
        <ele>113.1</ele>
        <time>2024-05-10T15:44:02Z</time>
      </trkpt>
      <trkpt lat="43.20086" lon="2.32911">
        <ele>113.3</ele>
        <time>2024-05-10T15:44:03Z</time>
      </trkpt>
      <trkpt lat="43.20072" lon="2.32901">
        <ele>113.4</ele>
        <time>2024-05-10T15:44:04Z</time>
      </trkpt>
      <trkpt lat="43.20058" lon="2.32888">
        <ele>114</ele>
        <time>2024-05-10T15:44:05Z</time>
      </trkpt>
      <trkpt lat="43.20044" lon="2.32875">
        <ele>114.5</ele>
        <time>2024-05-10T15:44:06Z</time>
      </trkpt>
      <trkpt lat="43.20032" lon="2.3286">
        <ele>114.2</ele>
        <time>2024-05-10T15:44:07Z</time>
      </trkpt>
      <trkpt lat="43.20021" lon="2.32846">
        <ele>114.7</ele>
        <time>2024-05-10T15:44:08Z</time>
      </trkpt>
      <trkpt lat="43.20012" lon="2.32833">
        <ele>115</ele>
        <time>2024-05-10T15:44:09Z</time>
      </trkpt>
      <trkpt lat="43.20003" lon="2.3282">
        <ele>115.5</ele>
        <time>2024-05-10T15:44:10Z</time>
      </trkpt>
      <trkpt lat="43.19995" lon="2.32809">
        <ele>115.9</ele>
        <time>2024-05-10T15:44:11Z</time>
      </trkpt>
      <trkpt lat="43.19988" lon="2.32798">
        <ele>116.2</ele>
        <time>2024-05-10T15:44:12Z</time>
      </trkpt>
      <trkpt lat="43.19981" lon="2.32788">
        <ele>116.2</ele>
        <time>2024-05-10T15:44:13Z</time>
      </trkpt>
      <trkpt lat="43.19975" lon="2.32779">
        <ele>116.1</ele>
        <time>2024-05-10T15:44:14Z</time>
      </trkpt>
      <trkpt lat="43.1997" lon="2.32767">
        <ele>116.1</ele>
        <time>2024-05-10T15:44:15Z</time>
      </trkpt>
      <trkpt lat="43.19967" lon="2.32756">
        <ele>116.2</ele>
        <time>2024-05-10T15:44:16Z</time>
      </trkpt>
      <trkpt lat="43.19967" lon="2.32744">
        <ele>116.6</ele>
        <time>2024-05-10T15:44:17Z</time>
      </trkpt>
      <trkpt lat="43.19968" lon="2.32732">
        <ele>117.3</ele>
        <time>2024-05-10T15:44:18Z</time>
      </trkpt>
      <trkpt lat="43.19971" lon="2.32719">
        <ele>118.1</ele>
        <time>2024-05-10T15:44:19Z</time>
      </trkpt>
      <trkpt lat="43.19974" lon="2.32707">
        <ele>118.5</ele>
        <time>2024-05-10T15:44:20Z</time>
      </trkpt>
      <trkpt lat="43.19978" lon="2.32695">
        <ele>119</ele>
        <time>2024-05-10T15:44:21Z</time>
      </trkpt>
      <trkpt lat="43.19983" lon="2.32682">
        <ele>119.4</ele>
        <time>2024-05-10T15:44:22Z</time>
      </trkpt>
      <trkpt lat="43.19989" lon="2.32668">
        <ele>120</ele>
        <time>2024-05-10T15:44:23Z</time>
      </trkpt>
      <trkpt lat="43.19996" lon="2.32653">
        <ele>120.4</ele>
        <time>2024-05-10T15:44:24Z</time>
      </trkpt>
      <trkpt lat="43.20003" lon="2.32635">
        <ele>121.4</ele>
        <time>2024-05-10T15:44:25Z</time>
      </trkpt>
      <trkpt lat="43.20012" lon="2.32615">
        <ele>122.7</ele>
        <time>2024-05-10T15:44:26Z</time>
      </trkpt>
      <trkpt lat="43.20021" lon="2.32593">
        <ele>124</ele>
        <time>2024-05-10T15:44:27Z</time>
      </trkpt>
      <trkpt lat="43.20031" lon="2.32569">
        <ele>125.2</ele>
        <time>2024-05-10T15:44:28Z</time>
      </trkpt>
      <trkpt lat="43.20041" lon="2.32547">
        <ele>127.8</ele>
        <time>2024-05-10T15:44:29Z</time>
      </trkpt>
      <trkpt lat="43.2005" lon="2.32527">
        <ele>128.7</ele>
        <time>2024-05-10T15:44:30Z</time>
      </trkpt>
      <trkpt lat="43.20059" lon="2.32508">
        <ele>129</ele>
        <time>2024-05-10T15:44:31Z</time>
      </trkpt>
      <trkpt lat="43.20067" lon="2.3249">
        <ele>131.1</ele>
        <time>2024-05-10T15:44:32Z</time>
      </trkpt>
      <trkpt lat="43.20074" lon="2.32473">
        <ele>132.3</ele>
        <time>2024-05-10T15:44:33Z</time>
      </trkpt>
      <trkpt lat="43.20081" lon="2.32457">
        <ele>131.9</ele>
        <time>2024-05-10T15:44:34Z</time>
      </trkpt>
      <trkpt lat="43.20088" lon="2.32441">
        <ele>132.1</ele>
        <time>2024-05-10T15:44:35Z</time>
      </trkpt>
      <trkpt lat="43.20095" lon="2.32425">
        <ele>134.3</ele>
        <time>2024-05-10T15:44:36Z</time>
      </trkpt>
      <trkpt lat="43.20102" lon="2.32408">
        <ele>135.3</ele>
        <time>2024-05-10T15:44:37Z</time>
      </trkpt>
      <trkpt lat="43.20108" lon="2.32392">
        <ele>134</ele>
        <time>2024-05-10T15:44:38Z</time>
      </trkpt>
      <trkpt lat="43.20115" lon="2.32376">
        <ele>134.5</ele>
        <time>2024-05-10T15:44:39Z</time>
      </trkpt>
      <trkpt lat="43.20122" lon="2.32361">
        <ele>136.4</ele>
        <time>2024-05-10T15:44:40Z</time>
      </trkpt>
      <trkpt lat="43.20129" lon="2.32346">
        <ele>137.6</ele>
        <time>2024-05-10T15:44:41Z</time>
      </trkpt>
      <trkpt lat="43.20135" lon="2.32331">
        <ele>136.5</ele>
        <time>2024-05-10T15:44:42Z</time>
      </trkpt>
      <trkpt lat="43.2014" lon="2.32315">
        <ele>135.6</ele>
        <time>2024-05-10T15:44:43Z</time>
      </trkpt>
      <trkpt lat="43.20146" lon="2.32299">
        <ele>137</ele>
        <time>2024-05-10T15:44:44Z</time>
      </trkpt>
      <trkpt lat="43.20152" lon="2.32282">
        <ele>138.4</ele>
        <time>2024-05-10T15:44:45Z</time>
      </trkpt>
      <trkpt lat="43.20157" lon="2.32263">
        <ele>138.3</ele>
        <time>2024-05-10T15:44:46Z</time>
      </trkpt>
      <trkpt lat="43.20162" lon="2.32244">
        <ele>136.9</ele>
        <time>2024-05-10T15:44:47Z</time>
      </trkpt>
      <trkpt lat="43.20167" lon="2.32225">
        <ele>136.1</ele>
        <time>2024-05-10T15:44:48Z</time>
      </trkpt>
      <trkpt lat="43.20171" lon="2.32206">
        <ele>136.4</ele>
        <time>2024-05-10T15:44:49Z</time>
      </trkpt>
      <trkpt lat="43.20174" lon="2.32186">
        <ele>136.3</ele>
        <time>2024-05-10T15:44:50Z</time>
      </trkpt>
      <trkpt lat="43.20178" lon="2.32164">
        <ele>136.1</ele>
        <time>2024-05-10T15:44:51Z</time>
      </trkpt>
      <trkpt lat="43.2018" lon="2.32143">
        <ele>135.2</ele>
        <time>2024-05-10T15:44:52Z</time>
      </trkpt>
      <trkpt lat="43.20182" lon="2.32122">
        <ele>133.6</ele>
        <time>2024-05-10T15:44:53Z</time>
      </trkpt>
      <trkpt lat="43.20183" lon="2.32102">
        <ele>132.4</ele>
        <time>2024-05-10T15:44:54Z</time>
      </trkpt>
      <trkpt lat="43.20185" lon="2.32082">
        <ele>131.6</ele>
        <time>2024-05-10T15:44:55Z</time>
      </trkpt>
      <trkpt lat="43.20186" lon="2.32062">
        <ele>131.1</ele>
        <time>2024-05-10T15:44:56Z</time>
      </trkpt>
      <trkpt lat="43.20187" lon="2.32043">
        <ele>130.4</ele>
        <time>2024-05-10T15:44:57Z</time>
      </trkpt>
      <trkpt lat="43.20187" lon="2.32022">
        <ele>129.6</ele>
        <time>2024-05-10T15:44:58Z</time>
      </trkpt>
      <trkpt lat="43.20188" lon="2.32">
        <ele>129.3</ele>
        <time>2024-05-10T15:44:59Z</time>
      </trkpt>
      <trkpt lat="43.20188" lon="2.31978">
        <ele>129.1</ele>
        <time>2024-05-10T15:45:00Z</time>
      </trkpt>
      <trkpt lat="43.20189" lon="2.31956">
        <ele>127.2</ele>
        <time>2024-05-10T15:45:01Z</time>
      </trkpt>
      <trkpt lat="43.2019" lon="2.31935">
        <ele>124.9</ele>
        <time>2024-05-10T15:45:02Z</time>
      </trkpt>
      <trkpt lat="43.20191" lon="2.31913">
        <ele>123.4</ele>
        <time>2024-05-10T15:45:03Z</time>
      </trkpt>
      <trkpt lat="43.20191" lon="2.31893">
        <ele>124.6</ele>
        <time>2024-05-10T15:45:04Z</time>
      </trkpt>
      <trkpt lat="43.20192" lon="2.31872">
        <ele>126.1</ele>
        <time>2024-05-10T15:45:05Z</time>
      </trkpt>
      <trkpt lat="43.20192" lon="2.31852">
        <ele>126.8</ele>
        <time>2024-05-10T15:45:06Z</time>
      </trkpt>
      <trkpt lat="43.20193" lon="2.31833">
        <ele>126.8</ele>
        <time>2024-05-10T15:45:07Z</time>
      </trkpt>
      <trkpt lat="43.20194" lon="2.31816">
        <ele>126.9</ele>
        <time>2024-05-10T15:45:08Z</time>
      </trkpt>
      <trkpt lat="43.20194" lon="2.318">
        <ele>126.7</ele>
        <time>2024-05-10T15:45:09Z</time>
      </trkpt>
      <trkpt lat="43.20195" lon="2.31783">
        <ele>126.1</ele>
        <time>2024-05-10T15:45:10Z</time>
      </trkpt>
      <trkpt lat="43.20195" lon="2.31767">
        <ele>125.5</ele>
        <time>2024-05-10T15:45:11Z</time>
      </trkpt>
      <trkpt lat="43.20196" lon="2.31752">
        <ele>124.9</ele>
        <time>2024-05-10T15:45:12Z</time>
      </trkpt>
      <trkpt lat="43.20197" lon="2.31736">
        <ele>124.3</ele>
        <time>2024-05-10T15:45:13Z</time>
      </trkpt>
      <trkpt lat="43.20198" lon="2.31721">
        <ele>123.7</ele>
        <time>2024-05-10T15:45:14Z</time>
      </trkpt>
      <trkpt lat="43.20199" lon="2.31706">
        <ele>123.1</ele>
        <time>2024-05-10T15:45:15Z</time>
      </trkpt>
      <trkpt lat="43.202" lon="2.31692">
        <ele>122.5</ele>
        <time>2024-05-10T15:45:16Z</time>
      </trkpt>
      <trkpt lat="43.20201" lon="2.31678">
        <ele>122.1</ele>
        <time>2024-05-10T15:45:17Z</time>
      </trkpt>
      <trkpt lat="43.20202" lon="2.31664">
        <ele>121.6</ele>
        <time>2024-05-10T15:45:18Z</time>
      </trkpt>
      <trkpt lat="43.20204" lon="2.31652">
        <ele>121.1</ele>
        <time>2024-05-10T15:45:19Z</time>
      </trkpt>
      <trkpt lat="43.20206" lon="2.31642">
        <ele>120.7</ele>
        <time>2024-05-10T15:45:20Z</time>
      </trkpt>
      <trkpt lat="43.20207" lon="2.31634">
        <ele>120.4</ele>
        <time>2024-05-10T15:45:21Z</time>
      </trkpt>
      <trkpt lat="43.20208" lon="2.31629">
        <ele>120.1</ele>
        <time>2024-05-10T15:45:22Z</time>
      </trkpt>
      <trkpt lat="43.20209" lon="2.31624">
        <ele>120</ele>
        <time>2024-05-10T15:45:23Z</time>
      </trkpt>
      <trkpt lat="43.2021" lon="2.31621">
        <ele>119.9</ele>
        <time>2024-05-10T15:45:24Z</time>
      </trkpt>
      <trkpt lat="43.2021" lon="2.31617">
        <ele>119.7</ele>
        <time>2024-05-10T15:45:25Z</time>
      </trkpt>
      <trkpt lat="43.20211" lon="2.31614">
        <ele>119.7</ele>
        <time>2024-05-10T15:45:26Z</time>
      </trkpt>
      <trkpt lat="43.20212" lon="2.3161">
        <ele>119.6</ele>
        <time>2024-05-10T15:45:27Z</time>
      </trkpt>
      <trkpt lat="43.20212" lon="2.31607">
        <ele>119.5</ele>
        <time>2024-05-10T15:45:28Z</time>
      </trkpt>
      <trkpt lat="43.20213" lon="2.31604">
        <ele>119.5</ele>
        <time>2024-05-10T15:45:29Z</time>
      </trkpt>
      <trkpt lat="43.20214" lon="2.316">
        <ele>119.4</ele>
        <time>2024-05-10T15:45:30Z</time>
      </trkpt>
      <trkpt lat="43.20215" lon="2.31595">
        <ele>119.3</ele>
        <time>2024-05-10T15:45:31Z</time>
      </trkpt>
      <trkpt lat="43.20216" lon="2.3159">
        <ele>119.2</ele>
        <time>2024-05-10T15:45:32Z</time>
      </trkpt>
      <trkpt lat="43.20218" lon="2.31585">
        <ele>119.1</ele>
        <time>2024-05-10T15:45:33Z</time>
      </trkpt>
      <trkpt lat="43.20219" lon="2.31579">
        <ele>119</ele>
        <time>2024-05-10T15:45:34Z</time>
      </trkpt>
      <trkpt lat="43.2022" lon="2.31573">
        <ele>119</ele>
        <time>2024-05-10T15:45:35Z</time>
      </trkpt>
      <trkpt lat="43.20222" lon="2.31568">
        <ele>119</ele>
        <time>2024-05-10T15:45:36Z</time>
      </trkpt>
      <trkpt lat="43.20223" lon="2.31563">
        <ele>119</ele>
        <time>2024-05-10T15:45:37Z</time>
      </trkpt>
      <trkpt lat="43.20224" lon="2.3156">
        <ele>118.9</ele>
        <time>2024-05-10T15:45:38Z</time>
      </trkpt>
      <trkpt lat="43.20225" lon="2.31556">
        <ele>118.9</ele>
        <time>2024-05-10T15:45:39Z</time>
      </trkpt>
      <trkpt lat="43.20226" lon="2.31553">
        <ele>118.9</ele>
        <time>2024-05-10T15:45:40Z</time>
      </trkpt>
      <trkpt lat="43.20227" lon="2.31551">
        <ele>118.8</ele>
        <time>2024-05-10T15:45:41Z</time>
      </trkpt>
      <trkpt lat="43.20227" lon="2.3155">
        <ele>118.8</ele>
        <time>2024-05-10T15:45:42Z</time>
      </trkpt>
      <trkpt lat="43.20227" lon="2.31549">
        <ele>118.8</ele>
        <time>2024-05-10T15:45:43Z</time>
      </trkpt>
      <trkpt lat="43.20227" lon="2.31549">
        <ele>118.8</ele>
        <time>2024-05-10T15:45:44Z</time>
      </trkpt>
      <trkpt lat="43.20227" lon="2.31549">
        <ele>118.8</ele>
        <time>2024-05-10T15:45:45Z</time>
      </trkpt>
      <trkpt lat="43.20227" lon="2.31549">
        <ele>118.8</ele>
        <time>2024-05-10T15:45:46Z</time>
      </trkpt>
      <trkpt lat="43.20228" lon="2.31547">
        <ele>118.8</ele>
        <time>2024-05-10T15:45:47Z</time>
      </trkpt>
      <trkpt lat="43.20229" lon="2.31544">
        <ele>118.8</ele>
        <time>2024-05-10T15:45:48Z</time>
      </trkpt>
      <trkpt lat="43.20232" lon="2.31536">
        <ele>118.6</ele>
        <time>2024-05-10T15:45:49Z</time>
      </trkpt>
      <trkpt lat="43.20236" lon="2.31529">
        <ele>118.5</ele>
        <time>2024-05-10T15:45:50Z</time>
      </trkpt>
      <trkpt lat="43.20241" lon="2.31521">
        <ele>118.5</ele>
        <time>2024-05-10T15:45:51Z</time>
      </trkpt>
      <trkpt lat="43.20247" lon="2.31516">
        <ele>118.5</ele>
        <time>2024-05-10T15:45:52Z</time>
      </trkpt>
      <trkpt lat="43.20252" lon="2.31512">
        <ele>118.6</ele>
        <time>2024-05-10T15:45:53Z</time>
      </trkpt>
      <trkpt lat="43.20255" lon="2.31509">
        <ele>118.7</ele>
        <time>2024-05-10T15:45:54Z</time>
      </trkpt>
      <trkpt lat="43.20257" lon="2.31508">
        <ele>118.7</ele>
        <time>2024-05-10T15:45:55Z</time>
      </trkpt>
      <trkpt lat="43.20258" lon="2.31507">
        <ele>118.7</ele>
        <time>2024-05-10T15:45:56Z</time>
      </trkpt>
      <trkpt lat="43.20259" lon="2.31506">
        <ele>118.8</ele>
        <time>2024-05-10T15:45:57Z</time>
      </trkpt>
      <trkpt lat="43.20259" lon="2.31505">
        <ele>118.8</ele>
        <time>2024-05-10T15:45:58Z</time>
      </trkpt>
      <trkpt lat="43.2026" lon="2.31506">
        <ele>118.8</ele>
        <time>2024-05-10T15:45:59Z</time>
      </trkpt>
      <trkpt lat="43.2026" lon="2.31506">
        <ele>118.8</ele>
        <time>2024-05-10T15:46:00Z</time>
      </trkpt>
      <trkpt lat="43.2026" lon="2.31506">
        <ele>118.8</ele>
        <time>2024-05-10T15:46:01Z</time>
      </trkpt>
      <trkpt lat="43.2026" lon="2.31506">
        <ele>118.8</ele>
        <time>2024-05-10T15:46:02Z</time>
      </trkpt>
      <trkpt lat="43.2026" lon="2.31506">
        <ele>118.8</ele>
        <time>2024-05-10T15:46:03Z</time>
      </trkpt>
      <trkpt lat="43.20262" lon="2.31505">
        <ele>118.8</ele>
        <time>2024-05-10T15:46:04Z</time>
      </trkpt>
      <trkpt lat="43.20268" lon="2.31501">
        <ele>119</ele>
        <time>2024-05-10T15:46:05Z</time>
      </trkpt>
      <trkpt lat="43.20277" lon="2.31497">
        <ele>119</ele>
        <time>2024-05-10T15:46:06Z</time>
      </trkpt>
      <trkpt lat="43.20287" lon="2.31492">
        <ele>118.5</ele>
        <time>2024-05-10T15:46:07Z</time>
      </trkpt>
      <trkpt lat="43.20297" lon="2.31483">
        <ele>118.5</ele>
        <time>2024-05-10T15:46:08Z</time>
      </trkpt>
      <trkpt lat="43.20303" lon="2.31469">
        <ele>119</ele>
        <time>2024-05-10T15:46:09Z</time>
      </trkpt>
      <trkpt lat="43.20307" lon="2.31454">
        <ele>118.9</ele>
        <time>2024-05-10T15:46:10Z</time>
      </trkpt>
      <trkpt lat="43.20309" lon="2.31438">
        <ele>118.9</ele>
        <time>2024-05-10T15:46:11Z</time>
      </trkpt>
      <trkpt lat="43.2031" lon="2.3142">
        <ele>118.8</ele>
        <time>2024-05-10T15:46:12Z</time>
      </trkpt>
      <trkpt lat="43.20311" lon="2.31402">
        <ele>118.8</ele>
        <time>2024-05-10T15:46:13Z</time>
      </trkpt>
      <trkpt lat="43.20314" lon="2.31386">
        <ele>118.7</ele>
        <time>2024-05-10T15:46:14Z</time>
      </trkpt>
      <trkpt lat="43.2032" lon="2.3137">
        <ele>118.1</ele>
        <time>2024-05-10T15:46:15Z</time>
      </trkpt>
      <trkpt lat="43.2033" lon="2.31355">
        <ele>117.5</ele>
        <time>2024-05-10T15:46:16Z</time>
      </trkpt>
      <trkpt lat="43.20342" lon="2.3134">
        <ele>118.1</ele>
        <time>2024-05-10T15:46:17Z</time>
      </trkpt>
      <trkpt lat="43.20355" lon="2.31327">
        <ele>118.8</ele>
        <time>2024-05-10T15:46:18Z</time>
      </trkpt>
      <trkpt lat="43.20369" lon="2.31314">
        <ele>119</ele>
        <time>2024-05-10T15:46:19Z</time>
      </trkpt>
      <trkpt lat="43.20383" lon="2.31301">
        <ele>119</ele>
        <time>2024-05-10T15:46:20Z</time>
      </trkpt>
      <trkpt lat="43.20399" lon="2.31289">
        <ele>119.2</ele>
        <time>2024-05-10T15:46:21Z</time>
      </trkpt>
      <trkpt lat="43.20415" lon="2.31278">
        <ele>119.9</ele>
        <time>2024-05-10T15:46:22Z</time>
      </trkpt>
      <trkpt lat="43.20433" lon="2.31268">
        <ele>119.6</ele>
        <time>2024-05-10T15:46:23Z</time>
      </trkpt>
      <trkpt lat="43.2045" lon="2.31258">
        <ele>119.7</ele>
        <time>2024-05-10T15:46:24Z</time>
      </trkpt>
      <trkpt lat="43.20467" lon="2.3125">
        <ele>120</ele>
        <time>2024-05-10T15:46:25Z</time>
      </trkpt>
      <trkpt lat="43.20485" lon="2.31242">
        <ele>119.4</ele>
        <time>2024-05-10T15:46:26Z</time>
      </trkpt>
      <trkpt lat="43.20502" lon="2.31236">
        <ele>119</ele>
        <time>2024-05-10T15:46:27Z</time>
      </trkpt>
      <trkpt lat="43.20519" lon="2.31231">
        <ele>119.3</ele>
        <time>2024-05-10T15:46:28Z</time>
      </trkpt>
      <trkpt lat="43.20535" lon="2.31226">
        <ele>119.8</ele>
        <time>2024-05-10T15:46:29Z</time>
      </trkpt>
      <trkpt lat="43.20551" lon="2.31221">
        <ele>120</ele>
        <time>2024-05-10T15:46:30Z</time>
      </trkpt>
      <trkpt lat="43.20566" lon="2.31216">
        <ele>119.9</ele>
        <time>2024-05-10T15:46:31Z</time>
      </trkpt>
      <trkpt lat="43.20583" lon="2.31211">
        <ele>120</ele>
        <time>2024-05-10T15:46:32Z</time>
      </trkpt>
      <trkpt lat="43.206" lon="2.31206">
        <ele>120.4</ele>
        <time>2024-05-10T15:46:33Z</time>
      </trkpt>
      <trkpt lat="43.20617" lon="2.31202">
        <ele>120.8</ele>
        <time>2024-05-10T15:46:34Z</time>
      </trkpt>
      <trkpt lat="43.20634" lon="2.31198">
        <ele>121</ele>
        <time>2024-05-10T15:46:35Z</time>
      </trkpt>
      <trkpt lat="43.20646" lon="2.31196">
        <ele>121</ele>
        <time>2024-05-10T15:46:36Z</time>
      </trkpt>
      <trkpt lat="43.20657" lon="2.31195">
        <ele>121</ele>
        <time>2024-05-10T15:46:37Z</time>
      </trkpt>
      <trkpt lat="43.20667" lon="2.31194">
        <ele>121</ele>
        <time>2024-05-10T15:46:38Z</time>
      </trkpt>
      <trkpt lat="43.20676" lon="2.31194">
        <ele>121</ele>
        <time>2024-05-10T15:46:39Z</time>
      </trkpt>
      <trkpt lat="43.20685" lon="2.31195">
        <ele>121</ele>
        <time>2024-05-10T15:46:40Z</time>
      </trkpt>
      <trkpt lat="43.20695" lon="2.31198">
        <ele>121</ele>
        <time>2024-05-10T15:46:41Z</time>
      </trkpt>
      <trkpt lat="43.20703" lon="2.31202">
        <ele>120.9</ele>
        <time>2024-05-10T15:46:42Z</time>
      </trkpt>
      <trkpt lat="43.2071" lon="2.31206">
        <ele>120.8</ele>
        <time>2024-05-10T15:46:43Z</time>
      </trkpt>
      <trkpt lat="43.20716" lon="2.31212">
        <ele>120.5</ele>
        <time>2024-05-10T15:46:44Z</time>
      </trkpt>
      <trkpt lat="43.20722" lon="2.31217">
        <ele>120.2</ele>
        <time>2024-05-10T15:46:45Z</time>
      </trkpt>
      <trkpt lat="43.20725" lon="2.31222">
        <ele>119.9</ele>
        <time>2024-05-10T15:46:46Z</time>
      </trkpt>
      <trkpt lat="43.20728" lon="2.31225">
        <ele>119.8</ele>
        <time>2024-05-10T15:46:47Z</time>
      </trkpt>
      <trkpt lat="43.2073" lon="2.31228">
        <ele>119.7</ele>
        <time>2024-05-10T15:46:48Z</time>
      </trkpt>
      <trkpt lat="43.20731" lon="2.3123">
        <ele>119.7</ele>
        <time>2024-05-10T15:46:49Z</time>
      </trkpt>
      <trkpt lat="43.20733" lon="2.31233">
        <ele>119.6</ele>
        <time>2024-05-10T15:46:50Z</time>
      </trkpt>
      <trkpt lat="43.20735" lon="2.31235">
        <ele>119.5</ele>
        <time>2024-05-10T15:46:51Z</time>
      </trkpt>
      <trkpt lat="43.20737" lon="2.31237">
        <ele>119.5</ele>
        <time>2024-05-10T15:46:52Z</time>
      </trkpt>
      <trkpt lat="43.20739" lon="2.31239">
        <ele>119.4</ele>
        <time>2024-05-10T15:46:53Z</time>
      </trkpt>
      <trkpt lat="43.2074" lon="2.3124">
        <ele>119.4</ele>
        <time>2024-05-10T15:46:54Z</time>
      </trkpt>
      <trkpt lat="43.20741" lon="2.3124">
        <ele>119.3</ele>
        <time>2024-05-10T15:46:55Z</time>
      </trkpt>
      <trkpt lat="43.20742" lon="2.31242">
        <ele>119.3</ele>
        <time>2024-05-10T15:46:56Z</time>
      </trkpt>
      <trkpt lat="43.20742" lon="2.31242">
        <ele>119.3</ele>
        <time>2024-05-10T15:46:57Z</time>
      </trkpt>
      <trkpt lat="43.20742" lon="2.31242">
        <ele>119.3</ele>
        <time>2024-05-10T15:46:58Z</time>
      </trkpt>
      <trkpt lat="43.20742" lon="2.31242">
        <ele>119.3</ele>
        <time>2024-05-10T15:46:59Z</time>
      </trkpt>
      <trkpt lat="43.20742" lon="2.31242">
        <ele>119.3</ele>
        <time>2024-05-10T15:47:00Z</time>
      </trkpt>
      <trkpt lat="43.20742" lon="2.31242">
        <ele>119.3</ele>
        <time>2024-05-10T15:47:01Z</time>
      </trkpt>
      <trkpt lat="43.20742" lon="2.31242">
        <ele>119.3</ele>
        <time>2024-05-10T15:47:02Z</time>
      </trkpt>
      <trkpt lat="43.20742" lon="2.31242">
        <ele>119.3</ele>
        <time>2024-05-10T15:47:03Z</time>
      </trkpt>
      <trkpt lat="43.20742" lon="2.31242">
        <ele>119.3</ele>
        <time>2024-05-10T15:47:04Z</time>
      </trkpt>
      <trkpt lat="43.20742" lon="2.31242">
        <ele>119.3</ele>
        <time>2024-05-10T15:47:05Z</time>
      </trkpt>
      <trkpt lat="43.20742" lon="2.31242">
        <ele>119.3</ele>
        <time>2024-05-10T15:47:06Z</time>
      </trkpt>
      <trkpt lat="43.20742" lon="2.31242">
        <ele>119.3</ele>
        <time>2024-05-10T15:47:07Z</time>
      </trkpt>
      <trkpt lat="43.20742" lon="2.31242">
        <ele>119.3</ele>
        <time>2024-05-10T15:47:08Z</time>
      </trkpt>
      <trkpt lat="43.20742" lon="2.31242">
        <ele>119.3</ele>
        <time>2024-05-10T15:47:09Z</time>
      </trkpt>
      <trkpt lat="43.20742" lon="2.31242">
        <ele>119.3</ele>
        <time>2024-05-10T15:47:10Z</time>
      </trkpt>
      <trkpt lat="43.20742" lon="2.31242">
        <ele>119.3</ele>
        <time>2024-05-10T15:47:11Z</time>
      </trkpt>
      <trkpt lat="43.20742" lon="2.31242">
        <ele>119.3</ele>
        <time>2024-05-10T15:47:12Z</time>
      </trkpt>
      <trkpt lat="43.20742" lon="2.31242">
        <ele>119.3</ele>
        <time>2024-05-10T15:47:13Z</time>
      </trkpt>
      <trkpt lat="43.20742" lon="2.31243">
        <ele>119.3</ele>
        <time>2024-05-10T15:47:14Z</time>
      </trkpt>
      <trkpt lat="43.20742" lon="2.31243">
        <ele>119.3</ele>
        <time>2024-05-10T15:47:15Z</time>
      </trkpt>
      <trkpt lat="43.20743" lon="2.31243">
        <ele>119.3</ele>
        <time>2024-05-10T15:47:16Z</time>
      </trkpt>
      <trkpt lat="43.20743" lon="2.31243">
        <ele>119.3</ele>
        <time>2024-05-10T15:47:17Z</time>
      </trkpt>
      <trkpt lat="43.20743" lon="2.31243">
        <ele>119.3</ele>
        <time>2024-05-10T15:47:18Z</time>
      </trkpt>
      <trkpt lat="43.20743" lon="2.31243">
        <ele>119.3</ele>
        <time>2024-05-10T15:47:19Z</time>
      </trkpt>
      <trkpt lat="43.20743" lon="2.31243">
        <ele>119.3</ele>
        <time>2024-05-10T15:47:20Z</time>
      </trkpt>
      <trkpt lat="43.20743" lon="2.31243">
        <ele>119.3</ele>
        <time>2024-05-10T15:47:21Z</time>
      </trkpt>
      <trkpt lat="43.20743" lon="2.31242">
        <ele>119.3</ele>
        <time>2024-05-10T15:47:22Z</time>
      </trkpt>
      <trkpt lat="43.20743" lon="2.31242">
        <ele>119.3</ele>
        <time>2024-05-10T15:47:23Z</time>
      </trkpt>
      <trkpt lat="43.20743" lon="2.31243">
        <ele>119.3</ele>
        <time>2024-05-10T15:47:24Z</time>
      </trkpt>
      <trkpt lat="43.20744" lon="2.31244">
        <ele>119.2</ele>
        <time>2024-05-10T15:47:25Z</time>
      </trkpt>
      <trkpt lat="43.20746" lon="2.31245">
        <ele>119.1</ele>
        <time>2024-05-10T15:47:26Z</time>
      </trkpt>
      <trkpt lat="43.20748" lon="2.31247">
        <ele>119.1</ele>
        <time>2024-05-10T15:47:27Z</time>
      </trkpt>
      <trkpt lat="43.2075" lon="2.31248">
        <ele>119</ele>
        <time>2024-05-10T15:47:28Z</time>
      </trkpt>
      <trkpt lat="43.20753" lon="2.3125">
        <ele>118.9</ele>
        <time>2024-05-10T15:47:29Z</time>
      </trkpt>
      <trkpt lat="43.20756" lon="2.31252">
        <ele>118.8</ele>
        <time>2024-05-10T15:47:30Z</time>
      </trkpt>
      <trkpt lat="43.2076" lon="2.31254">
        <ele>118.6</ele>
        <time>2024-05-10T15:47:31Z</time>
      </trkpt>
      <trkpt lat="43.20764" lon="2.31256">
        <ele>118.4</ele>
        <time>2024-05-10T15:47:32Z</time>
      </trkpt>
      <trkpt lat="43.20768" lon="2.31258">
        <ele>118.2</ele>
        <time>2024-05-10T15:47:33Z</time>
      </trkpt>
      <trkpt lat="43.20772" lon="2.31259">
        <ele>118</ele>
        <time>2024-05-10T15:47:34Z</time>
      </trkpt>
      <trkpt lat="43.20775" lon="2.31259">
        <ele>117.8</ele>
        <time>2024-05-10T15:47:35Z</time>
      </trkpt>
      <trkpt lat="43.20779" lon="2.31258">
        <ele>117.7</ele>
        <time>2024-05-10T15:47:36Z</time>
      </trkpt>
      <trkpt lat="43.20781" lon="2.31256">
        <ele>117.8</ele>
        <time>2024-05-10T15:47:37Z</time>
      </trkpt>
      <trkpt lat="43.20782" lon="2.31255">
        <ele>117.8</ele>
        <time>2024-05-10T15:47:38Z</time>
      </trkpt>
      <trkpt lat="43.20783" lon="2.31253">
        <ele>117.9</ele>
        <time>2024-05-10T15:47:39Z</time>
      </trkpt>
      <trkpt lat="43.20784" lon="2.31252">
        <ele>117.9</ele>
        <time>2024-05-10T15:47:40Z</time>
      </trkpt>
      <trkpt lat="43.20785" lon="2.31251">
        <ele>118</ele>
        <time>2024-05-10T15:47:41Z</time>
      </trkpt>
      <trkpt lat="43.20785" lon="2.3125">
        <ele>118</ele>
        <time>2024-05-10T15:47:42Z</time>
      </trkpt>
      <trkpt lat="43.20786" lon="2.31249">
        <ele>118</ele>
        <time>2024-05-10T15:47:43Z</time>
      </trkpt>
      <trkpt lat="43.20786" lon="2.31249">
        <ele>118</ele>
        <time>2024-05-10T15:47:44Z</time>
      </trkpt>
      <trkpt lat="43.20786" lon="2.31248">
        <ele>117.9</ele>
        <time>2024-05-10T15:47:45Z</time>
      </trkpt>
      <trkpt lat="43.20786" lon="2.31248">
        <ele>117.9</ele>
        <time>2024-05-10T15:47:46Z</time>
      </trkpt>
      <trkpt lat="43.20786" lon="2.31248">
        <ele>117.9</ele>
        <time>2024-05-10T15:47:47Z</time>
      </trkpt>
      <trkpt lat="43.20787" lon="2.31247">
        <ele>117.9</ele>
        <time>2024-05-10T15:47:48Z</time>
      </trkpt>
      <trkpt lat="43.20789" lon="2.31244">
        <ele>117.9</ele>
        <time>2024-05-10T15:47:49Z</time>
      </trkpt>
      <trkpt lat="43.20792" lon="2.31236">
        <ele>117.8</ele>
        <time>2024-05-10T15:47:50Z</time>
      </trkpt>
      <trkpt lat="43.20794" lon="2.31226">
        <ele>117.6</ele>
        <time>2024-05-10T15:47:51Z</time>
      </trkpt>
      <trkpt lat="43.20795" lon="2.31216">
        <ele>117.7</ele>
        <time>2024-05-10T15:47:52Z</time>
      </trkpt>
      <trkpt lat="43.20797" lon="2.31205">
        <ele>117.9</ele>
        <time>2024-05-10T15:47:53Z</time>
      </trkpt>
      <trkpt lat="43.20799" lon="2.31192">
        <ele>118</ele>
        <time>2024-05-10T15:47:54Z</time>
      </trkpt>
      <trkpt lat="43.20801" lon="2.3118">
        <ele>117.7</ele>
        <time>2024-05-10T15:47:55Z</time>
      </trkpt>
      <trkpt lat="43.20803" lon="2.31167">
        <ele>117.3</ele>
        <time>2024-05-10T15:47:56Z</time>
      </trkpt>
      <trkpt lat="43.20805" lon="2.31156">
        <ele>117.1</ele>
        <time>2024-05-10T15:47:57Z</time>
      </trkpt>
      <trkpt lat="43.20808" lon="2.31144">
        <ele>117.3</ele>
        <time>2024-05-10T15:47:58Z</time>
      </trkpt>
      <trkpt lat="43.2081" lon="2.31132">
        <ele>118</ele>
        <time>2024-05-10T15:47:59Z</time>
      </trkpt>
      <trkpt lat="43.20814" lon="2.31121">
        <ele>118.7</ele>
        <time>2024-05-10T15:48:00Z</time>
      </trkpt>
      <trkpt lat="43.20817" lon="2.31109">
        <ele>119</ele>
        <time>2024-05-10T15:48:01Z</time>
      </trkpt>
      <trkpt lat="43.2082" lon="2.31099">
        <ele>119.2</ele>
        <time>2024-05-10T15:48:02Z</time>
      </trkpt>
      <trkpt lat="43.20823" lon="2.3109">
        <ele>119.3</ele>
        <time>2024-05-10T15:48:03Z</time>
      </trkpt>
      <trkpt lat="43.20826" lon="2.31081">
        <ele>119.3</ele>
        <time>2024-05-10T15:48:04Z</time>
      </trkpt>
      <trkpt lat="43.20829" lon="2.31075">
        <ele>119.2</ele>
        <time>2024-05-10T15:48:05Z</time>
      </trkpt>
      <trkpt lat="43.20831" lon="2.31069">
        <ele>119.1</ele>
        <time>2024-05-10T15:48:06Z</time>
      </trkpt>
      <trkpt lat="43.20834" lon="2.31063">
        <ele>119</ele>
        <time>2024-05-10T15:48:07Z</time>
      </trkpt>
      <trkpt lat="43.20837" lon="2.31057">
        <ele>119.1</ele>
        <time>2024-05-10T15:48:08Z</time>
      </trkpt>
      <trkpt lat="43.20841" lon="2.31052">
        <ele>119.4</ele>
        <time>2024-05-10T15:48:09Z</time>
      </trkpt>
      <trkpt lat="43.20847" lon="2.31047">
        <ele>119.6</ele>
        <time>2024-05-10T15:48:10Z</time>
      </trkpt>
      <trkpt lat="43.20852" lon="2.31044">
        <ele>119.8</ele>
        <time>2024-05-10T15:48:11Z</time>
      </trkpt>
      <trkpt lat="43.20858" lon="2.31042">
        <ele>119.9</ele>
        <time>2024-05-10T15:48:12Z</time>
      </trkpt>
      <trkpt lat="43.20864" lon="2.3104">
        <ele>120</ele>
        <time>2024-05-10T15:48:13Z</time>
      </trkpt>
      <trkpt lat="43.2087" lon="2.31039">
        <ele>120.1</ele>
        <time>2024-05-10T15:48:14Z</time>
      </trkpt>
      <trkpt lat="43.20875" lon="2.31035">
        <ele>120.1</ele>
        <time>2024-05-10T15:48:15Z</time>
      </trkpt>
      <trkpt lat="43.2088" lon="2.31029">
        <ele>120</ele>
        <time>2024-05-10T15:48:16Z</time>
      </trkpt>
      <trkpt lat="43.20882" lon="2.3102">
        <ele>120.2</ele>
        <time>2024-05-10T15:48:17Z</time>
      </trkpt>
      <trkpt lat="43.20882" lon="2.31011">
        <ele>120.5</ele>
        <time>2024-05-10T15:48:18Z</time>
      </trkpt>
      <trkpt lat="43.2088" lon="2.31002">
        <ele>120.6</ele>
        <time>2024-05-10T15:48:19Z</time>
      </trkpt>
      <trkpt lat="43.20876" lon="2.30994">
        <ele>120.5</ele>
        <time>2024-05-10T15:48:20Z</time>
      </trkpt>
      <trkpt lat="43.20869" lon="2.30989">
        <ele>120.3</ele>
        <time>2024-05-10T15:48:21Z</time>
      </trkpt>
      <trkpt lat="43.20862" lon="2.30988">
        <ele>120</ele>
        <time>2024-05-10T15:48:22Z</time>
      </trkpt>
      <trkpt lat="43.20854" lon="2.30989">
        <ele>120.3</ele>
        <time>2024-05-10T15:48:23Z</time>
      </trkpt>
      <trkpt lat="43.20847" lon="2.3099">
        <ele>120.5</ele>
        <time>2024-05-10T15:48:24Z</time>
      </trkpt>
      <trkpt lat="43.2084" lon="2.30991">
        <ele>120.8</ele>
        <time>2024-05-10T15:48:25Z</time>
      </trkpt>
      <trkpt lat="43.20834" lon="2.3099">
        <ele>121</ele>
        <time>2024-05-10T15:48:26Z</time>
      </trkpt>
      <trkpt lat="43.20828" lon="2.30991">
        <ele>121.1</ele>
        <time>2024-05-10T15:48:27Z</time>
      </trkpt>
      <trkpt lat="43.20823" lon="2.30993">
        <ele>121.1</ele>
        <time>2024-05-10T15:48:28Z</time>
      </trkpt>
      <trkpt lat="43.20818" lon="2.30997">
        <ele>121.1</ele>
        <time>2024-05-10T15:48:29Z</time>
      </trkpt>
      <trkpt lat="43.20814" lon="2.31003">
        <ele>121</ele>
        <time>2024-05-10T15:48:30Z</time>
      </trkpt>
      <trkpt lat="43.20812" lon="2.31008">
        <ele>120.9</ele>
        <time>2024-05-10T15:48:31Z</time>
      </trkpt>
      <trkpt lat="43.20809" lon="2.31012">
        <ele>120.9</ele>
        <time>2024-05-10T15:48:32Z</time>
      </trkpt>
      <trkpt lat="43.20807" lon="2.31015">
        <ele>121</ele>
        <time>2024-05-10T15:48:33Z</time>
      </trkpt>
      <trkpt lat="43.20805" lon="2.31019">
        <ele>121</ele>
        <time>2024-05-10T15:48:34Z</time>
      </trkpt>
      <trkpt lat="43.20803" lon="2.31023">
        <ele>121</ele>
        <time>2024-05-10T15:48:35Z</time>
      </trkpt>
      <trkpt lat="43.208" lon="2.31027">
        <ele>121</ele>
        <time>2024-05-10T15:48:36Z</time>
      </trkpt>
      <trkpt lat="43.20798" lon="2.31031">
        <ele>121</ele>
        <time>2024-05-10T15:48:37Z</time>
      </trkpt>
      <trkpt lat="43.20795" lon="2.31036">
        <ele>121</ele>
        <time>2024-05-10T15:48:38Z</time>
      </trkpt>
      <trkpt lat="43.20793" lon="2.31041">
        <ele>121</ele>
        <time>2024-05-10T15:48:39Z</time>
      </trkpt>
      <trkpt lat="43.2079" lon="2.31047">
        <ele>121</ele>
        <time>2024-05-10T15:48:40Z</time>
      </trkpt>
      <trkpt lat="43.20788" lon="2.31052">
        <ele>121</ele>
        <time>2024-05-10T15:48:41Z</time>
      </trkpt>
      <trkpt lat="43.20785" lon="2.31059">
        <ele>121</ele>
        <time>2024-05-10T15:48:42Z</time>
      </trkpt>
      <trkpt lat="43.20782" lon="2.31065">
        <ele>120.9</ele>
        <time>2024-05-10T15:48:43Z</time>
      </trkpt>
      <trkpt lat="43.2078" lon="2.31071">
        <ele>121</ele>
        <time>2024-05-10T15:48:44Z</time>
      </trkpt>
      <trkpt lat="43.20777" lon="2.31077">
        <ele>121</ele>
        <time>2024-05-10T15:48:45Z</time>
      </trkpt>
      <trkpt lat="43.20773" lon="2.31084">
        <ele>121</ele>
        <time>2024-05-10T15:48:46Z</time>
      </trkpt>
      <trkpt lat="43.2077" lon="2.3109">
        <ele>120.8</ele>
        <time>2024-05-10T15:48:47Z</time>
      </trkpt>
      <trkpt lat="43.20767" lon="2.31096">
        <ele>120.7</ele>
        <time>2024-05-10T15:48:48Z</time>
      </trkpt>
      <trkpt lat="43.20764" lon="2.31103">
        <ele>120.6</ele>
        <time>2024-05-10T15:48:49Z</time>
      </trkpt>
      <trkpt lat="43.20763" lon="2.31109">
        <ele>120.6</ele>
        <time>2024-05-10T15:48:50Z</time>
      </trkpt>
      <trkpt lat="43.20763" lon="2.31115">
        <ele>120.6</ele>
        <time>2024-05-10T15:48:51Z</time>
      </trkpt>
      <trkpt lat="43.20766" lon="2.3112">
        <ele>120.6</ele>
        <time>2024-05-10T15:48:52Z</time>
      </trkpt>
      <trkpt lat="43.20769" lon="2.31122">
        <ele>120.6</ele>
        <time>2024-05-10T15:48:53Z</time>
      </trkpt>
      <trkpt lat="43.20772" lon="2.31122">
        <ele>120.5</ele>
        <time>2024-05-10T15:48:54Z</time>
      </trkpt>
      <trkpt lat="43.20773" lon="2.31122">
        <ele>120.5</ele>
        <time>2024-05-10T15:48:55Z</time>
      </trkpt>
      <trkpt lat="43.20774" lon="2.31121">
        <ele>120.4</ele>
        <time>2024-05-10T15:48:56Z</time>
      </trkpt>
      <trkpt lat="43.20774" lon="2.31121">
        <ele>120.4</ele>
        <time>2024-05-10T15:48:57Z</time>
      </trkpt>
      <trkpt lat="43.20774" lon="2.31121">
        <ele>120.4</ele>
        <time>2024-05-10T15:48:58Z</time>
      </trkpt>
      <trkpt lat="43.20774" lon="2.31121">
        <ele>120.4</ele>
        <time>2024-05-10T15:48:59Z</time>
      </trkpt>
      <trkpt lat="43.20775" lon="2.3112">
        <ele>120.4</ele>
        <time>2024-05-10T15:49:00Z</time>
      </trkpt>
      <trkpt lat="43.20776" lon="2.31119">
        <ele>120.3</ele>
        <time>2024-05-10T15:49:01Z</time>
      </trkpt>
      <trkpt lat="43.20776" lon="2.31119">
        <ele>120.3</ele>
        <time>2024-05-10T15:49:02Z</time>
      </trkpt>
      <trkpt lat="43.20776" lon="2.31119">
        <ele>120.3</ele>
        <time>2024-05-10T15:49:03Z</time>
      </trkpt>
      <trkpt lat="43.20776" lon="2.31119">
        <ele>120.3</ele>
        <time>2024-05-10T15:49:04Z</time>
      </trkpt>
      <trkpt lat="43.20777" lon="2.31118">
        <ele>120.3</ele>
        <time>2024-05-10T15:49:05Z</time>
      </trkpt>
      <trkpt lat="43.20778" lon="2.31117">
        <ele>120.2</ele>
        <time>2024-05-10T15:49:06Z</time>
      </trkpt>
      <trkpt lat="43.2078" lon="2.31115">
        <ele>120</ele>
        <time>2024-05-10T15:49:07Z</time>
      </trkpt>
      <trkpt lat="43.20781" lon="2.31113">
        <ele>119.9</ele>
        <time>2024-05-10T15:49:08Z</time>
      </trkpt>
      <trkpt lat="43.20782" lon="2.31112">
        <ele>119.9</ele>
        <time>2024-05-10T15:49:09Z</time>
      </trkpt>
      <trkpt lat="43.20783" lon="2.3111">
        <ele>119.9</ele>
        <time>2024-05-10T15:49:10Z</time>
      </trkpt>
      <trkpt lat="43.20783" lon="2.3111">
        <ele>119.9</ele>
        <time>2024-05-10T15:49:11Z</time>
      </trkpt>
      <trkpt lat="43.20783" lon="2.3111">
        <ele>119.9</ele>
        <time>2024-05-10T15:49:12Z</time>
      </trkpt>
      <trkpt lat="43.20784" lon="2.31109">
        <ele>119.9</ele>
        <time>2024-05-10T15:49:13Z</time>
      </trkpt>
      <trkpt lat="43.20786" lon="2.31107">
        <ele>119.9</ele>
        <time>2024-05-10T15:49:14Z</time>
      </trkpt>
      <trkpt lat="43.20788" lon="2.31105">
        <ele>119.9</ele>
        <time>2024-05-10T15:49:15Z</time>
      </trkpt>
      <trkpt lat="43.2079" lon="2.31103">
        <ele>119.9</ele>
        <time>2024-05-10T15:49:16Z</time>
      </trkpt>
      <trkpt lat="43.20792" lon="2.311">
        <ele>119.9</ele>
        <time>2024-05-10T15:49:17Z</time>
      </trkpt>
      <trkpt lat="43.20794" lon="2.31098">
        <ele>119.9</ele>
        <time>2024-05-10T15:49:18Z</time>
      </trkpt>
      <trkpt lat="43.20795" lon="2.31096">
        <ele>119.9</ele>
        <time>2024-05-10T15:49:19Z</time>
      </trkpt>
      <trkpt lat="43.20796" lon="2.31094">
        <ele>120</ele>
        <time>2024-05-10T15:49:20Z</time>
      </trkpt>
      <trkpt lat="43.20796" lon="2.31092">
        <ele>120</ele>
        <time>2024-05-10T15:49:21Z</time>
      </trkpt>
      <trkpt lat="43.20796" lon="2.3109">
        <ele>120.1</ele>
        <time>2024-05-10T15:49:22Z</time>
      </trkpt>
      <trkpt lat="43.20795" lon="2.31089">
        <ele>120.2</ele>
        <time>2024-05-10T15:49:23Z</time>
      </trkpt>
      <trkpt lat="43.20795" lon="2.31088">
        <ele>120.2</ele>
        <time>2024-05-10T15:49:24Z</time>
      </trkpt>
      <trkpt lat="43.20794" lon="2.31087">
        <ele>120.3</ele>
        <time>2024-05-10T15:49:25Z</time>
      </trkpt>
      <trkpt lat="43.20794" lon="2.31087">
        <ele>120.3</ele>
        <time>2024-05-10T15:49:26Z</time>
      </trkpt>
      <trkpt lat="43.20793" lon="2.31087">
        <ele>120.3</ele>
        <time>2024-05-10T15:49:27Z</time>
      </trkpt>
      <trkpt lat="43.20793" lon="2.31087">
        <ele>120.3</ele>
        <time>2024-05-10T15:49:28Z</time>
      </trkpt>
      <trkpt lat="43.20793" lon="2.31087">
        <ele>120.3</ele>
        <time>2024-05-10T15:49:29Z</time>
      </trkpt>
      <trkpt lat="43.20793" lon="2.31087">
        <ele>120.3</ele>
        <time>2024-05-10T15:49:30Z</time>
      </trkpt>
      <trkpt lat="43.20793" lon="2.31087">
        <ele>120.3</ele>
        <time>2024-05-10T15:49:31Z</time>
      </trkpt>
      <trkpt lat="43.20793" lon="2.31087">
        <ele>120.3</ele>
        <time>2024-05-10T15:49:32Z</time>
      </trkpt>
      <trkpt lat="43.20793" lon="2.31087">
        <ele>120.3</ele>
        <time>2024-05-10T15:49:33Z</time>
      </trkpt>
      <trkpt lat="43.20793" lon="2.31087">
        <ele>120.3</ele>
        <time>2024-05-10T15:49:34Z</time>
      </trkpt>
      <trkpt lat="43.20793" lon="2.31087">
        <ele>120.3</ele>
        <time>2024-05-10T15:49:35Z</time>
      </trkpt>
      <trkpt lat="43.20793" lon="2.31087">
        <ele>120.3</ele>
        <time>2024-05-10T15:49:36Z</time>
      </trkpt>
      <trkpt lat="43.20793" lon="2.31087">
        <ele>120.3</ele>
        <time>2024-05-10T15:49:37Z</time>
      </trkpt>
      <trkpt lat="43.20794" lon="2.31087">
        <ele>120.3</ele>
        <time>2024-05-10T15:49:38Z</time>
      </trkpt>
      <trkpt lat="43.20794" lon="2.31087">
        <ele>120.3</ele>
        <time>2024-05-10T15:49:39Z</time>
      </trkpt>
      <trkpt lat="43.20794" lon="2.31087">
        <ele>120.3</ele>
        <time>2024-05-10T15:49:40Z</time>
      </trkpt>
      <trkpt lat="43.20794" lon="2.31087">
        <ele>120.3</ele>
        <time>2024-05-10T15:49:41Z</time>
      </trkpt>
      <trkpt lat="43.20794" lon="2.31087">
        <ele>120.3</ele>
        <time>2024-05-10T15:49:42Z</time>
      </trkpt>
      <trkpt lat="43.20794" lon="2.31087">
        <ele>120.3</ele>
        <time>2024-05-10T15:49:43Z</time>
      </trkpt>
      <trkpt lat="43.20794" lon="2.31087">
        <ele>120.3</ele>
        <time>2024-05-10T15:49:44Z</time>
      </trkpt>
      <trkpt lat="43.20779" lon="2.31075">
        <ele>121</ele>
        <time>2024-05-10T15:56:40Z</time>
      </trkpt>
      <trkpt lat="43.20787" lon="2.3108">
        <ele>120.7</ele>
        <time>2024-05-10T15:56:41Z</time>
      </trkpt>
      <trkpt lat="43.20786" lon="2.31087">
        <ele>120.6</ele>
        <time>2024-05-10T15:56:42Z</time>
      </trkpt>
      <trkpt lat="43.20789" lon="2.31075">
        <ele>120.7</ele>
        <time>2024-05-10T15:56:43Z</time>
      </trkpt>
      <trkpt lat="43.2079" lon="2.3105">
        <ele>121</ele>
        <time>2024-05-10T15:56:44Z</time>
      </trkpt>
      <trkpt lat="43.2079" lon="2.31051">
        <ele>121</ele>
        <time>2024-05-10T15:56:45Z</time>
      </trkpt>
      <trkpt lat="43.2079" lon="2.31056">
        <ele>121</ele>
        <time>2024-05-10T15:56:46Z</time>
      </trkpt>
      <trkpt lat="43.2079" lon="2.31059">
        <ele>120.9</ele>
        <time>2024-05-10T15:56:47Z</time>
      </trkpt>
      <trkpt lat="43.2079" lon="2.31062">
        <ele>120.9</ele>
        <time>2024-05-10T15:56:48Z</time>
      </trkpt>
      <trkpt lat="43.2079" lon="2.31063">
        <ele>120.9</ele>
        <time>2024-05-10T15:56:49Z</time>
      </trkpt>
      <trkpt lat="43.2079" lon="2.31064">
        <ele>120.9</ele>
        <time>2024-05-10T15:56:50Z</time>
      </trkpt>
      <trkpt lat="43.2079" lon="2.31064">
        <ele>120.9</ele>
        <time>2024-05-10T15:56:51Z</time>
      </trkpt>
      <trkpt lat="43.2079" lon="2.31063">
        <ele>120.9</ele>
        <time>2024-05-10T15:56:52Z</time>
      </trkpt>
      <trkpt lat="43.20789" lon="2.31062">
        <ele>120.9</ele>
        <time>2024-05-10T15:56:53Z</time>
      </trkpt>
      <trkpt lat="43.2079" lon="2.31061">
        <ele>120.9</ele>
        <time>2024-05-10T15:56:54Z</time>
      </trkpt>
      <trkpt lat="43.2079" lon="2.31059">
        <ele>120.9</ele>
        <time>2024-05-10T15:56:55Z</time>
      </trkpt>
      <trkpt lat="43.20792" lon="2.31056">
        <ele>121</ele>
        <time>2024-05-10T15:56:56Z</time>
      </trkpt>
      <trkpt lat="43.20793" lon="2.31054">
        <ele>121</ele>
        <time>2024-05-10T15:56:57Z</time>
      </trkpt>
      <trkpt lat="43.20795" lon="2.3105">
        <ele>121</ele>
        <time>2024-05-10T15:56:58Z</time>
      </trkpt>
      <trkpt lat="43.20797" lon="2.31046">
        <ele>121</ele>
        <time>2024-05-10T15:56:59Z</time>
      </trkpt>
      <trkpt lat="43.20799" lon="2.31043">
        <ele>121</ele>
        <time>2024-05-10T15:57:00Z</time>
      </trkpt>
      <trkpt lat="43.20801" lon="2.31039">
        <ele>121</ele>
        <time>2024-05-10T15:57:01Z</time>
      </trkpt>
      <trkpt lat="43.20803" lon="2.31035">
        <ele>121</ele>
        <time>2024-05-10T15:57:02Z</time>
      </trkpt>
      <trkpt lat="43.20805" lon="2.31031">
        <ele>121</ele>
        <time>2024-05-10T15:57:03Z</time>
      </trkpt>
      <trkpt lat="43.20807" lon="2.31027">
        <ele>120.9</ele>
        <time>2024-05-10T15:57:04Z</time>
      </trkpt>
      <trkpt lat="43.20809" lon="2.31023">
        <ele>120.9</ele>
        <time>2024-05-10T15:57:05Z</time>
      </trkpt>
      <trkpt lat="43.2081" lon="2.31019">
        <ele>120.9</ele>
        <time>2024-05-10T15:57:06Z</time>
      </trkpt>
      <trkpt lat="43.20809" lon="2.31016">
        <ele>120.9</ele>
        <time>2024-05-10T15:57:07Z</time>
      </trkpt>
      <trkpt lat="43.20807" lon="2.31014">
        <ele>121</ele>
        <time>2024-05-10T15:57:08Z</time>
      </trkpt>
      <trkpt lat="43.20804" lon="2.31013">
        <ele>121</ele>
        <time>2024-05-10T15:57:09Z</time>
      </trkpt>
      <trkpt lat="43.20801" lon="2.31015">
        <ele>121.1</ele>
        <time>2024-05-10T15:57:10Z</time>
      </trkpt>
      <trkpt lat="43.20798" lon="2.31019">
        <ele>121.1</ele>
        <time>2024-05-10T15:57:11Z</time>
      </trkpt>
      <trkpt lat="43.20797" lon="2.31023">
        <ele>121.1</ele>
        <time>2024-05-10T15:57:12Z</time>
      </trkpt>
      <trkpt lat="43.20795" lon="2.31028">
        <ele>121</ele>
        <time>2024-05-10T15:57:13Z</time>
      </trkpt>
      <trkpt lat="43.20794" lon="2.31032">
        <ele>121</ele>
        <time>2024-05-10T15:57:14Z</time>
      </trkpt>
      <trkpt lat="43.20792" lon="2.31036">
        <ele>121</ele>
        <time>2024-05-10T15:57:15Z</time>
      </trkpt>
      <trkpt lat="43.20791" lon="2.3104">
        <ele>121</ele>
        <time>2024-05-10T15:57:16Z</time>
      </trkpt>
      <trkpt lat="43.20789" lon="2.31043">
        <ele>121</ele>
        <time>2024-05-10T15:57:17Z</time>
      </trkpt>
      <trkpt lat="43.20788" lon="2.31047">
        <ele>121</ele>
        <time>2024-05-10T15:57:18Z</time>
      </trkpt>
      <trkpt lat="43.20787" lon="2.31051">
        <ele>121</ele>
        <time>2024-05-10T15:57:19Z</time>
      </trkpt>
      <trkpt lat="43.20786" lon="2.31055">
        <ele>121</ele>
        <time>2024-05-10T15:57:20Z</time>
      </trkpt>
      <trkpt lat="43.20785" lon="2.31059">
        <ele>121</ele>
        <time>2024-05-10T15:57:21Z</time>
      </trkpt>
      <trkpt lat="43.20784" lon="2.31063">
        <ele>120.9</ele>
        <time>2024-05-10T15:57:22Z</time>
      </trkpt>
      <trkpt lat="43.20782" lon="2.31066">
        <ele>120.9</ele>
        <time>2024-05-10T15:57:23Z</time>
      </trkpt>
      <trkpt lat="43.2078" lon="2.31068">
        <ele>121</ele>
        <time>2024-05-10T15:57:24Z</time>
      </trkpt>
      <trkpt lat="43.20777" lon="2.31068">
        <ele>121</ele>
        <time>2024-05-10T15:57:25Z</time>
      </trkpt>
      <trkpt lat="43.20775" lon="2.31066">
        <ele>121</ele>
        <time>2024-05-10T15:57:26Z</time>
      </trkpt>
      <trkpt lat="43.20773" lon="2.31063">
        <ele>121</ele>
        <time>2024-05-10T15:57:27Z</time>
      </trkpt>
      <trkpt lat="43.20773" lon="2.31059">
        <ele>121</ele>
        <time>2024-05-10T15:57:28Z</time>
      </trkpt>
      <trkpt lat="43.20773" lon="2.31056">
        <ele>121</ele>
        <time>2024-05-10T15:57:29Z</time>
      </trkpt>
      <trkpt lat="43.20773" lon="2.31054">
        <ele>121</ele>
        <time>2024-05-10T15:57:30Z</time>
      </trkpt>
      <trkpt lat="43.20774" lon="2.31052">
        <ele>121</ele>
        <time>2024-05-10T15:57:31Z</time>
      </trkpt>
      <trkpt lat="43.20774" lon="2.31051">
        <ele>121</ele>
        <time>2024-05-10T15:57:32Z</time>
      </trkpt>
      <trkpt lat="43.20775" lon="2.31051">
        <ele>121</ele>
        <time>2024-05-10T15:57:33Z</time>
      </trkpt>
      <trkpt lat="43.20776" lon="2.3105">
        <ele>121</ele>
        <time>2024-05-10T15:57:34Z</time>
      </trkpt>
      <trkpt lat="43.20777" lon="2.3105">
        <ele>121</ele>
        <time>2024-05-10T15:57:35Z</time>
      </trkpt>
      <trkpt lat="43.20778" lon="2.3105">
        <ele>121</ele>
        <time>2024-05-10T15:57:36Z</time>
      </trkpt>
      <trkpt lat="43.20779" lon="2.31049">
        <ele>121</ele>
        <time>2024-05-10T15:57:37Z</time>
      </trkpt>
      <trkpt lat="43.20779" lon="2.31049">
        <ele>121</ele>
        <time>2024-05-10T15:57:38Z</time>
      </trkpt>
      <trkpt lat="43.2078" lon="2.31048">
        <ele>121</ele>
        <time>2024-05-10T15:57:39Z</time>
      </trkpt>
      <trkpt lat="43.20781" lon="2.31048">
        <ele>121</ele>
        <time>2024-05-10T15:57:40Z</time>
      </trkpt>
      <trkpt lat="43.20782" lon="2.31048">
        <ele>121</ele>
        <time>2024-05-10T15:57:41Z</time>
      </trkpt>
      <trkpt lat="43.20782" lon="2.31048">
        <ele>121</ele>
        <time>2024-05-10T15:57:42Z</time>
      </trkpt>
      <trkpt lat="43.20783" lon="2.31048">
        <ele>121</ele>
        <time>2024-05-10T15:57:43Z</time>
      </trkpt>
      <trkpt lat="43.20783" lon="2.31048">
        <ele>121</ele>
        <time>2024-05-10T15:57:44Z</time>
      </trkpt>
      <trkpt lat="43.20783" lon="2.31048">
        <ele>121</ele>
        <time>2024-05-10T15:57:45Z</time>
      </trkpt>
      <trkpt lat="43.20784" lon="2.31048">
        <ele>121</ele>
        <time>2024-05-10T15:57:46Z</time>
      </trkpt>
      <trkpt lat="43.20784" lon="2.31048">
        <ele>121</ele>
        <time>2024-05-10T15:57:47Z</time>
      </trkpt>
      <trkpt lat="43.20784" lon="2.31047">
        <ele>121</ele>
        <time>2024-05-10T15:57:48Z</time>
      </trkpt>
      <trkpt lat="43.20784" lon="2.31047">
        <ele>121</ele>
        <time>2024-05-10T15:57:49Z</time>
      </trkpt>
      <trkpt lat="43.20784" lon="2.31047">
        <ele>121</ele>
        <time>2024-05-10T15:57:50Z</time>
      </trkpt>
      <trkpt lat="43.20784" lon="2.31048">
        <ele>121</ele>
        <time>2024-05-10T15:57:51Z</time>
      </trkpt>
      <trkpt lat="43.20784" lon="2.31048">
        <ele>121</ele>
        <time>2024-05-10T15:57:52Z</time>
      </trkpt>
      <trkpt lat="43.20784" lon="2.31048">
        <ele>121</ele>
        <time>2024-05-10T15:57:53Z</time>
      </trkpt>
      <trkpt lat="43.20784" lon="2.31048">
        <ele>121</ele>
        <time>2024-05-10T15:57:54Z</time>
      </trkpt>
      <trkpt lat="43.20784" lon="2.31048">
        <ele>121</ele>
        <time>2024-05-10T15:57:55Z</time>
      </trkpt>
      <trkpt lat="43.20784" lon="2.31048">
        <ele>121</ele>
        <time>2024-05-10T15:57:56Z</time>
      </trkpt>
      <trkpt lat="43.20784" lon="2.31048">
        <ele>121</ele>
        <time>2024-05-10T15:57:57Z</time>
      </trkpt>
      <trkpt lat="43.20784" lon="2.31048">
        <ele>121</ele>
        <time>2024-05-10T15:57:58Z</time>
      </trkpt>
      <trkpt lat="43.20784" lon="2.31048">
        <ele>121</ele>
        <time>2024-05-10T15:57:59Z</time>
      </trkpt>
      <trkpt lat="43.20784" lon="2.31048">
        <ele>121</ele>
        <time>2024-05-10T15:58:00Z</time>
      </trkpt>
      <trkpt lat="43.20784" lon="2.31048">
        <ele>121</ele>
        <time>2024-05-10T15:58:01Z</time>
      </trkpt>
      <trkpt lat="43.20784" lon="2.31048">
        <ele>121</ele>
        <time>2024-05-10T15:58:02Z</time>
      </trkpt>
      <trkpt lat="43.20784" lon="2.31048">
        <ele>121</ele>
        <time>2024-05-10T15:58:03Z</time>
      </trkpt>
      <trkpt lat="43.20784" lon="2.31048">
        <ele>121</ele>
        <time>2024-05-10T15:58:04Z</time>
      </trkpt>
      <trkpt lat="43.20785" lon="2.31047">
        <ele>121</ele>
        <time>2024-05-10T15:58:05Z</time>
      </trkpt>
      <trkpt lat="43.20785" lon="2.31047">
        <ele>121</ele>
        <time>2024-05-10T15:58:06Z</time>
      </trkpt>
      <trkpt lat="43.20785" lon="2.31047">
        <ele>121</ele>
        <time>2024-05-10T15:58:07Z</time>
      </trkpt>
      <trkpt lat="43.20785" lon="2.31047">
        <ele>121</ele>
        <time>2024-05-10T15:58:08Z</time>
      </trkpt>
      <trkpt lat="43.20786" lon="2.31047">
        <ele>121</ele>
        <time>2024-05-10T15:58:09Z</time>
      </trkpt>
      <trkpt lat="43.20786" lon="2.31047">
        <ele>121</ele>
        <time>2024-05-10T15:58:10Z</time>
      </trkpt>
      <trkpt lat="43.20786" lon="2.31047">
        <ele>121</ele>
        <time>2024-05-10T15:58:11Z</time>
      </trkpt>
      <trkpt lat="43.20786" lon="2.31047">
        <ele>121</ele>
        <time>2024-05-10T15:58:12Z</time>
      </trkpt>
      <trkpt lat="43.20786" lon="2.31047">
        <ele>121</ele>
        <time>2024-05-10T15:58:13Z</time>
      </trkpt>
      <trkpt lat="43.20786" lon="2.31048">
        <ele>121</ele>
        <time>2024-05-10T15:58:14Z</time>
      </trkpt>
      <trkpt lat="43.20786" lon="2.31048">
        <ele>121</ele>
        <time>2024-05-10T15:58:15Z</time>
      </trkpt>
      <trkpt lat="43.20786" lon="2.31048">
        <ele>121</ele>
        <time>2024-05-10T15:58:16Z</time>
      </trkpt>
      <trkpt lat="43.20787" lon="2.31048">
        <ele>121</ele>
        <time>2024-05-10T15:58:17Z</time>
      </trkpt>
      <trkpt lat="43.20787" lon="2.31048">
        <ele>121</ele>
        <time>2024-05-10T15:58:18Z</time>
      </trkpt>
      <trkpt lat="43.20787" lon="2.31048">
        <ele>121</ele>
        <time>2024-05-10T15:58:19Z</time>
      </trkpt>
      <trkpt lat="43.20787" lon="2.31048">
        <ele>121</ele>
        <time>2024-05-10T15:58:20Z</time>
      </trkpt>
      <trkpt lat="43.20787" lon="2.31048">
        <ele>121</ele>
        <time>2024-05-10T15:58:21Z</time>
      </trkpt>
      <trkpt lat="43.20787" lon="2.31048">
        <ele>121</ele>
        <time>2024-05-10T15:58:22Z</time>
      </trkpt>
      <trkpt lat="43.20787" lon="2.31048">
        <ele>121</ele>
        <time>2024-05-10T15:58:23Z</time>
      </trkpt>
      <trkpt lat="43.20787" lon="2.31048">
        <ele>121</ele>
        <time>2024-05-10T15:58:24Z</time>
      </trkpt>
      <trkpt lat="43.20787" lon="2.31048">
        <ele>121</ele>
        <time>2024-05-10T15:58:25Z</time>
      </trkpt>
      <trkpt lat="43.20787" lon="2.31048">
        <ele>121</ele>
        <time>2024-05-10T15:58:26Z</time>
      </trkpt>
      <trkpt lat="43.20787" lon="2.31048">
        <ele>121</ele>
        <time>2024-05-10T15:58:27Z</time>
      </trkpt>
      <trkpt lat="43.20787" lon="2.31048">
        <ele>121</ele>
        <time>2024-05-10T15:58:28Z</time>
      </trkpt>
      <trkpt lat="43.20787" lon="2.31048">
        <ele>121</ele>
        <time>2024-05-10T15:58:29Z</time>
      </trkpt>
      <trkpt lat="43.20787" lon="2.31048">
        <ele>121</ele>
        <time>2024-05-10T15:58:30Z</time>
      </trkpt>
      <trkpt lat="43.20787" lon="2.31048">
        <ele>121</ele>
        <time>2024-05-10T15:58:31Z</time>
      </trkpt>
      <trkpt lat="43.20787" lon="2.31048">
        <ele>121</ele>
        <time>2024-05-10T15:58:32Z</time>
      </trkpt>
      <trkpt lat="43.20787" lon="2.31048">
        <ele>121</ele>
        <time>2024-05-10T15:58:33Z</time>
      </trkpt>
      <trkpt lat="43.20787" lon="2.31048">
        <ele>121</ele>
        <time>2024-05-10T15:58:34Z</time>
      </trkpt>
      <trkpt lat="43.20787" lon="2.31048">
        <ele>121</ele>
        <time>2024-05-10T15:58:35Z</time>
      </trkpt>
      <trkpt lat="43.20787" lon="2.31048">
        <ele>121</ele>
        <time>2024-05-10T15:58:36Z</time>
      </trkpt>
      <trkpt lat="43.20787" lon="2.31048">
        <ele>121</ele>
        <time>2024-05-10T15:58:37Z</time>
      </trkpt>
      <trkpt lat="43.20787" lon="2.31048">
        <ele>121</ele>
        <time>2024-05-10T15:58:38Z</time>
      </trkpt>
      <trkpt lat="43.20787" lon="2.31048">
        <ele>121</ele>
        <time>2024-05-10T15:58:39Z</time>
      </trkpt>
      <trkpt lat="43.20787" lon="2.31048">
        <ele>121</ele>
        <time>2024-05-10T15:58:40Z</time>
      </trkpt>
      <trkpt lat="43.20787" lon="2.31048">
        <ele>121</ele>
        <time>2024-05-10T15:58:41Z</time>
      </trkpt>
      <trkpt lat="43.20787" lon="2.31048">
        <ele>121</ele>
        <time>2024-05-10T15:58:42Z</time>
      </trkpt>
      <trkpt lat="43.20787" lon="2.31048">
        <ele>121</ele>
        <time>2024-05-10T15:58:43Z</time>
      </trkpt>
      <trkpt lat="43.20787" lon="2.31048">
        <ele>121</ele>
        <time>2024-05-10T15:58:44Z</time>
      </trkpt>
      <trkpt lat="43.20787" lon="2.31048">
        <ele>121</ele>
        <time>2024-05-10T15:58:45Z</time>
      </trkpt>
      <trkpt lat="43.20787" lon="2.31048">
        <ele>121</ele>
        <time>2024-05-10T15:58:46Z</time>
      </trkpt>
      <trkpt lat="43.20787" lon="2.31048">
        <ele>121</ele>
        <time>2024-05-10T15:58:47Z</time>
      </trkpt>
      <trkpt lat="43.20787" lon="2.31048">
        <ele>121</ele>
        <time>2024-05-10T15:58:48Z</time>
      </trkpt>
      <trkpt lat="43.20787" lon="2.31048">
        <ele>121</ele>
        <time>2024-05-10T15:58:49Z</time>
      </trkpt>
      <trkpt lat="43.20787" lon="2.31048">
        <ele>121</ele>
        <time>2024-05-10T15:58:50Z</time>
      </trkpt>
      <trkpt lat="43.20787" lon="2.31048">
        <ele>121</ele>
        <time>2024-05-10T15:58:51Z</time>
      </trkpt>
      <trkpt lat="43.20787" lon="2.31048">
        <ele>121</ele>
        <time>2024-05-10T15:58:52Z</time>
      </trkpt>
      <trkpt lat="43.20787" lon="2.31048">
        <ele>121</ele>
        <time>2024-05-10T15:58:53Z</time>
      </trkpt>
      <trkpt lat="43.20787" lon="2.31048">
        <ele>121</ele>
        <time>2024-05-10T15:58:54Z</time>
      </trkpt>
      <trkpt lat="43.20787" lon="2.31048">
        <ele>121</ele>
        <time>2024-05-10T15:58:55Z</time>
      </trkpt>
      <trkpt lat="43.20787" lon="2.31048">
        <ele>121</ele>
        <time>2024-05-10T15:58:56Z</time>
      </trkpt>
      <trkpt lat="43.20787" lon="2.31048">
        <ele>121</ele>
        <time>2024-05-10T15:58:57Z</time>
      </trkpt>
      <trkpt lat="43.20787" lon="2.31048">
        <ele>121</ele>
        <time>2024-05-10T15:58:58Z</time>
      </trkpt>
      <trkpt lat="43.20787" lon="2.31048">
        <ele>121</ele>
        <time>2024-05-10T15:58:59Z</time>
      </trkpt>
      <trkpt lat="43.20787" lon="2.31048">
        <ele>121</ele>
        <time>2024-05-10T15:59:00Z</time>
      </trkpt>
      <trkpt lat="43.20787" lon="2.31048">
        <ele>121</ele>
        <time>2024-05-10T15:59:01Z</time>
      </trkpt>
      <trkpt lat="43.20787" lon="2.31048">
        <ele>121</ele>
        <time>2024-05-10T15:59:02Z</time>
      </trkpt>
      <trkpt lat="43.20787" lon="2.31048">
        <ele>121</ele>
        <time>2024-05-10T15:59:03Z</time>
      </trkpt>
      <trkpt lat="43.20787" lon="2.31048">
        <ele>121</ele>
        <time>2024-05-10T15:59:04Z</time>
      </trkpt>
      <trkpt lat="43.20787" lon="2.31048">
        <ele>121</ele>
        <time>2024-05-10T15:59:05Z</time>
      </trkpt>
      <trkpt lat="43.20787" lon="2.31048">
        <ele>121</ele>
        <time>2024-05-10T15:59:06Z</time>
      </trkpt>
      <trkpt lat="43.20787" lon="2.31048">
        <ele>121</ele>
        <time>2024-05-10T15:59:07Z</time>
      </trkpt>
      <trkpt lat="43.20787" lon="2.31048">
        <ele>121</ele>
        <time>2024-05-10T15:59:08Z</time>
      </trkpt>
      <trkpt lat="43.20787" lon="2.31048">
        <ele>121</ele>
        <time>2024-05-10T15:59:09Z</time>
      </trkpt>
      <trkpt lat="43.20787" lon="2.31048">
        <ele>121</ele>
        <time>2024-05-10T15:59:10Z</time>
      </trkpt>
      <trkpt lat="43.20787" lon="2.31048">
        <ele>121</ele>
        <time>2024-05-10T15:59:11Z</time>
      </trkpt>
      <trkpt lat="43.20787" lon="2.31048">
        <ele>121</ele>
        <time>2024-05-10T15:59:12Z</time>
      </trkpt>
      <trkpt lat="43.20787" lon="2.31048">
        <ele>121</ele>
        <time>2024-05-10T15:59:13Z</time>
      </trkpt>
      <trkpt lat="43.20787" lon="2.31048">
        <ele>121</ele>
        <time>2024-05-10T15:59:14Z</time>
      </trkpt>
      <trkpt lat="43.20787" lon="2.31048">
        <ele>121</ele>
        <time>2024-05-10T15:59:15Z</time>
      </trkpt>
      <trkpt lat="43.20787" lon="2.31048">
        <ele>121</ele>
        <time>2024-05-10T15:59:16Z</time>
      </trkpt>
      <trkpt lat="43.20787" lon="2.31048">
        <ele>121</ele>
        <time>2024-05-10T15:59:17Z</time>
      </trkpt>
      <trkpt lat="43.20787" lon="2.31048">
        <ele>121</ele>
        <time>2024-05-10T15:59:18Z</time>
      </trkpt>
      <trkpt lat="43.20787" lon="2.31048">
        <ele>121</ele>
        <time>2024-05-10T15:59:19Z</time>
      </trkpt>
      <trkpt lat="43.20787" lon="2.31048">
        <ele>121</ele>
        <time>2024-05-10T15:59:20Z</time>
      </trkpt>
      <trkpt lat="43.20787" lon="2.31048">
        <ele>121</ele>
        <time>2024-05-10T15:59:21Z</time>
      </trkpt>
      <trkpt lat="43.20787" lon="2.31048">
        <ele>121</ele>
        <time>2024-05-10T15:59:22Z</time>
      </trkpt>
      <trkpt lat="43.20787" lon="2.31048">
        <ele>121</ele>
        <time>2024-05-10T15:59:23Z</time>
      </trkpt>
      <trkpt lat="43.20787" lon="2.31048">
        <ele>121</ele>
        <time>2024-05-10T15:59:24Z</time>
      </trkpt>
      <trkpt lat="43.20787" lon="2.31048">
        <ele>121</ele>
        <time>2024-05-10T15:59:25Z</time>
      </trkpt>
      <trkpt lat="43.20787" lon="2.31048">
        <ele>121</ele>
        <time>2024-05-10T15:59:26Z</time>
      </trkpt>
      <trkpt lat="43.20787" lon="2.31048">
        <ele>121</ele>
        <time>2024-05-10T15:59:27Z</time>
      </trkpt>
      <trkpt lat="43.20787" lon="2.31048">
        <ele>121</ele>
        <time>2024-05-10T15:59:28Z</time>
      </trkpt>
      <trkpt lat="43.20787" lon="2.31048">
        <ele>121</ele>
        <time>2024-05-10T15:59:29Z</time>
      </trkpt>
      <trkpt lat="43.20786" lon="2.31048">
        <ele>121</ele>
        <time>2024-05-10T15:59:30Z</time>
      </trkpt>
      <trkpt lat="43.20786" lon="2.31048">
        <ele>121</ele>
        <time>2024-05-10T15:59:31Z</time>
      </trkpt>
      <trkpt lat="43.20786" lon="2.31048">
        <ele>121</ele>
        <time>2024-05-10T15:59:32Z</time>
      </trkpt>
      <trkpt lat="43.20786" lon="2.31048">
        <ele>121</ele>
        <time>2024-05-10T15:59:33Z</time>
      </trkpt>
      <trkpt lat="43.20786" lon="2.31048">
        <ele>121</ele>
        <time>2024-05-10T15:59:34Z</time>
      </trkpt>
      <trkpt lat="43.20786" lon="2.31048">
        <ele>121</ele>
        <time>2024-05-10T15:59:35Z</time>
      </trkpt>
      <trkpt lat="43.20786" lon="2.31048">
        <ele>121</ele>
        <time>2024-05-10T15:59:36Z</time>
      </trkpt>
      <trkpt lat="43.20786" lon="2.31048">
        <ele>121</ele>
        <time>2024-05-10T15:59:37Z</time>
      </trkpt>
      <trkpt lat="43.20786" lon="2.31048">
        <ele>121</ele>
        <time>2024-05-10T15:59:38Z</time>
      </trkpt>
      <trkpt lat="43.20786" lon="2.31048">
        <ele>121</ele>
        <time>2024-05-10T15:59:39Z</time>
      </trkpt>
      <trkpt lat="43.20786" lon="2.31048">
        <ele>121</ele>
        <time>2024-05-10T15:59:40Z</time>
      </trkpt>
      <trkpt lat="43.20786" lon="2.31048">
        <ele>121</ele>
        <time>2024-05-10T15:59:41Z</time>
      </trkpt>
      <trkpt lat="43.20786" lon="2.31048">
        <ele>121</ele>
        <time>2024-05-10T15:59:42Z</time>
      </trkpt>
      <trkpt lat="43.20786" lon="2.31048">
        <ele>121</ele>
        <time>2024-05-10T15:59:43Z</time>
      </trkpt>
      <trkpt lat="43.20786" lon="2.31048">
        <ele>121</ele>
        <time>2024-05-10T15:59:44Z</time>
      </trkpt>
      <trkpt lat="43.20786" lon="2.31048">
        <ele>121</ele>
        <time>2024-05-10T15:59:45Z</time>
      </trkpt>
      <trkpt lat="43.20786" lon="2.31048">
        <ele>121</ele>
        <time>2024-05-10T15:59:46Z</time>
      </trkpt>
      <trkpt lat="43.20786" lon="2.31048">
        <ele>121</ele>
        <time>2024-05-10T15:59:47Z</time>
      </trkpt>
      <trkpt lat="43.20786" lon="2.31048">
        <ele>121</ele>
        <time>2024-05-10T15:59:48Z</time>
      </trkpt>
      <trkpt lat="43.20787" lon="2.31048">
        <ele>121</ele>
        <time>2024-05-10T15:59:49Z</time>
      </trkpt>
      <trkpt lat="43.20787" lon="2.31048">
        <ele>121</ele>
        <time>2024-05-10T15:59:50Z</time>
      </trkpt>
      <trkpt lat="43.20787" lon="2.31048">
        <ele>121</ele>
        <time>2024-05-10T15:59:51Z</time>
      </trkpt>
      <trkpt lat="43.20787" lon="2.31048">
        <ele>121</ele>
        <time>2024-05-10T15:59:52Z</time>
      </trkpt>
      <trkpt lat="43.20787" lon="2.31048">
        <ele>121</ele>
        <time>2024-05-10T15:59:53Z</time>
      </trkpt>
      <trkpt lat="43.20787" lon="2.31048">
        <ele>121</ele>
        <time>2024-05-10T15:59:54Z</time>
      </trkpt>
      <trkpt lat="43.20786" lon="2.31048">
        <ele>121</ele>
        <time>2024-05-10T15:59:55Z</time>
      </trkpt>
      <trkpt lat="43.20786" lon="2.31048">
        <ele>121</ele>
        <time>2024-05-10T15:59:56Z</time>
      </trkpt>
      <trkpt lat="43.20786" lon="2.31048">
        <ele>121</ele>
        <time>2024-05-10T15:59:57Z</time>
      </trkpt>
      <trkpt lat="43.20786" lon="2.31048">
        <ele>121</ele>
        <time>2024-05-10T15:59:58Z</time>
      </trkpt>
      <trkpt lat="43.20786" lon="2.31048">
        <ele>121</ele>
        <time>2024-05-10T15:59:59Z</time>
      </trkpt>
      <trkpt lat="43.20786" lon="2.31048">
        <ele>121</ele>
        <time>2024-05-10T16:00:00Z</time>
      </trkpt>
      <trkpt lat="43.20786" lon="2.31048">
        <ele>121</ele>
        <time>2024-05-10T16:00:01Z</time>
      </trkpt>
      <trkpt lat="43.20786" lon="2.31048">
        <ele>121</ele>
        <time>2024-05-10T16:00:02Z</time>
      </trkpt>
      <trkpt lat="43.20786" lon="2.31048">
        <ele>121</ele>
        <time>2024-05-10T16:00:03Z</time>
      </trkpt>
      <trkpt lat="43.20786" lon="2.31048">
        <ele>121</ele>
        <time>2024-05-10T16:00:04Z</time>
      </trkpt>
      <trkpt lat="43.20787" lon="2.31048">
        <ele>121</ele>
        <time>2024-05-10T16:00:05Z</time>
      </trkpt>
      <trkpt lat="43.20787" lon="2.31048">
        <ele>121</ele>
        <time>2024-05-10T16:00:06Z</time>
      </trkpt>
      <trkpt lat="43.20787" lon="2.31048">
        <ele>121</ele>
        <time>2024-05-10T16:00:07Z</time>
      </trkpt>
      <trkpt lat="43.20786" lon="2.31048">
        <ele>121</ele>
        <time>2024-05-10T16:00:08Z</time>
      </trkpt>
      <trkpt lat="43.20786" lon="2.31048">
        <ele>121</ele>
        <time>2024-05-10T16:00:09Z</time>
      </trkpt>
      <trkpt lat="43.20787" lon="2.31048">
        <ele>121</ele>
        <time>2024-05-10T16:00:10Z</time>
      </trkpt>
      <trkpt lat="43.20787" lon="2.31048">
        <ele>121</ele>
        <time>2024-05-10T16:00:11Z</time>
      </trkpt>
      <trkpt lat="43.20787" lon="2.31048">
        <ele>121</ele>
        <time>2024-05-10T16:00:12Z</time>
      </trkpt>
      <trkpt lat="43.20787" lon="2.31048">
        <ele>121</ele>
        <time>2024-05-10T16:00:13Z</time>
      </trkpt>
      <trkpt lat="43.20787" lon="2.31048">
        <ele>121</ele>
        <time>2024-05-10T16:00:14Z</time>
      </trkpt>
      <trkpt lat="43.20787" lon="2.31048">
        <ele>121</ele>
        <time>2024-05-10T16:00:15Z</time>
      </trkpt>
      <trkpt lat="43.20787" lon="2.31048">
        <ele>121</ele>
        <time>2024-05-10T16:00:16Z</time>
      </trkpt>
      <trkpt lat="43.20787" lon="2.31048">
        <ele>121</ele>
        <time>2024-05-10T16:00:17Z</time>
      </trkpt>
      <trkpt lat="43.20787" lon="2.31048">
        <ele>121</ele>
        <time>2024-05-10T16:00:18Z</time>
      </trkpt>
      <trkpt lat="43.20787" lon="2.31048">
        <ele>121</ele>
        <time>2024-05-10T16:00:19Z</time>
      </trkpt>
      <trkpt lat="43.20787" lon="2.31048">
        <ele>121</ele>
        <time>2024-05-10T16:00:20Z</time>
      </trkpt>
      <trkpt lat="43.20787" lon="2.31048">
        <ele>121</ele>
        <time>2024-05-10T16:00:21Z</time>
      </trkpt>
      <trkpt lat="43.20786" lon="2.31048">
        <ele>121</ele>
        <time>2024-05-10T16:00:22Z</time>
      </trkpt>
      <trkpt lat="43.20786" lon="2.31048">
        <ele>121</ele>
        <time>2024-05-10T16:00:23Z</time>
      </trkpt>
      <trkpt lat="43.20786" lon="2.31048">
        <ele>121</ele>
        <time>2024-05-10T16:00:24Z</time>
      </trkpt>
      <trkpt lat="43.20786" lon="2.31048">
        <ele>121</ele>
        <time>2024-05-10T16:00:25Z</time>
      </trkpt>
      <trkpt lat="43.20786" lon="2.31048">
        <ele>121</ele>
        <time>2024-05-10T16:00:26Z</time>
      </trkpt>
      <trkpt lat="43.20786" lon="2.31048">
        <ele>121</ele>
        <time>2024-05-10T16:00:27Z</time>
      </trkpt>
      <trkpt lat="43.20786" lon="2.31048">
        <ele>121</ele>
        <time>2024-05-10T16:00:28Z</time>
      </trkpt>
      <trkpt lat="43.20786" lon="2.31048">
        <ele>121</ele>
        <time>2024-05-10T16:00:29Z</time>
      </trkpt>
      <trkpt lat="43.20786" lon="2.31048">
        <ele>121</ele>
        <time>2024-05-10T16:00:30Z</time>
      </trkpt>
      <trkpt lat="43.20786" lon="2.31048">
        <ele>121</ele>
        <time>2024-05-10T16:00:31Z</time>
      </trkpt>
      <trkpt lat="43.20786" lon="2.31048">
        <ele>121</ele>
        <time>2024-05-10T16:00:32Z</time>
      </trkpt>
      <trkpt lat="43.20786" lon="2.31048">
        <ele>121</ele>
        <time>2024-05-10T16:00:33Z</time>
      </trkpt>
      <trkpt lat="43.20786" lon="2.31048">
        <ele>121</ele>
        <time>2024-05-10T16:00:34Z</time>
      </trkpt>
      <trkpt lat="43.20786" lon="2.31048">
        <ele>121</ele>
        <time>2024-05-10T16:00:35Z</time>
      </trkpt>
      <trkpt lat="43.20786" lon="2.31048">
        <ele>121</ele>
        <time>2024-05-10T16:00:36Z</time>
      </trkpt>
      <trkpt lat="43.20786" lon="2.31048">
        <ele>121</ele>
        <time>2024-05-10T16:00:37Z</time>
      </trkpt>
      <trkpt lat="43.20786" lon="2.31048">
        <ele>121</ele>
        <time>2024-05-10T16:00:38Z</time>
      </trkpt>
      <trkpt lat="43.20786" lon="2.31048">
        <ele>121</ele>
        <time>2024-05-10T16:00:39Z</time>
      </trkpt>
      <trkpt lat="43.20786" lon="2.31048">
        <ele>121</ele>
        <time>2024-05-10T16:00:40Z</time>
      </trkpt>
      <trkpt lat="43.20786" lon="2.31048">
        <ele>121</ele>
        <time>2024-05-10T16:00:41Z</time>
      </trkpt>
      <trkpt lat="43.20786" lon="2.31048">
        <ele>121</ele>
        <time>2024-05-10T16:00:42Z</time>
      </trkpt>
      <trkpt lat="43.20786" lon="2.31048">
        <ele>121</ele>
        <time>2024-05-10T16:00:43Z</time>
      </trkpt>
      <trkpt lat="43.20786" lon="2.31048">
        <ele>121</ele>
        <time>2024-05-10T16:00:44Z</time>
      </trkpt>
      <trkpt lat="43.20786" lon="2.31048">
        <ele>121</ele>
        <time>2024-05-10T16:00:45Z</time>
      </trkpt>
      <trkpt lat="43.20786" lon="2.31048">
        <ele>121</ele>
        <time>2024-05-10T16:00:46Z</time>
      </trkpt>
      <trkpt lat="43.20786" lon="2.31048">
        <ele>121</ele>
        <time>2024-05-10T16:00:47Z</time>
      </trkpt>
      <trkpt lat="43.20786" lon="2.31048">
        <ele>121</ele>
        <time>2024-05-10T16:00:48Z</time>
      </trkpt>
      <trkpt lat="43.20786" lon="2.31048">
        <ele>121</ele>
        <time>2024-05-10T16:00:49Z</time>
      </trkpt>
      <trkpt lat="43.20786" lon="2.31048">
        <ele>121</ele>
        <time>2024-05-10T16:00:50Z</time>
      </trkpt>
      <trkpt lat="43.20786" lon="2.31048">
        <ele>121</ele>
        <time>2024-05-10T16:00:51Z</time>
      </trkpt>
      <trkpt lat="43.20786" lon="2.31048">
        <ele>121</ele>
        <time>2024-05-10T16:00:52Z</time>
      </trkpt>
      <trkpt lat="43.20786" lon="2.31048">
        <ele>121</ele>
        <time>2024-05-10T16:00:53Z</time>
      </trkpt>
      <trkpt lat="43.20786" lon="2.31048">
        <ele>121</ele>
        <time>2024-05-10T16:00:54Z</time>
      </trkpt>
      <trkpt lat="43.20786" lon="2.31048">
        <ele>121</ele>
        <time>2024-05-10T16:00:55Z</time>
      </trkpt>
      <trkpt lat="43.20786" lon="2.31048">
        <ele>121</ele>
        <time>2024-05-10T16:00:56Z</time>
      </trkpt>
      <trkpt lat="43.20786" lon="2.31048">
        <ele>121</ele>
        <time>2024-05-10T16:00:57Z</time>
      </trkpt>
      <trkpt lat="43.20786" lon="2.31048">
        <ele>121</ele>
        <time>2024-05-10T16:00:58Z</time>
      </trkpt>
      <trkpt lat="43.20786" lon="2.31048">
        <ele>121</ele>
        <time>2024-05-10T16:00:59Z</time>
      </trkpt>
      <trkpt lat="43.20786" lon="2.31048">
        <ele>121</ele>
        <time>2024-05-10T16:01:00Z</time>
      </trkpt>
      <trkpt lat="43.20786" lon="2.31048">
        <ele>121</ele>
        <time>2024-05-10T16:01:01Z</time>
      </trkpt>
      <trkpt lat="43.20786" lon="2.31048">
        <ele>121</ele>
        <time>2024-05-10T16:01:02Z</time>
      </trkpt>
      <trkpt lat="43.20786" lon="2.31048">
        <ele>121</ele>
        <time>2024-05-10T16:01:03Z</time>
      </trkpt>
      <trkpt lat="43.20786" lon="2.31048">
        <ele>121</ele>
        <time>2024-05-10T16:01:04Z</time>
      </trkpt>
      <trkpt lat="43.20786" lon="2.31048">
        <ele>121</ele>
        <time>2024-05-10T16:01:05Z</time>
      </trkpt>
      <trkpt lat="43.20786" lon="2.31048">
        <ele>121</ele>
        <time>2024-05-10T16:01:06Z</time>
      </trkpt>
      <trkpt lat="43.20786" lon="2.31048">
        <ele>121</ele>
        <time>2024-05-10T16:01:07Z</time>
      </trkpt>
      <trkpt lat="43.20786" lon="2.31048">
        <ele>121</ele>
        <time>2024-05-10T16:01:08Z</time>
      </trkpt>
      <trkpt lat="43.20786" lon="2.31048">
        <ele>121</ele>
        <time>2024-05-10T16:01:09Z</time>
      </trkpt>
      <trkpt lat="43.20786" lon="2.31048">
        <ele>121</ele>
        <time>2024-05-10T16:01:10Z</time>
      </trkpt>
      <trkpt lat="43.20786" lon="2.31048">
        <ele>121</ele>
        <time>2024-05-10T16:01:11Z</time>
      </trkpt>
      <trkpt lat="43.20786" lon="2.31048">
        <ele>121</ele>
        <time>2024-05-10T16:01:12Z</time>
      </trkpt>
      <trkpt lat="43.20786" lon="2.31048">
        <ele>121</ele>
        <time>2024-05-10T16:01:13Z</time>
      </trkpt>
      <trkpt lat="43.20786" lon="2.31048">
        <ele>121</ele>
        <time>2024-05-10T16:01:14Z</time>
      </trkpt>
      <trkpt lat="43.20786" lon="2.31048">
        <ele>121</ele>
        <time>2024-05-10T16:01:15Z</time>
      </trkpt>
      <trkpt lat="43.20786" lon="2.31048">
        <ele>121</ele>
        <time>2024-05-10T16:01:16Z</time>
      </trkpt>
      <trkpt lat="43.20786" lon="2.31048">
        <ele>121</ele>
        <time>2024-05-10T16:01:17Z</time>
      </trkpt>
      <trkpt lat="43.20786" lon="2.31048">
        <ele>121</ele>
        <time>2024-05-10T16:01:18Z</time>
      </trkpt>
      <trkpt lat="43.20786" lon="2.31048">
        <ele>121</ele>
        <time>2024-05-10T16:01:19Z</time>
      </trkpt>
      <trkpt lat="43.20786" lon="2.31048">
        <ele>121</ele>
        <time>2024-05-10T16:01:20Z</time>
      </trkpt>
      <trkpt lat="43.20786" lon="2.31048">
        <ele>121</ele>
        <time>2024-05-10T16:01:21Z</time>
      </trkpt>
      <trkpt lat="43.20786" lon="2.31048">
        <ele>121</ele>
        <time>2024-05-10T16:01:22Z</time>
      </trkpt>
      <trkpt lat="43.20786" lon="2.31048">
        <ele>121</ele>
        <time>2024-05-10T16:01:23Z</time>
      </trkpt>
      <trkpt lat="43.20786" lon="2.31048">
        <ele>121</ele>
        <time>2024-05-10T16:01:24Z</time>
      </trkpt>
      <trkpt lat="43.20786" lon="2.31048">
        <ele>121</ele>
        <time>2024-05-10T16:01:25Z</time>
      </trkpt>
      <trkpt lat="43.20786" lon="2.31048">
        <ele>121</ele>
        <time>2024-05-10T16:01:26Z</time>
      </trkpt>
      <trkpt lat="43.20786" lon="2.31048">
        <ele>121</ele>
        <time>2024-05-10T16:01:27Z</time>
      </trkpt>
      <trkpt lat="43.20786" lon="2.31048">
        <ele>121</ele>
        <time>2024-05-10T16:01:28Z</time>
      </trkpt>
      <trkpt lat="43.20786" lon="2.31048">
        <ele>121</ele>
        <time>2024-05-10T16:01:29Z</time>
      </trkpt>
      <trkpt lat="43.20786" lon="2.31048">
        <ele>121</ele>
        <time>2024-05-10T16:01:30Z</time>
      </trkpt>
      <trkpt lat="43.20786" lon="2.31048">
        <ele>121</ele>
        <time>2024-05-10T16:01:31Z</time>
      </trkpt>
      <trkpt lat="43.20786" lon="2.31048">
        <ele>121</ele>
        <time>2024-05-10T16:01:32Z</time>
      </trkpt>
      <trkpt lat="43.20786" lon="2.31048">
        <ele>121</ele>
        <time>2024-05-10T16:01:33Z</time>
      </trkpt>
      <trkpt lat="43.20786" lon="2.31048">
        <ele>121</ele>
        <time>2024-05-10T16:01:34Z</time>
      </trkpt>
      <trkpt lat="43.20786" lon="2.31048">
        <ele>121</ele>
        <time>2024-05-10T16:01:35Z</time>
      </trkpt>
      <trkpt lat="43.20786" lon="2.31048">
        <ele>121</ele>
        <time>2024-05-10T16:01:36Z</time>
      </trkpt>
      <trkpt lat="43.20786" lon="2.31048">
        <ele>121</ele>
        <time>2024-05-10T16:01:37Z</time>
      </trkpt>
      <trkpt lat="43.20786" lon="2.31048">
        <ele>121</ele>
        <time>2024-05-10T16:01:38Z</time>
      </trkpt>
      <trkpt lat="43.20786" lon="2.31048">
        <ele>121</ele>
        <time>2024-05-10T16:01:39Z</time>
      </trkpt>
      <trkpt lat="43.20786" lon="2.31048">
        <ele>121</ele>
        <time>2024-05-10T16:01:40Z</time>
      </trkpt>
      <trkpt lat="43.20786" lon="2.31048">
        <ele>121</ele>
        <time>2024-05-10T16:01:41Z</time>
      </trkpt>
      <trkpt lat="43.20786" lon="2.31048">
        <ele>121</ele>
        <time>2024-05-10T16:01:42Z</time>
      </trkpt>
      <trkpt lat="43.20786" lon="2.31048">
        <ele>121</ele>
        <time>2024-05-10T16:01:43Z</time>
      </trkpt>
      <trkpt lat="43.20786" lon="2.31048">
        <ele>121</ele>
        <time>2024-05-10T16:01:44Z</time>
      </trkpt>
      <trkpt lat="43.20786" lon="2.31048">
        <ele>121</ele>
        <time>2024-05-10T16:01:45Z</time>
      </trkpt>
      <trkpt lat="43.20786" lon="2.31048">
        <ele>121</ele>
        <time>2024-05-10T16:01:46Z</time>
      </trkpt>
      <trkpt lat="43.20786" lon="2.31048">
        <ele>121</ele>
        <time>2024-05-10T16:01:47Z</time>
      </trkpt>
      <trkpt lat="43.20786" lon="2.31048">
        <ele>121</ele>
        <time>2024-05-10T16:01:48Z</time>
      </trkpt>
      <trkpt lat="43.20786" lon="2.31048">
        <ele>121</ele>
        <time>2024-05-10T16:01:49Z</time>
      </trkpt>
      <trkpt lat="43.20786" lon="2.31048">
        <ele>121</ele>
        <time>2024-05-10T16:01:50Z</time>
      </trkpt>
      <trkpt lat="43.20786" lon="2.31048">
        <ele>121</ele>
        <time>2024-05-10T16:01:51Z</time>
      </trkpt>
      <trkpt lat="43.20786" lon="2.31048">
        <ele>121</ele>
        <time>2024-05-10T16:01:52Z</time>
      </trkpt>
      <trkpt lat="43.20786" lon="2.31048">
        <ele>121</ele>
        <time>2024-05-10T16:01:53Z</time>
      </trkpt>
      <trkpt lat="43.20786" lon="2.31048">
        <ele>121</ele>
        <time>2024-05-10T16:01:54Z</time>
      </trkpt>
      <trkpt lat="43.20786" lon="2.31048">
        <ele>121</ele>
        <time>2024-05-10T16:01:55Z</time>
      </trkpt>
      <trkpt lat="43.20786" lon="2.31048">
        <ele>121</ele>
        <time>2024-05-10T16:01:56Z</time>
      </trkpt>
      <trkpt lat="43.20786" lon="2.31048">
        <ele>121</ele>
        <time>2024-05-10T16:01:57Z</time>
      </trkpt>
      <trkpt lat="43.20786" lon="2.31048">
        <ele>121</ele>
        <time>2024-05-10T16:01:58Z</time>
      </trkpt>
      <trkpt lat="43.20786" lon="2.31048">
        <ele>121</ele>
        <time>2024-05-10T16:01:59Z</time>
      </trkpt>
      <trkpt lat="43.20786" lon="2.31048">
        <ele>121</ele>
        <time>2024-05-10T16:02:00Z</time>
      </trkpt>
      <trkpt lat="43.20786" lon="2.31048">
        <ele>121</ele>
        <time>2024-05-10T16:02:01Z</time>
      </trkpt>
      <trkpt lat="43.20786" lon="2.31048">
        <ele>121</ele>
        <time>2024-05-10T16:02:02Z</time>
      </trkpt>
      <trkpt lat="43.20786" lon="2.31048">
        <ele>121</ele>
        <time>2024-05-10T16:02:03Z</time>
      </trkpt>
      <trkpt lat="43.20786" lon="2.31048">
        <ele>121</ele>
        <time>2024-05-10T16:02:04Z</time>
      </trkpt>
      <trkpt lat="43.20786" lon="2.31048">
        <ele>121</ele>
        <time>2024-05-10T16:02:05Z</time>
      </trkpt>
      <trkpt lat="43.20786" lon="2.31048">
        <ele>121</ele>
        <time>2024-05-10T16:02:06Z</time>
      </trkpt>
      <trkpt lat="43.20786" lon="2.31048">
        <ele>121</ele>
        <time>2024-05-10T16:02:07Z</time>
      </trkpt>
      <trkpt lat="43.20786" lon="2.31048">
        <ele>121</ele>
        <time>2024-05-10T16:02:08Z</time>
      </trkpt>
      <trkpt lat="43.20786" lon="2.31048">
        <ele>121</ele>
        <time>2024-05-10T16:02:09Z</time>
      </trkpt>
      <trkpt lat="43.20786" lon="2.31048">
        <ele>121</ele>
        <time>2024-05-10T16:02:10Z</time>
      </trkpt>
      <trkpt lat="43.20786" lon="2.31048">
        <ele>121</ele>
        <time>2024-05-10T16:02:11Z</time>
      </trkpt>
      <trkpt lat="43.20786" lon="2.31048">
        <ele>121</ele>
        <time>2024-05-10T16:02:12Z</time>
      </trkpt>
      <trkpt lat="43.20786" lon="2.31048">
        <ele>121</ele>
        <time>2024-05-10T16:02:13Z</time>
      </trkpt>
      <trkpt lat="43.20786" lon="2.31048">
        <ele>121</ele>
        <time>2024-05-10T16:02:14Z</time>
      </trkpt>
      <trkpt lat="43.20786" lon="2.31048">
        <ele>121</ele>
        <time>2024-05-10T16:02:15Z</time>
      </trkpt>
      <trkpt lat="43.20786" lon="2.31048">
        <ele>121</ele>
        <time>2024-05-10T16:02:16Z</time>
      </trkpt>
      <trkpt lat="43.20786" lon="2.31048">
        <ele>121</ele>
        <time>2024-05-10T16:02:17Z</time>
      </trkpt>
      <trkpt lat="43.20786" lon="2.31048">
        <ele>121</ele>
        <time>2024-05-10T16:02:18Z</time>
      </trkpt>
      <trkpt lat="43.20786" lon="2.31048">
        <ele>121</ele>
        <time>2024-05-10T16:02:19Z</time>
      </trkpt>
      <trkpt lat="43.20786" lon="2.31048">
        <ele>121</ele>
        <time>2024-05-10T16:02:20Z</time>
      </trkpt>
      <trkpt lat="43.20786" lon="2.31048">
        <ele>121</ele>
        <time>2024-05-10T16:02:21Z</time>
      </trkpt>
      <trkpt lat="43.20786" lon="2.31048">
        <ele>121</ele>
        <time>2024-05-10T16:02:22Z</time>
      </trkpt>
      <trkpt lat="43.20786" lon="2.31048">
        <ele>121</ele>
        <time>2024-05-10T16:02:23Z</time>
      </trkpt>
      <trkpt lat="43.20786" lon="2.31048">
        <ele>121</ele>
        <time>2024-05-10T16:02:24Z</time>
      </trkpt>
      <trkpt lat="43.20786" lon="2.31048">
        <ele>121</ele>
        <time>2024-05-10T16:02:25Z</time>
      </trkpt>
      <trkpt lat="43.20785" lon="2.31048">
        <ele>121</ele>
        <time>2024-05-10T16:02:26Z</time>
      </trkpt>
      <trkpt lat="43.20785" lon="2.31048">
        <ele>121</ele>
        <time>2024-05-10T16:02:27Z</time>
      </trkpt>
      <trkpt lat="43.20785" lon="2.31048">
        <ele>121</ele>
        <time>2024-05-10T16:02:28Z</time>
      </trkpt>
      <trkpt lat="43.20785" lon="2.31048">
        <ele>121</ele>
        <time>2024-05-10T16:02:29Z</time>
      </trkpt>
      <trkpt lat="43.20785" lon="2.31048">
        <ele>121</ele>
        <time>2024-05-10T16:02:30Z</time>
      </trkpt>
      <trkpt lat="43.20785" lon="2.31048">
        <ele>121</ele>
        <time>2024-05-10T16:02:31Z</time>
      </trkpt>
      <trkpt lat="43.20785" lon="2.31048">
        <ele>121</ele>
        <time>2024-05-10T16:02:32Z</time>
      </trkpt>
      <trkpt lat="43.20785" lon="2.31048">
        <ele>121</ele>
        <time>2024-05-10T16:02:33Z</time>
      </trkpt>
      <trkpt lat="43.20785" lon="2.31048">
        <ele>121</ele>
        <time>2024-05-10T16:02:34Z</time>
      </trkpt>
      <trkpt lat="43.20785" lon="2.31048">
        <ele>121</ele>
        <time>2024-05-10T16:02:35Z</time>
      </trkpt>
      <trkpt lat="43.20785" lon="2.31048">
        <ele>121</ele>
        <time>2024-05-10T16:02:36Z</time>
      </trkpt>
      <trkpt lat="43.20785" lon="2.31048">
        <ele>121</ele>
        <time>2024-05-10T16:02:37Z</time>
      </trkpt>
      <trkpt lat="43.20785" lon="2.31048">
        <ele>121</ele>
        <time>2024-05-10T16:02:38Z</time>
      </trkpt>
      <trkpt lat="43.20785" lon="2.31048">
        <ele>121</ele>
        <time>2024-05-10T16:02:39Z</time>
      </trkpt>
      <trkpt lat="43.20785" lon="2.31048">
        <ele>121</ele>
        <time>2024-05-10T16:02:40Z</time>
      </trkpt>
      <trkpt lat="43.20785" lon="2.31048">
        <ele>121</ele>
        <time>2024-05-10T16:02:41Z</time>
      </trkpt>
      <trkpt lat="43.20785" lon="2.31048">
        <ele>121</ele>
        <time>2024-05-10T16:02:42Z</time>
      </trkpt>
      <trkpt lat="43.20785" lon="2.31048">
        <ele>121</ele>
        <time>2024-05-10T16:02:43Z</time>
      </trkpt>
      <trkpt lat="43.20785" lon="2.31048">
        <ele>121</ele>
        <time>2024-05-10T16:02:44Z</time>
      </trkpt>
      <trkpt lat="43.20785" lon="2.31048">
        <ele>121</ele>
        <time>2024-05-10T16:02:45Z</time>
      </trkpt>
      <trkpt lat="43.20785" lon="2.31048">
        <ele>121</ele>
        <time>2024-05-10T16:02:46Z</time>
      </trkpt>
      <trkpt lat="43.20785" lon="2.31048">
        <ele>121</ele>
        <time>2024-05-10T16:02:47Z</time>
      </trkpt>
      <trkpt lat="43.20785" lon="2.31048">
        <ele>121</ele>
        <time>2024-05-10T16:02:48Z</time>
      </trkpt>
      <trkpt lat="43.20785" lon="2.31048">
        <ele>121</ele>
        <time>2024-05-10T16:02:49Z</time>
      </trkpt>
      <trkpt lat="43.20785" lon="2.31048">
        <ele>121</ele>
        <time>2024-05-10T16:02:50Z</time>
      </trkpt>
      <trkpt lat="43.20785" lon="2.31048">
        <ele>121</ele>
        <time>2024-05-10T16:02:51Z</time>
      </trkpt>
      <trkpt lat="43.20785" lon="2.31048">
        <ele>121</ele>
        <time>2024-05-10T16:02:52Z</time>
      </trkpt>
      <trkpt lat="43.20785" lon="2.31048">
        <ele>121</ele>
        <time>2024-05-10T16:02:53Z</time>
      </trkpt>
      <trkpt lat="43.20785" lon="2.31048">
        <ele>121</ele>
        <time>2024-05-10T16:02:54Z</time>
      </trkpt>
      <trkpt lat="43.20785" lon="2.31048">
        <ele>121</ele>
        <time>2024-05-10T16:02:55Z</time>
      </trkpt>
      <trkpt lat="43.20785" lon="2.31048">
        <ele>121</ele>
        <time>2024-05-10T16:02:56Z</time>
      </trkpt>
      <trkpt lat="43.20785" lon="2.31048">
        <ele>121</ele>
        <time>2024-05-10T16:02:57Z</time>
      </trkpt>
      <trkpt lat="43.20785" lon="2.31048">
        <ele>121</ele>
        <time>2024-05-10T16:02:58Z</time>
      </trkpt>
      <trkpt lat="43.20785" lon="2.31048">
        <ele>121</ele>
        <time>2024-05-10T16:02:59Z</time>
      </trkpt>
      <trkpt lat="43.20785" lon="2.31048">
        <ele>121</ele>
        <time>2024-05-10T16:03:00Z</time>
      </trkpt>
      <trkpt lat="43.20785" lon="2.31048">
        <ele>121</ele>
        <time>2024-05-10T16:03:01Z</time>
      </trkpt>
      <trkpt lat="43.20785" lon="2.31048">
        <ele>121</ele>
        <time>2024-05-10T16:03:02Z</time>
      </trkpt>
      <trkpt lat="43.20785" lon="2.31048">
        <ele>121</ele>
        <time>2024-05-10T16:03:03Z</time>
      </trkpt>
      <trkpt lat="43.20785" lon="2.31049">
        <ele>121</ele>
        <time>2024-05-10T16:03:04Z</time>
      </trkpt>
      <trkpt lat="43.20785" lon="2.31049">
        <ele>121</ele>
        <time>2024-05-10T16:03:05Z</time>
      </trkpt>
      <trkpt lat="43.20785" lon="2.31049">
        <ele>121</ele>
        <time>2024-05-10T16:03:06Z</time>
      </trkpt>
      <trkpt lat="43.20785" lon="2.31049">
        <ele>121</ele>
        <time>2024-05-10T16:03:07Z</time>
      </trkpt>
      <trkpt lat="43.20785" lon="2.31049">
        <ele>121</ele>
        <time>2024-05-10T16:03:08Z</time>
      </trkpt>
      <trkpt lat="43.20785" lon="2.31049">
        <ele>121</ele>
        <time>2024-05-10T16:03:09Z</time>
      </trkpt>
      <trkpt lat="43.20785" lon="2.31049">
        <ele>121</ele>
        <time>2024-05-10T16:03:10Z</time>
      </trkpt>
      <trkpt lat="43.20785" lon="2.31049">
        <ele>121</ele>
        <time>2024-05-10T16:03:11Z</time>
      </trkpt>
      <trkpt lat="43.20785" lon="2.31049">
        <ele>121</ele>
        <time>2024-05-10T16:03:12Z</time>
      </trkpt>
      <trkpt lat="43.20785" lon="2.31049">
        <ele>121</ele>
        <time>2024-05-10T16:03:13Z</time>
      </trkpt>
      <trkpt lat="43.20785" lon="2.31049">
        <ele>121</ele>
        <time>2024-05-10T16:03:14Z</time>
      </trkpt>
      <trkpt lat="43.20785" lon="2.31049">
        <ele>121</ele>
        <time>2024-05-10T16:03:15Z</time>
      </trkpt>
      <trkpt lat="43.20785" lon="2.31049">
        <ele>121</ele>
        <time>2024-05-10T16:03:16Z</time>
      </trkpt>
      <trkpt lat="43.20785" lon="2.31049">
        <ele>121</ele>
        <time>2024-05-10T16:03:17Z</time>
      </trkpt>
      <trkpt lat="43.20785" lon="2.31049">
        <ele>121</ele>
        <time>2024-05-10T16:03:18Z</time>
      </trkpt>
      <trkpt lat="43.20785" lon="2.31049">
        <ele>121</ele>
        <time>2024-05-10T16:03:19Z</time>
      </trkpt>
      <trkpt lat="43.20785" lon="2.31049">
        <ele>121</ele>
        <time>2024-05-10T16:03:20Z</time>
      </trkpt>
      <trkpt lat="43.20785" lon="2.31049">
        <ele>121</ele>
        <time>2024-05-10T16:03:21Z</time>
      </trkpt>
      <trkpt lat="43.20785" lon="2.31049">
        <ele>121</ele>
        <time>2024-05-10T16:03:22Z</time>
      </trkpt>
      <trkpt lat="43.20785" lon="2.31049">
        <ele>121</ele>
        <time>2024-05-10T16:03:23Z</time>
      </trkpt>
      <trkpt lat="43.20785" lon="2.31049">
        <ele>121</ele>
        <time>2024-05-10T16:03:24Z</time>
      </trkpt>
      <trkpt lat="43.20785" lon="2.31049">
        <ele>121</ele>
        <time>2024-05-10T16:03:25Z</time>
      </trkpt>
      <trkpt lat="43.20785" lon="2.31049">
        <ele>121</ele>
        <time>2024-05-10T16:03:26Z</time>
      </trkpt>
      <trkpt lat="43.20785" lon="2.31049">
        <ele>121</ele>
        <time>2024-05-10T16:03:27Z</time>
      </trkpt>
      <trkpt lat="43.20785" lon="2.31049">
        <ele>121</ele>
        <time>2024-05-10T16:03:28Z</time>
      </trkpt>
      <trkpt lat="43.20785" lon="2.31049">
        <ele>121</ele>
        <time>2024-05-10T16:03:29Z</time>
      </trkpt>
      <trkpt lat="43.20785" lon="2.31049">
        <ele>121</ele>
        <time>2024-05-10T16:03:30Z</time>
      </trkpt>
      <trkpt lat="43.20785" lon="2.31049">
        <ele>121</ele>
        <time>2024-05-10T16:03:31Z</time>
      </trkpt>
      <trkpt lat="43.20785" lon="2.31049">
        <ele>121</ele>
        <time>2024-05-10T16:03:32Z</time>
      </trkpt>
      <trkpt lat="43.20785" lon="2.31049">
        <ele>121</ele>
        <time>2024-05-10T16:03:33Z</time>
      </trkpt>
      <trkpt lat="43.20785" lon="2.31049">
        <ele>121</ele>
        <time>2024-05-10T16:03:34Z</time>
      </trkpt>
      <trkpt lat="43.20785" lon="2.31049">
        <ele>121</ele>
        <time>2024-05-10T16:03:35Z</time>
      </trkpt>
      <trkpt lat="43.20785" lon="2.31049">
        <ele>121</ele>
        <time>2024-05-10T16:03:36Z</time>
      </trkpt>
      <trkpt lat="43.20785" lon="2.31049">
        <ele>121</ele>
        <time>2024-05-10T16:03:37Z</time>
      </trkpt>
      <trkpt lat="43.20785" lon="2.31049">
        <ele>121</ele>
        <time>2024-05-10T16:03:38Z</time>
      </trkpt>
      <trkpt lat="43.20785" lon="2.31049">
        <ele>121</ele>
        <time>2024-05-10T16:03:39Z</time>
      </trkpt>
      <trkpt lat="43.20785" lon="2.31049">
        <ele>121</ele>
        <time>2024-05-10T16:03:40Z</time>
      </trkpt>
      <trkpt lat="43.20785" lon="2.31049">
        <ele>121</ele>
        <time>2024-05-10T16:03:41Z</time>
      </trkpt>
      <trkpt lat="43.20785" lon="2.31049">
        <ele>121</ele>
        <time>2024-05-10T16:03:42Z</time>
      </trkpt>
      <trkpt lat="43.20785" lon="2.31049">
        <ele>121</ele>
        <time>2024-05-10T16:03:43Z</time>
      </trkpt>
      <trkpt lat="43.20785" lon="2.31049">
        <ele>121</ele>
        <time>2024-05-10T16:03:44Z</time>
      </trkpt>
      <trkpt lat="43.20785" lon="2.31049">
        <ele>121</ele>
        <time>2024-05-10T16:03:45Z</time>
      </trkpt>
      <trkpt lat="43.20785" lon="2.31049">
        <ele>121</ele>
        <time>2024-05-10T16:03:46Z</time>
      </trkpt>
      <trkpt lat="43.20785" lon="2.31049">
        <ele>121</ele>
        <time>2024-05-10T16:03:47Z</time>
      </trkpt>
      <trkpt lat="43.20785" lon="2.31049">
        <ele>121</ele>
        <time>2024-05-10T16:03:48Z</time>
      </trkpt>
      <trkpt lat="43.20785" lon="2.31049">
        <ele>121</ele>
        <time>2024-05-10T16:03:49Z</time>
      </trkpt>
      <trkpt lat="43.20785" lon="2.31049">
        <ele>121</ele>
        <time>2024-05-10T16:03:50Z</time>
      </trkpt>
      <trkpt lat="43.20785" lon="2.31049">
        <ele>121</ele>
        <time>2024-05-10T16:03:51Z</time>
      </trkpt>
      <trkpt lat="43.20785" lon="2.31049">
        <ele>121</ele>
        <time>2024-05-10T16:03:52Z</time>
      </trkpt>
      <trkpt lat="43.20785" lon="2.31049">
        <ele>121</ele>
        <time>2024-05-10T16:03:53Z</time>
      </trkpt>
      <trkpt lat="43.20785" lon="2.31049">
        <ele>121</ele>
        <time>2024-05-10T16:03:54Z</time>
      </trkpt>
      <trkpt lat="43.20785" lon="2.31049">
        <ele>121</ele>
        <time>2024-05-10T16:03:55Z</time>
      </trkpt>
      <trkpt lat="43.20785" lon="2.31049">
        <ele>121</ele>
        <time>2024-05-10T16:03:56Z</time>
      </trkpt>
      <trkpt lat="43.20785" lon="2.31049">
        <ele>121</ele>
        <time>2024-05-10T16:03:57Z</time>
      </trkpt>
      <trkpt lat="43.20785" lon="2.31049">
        <ele>121</ele>
        <time>2024-05-10T16:03:58Z</time>
      </trkpt>
      <trkpt lat="43.20785" lon="2.31049">
        <ele>121</ele>
        <time>2024-05-10T16:03:59Z</time>
      </trkpt>
      <trkpt lat="43.20785" lon="2.31049">
        <ele>121</ele>
        <time>2024-05-10T16:04:00Z</time>
      </trkpt>
      <trkpt lat="43.20785" lon="2.31049">
        <ele>121</ele>
        <time>2024-05-10T16:04:01Z</time>
      </trkpt>
      <trkpt lat="43.20785" lon="2.31049">
        <ele>121</ele>
        <time>2024-05-10T16:04:02Z</time>
      </trkpt>
      <trkpt lat="43.20785" lon="2.31049">
        <ele>121</ele>
        <time>2024-05-10T16:04:03Z</time>
      </trkpt>
      <trkpt lat="43.20785" lon="2.31049">
        <ele>121</ele>
        <time>2024-05-10T16:04:04Z</time>
      </trkpt>
      <trkpt lat="43.20785" lon="2.31049">
        <ele>121</ele>
        <time>2024-05-10T16:04:05Z</time>
      </trkpt>
      <trkpt lat="43.20785" lon="2.31049">
        <ele>121</ele>
        <time>2024-05-10T16:04:06Z</time>
      </trkpt>
      <trkpt lat="43.20785" lon="2.31049">
        <ele>121</ele>
        <time>2024-05-10T16:04:07Z</time>
      </trkpt>
      <trkpt lat="43.20785" lon="2.31049">
        <ele>121</ele>
        <time>2024-05-10T16:04:08Z</time>
      </trkpt>
      <trkpt lat="43.20786" lon="2.31049">
        <ele>121</ele>
        <time>2024-05-10T16:04:09Z</time>
      </trkpt>
      <trkpt lat="43.20788" lon="2.31048">
        <ele>121</ele>
        <time>2024-05-10T16:04:10Z</time>
      </trkpt>
      <trkpt lat="43.20791" lon="2.31047">
        <ele>121</ele>
        <time>2024-05-10T16:04:11Z</time>
      </trkpt>
      <trkpt lat="43.20793" lon="2.31046">
        <ele>121</ele>
        <time>2024-05-10T16:04:12Z</time>
      </trkpt>
      <trkpt lat="43.20796" lon="2.31044">
        <ele>121</ele>
        <time>2024-05-10T16:04:13Z</time>
      </trkpt>
      <trkpt lat="43.20798" lon="2.31042">
        <ele>121</ele>
        <time>2024-05-10T16:04:14Z</time>
      </trkpt>
      <trkpt lat="43.208" lon="2.31039">
        <ele>121</ele>
        <time>2024-05-10T16:04:15Z</time>
      </trkpt>
      <trkpt lat="43.20801" lon="2.31036">
        <ele>121</ele>
        <time>2024-05-10T16:04:16Z</time>
      </trkpt>
      <trkpt lat="43.20802" lon="2.31033">
        <ele>121</ele>
        <time>2024-05-10T16:04:17Z</time>
      </trkpt>
      <trkpt lat="43.20804" lon="2.3103">
        <ele>121</ele>
        <time>2024-05-10T16:04:18Z</time>
      </trkpt>
      <trkpt lat="43.20806" lon="2.31026">
        <ele>121</ele>
        <time>2024-05-10T16:04:19Z</time>
      </trkpt>
      <trkpt lat="43.20809" lon="2.31022">
        <ele>120.9</ele>
        <time>2024-05-10T16:04:20Z</time>
      </trkpt>
      <trkpt lat="43.20814" lon="2.31017">
        <ele>120.8</ele>
        <time>2024-05-10T16:04:21Z</time>
      </trkpt>
      <trkpt lat="43.20818" lon="2.31013">
        <ele>120.8</ele>
        <time>2024-05-10T16:04:22Z</time>
      </trkpt>
      <trkpt lat="43.20824" lon="2.31011">
        <ele>120.7</ele>
        <time>2024-05-10T16:04:23Z</time>
      </trkpt>
      <trkpt lat="43.20829" lon="2.31011">
        <ele>120.7</ele>
        <time>2024-05-10T16:04:24Z</time>
      </trkpt>
      <trkpt lat="43.20834" lon="2.31013">
        <ele>120.5</ele>
        <time>2024-05-10T16:04:25Z</time>
      </trkpt>
      <trkpt lat="43.20837" lon="2.31015">
        <ele>120.4</ele>
        <time>2024-05-10T16:04:26Z</time>
      </trkpt>
      <trkpt lat="43.20839" lon="2.31017">
        <ele>120.3</ele>
        <time>2024-05-10T16:04:27Z</time>
      </trkpt>
      <trkpt lat="43.2084" lon="2.31019">
        <ele>120.2</ele>
        <time>2024-05-10T16:04:28Z</time>
      </trkpt>
      <trkpt lat="43.20841" lon="2.31024">
        <ele>120.1</ele>
        <time>2024-05-10T16:04:29Z</time>
      </trkpt>
      <trkpt lat="43.20841" lon="2.3103">
        <ele>119.9</ele>
        <time>2024-05-10T16:04:30Z</time>
      </trkpt>
      <trkpt lat="43.20839" lon="2.31038">
        <ele>119.7</ele>
        <time>2024-05-10T16:04:31Z</time>
      </trkpt>
      <trkpt lat="43.20836" lon="2.31048">
        <ele>119.3</ele>
        <time>2024-05-10T16:04:32Z</time>
      </trkpt>
      <trkpt lat="43.20833" lon="2.31056">
        <ele>119</ele>
        <time>2024-05-10T16:04:33Z</time>
      </trkpt>
      <trkpt lat="43.2083" lon="2.31065">
        <ele>119.2</ele>
        <time>2024-05-10T16:04:34Z</time>
      </trkpt>
      <trkpt lat="43.20826" lon="2.31076">
        <ele>119.3</ele>
        <time>2024-05-10T16:04:35Z</time>
      </trkpt>
      <trkpt lat="43.20821" lon="2.31087">
        <ele>119.4</ele>
        <time>2024-05-10T16:04:36Z</time>
      </trkpt>
      <trkpt lat="43.20817" lon="2.31101">
        <ele>119.2</ele>
        <time>2024-05-10T16:04:37Z</time>
      </trkpt>
      <trkpt lat="43.20813" lon="2.31116">
        <ele>118.8</ele>
        <time>2024-05-10T16:04:38Z</time>
      </trkpt>
      <trkpt lat="43.20809" lon="2.31129">
        <ele>118</ele>
        <time>2024-05-10T16:04:39Z</time>
      </trkpt>
      <trkpt lat="43.20805" lon="2.31144">
        <ele>117.1</ele>
        <time>2024-05-10T16:04:40Z</time>
      </trkpt>
      <trkpt lat="43.20803" lon="2.31158">
        <ele>117.3</ele>
        <time>2024-05-10T16:04:41Z</time>
      </trkpt>
      <trkpt lat="43.20799" lon="2.31174">
        <ele>117.8</ele>
        <time>2024-05-10T16:04:42Z</time>
      </trkpt>
      <trkpt lat="43.20796" lon="2.31189">
        <ele>118</ele>
        <time>2024-05-10T16:04:43Z</time>
      </trkpt>
      <trkpt lat="43.20793" lon="2.31204">
        <ele>117.8</ele>
        <time>2024-05-10T16:04:44Z</time>
      </trkpt>
      <trkpt lat="43.20791" lon="2.31217">
        <ele>117.6</ele>
        <time>2024-05-10T16:04:45Z</time>
      </trkpt>
      <trkpt lat="43.20788" lon="2.3123">
        <ele>117.5</ele>
        <time>2024-05-10T16:04:46Z</time>
      </trkpt>
      <trkpt lat="43.20786" lon="2.31243">
        <ele>117.8</ele>
        <time>2024-05-10T16:04:47Z</time>
      </trkpt>
      <trkpt lat="43.20784" lon="2.31256">
        <ele>117.8</ele>
        <time>2024-05-10T16:04:48Z</time>
      </trkpt>
      <trkpt lat="43.20783" lon="2.31267">
        <ele>117.4</ele>
        <time>2024-05-10T16:04:49Z</time>
      </trkpt>
      <trkpt lat="43.20783" lon="2.31276">
        <ele>117.1</ele>
        <time>2024-05-10T16:04:50Z</time>
      </trkpt>
      <trkpt lat="43.20782" lon="2.31282">
        <ele>117.1</ele>
        <time>2024-05-10T16:04:51Z</time>
      </trkpt>
      <trkpt lat="43.20782" lon="2.31286">
        <ele>117.3</ele>
        <time>2024-05-10T16:04:52Z</time>
      </trkpt>
      <trkpt lat="43.20782" lon="2.31289">
        <ele>117.3</ele>
        <time>2024-05-10T16:04:53Z</time>
      </trkpt>
      <trkpt lat="43.20781" lon="2.31291">
        <ele>117.4</ele>
        <time>2024-05-10T16:04:54Z</time>
      </trkpt>
      <trkpt lat="43.20781" lon="2.31293">
        <ele>117.5</ele>
        <time>2024-05-10T16:04:55Z</time>
      </trkpt>
      <trkpt lat="43.20781" lon="2.31294">
        <ele>117.5</ele>
        <time>2024-05-10T16:04:56Z</time>
      </trkpt>
      <trkpt lat="43.20782" lon="2.31294">
        <ele>117.5</ele>
        <time>2024-05-10T16:04:57Z</time>
      </trkpt>
      <trkpt lat="43.20782" lon="2.31294">
        <ele>117.5</ele>
        <time>2024-05-10T16:04:58Z</time>
      </trkpt>
      <trkpt lat="43.20782" lon="2.31293">
        <ele>117.5</ele>
        <time>2024-05-10T16:04:59Z</time>
      </trkpt>
      <trkpt lat="43.20782" lon="2.31295">
        <ele>117.5</ele>
        <time>2024-05-10T16:05:00Z</time>
      </trkpt>
      <trkpt lat="43.20783" lon="2.31298">
        <ele>117.6</ele>
        <time>2024-05-10T16:05:01Z</time>
      </trkpt>
      <trkpt lat="43.20786" lon="2.31302">
        <ele>117.6</ele>
        <time>2024-05-10T16:05:02Z</time>
      </trkpt>
      <trkpt lat="43.20791" lon="2.31303">
        <ele>117.5</ele>
        <time>2024-05-10T16:05:03Z</time>
      </trkpt>
      <trkpt lat="43.20797" lon="2.31302">
        <ele>117.3</ele>
        <time>2024-05-10T16:05:04Z</time>
      </trkpt>
      <trkpt lat="43.20802" lon="2.313">
        <ele>117.1</ele>
        <time>2024-05-10T16:05:05Z</time>
      </trkpt>
      <trkpt lat="43.20807" lon="2.31298">
        <ele>117.1</ele>
        <time>2024-05-10T16:05:06Z</time>
      </trkpt>
      <trkpt lat="43.20811" lon="2.31295">
        <ele>117.2</ele>
        <time>2024-05-10T16:05:07Z</time>
      </trkpt>
      <trkpt lat="43.20815" lon="2.31294">
        <ele>117.3</ele>
        <time>2024-05-10T16:05:08Z</time>
      </trkpt>
      <trkpt lat="43.20818" lon="2.31294">
        <ele>117.4</ele>
        <time>2024-05-10T16:05:09Z</time>
      </trkpt>
      <trkpt lat="43.20821" lon="2.31295">
        <ele>117.6</ele>
        <time>2024-05-10T16:05:10Z</time>
      </trkpt>
      <trkpt lat="43.20823" lon="2.31296">
        <ele>117.6</ele>
        <time>2024-05-10T16:05:11Z</time>
      </trkpt>
      <trkpt lat="43.20826" lon="2.31297">
        <ele>117.7</ele>
        <time>2024-05-10T16:05:12Z</time>
      </trkpt>
      <trkpt lat="43.20828" lon="2.31297">
        <ele>117.8</ele>
        <time>2024-05-10T16:05:13Z</time>
      </trkpt>
      <trkpt lat="43.2083" lon="2.31297">
        <ele>117.9</ele>
        <time>2024-05-10T16:05:14Z</time>
      </trkpt>
      <trkpt lat="43.20832" lon="2.31297">
        <ele>118</ele>
        <time>2024-05-10T16:05:15Z</time>
      </trkpt>
      <trkpt lat="43.20834" lon="2.31297">
        <ele>118</ele>
        <time>2024-05-10T16:05:16Z</time>
      </trkpt>
      <trkpt lat="43.20835" lon="2.31296">
        <ele>118</ele>
        <time>2024-05-10T16:05:17Z</time>
      </trkpt>
      <trkpt lat="43.20837" lon="2.31295">
        <ele>118</ele>
        <time>2024-05-10T16:05:18Z</time>
      </trkpt>
      <trkpt lat="43.20838" lon="2.31295">
        <ele>118</ele>
        <time>2024-05-10T16:05:19Z</time>
      </trkpt>
      <trkpt lat="43.20839" lon="2.31295">
        <ele>118</ele>
        <time>2024-05-10T16:05:20Z</time>
      </trkpt>
      <trkpt lat="43.20841" lon="2.31295">
        <ele>118</ele>
        <time>2024-05-10T16:05:21Z</time>
      </trkpt>
      <trkpt lat="43.20842" lon="2.31295">
        <ele>118</ele>
        <time>2024-05-10T16:05:22Z</time>
      </trkpt>
      <trkpt lat="43.20843" lon="2.31295">
        <ele>118</ele>
        <time>2024-05-10T16:05:23Z</time>
      </trkpt>
      <trkpt lat="43.20845" lon="2.31296">
        <ele>118</ele>
        <time>2024-05-10T16:05:24Z</time>
      </trkpt>
      <trkpt lat="43.20846" lon="2.31297">
        <ele>118</ele>
        <time>2024-05-10T16:05:25Z</time>
      </trkpt>
      <trkpt lat="43.20847" lon="2.31298">
        <ele>118</ele>
        <time>2024-05-10T16:05:26Z</time>
      </trkpt>
      <trkpt lat="43.20848" lon="2.31299">
        <ele>118</ele>
        <time>2024-05-10T16:05:27Z</time>
      </trkpt>
      <trkpt lat="43.20848" lon="2.31299">
        <ele>118</ele>
        <time>2024-05-10T16:05:28Z</time>
      </trkpt>
      <trkpt lat="43.20848" lon="2.31299">
        <ele>118</ele>
        <time>2024-05-10T16:05:29Z</time>
      </trkpt>
      <trkpt lat="43.20848" lon="2.31299">
        <ele>118</ele>
        <time>2024-05-10T16:05:30Z</time>
      </trkpt>
      <trkpt lat="43.20847" lon="2.31299">
        <ele>118</ele>
        <time>2024-05-10T16:05:31Z</time>
      </trkpt>
      <trkpt lat="43.20847" lon="2.31299">
        <ele>118</ele>
        <time>2024-05-10T16:05:32Z</time>
      </trkpt>
      <trkpt lat="43.20846" lon="2.31299">
        <ele>118</ele>
        <time>2024-05-10T16:05:33Z</time>
      </trkpt>
      <trkpt lat="43.20846" lon="2.31299">
        <ele>118</ele>
        <time>2024-05-10T16:05:34Z</time>
      </trkpt>
      <trkpt lat="43.20846" lon="2.31299">
        <ele>118</ele>
        <time>2024-05-10T16:05:35Z</time>
      </trkpt>
      <trkpt lat="43.20846" lon="2.31298">
        <ele>118</ele>
        <time>2024-05-10T16:05:36Z</time>
      </trkpt>
      <trkpt lat="43.20846" lon="2.31297">
        <ele>118</ele>
        <time>2024-05-10T16:05:37Z</time>
      </trkpt>
      <trkpt lat="43.20847" lon="2.31297">
        <ele>118</ele>
        <time>2024-05-10T16:05:38Z</time>
      </trkpt>
      <trkpt lat="43.20847" lon="2.31296">
        <ele>118</ele>
        <time>2024-05-10T16:05:39Z</time>
      </trkpt>
      <trkpt lat="43.20847" lon="2.31296">
        <ele>118</ele>
        <time>2024-05-10T16:05:40Z</time>
      </trkpt>
      <trkpt lat="43.20847" lon="2.31295">
        <ele>118</ele>
        <time>2024-05-10T16:05:41Z</time>
      </trkpt>
      <trkpt lat="43.20847" lon="2.31295">
        <ele>118</ele>
        <time>2024-05-10T16:05:42Z</time>
      </trkpt>
      <trkpt lat="43.20847" lon="2.31294">
        <ele>118</ele>
        <time>2024-05-10T16:05:43Z</time>
      </trkpt>
      <trkpt lat="43.20847" lon="2.31294">
        <ele>118</ele>
        <time>2024-05-10T16:05:44Z</time>
      </trkpt>
      <trkpt lat="43.20846" lon="2.31295">
        <ele>118</ele>
        <time>2024-05-10T16:05:45Z</time>
      </trkpt>
      <trkpt lat="43.20846" lon="2.31295">
        <ele>118</ele>
        <time>2024-05-10T16:05:46Z</time>
      </trkpt>
      <trkpt lat="43.20846" lon="2.31295">
        <ele>118</ele>
        <time>2024-05-10T16:05:47Z</time>
      </trkpt>
      <trkpt lat="43.20846" lon="2.31296">
        <ele>118</ele>
        <time>2024-05-10T16:05:48Z</time>
      </trkpt>
      <trkpt lat="43.20847" lon="2.31296">
        <ele>118</ele>
        <time>2024-05-10T16:05:49Z</time>
      </trkpt>
      <trkpt lat="43.20847" lon="2.31296">
        <ele>118</ele>
        <time>2024-05-10T16:05:50Z</time>
      </trkpt>
      <trkpt lat="43.20847" lon="2.31296">
        <ele>118</ele>
        <time>2024-05-10T16:05:51Z</time>
      </trkpt>
      <trkpt lat="43.20846" lon="2.31295">
        <ele>118</ele>
        <time>2024-05-10T16:05:52Z</time>
      </trkpt>
      <trkpt lat="43.20846" lon="2.31295">
        <ele>118</ele>
        <time>2024-05-10T16:05:53Z</time>
      </trkpt>
      <trkpt lat="43.20846" lon="2.31295">
        <ele>118</ele>
        <time>2024-05-10T16:05:54Z</time>
      </trkpt>
      <trkpt lat="43.20845" lon="2.31295">
        <ele>118</ele>
        <time>2024-05-10T16:05:55Z</time>
      </trkpt>
      <trkpt lat="43.20845" lon="2.31295">
        <ele>118</ele>
        <time>2024-05-10T16:05:56Z</time>
      </trkpt>
      <trkpt lat="43.20845" lon="2.31295">
        <ele>118</ele>
        <time>2024-05-10T16:05:57Z</time>
      </trkpt>
      <trkpt lat="43.20845" lon="2.31295">
        <ele>118</ele>
        <time>2024-05-10T16:05:58Z</time>
      </trkpt>
      <trkpt lat="43.20845" lon="2.31295">
        <ele>118</ele>
        <time>2024-05-10T16:05:59Z</time>
      </trkpt>
      <trkpt lat="43.20845" lon="2.31295">
        <ele>118</ele>
        <time>2024-05-10T16:06:00Z</time>
      </trkpt>
      <trkpt lat="43.20845" lon="2.31295">
        <ele>118</ele>
        <time>2024-05-10T16:06:01Z</time>
      </trkpt>
      <trkpt lat="43.20845" lon="2.31295">
        <ele>118</ele>
        <time>2024-05-10T16:06:02Z</time>
      </trkpt>
      <trkpt lat="43.20845" lon="2.31295">
        <ele>118</ele>
        <time>2024-05-10T16:06:03Z</time>
      </trkpt>
      <trkpt lat="43.20845" lon="2.31295">
        <ele>118</ele>
        <time>2024-05-10T16:06:04Z</time>
      </trkpt>
      <trkpt lat="43.20845" lon="2.31295">
        <ele>118</ele>
        <time>2024-05-10T16:06:05Z</time>
      </trkpt>
      <trkpt lat="43.20845" lon="2.31296">
        <ele>118</ele>
        <time>2024-05-10T16:06:06Z</time>
      </trkpt>
      <trkpt lat="43.20846" lon="2.31296">
        <ele>118</ele>
        <time>2024-05-10T16:06:07Z</time>
      </trkpt>
      <trkpt lat="43.20846" lon="2.31297">
        <ele>118</ele>
        <time>2024-05-10T16:06:08Z</time>
      </trkpt>
      <trkpt lat="43.20847" lon="2.31297">
        <ele>118</ele>
        <time>2024-05-10T16:06:09Z</time>
      </trkpt>
      <trkpt lat="43.20847" lon="2.31297">
        <ele>118</ele>
        <time>2024-05-10T16:06:10Z</time>
      </trkpt>
      <trkpt lat="43.20847" lon="2.31297">
        <ele>118</ele>
        <time>2024-05-10T16:06:11Z</time>
      </trkpt>
      <trkpt lat="43.20847" lon="2.31297">
        <ele>118</ele>
        <time>2024-05-10T16:06:12Z</time>
      </trkpt>
      <trkpt lat="43.20848" lon="2.31297">
        <ele>118</ele>
        <time>2024-05-10T16:06:13Z</time>
      </trkpt>
      <trkpt lat="43.20847" lon="2.31297">
        <ele>118</ele>
        <time>2024-05-10T16:06:14Z</time>
      </trkpt>
      <trkpt lat="43.20845" lon="2.31296">
        <ele>118</ele>
        <time>2024-05-10T16:06:37Z</time>
      </trkpt>
      <trkpt lat="43.20846" lon="2.3129">
        <ele>118</ele>
        <time>2024-05-10T16:06:38Z</time>
      </trkpt>
      <trkpt lat="43.20846" lon="2.31291">
        <ele>118</ele>
        <time>2024-05-10T16:06:39Z</time>
      </trkpt>
      <trkpt lat="43.20846" lon="2.31291">
        <ele>118</ele>
        <time>2024-05-10T16:06:40Z</time>
      </trkpt>
      <trkpt lat="43.20846" lon="2.31291">
        <ele>118</ele>
        <time>2024-05-10T16:06:41Z</time>
      </trkpt>
      <trkpt lat="43.20846" lon="2.31291">
        <ele>118</ele>
        <time>2024-05-10T16:06:42Z</time>
      </trkpt>
      <trkpt lat="43.20846" lon="2.31291">
        <ele>118</ele>
        <time>2024-05-10T16:06:43Z</time>
      </trkpt>
      <trkpt lat="43.20846" lon="2.31292">
        <ele>118</ele>
        <time>2024-05-10T16:06:44Z</time>
      </trkpt>
      <trkpt lat="43.20846" lon="2.31292">
        <ele>118</ele>
        <time>2024-05-10T16:06:45Z</time>
      </trkpt>
      <trkpt lat="43.20846" lon="2.31292">
        <ele>118</ele>
        <time>2024-05-10T16:06:46Z</time>
      </trkpt>
      <trkpt lat="43.20847" lon="2.31292">
        <ele>118</ele>
        <time>2024-05-10T16:06:47Z</time>
      </trkpt>
      <trkpt lat="43.20847" lon="2.31292">
        <ele>118</ele>
        <time>2024-05-10T16:06:48Z</time>
      </trkpt>
      <trkpt lat="43.20847" lon="2.31292">
        <ele>118</ele>
        <time>2024-05-10T16:06:49Z</time>
      </trkpt>
      <trkpt lat="43.20847" lon="2.31292">
        <ele>118</ele>
        <time>2024-05-10T16:06:50Z</time>
      </trkpt>
      <trkpt lat="43.20847" lon="2.31292">
        <ele>118</ele>
        <time>2024-05-10T16:06:51Z</time>
      </trkpt>
    </trkseg>
  </trk>
</gpx>